<?xml version="1.0" encoding="UTF-8" standalone="no" ?>
<gpx xmlns="http://www.topografix.com/GPX/1/1" xmlns:xsi="http://www.w3.org/2001/XMLSchema-instance" xsi:schemaLocation="http://www.topografix.com/GPX/1/1 http://www.topografix.com/GPX/1/1/gpx.xsd" version="1.1" creator="VisuGPX - https://www.visugpx.com">
  <metadata>
    <name>20180224_BRM 200km Roubaix</name>
    <desc><![CDATA[BRM 200km Roubaix le 24 Février 2018]]></desc>
  </metadata>
  <trk>
    <name><![CDATA[4709360-BRM200 ]]></name>
    <trkseg>
      <trkpt lat="50.6784" lon="3.20288">
        <ele>32</ele>
        <time>2018-01-03T19:04:32Z</time>
      </trkpt>
      <trkpt lat="50.67837" lon="3.20293">
        <ele>32</ele>
        <time>2018-01-03T19:05:32Z</time>
      </trkpt>
      <trkpt lat="50.67828" lon="3.20309">
        <ele>32</ele>
        <time>2018-01-03T19:06:32Z</time>
      </trkpt>
      <trkpt lat="50.67823" lon="3.20326">
        <ele>31</ele>
        <time>2018-01-03T19:07:32Z</time>
      </trkpt>
      <trkpt lat="50.67821" lon="3.20342">
        <ele>31</ele>
        <time>2018-01-03T19:08:32Z</time>
      </trkpt>
      <trkpt lat="50.6782" lon="3.20359">
        <ele>31</ele>
        <time>2018-01-03T19:09:32Z</time>
      </trkpt>
      <trkpt lat="50.67822" lon="3.20371">
        <ele>31</ele>
        <time>2018-01-03T19:10:32Z</time>
      </trkpt>
      <trkpt lat="50.67822" lon="3.20374">
        <ele>31</ele>
        <time>2018-01-03T19:11:32Z</time>
      </trkpt>
      <trkpt lat="50.67827" lon="3.20392">
        <ele>31</ele>
        <time>2018-01-03T19:12:32Z</time>
      </trkpt>
      <trkpt lat="50.67835" lon="3.20409">
        <ele>31</ele>
        <time>2018-01-03T19:13:32Z</time>
      </trkpt>
      <trkpt lat="50.67848" lon="3.2043">
        <ele>31</ele>
        <time>2018-01-03T19:14:32Z</time>
      </trkpt>
      <trkpt lat="50.67855" lon="3.20441">
        <ele>31</ele>
        <time>2018-01-03T19:15:32Z</time>
      </trkpt>
      <trkpt lat="50.67879" lon="3.2048">
        <ele>32</ele>
        <time>2018-01-03T19:16:32Z</time>
      </trkpt>
      <trkpt lat="50.67917" lon="3.20539">
        <ele>32</ele>
        <time>2018-01-03T19:17:32Z</time>
      </trkpt>
      <trkpt lat="50.67926" lon="3.20556">
        <ele>32</ele>
        <time>2018-01-03T19:18:32Z</time>
      </trkpt>
      <trkpt lat="50.6794" lon="3.20591">
        <ele>33</ele>
        <time>2018-01-03T19:19:32Z</time>
      </trkpt>
      <trkpt lat="50.67945" lon="3.20603">
        <ele>33</ele>
        <time>2018-01-03T19:20:32Z</time>
      </trkpt>
      <trkpt lat="50.67955" lon="3.20628">
        <ele>33</ele>
        <time>2018-01-03T19:21:32Z</time>
      </trkpt>
      <trkpt lat="50.67955" lon="3.20628">
        <ele>33</ele>
        <time>2018-01-03T19:22:32Z</time>
      </trkpt>
      <trkpt lat="50.6796" lon="3.20623">
        <ele>33</ele>
        <time>2018-01-03T19:23:32Z</time>
      </trkpt>
      <trkpt lat="50.67971" lon="3.20611">
        <ele>32</ele>
        <time>2018-01-03T19:24:32Z</time>
      </trkpt>
      <trkpt lat="50.6805" lon="3.20526">
        <ele>32</ele>
        <time>2018-01-03T19:25:32Z</time>
      </trkpt>
      <trkpt lat="50.68065" lon="3.20509">
        <ele>32</ele>
        <time>2018-01-03T19:26:32Z</time>
      </trkpt>
      <trkpt lat="50.68076" lon="3.20502">
        <ele>32</ele>
        <time>2018-01-03T19:27:32Z</time>
      </trkpt>
      <trkpt lat="50.68097" lon="3.2048">
        <ele>31</ele>
        <time>2018-01-03T19:28:32Z</time>
      </trkpt>
      <trkpt lat="50.68105" lon="3.2047">
        <ele>31</ele>
        <time>2018-01-03T19:29:32Z</time>
      </trkpt>
      <trkpt lat="50.68113" lon="3.20462">
        <ele>31</ele>
        <time>2018-01-03T19:30:32Z</time>
      </trkpt>
      <trkpt lat="50.68113" lon="3.20462">
        <ele>31</ele>
        <time>2018-01-03T19:31:32Z</time>
      </trkpt>
      <trkpt lat="50.68109" lon="3.20456">
        <ele>31</ele>
        <time>2018-01-03T19:32:32Z</time>
      </trkpt>
      <trkpt lat="50.68034" lon="3.20339">
        <ele>29</ele>
        <time>2018-01-03T19:33:32Z</time>
      </trkpt>
      <trkpt lat="50.68002" lon="3.20285">
        <ele>30</ele>
        <time>2018-01-03T19:34:32Z</time>
      </trkpt>
      <trkpt lat="50.67966" lon="3.2023">
        <ele>31</ele>
        <time>2018-01-03T19:35:32Z</time>
      </trkpt>
      <trkpt lat="50.6796" lon="3.20219">
        <ele>31</ele>
        <time>2018-01-03T19:36:32Z</time>
      </trkpt>
      <trkpt lat="50.67959" lon="3.20216">
        <ele>31</ele>
        <time>2018-01-03T19:37:32Z</time>
      </trkpt>
      <trkpt lat="50.67948" lon="3.20201">
        <ele>31</ele>
        <time>2018-01-03T19:38:32Z</time>
      </trkpt>
      <trkpt lat="50.67939" lon="3.20186">
        <ele>31</ele>
        <time>2018-01-03T19:39:32Z</time>
      </trkpt>
      <trkpt lat="50.67922" lon="3.2016">
        <ele>32</ele>
        <time>2018-01-03T19:40:32Z</time>
      </trkpt>
      <trkpt lat="50.67906" lon="3.20135">
        <ele>33</ele>
        <time>2018-01-03T19:41:32Z</time>
      </trkpt>
      <trkpt lat="50.67887" lon="3.20105">
        <ele>33</ele>
        <time>2018-01-03T19:42:32Z</time>
      </trkpt>
      <trkpt lat="50.67877" lon="3.20088">
        <ele>33</ele>
        <time>2018-01-03T19:43:32Z</time>
      </trkpt>
      <trkpt lat="50.6783" lon="3.20017">
        <ele>33</ele>
        <time>2018-01-03T19:44:32Z</time>
      </trkpt>
      <trkpt lat="50.67755" lon="3.19897">
        <ele>36</ele>
        <time>2018-01-03T19:45:32Z</time>
      </trkpt>
      <trkpt lat="50.67736" lon="3.1987">
        <ele>35</ele>
        <time>2018-01-03T19:46:32Z</time>
      </trkpt>
      <trkpt lat="50.67702" lon="3.19811">
        <ele>35</ele>
        <time>2018-01-03T19:47:32Z</time>
      </trkpt>
      <trkpt lat="50.67688" lon="3.19789">
        <ele>34</ele>
        <time>2018-01-03T19:48:32Z</time>
      </trkpt>
      <trkpt lat="50.67681" lon="3.19778">
        <ele>34</ele>
        <time>2018-01-03T19:49:32Z</time>
      </trkpt>
      <trkpt lat="50.67669" lon="3.19761">
        <ele>34</ele>
        <time>2018-01-03T19:50:32Z</time>
      </trkpt>
      <trkpt lat="50.67669" lon="3.19761">
        <ele>34</ele>
        <time>2018-01-03T19:51:32Z</time>
      </trkpt>
      <trkpt lat="50.6771" lon="3.197">
        <ele>34</ele>
        <time>2018-01-03T19:52:32Z</time>
      </trkpt>
      <trkpt lat="50.67719" lon="3.19685">
        <ele>34</ele>
        <time>2018-01-03T19:53:32Z</time>
      </trkpt>
      <trkpt lat="50.67792" lon="3.19565">
        <ele>35</ele>
        <time>2018-01-03T19:54:32Z</time>
      </trkpt>
      <trkpt lat="50.67848" lon="3.19476">
        <ele>35</ele>
        <time>2018-01-03T19:55:32Z</time>
      </trkpt>
      <trkpt lat="50.67854" lon="3.19465">
        <ele>35</ele>
        <time>2018-01-03T19:56:32Z</time>
      </trkpt>
      <trkpt lat="50.67854" lon="3.19465">
        <ele>35</ele>
        <time>2018-01-03T19:57:32Z</time>
      </trkpt>
      <trkpt lat="50.6791" lon="3.19351">
        <ele>35</ele>
        <time>2018-01-03T19:58:32Z</time>
      </trkpt>
      <trkpt lat="50.67964" lon="3.19239">
        <ele>36</ele>
        <time>2018-01-03T19:59:32Z</time>
      </trkpt>
      <trkpt lat="50.68002" lon="3.19161">
        <ele>36</ele>
        <time>2018-01-03T20:00:32Z</time>
      </trkpt>
      <trkpt lat="50.68013" lon="3.19141">
        <ele>35</ele>
        <time>2018-01-03T20:01:32Z</time>
      </trkpt>
      <trkpt lat="50.68052" lon="3.19062">
        <ele>32</ele>
        <time>2018-01-03T20:02:32Z</time>
      </trkpt>
      <trkpt lat="50.68087" lon="3.18991">
        <ele>31</ele>
        <time>2018-01-03T20:03:32Z</time>
      </trkpt>
      <trkpt lat="50.68132" lon="3.18903">
        <ele>31</ele>
        <time>2018-01-03T20:04:32Z</time>
      </trkpt>
      <trkpt lat="50.6824" lon="3.18698">
        <ele>33</ele>
        <time>2018-01-03T20:05:32Z</time>
      </trkpt>
      <trkpt lat="50.68261" lon="3.1866">
        <ele>33</ele>
        <time>2018-01-03T20:06:32Z</time>
      </trkpt>
      <trkpt lat="50.68267" lon="3.18648">
        <ele>32</ele>
        <time>2018-01-03T20:07:32Z</time>
      </trkpt>
      <trkpt lat="50.68293" lon="3.18601">
        <ele>32</ele>
        <time>2018-01-03T20:08:32Z</time>
      </trkpt>
      <trkpt lat="50.68335" lon="3.18522">
        <ele>33</ele>
        <time>2018-01-03T20:09:32Z</time>
      </trkpt>
      <trkpt lat="50.6834" lon="3.18513">
        <ele>33</ele>
        <time>2018-01-03T20:10:32Z</time>
      </trkpt>
      <trkpt lat="50.68379" lon="3.18438">
        <ele>33</ele>
        <time>2018-01-03T20:11:32Z</time>
      </trkpt>
      <trkpt lat="50.68438" lon="3.18327">
        <ele>33</ele>
        <time>2018-01-03T20:12:32Z</time>
      </trkpt>
      <trkpt lat="50.68442" lon="3.1832">
        <ele>33</ele>
        <time>2018-01-03T20:13:32Z</time>
      </trkpt>
      <trkpt lat="50.68442" lon="3.1832">
        <ele>33</ele>
        <time>2018-01-03T20:14:32Z</time>
      </trkpt>
      <trkpt lat="50.68451" lon="3.18307">
        <ele>33</ele>
        <time>2018-01-03T20:15:32Z</time>
      </trkpt>
      <trkpt lat="50.68476" lon="3.18271">
        <ele>34</ele>
        <time>2018-01-03T20:16:32Z</time>
      </trkpt>
      <trkpt lat="50.68505" lon="3.18228">
        <ele>35</ele>
        <time>2018-01-03T20:17:32Z</time>
      </trkpt>
      <trkpt lat="50.68522" lon="3.18204">
        <ele>35</ele>
        <time>2018-01-03T20:18:32Z</time>
      </trkpt>
      <trkpt lat="50.68529" lon="3.18196">
        <ele>35</ele>
        <time>2018-01-03T20:19:32Z</time>
      </trkpt>
      <trkpt lat="50.68545" lon="3.18182">
        <ele>35</ele>
        <time>2018-01-03T20:20:32Z</time>
      </trkpt>
      <trkpt lat="50.6855" lon="3.18177">
        <ele>35</ele>
        <time>2018-01-03T20:21:32Z</time>
      </trkpt>
      <trkpt lat="50.68565" lon="3.18165">
        <ele>35</ele>
        <time>2018-01-03T20:22:32Z</time>
      </trkpt>
      <trkpt lat="50.68609" lon="3.18125">
        <ele>35</ele>
        <time>2018-01-03T20:23:32Z</time>
      </trkpt>
      <trkpt lat="50.68648" lon="3.18091">
        <ele>34</ele>
        <time>2018-01-03T20:24:32Z</time>
      </trkpt>
      <trkpt lat="50.68708" lon="3.18037">
        <ele>34</ele>
        <time>2018-01-03T20:25:32Z</time>
      </trkpt>
      <trkpt lat="50.68726" lon="3.18021">
        <ele>33</ele>
        <time>2018-01-03T20:26:32Z</time>
      </trkpt>
      <trkpt lat="50.68736" lon="3.18011">
        <ele>33</ele>
        <time>2018-01-03T20:27:32Z</time>
      </trkpt>
      <trkpt lat="50.68738" lon="3.18013">
        <ele>33</ele>
        <time>2018-01-03T20:28:32Z</time>
      </trkpt>
      <trkpt lat="50.68743" lon="3.18015">
        <ele>32</ele>
        <time>2018-01-03T20:29:32Z</time>
      </trkpt>
      <trkpt lat="50.68747" lon="3.18015">
        <ele>32</ele>
        <time>2018-01-03T20:30:32Z</time>
      </trkpt>
      <trkpt lat="50.6875" lon="3.18014">
        <ele>32</ele>
        <time>2018-01-03T20:31:32Z</time>
      </trkpt>
      <trkpt lat="50.68753" lon="3.18011">
        <ele>32</ele>
        <time>2018-01-03T20:32:32Z</time>
      </trkpt>
      <trkpt lat="50.68757" lon="3.18008">
        <ele>32</ele>
        <time>2018-01-03T20:33:32Z</time>
      </trkpt>
      <trkpt lat="50.6876" lon="3.18004">
        <ele>32</ele>
        <time>2018-01-03T20:34:32Z</time>
      </trkpt>
      <trkpt lat="50.68763" lon="3.17998">
        <ele>32</ele>
        <time>2018-01-03T20:35:32Z</time>
      </trkpt>
      <trkpt lat="50.68765" lon="3.17991">
        <ele>32</ele>
        <time>2018-01-03T20:36:32Z</time>
      </trkpt>
      <trkpt lat="50.68765" lon="3.17984">
        <ele>32</ele>
        <time>2018-01-03T20:37:32Z</time>
      </trkpt>
      <trkpt lat="50.68765" lon="3.17978">
        <ele>32</ele>
        <time>2018-01-03T20:38:32Z</time>
      </trkpt>
      <trkpt lat="50.68764" lon="3.17974">
        <ele>32</ele>
        <time>2018-01-03T20:39:32Z</time>
      </trkpt>
      <trkpt lat="50.6879" lon="3.17958">
        <ele>32</ele>
        <time>2018-01-03T20:40:32Z</time>
      </trkpt>
      <trkpt lat="50.68798" lon="3.1795">
        <ele>32</ele>
        <time>2018-01-03T20:41:32Z</time>
      </trkpt>
      <trkpt lat="50.6884" lon="3.17912">
        <ele>32</ele>
        <time>2018-01-03T20:42:32Z</time>
      </trkpt>
      <trkpt lat="50.68844" lon="3.17912">
        <ele>32</ele>
        <time>2018-01-03T20:43:32Z</time>
      </trkpt>
      <trkpt lat="50.68873" lon="3.17887">
        <ele>31</ele>
        <time>2018-01-03T20:44:32Z</time>
      </trkpt>
      <trkpt lat="50.68882" lon="3.17878">
        <ele>31</ele>
        <time>2018-01-03T20:45:32Z</time>
      </trkpt>
      <trkpt lat="50.68884" lon="3.17874">
        <ele>31</ele>
        <time>2018-01-03T20:46:32Z</time>
      </trkpt>
      <trkpt lat="50.68936" lon="3.17832">
        <ele>30</ele>
        <time>2018-01-03T20:47:32Z</time>
      </trkpt>
      <trkpt lat="50.6894" lon="3.17829">
        <ele>29</ele>
        <time>2018-01-03T20:48:32Z</time>
      </trkpt>
      <trkpt lat="50.68946" lon="3.17823">
        <ele>29</ele>
        <time>2018-01-03T20:49:32Z</time>
      </trkpt>
      <trkpt lat="50.6895" lon="3.17819">
        <ele>29</ele>
        <time>2018-01-03T20:50:32Z</time>
      </trkpt>
      <trkpt lat="50.68957" lon="3.17811">
        <ele>29</ele>
        <time>2018-01-03T20:51:32Z</time>
      </trkpt>
      <trkpt lat="50.68975" lon="3.17778">
        <ele>29</ele>
        <time>2018-01-03T20:52:32Z</time>
      </trkpt>
      <trkpt lat="50.68977" lon="3.17772">
        <ele>29</ele>
        <time>2018-01-03T20:53:32Z</time>
      </trkpt>
      <trkpt lat="50.68983" lon="3.17754">
        <ele>29</ele>
        <time>2018-01-03T20:54:32Z</time>
      </trkpt>
      <trkpt lat="50.68984" lon="3.17751">
        <ele>29</ele>
        <time>2018-01-03T20:55:32Z</time>
      </trkpt>
      <trkpt lat="50.68986" lon="3.17746">
        <ele>29</ele>
        <time>2018-01-03T20:56:32Z</time>
      </trkpt>
      <trkpt lat="50.6899" lon="3.17731">
        <ele>29</ele>
        <time>2018-01-03T20:57:32Z</time>
      </trkpt>
      <trkpt lat="50.6899" lon="3.17731">
        <ele>29</ele>
        <time>2018-01-03T20:58:32Z</time>
      </trkpt>
      <trkpt lat="50.68995" lon="3.17716">
        <ele>30</ele>
        <time>2018-01-03T20:59:32Z</time>
      </trkpt>
      <trkpt lat="50.68997" lon="3.17703">
        <ele>30</ele>
        <time>2018-01-03T21:00:32Z</time>
      </trkpt>
      <trkpt lat="50.69003" lon="3.17694">
        <ele>30</ele>
        <time>2018-01-03T21:01:32Z</time>
      </trkpt>
      <trkpt lat="50.6901" lon="3.1769">
        <ele>30</ele>
        <time>2018-01-03T21:02:32Z</time>
      </trkpt>
      <trkpt lat="50.6906" lon="3.17665">
        <ele>30</ele>
        <time>2018-01-03T21:03:32Z</time>
      </trkpt>
      <trkpt lat="50.69066" lon="3.17661">
        <ele>30</ele>
        <time>2018-01-03T21:04:32Z</time>
      </trkpt>
      <trkpt lat="50.69066" lon="3.17661">
        <ele>30</ele>
        <time>2018-01-03T21:05:32Z</time>
      </trkpt>
      <trkpt lat="50.69064" lon="3.17657">
        <ele>30</ele>
        <time>2018-01-03T21:06:32Z</time>
      </trkpt>
      <trkpt lat="50.69063" lon="3.17655">
        <ele>30</ele>
        <time>2018-01-03T21:07:32Z</time>
      </trkpt>
      <trkpt lat="50.69063" lon="3.17652">
        <ele>30</ele>
        <time>2018-01-03T21:08:32Z</time>
      </trkpt>
      <trkpt lat="50.69063" lon="3.17647">
        <ele>30</ele>
        <time>2018-01-03T21:09:32Z</time>
      </trkpt>
      <trkpt lat="50.69064" lon="3.1764">
        <ele>31</ele>
        <time>2018-01-03T21:10:32Z</time>
      </trkpt>
      <trkpt lat="50.69064" lon="3.1763">
        <ele>31</ele>
        <time>2018-01-03T21:11:32Z</time>
      </trkpt>
      <trkpt lat="50.69065" lon="3.17622">
        <ele>31</ele>
        <time>2018-01-03T21:12:32Z</time>
      </trkpt>
      <trkpt lat="50.69065" lon="3.17603">
        <ele>31</ele>
        <time>2018-01-03T21:13:32Z</time>
      </trkpt>
      <trkpt lat="50.69066" lon="3.17574">
        <ele>32</ele>
        <time>2018-01-03T21:14:32Z</time>
      </trkpt>
      <trkpt lat="50.69068" lon="3.17542">
        <ele>33</ele>
        <time>2018-01-03T21:15:32Z</time>
      </trkpt>
      <trkpt lat="50.69064" lon="3.17504">
        <ele>33</ele>
        <time>2018-01-03T21:16:32Z</time>
      </trkpt>
      <trkpt lat="50.69064" lon="3.175">
        <ele>34</ele>
        <time>2018-01-03T21:17:32Z</time>
      </trkpt>
      <trkpt lat="50.69062" lon="3.17483">
        <ele>34</ele>
        <time>2018-01-03T21:18:32Z</time>
      </trkpt>
      <trkpt lat="50.69062" lon="3.17483">
        <ele>34</ele>
        <time>2018-01-03T21:19:32Z</time>
      </trkpt>
      <trkpt lat="50.6914" lon="3.17465">
        <ele>35</ele>
        <time>2018-01-03T21:20:32Z</time>
      </trkpt>
      <trkpt lat="50.6914" lon="3.17465">
        <ele>35</ele>
        <time>2018-01-03T21:21:32Z</time>
      </trkpt>
      <trkpt lat="50.69136" lon="3.17425">
        <ele>35</ele>
        <time>2018-01-03T21:22:32Z</time>
      </trkpt>
      <trkpt lat="50.69134" lon="3.17401">
        <ele>36</ele>
        <time>2018-01-03T21:23:32Z</time>
      </trkpt>
      <trkpt lat="50.69126" lon="3.17322">
        <ele>36</ele>
        <time>2018-01-03T21:24:32Z</time>
      </trkpt>
      <trkpt lat="50.69126" lon="3.17322">
        <ele>36</ele>
        <time>2018-01-03T21:25:32Z</time>
      </trkpt>
      <trkpt lat="50.69144" lon="3.17319">
        <ele>36</ele>
        <time>2018-01-03T21:26:32Z</time>
      </trkpt>
      <trkpt lat="50.69146" lon="3.17318">
        <ele>36</ele>
        <time>2018-01-03T21:27:32Z</time>
      </trkpt>
      <trkpt lat="50.69149" lon="3.17317">
        <ele>36</ele>
        <time>2018-01-03T21:28:32Z</time>
      </trkpt>
      <trkpt lat="50.69155" lon="3.17315">
        <ele>35</ele>
        <time>2018-01-03T21:29:32Z</time>
      </trkpt>
      <trkpt lat="50.69161" lon="3.17318">
        <ele>35</ele>
        <time>2018-01-03T21:30:32Z</time>
      </trkpt>
      <trkpt lat="50.69161" lon="3.17318">
        <ele>35</ele>
        <time>2018-01-03T21:31:32Z</time>
      </trkpt>
      <trkpt lat="50.69163" lon="3.1732">
        <ele>35</ele>
        <time>2018-01-03T21:32:32Z</time>
      </trkpt>
      <trkpt lat="50.69164" lon="3.1732">
        <ele>35</ele>
        <time>2018-01-03T21:33:32Z</time>
      </trkpt>
      <trkpt lat="50.69165" lon="3.17319">
        <ele>35</ele>
        <time>2018-01-03T21:34:32Z</time>
      </trkpt>
      <trkpt lat="50.69166" lon="3.17318">
        <ele>35</ele>
        <time>2018-01-03T21:35:32Z</time>
      </trkpt>
      <trkpt lat="50.69172" lon="3.17307">
        <ele>35</ele>
        <time>2018-01-03T21:36:32Z</time>
      </trkpt>
      <trkpt lat="50.69177" lon="3.17295">
        <ele>36</ele>
        <time>2018-01-03T21:37:32Z</time>
      </trkpt>
      <trkpt lat="50.69235" lon="3.17146">
        <ele>39</ele>
        <time>2018-01-03T21:38:32Z</time>
      </trkpt>
      <trkpt lat="50.69263" lon="3.17081">
        <ele>38</ele>
        <time>2018-01-03T21:39:32Z</time>
      </trkpt>
      <trkpt lat="50.69292" lon="3.17013">
        <ele>37</ele>
        <time>2018-01-03T21:40:32Z</time>
      </trkpt>
      <trkpt lat="50.69325" lon="3.16934">
        <ele>38</ele>
        <time>2018-01-03T21:41:32Z</time>
      </trkpt>
      <trkpt lat="50.69331" lon="3.16919">
        <ele>38</ele>
        <time>2018-01-03T21:42:32Z</time>
      </trkpt>
      <trkpt lat="50.69365" lon="3.16837">
        <ele>40</ele>
        <time>2018-01-03T21:43:32Z</time>
      </trkpt>
      <trkpt lat="50.69375" lon="3.16812">
        <ele>40</ele>
        <time>2018-01-03T21:44:32Z</time>
      </trkpt>
      <trkpt lat="50.69411" lon="3.16725">
        <ele>40</ele>
        <time>2018-01-03T21:45:32Z</time>
      </trkpt>
      <trkpt lat="50.69417" lon="3.16709">
        <ele>40</ele>
        <time>2018-01-03T21:46:32Z</time>
      </trkpt>
      <trkpt lat="50.69425" lon="3.1669">
        <ele>40</ele>
        <time>2018-01-03T21:47:32Z</time>
      </trkpt>
      <trkpt lat="50.69431" lon="3.16675">
        <ele>40</ele>
        <time>2018-01-03T21:48:32Z</time>
      </trkpt>
      <trkpt lat="50.69437" lon="3.16661">
        <ele>40</ele>
        <time>2018-01-03T21:49:32Z</time>
      </trkpt>
      <trkpt lat="50.69459" lon="3.16611">
        <ele>41</ele>
        <time>2018-01-03T21:50:32Z</time>
      </trkpt>
      <trkpt lat="50.69481" lon="3.1655">
        <ele>42</ele>
        <time>2018-01-03T21:51:32Z</time>
      </trkpt>
      <trkpt lat="50.69488" lon="3.16532">
        <ele>43</ele>
        <time>2018-01-03T21:52:32Z</time>
      </trkpt>
      <trkpt lat="50.6951" lon="3.16478">
        <ele>43</ele>
        <time>2018-01-03T21:53:32Z</time>
      </trkpt>
      <trkpt lat="50.69534" lon="3.16423">
        <ele>43</ele>
        <time>2018-01-03T21:54:32Z</time>
      </trkpt>
      <trkpt lat="50.69534" lon="3.16423">
        <ele>43</ele>
        <time>2018-01-03T21:55:32Z</time>
      </trkpt>
      <trkpt lat="50.69537" lon="3.16423">
        <ele>43</ele>
        <time>2018-01-03T21:56:32Z</time>
      </trkpt>
      <trkpt lat="50.69541" lon="3.16423">
        <ele>44</ele>
        <time>2018-01-03T21:57:32Z</time>
      </trkpt>
      <trkpt lat="50.69544" lon="3.16421">
        <ele>44</ele>
        <time>2018-01-03T21:58:32Z</time>
      </trkpt>
      <trkpt lat="50.69547" lon="3.1642">
        <ele>44</ele>
        <time>2018-01-03T21:59:32Z</time>
      </trkpt>
      <trkpt lat="50.69549" lon="3.16418">
        <ele>44</ele>
        <time>2018-01-03T22:00:32Z</time>
      </trkpt>
      <trkpt lat="50.69551" lon="3.16415">
        <ele>44</ele>
        <time>2018-01-03T22:01:32Z</time>
      </trkpt>
      <trkpt lat="50.69553" lon="3.16411">
        <ele>44</ele>
        <time>2018-01-03T22:02:32Z</time>
      </trkpt>
      <trkpt lat="50.69554" lon="3.16408">
        <ele>44</ele>
        <time>2018-01-03T22:03:32Z</time>
      </trkpt>
      <trkpt lat="50.69555" lon="3.16403">
        <ele>44</ele>
        <time>2018-01-03T22:04:32Z</time>
      </trkpt>
      <trkpt lat="50.69555" lon="3.16396">
        <ele>43</ele>
        <time>2018-01-03T22:05:32Z</time>
      </trkpt>
      <trkpt lat="50.69555" lon="3.16392">
        <ele>43</ele>
        <time>2018-01-03T22:06:32Z</time>
      </trkpt>
      <trkpt lat="50.69554" lon="3.16389">
        <ele>43</ele>
        <time>2018-01-03T22:07:32Z</time>
      </trkpt>
      <trkpt lat="50.69553" lon="3.16385">
        <ele>43</ele>
        <time>2018-01-03T22:08:32Z</time>
      </trkpt>
      <trkpt lat="50.69552" lon="3.16381">
        <ele>43</ele>
        <time>2018-01-03T22:09:32Z</time>
      </trkpt>
      <trkpt lat="50.6955" lon="3.16378">
        <ele>43</ele>
        <time>2018-01-03T22:10:32Z</time>
      </trkpt>
      <trkpt lat="50.69547" lon="3.16374">
        <ele>43</ele>
        <time>2018-01-03T22:11:32Z</time>
      </trkpt>
      <trkpt lat="50.69543" lon="3.16373">
        <ele>43</ele>
        <time>2018-01-03T22:12:32Z</time>
      </trkpt>
      <trkpt lat="50.6954" lon="3.16372">
        <ele>43</ele>
        <time>2018-01-03T22:13:32Z</time>
      </trkpt>
      <trkpt lat="50.69539" lon="3.16372">
        <ele>43</ele>
        <time>2018-01-03T22:14:32Z</time>
      </trkpt>
      <trkpt lat="50.69536" lon="3.1637">
        <ele>43</ele>
        <time>2018-01-03T22:15:32Z</time>
      </trkpt>
      <trkpt lat="50.69532" lon="3.16367">
        <ele>43</ele>
        <time>2018-01-03T22:16:32Z</time>
      </trkpt>
      <trkpt lat="50.69527" lon="3.16363">
        <ele>43</ele>
        <time>2018-01-03T22:17:32Z</time>
      </trkpt>
      <trkpt lat="50.69522" lon="3.1636">
        <ele>43</ele>
        <time>2018-01-03T22:18:32Z</time>
      </trkpt>
      <trkpt lat="50.69521" lon="3.16358">
        <ele>43</ele>
        <time>2018-01-03T22:19:32Z</time>
      </trkpt>
      <trkpt lat="50.69514" lon="3.16353">
        <ele>43</ele>
        <time>2018-01-03T22:20:32Z</time>
      </trkpt>
      <trkpt lat="50.69513" lon="3.16352">
        <ele>43</ele>
        <time>2018-01-03T22:21:32Z</time>
      </trkpt>
      <trkpt lat="50.69499" lon="3.16343">
        <ele>43</ele>
        <time>2018-01-03T22:22:32Z</time>
      </trkpt>
      <trkpt lat="50.69478" lon="3.16329">
        <ele>42</ele>
        <time>2018-01-03T22:23:32Z</time>
      </trkpt>
      <trkpt lat="50.69452" lon="3.16312">
        <ele>40</ele>
        <time>2018-01-03T22:24:32Z</time>
      </trkpt>
      <trkpt lat="50.69433" lon="3.16299">
        <ele>39</ele>
        <time>2018-01-03T22:25:32Z</time>
      </trkpt>
      <trkpt lat="50.69422" lon="3.16289">
        <ele>38</ele>
        <time>2018-01-03T22:26:32Z</time>
      </trkpt>
      <trkpt lat="50.69414" lon="3.16281">
        <ele>38</ele>
        <time>2018-01-03T22:27:32Z</time>
      </trkpt>
      <trkpt lat="50.69407" lon="3.16273">
        <ele>38</ele>
        <time>2018-01-03T22:28:32Z</time>
      </trkpt>
      <trkpt lat="50.69404" lon="3.16269">
        <ele>37</ele>
        <time>2018-01-03T22:29:32Z</time>
      </trkpt>
      <trkpt lat="50.69401" lon="3.16263">
        <ele>37</ele>
        <time>2018-01-03T22:30:32Z</time>
      </trkpt>
      <trkpt lat="50.69392" lon="3.16243">
        <ele>37</ele>
        <time>2018-01-03T22:31:32Z</time>
      </trkpt>
      <trkpt lat="50.69381" lon="3.1622">
        <ele>36</ele>
        <time>2018-01-03T22:32:32Z</time>
      </trkpt>
      <trkpt lat="50.69378" lon="3.16214">
        <ele>36</ele>
        <time>2018-01-03T22:33:32Z</time>
      </trkpt>
      <trkpt lat="50.69374" lon="3.16208">
        <ele>36</ele>
        <time>2018-01-03T22:34:32Z</time>
      </trkpt>
      <trkpt lat="50.69357" lon="3.1619">
        <ele>36</ele>
        <time>2018-01-03T22:35:32Z</time>
      </trkpt>
      <trkpt lat="50.6935" lon="3.16184">
        <ele>35</ele>
        <time>2018-01-03T22:36:32Z</time>
      </trkpt>
      <trkpt lat="50.69347" lon="3.1618">
        <ele>35</ele>
        <time>2018-01-03T22:37:32Z</time>
      </trkpt>
      <trkpt lat="50.69322" lon="3.16152">
        <ele>34</ele>
        <time>2018-01-03T22:38:32Z</time>
      </trkpt>
      <trkpt lat="50.69304" lon="3.16138">
        <ele>34</ele>
        <time>2018-01-03T22:39:32Z</time>
      </trkpt>
      <trkpt lat="50.69299" lon="3.16134">
        <ele>34</ele>
        <time>2018-01-03T22:40:32Z</time>
      </trkpt>
      <trkpt lat="50.69299" lon="3.16134">
        <ele>34</ele>
        <time>2018-01-03T22:41:32Z</time>
      </trkpt>
      <trkpt lat="50.69305" lon="3.16114">
        <ele>34</ele>
        <time>2018-01-03T22:42:32Z</time>
      </trkpt>
      <trkpt lat="50.6931" lon="3.16095">
        <ele>34</ele>
        <time>2018-01-03T22:43:32Z</time>
      </trkpt>
      <trkpt lat="50.6931" lon="3.16095">
        <ele>34</ele>
        <time>2018-01-03T22:44:32Z</time>
      </trkpt>
      <trkpt lat="50.69315" lon="3.16074">
        <ele>34</ele>
        <time>2018-01-03T22:45:32Z</time>
      </trkpt>
      <trkpt lat="50.69329" lon="3.16024">
        <ele>34</ele>
        <time>2018-01-03T22:46:32Z</time>
      </trkpt>
      <trkpt lat="50.6935" lon="3.15954">
        <ele>34</ele>
        <time>2018-01-03T22:47:32Z</time>
      </trkpt>
      <trkpt lat="50.69356" lon="3.15934">
        <ele>35</ele>
        <time>2018-01-03T22:48:32Z</time>
      </trkpt>
      <trkpt lat="50.69358" lon="3.15927">
        <ele>35</ele>
        <time>2018-01-03T22:49:32Z</time>
      </trkpt>
      <trkpt lat="50.69364" lon="3.15909">
        <ele>35</ele>
        <time>2018-01-03T22:50:32Z</time>
      </trkpt>
      <trkpt lat="50.69377" lon="3.15871">
        <ele>35</ele>
        <time>2018-01-03T22:51:32Z</time>
      </trkpt>
      <trkpt lat="50.69377" lon="3.15871">
        <ele>35</ele>
        <time>2018-01-03T22:52:32Z</time>
      </trkpt>
      <trkpt lat="50.69387" lon="3.15834">
        <ele>35</ele>
        <time>2018-01-03T22:53:32Z</time>
      </trkpt>
      <trkpt lat="50.69388" lon="3.15831">
        <ele>35</ele>
        <time>2018-01-03T22:54:32Z</time>
      </trkpt>
      <trkpt lat="50.69394" lon="3.15812">
        <ele>35</ele>
        <time>2018-01-03T22:55:32Z</time>
      </trkpt>
      <trkpt lat="50.694" lon="3.15795">
        <ele>35</ele>
        <time>2018-01-03T22:56:32Z</time>
      </trkpt>
      <trkpt lat="50.6941" lon="3.15774">
        <ele>35</ele>
        <time>2018-01-03T22:57:32Z</time>
      </trkpt>
      <trkpt lat="50.6941" lon="3.15774">
        <ele>35</ele>
        <time>2018-01-03T22:58:32Z</time>
      </trkpt>
      <trkpt lat="50.69412" lon="3.1577">
        <ele>35</ele>
        <time>2018-01-03T22:59:32Z</time>
      </trkpt>
      <trkpt lat="50.69424" lon="3.15748">
        <ele>35</ele>
        <time>2018-01-03T23:00:32Z</time>
      </trkpt>
      <trkpt lat="50.69432" lon="3.15736">
        <ele>35</ele>
        <time>2018-01-03T23:01:32Z</time>
      </trkpt>
      <trkpt lat="50.69437" lon="3.15727">
        <ele>35</ele>
        <time>2018-01-03T23:02:32Z</time>
      </trkpt>
      <trkpt lat="50.69439" lon="3.15723">
        <ele>35</ele>
        <time>2018-01-03T23:03:32Z</time>
      </trkpt>
      <trkpt lat="50.69442" lon="3.15717">
        <ele>35</ele>
        <time>2018-01-03T23:04:32Z</time>
      </trkpt>
      <trkpt lat="50.69445" lon="3.15709">
        <ele>35</ele>
        <time>2018-01-03T23:05:32Z</time>
      </trkpt>
      <trkpt lat="50.69447" lon="3.15702">
        <ele>35</ele>
        <time>2018-01-03T23:06:32Z</time>
      </trkpt>
      <trkpt lat="50.69451" lon="3.15693">
        <ele>35</ele>
        <time>2018-01-03T23:07:32Z</time>
      </trkpt>
      <trkpt lat="50.69453" lon="3.15687">
        <ele>35</ele>
        <time>2018-01-03T23:08:32Z</time>
      </trkpt>
      <trkpt lat="50.69455" lon="3.15678">
        <ele>35</ele>
        <time>2018-01-03T23:09:32Z</time>
      </trkpt>
      <trkpt lat="50.69456" lon="3.15675">
        <ele>35</ele>
        <time>2018-01-03T23:10:32Z</time>
      </trkpt>
      <trkpt lat="50.69457" lon="3.15669">
        <ele>35</ele>
        <time>2018-01-03T23:11:32Z</time>
      </trkpt>
      <trkpt lat="50.69458" lon="3.15658">
        <ele>35</ele>
        <time>2018-01-03T23:12:32Z</time>
      </trkpt>
      <trkpt lat="50.69459" lon="3.15643">
        <ele>35</ele>
        <time>2018-01-03T23:13:32Z</time>
      </trkpt>
      <trkpt lat="50.6946" lon="3.1563">
        <ele>35</ele>
        <time>2018-01-03T23:14:32Z</time>
      </trkpt>
      <trkpt lat="50.6946" lon="3.15623">
        <ele>35</ele>
        <time>2018-01-03T23:15:32Z</time>
      </trkpt>
      <trkpt lat="50.69461" lon="3.15586">
        <ele>35</ele>
        <time>2018-01-03T23:16:32Z</time>
      </trkpt>
      <trkpt lat="50.69463" lon="3.15534">
        <ele>34</ele>
        <time>2018-01-03T23:17:32Z</time>
      </trkpt>
      <trkpt lat="50.69465" lon="3.15486">
        <ele>34</ele>
        <time>2018-01-03T23:18:32Z</time>
      </trkpt>
      <trkpt lat="50.69469" lon="3.15388">
        <ele>32</ele>
        <time>2018-01-03T23:19:32Z</time>
      </trkpt>
      <trkpt lat="50.69474" lon="3.15315">
        <ele>32</ele>
        <time>2018-01-03T23:20:32Z</time>
      </trkpt>
      <trkpt lat="50.69477" lon="3.15247">
        <ele>32</ele>
        <time>2018-01-03T23:21:32Z</time>
      </trkpt>
      <trkpt lat="50.6948" lon="3.152">
        <ele>33</ele>
        <time>2018-01-03T23:22:32Z</time>
      </trkpt>
      <trkpt lat="50.69483" lon="3.15142">
        <ele>34</ele>
        <time>2018-01-03T23:23:32Z</time>
      </trkpt>
      <trkpt lat="50.69483" lon="3.15128">
        <ele>34</ele>
        <time>2018-01-03T23:24:32Z</time>
      </trkpt>
      <trkpt lat="50.69484" lon="3.1511">
        <ele>34</ele>
        <time>2018-01-03T23:25:32Z</time>
      </trkpt>
      <trkpt lat="50.69486" lon="3.15068">
        <ele>34</ele>
        <time>2018-01-03T23:26:32Z</time>
      </trkpt>
      <trkpt lat="50.69488" lon="3.15038">
        <ele>34</ele>
        <time>2018-01-03T23:27:32Z</time>
      </trkpt>
      <trkpt lat="50.69492" lon="3.14927">
        <ele>34</ele>
        <time>2018-01-03T23:28:32Z</time>
      </trkpt>
      <trkpt lat="50.69492" lon="3.14925">
        <ele>34</ele>
        <time>2018-01-03T23:29:32Z</time>
      </trkpt>
      <trkpt lat="50.69493" lon="3.14914">
        <ele>34</ele>
        <time>2018-01-03T23:30:32Z</time>
      </trkpt>
      <trkpt lat="50.69497" lon="3.14852">
        <ele>34</ele>
        <time>2018-01-03T23:31:32Z</time>
      </trkpt>
      <trkpt lat="50.69498" lon="3.1483">
        <ele>34</ele>
        <time>2018-01-03T23:32:32Z</time>
      </trkpt>
      <trkpt lat="50.69501" lon="3.14798">
        <ele>34</ele>
        <time>2018-01-03T23:33:32Z</time>
      </trkpt>
      <trkpt lat="50.69503" lon="3.14763">
        <ele>35</ele>
        <time>2018-01-03T23:34:32Z</time>
      </trkpt>
      <trkpt lat="50.69503" lon="3.14755">
        <ele>35</ele>
        <time>2018-01-03T23:35:32Z</time>
      </trkpt>
      <trkpt lat="50.69504" lon="3.14744">
        <ele>35</ele>
        <time>2018-01-03T23:36:32Z</time>
      </trkpt>
      <trkpt lat="50.69504" lon="3.14742">
        <ele>35</ele>
        <time>2018-01-03T23:37:32Z</time>
      </trkpt>
      <trkpt lat="50.69506" lon="3.14727">
        <ele>35</ele>
        <time>2018-01-03T23:38:32Z</time>
      </trkpt>
      <trkpt lat="50.69507" lon="3.14709">
        <ele>36</ele>
        <time>2018-01-03T23:39:32Z</time>
      </trkpt>
      <trkpt lat="50.69511" lon="3.14668">
        <ele>36</ele>
        <time>2018-01-03T23:40:32Z</time>
      </trkpt>
      <trkpt lat="50.69514" lon="3.14656">
        <ele>36</ele>
        <time>2018-01-03T23:41:32Z</time>
      </trkpt>
      <trkpt lat="50.69516" lon="3.14646">
        <ele>37</ele>
        <time>2018-01-03T23:42:32Z</time>
      </trkpt>
      <trkpt lat="50.69522" lon="3.14605">
        <ele>37</ele>
        <time>2018-01-03T23:43:32Z</time>
      </trkpt>
      <trkpt lat="50.69526" lon="3.14586">
        <ele>37</ele>
        <time>2018-01-03T23:44:32Z</time>
      </trkpt>
      <trkpt lat="50.69528" lon="3.14576">
        <ele>37</ele>
        <time>2018-01-03T23:45:32Z</time>
      </trkpt>
      <trkpt lat="50.6953" lon="3.14567">
        <ele>37</ele>
        <time>2018-01-03T23:46:32Z</time>
      </trkpt>
      <trkpt lat="50.69533" lon="3.1455">
        <ele>38</ele>
        <time>2018-01-03T23:47:32Z</time>
      </trkpt>
      <trkpt lat="50.69535" lon="3.14541">
        <ele>38</ele>
        <time>2018-01-03T23:48:32Z</time>
      </trkpt>
      <trkpt lat="50.69537" lon="3.1453">
        <ele>38</ele>
        <time>2018-01-03T23:49:32Z</time>
      </trkpt>
      <trkpt lat="50.69539" lon="3.14521">
        <ele>38</ele>
        <time>2018-01-03T23:50:32Z</time>
      </trkpt>
      <trkpt lat="50.6954" lon="3.14515">
        <ele>38</ele>
        <time>2018-01-03T23:51:32Z</time>
      </trkpt>
      <trkpt lat="50.69542" lon="3.1451">
        <ele>38</ele>
        <time>2018-01-03T23:52:32Z</time>
      </trkpt>
      <trkpt lat="50.69547" lon="3.14495">
        <ele>38</ele>
        <time>2018-01-03T23:53:32Z</time>
      </trkpt>
      <trkpt lat="50.69552" lon="3.14482">
        <ele>38</ele>
        <time>2018-01-03T23:54:32Z</time>
      </trkpt>
      <trkpt lat="50.6956" lon="3.1447">
        <ele>38</ele>
        <time>2018-01-03T23:55:32Z</time>
      </trkpt>
      <trkpt lat="50.69567" lon="3.14458">
        <ele>38</ele>
        <time>2018-01-03T23:56:32Z</time>
      </trkpt>
      <trkpt lat="50.69574" lon="3.14446">
        <ele>38</ele>
        <time>2018-01-03T23:57:32Z</time>
      </trkpt>
      <trkpt lat="50.69581" lon="3.1443">
        <ele>38</ele>
        <time>2018-01-03T23:58:32Z</time>
      </trkpt>
      <trkpt lat="50.69587" lon="3.14409">
        <ele>38</ele>
        <time>2018-01-03T23:59:32Z</time>
      </trkpt>
      <trkpt lat="50.69591" lon="3.14396">
        <ele>38</ele>
        <time>2018-01-04T00:00:32Z</time>
      </trkpt>
      <trkpt lat="50.69591" lon="3.14396">
        <ele>38</ele>
        <time>2018-01-04T00:01:32Z</time>
      </trkpt>
      <trkpt lat="50.69598" lon="3.14373">
        <ele>38</ele>
        <time>2018-01-04T00:02:32Z</time>
      </trkpt>
      <trkpt lat="50.69604" lon="3.14355">
        <ele>38</ele>
        <time>2018-01-04T00:03:32Z</time>
      </trkpt>
      <trkpt lat="50.69609" lon="3.14344">
        <ele>38</ele>
        <time>2018-01-04T00:04:32Z</time>
      </trkpt>
      <trkpt lat="50.69614" lon="3.14331">
        <ele>38</ele>
        <time>2018-01-04T00:05:32Z</time>
      </trkpt>
      <trkpt lat="50.6963" lon="3.14304">
        <ele>38</ele>
        <time>2018-01-04T00:06:32Z</time>
      </trkpt>
      <trkpt lat="50.6964" lon="3.14283">
        <ele>38</ele>
        <time>2018-01-04T00:07:32Z</time>
      </trkpt>
      <trkpt lat="50.69642" lon="3.1428">
        <ele>38</ele>
        <time>2018-01-04T00:08:32Z</time>
      </trkpt>
      <trkpt lat="50.69655" lon="3.14256">
        <ele>39</ele>
        <time>2018-01-04T00:09:32Z</time>
      </trkpt>
      <trkpt lat="50.69675" lon="3.14217">
        <ele>40</ele>
        <time>2018-01-04T00:10:32Z</time>
      </trkpt>
      <trkpt lat="50.69688" lon="3.14193">
        <ele>41</ele>
        <time>2018-01-04T00:11:32Z</time>
      </trkpt>
      <trkpt lat="50.69697" lon="3.14177">
        <ele>41</ele>
        <time>2018-01-04T00:12:32Z</time>
      </trkpt>
      <trkpt lat="50.69702" lon="3.14163">
        <ele>41</ele>
        <time>2018-01-04T00:13:32Z</time>
      </trkpt>
      <trkpt lat="50.69711" lon="3.14133">
        <ele>42</ele>
        <time>2018-01-04T00:14:32Z</time>
      </trkpt>
      <trkpt lat="50.6972" lon="3.14101">
        <ele>43</ele>
        <time>2018-01-04T00:15:32Z</time>
      </trkpt>
      <trkpt lat="50.69723" lon="3.14092">
        <ele>43</ele>
        <time>2018-01-04T00:16:32Z</time>
      </trkpt>
      <trkpt lat="50.69724" lon="3.14088">
        <ele>43</ele>
        <time>2018-01-04T00:17:32Z</time>
      </trkpt>
      <trkpt lat="50.69733" lon="3.14075">
        <ele>43</ele>
        <time>2018-01-04T00:18:32Z</time>
      </trkpt>
      <trkpt lat="50.69755" lon="3.14046">
        <ele>44</ele>
        <time>2018-01-04T00:19:32Z</time>
      </trkpt>
      <trkpt lat="50.69769" lon="3.14028">
        <ele>44</ele>
        <time>2018-01-04T00:20:32Z</time>
      </trkpt>
      <trkpt lat="50.69775" lon="3.1402">
        <ele>44</ele>
        <time>2018-01-04T00:21:32Z</time>
      </trkpt>
      <trkpt lat="50.69794" lon="3.13996">
        <ele>44</ele>
        <time>2018-01-04T00:22:32Z</time>
      </trkpt>
      <trkpt lat="50.69837" lon="3.13945">
        <ele>45</ele>
        <time>2018-01-04T00:23:32Z</time>
      </trkpt>
      <trkpt lat="50.69847" lon="3.13933">
        <ele>46</ele>
        <time>2018-01-04T00:24:32Z</time>
      </trkpt>
      <trkpt lat="50.6985" lon="3.1393">
        <ele>46</ele>
        <time>2018-01-04T00:25:32Z</time>
      </trkpt>
      <trkpt lat="50.69887" lon="3.13889">
        <ele>47</ele>
        <time>2018-01-04T00:26:32Z</time>
      </trkpt>
      <trkpt lat="50.69893" lon="3.13881">
        <ele>48</ele>
        <time>2018-01-04T00:27:32Z</time>
      </trkpt>
      <trkpt lat="50.69901" lon="3.13875">
        <ele>48</ele>
        <time>2018-01-04T00:28:32Z</time>
      </trkpt>
      <trkpt lat="50.69903" lon="3.13871">
        <ele>48</ele>
        <time>2018-01-04T00:29:32Z</time>
      </trkpt>
      <trkpt lat="50.69912" lon="3.13863">
        <ele>48</ele>
        <time>2018-01-04T00:30:32Z</time>
      </trkpt>
      <trkpt lat="50.6992" lon="3.13853">
        <ele>48</ele>
        <time>2018-01-04T00:31:32Z</time>
      </trkpt>
      <trkpt lat="50.69922" lon="3.13853">
        <ele>48</ele>
        <time>2018-01-04T00:32:32Z</time>
      </trkpt>
      <trkpt lat="50.6993" lon="3.13851">
        <ele>48</ele>
        <time>2018-01-04T00:33:32Z</time>
      </trkpt>
      <trkpt lat="50.69942" lon="3.1384">
        <ele>49</ele>
        <time>2018-01-04T00:34:32Z</time>
      </trkpt>
      <trkpt lat="50.69954" lon="3.13829">
        <ele>49</ele>
        <time>2018-01-04T00:35:32Z</time>
      </trkpt>
      <trkpt lat="50.69957" lon="3.13826">
        <ele>49</ele>
        <time>2018-01-04T00:36:32Z</time>
      </trkpt>
      <trkpt lat="50.69963" lon="3.1382">
        <ele>49</ele>
        <time>2018-01-04T00:37:32Z</time>
      </trkpt>
      <trkpt lat="50.69968" lon="3.13811">
        <ele>50</ele>
        <time>2018-01-04T00:38:32Z</time>
      </trkpt>
      <trkpt lat="50.69974" lon="3.13799">
        <ele>50</ele>
        <time>2018-01-04T00:39:32Z</time>
      </trkpt>
      <trkpt lat="50.69982" lon="3.13781">
        <ele>50</ele>
        <time>2018-01-04T00:40:32Z</time>
      </trkpt>
      <trkpt lat="50.70006" lon="3.13727">
        <ele>51</ele>
        <time>2018-01-04T00:41:32Z</time>
      </trkpt>
      <trkpt lat="50.70012" lon="3.13714">
        <ele>51</ele>
        <time>2018-01-04T00:42:32Z</time>
      </trkpt>
      <trkpt lat="50.70033" lon="3.13677">
        <ele>52</ele>
        <time>2018-01-04T00:43:32Z</time>
      </trkpt>
      <trkpt lat="50.70038" lon="3.13666">
        <ele>52</ele>
        <time>2018-01-04T00:44:32Z</time>
      </trkpt>
      <trkpt lat="50.70068" lon="3.13615">
        <ele>52</ele>
        <time>2018-01-04T00:45:32Z</time>
      </trkpt>
      <trkpt lat="50.70084" lon="3.13587">
        <ele>52</ele>
        <time>2018-01-04T00:46:32Z</time>
      </trkpt>
      <trkpt lat="50.70104" lon="3.13554">
        <ele>52</ele>
        <time>2018-01-04T00:47:32Z</time>
      </trkpt>
      <trkpt lat="50.70112" lon="3.13538">
        <ele>52</ele>
        <time>2018-01-04T00:48:32Z</time>
      </trkpt>
      <trkpt lat="50.70119" lon="3.13525">
        <ele>52</ele>
        <time>2018-01-04T00:49:32Z</time>
      </trkpt>
      <trkpt lat="50.70125" lon="3.13508">
        <ele>52</ele>
        <time>2018-01-04T00:50:32Z</time>
      </trkpt>
      <trkpt lat="50.70135" lon="3.13477">
        <ele>52</ele>
        <time>2018-01-04T00:51:32Z</time>
      </trkpt>
      <trkpt lat="50.7014" lon="3.13454">
        <ele>52</ele>
        <time>2018-01-04T00:52:32Z</time>
      </trkpt>
      <trkpt lat="50.70143" lon="3.13436">
        <ele>52</ele>
        <time>2018-01-04T00:53:32Z</time>
      </trkpt>
      <trkpt lat="50.70143" lon="3.13436">
        <ele>52</ele>
        <time>2018-01-04T00:54:32Z</time>
      </trkpt>
      <trkpt lat="50.70173" lon="3.13444">
        <ele>53</ele>
        <time>2018-01-04T00:55:32Z</time>
      </trkpt>
      <trkpt lat="50.70188" lon="3.13448">
        <ele>53</ele>
        <time>2018-01-04T00:56:32Z</time>
      </trkpt>
      <trkpt lat="50.70197" lon="3.13451">
        <ele>53</ele>
        <time>2018-01-04T00:57:32Z</time>
      </trkpt>
      <trkpt lat="50.70197" lon="3.13451">
        <ele>53</ele>
        <time>2018-01-04T00:58:32Z</time>
      </trkpt>
      <trkpt lat="50.70202" lon="3.13442">
        <ele>54</ele>
        <time>2018-01-04T00:59:32Z</time>
      </trkpt>
      <trkpt lat="50.70208" lon="3.13434">
        <ele>54</ele>
        <time>2018-01-04T01:00:32Z</time>
      </trkpt>
      <trkpt lat="50.70214" lon="3.13428">
        <ele>54</ele>
        <time>2018-01-04T01:01:32Z</time>
      </trkpt>
      <trkpt lat="50.70224" lon="3.13417">
        <ele>54</ele>
        <time>2018-01-04T01:02:32Z</time>
      </trkpt>
      <trkpt lat="50.70237" lon="3.13403">
        <ele>55</ele>
        <time>2018-01-04T01:03:32Z</time>
      </trkpt>
      <trkpt lat="50.70249" lon="3.13389">
        <ele>55</ele>
        <time>2018-01-04T01:04:32Z</time>
      </trkpt>
      <trkpt lat="50.7026" lon="3.13374">
        <ele>55</ele>
        <time>2018-01-04T01:05:32Z</time>
      </trkpt>
      <trkpt lat="50.70266" lon="3.13365">
        <ele>55</ele>
        <time>2018-01-04T01:06:32Z</time>
      </trkpt>
      <trkpt lat="50.70273" lon="3.13352">
        <ele>55</ele>
        <time>2018-01-04T01:07:32Z</time>
      </trkpt>
      <trkpt lat="50.70278" lon="3.13342">
        <ele>55</ele>
        <time>2018-01-04T01:08:32Z</time>
      </trkpt>
      <trkpt lat="50.70281" lon="3.13337">
        <ele>55</ele>
        <time>2018-01-04T01:09:32Z</time>
      </trkpt>
      <trkpt lat="50.7029" lon="3.13324">
        <ele>55</ele>
        <time>2018-01-04T01:10:32Z</time>
      </trkpt>
      <trkpt lat="50.70295" lon="3.13317">
        <ele>55</ele>
        <time>2018-01-04T01:11:32Z</time>
      </trkpt>
      <trkpt lat="50.70298" lon="3.13314">
        <ele>54</ele>
        <time>2018-01-04T01:12:32Z</time>
      </trkpt>
      <trkpt lat="50.70305" lon="3.13306">
        <ele>54</ele>
        <time>2018-01-04T01:13:32Z</time>
      </trkpt>
      <trkpt lat="50.70314" lon="3.13295">
        <ele>54</ele>
        <time>2018-01-04T01:14:32Z</time>
      </trkpt>
      <trkpt lat="50.70333" lon="3.13275">
        <ele>53</ele>
        <time>2018-01-04T01:15:32Z</time>
      </trkpt>
      <trkpt lat="50.70342" lon="3.13265">
        <ele>53</ele>
        <time>2018-01-04T01:16:32Z</time>
      </trkpt>
      <trkpt lat="50.70362" lon="3.13244">
        <ele>52</ele>
        <time>2018-01-04T01:17:32Z</time>
      </trkpt>
      <trkpt lat="50.70368" lon="3.13238">
        <ele>52</ele>
        <time>2018-01-04T01:18:32Z</time>
      </trkpt>
      <trkpt lat="50.70375" lon="3.13229">
        <ele>52</ele>
        <time>2018-01-04T01:19:32Z</time>
      </trkpt>
      <trkpt lat="50.70395" lon="3.1321">
        <ele>52</ele>
        <time>2018-01-04T01:20:32Z</time>
      </trkpt>
      <trkpt lat="50.70421" lon="3.13184">
        <ele>51</ele>
        <time>2018-01-04T01:21:32Z</time>
      </trkpt>
      <trkpt lat="50.70446" lon="3.13157">
        <ele>51</ele>
        <time>2018-01-04T01:22:32Z</time>
      </trkpt>
      <trkpt lat="50.70489" lon="3.13114">
        <ele>53</ele>
        <time>2018-01-04T01:23:32Z</time>
      </trkpt>
      <trkpt lat="50.70492" lon="3.1311">
        <ele>53</ele>
        <time>2018-01-04T01:24:32Z</time>
      </trkpt>
      <trkpt lat="50.70535" lon="3.13066">
        <ele>53</ele>
        <time>2018-01-04T01:25:32Z</time>
      </trkpt>
      <trkpt lat="50.70569" lon="3.1303">
        <ele>53</ele>
        <time>2018-01-04T01:26:32Z</time>
      </trkpt>
      <trkpt lat="50.70583" lon="3.13017">
        <ele>53</ele>
        <time>2018-01-04T01:27:32Z</time>
      </trkpt>
      <trkpt lat="50.70605" lon="3.12996">
        <ele>53</ele>
        <time>2018-01-04T01:28:32Z</time>
      </trkpt>
      <trkpt lat="50.70612" lon="3.12989">
        <ele>53</ele>
        <time>2018-01-04T01:29:32Z</time>
      </trkpt>
      <trkpt lat="50.70633" lon="3.1297">
        <ele>52</ele>
        <time>2018-01-04T01:30:32Z</time>
      </trkpt>
      <trkpt lat="50.70639" lon="3.12968">
        <ele>52</ele>
        <time>2018-01-04T01:31:32Z</time>
      </trkpt>
      <trkpt lat="50.70646" lon="3.12961">
        <ele>52</ele>
        <time>2018-01-04T01:32:32Z</time>
      </trkpt>
      <trkpt lat="50.70651" lon="3.12956">
        <ele>52</ele>
        <time>2018-01-04T01:33:32Z</time>
      </trkpt>
      <trkpt lat="50.70665" lon="3.12944">
        <ele>52</ele>
        <time>2018-01-04T01:34:32Z</time>
      </trkpt>
      <trkpt lat="50.70684" lon="3.12926">
        <ele>52</ele>
        <time>2018-01-04T01:35:32Z</time>
      </trkpt>
      <trkpt lat="50.70688" lon="3.12922">
        <ele>52</ele>
        <time>2018-01-04T01:36:32Z</time>
      </trkpt>
      <trkpt lat="50.70699" lon="3.1291">
        <ele>52</ele>
        <time>2018-01-04T01:37:32Z</time>
      </trkpt>
      <trkpt lat="50.70702" lon="3.12906">
        <ele>52</ele>
        <time>2018-01-04T01:38:32Z</time>
      </trkpt>
      <trkpt lat="50.70706" lon="3.12902">
        <ele>52</ele>
        <time>2018-01-04T01:39:32Z</time>
      </trkpt>
      <trkpt lat="50.70739" lon="3.12864">
        <ele>52</ele>
        <time>2018-01-04T01:40:32Z</time>
      </trkpt>
      <trkpt lat="50.70742" lon="3.12859">
        <ele>52</ele>
        <time>2018-01-04T01:41:32Z</time>
      </trkpt>
      <trkpt lat="50.70748" lon="3.12853">
        <ele>52</ele>
        <time>2018-01-04T01:42:32Z</time>
      </trkpt>
      <trkpt lat="50.7075" lon="3.1285">
        <ele>52</ele>
        <time>2018-01-04T01:43:32Z</time>
      </trkpt>
      <trkpt lat="50.70772" lon="3.12829">
        <ele>51</ele>
        <time>2018-01-04T01:44:32Z</time>
      </trkpt>
      <trkpt lat="50.70803" lon="3.128">
        <ele>50</ele>
        <time>2018-01-04T01:45:32Z</time>
      </trkpt>
      <trkpt lat="50.70828" lon="3.12776">
        <ele>50</ele>
        <time>2018-01-04T01:46:32Z</time>
      </trkpt>
      <trkpt lat="50.70837" lon="3.12768">
        <ele>50</ele>
        <time>2018-01-04T01:47:32Z</time>
      </trkpt>
      <trkpt lat="50.70845" lon="3.12767">
        <ele>50</ele>
        <time>2018-01-04T01:48:32Z</time>
      </trkpt>
      <trkpt lat="50.70857" lon="3.12759">
        <ele>50</ele>
        <time>2018-01-04T01:49:32Z</time>
      </trkpt>
      <trkpt lat="50.70859" lon="3.12757">
        <ele>50</ele>
        <time>2018-01-04T01:50:32Z</time>
      </trkpt>
      <trkpt lat="50.70872" lon="3.12746">
        <ele>50</ele>
        <time>2018-01-04T01:51:32Z</time>
      </trkpt>
      <trkpt lat="50.70873" lon="3.12746">
        <ele>50</ele>
        <time>2018-01-04T01:52:32Z</time>
      </trkpt>
      <trkpt lat="50.70875" lon="3.12744">
        <ele>49</ele>
        <time>2018-01-04T01:53:32Z</time>
      </trkpt>
      <trkpt lat="50.70877" lon="3.12743">
        <ele>49</ele>
        <time>2018-01-04T01:54:32Z</time>
      </trkpt>
      <trkpt lat="50.70892" lon="3.1273">
        <ele>49</ele>
        <time>2018-01-04T01:55:32Z</time>
      </trkpt>
      <trkpt lat="50.70928" lon="3.12699">
        <ele>49</ele>
        <time>2018-01-04T01:56:32Z</time>
      </trkpt>
      <trkpt lat="50.70944" lon="3.12685">
        <ele>49</ele>
        <time>2018-01-04T01:57:32Z</time>
      </trkpt>
      <trkpt lat="50.70977" lon="3.12654">
        <ele>48</ele>
        <time>2018-01-04T01:58:32Z</time>
      </trkpt>
      <trkpt lat="50.70978" lon="3.12654">
        <ele>48</ele>
        <time>2018-01-04T01:59:32Z</time>
      </trkpt>
      <trkpt lat="50.71012" lon="3.12622">
        <ele>48</ele>
        <time>2018-01-04T02:00:32Z</time>
      </trkpt>
      <trkpt lat="50.71016" lon="3.12617">
        <ele>48</ele>
        <time>2018-01-04T02:01:32Z</time>
      </trkpt>
      <trkpt lat="50.7102" lon="3.12613">
        <ele>48</ele>
        <time>2018-01-04T02:02:32Z</time>
      </trkpt>
      <trkpt lat="50.71024" lon="3.12609">
        <ele>48</ele>
        <time>2018-01-04T02:03:32Z</time>
      </trkpt>
      <trkpt lat="50.71028" lon="3.12605">
        <ele>48</ele>
        <time>2018-01-04T02:04:32Z</time>
      </trkpt>
      <trkpt lat="50.71032" lon="3.12602">
        <ele>48</ele>
        <time>2018-01-04T02:05:32Z</time>
      </trkpt>
      <trkpt lat="50.71037" lon="3.12602">
        <ele>48</ele>
        <time>2018-01-04T02:06:32Z</time>
      </trkpt>
      <trkpt lat="50.71042" lon="3.12598">
        <ele>48</ele>
        <time>2018-01-04T02:07:32Z</time>
      </trkpt>
      <trkpt lat="50.71046" lon="3.12595">
        <ele>48</ele>
        <time>2018-01-04T02:08:32Z</time>
      </trkpt>
      <trkpt lat="50.71053" lon="3.12592">
        <ele>49</ele>
        <time>2018-01-04T02:09:32Z</time>
      </trkpt>
      <trkpt lat="50.71058" lon="3.1259">
        <ele>49</ele>
        <time>2018-01-04T02:10:32Z</time>
      </trkpt>
      <trkpt lat="50.71062" lon="3.12588">
        <ele>49</ele>
        <time>2018-01-04T02:11:32Z</time>
      </trkpt>
      <trkpt lat="50.71066" lon="3.12587">
        <ele>49</ele>
        <time>2018-01-04T02:12:32Z</time>
      </trkpt>
      <trkpt lat="50.7107" lon="3.12587">
        <ele>49</ele>
        <time>2018-01-04T02:13:32Z</time>
      </trkpt>
      <trkpt lat="50.71073" lon="3.12586">
        <ele>49</ele>
        <time>2018-01-04T02:14:32Z</time>
      </trkpt>
      <trkpt lat="50.71073" lon="3.12586">
        <ele>49</ele>
        <time>2018-01-04T02:15:32Z</time>
      </trkpt>
      <trkpt lat="50.71075" lon="3.12588">
        <ele>49</ele>
        <time>2018-01-04T02:16:32Z</time>
      </trkpt>
      <trkpt lat="50.71078" lon="3.12588">
        <ele>49</ele>
        <time>2018-01-04T02:17:32Z</time>
      </trkpt>
      <trkpt lat="50.71082" lon="3.12587">
        <ele>49</ele>
        <time>2018-01-04T02:18:32Z</time>
      </trkpt>
      <trkpt lat="50.71086" lon="3.12585">
        <ele>49</ele>
        <time>2018-01-04T02:19:32Z</time>
      </trkpt>
      <trkpt lat="50.71087" lon="3.12583">
        <ele>49</ele>
        <time>2018-01-04T02:20:32Z</time>
      </trkpt>
      <trkpt lat="50.71089" lon="3.1258">
        <ele>49</ele>
        <time>2018-01-04T02:21:32Z</time>
      </trkpt>
      <trkpt lat="50.7109" lon="3.12577">
        <ele>49</ele>
        <time>2018-01-04T02:22:32Z</time>
      </trkpt>
      <trkpt lat="50.71091" lon="3.1257">
        <ele>49</ele>
        <time>2018-01-04T02:23:32Z</time>
      </trkpt>
      <trkpt lat="50.71091" lon="3.12566">
        <ele>49</ele>
        <time>2018-01-04T02:24:32Z</time>
      </trkpt>
      <trkpt lat="50.7109" lon="3.1256">
        <ele>49</ele>
        <time>2018-01-04T02:25:32Z</time>
      </trkpt>
      <trkpt lat="50.71091" lon="3.12555">
        <ele>49</ele>
        <time>2018-01-04T02:26:32Z</time>
      </trkpt>
      <trkpt lat="50.71094" lon="3.12548">
        <ele>49</ele>
        <time>2018-01-04T02:27:32Z</time>
      </trkpt>
      <trkpt lat="50.71096" lon="3.1254">
        <ele>49</ele>
        <time>2018-01-04T02:28:32Z</time>
      </trkpt>
      <trkpt lat="50.711" lon="3.12529">
        <ele>49</ele>
        <time>2018-01-04T02:29:32Z</time>
      </trkpt>
      <trkpt lat="50.71104" lon="3.1252">
        <ele>49</ele>
        <time>2018-01-04T02:30:32Z</time>
      </trkpt>
      <trkpt lat="50.71109" lon="3.12512">
        <ele>49</ele>
        <time>2018-01-04T02:31:32Z</time>
      </trkpt>
      <trkpt lat="50.71112" lon="3.12507">
        <ele>49</ele>
        <time>2018-01-04T02:32:32Z</time>
      </trkpt>
      <trkpt lat="50.71115" lon="3.12503">
        <ele>49</ele>
        <time>2018-01-04T02:33:32Z</time>
      </trkpt>
      <trkpt lat="50.71117" lon="3.12499">
        <ele>49</ele>
        <time>2018-01-04T02:34:32Z</time>
      </trkpt>
      <trkpt lat="50.71139" lon="3.12476">
        <ele>50</ele>
        <time>2018-01-04T02:35:32Z</time>
      </trkpt>
      <trkpt lat="50.71149" lon="3.12466">
        <ele>50</ele>
        <time>2018-01-04T02:36:32Z</time>
      </trkpt>
      <trkpt lat="50.71168" lon="3.12449">
        <ele>49</ele>
        <time>2018-01-04T02:37:32Z</time>
      </trkpt>
      <trkpt lat="50.71189" lon="3.12427">
        <ele>50</ele>
        <time>2018-01-04T02:38:32Z</time>
      </trkpt>
      <trkpt lat="50.7119" lon="3.12425">
        <ele>50</ele>
        <time>2018-01-04T02:39:32Z</time>
      </trkpt>
      <trkpt lat="50.71203" lon="3.12409">
        <ele>50</ele>
        <time>2018-01-04T02:40:32Z</time>
      </trkpt>
      <trkpt lat="50.71209" lon="3.124">
        <ele>50</ele>
        <time>2018-01-04T02:41:32Z</time>
      </trkpt>
      <trkpt lat="50.71216" lon="3.12389">
        <ele>50</ele>
        <time>2018-01-04T02:42:32Z</time>
      </trkpt>
      <trkpt lat="50.71218" lon="3.12386">
        <ele>50</ele>
        <time>2018-01-04T02:43:32Z</time>
      </trkpt>
      <trkpt lat="50.71225" lon="3.12374">
        <ele>50</ele>
        <time>2018-01-04T02:44:32Z</time>
      </trkpt>
      <trkpt lat="50.71227" lon="3.12372">
        <ele>50</ele>
        <time>2018-01-04T02:45:32Z</time>
      </trkpt>
      <trkpt lat="50.71232" lon="3.12362">
        <ele>51</ele>
        <time>2018-01-04T02:46:32Z</time>
      </trkpt>
      <trkpt lat="50.71236" lon="3.12356">
        <ele>51</ele>
        <time>2018-01-04T02:47:32Z</time>
      </trkpt>
      <trkpt lat="50.71239" lon="3.12351">
        <ele>51</ele>
        <time>2018-01-04T02:48:32Z</time>
      </trkpt>
      <trkpt lat="50.7124" lon="3.12349">
        <ele>51</ele>
        <time>2018-01-04T02:49:32Z</time>
      </trkpt>
      <trkpt lat="50.71242" lon="3.12346">
        <ele>51</ele>
        <time>2018-01-04T02:50:32Z</time>
      </trkpt>
      <trkpt lat="50.71244" lon="3.12343">
        <ele>51</ele>
        <time>2018-01-04T02:51:32Z</time>
      </trkpt>
      <trkpt lat="50.71253" lon="3.12328">
        <ele>51</ele>
        <time>2018-01-04T02:52:32Z</time>
      </trkpt>
      <trkpt lat="50.71256" lon="3.12322">
        <ele>51</ele>
        <time>2018-01-04T02:53:32Z</time>
      </trkpt>
      <trkpt lat="50.71263" lon="3.12311">
        <ele>51</ele>
        <time>2018-01-04T02:54:32Z</time>
      </trkpt>
      <trkpt lat="50.7127" lon="3.12301">
        <ele>51</ele>
        <time>2018-01-04T02:55:32Z</time>
      </trkpt>
      <trkpt lat="50.71273" lon="3.12297">
        <ele>51</ele>
        <time>2018-01-04T02:56:32Z</time>
      </trkpt>
      <trkpt lat="50.71279" lon="3.12287">
        <ele>51</ele>
        <time>2018-01-04T02:57:32Z</time>
      </trkpt>
      <trkpt lat="50.71294" lon="3.12262">
        <ele>51</ele>
        <time>2018-01-04T02:58:32Z</time>
      </trkpt>
      <trkpt lat="50.71301" lon="3.12249">
        <ele>51</ele>
        <time>2018-01-04T02:59:32Z</time>
      </trkpt>
      <trkpt lat="50.71305" lon="3.1224">
        <ele>51</ele>
        <time>2018-01-04T03:00:32Z</time>
      </trkpt>
      <trkpt lat="50.71307" lon="3.12236">
        <ele>51</ele>
        <time>2018-01-04T03:01:32Z</time>
      </trkpt>
      <trkpt lat="50.7133" lon="3.12186">
        <ele>51</ele>
        <time>2018-01-04T03:02:32Z</time>
      </trkpt>
      <trkpt lat="50.7134" lon="3.12166">
        <ele>51</ele>
        <time>2018-01-04T03:03:32Z</time>
      </trkpt>
      <trkpt lat="50.71355" lon="3.12133">
        <ele>50</ele>
        <time>2018-01-04T03:04:32Z</time>
      </trkpt>
      <trkpt lat="50.7137" lon="3.12102">
        <ele>49</ele>
        <time>2018-01-04T03:05:32Z</time>
      </trkpt>
      <trkpt lat="50.714" lon="3.12039">
        <ele>47</ele>
        <time>2018-01-04T03:06:32Z</time>
      </trkpt>
      <trkpt lat="50.71405" lon="3.12026">
        <ele>46</ele>
        <time>2018-01-04T03:07:32Z</time>
      </trkpt>
      <trkpt lat="50.71415" lon="3.12005">
        <ele>46</ele>
        <time>2018-01-04T03:08:32Z</time>
      </trkpt>
      <trkpt lat="50.71426" lon="3.11978">
        <ele>46</ele>
        <time>2018-01-04T03:09:32Z</time>
      </trkpt>
      <trkpt lat="50.71432" lon="3.11961">
        <ele>46</ele>
        <time>2018-01-04T03:10:32Z</time>
      </trkpt>
      <trkpt lat="50.71435" lon="3.11953">
        <ele>47</ele>
        <time>2018-01-04T03:11:32Z</time>
      </trkpt>
      <trkpt lat="50.71437" lon="3.11948">
        <ele>47</ele>
        <time>2018-01-04T03:12:32Z</time>
      </trkpt>
      <trkpt lat="50.71445" lon="3.11928">
        <ele>47</ele>
        <time>2018-01-04T03:13:32Z</time>
      </trkpt>
      <trkpt lat="50.7145" lon="3.1192">
        <ele>47</ele>
        <time>2018-01-04T03:14:32Z</time>
      </trkpt>
      <trkpt lat="50.71453" lon="3.11911">
        <ele>47</ele>
        <time>2018-01-04T03:15:32Z</time>
      </trkpt>
      <trkpt lat="50.71454" lon="3.11906">
        <ele>47</ele>
        <time>2018-01-04T03:16:32Z</time>
      </trkpt>
      <trkpt lat="50.71461" lon="3.1188">
        <ele>47</ele>
        <time>2018-01-04T03:17:32Z</time>
      </trkpt>
      <trkpt lat="50.71468" lon="3.1185">
        <ele>47</ele>
        <time>2018-01-04T03:18:32Z</time>
      </trkpt>
      <trkpt lat="50.71472" lon="3.11825">
        <ele>46</ele>
        <time>2018-01-04T03:19:32Z</time>
      </trkpt>
      <trkpt lat="50.71472" lon="3.1182">
        <ele>46</ele>
        <time>2018-01-04T03:20:32Z</time>
      </trkpt>
      <trkpt lat="50.71473" lon="3.11815">
        <ele>46</ele>
        <time>2018-01-04T03:21:32Z</time>
      </trkpt>
      <trkpt lat="50.71476" lon="3.11813">
        <ele>46</ele>
        <time>2018-01-04T03:22:32Z</time>
      </trkpt>
      <trkpt lat="50.71477" lon="3.11813">
        <ele>46</ele>
        <time>2018-01-04T03:23:32Z</time>
      </trkpt>
      <trkpt lat="50.71478" lon="3.11811">
        <ele>46</ele>
        <time>2018-01-04T03:24:32Z</time>
      </trkpt>
      <trkpt lat="50.7148" lon="3.11807">
        <ele>46</ele>
        <time>2018-01-04T03:25:32Z</time>
      </trkpt>
      <trkpt lat="50.71481" lon="3.11803">
        <ele>46</ele>
        <time>2018-01-04T03:26:32Z</time>
      </trkpt>
      <trkpt lat="50.71481" lon="3.118">
        <ele>46</ele>
        <time>2018-01-04T03:27:32Z</time>
      </trkpt>
      <trkpt lat="50.71481" lon="3.11798">
        <ele>46</ele>
        <time>2018-01-04T03:28:32Z</time>
      </trkpt>
      <trkpt lat="50.7148" lon="3.11794">
        <ele>45</ele>
        <time>2018-01-04T03:29:32Z</time>
      </trkpt>
      <trkpt lat="50.71479" lon="3.11792">
        <ele>45</ele>
        <time>2018-01-04T03:30:32Z</time>
      </trkpt>
      <trkpt lat="50.71478" lon="3.1179">
        <ele>45</ele>
        <time>2018-01-04T03:31:32Z</time>
      </trkpt>
      <trkpt lat="50.7148" lon="3.11782">
        <ele>45</ele>
        <time>2018-01-04T03:32:32Z</time>
      </trkpt>
      <trkpt lat="50.71487" lon="3.11761">
        <ele>44</ele>
        <time>2018-01-04T03:33:32Z</time>
      </trkpt>
      <trkpt lat="50.71494" lon="3.11737">
        <ele>44</ele>
        <time>2018-01-04T03:34:32Z</time>
      </trkpt>
      <trkpt lat="50.71494" lon="3.11727">
        <ele>44</ele>
        <time>2018-01-04T03:35:32Z</time>
      </trkpt>
      <trkpt lat="50.71508" lon="3.11663">
        <ele>44</ele>
        <time>2018-01-04T03:36:32Z</time>
      </trkpt>
      <trkpt lat="50.71521" lon="3.11607">
        <ele>45</ele>
        <time>2018-01-04T03:37:32Z</time>
      </trkpt>
      <trkpt lat="50.7153" lon="3.11576">
        <ele>46</ele>
        <time>2018-01-04T03:38:32Z</time>
      </trkpt>
      <trkpt lat="50.71534" lon="3.11565">
        <ele>46</ele>
        <time>2018-01-04T03:39:32Z</time>
      </trkpt>
      <trkpt lat="50.71541" lon="3.11548">
        <ele>46</ele>
        <time>2018-01-04T03:40:32Z</time>
      </trkpt>
      <trkpt lat="50.71547" lon="3.11535">
        <ele>47</ele>
        <time>2018-01-04T03:41:32Z</time>
      </trkpt>
      <trkpt lat="50.71551" lon="3.11526">
        <ele>47</ele>
        <time>2018-01-04T03:42:32Z</time>
      </trkpt>
      <trkpt lat="50.71554" lon="3.11521">
        <ele>47</ele>
        <time>2018-01-04T03:43:32Z</time>
      </trkpt>
      <trkpt lat="50.71562" lon="3.11508">
        <ele>48</ele>
        <time>2018-01-04T03:44:32Z</time>
      </trkpt>
      <trkpt lat="50.71572" lon="3.11493">
        <ele>48</ele>
        <time>2018-01-04T03:45:32Z</time>
      </trkpt>
      <trkpt lat="50.71586" lon="3.11474">
        <ele>49</ele>
        <time>2018-01-04T03:46:32Z</time>
      </trkpt>
      <trkpt lat="50.71608" lon="3.11444">
        <ele>50</ele>
        <time>2018-01-04T03:47:32Z</time>
      </trkpt>
      <trkpt lat="50.7161" lon="3.11441">
        <ele>50</ele>
        <time>2018-01-04T03:48:32Z</time>
      </trkpt>
      <trkpt lat="50.71628" lon="3.11417">
        <ele>51</ele>
        <time>2018-01-04T03:49:32Z</time>
      </trkpt>
      <trkpt lat="50.71644" lon="3.11393">
        <ele>51</ele>
        <time>2018-01-04T03:50:32Z</time>
      </trkpt>
      <trkpt lat="50.7167" lon="3.11355">
        <ele>52</ele>
        <time>2018-01-04T03:51:32Z</time>
      </trkpt>
      <trkpt lat="50.71676" lon="3.11345">
        <ele>52</ele>
        <time>2018-01-04T03:52:32Z</time>
      </trkpt>
      <trkpt lat="50.71701" lon="3.11304">
        <ele>52</ele>
        <time>2018-01-04T03:53:32Z</time>
      </trkpt>
      <trkpt lat="50.71727" lon="3.11264">
        <ele>53</ele>
        <time>2018-01-04T03:54:32Z</time>
      </trkpt>
      <trkpt lat="50.71731" lon="3.11257">
        <ele>53</ele>
        <time>2018-01-04T03:55:32Z</time>
      </trkpt>
      <trkpt lat="50.71743" lon="3.11239">
        <ele>53</ele>
        <time>2018-01-04T03:56:32Z</time>
      </trkpt>
      <trkpt lat="50.71753" lon="3.11223">
        <ele>53</ele>
        <time>2018-01-04T03:57:32Z</time>
      </trkpt>
      <trkpt lat="50.71759" lon="3.11216">
        <ele>53</ele>
        <time>2018-01-04T03:58:32Z</time>
      </trkpt>
      <trkpt lat="50.71776" lon="3.11194">
        <ele>53</ele>
        <time>2018-01-04T03:59:32Z</time>
      </trkpt>
      <trkpt lat="50.71791" lon="3.11178">
        <ele>53</ele>
        <time>2018-01-04T04:00:32Z</time>
      </trkpt>
      <trkpt lat="50.71805" lon="3.11162">
        <ele>53</ele>
        <time>2018-01-04T04:01:32Z</time>
      </trkpt>
      <trkpt lat="50.71818" lon="3.11146">
        <ele>53</ele>
        <time>2018-01-04T04:02:32Z</time>
      </trkpt>
      <trkpt lat="50.71832" lon="3.11127">
        <ele>53</ele>
        <time>2018-01-04T04:03:32Z</time>
      </trkpt>
      <trkpt lat="50.71846" lon="3.11107">
        <ele>53</ele>
        <time>2018-01-04T04:04:32Z</time>
      </trkpt>
      <trkpt lat="50.71859" lon="3.11089">
        <ele>53</ele>
        <time>2018-01-04T04:05:32Z</time>
      </trkpt>
      <trkpt lat="50.71869" lon="3.11078">
        <ele>53</ele>
        <time>2018-01-04T04:06:32Z</time>
      </trkpt>
      <trkpt lat="50.71878" lon="3.11067">
        <ele>52</ele>
        <time>2018-01-04T04:07:32Z</time>
      </trkpt>
      <trkpt lat="50.71893" lon="3.11051">
        <ele>52</ele>
        <time>2018-01-04T04:08:32Z</time>
      </trkpt>
      <trkpt lat="50.71901" lon="3.11044">
        <ele>52</ele>
        <time>2018-01-04T04:09:32Z</time>
      </trkpt>
      <trkpt lat="50.71911" lon="3.11036">
        <ele>52</ele>
        <time>2018-01-04T04:10:32Z</time>
      </trkpt>
      <trkpt lat="50.71919" lon="3.11034">
        <ele>52</ele>
        <time>2018-01-04T04:11:32Z</time>
      </trkpt>
      <trkpt lat="50.71922" lon="3.1103">
        <ele>52</ele>
        <time>2018-01-04T04:12:32Z</time>
      </trkpt>
      <trkpt lat="50.71927" lon="3.11024">
        <ele>52</ele>
        <time>2018-01-04T04:13:32Z</time>
      </trkpt>
      <trkpt lat="50.71935" lon="3.11011">
        <ele>52</ele>
        <time>2018-01-04T04:14:32Z</time>
      </trkpt>
      <trkpt lat="50.71943" lon="3.10996">
        <ele>52</ele>
        <time>2018-01-04T04:15:32Z</time>
      </trkpt>
      <trkpt lat="50.71953" lon="3.1098">
        <ele>52</ele>
        <time>2018-01-04T04:16:32Z</time>
      </trkpt>
      <trkpt lat="50.71959" lon="3.10968">
        <ele>52</ele>
        <time>2018-01-04T04:17:32Z</time>
      </trkpt>
      <trkpt lat="50.71959" lon="3.10968">
        <ele>52</ele>
        <time>2018-01-04T04:18:32Z</time>
      </trkpt>
      <trkpt lat="50.7196" lon="3.10969">
        <ele>52</ele>
        <time>2018-01-04T04:19:32Z</time>
      </trkpt>
      <trkpt lat="50.71961" lon="3.10969">
        <ele>52</ele>
        <time>2018-01-04T04:20:32Z</time>
      </trkpt>
      <trkpt lat="50.71962" lon="3.10969">
        <ele>52</ele>
        <time>2018-01-04T04:21:32Z</time>
      </trkpt>
      <trkpt lat="50.71963" lon="3.10969">
        <ele>52</ele>
        <time>2018-01-04T04:22:32Z</time>
      </trkpt>
      <trkpt lat="50.71964" lon="3.10968">
        <ele>52</ele>
        <time>2018-01-04T04:23:32Z</time>
      </trkpt>
      <trkpt lat="50.71965" lon="3.10968">
        <ele>52</ele>
        <time>2018-01-04T04:24:32Z</time>
      </trkpt>
      <trkpt lat="50.71966" lon="3.10967">
        <ele>52</ele>
        <time>2018-01-04T04:25:32Z</time>
      </trkpt>
      <trkpt lat="50.71967" lon="3.10967">
        <ele>52</ele>
        <time>2018-01-04T04:26:32Z</time>
      </trkpt>
      <trkpt lat="50.71968" lon="3.10966">
        <ele>52</ele>
        <time>2018-01-04T04:27:32Z</time>
      </trkpt>
      <trkpt lat="50.71969" lon="3.10965">
        <ele>52</ele>
        <time>2018-01-04T04:28:32Z</time>
      </trkpt>
      <trkpt lat="50.7197" lon="3.10964">
        <ele>52</ele>
        <time>2018-01-04T04:29:32Z</time>
      </trkpt>
      <trkpt lat="50.7197" lon="3.10963">
        <ele>52</ele>
        <time>2018-01-04T04:30:32Z</time>
      </trkpt>
      <trkpt lat="50.71971" lon="3.10962">
        <ele>52</ele>
        <time>2018-01-04T04:31:32Z</time>
      </trkpt>
      <trkpt lat="50.71971" lon="3.10961">
        <ele>52</ele>
        <time>2018-01-04T04:32:32Z</time>
      </trkpt>
      <trkpt lat="50.71972" lon="3.10961">
        <ele>52</ele>
        <time>2018-01-04T04:33:32Z</time>
      </trkpt>
      <trkpt lat="50.71972" lon="3.1096">
        <ele>52</ele>
        <time>2018-01-04T04:34:32Z</time>
      </trkpt>
      <trkpt lat="50.71972" lon="3.10959">
        <ele>52</ele>
        <time>2018-01-04T04:35:32Z</time>
      </trkpt>
      <trkpt lat="50.71972" lon="3.10958">
        <ele>51</ele>
        <time>2018-01-04T04:36:32Z</time>
      </trkpt>
      <trkpt lat="50.71973" lon="3.10957">
        <ele>51</ele>
        <time>2018-01-04T04:37:32Z</time>
      </trkpt>
      <trkpt lat="50.71973" lon="3.10956">
        <ele>51</ele>
        <time>2018-01-04T04:38:32Z</time>
      </trkpt>
      <trkpt lat="50.71973" lon="3.10955">
        <ele>51</ele>
        <time>2018-01-04T04:39:32Z</time>
      </trkpt>
      <trkpt lat="50.71973" lon="3.10954">
        <ele>51</ele>
        <time>2018-01-04T04:40:32Z</time>
      </trkpt>
      <trkpt lat="50.71973" lon="3.10953">
        <ele>51</ele>
        <time>2018-01-04T04:41:32Z</time>
      </trkpt>
      <trkpt lat="50.71973" lon="3.10952">
        <ele>51</ele>
        <time>2018-01-04T04:42:32Z</time>
      </trkpt>
      <trkpt lat="50.71973" lon="3.10951">
        <ele>51</ele>
        <time>2018-01-04T04:43:32Z</time>
      </trkpt>
      <trkpt lat="50.71973" lon="3.1095">
        <ele>51</ele>
        <time>2018-01-04T04:44:32Z</time>
      </trkpt>
      <trkpt lat="50.71972" lon="3.1095">
        <ele>51</ele>
        <time>2018-01-04T04:45:32Z</time>
      </trkpt>
      <trkpt lat="50.71972" lon="3.10949">
        <ele>51</ele>
        <time>2018-01-04T04:46:32Z</time>
      </trkpt>
      <trkpt lat="50.71972" lon="3.10948">
        <ele>51</ele>
        <time>2018-01-04T04:47:32Z</time>
      </trkpt>
      <trkpt lat="50.71972" lon="3.10947">
        <ele>51</ele>
        <time>2018-01-04T04:48:32Z</time>
      </trkpt>
      <trkpt lat="50.71972" lon="3.10946">
        <ele>51</ele>
        <time>2018-01-04T04:49:32Z</time>
      </trkpt>
      <trkpt lat="50.71971" lon="3.10946">
        <ele>51</ele>
        <time>2018-01-04T04:50:32Z</time>
      </trkpt>
      <trkpt lat="50.71971" lon="3.10945">
        <ele>51</ele>
        <time>2018-01-04T04:51:32Z</time>
      </trkpt>
      <trkpt lat="50.71971" lon="3.10944">
        <ele>51</ele>
        <time>2018-01-04T04:52:32Z</time>
      </trkpt>
      <trkpt lat="50.7197" lon="3.10944">
        <ele>51</ele>
        <time>2018-01-04T04:53:32Z</time>
      </trkpt>
      <trkpt lat="50.7197" lon="3.10943">
        <ele>51</ele>
        <time>2018-01-04T04:54:32Z</time>
      </trkpt>
      <trkpt lat="50.71981" lon="3.10917">
        <ele>51</ele>
        <time>2018-01-04T04:55:32Z</time>
      </trkpt>
      <trkpt lat="50.71992" lon="3.10891">
        <ele>51</ele>
        <time>2018-01-04T04:56:32Z</time>
      </trkpt>
      <trkpt lat="50.72002" lon="3.10869">
        <ele>51</ele>
        <time>2018-01-04T04:57:32Z</time>
      </trkpt>
      <trkpt lat="50.72004" lon="3.10865">
        <ele>51</ele>
        <time>2018-01-04T04:58:32Z</time>
      </trkpt>
      <trkpt lat="50.72007" lon="3.10855">
        <ele>51</ele>
        <time>2018-01-04T04:59:32Z</time>
      </trkpt>
      <trkpt lat="50.72012" lon="3.10846">
        <ele>51</ele>
        <time>2018-01-04T05:00:32Z</time>
      </trkpt>
      <trkpt lat="50.72019" lon="3.10833">
        <ele>51</ele>
        <time>2018-01-04T05:01:32Z</time>
      </trkpt>
      <trkpt lat="50.72024" lon="3.10822">
        <ele>51</ele>
        <time>2018-01-04T05:02:32Z</time>
      </trkpt>
      <trkpt lat="50.7204" lon="3.10789">
        <ele>49</ele>
        <time>2018-01-04T05:03:32Z</time>
      </trkpt>
      <trkpt lat="50.72052" lon="3.10766">
        <ele>49</ele>
        <time>2018-01-04T05:04:32Z</time>
      </trkpt>
      <trkpt lat="50.72064" lon="3.1074">
        <ele>48</ele>
        <time>2018-01-04T05:05:32Z</time>
      </trkpt>
      <trkpt lat="50.72091" lon="3.10686">
        <ele>46</ele>
        <time>2018-01-04T05:06:32Z</time>
      </trkpt>
      <trkpt lat="50.72112" lon="3.10644">
        <ele>44</ele>
        <time>2018-01-04T05:07:32Z</time>
      </trkpt>
      <trkpt lat="50.72114" lon="3.10639">
        <ele>44</ele>
        <time>2018-01-04T05:08:32Z</time>
      </trkpt>
      <trkpt lat="50.72137" lon="3.10595">
        <ele>43</ele>
        <time>2018-01-04T05:09:32Z</time>
      </trkpt>
      <trkpt lat="50.7214" lon="3.10588">
        <ele>43</ele>
        <time>2018-01-04T05:10:32Z</time>
      </trkpt>
      <trkpt lat="50.72152" lon="3.10566">
        <ele>43</ele>
        <time>2018-01-04T05:11:32Z</time>
      </trkpt>
      <trkpt lat="50.72155" lon="3.10559">
        <ele>43</ele>
        <time>2018-01-04T05:12:32Z</time>
      </trkpt>
      <trkpt lat="50.72159" lon="3.10548">
        <ele>43</ele>
        <time>2018-01-04T05:13:32Z</time>
      </trkpt>
      <trkpt lat="50.72171" lon="3.10525">
        <ele>42</ele>
        <time>2018-01-04T05:14:32Z</time>
      </trkpt>
      <trkpt lat="50.72174" lon="3.1052">
        <ele>42</ele>
        <time>2018-01-04T05:15:32Z</time>
      </trkpt>
      <trkpt lat="50.72199" lon="3.10467">
        <ele>42</ele>
        <time>2018-01-04T05:16:32Z</time>
      </trkpt>
      <trkpt lat="50.72206" lon="3.10454">
        <ele>41</ele>
        <time>2018-01-04T05:17:32Z</time>
      </trkpt>
      <trkpt lat="50.7222" lon="3.10427">
        <ele>41</ele>
        <time>2018-01-04T05:18:32Z</time>
      </trkpt>
      <trkpt lat="50.72227" lon="3.10411">
        <ele>40</ele>
        <time>2018-01-04T05:19:32Z</time>
      </trkpt>
      <trkpt lat="50.72239" lon="3.10386">
        <ele>40</ele>
        <time>2018-01-04T05:20:32Z</time>
      </trkpt>
      <trkpt lat="50.72263" lon="3.10336">
        <ele>38</ele>
        <time>2018-01-04T05:21:32Z</time>
      </trkpt>
      <trkpt lat="50.72268" lon="3.10327">
        <ele>38</ele>
        <time>2018-01-04T05:22:32Z</time>
      </trkpt>
      <trkpt lat="50.72298" lon="3.10267">
        <ele>37</ele>
        <time>2018-01-04T05:23:32Z</time>
      </trkpt>
      <trkpt lat="50.72304" lon="3.10256">
        <ele>37</ele>
        <time>2018-01-04T05:24:32Z</time>
      </trkpt>
      <trkpt lat="50.72321" lon="3.10221">
        <ele>37</ele>
        <time>2018-01-04T05:25:32Z</time>
      </trkpt>
      <trkpt lat="50.72329" lon="3.10205">
        <ele>36</ele>
        <time>2018-01-04T05:26:32Z</time>
      </trkpt>
      <trkpt lat="50.72337" lon="3.1019">
        <ele>36</ele>
        <time>2018-01-04T05:27:32Z</time>
      </trkpt>
      <trkpt lat="50.7235" lon="3.10168">
        <ele>36</ele>
        <time>2018-01-04T05:28:32Z</time>
      </trkpt>
      <trkpt lat="50.72357" lon="3.10157">
        <ele>35</ele>
        <time>2018-01-04T05:29:32Z</time>
      </trkpt>
      <trkpt lat="50.7236" lon="3.10152">
        <ele>35</ele>
        <time>2018-01-04T05:30:32Z</time>
      </trkpt>
      <trkpt lat="50.72374" lon="3.10134">
        <ele>35</ele>
        <time>2018-01-04T05:31:32Z</time>
      </trkpt>
      <trkpt lat="50.72388" lon="3.10116">
        <ele>34</ele>
        <time>2018-01-04T05:32:32Z</time>
      </trkpt>
      <trkpt lat="50.72394" lon="3.1011">
        <ele>34</ele>
        <time>2018-01-04T05:33:32Z</time>
      </trkpt>
      <trkpt lat="50.72416" lon="3.10088">
        <ele>33</ele>
        <time>2018-01-04T05:34:32Z</time>
      </trkpt>
      <trkpt lat="50.72421" lon="3.10082">
        <ele>33</ele>
        <time>2018-01-04T05:35:32Z</time>
      </trkpt>
      <trkpt lat="50.72428" lon="3.10077">
        <ele>33</ele>
        <time>2018-01-04T05:36:32Z</time>
      </trkpt>
      <trkpt lat="50.72436" lon="3.1007">
        <ele>33</ele>
        <time>2018-01-04T05:37:32Z</time>
      </trkpt>
      <trkpt lat="50.72458" lon="3.10049">
        <ele>34</ele>
        <time>2018-01-04T05:38:32Z</time>
      </trkpt>
      <trkpt lat="50.72461" lon="3.10047">
        <ele>34</ele>
        <time>2018-01-04T05:39:32Z</time>
      </trkpt>
      <trkpt lat="50.72478" lon="3.10031">
        <ele>34</ele>
        <time>2018-01-04T05:40:32Z</time>
      </trkpt>
      <trkpt lat="50.72496" lon="3.10014">
        <ele>34</ele>
        <time>2018-01-04T05:41:32Z</time>
      </trkpt>
      <trkpt lat="50.72541" lon="3.09975">
        <ele>35</ele>
        <time>2018-01-04T05:42:32Z</time>
      </trkpt>
      <trkpt lat="50.72561" lon="3.09958">
        <ele>35</ele>
        <time>2018-01-04T05:43:32Z</time>
      </trkpt>
      <trkpt lat="50.72567" lon="3.09952">
        <ele>35</ele>
        <time>2018-01-04T05:44:32Z</time>
      </trkpt>
      <trkpt lat="50.72599" lon="3.09922">
        <ele>36</ele>
        <time>2018-01-04T05:45:32Z</time>
      </trkpt>
      <trkpt lat="50.72624" lon="3.09896">
        <ele>36</ele>
        <time>2018-01-04T05:46:32Z</time>
      </trkpt>
      <trkpt lat="50.72637" lon="3.09884">
        <ele>36</ele>
        <time>2018-01-04T05:47:32Z</time>
      </trkpt>
      <trkpt lat="50.72643" lon="3.09877">
        <ele>36</ele>
        <time>2018-01-04T05:48:32Z</time>
      </trkpt>
      <trkpt lat="50.72663" lon="3.09855">
        <ele>36</ele>
        <time>2018-01-04T05:49:32Z</time>
      </trkpt>
      <trkpt lat="50.72681" lon="3.09833">
        <ele>36</ele>
        <time>2018-01-04T05:50:32Z</time>
      </trkpt>
      <trkpt lat="50.72702" lon="3.09806">
        <ele>36</ele>
        <time>2018-01-04T05:51:32Z</time>
      </trkpt>
      <trkpt lat="50.72726" lon="3.09775">
        <ele>35</ele>
        <time>2018-01-04T05:52:32Z</time>
      </trkpt>
      <trkpt lat="50.7274" lon="3.09755">
        <ele>35</ele>
        <time>2018-01-04T05:53:32Z</time>
      </trkpt>
      <trkpt lat="50.72747" lon="3.09745">
        <ele>35</ele>
        <time>2018-01-04T05:54:32Z</time>
      </trkpt>
      <trkpt lat="50.72754" lon="3.09735">
        <ele>35</ele>
        <time>2018-01-04T05:55:32Z</time>
      </trkpt>
      <trkpt lat="50.7276" lon="3.09724">
        <ele>35</ele>
        <time>2018-01-04T05:56:32Z</time>
      </trkpt>
      <trkpt lat="50.7277" lon="3.09707">
        <ele>35</ele>
        <time>2018-01-04T05:57:32Z</time>
      </trkpt>
      <trkpt lat="50.72783" lon="3.09684">
        <ele>35</ele>
        <time>2018-01-04T05:58:32Z</time>
      </trkpt>
      <trkpt lat="50.72795" lon="3.09658">
        <ele>36</ele>
        <time>2018-01-04T05:59:32Z</time>
      </trkpt>
      <trkpt lat="50.72806" lon="3.09631">
        <ele>36</ele>
        <time>2018-01-04T06:00:32Z</time>
      </trkpt>
      <trkpt lat="50.72817" lon="3.09604">
        <ele>36</ele>
        <time>2018-01-04T06:01:32Z</time>
      </trkpt>
      <trkpt lat="50.72832" lon="3.09565">
        <ele>36</ele>
        <time>2018-01-04T06:02:32Z</time>
      </trkpt>
      <trkpt lat="50.7285" lon="3.0952">
        <ele>36</ele>
        <time>2018-01-04T06:03:32Z</time>
      </trkpt>
      <trkpt lat="50.72866" lon="3.09481">
        <ele>36</ele>
        <time>2018-01-04T06:04:32Z</time>
      </trkpt>
      <trkpt lat="50.72879" lon="3.09453">
        <ele>36</ele>
        <time>2018-01-04T06:05:32Z</time>
      </trkpt>
      <trkpt lat="50.72881" lon="3.09447">
        <ele>36</ele>
        <time>2018-01-04T06:06:32Z</time>
      </trkpt>
      <trkpt lat="50.72891" lon="3.09427">
        <ele>36</ele>
        <time>2018-01-04T06:07:32Z</time>
      </trkpt>
      <trkpt lat="50.72898" lon="3.09414">
        <ele>36</ele>
        <time>2018-01-04T06:08:32Z</time>
      </trkpt>
      <trkpt lat="50.72906" lon="3.09402">
        <ele>36</ele>
        <time>2018-01-04T06:09:32Z</time>
      </trkpt>
      <trkpt lat="50.72908" lon="3.09397">
        <ele>36</ele>
        <time>2018-01-04T06:10:32Z</time>
      </trkpt>
      <trkpt lat="50.72928" lon="3.09367">
        <ele>35</ele>
        <time>2018-01-04T06:11:32Z</time>
      </trkpt>
      <trkpt lat="50.7296" lon="3.09325">
        <ele>35</ele>
        <time>2018-01-04T06:12:32Z</time>
      </trkpt>
      <trkpt lat="50.72971" lon="3.09311">
        <ele>35</ele>
        <time>2018-01-04T06:13:32Z</time>
      </trkpt>
      <trkpt lat="50.72972" lon="3.09309">
        <ele>35</ele>
        <time>2018-01-04T06:14:32Z</time>
      </trkpt>
      <trkpt lat="50.72977" lon="3.09307">
        <ele>35</ele>
        <time>2018-01-04T06:15:32Z</time>
      </trkpt>
      <trkpt lat="50.72985" lon="3.09296">
        <ele>35</ele>
        <time>2018-01-04T06:16:32Z</time>
      </trkpt>
      <trkpt lat="50.72986" lon="3.09295">
        <ele>35</ele>
        <time>2018-01-04T06:17:32Z</time>
      </trkpt>
      <trkpt lat="50.72993" lon="3.09287">
        <ele>35</ele>
        <time>2018-01-04T06:18:32Z</time>
      </trkpt>
      <trkpt lat="50.73" lon="3.09278">
        <ele>35</ele>
        <time>2018-01-04T06:19:32Z</time>
      </trkpt>
      <trkpt lat="50.73014" lon="3.09258">
        <ele>35</ele>
        <time>2018-01-04T06:20:32Z</time>
      </trkpt>
      <trkpt lat="50.73016" lon="3.09251">
        <ele>35</ele>
        <time>2018-01-04T06:21:32Z</time>
      </trkpt>
      <trkpt lat="50.73038" lon="3.09221">
        <ele>36</ele>
        <time>2018-01-04T06:22:32Z</time>
      </trkpt>
      <trkpt lat="50.73053" lon="3.09201">
        <ele>37</ele>
        <time>2018-01-04T06:23:32Z</time>
      </trkpt>
      <trkpt lat="50.73059" lon="3.09194">
        <ele>37</ele>
        <time>2018-01-04T06:24:32Z</time>
      </trkpt>
      <trkpt lat="50.73079" lon="3.09169">
        <ele>38</ele>
        <time>2018-01-04T06:25:32Z</time>
      </trkpt>
      <trkpt lat="50.73086" lon="3.0916">
        <ele>38</ele>
        <time>2018-01-04T06:26:32Z</time>
      </trkpt>
      <trkpt lat="50.73094" lon="3.09149">
        <ele>38</ele>
        <time>2018-01-04T06:27:32Z</time>
      </trkpt>
      <trkpt lat="50.73124" lon="3.09109">
        <ele>39</ele>
        <time>2018-01-04T06:28:32Z</time>
      </trkpt>
      <trkpt lat="50.7314" lon="3.09088">
        <ele>40</ele>
        <time>2018-01-04T06:29:32Z</time>
      </trkpt>
      <trkpt lat="50.73148" lon="3.09077">
        <ele>40</ele>
        <time>2018-01-04T06:30:32Z</time>
      </trkpt>
      <trkpt lat="50.73161" lon="3.09059">
        <ele>41</ele>
        <time>2018-01-04T06:31:32Z</time>
      </trkpt>
      <trkpt lat="50.7318" lon="3.09033">
        <ele>41</ele>
        <time>2018-01-04T06:32:32Z</time>
      </trkpt>
      <trkpt lat="50.732" lon="3.09005">
        <ele>41</ele>
        <time>2018-01-04T06:33:32Z</time>
      </trkpt>
      <trkpt lat="50.73202" lon="3.09002">
        <ele>41</ele>
        <time>2018-01-04T06:34:32Z</time>
      </trkpt>
      <trkpt lat="50.73204" lon="3.09002">
        <ele>41</ele>
        <time>2018-01-04T06:35:32Z</time>
      </trkpt>
      <trkpt lat="50.73205" lon="3.09">
        <ele>41</ele>
        <time>2018-01-04T06:36:32Z</time>
      </trkpt>
      <trkpt lat="50.73208" lon="3.08998">
        <ele>41</ele>
        <time>2018-01-04T06:37:32Z</time>
      </trkpt>
      <trkpt lat="50.7321" lon="3.08995">
        <ele>41</ele>
        <time>2018-01-04T06:38:32Z</time>
      </trkpt>
      <trkpt lat="50.73213" lon="3.08991">
        <ele>41</ele>
        <time>2018-01-04T06:39:32Z</time>
      </trkpt>
      <trkpt lat="50.7323" lon="3.08967">
        <ele>41</ele>
        <time>2018-01-04T06:40:32Z</time>
      </trkpt>
      <trkpt lat="50.73233" lon="3.08961">
        <ele>41</ele>
        <time>2018-01-04T06:41:32Z</time>
      </trkpt>
      <trkpt lat="50.73238" lon="3.08953">
        <ele>41</ele>
        <time>2018-01-04T06:42:32Z</time>
      </trkpt>
      <trkpt lat="50.73294" lon="3.08868">
        <ele>40</ele>
        <time>2018-01-04T06:43:32Z</time>
      </trkpt>
      <trkpt lat="50.73308" lon="3.0885">
        <ele>40</ele>
        <time>2018-01-04T06:44:32Z</time>
      </trkpt>
      <trkpt lat="50.73322" lon="3.08833">
        <ele>41</ele>
        <time>2018-01-04T06:45:32Z</time>
      </trkpt>
      <trkpt lat="50.73335" lon="3.08819">
        <ele>41</ele>
        <time>2018-01-04T06:46:32Z</time>
      </trkpt>
      <trkpt lat="50.7334" lon="3.08814">
        <ele>40</ele>
        <time>2018-01-04T06:47:32Z</time>
      </trkpt>
      <trkpt lat="50.73358" lon="3.08802">
        <ele>40</ele>
        <time>2018-01-04T06:48:32Z</time>
      </trkpt>
      <trkpt lat="50.73369" lon="3.08794">
        <ele>40</ele>
        <time>2018-01-04T06:49:32Z</time>
      </trkpt>
      <trkpt lat="50.73373" lon="3.08792">
        <ele>40</ele>
        <time>2018-01-04T06:50:32Z</time>
      </trkpt>
      <trkpt lat="50.73373" lon="3.08792">
        <ele>40</ele>
        <time>2018-01-04T06:51:32Z</time>
      </trkpt>
      <trkpt lat="50.73374" lon="3.08792">
        <ele>40</ele>
        <time>2018-01-04T06:52:32Z</time>
      </trkpt>
      <trkpt lat="50.73376" lon="3.08791">
        <ele>40</ele>
        <time>2018-01-04T06:53:32Z</time>
      </trkpt>
      <trkpt lat="50.73376" lon="3.08791">
        <ele>40</ele>
        <time>2018-01-04T06:54:32Z</time>
      </trkpt>
      <trkpt lat="50.73375" lon="3.0878">
        <ele>40</ele>
        <time>2018-01-04T06:55:32Z</time>
      </trkpt>
      <trkpt lat="50.73376" lon="3.08773">
        <ele>39</ele>
        <time>2018-01-04T06:56:32Z</time>
      </trkpt>
      <trkpt lat="50.73377" lon="3.08764">
        <ele>39</ele>
        <time>2018-01-04T06:57:32Z</time>
      </trkpt>
      <trkpt lat="50.73377" lon="3.08759">
        <ele>39</ele>
        <time>2018-01-04T06:58:32Z</time>
      </trkpt>
      <trkpt lat="50.73378" lon="3.08753">
        <ele>39</ele>
        <time>2018-01-04T06:59:32Z</time>
      </trkpt>
      <trkpt lat="50.7338" lon="3.08747">
        <ele>39</ele>
        <time>2018-01-04T07:00:32Z</time>
      </trkpt>
      <trkpt lat="50.7338" lon="3.08742">
        <ele>39</ele>
        <time>2018-01-04T07:01:32Z</time>
      </trkpt>
      <trkpt lat="50.73382" lon="3.08736">
        <ele>39</ele>
        <time>2018-01-04T07:02:32Z</time>
      </trkpt>
      <trkpt lat="50.73412" lon="3.08693">
        <ele>39</ele>
        <time>2018-01-04T07:03:32Z</time>
      </trkpt>
      <trkpt lat="50.73431" lon="3.08664">
        <ele>39</ele>
        <time>2018-01-04T07:04:32Z</time>
      </trkpt>
      <trkpt lat="50.73444" lon="3.08645">
        <ele>38</ele>
        <time>2018-01-04T07:05:32Z</time>
      </trkpt>
      <trkpt lat="50.73475" lon="3.08599">
        <ele>37</ele>
        <time>2018-01-04T07:06:32Z</time>
      </trkpt>
      <trkpt lat="50.73479" lon="3.08594">
        <ele>37</ele>
        <time>2018-01-04T07:07:32Z</time>
      </trkpt>
      <trkpt lat="50.73514" lon="3.08539">
        <ele>37</ele>
        <time>2018-01-04T07:08:32Z</time>
      </trkpt>
      <trkpt lat="50.73527" lon="3.0852">
        <ele>37</ele>
        <time>2018-01-04T07:09:32Z</time>
      </trkpt>
      <trkpt lat="50.73536" lon="3.08508">
        <ele>37</ele>
        <time>2018-01-04T07:10:32Z</time>
      </trkpt>
      <trkpt lat="50.73573" lon="3.08455">
        <ele>38</ele>
        <time>2018-01-04T07:11:32Z</time>
      </trkpt>
      <trkpt lat="50.73581" lon="3.08444">
        <ele>38</ele>
        <time>2018-01-04T07:12:32Z</time>
      </trkpt>
      <trkpt lat="50.73593" lon="3.08427">
        <ele>38</ele>
        <time>2018-01-04T07:13:32Z</time>
      </trkpt>
      <trkpt lat="50.73615" lon="3.08399">
        <ele>39</ele>
        <time>2018-01-04T07:14:32Z</time>
      </trkpt>
      <trkpt lat="50.73651" lon="3.08349">
        <ele>40</ele>
        <time>2018-01-04T07:15:32Z</time>
      </trkpt>
      <trkpt lat="50.73698" lon="3.08281">
        <ele>42</ele>
        <time>2018-01-04T07:16:32Z</time>
      </trkpt>
      <trkpt lat="50.73703" lon="3.08274">
        <ele>42</ele>
        <time>2018-01-04T07:17:32Z</time>
      </trkpt>
      <trkpt lat="50.73748" lon="3.08211">
        <ele>45</ele>
        <time>2018-01-04T07:18:32Z</time>
      </trkpt>
      <trkpt lat="50.73751" lon="3.08207">
        <ele>45</ele>
        <time>2018-01-04T07:19:32Z</time>
      </trkpt>
      <trkpt lat="50.73765" lon="3.08186">
        <ele>46</ele>
        <time>2018-01-04T07:20:32Z</time>
      </trkpt>
      <trkpt lat="50.73784" lon="3.08159">
        <ele>46</ele>
        <time>2018-01-04T07:21:32Z</time>
      </trkpt>
      <trkpt lat="50.73788" lon="3.08154">
        <ele>46</ele>
        <time>2018-01-04T07:22:32Z</time>
      </trkpt>
      <trkpt lat="50.73793" lon="3.08147">
        <ele>46</ele>
        <time>2018-01-04T07:23:32Z</time>
      </trkpt>
      <trkpt lat="50.73807" lon="3.08129">
        <ele>47</ele>
        <time>2018-01-04T07:24:32Z</time>
      </trkpt>
      <trkpt lat="50.73818" lon="3.08112">
        <ele>47</ele>
        <time>2018-01-04T07:25:32Z</time>
      </trkpt>
      <trkpt lat="50.73835" lon="3.08088">
        <ele>48</ele>
        <time>2018-01-04T07:26:32Z</time>
      </trkpt>
      <trkpt lat="50.73835" lon="3.08088">
        <ele>48</ele>
        <time>2018-01-04T07:27:32Z</time>
      </trkpt>
      <trkpt lat="50.73836" lon="3.08089">
        <ele>48</ele>
        <time>2018-01-04T07:28:32Z</time>
      </trkpt>
      <trkpt lat="50.73836" lon="3.0809">
        <ele>48</ele>
        <time>2018-01-04T07:29:32Z</time>
      </trkpt>
      <trkpt lat="50.73837" lon="3.0809">
        <ele>48</ele>
        <time>2018-01-04T07:30:32Z</time>
      </trkpt>
      <trkpt lat="50.73837" lon="3.08091">
        <ele>48</ele>
        <time>2018-01-04T07:31:32Z</time>
      </trkpt>
      <trkpt lat="50.73838" lon="3.08091">
        <ele>48</ele>
        <time>2018-01-04T07:32:32Z</time>
      </trkpt>
      <trkpt lat="50.73839" lon="3.08091">
        <ele>48</ele>
        <time>2018-01-04T07:33:32Z</time>
      </trkpt>
      <trkpt lat="50.73839" lon="3.08092">
        <ele>48</ele>
        <time>2018-01-04T07:34:32Z</time>
      </trkpt>
      <trkpt lat="50.7384" lon="3.08092">
        <ele>48</ele>
        <time>2018-01-04T07:35:32Z</time>
      </trkpt>
      <trkpt lat="50.73841" lon="3.08092">
        <ele>48</ele>
        <time>2018-01-04T07:36:32Z</time>
      </trkpt>
      <trkpt lat="50.73842" lon="3.08092">
        <ele>48</ele>
        <time>2018-01-04T07:37:32Z</time>
      </trkpt>
      <trkpt lat="50.73843" lon="3.08092">
        <ele>48</ele>
        <time>2018-01-04T07:38:32Z</time>
      </trkpt>
      <trkpt lat="50.73844" lon="3.08092">
        <ele>48</ele>
        <time>2018-01-04T07:39:32Z</time>
      </trkpt>
      <trkpt lat="50.73844" lon="3.08091">
        <ele>48</ele>
        <time>2018-01-04T07:40:32Z</time>
      </trkpt>
      <trkpt lat="50.73845" lon="3.08091">
        <ele>48</ele>
        <time>2018-01-04T07:41:32Z</time>
      </trkpt>
      <trkpt lat="50.73846" lon="3.0809">
        <ele>48</ele>
        <time>2018-01-04T07:42:32Z</time>
      </trkpt>
      <trkpt lat="50.73847" lon="3.08089">
        <ele>48</ele>
        <time>2018-01-04T07:43:32Z</time>
      </trkpt>
      <trkpt lat="50.73847" lon="3.08088">
        <ele>48</ele>
        <time>2018-01-04T07:44:32Z</time>
      </trkpt>
      <trkpt lat="50.73848" lon="3.08088">
        <ele>48</ele>
        <time>2018-01-04T07:45:32Z</time>
      </trkpt>
      <trkpt lat="50.73848" lon="3.08087">
        <ele>48</ele>
        <time>2018-01-04T07:46:32Z</time>
      </trkpt>
      <trkpt lat="50.73849" lon="3.08086">
        <ele>48</ele>
        <time>2018-01-04T07:47:32Z</time>
      </trkpt>
      <trkpt lat="50.73849" lon="3.08085">
        <ele>48</ele>
        <time>2018-01-04T07:48:32Z</time>
      </trkpt>
      <trkpt lat="50.73849" lon="3.08084">
        <ele>48</ele>
        <time>2018-01-04T07:49:32Z</time>
      </trkpt>
      <trkpt lat="50.7385" lon="3.08084">
        <ele>48</ele>
        <time>2018-01-04T07:50:32Z</time>
      </trkpt>
      <trkpt lat="50.7385" lon="3.08083">
        <ele>48</ele>
        <time>2018-01-04T07:51:32Z</time>
      </trkpt>
      <trkpt lat="50.7385" lon="3.08082">
        <ele>48</ele>
        <time>2018-01-04T07:52:32Z</time>
      </trkpt>
      <trkpt lat="50.7385" lon="3.08081">
        <ele>48</ele>
        <time>2018-01-04T07:53:32Z</time>
      </trkpt>
      <trkpt lat="50.7385" lon="3.0808">
        <ele>48</ele>
        <time>2018-01-04T07:54:32Z</time>
      </trkpt>
      <trkpt lat="50.7385" lon="3.08079">
        <ele>48</ele>
        <time>2018-01-04T07:55:32Z</time>
      </trkpt>
      <trkpt lat="50.7385" lon="3.08078">
        <ele>48</ele>
        <time>2018-01-04T07:56:32Z</time>
      </trkpt>
      <trkpt lat="50.7385" lon="3.08077">
        <ele>48</ele>
        <time>2018-01-04T07:57:32Z</time>
      </trkpt>
      <trkpt lat="50.7385" lon="3.08076">
        <ele>48</ele>
        <time>2018-01-04T07:58:32Z</time>
      </trkpt>
      <trkpt lat="50.7385" lon="3.08075">
        <ele>48</ele>
        <time>2018-01-04T07:59:32Z</time>
      </trkpt>
      <trkpt lat="50.7385" lon="3.08074">
        <ele>48</ele>
        <time>2018-01-04T08:00:32Z</time>
      </trkpt>
      <trkpt lat="50.7385" lon="3.08073">
        <ele>48</ele>
        <time>2018-01-04T08:01:32Z</time>
      </trkpt>
      <trkpt lat="50.73849" lon="3.08072">
        <ele>48</ele>
        <time>2018-01-04T08:02:32Z</time>
      </trkpt>
      <trkpt lat="50.73849" lon="3.08071">
        <ele>48</ele>
        <time>2018-01-04T08:03:32Z</time>
      </trkpt>
      <trkpt lat="50.73849" lon="3.0807">
        <ele>48</ele>
        <time>2018-01-04T08:04:32Z</time>
      </trkpt>
      <trkpt lat="50.73848" lon="3.0807">
        <ele>48</ele>
        <time>2018-01-04T08:05:32Z</time>
      </trkpt>
      <trkpt lat="50.73848" lon="3.08069">
        <ele>48</ele>
        <time>2018-01-04T08:06:32Z</time>
      </trkpt>
      <trkpt lat="50.73848" lon="3.08068">
        <ele>48</ele>
        <time>2018-01-04T08:07:32Z</time>
      </trkpt>
      <trkpt lat="50.73847" lon="3.08068">
        <ele>48</ele>
        <time>2018-01-04T08:08:32Z</time>
      </trkpt>
      <trkpt lat="50.73847" lon="3.08067">
        <ele>48</ele>
        <time>2018-01-04T08:09:32Z</time>
      </trkpt>
      <trkpt lat="50.73846" lon="3.08067">
        <ele>48</ele>
        <time>2018-01-04T08:10:32Z</time>
      </trkpt>
      <trkpt lat="50.73846" lon="3.08066">
        <ele>48</ele>
        <time>2018-01-04T08:11:32Z</time>
      </trkpt>
      <trkpt lat="50.73845" lon="3.08066">
        <ele>48</ele>
        <time>2018-01-04T08:12:32Z</time>
      </trkpt>
      <trkpt lat="50.73845" lon="3.08065">
        <ele>48</ele>
        <time>2018-01-04T08:13:32Z</time>
      </trkpt>
      <trkpt lat="50.73844" lon="3.08065">
        <ele>48</ele>
        <time>2018-01-04T08:14:32Z</time>
      </trkpt>
      <trkpt lat="50.73843" lon="3.08064">
        <ele>48</ele>
        <time>2018-01-04T08:15:32Z</time>
      </trkpt>
      <trkpt lat="50.73842" lon="3.08064">
        <ele>48</ele>
        <time>2018-01-04T08:16:32Z</time>
      </trkpt>
      <trkpt lat="50.73841" lon="3.08064">
        <ele>48</ele>
        <time>2018-01-04T08:17:32Z</time>
      </trkpt>
      <trkpt lat="50.7384" lon="3.08064">
        <ele>48</ele>
        <time>2018-01-04T08:18:32Z</time>
      </trkpt>
      <trkpt lat="50.73839" lon="3.08064">
        <ele>48</ele>
        <time>2018-01-04T08:19:32Z</time>
      </trkpt>
      <trkpt lat="50.73838" lon="3.08047">
        <ele>49</ele>
        <time>2018-01-04T08:20:32Z</time>
      </trkpt>
      <trkpt lat="50.73839" lon="3.08028">
        <ele>49</ele>
        <time>2018-01-04T08:21:32Z</time>
      </trkpt>
      <trkpt lat="50.73842" lon="3.08013">
        <ele>49</ele>
        <time>2018-01-04T08:22:32Z</time>
      </trkpt>
      <trkpt lat="50.73846" lon="3.08002">
        <ele>50</ele>
        <time>2018-01-04T08:23:32Z</time>
      </trkpt>
      <trkpt lat="50.73857" lon="3.07979">
        <ele>49</ele>
        <time>2018-01-04T08:24:32Z</time>
      </trkpt>
      <trkpt lat="50.73867" lon="3.07958">
        <ele>48</ele>
        <time>2018-01-04T08:25:32Z</time>
      </trkpt>
      <trkpt lat="50.73871" lon="3.07946">
        <ele>48</ele>
        <time>2018-01-04T08:26:32Z</time>
      </trkpt>
      <trkpt lat="50.73876" lon="3.07934">
        <ele>48</ele>
        <time>2018-01-04T08:27:32Z</time>
      </trkpt>
      <trkpt lat="50.73878" lon="3.07928">
        <ele>48</ele>
        <time>2018-01-04T08:28:32Z</time>
      </trkpt>
      <trkpt lat="50.73884" lon="3.07904">
        <ele>47</ele>
        <time>2018-01-04T08:29:32Z</time>
      </trkpt>
      <trkpt lat="50.73889" lon="3.07884">
        <ele>47</ele>
        <time>2018-01-04T08:30:32Z</time>
      </trkpt>
      <trkpt lat="50.73889" lon="3.07884">
        <ele>47</ele>
        <time>2018-01-04T08:31:32Z</time>
      </trkpt>
      <trkpt lat="50.73894" lon="3.07871">
        <ele>46</ele>
        <time>2018-01-04T08:32:32Z</time>
      </trkpt>
      <trkpt lat="50.73899" lon="3.07861">
        <ele>46</ele>
        <time>2018-01-04T08:33:32Z</time>
      </trkpt>
      <trkpt lat="50.73906" lon="3.07851">
        <ele>46</ele>
        <time>2018-01-04T08:34:32Z</time>
      </trkpt>
      <trkpt lat="50.73922" lon="3.07831">
        <ele>45</ele>
        <time>2018-01-04T08:35:32Z</time>
      </trkpt>
      <trkpt lat="50.73948" lon="3.07801">
        <ele>42</ele>
        <time>2018-01-04T08:36:32Z</time>
      </trkpt>
      <trkpt lat="50.73971" lon="3.07774">
        <ele>40</ele>
        <time>2018-01-04T08:37:32Z</time>
      </trkpt>
      <trkpt lat="50.73972" lon="3.07773">
        <ele>40</ele>
        <time>2018-01-04T08:38:32Z</time>
      </trkpt>
      <trkpt lat="50.73984" lon="3.07759">
        <ele>39</ele>
        <time>2018-01-04T08:39:32Z</time>
      </trkpt>
      <trkpt lat="50.73996" lon="3.07744">
        <ele>38</ele>
        <time>2018-01-04T08:40:32Z</time>
      </trkpt>
      <trkpt lat="50.74004" lon="3.07735">
        <ele>38</ele>
        <time>2018-01-04T08:41:32Z</time>
      </trkpt>
      <trkpt lat="50.74018" lon="3.0772">
        <ele>37</ele>
        <time>2018-01-04T08:42:32Z</time>
      </trkpt>
      <trkpt lat="50.74028" lon="3.07707">
        <ele>37</ele>
        <time>2018-01-04T08:43:32Z</time>
      </trkpt>
      <trkpt lat="50.74028" lon="3.07707">
        <ele>37</ele>
        <time>2018-01-04T08:44:32Z</time>
      </trkpt>
      <trkpt lat="50.74001" lon="3.07647">
        <ele>37</ele>
        <time>2018-01-04T08:45:32Z</time>
      </trkpt>
      <trkpt lat="50.73998" lon="3.07638">
        <ele>37</ele>
        <time>2018-01-04T08:46:32Z</time>
      </trkpt>
      <trkpt lat="50.73968" lon="3.07569">
        <ele>35</ele>
        <time>2018-01-04T08:47:32Z</time>
      </trkpt>
      <trkpt lat="50.73962" lon="3.07555">
        <ele>35</ele>
        <time>2018-01-04T08:48:32Z</time>
      </trkpt>
      <trkpt lat="50.73928" lon="3.07475">
        <ele>33</ele>
        <time>2018-01-04T08:49:32Z</time>
      </trkpt>
      <trkpt lat="50.73918" lon="3.0745">
        <ele>32</ele>
        <time>2018-01-04T08:50:32Z</time>
      </trkpt>
      <trkpt lat="50.73912" lon="3.07429">
        <ele>32</ele>
        <time>2018-01-04T08:51:32Z</time>
      </trkpt>
      <trkpt lat="50.73901" lon="3.07387">
        <ele>32</ele>
        <time>2018-01-04T08:52:32Z</time>
      </trkpt>
      <trkpt lat="50.73893" lon="3.07355">
        <ele>32</ele>
        <time>2018-01-04T08:53:32Z</time>
      </trkpt>
      <trkpt lat="50.73889" lon="3.07335">
        <ele>32</ele>
        <time>2018-01-04T08:54:32Z</time>
      </trkpt>
      <trkpt lat="50.73885" lon="3.07311">
        <ele>31</ele>
        <time>2018-01-04T08:55:32Z</time>
      </trkpt>
      <trkpt lat="50.73878" lon="3.07249">
        <ele>30</ele>
        <time>2018-01-04T08:56:32Z</time>
      </trkpt>
      <trkpt lat="50.7388" lon="3.07244">
        <ele>30</ele>
        <time>2018-01-04T08:57:32Z</time>
      </trkpt>
      <trkpt lat="50.73878" lon="3.07228">
        <ele>30</ele>
        <time>2018-01-04T08:58:32Z</time>
      </trkpt>
      <trkpt lat="50.73876" lon="3.07194">
        <ele>29</ele>
        <time>2018-01-04T08:59:32Z</time>
      </trkpt>
      <trkpt lat="50.73876" lon="3.07184">
        <ele>29</ele>
        <time>2018-01-04T09:00:32Z</time>
      </trkpt>
      <trkpt lat="50.73876" lon="3.07184">
        <ele>29</ele>
        <time>2018-01-04T09:01:32Z</time>
      </trkpt>
      <trkpt lat="50.73883" lon="3.07185">
        <ele>29</ele>
        <time>2018-01-04T09:02:32Z</time>
      </trkpt>
      <trkpt lat="50.739" lon="3.07182">
        <ele>28</ele>
        <time>2018-01-04T09:03:32Z</time>
      </trkpt>
      <trkpt lat="50.73911" lon="3.07179">
        <ele>28</ele>
        <time>2018-01-04T09:04:32Z</time>
      </trkpt>
      <trkpt lat="50.73921" lon="3.07175">
        <ele>28</ele>
        <time>2018-01-04T09:05:32Z</time>
      </trkpt>
      <trkpt lat="50.73933" lon="3.07166">
        <ele>28</ele>
        <time>2018-01-04T09:06:32Z</time>
      </trkpt>
      <trkpt lat="50.73944" lon="3.07156">
        <ele>28</ele>
        <time>2018-01-04T09:07:32Z</time>
      </trkpt>
      <trkpt lat="50.73955" lon="3.07143">
        <ele>28</ele>
        <time>2018-01-04T09:08:32Z</time>
      </trkpt>
      <trkpt lat="50.7396" lon="3.07136">
        <ele>27</ele>
        <time>2018-01-04T09:09:32Z</time>
      </trkpt>
      <trkpt lat="50.73962" lon="3.07133">
        <ele>27</ele>
        <time>2018-01-04T09:10:32Z</time>
      </trkpt>
      <trkpt lat="50.73976" lon="3.07114">
        <ele>27</ele>
        <time>2018-01-04T09:11:32Z</time>
      </trkpt>
      <trkpt lat="50.73997" lon="3.07085">
        <ele>26</ele>
        <time>2018-01-04T09:12:32Z</time>
      </trkpt>
      <trkpt lat="50.74009" lon="3.07067">
        <ele>26</ele>
        <time>2018-01-04T09:13:32Z</time>
      </trkpt>
      <trkpt lat="50.74013" lon="3.0706">
        <ele>26</ele>
        <time>2018-01-04T09:14:32Z</time>
      </trkpt>
      <trkpt lat="50.74023" lon="3.07041">
        <ele>25</ele>
        <time>2018-01-04T09:15:32Z</time>
      </trkpt>
      <trkpt lat="50.74033" lon="3.07019">
        <ele>25</ele>
        <time>2018-01-04T09:16:32Z</time>
      </trkpt>
      <trkpt lat="50.74044" lon="3.0699">
        <ele>24</ele>
        <time>2018-01-04T09:17:32Z</time>
      </trkpt>
      <trkpt lat="50.74058" lon="3.06953">
        <ele>24</ele>
        <time>2018-01-04T09:18:32Z</time>
      </trkpt>
      <trkpt lat="50.74063" lon="3.06935">
        <ele>24</ele>
        <time>2018-01-04T09:19:32Z</time>
      </trkpt>
      <trkpt lat="50.74064" lon="3.0693">
        <ele>24</ele>
        <time>2018-01-04T09:20:32Z</time>
      </trkpt>
      <trkpt lat="50.74067" lon="3.06917">
        <ele>24</ele>
        <time>2018-01-04T09:21:32Z</time>
      </trkpt>
      <trkpt lat="50.74069" lon="3.069">
        <ele>24</ele>
        <time>2018-01-04T09:22:32Z</time>
      </trkpt>
      <trkpt lat="50.74071" lon="3.06876">
        <ele>24</ele>
        <time>2018-01-04T09:23:32Z</time>
      </trkpt>
      <trkpt lat="50.74073" lon="3.06853">
        <ele>24</ele>
        <time>2018-01-04T09:24:32Z</time>
      </trkpt>
      <trkpt lat="50.74076" lon="3.06836">
        <ele>24</ele>
        <time>2018-01-04T09:25:32Z</time>
      </trkpt>
      <trkpt lat="50.74081" lon="3.06821">
        <ele>24</ele>
        <time>2018-01-04T09:26:32Z</time>
      </trkpt>
      <trkpt lat="50.74086" lon="3.06807">
        <ele>24</ele>
        <time>2018-01-04T09:27:32Z</time>
      </trkpt>
      <trkpt lat="50.74093" lon="3.0679">
        <ele>24</ele>
        <time>2018-01-04T09:28:32Z</time>
      </trkpt>
      <trkpt lat="50.74108" lon="3.06757">
        <ele>24</ele>
        <time>2018-01-04T09:29:32Z</time>
      </trkpt>
      <trkpt lat="50.74127" lon="3.06718">
        <ele>24</ele>
        <time>2018-01-04T09:30:32Z</time>
      </trkpt>
      <trkpt lat="50.74137" lon="3.06698">
        <ele>24</ele>
        <time>2018-01-04T09:31:32Z</time>
      </trkpt>
      <trkpt lat="50.74172" lon="3.06621">
        <ele>22</ele>
        <time>2018-01-04T09:32:32Z</time>
      </trkpt>
      <trkpt lat="50.74187" lon="3.06592">
        <ele>22</ele>
        <time>2018-01-04T09:33:32Z</time>
      </trkpt>
      <trkpt lat="50.74203" lon="3.06564">
        <ele>22</ele>
        <time>2018-01-04T09:34:32Z</time>
      </trkpt>
      <trkpt lat="50.74213" lon="3.06546">
        <ele>21</ele>
        <time>2018-01-04T09:35:32Z</time>
      </trkpt>
      <trkpt lat="50.74217" lon="3.06539">
        <ele>21</ele>
        <time>2018-01-04T09:36:32Z</time>
      </trkpt>
      <trkpt lat="50.74228" lon="3.06519">
        <ele>21</ele>
        <time>2018-01-04T09:37:32Z</time>
      </trkpt>
      <trkpt lat="50.74236" lon="3.065">
        <ele>21</ele>
        <time>2018-01-04T09:38:32Z</time>
      </trkpt>
      <trkpt lat="50.74241" lon="3.06483">
        <ele>21</ele>
        <time>2018-01-04T09:39:32Z</time>
      </trkpt>
      <trkpt lat="50.74243" lon="3.06477">
        <ele>21</ele>
        <time>2018-01-04T09:40:32Z</time>
      </trkpt>
      <trkpt lat="50.74246" lon="3.06459">
        <ele>21</ele>
        <time>2018-01-04T09:41:32Z</time>
      </trkpt>
      <trkpt lat="50.74247" lon="3.06454">
        <ele>21</ele>
        <time>2018-01-04T09:42:32Z</time>
      </trkpt>
      <trkpt lat="50.74248" lon="3.06441">
        <ele>21</ele>
        <time>2018-01-04T09:43:32Z</time>
      </trkpt>
      <trkpt lat="50.74249" lon="3.06429">
        <ele>21</ele>
        <time>2018-01-04T09:44:32Z</time>
      </trkpt>
      <trkpt lat="50.7425" lon="3.06416">
        <ele>21</ele>
        <time>2018-01-04T09:45:32Z</time>
      </trkpt>
      <trkpt lat="50.74251" lon="3.06381">
        <ele>21</ele>
        <time>2018-01-04T09:46:32Z</time>
      </trkpt>
      <trkpt lat="50.74252" lon="3.0634">
        <ele>21</ele>
        <time>2018-01-04T09:47:32Z</time>
      </trkpt>
      <trkpt lat="50.74253" lon="3.06335">
        <ele>21</ele>
        <time>2018-01-04T09:48:32Z</time>
      </trkpt>
      <trkpt lat="50.74256" lon="3.06286">
        <ele>21</ele>
        <time>2018-01-04T09:49:32Z</time>
      </trkpt>
      <trkpt lat="50.7426" lon="3.06234">
        <ele>21</ele>
        <time>2018-01-04T09:50:32Z</time>
      </trkpt>
      <trkpt lat="50.74261" lon="3.06217">
        <ele>21</ele>
        <time>2018-01-04T09:51:32Z</time>
      </trkpt>
      <trkpt lat="50.74262" lon="3.06197">
        <ele>21</ele>
        <time>2018-01-04T09:52:32Z</time>
      </trkpt>
      <trkpt lat="50.74263" lon="3.06185">
        <ele>22</ele>
        <time>2018-01-04T09:53:32Z</time>
      </trkpt>
      <trkpt lat="50.74264" lon="3.06178">
        <ele>22</ele>
        <time>2018-01-04T09:54:32Z</time>
      </trkpt>
      <trkpt lat="50.74265" lon="3.06171">
        <ele>22</ele>
        <time>2018-01-04T09:55:32Z</time>
      </trkpt>
      <trkpt lat="50.74266" lon="3.06165">
        <ele>22</ele>
        <time>2018-01-04T09:56:32Z</time>
      </trkpt>
      <trkpt lat="50.74269" lon="3.06154">
        <ele>22</ele>
        <time>2018-01-04T09:57:32Z</time>
      </trkpt>
      <trkpt lat="50.74271" lon="3.0615">
        <ele>22</ele>
        <time>2018-01-04T09:58:32Z</time>
      </trkpt>
      <trkpt lat="50.74275" lon="3.06144">
        <ele>22</ele>
        <time>2018-01-04T09:59:32Z</time>
      </trkpt>
      <trkpt lat="50.74275" lon="3.06144">
        <ele>22</ele>
        <time>2018-01-04T10:00:32Z</time>
      </trkpt>
      <trkpt lat="50.74276" lon="3.06146">
        <ele>22</ele>
        <time>2018-01-04T10:01:32Z</time>
      </trkpt>
      <trkpt lat="50.74277" lon="3.06147">
        <ele>22</ele>
        <time>2018-01-04T10:02:32Z</time>
      </trkpt>
      <trkpt lat="50.74278" lon="3.06147">
        <ele>22</ele>
        <time>2018-01-04T10:03:32Z</time>
      </trkpt>
      <trkpt lat="50.74279" lon="3.06148">
        <ele>22</ele>
        <time>2018-01-04T10:04:32Z</time>
      </trkpt>
      <trkpt lat="50.7428" lon="3.06148">
        <ele>22</ele>
        <time>2018-01-04T10:05:32Z</time>
      </trkpt>
      <trkpt lat="50.74281" lon="3.06148">
        <ele>22</ele>
        <time>2018-01-04T10:06:32Z</time>
      </trkpt>
      <trkpt lat="50.74284" lon="3.06147">
        <ele>22</ele>
        <time>2018-01-04T10:07:32Z</time>
      </trkpt>
      <trkpt lat="50.74285" lon="3.06147">
        <ele>22</ele>
        <time>2018-01-04T10:08:32Z</time>
      </trkpt>
      <trkpt lat="50.74288" lon="3.06145">
        <ele>22</ele>
        <time>2018-01-04T10:09:32Z</time>
      </trkpt>
      <trkpt lat="50.74291" lon="3.06144">
        <ele>23</ele>
        <time>2018-01-04T10:10:32Z</time>
      </trkpt>
      <trkpt lat="50.74293" lon="3.06143">
        <ele>23</ele>
        <time>2018-01-04T10:11:32Z</time>
      </trkpt>
      <trkpt lat="50.74299" lon="3.06139">
        <ele>23</ele>
        <time>2018-01-04T10:12:32Z</time>
      </trkpt>
      <trkpt lat="50.743" lon="3.06137">
        <ele>23</ele>
        <time>2018-01-04T10:13:32Z</time>
      </trkpt>
      <trkpt lat="50.74302" lon="3.06135">
        <ele>23</ele>
        <time>2018-01-04T10:14:32Z</time>
      </trkpt>
      <trkpt lat="50.74304" lon="3.06129">
        <ele>23</ele>
        <time>2018-01-04T10:15:32Z</time>
      </trkpt>
      <trkpt lat="50.74313" lon="3.06126">
        <ele>23</ele>
        <time>2018-01-04T10:16:32Z</time>
      </trkpt>
      <trkpt lat="50.7432" lon="3.06123">
        <ele>23</ele>
        <time>2018-01-04T10:17:32Z</time>
      </trkpt>
      <trkpt lat="50.74326" lon="3.06121">
        <ele>24</ele>
        <time>2018-01-04T10:18:32Z</time>
      </trkpt>
      <trkpt lat="50.74337" lon="3.06115">
        <ele>24</ele>
        <time>2018-01-04T10:19:32Z</time>
      </trkpt>
      <trkpt lat="50.74363" lon="3.06101">
        <ele>23</ele>
        <time>2018-01-04T10:20:32Z</time>
      </trkpt>
      <trkpt lat="50.74381" lon="3.06089">
        <ele>23</ele>
        <time>2018-01-04T10:21:32Z</time>
      </trkpt>
      <trkpt lat="50.74396" lon="3.06079">
        <ele>22</ele>
        <time>2018-01-04T10:22:32Z</time>
      </trkpt>
      <trkpt lat="50.74421" lon="3.06064">
        <ele>22</ele>
        <time>2018-01-04T10:23:32Z</time>
      </trkpt>
      <trkpt lat="50.74424" lon="3.06061">
        <ele>22</ele>
        <time>2018-01-04T10:24:32Z</time>
      </trkpt>
      <trkpt lat="50.74447" lon="3.06046">
        <ele>22</ele>
        <time>2018-01-04T10:25:32Z</time>
      </trkpt>
      <trkpt lat="50.74453" lon="3.06042">
        <ele>22</ele>
        <time>2018-01-04T10:26:32Z</time>
      </trkpt>
      <trkpt lat="50.74461" lon="3.06037">
        <ele>22</ele>
        <time>2018-01-04T10:27:32Z</time>
      </trkpt>
      <trkpt lat="50.74466" lon="3.06033">
        <ele>22</ele>
        <time>2018-01-04T10:28:32Z</time>
      </trkpt>
      <trkpt lat="50.74466" lon="3.06033">
        <ele>22</ele>
        <time>2018-01-04T10:29:32Z</time>
      </trkpt>
      <trkpt lat="50.74474" lon="3.06026">
        <ele>22</ele>
        <time>2018-01-04T10:30:32Z</time>
      </trkpt>
      <trkpt lat="50.74494" lon="3.06011">
        <ele>22</ele>
        <time>2018-01-04T10:31:32Z</time>
      </trkpt>
      <trkpt lat="50.745" lon="3.06006">
        <ele>22</ele>
        <time>2018-01-04T10:32:32Z</time>
      </trkpt>
      <trkpt lat="50.74527" lon="3.05986">
        <ele>22</ele>
        <time>2018-01-04T10:33:32Z</time>
      </trkpt>
      <trkpt lat="50.74548" lon="3.05969">
        <ele>21</ele>
        <time>2018-01-04T10:34:32Z</time>
      </trkpt>
      <trkpt lat="50.74563" lon="3.05957">
        <ele>21</ele>
        <time>2018-01-04T10:35:32Z</time>
      </trkpt>
      <trkpt lat="50.7459" lon="3.05937">
        <ele>21</ele>
        <time>2018-01-04T10:36:32Z</time>
      </trkpt>
      <trkpt lat="50.74602" lon="3.05928">
        <ele>22</ele>
        <time>2018-01-04T10:37:32Z</time>
      </trkpt>
      <trkpt lat="50.74613" lon="3.05918">
        <ele>22</ele>
        <time>2018-01-04T10:38:32Z</time>
      </trkpt>
      <trkpt lat="50.74624" lon="3.05908">
        <ele>22</ele>
        <time>2018-01-04T10:39:32Z</time>
      </trkpt>
      <trkpt lat="50.74631" lon="3.05901">
        <ele>22</ele>
        <time>2018-01-04T10:40:32Z</time>
      </trkpt>
      <trkpt lat="50.74634" lon="3.05897">
        <ele>22</ele>
        <time>2018-01-04T10:41:32Z</time>
      </trkpt>
      <trkpt lat="50.74643" lon="3.05887">
        <ele>22</ele>
        <time>2018-01-04T10:42:32Z</time>
      </trkpt>
      <trkpt lat="50.74666" lon="3.05848">
        <ele>23</ele>
        <time>2018-01-04T10:43:32Z</time>
      </trkpt>
      <trkpt lat="50.74679" lon="3.05833">
        <ele>23</ele>
        <time>2018-01-04T10:44:32Z</time>
      </trkpt>
      <trkpt lat="50.74696" lon="3.05814">
        <ele>23</ele>
        <time>2018-01-04T10:45:32Z</time>
      </trkpt>
      <trkpt lat="50.74722" lon="3.05786">
        <ele>22</ele>
        <time>2018-01-04T10:46:32Z</time>
      </trkpt>
      <trkpt lat="50.74733" lon="3.05775">
        <ele>22</ele>
        <time>2018-01-04T10:47:32Z</time>
      </trkpt>
      <trkpt lat="50.74757" lon="3.05751">
        <ele>22</ele>
        <time>2018-01-04T10:48:32Z</time>
      </trkpt>
      <trkpt lat="50.74783" lon="3.05727">
        <ele>22</ele>
        <time>2018-01-04T10:49:32Z</time>
      </trkpt>
      <trkpt lat="50.74797" lon="3.05717">
        <ele>23</ele>
        <time>2018-01-04T10:50:32Z</time>
      </trkpt>
      <trkpt lat="50.74808" lon="3.05709">
        <ele>23</ele>
        <time>2018-01-04T10:51:32Z</time>
      </trkpt>
      <trkpt lat="50.74817" lon="3.05702">
        <ele>23</ele>
        <time>2018-01-04T10:52:32Z</time>
      </trkpt>
      <trkpt lat="50.74829" lon="3.05694">
        <ele>23</ele>
        <time>2018-01-04T10:53:32Z</time>
      </trkpt>
      <trkpt lat="50.74839" lon="3.05687">
        <ele>23</ele>
        <time>2018-01-04T10:54:32Z</time>
      </trkpt>
      <trkpt lat="50.74843" lon="3.05684">
        <ele>23</ele>
        <time>2018-01-04T10:55:32Z</time>
      </trkpt>
      <trkpt lat="50.74848" lon="3.05681">
        <ele>23</ele>
        <time>2018-01-04T10:56:32Z</time>
      </trkpt>
      <trkpt lat="50.74856" lon="3.05677">
        <ele>23</ele>
        <time>2018-01-04T10:57:32Z</time>
      </trkpt>
      <trkpt lat="50.74872" lon="3.05668">
        <ele>23</ele>
        <time>2018-01-04T10:58:32Z</time>
      </trkpt>
      <trkpt lat="50.74904" lon="3.05652">
        <ele>24</ele>
        <time>2018-01-04T10:59:32Z</time>
      </trkpt>
      <trkpt lat="50.74919" lon="3.05644">
        <ele>24</ele>
        <time>2018-01-04T11:00:32Z</time>
      </trkpt>
      <trkpt lat="50.74931" lon="3.05637">
        <ele>24</ele>
        <time>2018-01-04T11:01:32Z</time>
      </trkpt>
      <trkpt lat="50.74945" lon="3.05628">
        <ele>24</ele>
        <time>2018-01-04T11:02:32Z</time>
      </trkpt>
      <trkpt lat="50.7496" lon="3.05619">
        <ele>24</ele>
        <time>2018-01-04T11:03:32Z</time>
      </trkpt>
      <trkpt lat="50.74981" lon="3.05607">
        <ele>24</ele>
        <time>2018-01-04T11:04:32Z</time>
      </trkpt>
      <trkpt lat="50.75003" lon="3.05591">
        <ele>24</ele>
        <time>2018-01-04T11:05:32Z</time>
      </trkpt>
      <trkpt lat="50.75015" lon="3.05582">
        <ele>23</ele>
        <time>2018-01-04T11:06:32Z</time>
      </trkpt>
      <trkpt lat="50.75024" lon="3.05575">
        <ele>23</ele>
        <time>2018-01-04T11:07:32Z</time>
      </trkpt>
      <trkpt lat="50.75028" lon="3.05572">
        <ele>23</ele>
        <time>2018-01-04T11:08:32Z</time>
      </trkpt>
      <trkpt lat="50.75034" lon="3.05566">
        <ele>23</ele>
        <time>2018-01-04T11:09:32Z</time>
      </trkpt>
      <trkpt lat="50.75038" lon="3.05562">
        <ele>22</ele>
        <time>2018-01-04T11:10:32Z</time>
      </trkpt>
      <trkpt lat="50.75052" lon="3.05548">
        <ele>22</ele>
        <time>2018-01-04T11:11:32Z</time>
      </trkpt>
      <trkpt lat="50.75057" lon="3.05542">
        <ele>21</ele>
        <time>2018-01-04T11:12:32Z</time>
      </trkpt>
      <trkpt lat="50.75062" lon="3.05537">
        <ele>21</ele>
        <time>2018-01-04T11:13:32Z</time>
      </trkpt>
      <trkpt lat="50.7507" lon="3.05527">
        <ele>21</ele>
        <time>2018-01-04T11:14:32Z</time>
      </trkpt>
      <trkpt lat="50.75077" lon="3.05518">
        <ele>20</ele>
        <time>2018-01-04T11:15:32Z</time>
      </trkpt>
      <trkpt lat="50.75083" lon="3.0551">
        <ele>20</ele>
        <time>2018-01-04T11:16:32Z</time>
      </trkpt>
      <trkpt lat="50.75093" lon="3.05496">
        <ele>20</ele>
        <time>2018-01-04T11:17:32Z</time>
      </trkpt>
      <trkpt lat="50.75112" lon="3.05466">
        <ele>20</ele>
        <time>2018-01-04T11:18:32Z</time>
      </trkpt>
      <trkpt lat="50.75125" lon="3.05445">
        <ele>21</ele>
        <time>2018-01-04T11:19:32Z</time>
      </trkpt>
      <trkpt lat="50.75132" lon="3.05432">
        <ele>21</ele>
        <time>2018-01-04T11:20:32Z</time>
      </trkpt>
      <trkpt lat="50.75143" lon="3.05417">
        <ele>21</ele>
        <time>2018-01-04T11:21:32Z</time>
      </trkpt>
      <trkpt lat="50.75148" lon="3.05409">
        <ele>21</ele>
        <time>2018-01-04T11:22:32Z</time>
      </trkpt>
      <trkpt lat="50.7515" lon="3.05407">
        <ele>21</ele>
        <time>2018-01-04T11:23:32Z</time>
      </trkpt>
      <trkpt lat="50.75159" lon="3.05394">
        <ele>21</ele>
        <time>2018-01-04T11:24:32Z</time>
      </trkpt>
      <trkpt lat="50.75175" lon="3.05374">
        <ele>22</ele>
        <time>2018-01-04T11:25:32Z</time>
      </trkpt>
      <trkpt lat="50.75182" lon="3.05367">
        <ele>22</ele>
        <time>2018-01-04T11:26:32Z</time>
      </trkpt>
      <trkpt lat="50.75192" lon="3.05356">
        <ele>22</ele>
        <time>2018-01-04T11:27:32Z</time>
      </trkpt>
      <trkpt lat="50.75196" lon="3.05353">
        <ele>22</ele>
        <time>2018-01-04T11:28:32Z</time>
      </trkpt>
      <trkpt lat="50.75204" lon="3.05344">
        <ele>22</ele>
        <time>2018-01-04T11:29:32Z</time>
      </trkpt>
      <trkpt lat="50.75209" lon="3.0534">
        <ele>22</ele>
        <time>2018-01-04T11:30:32Z</time>
      </trkpt>
      <trkpt lat="50.75216" lon="3.05335">
        <ele>23</ele>
        <time>2018-01-04T11:31:32Z</time>
      </trkpt>
      <trkpt lat="50.75231" lon="3.05322">
        <ele>23</ele>
        <time>2018-01-04T11:32:32Z</time>
      </trkpt>
      <trkpt lat="50.75238" lon="3.05318">
        <ele>23</ele>
        <time>2018-01-04T11:33:32Z</time>
      </trkpt>
      <trkpt lat="50.75247" lon="3.05311">
        <ele>23</ele>
        <time>2018-01-04T11:34:32Z</time>
      </trkpt>
      <trkpt lat="50.75257" lon="3.05305">
        <ele>23</ele>
        <time>2018-01-04T11:35:32Z</time>
      </trkpt>
      <trkpt lat="50.75258" lon="3.05304">
        <ele>23</ele>
        <time>2018-01-04T11:36:32Z</time>
      </trkpt>
      <trkpt lat="50.75261" lon="3.05303">
        <ele>23</ele>
        <time>2018-01-04T11:37:32Z</time>
      </trkpt>
      <trkpt lat="50.75265" lon="3.05301">
        <ele>23</ele>
        <time>2018-01-04T11:38:32Z</time>
      </trkpt>
      <trkpt lat="50.75269" lon="3.05299">
        <ele>23</ele>
        <time>2018-01-04T11:39:32Z</time>
      </trkpt>
      <trkpt lat="50.75273" lon="3.05297">
        <ele>23</ele>
        <time>2018-01-04T11:40:32Z</time>
      </trkpt>
      <trkpt lat="50.75281" lon="3.05295">
        <ele>23</ele>
        <time>2018-01-04T11:41:32Z</time>
      </trkpt>
      <trkpt lat="50.75288" lon="3.05296">
        <ele>23</ele>
        <time>2018-01-04T11:42:32Z</time>
      </trkpt>
      <trkpt lat="50.75288" lon="3.05296">
        <ele>23</ele>
        <time>2018-01-04T11:43:32Z</time>
      </trkpt>
      <trkpt lat="50.7529" lon="3.05298">
        <ele>23</ele>
        <time>2018-01-04T11:44:32Z</time>
      </trkpt>
      <trkpt lat="50.75291" lon="3.053">
        <ele>23</ele>
        <time>2018-01-04T11:45:32Z</time>
      </trkpt>
      <trkpt lat="50.75295" lon="3.05303">
        <ele>23</ele>
        <time>2018-01-04T11:46:32Z</time>
      </trkpt>
      <trkpt lat="50.753" lon="3.05304">
        <ele>23</ele>
        <time>2018-01-04T11:47:32Z</time>
      </trkpt>
      <trkpt lat="50.75302" lon="3.05304">
        <ele>23</ele>
        <time>2018-01-04T11:48:32Z</time>
      </trkpt>
      <trkpt lat="50.75309" lon="3.05303">
        <ele>23</ele>
        <time>2018-01-04T11:49:32Z</time>
      </trkpt>
      <trkpt lat="50.75315" lon="3.05299">
        <ele>23</ele>
        <time>2018-01-04T11:50:32Z</time>
      </trkpt>
      <trkpt lat="50.75321" lon="3.05293">
        <ele>23</ele>
        <time>2018-01-04T11:51:32Z</time>
      </trkpt>
      <trkpt lat="50.75323" lon="3.0529">
        <ele>23</ele>
        <time>2018-01-04T11:52:32Z</time>
      </trkpt>
      <trkpt lat="50.75324" lon="3.05285">
        <ele>23</ele>
        <time>2018-01-04T11:53:32Z</time>
      </trkpt>
      <trkpt lat="50.75326" lon="3.05274">
        <ele>23</ele>
        <time>2018-01-04T11:54:32Z</time>
      </trkpt>
      <trkpt lat="50.75326" lon="3.05263">
        <ele>23</ele>
        <time>2018-01-04T11:55:32Z</time>
      </trkpt>
      <trkpt lat="50.75326" lon="3.05256">
        <ele>23</ele>
        <time>2018-01-04T11:56:32Z</time>
      </trkpt>
      <trkpt lat="50.75325" lon="3.0525">
        <ele>23</ele>
        <time>2018-01-04T11:57:32Z</time>
      </trkpt>
      <trkpt lat="50.75324" lon="3.05246">
        <ele>23</ele>
        <time>2018-01-04T11:58:32Z</time>
      </trkpt>
      <trkpt lat="50.75317" lon="3.05233">
        <ele>23</ele>
        <time>2018-01-04T11:59:32Z</time>
      </trkpt>
      <trkpt lat="50.75316" lon="3.05232">
        <ele>23</ele>
        <time>2018-01-04T12:00:32Z</time>
      </trkpt>
      <trkpt lat="50.75314" lon="3.05229">
        <ele>23</ele>
        <time>2018-01-04T12:01:32Z</time>
      </trkpt>
      <trkpt lat="50.75311" lon="3.05227">
        <ele>23</ele>
        <time>2018-01-04T12:02:32Z</time>
      </trkpt>
      <trkpt lat="50.75307" lon="3.05225">
        <ele>23</ele>
        <time>2018-01-04T12:03:32Z</time>
      </trkpt>
      <trkpt lat="50.75304" lon="3.05225">
        <ele>23</ele>
        <time>2018-01-04T12:04:32Z</time>
      </trkpt>
      <trkpt lat="50.75294" lon="3.0521">
        <ele>23</ele>
        <time>2018-01-04T12:05:32Z</time>
      </trkpt>
      <trkpt lat="50.75292" lon="3.05206">
        <ele>23</ele>
        <time>2018-01-04T12:06:32Z</time>
      </trkpt>
      <trkpt lat="50.75289" lon="3.05201">
        <ele>23</ele>
        <time>2018-01-04T12:07:32Z</time>
      </trkpt>
      <trkpt lat="50.75287" lon="3.05195">
        <ele>23</ele>
        <time>2018-01-04T12:08:32Z</time>
      </trkpt>
      <trkpt lat="50.75284" lon="3.05188">
        <ele>23</ele>
        <time>2018-01-04T12:09:32Z</time>
      </trkpt>
      <trkpt lat="50.75281" lon="3.05181">
        <ele>23</ele>
        <time>2018-01-04T12:10:32Z</time>
      </trkpt>
      <trkpt lat="50.75279" lon="3.05175">
        <ele>23</ele>
        <time>2018-01-04T12:11:32Z</time>
      </trkpt>
      <trkpt lat="50.75275" lon="3.05158">
        <ele>23</ele>
        <time>2018-01-04T12:12:32Z</time>
      </trkpt>
      <trkpt lat="50.75262" lon="3.05109">
        <ele>23</ele>
        <time>2018-01-04T12:13:32Z</time>
      </trkpt>
      <trkpt lat="50.75252" lon="3.05073">
        <ele>22</ele>
        <time>2018-01-04T12:14:32Z</time>
      </trkpt>
      <trkpt lat="50.75248" lon="3.05058">
        <ele>22</ele>
        <time>2018-01-04T12:15:32Z</time>
      </trkpt>
      <trkpt lat="50.75232" lon="3.04998">
        <ele>22</ele>
        <time>2018-01-04T12:16:32Z</time>
      </trkpt>
      <trkpt lat="50.75231" lon="3.04995">
        <ele>21</ele>
        <time>2018-01-04T12:17:32Z</time>
      </trkpt>
      <trkpt lat="50.75226" lon="3.04978">
        <ele>21</ele>
        <time>2018-01-04T12:18:32Z</time>
      </trkpt>
      <trkpt lat="50.75222" lon="3.0496">
        <ele>21</ele>
        <time>2018-01-04T12:19:32Z</time>
      </trkpt>
      <trkpt lat="50.75217" lon="3.04942">
        <ele>21</ele>
        <time>2018-01-04T12:20:32Z</time>
      </trkpt>
      <trkpt lat="50.75212" lon="3.04925">
        <ele>20</ele>
        <time>2018-01-04T12:21:32Z</time>
      </trkpt>
      <trkpt lat="50.75208" lon="3.04908">
        <ele>20</ele>
        <time>2018-01-04T12:22:32Z</time>
      </trkpt>
      <trkpt lat="50.75204" lon="3.0489">
        <ele>20</ele>
        <time>2018-01-04T12:23:32Z</time>
      </trkpt>
      <trkpt lat="50.75199" lon="3.04873">
        <ele>20</ele>
        <time>2018-01-04T12:24:32Z</time>
      </trkpt>
      <trkpt lat="50.75195" lon="3.04855">
        <ele>20</ele>
        <time>2018-01-04T12:25:32Z</time>
      </trkpt>
      <trkpt lat="50.75191" lon="3.04838">
        <ele>20</ele>
        <time>2018-01-04T12:26:32Z</time>
      </trkpt>
      <trkpt lat="50.75187" lon="3.0482">
        <ele>19</ele>
        <time>2018-01-04T12:27:32Z</time>
      </trkpt>
      <trkpt lat="50.75183" lon="3.04802">
        <ele>19</ele>
        <time>2018-01-04T12:28:32Z</time>
      </trkpt>
      <trkpt lat="50.75179" lon="3.04784">
        <ele>19</ele>
        <time>2018-01-04T12:29:32Z</time>
      </trkpt>
      <trkpt lat="50.75175" lon="3.04766">
        <ele>18</ele>
        <time>2018-01-04T12:30:32Z</time>
      </trkpt>
      <trkpt lat="50.75171" lon="3.04748">
        <ele>18</ele>
        <time>2018-01-04T12:31:32Z</time>
      </trkpt>
      <trkpt lat="50.75167" lon="3.0473">
        <ele>18</ele>
        <time>2018-01-04T12:32:32Z</time>
      </trkpt>
      <trkpt lat="50.75163" lon="3.04712">
        <ele>18</ele>
        <time>2018-01-04T12:33:32Z</time>
      </trkpt>
      <trkpt lat="50.7516" lon="3.04694">
        <ele>18</ele>
        <time>2018-01-04T12:34:32Z</time>
      </trkpt>
      <trkpt lat="50.75156" lon="3.04676">
        <ele>18</ele>
        <time>2018-01-04T12:35:32Z</time>
      </trkpt>
      <trkpt lat="50.75153" lon="3.04658">
        <ele>18</ele>
        <time>2018-01-04T12:36:32Z</time>
      </trkpt>
      <trkpt lat="50.75149" lon="3.0464">
        <ele>18</ele>
        <time>2018-01-04T12:37:32Z</time>
      </trkpt>
      <trkpt lat="50.75146" lon="3.04622">
        <ele>17</ele>
        <time>2018-01-04T12:38:32Z</time>
      </trkpt>
      <trkpt lat="50.75143" lon="3.04604">
        <ele>17</ele>
        <time>2018-01-04T12:39:32Z</time>
      </trkpt>
      <trkpt lat="50.7514" lon="3.04585">
        <ele>17</ele>
        <time>2018-01-04T12:40:32Z</time>
      </trkpt>
      <trkpt lat="50.75137" lon="3.04567">
        <ele>17</ele>
        <time>2018-01-04T12:41:32Z</time>
      </trkpt>
      <trkpt lat="50.75134" lon="3.04548">
        <ele>17</ele>
        <time>2018-01-04T12:42:32Z</time>
      </trkpt>
      <trkpt lat="50.75131" lon="3.0453">
        <ele>17</ele>
        <time>2018-01-04T12:43:32Z</time>
      </trkpt>
      <trkpt lat="50.75128" lon="3.04512">
        <ele>17</ele>
        <time>2018-01-04T12:44:32Z</time>
      </trkpt>
      <trkpt lat="50.75125" lon="3.04495">
        <ele>17</ele>
        <time>2018-01-04T12:45:32Z</time>
      </trkpt>
      <trkpt lat="50.75123" lon="3.04477">
        <ele>17</ele>
        <time>2018-01-04T12:46:32Z</time>
      </trkpt>
      <trkpt lat="50.7512" lon="3.04459">
        <ele>17</ele>
        <time>2018-01-04T12:47:32Z</time>
      </trkpt>
      <trkpt lat="50.75118" lon="3.04441">
        <ele>17</ele>
        <time>2018-01-04T12:48:32Z</time>
      </trkpt>
      <trkpt lat="50.75115" lon="3.04423">
        <ele>17</ele>
        <time>2018-01-04T12:49:32Z</time>
      </trkpt>
      <trkpt lat="50.75113" lon="3.04406">
        <ele>17</ele>
        <time>2018-01-04T12:50:32Z</time>
      </trkpt>
      <trkpt lat="50.75111" lon="3.04388">
        <ele>17</ele>
        <time>2018-01-04T12:51:32Z</time>
      </trkpt>
      <trkpt lat="50.75108" lon="3.0437">
        <ele>17</ele>
        <time>2018-01-04T12:52:32Z</time>
      </trkpt>
      <trkpt lat="50.75107" lon="3.04353">
        <ele>17</ele>
        <time>2018-01-04T12:53:32Z</time>
      </trkpt>
      <trkpt lat="50.75105" lon="3.04336">
        <ele>17</ele>
        <time>2018-01-04T12:54:32Z</time>
      </trkpt>
      <trkpt lat="50.75103" lon="3.04318">
        <ele>17</ele>
        <time>2018-01-04T12:55:32Z</time>
      </trkpt>
      <trkpt lat="50.75101" lon="3.04302">
        <ele>17</ele>
        <time>2018-01-04T12:56:32Z</time>
      </trkpt>
      <trkpt lat="50.75099" lon="3.04284">
        <ele>18</ele>
        <time>2018-01-04T12:57:32Z</time>
      </trkpt>
      <trkpt lat="50.75098" lon="3.04267">
        <ele>18</ele>
        <time>2018-01-04T12:58:32Z</time>
      </trkpt>
      <trkpt lat="50.75096" lon="3.0425">
        <ele>18</ele>
        <time>2018-01-04T12:59:32Z</time>
      </trkpt>
      <trkpt lat="50.75095" lon="3.04232">
        <ele>18</ele>
        <time>2018-01-04T13:00:32Z</time>
      </trkpt>
      <trkpt lat="50.75093" lon="3.04215">
        <ele>18</ele>
        <time>2018-01-04T13:01:32Z</time>
      </trkpt>
      <trkpt lat="50.75092" lon="3.04197">
        <ele>18</ele>
        <time>2018-01-04T13:02:32Z</time>
      </trkpt>
      <trkpt lat="50.75091" lon="3.0418">
        <ele>18</ele>
        <time>2018-01-04T13:03:32Z</time>
      </trkpt>
      <trkpt lat="50.7509" lon="3.04162">
        <ele>18</ele>
        <time>2018-01-04T13:04:32Z</time>
      </trkpt>
      <trkpt lat="50.75088" lon="3.04144">
        <ele>18</ele>
        <time>2018-01-04T13:05:32Z</time>
      </trkpt>
      <trkpt lat="50.75087" lon="3.04126">
        <ele>18</ele>
        <time>2018-01-04T13:06:32Z</time>
      </trkpt>
      <trkpt lat="50.75086" lon="3.04108">
        <ele>19</ele>
        <time>2018-01-04T13:07:32Z</time>
      </trkpt>
      <trkpt lat="50.75086" lon="3.0409">
        <ele>19</ele>
        <time>2018-01-04T13:08:32Z</time>
      </trkpt>
      <trkpt lat="50.75085" lon="3.04072">
        <ele>19</ele>
        <time>2018-01-04T13:09:32Z</time>
      </trkpt>
      <trkpt lat="50.75084" lon="3.04055">
        <ele>19</ele>
        <time>2018-01-04T13:10:32Z</time>
      </trkpt>
      <trkpt lat="50.75083" lon="3.04037">
        <ele>19</ele>
        <time>2018-01-04T13:11:32Z</time>
      </trkpt>
      <trkpt lat="50.75083" lon="3.0402">
        <ele>19</ele>
        <time>2018-01-04T13:12:32Z</time>
      </trkpt>
      <trkpt lat="50.75082" lon="3.04002">
        <ele>19</ele>
        <time>2018-01-04T13:13:32Z</time>
      </trkpt>
      <trkpt lat="50.75081" lon="3.03985">
        <ele>19</ele>
        <time>2018-01-04T13:14:32Z</time>
      </trkpt>
      <trkpt lat="50.75081" lon="3.03968">
        <ele>19</ele>
        <time>2018-01-04T13:15:32Z</time>
      </trkpt>
      <trkpt lat="50.7508" lon="3.03951">
        <ele>18</ele>
        <time>2018-01-04T13:16:32Z</time>
      </trkpt>
      <trkpt lat="50.7508" lon="3.03935">
        <ele>18</ele>
        <time>2018-01-04T13:17:32Z</time>
      </trkpt>
      <trkpt lat="50.75079" lon="3.03918">
        <ele>18</ele>
        <time>2018-01-04T13:18:32Z</time>
      </trkpt>
      <trkpt lat="50.75079" lon="3.03914">
        <ele>18</ele>
        <time>2018-01-04T13:19:32Z</time>
      </trkpt>
      <trkpt lat="50.7508" lon="3.0389">
        <ele>18</ele>
        <time>2018-01-04T13:20:32Z</time>
      </trkpt>
      <trkpt lat="50.7508" lon="3.03872">
        <ele>17</ele>
        <time>2018-01-04T13:21:32Z</time>
      </trkpt>
      <trkpt lat="50.75081" lon="3.03854">
        <ele>17</ele>
        <time>2018-01-04T13:22:32Z</time>
      </trkpt>
      <trkpt lat="50.75081" lon="3.03836">
        <ele>17</ele>
        <time>2018-01-04T13:23:32Z</time>
      </trkpt>
      <trkpt lat="50.75081" lon="3.03818">
        <ele>17</ele>
        <time>2018-01-04T13:24:32Z</time>
      </trkpt>
      <trkpt lat="50.75082" lon="3.038">
        <ele>17</ele>
        <time>2018-01-04T13:25:32Z</time>
      </trkpt>
      <trkpt lat="50.75082" lon="3.03782">
        <ele>18</ele>
        <time>2018-01-04T13:26:32Z</time>
      </trkpt>
      <trkpt lat="50.75082" lon="3.03764">
        <ele>18</ele>
        <time>2018-01-04T13:27:32Z</time>
      </trkpt>
      <trkpt lat="50.75082" lon="3.03761">
        <ele>18</ele>
        <time>2018-01-04T13:28:32Z</time>
      </trkpt>
      <trkpt lat="50.75082" lon="3.03746">
        <ele>18</ele>
        <time>2018-01-04T13:29:32Z</time>
      </trkpt>
      <trkpt lat="50.75082" lon="3.0373">
        <ele>18</ele>
        <time>2018-01-04T13:30:32Z</time>
      </trkpt>
      <trkpt lat="50.75082" lon="3.03714">
        <ele>18</ele>
        <time>2018-01-04T13:31:32Z</time>
      </trkpt>
      <trkpt lat="50.75082" lon="3.03698">
        <ele>18</ele>
        <time>2018-01-04T13:32:32Z</time>
      </trkpt>
      <trkpt lat="50.75082" lon="3.03683">
        <ele>18</ele>
        <time>2018-01-04T13:33:32Z</time>
      </trkpt>
      <trkpt lat="50.75082" lon="3.03668">
        <ele>18</ele>
        <time>2018-01-04T13:34:32Z</time>
      </trkpt>
      <trkpt lat="50.75081" lon="3.03654">
        <ele>18</ele>
        <time>2018-01-04T13:35:32Z</time>
      </trkpt>
      <trkpt lat="50.75081" lon="3.03641">
        <ele>18</ele>
        <time>2018-01-04T13:36:32Z</time>
      </trkpt>
      <trkpt lat="50.75081" lon="3.03628">
        <ele>18</ele>
        <time>2018-01-04T13:37:32Z</time>
      </trkpt>
      <trkpt lat="50.75079" lon="3.03611">
        <ele>18</ele>
        <time>2018-01-04T13:38:32Z</time>
      </trkpt>
      <trkpt lat="50.7508" lon="3.03599">
        <ele>18</ele>
        <time>2018-01-04T13:39:32Z</time>
      </trkpt>
      <trkpt lat="50.75081" lon="3.03582">
        <ele>18</ele>
        <time>2018-01-04T13:40:32Z</time>
      </trkpt>
      <trkpt lat="50.75082" lon="3.03565">
        <ele>18</ele>
        <time>2018-01-04T13:41:32Z</time>
      </trkpt>
      <trkpt lat="50.75082" lon="3.03548">
        <ele>18</ele>
        <time>2018-01-04T13:42:32Z</time>
      </trkpt>
      <trkpt lat="50.75083" lon="3.03532">
        <ele>18</ele>
        <time>2018-01-04T13:43:32Z</time>
      </trkpt>
      <trkpt lat="50.75084" lon="3.03515">
        <ele>18</ele>
        <time>2018-01-04T13:44:32Z</time>
      </trkpt>
      <trkpt lat="50.75085" lon="3.03498">
        <ele>18</ele>
        <time>2018-01-04T13:45:32Z</time>
      </trkpt>
      <trkpt lat="50.75087" lon="3.03481">
        <ele>18</ele>
        <time>2018-01-04T13:46:32Z</time>
      </trkpt>
      <trkpt lat="50.75088" lon="3.03464">
        <ele>18</ele>
        <time>2018-01-04T13:47:32Z</time>
      </trkpt>
      <trkpt lat="50.75089" lon="3.03447">
        <ele>17</ele>
        <time>2018-01-04T13:48:32Z</time>
      </trkpt>
      <trkpt lat="50.75091" lon="3.03429">
        <ele>17</ele>
        <time>2018-01-04T13:49:32Z</time>
      </trkpt>
      <trkpt lat="50.75093" lon="3.03412">
        <ele>17</ele>
        <time>2018-01-04T13:50:32Z</time>
      </trkpt>
      <trkpt lat="50.75095" lon="3.03395">
        <ele>17</ele>
        <time>2018-01-04T13:51:32Z</time>
      </trkpt>
      <trkpt lat="50.75097" lon="3.03378">
        <ele>17</ele>
        <time>2018-01-04T13:52:32Z</time>
      </trkpt>
      <trkpt lat="50.751" lon="3.03361">
        <ele>17</ele>
        <time>2018-01-04T13:53:32Z</time>
      </trkpt>
      <trkpt lat="50.75103" lon="3.03344">
        <ele>17</ele>
        <time>2018-01-04T13:54:32Z</time>
      </trkpt>
      <trkpt lat="50.75106" lon="3.03328">
        <ele>17</ele>
        <time>2018-01-04T13:55:32Z</time>
      </trkpt>
      <trkpt lat="50.75109" lon="3.03311">
        <ele>17</ele>
        <time>2018-01-04T13:56:32Z</time>
      </trkpt>
      <trkpt lat="50.75113" lon="3.03295">
        <ele>17</ele>
        <time>2018-01-04T13:57:32Z</time>
      </trkpt>
      <trkpt lat="50.75117" lon="3.03278">
        <ele>17</ele>
        <time>2018-01-04T13:58:32Z</time>
      </trkpt>
      <trkpt lat="50.75121" lon="3.03262">
        <ele>17</ele>
        <time>2018-01-04T13:59:32Z</time>
      </trkpt>
      <trkpt lat="50.75126" lon="3.03246">
        <ele>16</ele>
        <time>2018-01-04T14:00:32Z</time>
      </trkpt>
      <trkpt lat="50.7513" lon="3.0323">
        <ele>16</ele>
        <time>2018-01-04T14:01:32Z</time>
      </trkpt>
      <trkpt lat="50.75135" lon="3.03215">
        <ele>16</ele>
        <time>2018-01-04T14:02:32Z</time>
      </trkpt>
      <trkpt lat="50.7514" lon="3.03199">
        <ele>16</ele>
        <time>2018-01-04T14:03:32Z</time>
      </trkpt>
      <trkpt lat="50.75146" lon="3.03184">
        <ele>16</ele>
        <time>2018-01-04T14:04:32Z</time>
      </trkpt>
      <trkpt lat="50.75151" lon="3.0317">
        <ele>15</ele>
        <time>2018-01-04T14:05:32Z</time>
      </trkpt>
      <trkpt lat="50.75157" lon="3.03156">
        <ele>15</ele>
        <time>2018-01-04T14:06:32Z</time>
      </trkpt>
      <trkpt lat="50.75163" lon="3.03141">
        <ele>15</ele>
        <time>2018-01-04T14:07:32Z</time>
      </trkpt>
      <trkpt lat="50.75169" lon="3.03128">
        <ele>15</ele>
        <time>2018-01-04T14:08:32Z</time>
      </trkpt>
      <trkpt lat="50.75176" lon="3.03114">
        <ele>16</ele>
        <time>2018-01-04T14:09:32Z</time>
      </trkpt>
      <trkpt lat="50.75183" lon="3.031">
        <ele>16</ele>
        <time>2018-01-04T14:10:32Z</time>
      </trkpt>
      <trkpt lat="50.75189" lon="3.03087">
        <ele>16</ele>
        <time>2018-01-04T14:11:32Z</time>
      </trkpt>
      <trkpt lat="50.75196" lon="3.03074">
        <ele>16</ele>
        <time>2018-01-04T14:12:32Z</time>
      </trkpt>
      <trkpt lat="50.75204" lon="3.03061">
        <ele>16</ele>
        <time>2018-01-04T14:13:32Z</time>
      </trkpt>
      <trkpt lat="50.75211" lon="3.03049">
        <ele>15</ele>
        <time>2018-01-04T14:14:32Z</time>
      </trkpt>
      <trkpt lat="50.75219" lon="3.03037">
        <ele>15</ele>
        <time>2018-01-04T14:15:32Z</time>
      </trkpt>
      <trkpt lat="50.75227" lon="3.03024">
        <ele>15</ele>
        <time>2018-01-04T14:16:32Z</time>
      </trkpt>
      <trkpt lat="50.75235" lon="3.03013">
        <ele>15</ele>
        <time>2018-01-04T14:17:32Z</time>
      </trkpt>
      <trkpt lat="50.75243" lon="3.03001">
        <ele>15</ele>
        <time>2018-01-04T14:18:32Z</time>
      </trkpt>
      <trkpt lat="50.75252" lon="3.0299">
        <ele>15</ele>
        <time>2018-01-04T14:19:32Z</time>
      </trkpt>
      <trkpt lat="50.75261" lon="3.02979">
        <ele>15</ele>
        <time>2018-01-04T14:20:32Z</time>
      </trkpt>
      <trkpt lat="50.7527" lon="3.02969">
        <ele>15</ele>
        <time>2018-01-04T14:21:32Z</time>
      </trkpt>
      <trkpt lat="50.75279" lon="3.02959">
        <ele>15</ele>
        <time>2018-01-04T14:22:32Z</time>
      </trkpt>
      <trkpt lat="50.75288" lon="3.02949">
        <ele>15</ele>
        <time>2018-01-04T14:23:32Z</time>
      </trkpt>
      <trkpt lat="50.75297" lon="3.02939">
        <ele>15</ele>
        <time>2018-01-04T14:24:32Z</time>
      </trkpt>
      <trkpt lat="50.75306" lon="3.02929">
        <ele>15</ele>
        <time>2018-01-04T14:25:32Z</time>
      </trkpt>
      <trkpt lat="50.75315" lon="3.0292">
        <ele>15</ele>
        <time>2018-01-04T14:26:32Z</time>
      </trkpt>
      <trkpt lat="50.75323" lon="3.02912">
        <ele>15</ele>
        <time>2018-01-04T14:27:32Z</time>
      </trkpt>
      <trkpt lat="50.75332" lon="3.02903">
        <ele>15</ele>
        <time>2018-01-04T14:28:32Z</time>
      </trkpt>
      <trkpt lat="50.7534" lon="3.02894">
        <ele>15</ele>
        <time>2018-01-04T14:29:32Z</time>
      </trkpt>
      <trkpt lat="50.75349" lon="3.02885">
        <ele>15</ele>
        <time>2018-01-04T14:30:32Z</time>
      </trkpt>
      <trkpt lat="50.75357" lon="3.02875">
        <ele>15</ele>
        <time>2018-01-04T14:31:32Z</time>
      </trkpt>
      <trkpt lat="50.75374" lon="3.02855">
        <ele>15</ele>
        <time>2018-01-04T14:32:32Z</time>
      </trkpt>
      <trkpt lat="50.75376" lon="3.02853">
        <ele>15</ele>
        <time>2018-01-04T14:33:32Z</time>
      </trkpt>
      <trkpt lat="50.75384" lon="3.02851">
        <ele>15</ele>
        <time>2018-01-04T14:34:32Z</time>
      </trkpt>
      <trkpt lat="50.75412" lon="3.02809">
        <ele>15</ele>
        <time>2018-01-04T14:35:32Z</time>
      </trkpt>
      <trkpt lat="50.75424" lon="3.02789">
        <ele>14</ele>
        <time>2018-01-04T14:36:32Z</time>
      </trkpt>
      <trkpt lat="50.7543" lon="3.02778">
        <ele>14</ele>
        <time>2018-01-04T14:37:32Z</time>
      </trkpt>
      <trkpt lat="50.75436" lon="3.02767">
        <ele>14</ele>
        <time>2018-01-04T14:38:32Z</time>
      </trkpt>
      <trkpt lat="50.75441" lon="3.02757">
        <ele>14</ele>
        <time>2018-01-04T14:39:32Z</time>
      </trkpt>
      <trkpt lat="50.75446" lon="3.02746">
        <ele>14</ele>
        <time>2018-01-04T14:40:32Z</time>
      </trkpt>
      <trkpt lat="50.75448" lon="3.02741">
        <ele>14</ele>
        <time>2018-01-04T14:41:32Z</time>
      </trkpt>
      <trkpt lat="50.75451" lon="3.02735">
        <ele>14</ele>
        <time>2018-01-04T14:42:32Z</time>
      </trkpt>
      <trkpt lat="50.75455" lon="3.02723">
        <ele>14</ele>
        <time>2018-01-04T14:43:32Z</time>
      </trkpt>
      <trkpt lat="50.7546" lon="3.02711">
        <ele>14</ele>
        <time>2018-01-04T14:44:32Z</time>
      </trkpt>
      <trkpt lat="50.75465" lon="3.02699">
        <ele>14</ele>
        <time>2018-01-04T14:45:32Z</time>
      </trkpt>
      <trkpt lat="50.75468" lon="3.02688">
        <ele>14</ele>
        <time>2018-01-04T14:46:32Z</time>
      </trkpt>
      <trkpt lat="50.75472" lon="3.02677">
        <ele>14</ele>
        <time>2018-01-04T14:47:32Z</time>
      </trkpt>
      <trkpt lat="50.75476" lon="3.02665">
        <ele>14</ele>
        <time>2018-01-04T14:48:32Z</time>
      </trkpt>
      <trkpt lat="50.75479" lon="3.02655">
        <ele>14</ele>
        <time>2018-01-04T14:49:32Z</time>
      </trkpt>
      <trkpt lat="50.75482" lon="3.02644">
        <ele>14</ele>
        <time>2018-01-04T14:50:32Z</time>
      </trkpt>
      <trkpt lat="50.75485" lon="3.02633">
        <ele>15</ele>
        <time>2018-01-04T14:51:32Z</time>
      </trkpt>
      <trkpt lat="50.75488" lon="3.02623">
        <ele>15</ele>
        <time>2018-01-04T14:52:32Z</time>
      </trkpt>
      <trkpt lat="50.7549" lon="3.02616">
        <ele>15</ele>
        <time>2018-01-04T14:53:32Z</time>
      </trkpt>
      <trkpt lat="50.75493" lon="3.02604">
        <ele>15</ele>
        <time>2018-01-04T14:54:32Z</time>
      </trkpt>
      <trkpt lat="50.75497" lon="3.02591">
        <ele>16</ele>
        <time>2018-01-04T14:55:32Z</time>
      </trkpt>
      <trkpt lat="50.755" lon="3.02581">
        <ele>16</ele>
        <time>2018-01-04T14:56:32Z</time>
      </trkpt>
      <trkpt lat="50.75505" lon="3.02572">
        <ele>16</ele>
        <time>2018-01-04T14:57:32Z</time>
      </trkpt>
      <trkpt lat="50.75507" lon="3.02567">
        <ele>16</ele>
        <time>2018-01-04T14:58:32Z</time>
      </trkpt>
      <trkpt lat="50.75507" lon="3.02567">
        <ele>16</ele>
        <time>2018-01-04T14:59:32Z</time>
      </trkpt>
      <trkpt lat="50.75512" lon="3.02563">
        <ele>16</ele>
        <time>2018-01-04T15:00:32Z</time>
      </trkpt>
      <trkpt lat="50.75514" lon="3.02561">
        <ele>16</ele>
        <time>2018-01-04T15:01:32Z</time>
      </trkpt>
      <trkpt lat="50.75516" lon="3.02559">
        <ele>16</ele>
        <time>2018-01-04T15:02:32Z</time>
      </trkpt>
      <trkpt lat="50.75519" lon="3.02554">
        <ele>17</ele>
        <time>2018-01-04T15:03:32Z</time>
      </trkpt>
      <trkpt lat="50.75521" lon="3.02548">
        <ele>17</ele>
        <time>2018-01-04T15:04:32Z</time>
      </trkpt>
      <trkpt lat="50.75522" lon="3.02541">
        <ele>17</ele>
        <time>2018-01-04T15:05:32Z</time>
      </trkpt>
      <trkpt lat="50.75522" lon="3.02534">
        <ele>17</ele>
        <time>2018-01-04T15:06:32Z</time>
      </trkpt>
      <trkpt lat="50.75522" lon="3.02529">
        <ele>17</ele>
        <time>2018-01-04T15:07:32Z</time>
      </trkpt>
      <trkpt lat="50.75522" lon="3.02527">
        <ele>17</ele>
        <time>2018-01-04T15:08:32Z</time>
      </trkpt>
      <trkpt lat="50.75521" lon="3.02524">
        <ele>17</ele>
        <time>2018-01-04T15:09:32Z</time>
      </trkpt>
      <trkpt lat="50.75522" lon="3.02518">
        <ele>17</ele>
        <time>2018-01-04T15:10:32Z</time>
      </trkpt>
      <trkpt lat="50.75524" lon="3.02513">
        <ele>17</ele>
        <time>2018-01-04T15:11:32Z</time>
      </trkpt>
      <trkpt lat="50.75525" lon="3.02507">
        <ele>17</ele>
        <time>2018-01-04T15:12:32Z</time>
      </trkpt>
      <trkpt lat="50.75527" lon="3.02501">
        <ele>17</ele>
        <time>2018-01-04T15:13:32Z</time>
      </trkpt>
      <trkpt lat="50.75529" lon="3.02495">
        <ele>17</ele>
        <time>2018-01-04T15:14:32Z</time>
      </trkpt>
      <trkpt lat="50.75531" lon="3.02489">
        <ele>17</ele>
        <time>2018-01-04T15:15:32Z</time>
      </trkpt>
      <trkpt lat="50.75532" lon="3.02484">
        <ele>17</ele>
        <time>2018-01-04T15:16:32Z</time>
      </trkpt>
      <trkpt lat="50.75535" lon="3.02477">
        <ele>17</ele>
        <time>2018-01-04T15:17:32Z</time>
      </trkpt>
      <trkpt lat="50.75537" lon="3.0247">
        <ele>17</ele>
        <time>2018-01-04T15:18:32Z</time>
      </trkpt>
      <trkpt lat="50.75545" lon="3.0245">
        <ele>17</ele>
        <time>2018-01-04T15:19:32Z</time>
      </trkpt>
      <trkpt lat="50.75564" lon="3.02431">
        <ele>17</ele>
        <time>2018-01-04T15:20:32Z</time>
      </trkpt>
      <trkpt lat="50.75594" lon="3.0241">
        <ele>17</ele>
        <time>2018-01-04T15:21:32Z</time>
      </trkpt>
      <trkpt lat="50.75613" lon="3.02399">
        <ele>18</ele>
        <time>2018-01-04T15:22:32Z</time>
      </trkpt>
      <trkpt lat="50.75643" lon="3.02379">
        <ele>18</ele>
        <time>2018-01-04T15:23:32Z</time>
      </trkpt>
      <trkpt lat="50.75661" lon="3.02366">
        <ele>19</ele>
        <time>2018-01-04T15:24:32Z</time>
      </trkpt>
      <trkpt lat="50.75686" lon="3.02348">
        <ele>19</ele>
        <time>2018-01-04T15:25:32Z</time>
      </trkpt>
      <trkpt lat="50.75714" lon="3.02324">
        <ele>18</ele>
        <time>2018-01-04T15:26:32Z</time>
      </trkpt>
      <trkpt lat="50.75738" lon="3.02304">
        <ele>17</ele>
        <time>2018-01-04T15:27:32Z</time>
      </trkpt>
      <trkpt lat="50.75762" lon="3.02286">
        <ele>18</ele>
        <time>2018-01-04T15:28:32Z</time>
      </trkpt>
      <trkpt lat="50.75782" lon="3.02271">
        <ele>18</ele>
        <time>2018-01-04T15:29:32Z</time>
      </trkpt>
      <trkpt lat="50.75805" lon="3.02254">
        <ele>18</ele>
        <time>2018-01-04T15:30:32Z</time>
      </trkpt>
      <trkpt lat="50.75814" lon="3.02249">
        <ele>18</ele>
        <time>2018-01-04T15:31:32Z</time>
      </trkpt>
      <trkpt lat="50.75818" lon="3.02247">
        <ele>18</ele>
        <time>2018-01-04T15:32:32Z</time>
      </trkpt>
      <trkpt lat="50.75824" lon="3.02243">
        <ele>18</ele>
        <time>2018-01-04T15:33:32Z</time>
      </trkpt>
      <trkpt lat="50.75836" lon="3.02234">
        <ele>18</ele>
        <time>2018-01-04T15:34:32Z</time>
      </trkpt>
      <trkpt lat="50.75844" lon="3.02227">
        <ele>18</ele>
        <time>2018-01-04T15:35:32Z</time>
      </trkpt>
      <trkpt lat="50.75849" lon="3.02223">
        <ele>18</ele>
        <time>2018-01-04T15:36:32Z</time>
      </trkpt>
      <trkpt lat="50.75857" lon="3.02216">
        <ele>18</ele>
        <time>2018-01-04T15:37:32Z</time>
      </trkpt>
      <trkpt lat="50.75861" lon="3.02212">
        <ele>18</ele>
        <time>2018-01-04T15:38:32Z</time>
      </trkpt>
      <trkpt lat="50.75864" lon="3.02209">
        <ele>18</ele>
        <time>2018-01-04T15:39:32Z</time>
      </trkpt>
      <trkpt lat="50.75866" lon="3.02206">
        <ele>18</ele>
        <time>2018-01-04T15:40:32Z</time>
      </trkpt>
      <trkpt lat="50.7587" lon="3.02201">
        <ele>18</ele>
        <time>2018-01-04T15:41:32Z</time>
      </trkpt>
      <trkpt lat="50.75876" lon="3.02194">
        <ele>17</ele>
        <time>2018-01-04T15:42:32Z</time>
      </trkpt>
      <trkpt lat="50.75876" lon="3.02194">
        <ele>17</ele>
        <time>2018-01-04T15:43:32Z</time>
      </trkpt>
      <trkpt lat="50.75879" lon="3.02192">
        <ele>17</ele>
        <time>2018-01-04T15:44:32Z</time>
      </trkpt>
      <trkpt lat="50.75881" lon="3.0219">
        <ele>17</ele>
        <time>2018-01-04T15:45:32Z</time>
      </trkpt>
      <trkpt lat="50.75884" lon="3.02187">
        <ele>17</ele>
        <time>2018-01-04T15:46:32Z</time>
      </trkpt>
      <trkpt lat="50.7589" lon="3.02179">
        <ele>17</ele>
        <time>2018-01-04T15:47:32Z</time>
      </trkpt>
      <trkpt lat="50.7592" lon="3.02139">
        <ele>17</ele>
        <time>2018-01-04T15:48:32Z</time>
      </trkpt>
      <trkpt lat="50.75933" lon="3.02121">
        <ele>17</ele>
        <time>2018-01-04T15:49:32Z</time>
      </trkpt>
      <trkpt lat="50.75937" lon="3.02115">
        <ele>17</ele>
        <time>2018-01-04T15:50:32Z</time>
      </trkpt>
      <trkpt lat="50.75941" lon="3.02108">
        <ele>17</ele>
        <time>2018-01-04T15:51:32Z</time>
      </trkpt>
      <trkpt lat="50.75948" lon="3.0209">
        <ele>18</ele>
        <time>2018-01-04T15:52:32Z</time>
      </trkpt>
      <trkpt lat="50.75956" lon="3.02067">
        <ele>18</ele>
        <time>2018-01-04T15:53:32Z</time>
      </trkpt>
      <trkpt lat="50.75963" lon="3.02049">
        <ele>18</ele>
        <time>2018-01-04T15:54:32Z</time>
      </trkpt>
      <trkpt lat="50.75966" lon="3.02042">
        <ele>18</ele>
        <time>2018-01-04T15:55:32Z</time>
      </trkpt>
      <trkpt lat="50.75971" lon="3.02033">
        <ele>18</ele>
        <time>2018-01-04T15:56:32Z</time>
      </trkpt>
      <trkpt lat="50.75981" lon="3.02014">
        <ele>18</ele>
        <time>2018-01-04T15:57:32Z</time>
      </trkpt>
      <trkpt lat="50.75989" lon="3.02">
        <ele>18</ele>
        <time>2018-01-04T15:58:32Z</time>
      </trkpt>
      <trkpt lat="50.75994" lon="3.01988">
        <ele>18</ele>
        <time>2018-01-04T15:59:32Z</time>
      </trkpt>
      <trkpt lat="50.75997" lon="3.0198">
        <ele>18</ele>
        <time>2018-01-04T16:00:32Z</time>
      </trkpt>
      <trkpt lat="50.76" lon="3.01973">
        <ele>18</ele>
        <time>2018-01-04T16:01:32Z</time>
      </trkpt>
      <trkpt lat="50.76002" lon="3.01965">
        <ele>18</ele>
        <time>2018-01-04T16:02:32Z</time>
      </trkpt>
      <trkpt lat="50.76005" lon="3.01958">
        <ele>18</ele>
        <time>2018-01-04T16:03:32Z</time>
      </trkpt>
      <trkpt lat="50.76007" lon="3.0195">
        <ele>19</ele>
        <time>2018-01-04T16:04:32Z</time>
      </trkpt>
      <trkpt lat="50.76009" lon="3.0194">
        <ele>19</ele>
        <time>2018-01-04T16:05:32Z</time>
      </trkpt>
      <trkpt lat="50.76018" lon="3.01899">
        <ele>19</ele>
        <time>2018-01-04T16:06:32Z</time>
      </trkpt>
      <trkpt lat="50.76019" lon="3.01889">
        <ele>19</ele>
        <time>2018-01-04T16:07:32Z</time>
      </trkpt>
      <trkpt lat="50.76029" lon="3.01842">
        <ele>19</ele>
        <time>2018-01-04T16:08:32Z</time>
      </trkpt>
      <trkpt lat="50.76034" lon="3.01822">
        <ele>19</ele>
        <time>2018-01-04T16:09:32Z</time>
      </trkpt>
      <trkpt lat="50.76037" lon="3.01811">
        <ele>19</ele>
        <time>2018-01-04T16:10:32Z</time>
      </trkpt>
      <trkpt lat="50.76045" lon="3.01777">
        <ele>19</ele>
        <time>2018-01-04T16:11:32Z</time>
      </trkpt>
      <trkpt lat="50.76049" lon="3.01759">
        <ele>19</ele>
        <time>2018-01-04T16:12:32Z</time>
      </trkpt>
      <trkpt lat="50.76052" lon="3.01751">
        <ele>19</ele>
        <time>2018-01-04T16:13:32Z</time>
      </trkpt>
      <trkpt lat="50.76054" lon="3.01744">
        <ele>19</ele>
        <time>2018-01-04T16:14:32Z</time>
      </trkpt>
      <trkpt lat="50.76057" lon="3.01737">
        <ele>19</ele>
        <time>2018-01-04T16:15:32Z</time>
      </trkpt>
      <trkpt lat="50.76059" lon="3.01734">
        <ele>19</ele>
        <time>2018-01-04T16:16:32Z</time>
      </trkpt>
      <trkpt lat="50.7606" lon="3.0173">
        <ele>19</ele>
        <time>2018-01-04T16:17:32Z</time>
      </trkpt>
      <trkpt lat="50.76064" lon="3.01724">
        <ele>19</ele>
        <time>2018-01-04T16:18:32Z</time>
      </trkpt>
      <trkpt lat="50.76076" lon="3.01708">
        <ele>19</ele>
        <time>2018-01-04T16:19:32Z</time>
      </trkpt>
      <trkpt lat="50.76084" lon="3.01697">
        <ele>19</ele>
        <time>2018-01-04T16:20:32Z</time>
      </trkpt>
      <trkpt lat="50.76101" lon="3.01677">
        <ele>18</ele>
        <time>2018-01-04T16:21:32Z</time>
      </trkpt>
      <trkpt lat="50.76123" lon="3.01653">
        <ele>18</ele>
        <time>2018-01-04T16:22:32Z</time>
      </trkpt>
      <trkpt lat="50.76144" lon="3.0163">
        <ele>17</ele>
        <time>2018-01-04T16:23:32Z</time>
      </trkpt>
      <trkpt lat="50.76159" lon="3.01613">
        <ele>17</ele>
        <time>2018-01-04T16:24:32Z</time>
      </trkpt>
      <trkpt lat="50.76168" lon="3.016">
        <ele>18</ele>
        <time>2018-01-04T16:25:32Z</time>
      </trkpt>
      <trkpt lat="50.76172" lon="3.01594">
        <ele>18</ele>
        <time>2018-01-04T16:26:32Z</time>
      </trkpt>
      <trkpt lat="50.76175" lon="3.01586">
        <ele>18</ele>
        <time>2018-01-04T16:27:32Z</time>
      </trkpt>
      <trkpt lat="50.76177" lon="3.01578">
        <ele>18</ele>
        <time>2018-01-04T16:28:32Z</time>
      </trkpt>
      <trkpt lat="50.7618" lon="3.01567">
        <ele>18</ele>
        <time>2018-01-04T16:29:32Z</time>
      </trkpt>
      <trkpt lat="50.76181" lon="3.01547">
        <ele>18</ele>
        <time>2018-01-04T16:30:32Z</time>
      </trkpt>
      <trkpt lat="50.7619" lon="3.01485">
        <ele>19</ele>
        <time>2018-01-04T16:31:32Z</time>
      </trkpt>
      <trkpt lat="50.76197" lon="3.01434">
        <ele>18</ele>
        <time>2018-01-04T16:32:32Z</time>
      </trkpt>
      <trkpt lat="50.76207" lon="3.0137">
        <ele>17</ele>
        <time>2018-01-04T16:33:32Z</time>
      </trkpt>
      <trkpt lat="50.76221" lon="3.01288">
        <ele>17</ele>
        <time>2018-01-04T16:34:32Z</time>
      </trkpt>
      <trkpt lat="50.76227" lon="3.0125">
        <ele>18</ele>
        <time>2018-01-04T16:35:32Z</time>
      </trkpt>
      <trkpt lat="50.76227" lon="3.0125">
        <ele>18</ele>
        <time>2018-01-04T16:36:32Z</time>
      </trkpt>
      <trkpt lat="50.76229" lon="3.01251">
        <ele>18</ele>
        <time>2018-01-04T16:37:32Z</time>
      </trkpt>
      <trkpt lat="50.76231" lon="3.01251">
        <ele>18</ele>
        <time>2018-01-04T16:38:32Z</time>
      </trkpt>
      <trkpt lat="50.76233" lon="3.0125">
        <ele>18</ele>
        <time>2018-01-04T16:39:32Z</time>
      </trkpt>
      <trkpt lat="50.76234" lon="3.01248">
        <ele>18</ele>
        <time>2018-01-04T16:40:32Z</time>
      </trkpt>
      <trkpt lat="50.76236" lon="3.01244">
        <ele>18</ele>
        <time>2018-01-04T16:41:32Z</time>
      </trkpt>
      <trkpt lat="50.76237" lon="3.01239">
        <ele>18</ele>
        <time>2018-01-04T16:42:32Z</time>
      </trkpt>
      <trkpt lat="50.76238" lon="3.01237">
        <ele>18</ele>
        <time>2018-01-04T16:43:32Z</time>
      </trkpt>
      <trkpt lat="50.76238" lon="3.01234">
        <ele>18</ele>
        <time>2018-01-04T16:44:32Z</time>
      </trkpt>
      <trkpt lat="50.76238" lon="3.0123">
        <ele>18</ele>
        <time>2018-01-04T16:45:32Z</time>
      </trkpt>
      <trkpt lat="50.76237" lon="3.01226">
        <ele>18</ele>
        <time>2018-01-04T16:46:32Z</time>
      </trkpt>
      <trkpt lat="50.76236" lon="3.01224">
        <ele>18</ele>
        <time>2018-01-04T16:47:32Z</time>
      </trkpt>
      <trkpt lat="50.76235" lon="3.01222">
        <ele>18</ele>
        <time>2018-01-04T16:48:32Z</time>
      </trkpt>
      <trkpt lat="50.76233" lon="3.0122">
        <ele>18</ele>
        <time>2018-01-04T16:49:32Z</time>
      </trkpt>
      <trkpt lat="50.76232" lon="3.01219">
        <ele>18</ele>
        <time>2018-01-04T16:50:32Z</time>
      </trkpt>
      <trkpt lat="50.7623" lon="3.01218">
        <ele>18</ele>
        <time>2018-01-04T16:51:32Z</time>
      </trkpt>
      <trkpt lat="50.76226" lon="3.01219">
        <ele>18</ele>
        <time>2018-01-04T16:52:32Z</time>
      </trkpt>
      <trkpt lat="50.76225" lon="3.0122">
        <ele>18</ele>
        <time>2018-01-04T16:53:32Z</time>
      </trkpt>
      <trkpt lat="50.76223" lon="3.01221">
        <ele>18</ele>
        <time>2018-01-04T16:54:32Z</time>
      </trkpt>
      <trkpt lat="50.76219" lon="3.01213">
        <ele>18</ele>
        <time>2018-01-04T16:55:32Z</time>
      </trkpt>
      <trkpt lat="50.76207" lon="3.01188">
        <ele>18</ele>
        <time>2018-01-04T16:56:32Z</time>
      </trkpt>
      <trkpt lat="50.76202" lon="3.01179">
        <ele>18</ele>
        <time>2018-01-04T16:57:32Z</time>
      </trkpt>
      <trkpt lat="50.762" lon="3.01172">
        <ele>18</ele>
        <time>2018-01-04T16:58:32Z</time>
      </trkpt>
      <trkpt lat="50.762" lon="3.01172">
        <ele>18</ele>
        <time>2018-01-04T16:59:32Z</time>
      </trkpt>
      <trkpt lat="50.76202" lon="3.0117">
        <ele>18</ele>
        <time>2018-01-04T17:00:32Z</time>
      </trkpt>
      <trkpt lat="50.76203" lon="3.01167">
        <ele>18</ele>
        <time>2018-01-04T17:01:32Z</time>
      </trkpt>
      <trkpt lat="50.76203" lon="3.01164">
        <ele>18</ele>
        <time>2018-01-04T17:02:32Z</time>
      </trkpt>
      <trkpt lat="50.76203" lon="3.01163">
        <ele>18</ele>
        <time>2018-01-04T17:03:32Z</time>
      </trkpt>
      <trkpt lat="50.76203" lon="3.0116">
        <ele>18</ele>
        <time>2018-01-04T17:04:32Z</time>
      </trkpt>
      <trkpt lat="50.76206" lon="3.01159">
        <ele>18</ele>
        <time>2018-01-04T17:05:32Z</time>
      </trkpt>
      <trkpt lat="50.76213" lon="3.01155">
        <ele>18</ele>
        <time>2018-01-04T17:06:32Z</time>
      </trkpt>
      <trkpt lat="50.76223" lon="3.01148">
        <ele>18</ele>
        <time>2018-01-04T17:07:32Z</time>
      </trkpt>
      <trkpt lat="50.7626" lon="3.0112">
        <ele>18</ele>
        <time>2018-01-04T17:08:32Z</time>
      </trkpt>
      <trkpt lat="50.76283" lon="3.01103">
        <ele>18</ele>
        <time>2018-01-04T17:09:32Z</time>
      </trkpt>
      <trkpt lat="50.76295" lon="3.01091">
        <ele>18</ele>
        <time>2018-01-04T17:10:32Z</time>
      </trkpt>
      <trkpt lat="50.76359" lon="3.01035">
        <ele>18</ele>
        <time>2018-01-04T17:11:32Z</time>
      </trkpt>
      <trkpt lat="50.7636" lon="3.01034">
        <ele>18</ele>
        <time>2018-01-04T17:12:32Z</time>
      </trkpt>
      <trkpt lat="50.76373" lon="3.01021">
        <ele>18</ele>
        <time>2018-01-04T17:13:32Z</time>
      </trkpt>
      <trkpt lat="50.76387" lon="3.01007">
        <ele>17</ele>
        <time>2018-01-04T17:14:32Z</time>
      </trkpt>
      <trkpt lat="50.7639" lon="3.01003">
        <ele>17</ele>
        <time>2018-01-04T17:15:32Z</time>
      </trkpt>
      <trkpt lat="50.76405" lon="3.00987">
        <ele>17</ele>
        <time>2018-01-04T17:16:32Z</time>
      </trkpt>
      <trkpt lat="50.76421" lon="3.00967">
        <ele>17</ele>
        <time>2018-01-04T17:17:32Z</time>
      </trkpt>
      <trkpt lat="50.76431" lon="3.0095">
        <ele>16</ele>
        <time>2018-01-04T17:18:32Z</time>
      </trkpt>
      <trkpt lat="50.7644" lon="3.00933">
        <ele>16</ele>
        <time>2018-01-04T17:19:32Z</time>
      </trkpt>
      <trkpt lat="50.76441" lon="3.0093">
        <ele>16</ele>
        <time>2018-01-04T17:20:32Z</time>
      </trkpt>
      <trkpt lat="50.76447" lon="3.00914">
        <ele>16</ele>
        <time>2018-01-04T17:21:32Z</time>
      </trkpt>
      <trkpt lat="50.76451" lon="3.00895">
        <ele>16</ele>
        <time>2018-01-04T17:22:32Z</time>
      </trkpt>
      <trkpt lat="50.76455" lon="3.00871">
        <ele>16</ele>
        <time>2018-01-04T17:23:32Z</time>
      </trkpt>
      <trkpt lat="50.76459" lon="3.00848">
        <ele>17</ele>
        <time>2018-01-04T17:24:32Z</time>
      </trkpt>
      <trkpt lat="50.76466" lon="3.00826">
        <ele>17</ele>
        <time>2018-01-04T17:25:32Z</time>
      </trkpt>
      <trkpt lat="50.76472" lon="3.00808">
        <ele>17</ele>
        <time>2018-01-04T17:26:32Z</time>
      </trkpt>
      <trkpt lat="50.76479" lon="3.00794">
        <ele>18</ele>
        <time>2018-01-04T17:27:32Z</time>
      </trkpt>
      <trkpt lat="50.76488" lon="3.00781">
        <ele>18</ele>
        <time>2018-01-04T17:28:32Z</time>
      </trkpt>
      <trkpt lat="50.76511" lon="3.0075">
        <ele>19</ele>
        <time>2018-01-04T17:29:32Z</time>
      </trkpt>
      <trkpt lat="50.76519" lon="3.00735">
        <ele>19</ele>
        <time>2018-01-04T17:30:32Z</time>
      </trkpt>
      <trkpt lat="50.76519" lon="3.00735">
        <ele>19</ele>
        <time>2018-01-04T17:31:32Z</time>
      </trkpt>
      <trkpt lat="50.76518" lon="3.00724">
        <ele>19</ele>
        <time>2018-01-04T17:32:32Z</time>
      </trkpt>
      <trkpt lat="50.76517" lon="3.00713">
        <ele>19</ele>
        <time>2018-01-04T17:33:32Z</time>
      </trkpt>
      <trkpt lat="50.76517" lon="3.00713">
        <ele>19</ele>
        <time>2018-01-04T17:34:32Z</time>
      </trkpt>
      <trkpt lat="50.76536" lon="3.00691">
        <ele>19</ele>
        <time>2018-01-04T17:35:32Z</time>
      </trkpt>
      <trkpt lat="50.76547" lon="3.00677">
        <ele>19</ele>
        <time>2018-01-04T17:36:32Z</time>
      </trkpt>
      <trkpt lat="50.7655" lon="3.0067">
        <ele>19</ele>
        <time>2018-01-04T17:37:32Z</time>
      </trkpt>
      <trkpt lat="50.76551" lon="3.00666">
        <ele>19</ele>
        <time>2018-01-04T17:38:32Z</time>
      </trkpt>
      <trkpt lat="50.76551" lon="3.00663">
        <ele>19</ele>
        <time>2018-01-04T17:39:32Z</time>
      </trkpt>
      <trkpt lat="50.76551" lon="3.00655">
        <ele>19</ele>
        <time>2018-01-04T17:40:32Z</time>
      </trkpt>
      <trkpt lat="50.7655" lon="3.0065">
        <ele>19</ele>
        <time>2018-01-04T17:41:32Z</time>
      </trkpt>
      <trkpt lat="50.76548" lon="3.00639">
        <ele>19</ele>
        <time>2018-01-04T17:42:32Z</time>
      </trkpt>
      <trkpt lat="50.76545" lon="3.0063">
        <ele>18</ele>
        <time>2018-01-04T17:43:32Z</time>
      </trkpt>
      <trkpt lat="50.7654" lon="3.00612">
        <ele>18</ele>
        <time>2018-01-04T17:44:32Z</time>
      </trkpt>
      <trkpt lat="50.7654" lon="3.00612">
        <ele>18</ele>
        <time>2018-01-04T17:45:32Z</time>
      </trkpt>
      <trkpt lat="50.76537" lon="3.00594">
        <ele>17</ele>
        <time>2018-01-04T17:46:32Z</time>
      </trkpt>
      <trkpt lat="50.76536" lon="3.00576">
        <ele>17</ele>
        <time>2018-01-04T17:47:32Z</time>
      </trkpt>
      <trkpt lat="50.76536" lon="3.00556">
        <ele>16</ele>
        <time>2018-01-04T17:48:32Z</time>
      </trkpt>
      <trkpt lat="50.76536" lon="3.00549">
        <ele>16</ele>
        <time>2018-01-04T17:49:32Z</time>
      </trkpt>
      <trkpt lat="50.76542" lon="3.00522">
        <ele>16</ele>
        <time>2018-01-04T17:50:32Z</time>
      </trkpt>
      <trkpt lat="50.76555" lon="3.00501">
        <ele>15</ele>
        <time>2018-01-04T17:51:32Z</time>
      </trkpt>
      <trkpt lat="50.76555" lon="3.00501">
        <ele>15</ele>
        <time>2018-01-04T17:52:32Z</time>
      </trkpt>
      <trkpt lat="50.76578" lon="3.00458">
        <ele>15</ele>
        <time>2018-01-04T17:53:32Z</time>
      </trkpt>
      <trkpt lat="50.7658" lon="3.00453">
        <ele>15</ele>
        <time>2018-01-04T17:54:32Z</time>
      </trkpt>
      <trkpt lat="50.76582" lon="3.00451">
        <ele>15</ele>
        <time>2018-01-04T17:55:32Z</time>
      </trkpt>
      <trkpt lat="50.76594" lon="3.00429">
        <ele>15</ele>
        <time>2018-01-04T17:56:32Z</time>
      </trkpt>
      <trkpt lat="50.76607" lon="3.00408">
        <ele>15</ele>
        <time>2018-01-04T17:57:32Z</time>
      </trkpt>
      <trkpt lat="50.76695" lon="3.0027">
        <ele>15</ele>
        <time>2018-01-04T17:58:32Z</time>
      </trkpt>
      <trkpt lat="50.76695" lon="3.0027">
        <ele>15</ele>
        <time>2018-01-04T17:59:32Z</time>
      </trkpt>
      <trkpt lat="50.76697" lon="3.00272">
        <ele>15</ele>
        <time>2018-01-04T18:00:32Z</time>
      </trkpt>
      <trkpt lat="50.76699" lon="3.00273">
        <ele>15</ele>
        <time>2018-01-04T18:01:32Z</time>
      </trkpt>
      <trkpt lat="50.767" lon="3.00273">
        <ele>15</ele>
        <time>2018-01-04T18:02:32Z</time>
      </trkpt>
      <trkpt lat="50.76701" lon="3.00273">
        <ele>15</ele>
        <time>2018-01-04T18:03:32Z</time>
      </trkpt>
      <trkpt lat="50.76702" lon="3.00273">
        <ele>15</ele>
        <time>2018-01-04T18:04:32Z</time>
      </trkpt>
      <trkpt lat="50.76703" lon="3.00272">
        <ele>15</ele>
        <time>2018-01-04T18:05:32Z</time>
      </trkpt>
      <trkpt lat="50.76704" lon="3.00271">
        <ele>15</ele>
        <time>2018-01-04T18:06:32Z</time>
      </trkpt>
      <trkpt lat="50.76706" lon="3.0027">
        <ele>15</ele>
        <time>2018-01-04T18:07:32Z</time>
      </trkpt>
      <trkpt lat="50.76707" lon="3.00268">
        <ele>15</ele>
        <time>2018-01-04T18:08:32Z</time>
      </trkpt>
      <trkpt lat="50.76707" lon="3.00266">
        <ele>15</ele>
        <time>2018-01-04T18:09:32Z</time>
      </trkpt>
      <trkpt lat="50.76707" lon="3.00265">
        <ele>15</ele>
        <time>2018-01-04T18:10:32Z</time>
      </trkpt>
      <trkpt lat="50.76707" lon="3.00264">
        <ele>15</ele>
        <time>2018-01-04T18:11:32Z</time>
      </trkpt>
      <trkpt lat="50.76707" lon="3.00262">
        <ele>15</ele>
        <time>2018-01-04T18:12:32Z</time>
      </trkpt>
      <trkpt lat="50.76707" lon="3.00261">
        <ele>15</ele>
        <time>2018-01-04T18:13:32Z</time>
      </trkpt>
      <trkpt lat="50.76707" lon="3.00259">
        <ele>15</ele>
        <time>2018-01-04T18:14:32Z</time>
      </trkpt>
      <trkpt lat="50.76706" lon="3.00258">
        <ele>15</ele>
        <time>2018-01-04T18:15:32Z</time>
      </trkpt>
      <trkpt lat="50.76705" lon="3.00256">
        <ele>15</ele>
        <time>2018-01-04T18:16:32Z</time>
      </trkpt>
      <trkpt lat="50.76704" lon="3.00255">
        <ele>15</ele>
        <time>2018-01-04T18:17:32Z</time>
      </trkpt>
      <trkpt lat="50.7679" lon="3.00107">
        <ele>16</ele>
        <time>2018-01-04T18:18:32Z</time>
      </trkpt>
      <trkpt lat="50.76839" lon="3.00044">
        <ele>17</ele>
        <time>2018-01-04T18:19:32Z</time>
      </trkpt>
      <trkpt lat="50.76866" lon="3.00007">
        <ele>17</ele>
        <time>2018-01-04T18:20:32Z</time>
      </trkpt>
      <trkpt lat="50.7687" lon="3">
        <ele>17</ele>
        <time>2018-01-04T18:21:32Z</time>
      </trkpt>
      <trkpt lat="50.76875" lon="2.99988">
        <ele>17</ele>
        <time>2018-01-04T18:22:32Z</time>
      </trkpt>
      <trkpt lat="50.76875" lon="2.99988">
        <ele>17</ele>
        <time>2018-01-04T18:23:32Z</time>
      </trkpt>
      <trkpt lat="50.76877" lon="2.99987">
        <ele>17</ele>
        <time>2018-01-04T18:24:32Z</time>
      </trkpt>
      <trkpt lat="50.76879" lon="2.99986">
        <ele>17</ele>
        <time>2018-01-04T18:25:32Z</time>
      </trkpt>
      <trkpt lat="50.7688" lon="2.99985">
        <ele>17</ele>
        <time>2018-01-04T18:26:32Z</time>
      </trkpt>
      <trkpt lat="50.76881" lon="2.99984">
        <ele>17</ele>
        <time>2018-01-04T18:27:32Z</time>
      </trkpt>
      <trkpt lat="50.76882" lon="2.99982">
        <ele>17</ele>
        <time>2018-01-04T18:28:32Z</time>
      </trkpt>
      <trkpt lat="50.76883" lon="2.99979">
        <ele>17</ele>
        <time>2018-01-04T18:29:32Z</time>
      </trkpt>
      <trkpt lat="50.76894" lon="2.99972">
        <ele>17</ele>
        <time>2018-01-04T18:30:32Z</time>
      </trkpt>
      <trkpt lat="50.76899" lon="2.99963">
        <ele>17</ele>
        <time>2018-01-04T18:31:32Z</time>
      </trkpt>
      <trkpt lat="50.77037" lon="2.99821">
        <ele>19</ele>
        <time>2018-01-04T18:32:32Z</time>
      </trkpt>
      <trkpt lat="50.77111" lon="2.99745">
        <ele>19</ele>
        <time>2018-01-04T18:33:32Z</time>
      </trkpt>
      <trkpt lat="50.77129" lon="2.99729">
        <ele>20</ele>
        <time>2018-01-04T18:34:32Z</time>
      </trkpt>
      <trkpt lat="50.7714" lon="2.99723">
        <ele>20</ele>
        <time>2018-01-04T18:35:32Z</time>
      </trkpt>
      <trkpt lat="50.77142" lon="2.99723">
        <ele>20</ele>
        <time>2018-01-04T18:36:32Z</time>
      </trkpt>
      <trkpt lat="50.7716" lon="2.99716">
        <ele>20</ele>
        <time>2018-01-04T18:37:32Z</time>
      </trkpt>
      <trkpt lat="50.7716" lon="2.99716">
        <ele>20</ele>
        <time>2018-01-04T18:38:32Z</time>
      </trkpt>
      <trkpt lat="50.7715" lon="2.99659">
        <ele>20</ele>
        <time>2018-01-04T18:39:32Z</time>
      </trkpt>
      <trkpt lat="50.77138" lon="2.99618">
        <ele>19</ele>
        <time>2018-01-04T18:40:32Z</time>
      </trkpt>
      <trkpt lat="50.77134" lon="2.996">
        <ele>19</ele>
        <time>2018-01-04T18:41:32Z</time>
      </trkpt>
      <trkpt lat="50.77133" lon="2.99592">
        <ele>19</ele>
        <time>2018-01-04T18:42:32Z</time>
      </trkpt>
      <trkpt lat="50.77131" lon="2.99578">
        <ele>19</ele>
        <time>2018-01-04T18:43:32Z</time>
      </trkpt>
      <trkpt lat="50.7713" lon="2.99557">
        <ele>18</ele>
        <time>2018-01-04T18:44:32Z</time>
      </trkpt>
      <trkpt lat="50.77126" lon="2.99484">
        <ele>18</ele>
        <time>2018-01-04T18:45:32Z</time>
      </trkpt>
      <trkpt lat="50.77124" lon="2.99392">
        <ele>18</ele>
        <time>2018-01-04T18:46:32Z</time>
      </trkpt>
      <trkpt lat="50.77127" lon="2.9932">
        <ele>17</ele>
        <time>2018-01-04T18:47:32Z</time>
      </trkpt>
      <trkpt lat="50.77127" lon="2.9932">
        <ele>17</ele>
        <time>2018-01-04T18:48:32Z</time>
      </trkpt>
      <trkpt lat="50.77429" lon="2.99084">
        <ele>18</ele>
        <time>2018-01-04T18:49:32Z</time>
      </trkpt>
      <trkpt lat="50.7746" lon="2.99066">
        <ele>18</ele>
        <time>2018-01-04T18:50:32Z</time>
      </trkpt>
      <trkpt lat="50.77477" lon="2.99058">
        <ele>18</ele>
        <time>2018-01-04T18:51:32Z</time>
      </trkpt>
      <trkpt lat="50.77544" lon="2.99046">
        <ele>19</ele>
        <time>2018-01-04T18:52:32Z</time>
      </trkpt>
      <trkpt lat="50.7756" lon="2.99043">
        <ele>19</ele>
        <time>2018-01-04T18:53:32Z</time>
      </trkpt>
      <trkpt lat="50.77585" lon="2.9903">
        <ele>20</ele>
        <time>2018-01-04T18:54:32Z</time>
      </trkpt>
      <trkpt lat="50.77641" lon="2.98999">
        <ele>21</ele>
        <time>2018-01-04T18:55:32Z</time>
      </trkpt>
      <trkpt lat="50.7769" lon="2.98968">
        <ele>21</ele>
        <time>2018-01-04T18:56:32Z</time>
      </trkpt>
      <trkpt lat="50.77714" lon="2.98952">
        <ele>20</ele>
        <time>2018-01-04T18:57:32Z</time>
      </trkpt>
      <trkpt lat="50.77714" lon="2.98952">
        <ele>20</ele>
        <time>2018-01-04T18:58:32Z</time>
      </trkpt>
      <trkpt lat="50.77743" lon="2.98927">
        <ele>20</ele>
        <time>2018-01-04T18:59:32Z</time>
      </trkpt>
      <trkpt lat="50.7777" lon="2.989">
        <ele>20</ele>
        <time>2018-01-04T19:00:32Z</time>
      </trkpt>
      <trkpt lat="50.77815" lon="2.98844">
        <ele>20</ele>
        <time>2018-01-04T19:01:32Z</time>
      </trkpt>
      <trkpt lat="50.77835" lon="2.98813">
        <ele>20</ele>
        <time>2018-01-04T19:02:32Z</time>
      </trkpt>
      <trkpt lat="50.77857" lon="2.98772">
        <ele>19</ele>
        <time>2018-01-04T19:03:32Z</time>
      </trkpt>
      <trkpt lat="50.77874" lon="2.98734">
        <ele>19</ele>
        <time>2018-01-04T19:04:32Z</time>
      </trkpt>
      <trkpt lat="50.77878" lon="2.98723">
        <ele>19</ele>
        <time>2018-01-04T19:05:32Z</time>
      </trkpt>
      <trkpt lat="50.77888" lon="2.98699">
        <ele>19</ele>
        <time>2018-01-04T19:06:32Z</time>
      </trkpt>
      <trkpt lat="50.77891" lon="2.98689">
        <ele>19</ele>
        <time>2018-01-04T19:07:32Z</time>
      </trkpt>
      <trkpt lat="50.77899" lon="2.98665">
        <ele>19</ele>
        <time>2018-01-04T19:08:32Z</time>
      </trkpt>
      <trkpt lat="50.77902" lon="2.98654">
        <ele>19</ele>
        <time>2018-01-04T19:09:32Z</time>
      </trkpt>
      <trkpt lat="50.77922" lon="2.98583">
        <ele>18</ele>
        <time>2018-01-04T19:10:32Z</time>
      </trkpt>
      <trkpt lat="50.77971" lon="2.98416">
        <ele>17</ele>
        <time>2018-01-04T19:11:32Z</time>
      </trkpt>
      <trkpt lat="50.77998" lon="2.98342">
        <ele>16</ele>
        <time>2018-01-04T19:12:32Z</time>
      </trkpt>
      <trkpt lat="50.78102" lon="2.98106">
        <ele>17</ele>
        <time>2018-01-04T19:13:32Z</time>
      </trkpt>
      <trkpt lat="50.78211" lon="2.97835">
        <ele>17</ele>
        <time>2018-01-04T19:14:32Z</time>
      </trkpt>
      <trkpt lat="50.78247" lon="2.97742">
        <ele>18</ele>
        <time>2018-01-04T19:15:32Z</time>
      </trkpt>
      <trkpt lat="50.78353" lon="2.97495">
        <ele>19</ele>
        <time>2018-01-04T19:16:32Z</time>
      </trkpt>
      <trkpt lat="50.78377" lon="2.97443">
        <ele>19</ele>
        <time>2018-01-04T19:17:32Z</time>
      </trkpt>
      <trkpt lat="50.7841" lon="2.97376">
        <ele>19</ele>
        <time>2018-01-04T19:18:32Z</time>
      </trkpt>
      <trkpt lat="50.7842" lon="2.97356">
        <ele>19</ele>
        <time>2018-01-04T19:19:32Z</time>
      </trkpt>
      <trkpt lat="50.78457" lon="2.97293">
        <ele>20</ele>
        <time>2018-01-04T19:20:32Z</time>
      </trkpt>
      <trkpt lat="50.78492" lon="2.97241">
        <ele>21</ele>
        <time>2018-01-04T19:21:32Z</time>
      </trkpt>
      <trkpt lat="50.78531" lon="2.97181">
        <ele>20</ele>
        <time>2018-01-04T19:22:32Z</time>
      </trkpt>
      <trkpt lat="50.78577" lon="2.97114">
        <ele>19</ele>
        <time>2018-01-04T19:23:32Z</time>
      </trkpt>
      <trkpt lat="50.78603" lon="2.97085">
        <ele>19</ele>
        <time>2018-01-04T19:24:32Z</time>
      </trkpt>
      <trkpt lat="50.78617" lon="2.97064">
        <ele>19</ele>
        <time>2018-01-04T19:25:32Z</time>
      </trkpt>
      <trkpt lat="50.78638" lon="2.97014">
        <ele>19</ele>
        <time>2018-01-04T19:26:32Z</time>
      </trkpt>
      <trkpt lat="50.78673" lon="2.96902">
        <ele>19</ele>
        <time>2018-01-04T19:27:32Z</time>
      </trkpt>
      <trkpt lat="50.7868" lon="2.96866">
        <ele>19</ele>
        <time>2018-01-04T19:28:32Z</time>
      </trkpt>
      <trkpt lat="50.78682" lon="2.96839">
        <ele>19</ele>
        <time>2018-01-04T19:29:32Z</time>
      </trkpt>
      <trkpt lat="50.78686" lon="2.96688">
        <ele>19</ele>
        <time>2018-01-04T19:30:32Z</time>
      </trkpt>
      <trkpt lat="50.78686" lon="2.96682">
        <ele>19</ele>
        <time>2018-01-04T19:31:32Z</time>
      </trkpt>
      <trkpt lat="50.78686" lon="2.96676">
        <ele>19</ele>
        <time>2018-01-04T19:32:32Z</time>
      </trkpt>
      <trkpt lat="50.78688" lon="2.96629">
        <ele>19</ele>
        <time>2018-01-04T19:33:32Z</time>
      </trkpt>
      <trkpt lat="50.78688" lon="2.96626">
        <ele>19</ele>
        <time>2018-01-04T19:34:32Z</time>
      </trkpt>
      <trkpt lat="50.78688" lon="2.96615">
        <ele>19</ele>
        <time>2018-01-04T19:35:32Z</time>
      </trkpt>
      <trkpt lat="50.78688" lon="2.96611">
        <ele>19</ele>
        <time>2018-01-04T19:36:32Z</time>
      </trkpt>
      <trkpt lat="50.78688" lon="2.96594">
        <ele>20</ele>
        <time>2018-01-04T19:37:32Z</time>
      </trkpt>
      <trkpt lat="50.78689" lon="2.96552">
        <ele>20</ele>
        <time>2018-01-04T19:38:32Z</time>
      </trkpt>
      <trkpt lat="50.78687" lon="2.96457">
        <ele>22</ele>
        <time>2018-01-04T19:39:32Z</time>
      </trkpt>
      <trkpt lat="50.78685" lon="2.96425">
        <ele>22</ele>
        <time>2018-01-04T19:40:32Z</time>
      </trkpt>
      <trkpt lat="50.78683" lon="2.96409">
        <ele>22</ele>
        <time>2018-01-04T19:41:32Z</time>
      </trkpt>
      <trkpt lat="50.78683" lon="2.96409">
        <ele>22</ele>
        <time>2018-01-04T19:42:32Z</time>
      </trkpt>
      <trkpt lat="50.78673" lon="2.96406">
        <ele>22</ele>
        <time>2018-01-04T19:43:32Z</time>
      </trkpt>
      <trkpt lat="50.78673" lon="2.96406">
        <ele>22</ele>
        <time>2018-01-04T19:44:32Z</time>
      </trkpt>
      <trkpt lat="50.78668" lon="2.96383">
        <ele>22</ele>
        <time>2018-01-04T19:45:32Z</time>
      </trkpt>
      <trkpt lat="50.78665" lon="2.96371">
        <ele>22</ele>
        <time>2018-01-04T19:46:32Z</time>
      </trkpt>
      <trkpt lat="50.78653" lon="2.96334">
        <ele>22</ele>
        <time>2018-01-04T19:47:32Z</time>
      </trkpt>
      <trkpt lat="50.78631" lon="2.96264">
        <ele>21</ele>
        <time>2018-01-04T19:48:32Z</time>
      </trkpt>
      <trkpt lat="50.7862" lon="2.96221">
        <ele>21</ele>
        <time>2018-01-04T19:49:32Z</time>
      </trkpt>
      <trkpt lat="50.78603" lon="2.96172">
        <ele>21</ele>
        <time>2018-01-04T19:50:32Z</time>
      </trkpt>
      <trkpt lat="50.78588" lon="2.96127">
        <ele>21</ele>
        <time>2018-01-04T19:51:32Z</time>
      </trkpt>
      <trkpt lat="50.78584" lon="2.96109">
        <ele>21</ele>
        <time>2018-01-04T19:52:32Z</time>
      </trkpt>
      <trkpt lat="50.78582" lon="2.96093">
        <ele>21</ele>
        <time>2018-01-04T19:53:32Z</time>
      </trkpt>
      <trkpt lat="50.7858" lon="2.96065">
        <ele>21</ele>
        <time>2018-01-04T19:54:32Z</time>
      </trkpt>
      <trkpt lat="50.78577" lon="2.96048">
        <ele>21</ele>
        <time>2018-01-04T19:55:32Z</time>
      </trkpt>
      <trkpt lat="50.78572" lon="2.96032">
        <ele>21</ele>
        <time>2018-01-04T19:56:32Z</time>
      </trkpt>
      <trkpt lat="50.78558" lon="2.95998">
        <ele>21</ele>
        <time>2018-01-04T19:57:32Z</time>
      </trkpt>
      <trkpt lat="50.78532" lon="2.95938">
        <ele>21</ele>
        <time>2018-01-04T19:58:32Z</time>
      </trkpt>
      <trkpt lat="50.78495" lon="2.95857">
        <ele>23</ele>
        <time>2018-01-04T19:59:32Z</time>
      </trkpt>
      <trkpt lat="50.78482" lon="2.95825">
        <ele>23</ele>
        <time>2018-01-04T20:00:32Z</time>
      </trkpt>
      <trkpt lat="50.78474" lon="2.95799">
        <ele>23</ele>
        <time>2018-01-04T20:01:32Z</time>
      </trkpt>
      <trkpt lat="50.78457" lon="2.95731">
        <ele>24</ele>
        <time>2018-01-04T20:02:32Z</time>
      </trkpt>
      <trkpt lat="50.78454" lon="2.95718">
        <ele>24</ele>
        <time>2018-01-04T20:03:32Z</time>
      </trkpt>
      <trkpt lat="50.78442" lon="2.95665">
        <ele>25</ele>
        <time>2018-01-04T20:04:32Z</time>
      </trkpt>
      <trkpt lat="50.78437" lon="2.95634">
        <ele>25</ele>
        <time>2018-01-04T20:05:32Z</time>
      </trkpt>
      <trkpt lat="50.78437" lon="2.95599">
        <ele>25</ele>
        <time>2018-01-04T20:06:32Z</time>
      </trkpt>
      <trkpt lat="50.78441" lon="2.95524">
        <ele>24</ele>
        <time>2018-01-04T20:07:32Z</time>
      </trkpt>
      <trkpt lat="50.78447" lon="2.95448">
        <ele>25</ele>
        <time>2018-01-04T20:08:32Z</time>
      </trkpt>
      <trkpt lat="50.78458" lon="2.95341">
        <ele>25</ele>
        <time>2018-01-04T20:09:32Z</time>
      </trkpt>
      <trkpt lat="50.7846" lon="2.95312">
        <ele>26</ele>
        <time>2018-01-04T20:10:32Z</time>
      </trkpt>
      <trkpt lat="50.78461" lon="2.95271">
        <ele>26</ele>
        <time>2018-01-04T20:11:32Z</time>
      </trkpt>
      <trkpt lat="50.7846" lon="2.95233">
        <ele>26</ele>
        <time>2018-01-04T20:12:32Z</time>
      </trkpt>
      <trkpt lat="50.78458" lon="2.95202">
        <ele>26</ele>
        <time>2018-01-04T20:13:32Z</time>
      </trkpt>
      <trkpt lat="50.78458" lon="2.95202">
        <ele>26</ele>
        <time>2018-01-04T20:14:32Z</time>
      </trkpt>
      <trkpt lat="50.78458" lon="2.95194">
        <ele>26</ele>
        <time>2018-01-04T20:15:32Z</time>
      </trkpt>
      <trkpt lat="50.78456" lon="2.95183">
        <ele>26</ele>
        <time>2018-01-04T20:16:32Z</time>
      </trkpt>
      <trkpt lat="50.78455" lon="2.95173">
        <ele>26</ele>
        <time>2018-01-04T20:17:32Z</time>
      </trkpt>
      <trkpt lat="50.78451" lon="2.95155">
        <ele>26</ele>
        <time>2018-01-04T20:18:32Z</time>
      </trkpt>
      <trkpt lat="50.78447" lon="2.9514">
        <ele>26</ele>
        <time>2018-01-04T20:19:32Z</time>
      </trkpt>
      <trkpt lat="50.7844" lon="2.95119">
        <ele>26</ele>
        <time>2018-01-04T20:20:32Z</time>
      </trkpt>
      <trkpt lat="50.78433" lon="2.951">
        <ele>26</ele>
        <time>2018-01-04T20:21:32Z</time>
      </trkpt>
      <trkpt lat="50.78429" lon="2.95084">
        <ele>26</ele>
        <time>2018-01-04T20:22:32Z</time>
      </trkpt>
      <trkpt lat="50.78426" lon="2.95071">
        <ele>26</ele>
        <time>2018-01-04T20:23:32Z</time>
      </trkpt>
      <trkpt lat="50.78426" lon="2.95058">
        <ele>26</ele>
        <time>2018-01-04T20:24:32Z</time>
      </trkpt>
      <trkpt lat="50.78425" lon="2.95008">
        <ele>26</ele>
        <time>2018-01-04T20:25:32Z</time>
      </trkpt>
      <trkpt lat="50.78422" lon="2.94968">
        <ele>26</ele>
        <time>2018-01-04T20:26:32Z</time>
      </trkpt>
      <trkpt lat="50.78417" lon="2.9493">
        <ele>27</ele>
        <time>2018-01-04T20:27:32Z</time>
      </trkpt>
      <trkpt lat="50.78413" lon="2.94906">
        <ele>27</ele>
        <time>2018-01-04T20:28:32Z</time>
      </trkpt>
      <trkpt lat="50.78407" lon="2.94878">
        <ele>27</ele>
        <time>2018-01-04T20:29:32Z</time>
      </trkpt>
      <trkpt lat="50.78399" lon="2.9485">
        <ele>28</ele>
        <time>2018-01-04T20:30:32Z</time>
      </trkpt>
      <trkpt lat="50.78388" lon="2.94808">
        <ele>28</ele>
        <time>2018-01-04T20:31:32Z</time>
      </trkpt>
      <trkpt lat="50.78388" lon="2.94808">
        <ele>28</ele>
        <time>2018-01-04T20:32:32Z</time>
      </trkpt>
      <trkpt lat="50.78404" lon="2.9479">
        <ele>29</ele>
        <time>2018-01-04T20:33:32Z</time>
      </trkpt>
      <trkpt lat="50.78404" lon="2.9479">
        <ele>29</ele>
        <time>2018-01-04T20:34:32Z</time>
      </trkpt>
      <trkpt lat="50.78399" lon="2.94773">
        <ele>29</ele>
        <time>2018-01-04T20:35:32Z</time>
      </trkpt>
      <trkpt lat="50.78393" lon="2.94755">
        <ele>29</ele>
        <time>2018-01-04T20:36:32Z</time>
      </trkpt>
      <trkpt lat="50.78367" lon="2.94698">
        <ele>29</ele>
        <time>2018-01-04T20:37:32Z</time>
      </trkpt>
      <trkpt lat="50.78349" lon="2.94644">
        <ele>29</ele>
        <time>2018-01-04T20:38:32Z</time>
      </trkpt>
      <trkpt lat="50.78338" lon="2.946">
        <ele>29</ele>
        <time>2018-01-04T20:39:32Z</time>
      </trkpt>
      <trkpt lat="50.78316" lon="2.94523">
        <ele>29</ele>
        <time>2018-01-04T20:40:32Z</time>
      </trkpt>
      <trkpt lat="50.78308" lon="2.94499">
        <ele>29</ele>
        <time>2018-01-04T20:41:32Z</time>
      </trkpt>
      <trkpt lat="50.78257" lon="2.9437">
        <ele>30</ele>
        <time>2018-01-04T20:42:32Z</time>
      </trkpt>
      <trkpt lat="50.78231" lon="2.94306">
        <ele>29</ele>
        <time>2018-01-04T20:43:32Z</time>
      </trkpt>
      <trkpt lat="50.78231" lon="2.94306">
        <ele>29</ele>
        <time>2018-01-04T20:44:32Z</time>
      </trkpt>
      <trkpt lat="50.78273" lon="2.94247">
        <ele>30</ele>
        <time>2018-01-04T20:45:32Z</time>
      </trkpt>
      <trkpt lat="50.78362" lon="2.94117">
        <ele>32</ele>
        <time>2018-01-04T20:46:32Z</time>
      </trkpt>
      <trkpt lat="50.78366" lon="2.9411">
        <ele>32</ele>
        <time>2018-01-04T20:47:32Z</time>
      </trkpt>
      <trkpt lat="50.78385" lon="2.94084">
        <ele>32</ele>
        <time>2018-01-04T20:48:32Z</time>
      </trkpt>
      <trkpt lat="50.78466" lon="2.93952">
        <ele>30</ele>
        <time>2018-01-04T20:49:32Z</time>
      </trkpt>
      <trkpt lat="50.78533" lon="2.93861">
        <ele>30</ele>
        <time>2018-01-04T20:50:32Z</time>
      </trkpt>
      <trkpt lat="50.78571" lon="2.93806">
        <ele>31</ele>
        <time>2018-01-04T20:51:32Z</time>
      </trkpt>
      <trkpt lat="50.78599" lon="2.93761">
        <ele>32</ele>
        <time>2018-01-04T20:52:32Z</time>
      </trkpt>
      <trkpt lat="50.78612" lon="2.93736">
        <ele>32</ele>
        <time>2018-01-04T20:53:32Z</time>
      </trkpt>
      <trkpt lat="50.78622" lon="2.93714">
        <ele>33</ele>
        <time>2018-01-04T20:54:32Z</time>
      </trkpt>
      <trkpt lat="50.78665" lon="2.93605">
        <ele>35</ele>
        <time>2018-01-04T20:55:32Z</time>
      </trkpt>
      <trkpt lat="50.78677" lon="2.93573">
        <ele>35</ele>
        <time>2018-01-04T20:56:32Z</time>
      </trkpt>
      <trkpt lat="50.78696" lon="2.93526">
        <ele>36</ele>
        <time>2018-01-04T20:57:32Z</time>
      </trkpt>
      <trkpt lat="50.78716" lon="2.93487">
        <ele>36</ele>
        <time>2018-01-04T20:58:32Z</time>
      </trkpt>
      <trkpt lat="50.78731" lon="2.93449">
        <ele>37</ele>
        <time>2018-01-04T20:59:32Z</time>
      </trkpt>
      <trkpt lat="50.78742" lon="2.93411">
        <ele>37</ele>
        <time>2018-01-04T21:00:32Z</time>
      </trkpt>
      <trkpt lat="50.78749" lon="2.93386">
        <ele>37</ele>
        <time>2018-01-04T21:01:32Z</time>
      </trkpt>
      <trkpt lat="50.78756" lon="2.9336">
        <ele>38</ele>
        <time>2018-01-04T21:02:32Z</time>
      </trkpt>
      <trkpt lat="50.78763" lon="2.93342">
        <ele>38</ele>
        <time>2018-01-04T21:03:32Z</time>
      </trkpt>
      <trkpt lat="50.78779" lon="2.93307">
        <ele>39</ele>
        <time>2018-01-04T21:04:32Z</time>
      </trkpt>
      <trkpt lat="50.78798" lon="2.93274">
        <ele>39</ele>
        <time>2018-01-04T21:05:32Z</time>
      </trkpt>
      <trkpt lat="50.78821" lon="2.93239">
        <ele>40</ele>
        <time>2018-01-04T21:06:32Z</time>
      </trkpt>
      <trkpt lat="50.78833" lon="2.93219">
        <ele>40</ele>
        <time>2018-01-04T21:07:32Z</time>
      </trkpt>
      <trkpt lat="50.78844" lon="2.93204">
        <ele>41</ele>
        <time>2018-01-04T21:08:32Z</time>
      </trkpt>
      <trkpt lat="50.78844" lon="2.93204">
        <ele>41</ele>
        <time>2018-01-04T21:09:32Z</time>
      </trkpt>
      <trkpt lat="50.78858" lon="2.9319">
        <ele>41</ele>
        <time>2018-01-04T21:10:32Z</time>
      </trkpt>
      <trkpt lat="50.78871" lon="2.93174">
        <ele>41</ele>
        <time>2018-01-04T21:11:32Z</time>
      </trkpt>
      <trkpt lat="50.78885" lon="2.93156">
        <ele>42</ele>
        <time>2018-01-04T21:12:32Z</time>
      </trkpt>
      <trkpt lat="50.78901" lon="2.9314">
        <ele>42</ele>
        <time>2018-01-04T21:13:32Z</time>
      </trkpt>
      <trkpt lat="50.78908" lon="2.93133">
        <ele>42</ele>
        <time>2018-01-04T21:14:32Z</time>
      </trkpt>
      <trkpt lat="50.78926" lon="2.93121">
        <ele>42</ele>
        <time>2018-01-04T21:15:32Z</time>
      </trkpt>
      <trkpt lat="50.78936" lon="2.93116">
        <ele>42</ele>
        <time>2018-01-04T21:16:32Z</time>
      </trkpt>
      <trkpt lat="50.78969" lon="2.93103">
        <ele>42</ele>
        <time>2018-01-04T21:17:32Z</time>
      </trkpt>
      <trkpt lat="50.79122" lon="2.93062">
        <ele>44</ele>
        <time>2018-01-04T21:18:32Z</time>
      </trkpt>
      <trkpt lat="50.79133" lon="2.93058">
        <ele>44</ele>
        <time>2018-01-04T21:19:32Z</time>
      </trkpt>
      <trkpt lat="50.79152" lon="2.93048">
        <ele>44</ele>
        <time>2018-01-04T21:20:32Z</time>
      </trkpt>
      <trkpt lat="50.79178" lon="2.93018">
        <ele>44</ele>
        <time>2018-01-04T21:21:32Z</time>
      </trkpt>
      <trkpt lat="50.79272" lon="2.92887">
        <ele>45</ele>
        <time>2018-01-04T21:22:32Z</time>
      </trkpt>
      <trkpt lat="50.79272" lon="2.92887">
        <ele>45</ele>
        <time>2018-01-04T21:23:32Z</time>
      </trkpt>
      <trkpt lat="50.79269" lon="2.92861">
        <ele>46</ele>
        <time>2018-01-04T21:24:32Z</time>
      </trkpt>
      <trkpt lat="50.79267" lon="2.92846">
        <ele>46</ele>
        <time>2018-01-04T21:25:32Z</time>
      </trkpt>
      <trkpt lat="50.79261" lon="2.92825">
        <ele>46</ele>
        <time>2018-01-04T21:26:32Z</time>
      </trkpt>
      <trkpt lat="50.79252" lon="2.92804">
        <ele>46</ele>
        <time>2018-01-04T21:27:32Z</time>
      </trkpt>
      <trkpt lat="50.79241" lon="2.92779">
        <ele>46</ele>
        <time>2018-01-04T21:28:32Z</time>
      </trkpt>
      <trkpt lat="50.79233" lon="2.92758">
        <ele>47</ele>
        <time>2018-01-04T21:29:32Z</time>
      </trkpt>
      <trkpt lat="50.79225" lon="2.92735">
        <ele>47</ele>
        <time>2018-01-04T21:30:32Z</time>
      </trkpt>
      <trkpt lat="50.79218" lon="2.92708">
        <ele>47</ele>
        <time>2018-01-04T21:31:32Z</time>
      </trkpt>
      <trkpt lat="50.79211" lon="2.92687">
        <ele>48</ele>
        <time>2018-01-04T21:32:32Z</time>
      </trkpt>
      <trkpt lat="50.79161" lon="2.92537">
        <ele>50</ele>
        <time>2018-01-04T21:33:32Z</time>
      </trkpt>
      <trkpt lat="50.79159" lon="2.92526">
        <ele>50</ele>
        <time>2018-01-04T21:34:32Z</time>
      </trkpt>
      <trkpt lat="50.79158" lon="2.92515">
        <ele>50</ele>
        <time>2018-01-04T21:35:32Z</time>
      </trkpt>
      <trkpt lat="50.79159" lon="2.92503">
        <ele>50</ele>
        <time>2018-01-04T21:36:32Z</time>
      </trkpt>
      <trkpt lat="50.79162" lon="2.92491">
        <ele>50</ele>
        <time>2018-01-04T21:37:32Z</time>
      </trkpt>
      <trkpt lat="50.79173" lon="2.92475">
        <ele>50</ele>
        <time>2018-01-04T21:38:32Z</time>
      </trkpt>
      <trkpt lat="50.79182" lon="2.92465">
        <ele>49</ele>
        <time>2018-01-04T21:39:32Z</time>
      </trkpt>
      <trkpt lat="50.79202" lon="2.9245">
        <ele>49</ele>
        <time>2018-01-04T21:40:32Z</time>
      </trkpt>
      <trkpt lat="50.79213" lon="2.9244">
        <ele>48</ele>
        <time>2018-01-04T21:41:32Z</time>
      </trkpt>
      <trkpt lat="50.79218" lon="2.92433">
        <ele>48</ele>
        <time>2018-01-04T21:42:32Z</time>
      </trkpt>
      <trkpt lat="50.79221" lon="2.92427">
        <ele>48</ele>
        <time>2018-01-04T21:43:32Z</time>
      </trkpt>
      <trkpt lat="50.79221" lon="2.92427">
        <ele>48</ele>
        <time>2018-01-04T21:44:32Z</time>
      </trkpt>
      <trkpt lat="50.79276" lon="2.92445">
        <ele>47</ele>
        <time>2018-01-04T21:45:32Z</time>
      </trkpt>
      <trkpt lat="50.79292" lon="2.9245">
        <ele>46</ele>
        <time>2018-01-04T21:46:32Z</time>
      </trkpt>
      <trkpt lat="50.79311" lon="2.92454">
        <ele>45</ele>
        <time>2018-01-04T21:47:32Z</time>
      </trkpt>
      <trkpt lat="50.79342" lon="2.92462">
        <ele>44</ele>
        <time>2018-01-04T21:48:32Z</time>
      </trkpt>
      <trkpt lat="50.79395" lon="2.92481">
        <ele>41</ele>
        <time>2018-01-04T21:49:32Z</time>
      </trkpt>
      <trkpt lat="50.7941" lon="2.92488">
        <ele>40</ele>
        <time>2018-01-04T21:50:32Z</time>
      </trkpt>
      <trkpt lat="50.79418" lon="2.92493">
        <ele>40</ele>
        <time>2018-01-04T21:51:32Z</time>
      </trkpt>
      <trkpt lat="50.79429" lon="2.92503">
        <ele>39</ele>
        <time>2018-01-04T21:52:32Z</time>
      </trkpt>
      <trkpt lat="50.7945" lon="2.92526">
        <ele>38</ele>
        <time>2018-01-04T21:53:32Z</time>
      </trkpt>
      <trkpt lat="50.79503" lon="2.92587">
        <ele>35</ele>
        <time>2018-01-04T21:54:32Z</time>
      </trkpt>
      <trkpt lat="50.79512" lon="2.92595">
        <ele>35</ele>
        <time>2018-01-04T21:55:32Z</time>
      </trkpt>
      <trkpt lat="50.79521" lon="2.92599">
        <ele>34</ele>
        <time>2018-01-04T21:56:32Z</time>
      </trkpt>
      <trkpt lat="50.79571" lon="2.9261">
        <ele>32</ele>
        <time>2018-01-04T21:57:32Z</time>
      </trkpt>
      <trkpt lat="50.79597" lon="2.92616">
        <ele>32</ele>
        <time>2018-01-04T21:58:32Z</time>
      </trkpt>
      <trkpt lat="50.7962" lon="2.92615">
        <ele>31</ele>
        <time>2018-01-04T21:59:32Z</time>
      </trkpt>
      <trkpt lat="50.79641" lon="2.9261">
        <ele>30</ele>
        <time>2018-01-04T22:00:32Z</time>
      </trkpt>
      <trkpt lat="50.79654" lon="2.92609">
        <ele>29</ele>
        <time>2018-01-04T22:01:32Z</time>
      </trkpt>
      <trkpt lat="50.79691" lon="2.92606">
        <ele>29</ele>
        <time>2018-01-04T22:02:32Z</time>
      </trkpt>
      <trkpt lat="50.79702" lon="2.92604">
        <ele>29</ele>
        <time>2018-01-04T22:03:32Z</time>
      </trkpt>
      <trkpt lat="50.79721" lon="2.926">
        <ele>29</ele>
        <time>2018-01-04T22:04:32Z</time>
      </trkpt>
      <trkpt lat="50.79756" lon="2.92593">
        <ele>29</ele>
        <time>2018-01-04T22:05:32Z</time>
      </trkpt>
      <trkpt lat="50.79785" lon="2.92589">
        <ele>30</ele>
        <time>2018-01-04T22:06:32Z</time>
      </trkpt>
      <trkpt lat="50.79803" lon="2.92586">
        <ele>30</ele>
        <time>2018-01-04T22:07:32Z</time>
      </trkpt>
      <trkpt lat="50.79836" lon="2.92579">
        <ele>31</ele>
        <time>2018-01-04T22:08:32Z</time>
      </trkpt>
      <trkpt lat="50.79871" lon="2.92568">
        <ele>33</ele>
        <time>2018-01-04T22:09:32Z</time>
      </trkpt>
      <trkpt lat="50.79892" lon="2.92562">
        <ele>34</ele>
        <time>2018-01-04T22:10:32Z</time>
      </trkpt>
      <trkpt lat="50.79967" lon="2.92553">
        <ele>38</ele>
        <time>2018-01-04T22:11:32Z</time>
      </trkpt>
      <trkpt lat="50.79991" lon="2.92547">
        <ele>39</ele>
        <time>2018-01-04T22:12:32Z</time>
      </trkpt>
      <trkpt lat="50.80002" lon="2.92541">
        <ele>40</ele>
        <time>2018-01-04T22:13:32Z</time>
      </trkpt>
      <trkpt lat="50.80009" lon="2.92535">
        <ele>40</ele>
        <time>2018-01-04T22:14:32Z</time>
      </trkpt>
      <trkpt lat="50.80018" lon="2.92528">
        <ele>40</ele>
        <time>2018-01-04T22:15:32Z</time>
      </trkpt>
      <trkpt lat="50.80055" lon="2.92489">
        <ele>42</ele>
        <time>2018-01-04T22:16:32Z</time>
      </trkpt>
      <trkpt lat="50.8015" lon="2.92405">
        <ele>47</ele>
        <time>2018-01-04T22:17:32Z</time>
      </trkpt>
      <trkpt lat="50.80169" lon="2.92392">
        <ele>47</ele>
        <time>2018-01-04T22:18:32Z</time>
      </trkpt>
      <trkpt lat="50.80217" lon="2.92366">
        <ele>49</ele>
        <time>2018-01-04T22:19:32Z</time>
      </trkpt>
      <trkpt lat="50.80235" lon="2.92353">
        <ele>49</ele>
        <time>2018-01-04T22:20:32Z</time>
      </trkpt>
      <trkpt lat="50.80339" lon="2.9228">
        <ele>51</ele>
        <time>2018-01-04T22:21:32Z</time>
      </trkpt>
      <trkpt lat="50.80427" lon="2.92215">
        <ele>52</ele>
        <time>2018-01-04T22:22:32Z</time>
      </trkpt>
      <trkpt lat="50.80465" lon="2.92186">
        <ele>53</ele>
        <time>2018-01-04T22:23:32Z</time>
      </trkpt>
      <trkpt lat="50.80465" lon="2.92186">
        <ele>53</ele>
        <time>2018-01-04T22:24:32Z</time>
      </trkpt>
      <trkpt lat="50.80464" lon="2.92169">
        <ele>53</ele>
        <time>2018-01-04T22:25:32Z</time>
      </trkpt>
      <trkpt lat="50.80467" lon="2.92164">
        <ele>53</ele>
        <time>2018-01-04T22:26:32Z</time>
      </trkpt>
      <trkpt lat="50.80472" lon="2.92155">
        <ele>53</ele>
        <time>2018-01-04T22:27:32Z</time>
      </trkpt>
      <trkpt lat="50.80482" lon="2.92143">
        <ele>53</ele>
        <time>2018-01-04T22:28:32Z</time>
      </trkpt>
      <trkpt lat="50.80561" lon="2.92059">
        <ele>54</ele>
        <time>2018-01-04T22:29:32Z</time>
      </trkpt>
      <trkpt lat="50.80631" lon="2.91981">
        <ele>54</ele>
        <time>2018-01-04T22:30:32Z</time>
      </trkpt>
      <trkpt lat="50.80669" lon="2.91943">
        <ele>55</ele>
        <time>2018-01-04T22:31:32Z</time>
      </trkpt>
      <trkpt lat="50.80672" lon="2.91937">
        <ele>55</ele>
        <time>2018-01-04T22:32:32Z</time>
      </trkpt>
      <trkpt lat="50.80674" lon="2.91934">
        <ele>55</ele>
        <time>2018-01-04T22:33:32Z</time>
      </trkpt>
      <trkpt lat="50.80674" lon="2.91931">
        <ele>55</ele>
        <time>2018-01-04T22:34:32Z</time>
      </trkpt>
      <trkpt lat="50.80675" lon="2.91927">
        <ele>55</ele>
        <time>2018-01-04T22:35:32Z</time>
      </trkpt>
      <trkpt lat="50.80672" lon="2.9192">
        <ele>55</ele>
        <time>2018-01-04T22:36:32Z</time>
      </trkpt>
      <trkpt lat="50.80652" lon="2.91879">
        <ele>55</ele>
        <time>2018-01-04T22:37:32Z</time>
      </trkpt>
      <trkpt lat="50.80624" lon="2.9182">
        <ele>55</ele>
        <time>2018-01-04T22:38:32Z</time>
      </trkpt>
      <trkpt lat="50.80612" lon="2.91788">
        <ele>54</ele>
        <time>2018-01-04T22:39:32Z</time>
      </trkpt>
      <trkpt lat="50.80614" lon="2.91767">
        <ele>54</ele>
        <time>2018-01-04T22:40:32Z</time>
      </trkpt>
      <trkpt lat="50.8063" lon="2.9169">
        <ele>53</ele>
        <time>2018-01-04T22:41:32Z</time>
      </trkpt>
      <trkpt lat="50.80658" lon="2.91559">
        <ele>54</ele>
        <time>2018-01-04T22:42:32Z</time>
      </trkpt>
      <trkpt lat="50.80661" lon="2.91552">
        <ele>54</ele>
        <time>2018-01-04T22:43:32Z</time>
      </trkpt>
      <trkpt lat="50.80666" lon="2.91545">
        <ele>54</ele>
        <time>2018-01-04T22:44:32Z</time>
      </trkpt>
      <trkpt lat="50.80671" lon="2.91541">
        <ele>55</ele>
        <time>2018-01-04T22:45:32Z</time>
      </trkpt>
      <trkpt lat="50.80704" lon="2.91514">
        <ele>55</ele>
        <time>2018-01-04T22:46:32Z</time>
      </trkpt>
      <trkpt lat="50.80804" lon="2.91432">
        <ele>54</ele>
        <time>2018-01-04T22:47:32Z</time>
      </trkpt>
      <trkpt lat="50.80818" lon="2.9142">
        <ele>54</ele>
        <time>2018-01-04T22:48:32Z</time>
      </trkpt>
      <trkpt lat="50.80824" lon="2.91411">
        <ele>54</ele>
        <time>2018-01-04T22:49:32Z</time>
      </trkpt>
      <trkpt lat="50.80826" lon="2.91405">
        <ele>54</ele>
        <time>2018-01-04T22:50:32Z</time>
      </trkpt>
      <trkpt lat="50.80827" lon="2.91398">
        <ele>54</ele>
        <time>2018-01-04T22:51:32Z</time>
      </trkpt>
      <trkpt lat="50.80826" lon="2.91392">
        <ele>54</ele>
        <time>2018-01-04T22:52:32Z</time>
      </trkpt>
      <trkpt lat="50.80823" lon="2.91382">
        <ele>54</ele>
        <time>2018-01-04T22:53:32Z</time>
      </trkpt>
      <trkpt lat="50.8073" lon="2.91133">
        <ele>54</ele>
        <time>2018-01-04T22:54:32Z</time>
      </trkpt>
      <trkpt lat="50.80669" lon="2.90974">
        <ele>56</ele>
        <time>2018-01-04T22:55:32Z</time>
      </trkpt>
      <trkpt lat="50.8065" lon="2.90921">
        <ele>56</ele>
        <time>2018-01-04T22:56:32Z</time>
      </trkpt>
      <trkpt lat="50.80646" lon="2.90908">
        <ele>56</ele>
        <time>2018-01-04T22:57:32Z</time>
      </trkpt>
      <trkpt lat="50.80645" lon="2.90899">
        <ele>56</ele>
        <time>2018-01-04T22:58:32Z</time>
      </trkpt>
      <trkpt lat="50.80645" lon="2.90888">
        <ele>56</ele>
        <time>2018-01-04T22:59:32Z</time>
      </trkpt>
      <trkpt lat="50.80648" lon="2.90879">
        <ele>56</ele>
        <time>2018-01-04T23:00:32Z</time>
      </trkpt>
      <trkpt lat="50.8069" lon="2.90776">
        <ele>56</ele>
        <time>2018-01-04T23:01:32Z</time>
      </trkpt>
      <trkpt lat="50.80694" lon="2.90764">
        <ele>56</ele>
        <time>2018-01-04T23:02:32Z</time>
      </trkpt>
      <trkpt lat="50.80696" lon="2.90747">
        <ele>56</ele>
        <time>2018-01-04T23:03:32Z</time>
      </trkpt>
      <trkpt lat="50.80681" lon="2.90645">
        <ele>55</ele>
        <time>2018-01-04T23:04:32Z</time>
      </trkpt>
      <trkpt lat="50.80642" lon="2.90474">
        <ele>52</ele>
        <time>2018-01-04T23:05:32Z</time>
      </trkpt>
      <trkpt lat="50.80639" lon="2.90449">
        <ele>51</ele>
        <time>2018-01-04T23:06:32Z</time>
      </trkpt>
      <trkpt lat="50.80639" lon="2.90441">
        <ele>51</ele>
        <time>2018-01-04T23:07:32Z</time>
      </trkpt>
      <trkpt lat="50.8064" lon="2.90429">
        <ele>51</ele>
        <time>2018-01-04T23:08:32Z</time>
      </trkpt>
      <trkpt lat="50.80643" lon="2.9042">
        <ele>50</ele>
        <time>2018-01-04T23:09:32Z</time>
      </trkpt>
      <trkpt lat="50.80652" lon="2.90403">
        <ele>50</ele>
        <time>2018-01-04T23:10:32Z</time>
      </trkpt>
      <trkpt lat="50.80684" lon="2.90372">
        <ele>50</ele>
        <time>2018-01-04T23:11:32Z</time>
      </trkpt>
      <trkpt lat="50.8077" lon="2.90312">
        <ele>51</ele>
        <time>2018-01-04T23:12:32Z</time>
      </trkpt>
      <trkpt lat="50.80784" lon="2.903">
        <ele>51</ele>
        <time>2018-01-04T23:13:32Z</time>
      </trkpt>
      <trkpt lat="50.80792" lon="2.9029">
        <ele>51</ele>
        <time>2018-01-04T23:14:32Z</time>
      </trkpt>
      <trkpt lat="50.80801" lon="2.90269">
        <ele>50</ele>
        <time>2018-01-04T23:15:32Z</time>
      </trkpt>
      <trkpt lat="50.80802" lon="2.90266">
        <ele>50</ele>
        <time>2018-01-04T23:16:32Z</time>
      </trkpt>
      <trkpt lat="50.80802" lon="2.90238">
        <ele>49</ele>
        <time>2018-01-04T23:17:32Z</time>
      </trkpt>
      <trkpt lat="50.808" lon="2.90224">
        <ele>49</ele>
        <time>2018-01-04T23:18:32Z</time>
      </trkpt>
      <trkpt lat="50.80781" lon="2.90147">
        <ele>47</ele>
        <time>2018-01-04T23:19:32Z</time>
      </trkpt>
      <trkpt lat="50.8077" lon="2.90088">
        <ele>46</ele>
        <time>2018-01-04T23:20:32Z</time>
      </trkpt>
      <trkpt lat="50.80768" lon="2.90071">
        <ele>46</ele>
        <time>2018-01-04T23:21:32Z</time>
      </trkpt>
      <trkpt lat="50.80768" lon="2.90058">
        <ele>46</ele>
        <time>2018-01-04T23:22:32Z</time>
      </trkpt>
      <trkpt lat="50.8077" lon="2.90045">
        <ele>46</ele>
        <time>2018-01-04T23:23:32Z</time>
      </trkpt>
      <trkpt lat="50.80779" lon="2.90013">
        <ele>45</ele>
        <time>2018-01-04T23:24:32Z</time>
      </trkpt>
      <trkpt lat="50.80805" lon="2.8993">
        <ele>44</ele>
        <time>2018-01-04T23:25:32Z</time>
      </trkpt>
      <trkpt lat="50.8086" lon="2.89751">
        <ele>43</ele>
        <time>2018-01-04T23:26:32Z</time>
      </trkpt>
      <trkpt lat="50.80881" lon="2.89687">
        <ele>44</ele>
        <time>2018-01-04T23:27:32Z</time>
      </trkpt>
      <trkpt lat="50.8089" lon="2.8966">
        <ele>44</ele>
        <time>2018-01-04T23:28:32Z</time>
      </trkpt>
      <trkpt lat="50.80894" lon="2.89643">
        <ele>44</ele>
        <time>2018-01-04T23:29:32Z</time>
      </trkpt>
      <trkpt lat="50.80896" lon="2.89632">
        <ele>44</ele>
        <time>2018-01-04T23:30:32Z</time>
      </trkpt>
      <trkpt lat="50.80898" lon="2.89625">
        <ele>44</ele>
        <time>2018-01-04T23:31:32Z</time>
      </trkpt>
      <trkpt lat="50.809" lon="2.89571">
        <ele>45</ele>
        <time>2018-01-04T23:32:32Z</time>
      </trkpt>
      <trkpt lat="50.80901" lon="2.89537">
        <ele>45</ele>
        <time>2018-01-04T23:33:32Z</time>
      </trkpt>
      <trkpt lat="50.80902" lon="2.89528">
        <ele>45</ele>
        <time>2018-01-04T23:34:32Z</time>
      </trkpt>
      <trkpt lat="50.80901" lon="2.89507">
        <ele>45</ele>
        <time>2018-01-04T23:35:32Z</time>
      </trkpt>
      <trkpt lat="50.80901" lon="2.8949">
        <ele>45</ele>
        <time>2018-01-04T23:36:32Z</time>
      </trkpt>
      <trkpt lat="50.80899" lon="2.89481">
        <ele>45</ele>
        <time>2018-01-04T23:37:32Z</time>
      </trkpt>
      <trkpt lat="50.80889" lon="2.89434">
        <ele>45</ele>
        <time>2018-01-04T23:38:32Z</time>
      </trkpt>
      <trkpt lat="50.80889" lon="2.89412">
        <ele>45</ele>
        <time>2018-01-04T23:39:32Z</time>
      </trkpt>
      <trkpt lat="50.80894" lon="2.89391">
        <ele>45</ele>
        <time>2018-01-04T23:40:32Z</time>
      </trkpt>
      <trkpt lat="50.80903" lon="2.89366">
        <ele>44</ele>
        <time>2018-01-04T23:41:32Z</time>
      </trkpt>
      <trkpt lat="50.80906" lon="2.89356">
        <ele>44</ele>
        <time>2018-01-04T23:42:32Z</time>
      </trkpt>
      <trkpt lat="50.80908" lon="2.89349">
        <ele>44</ele>
        <time>2018-01-04T23:43:32Z</time>
      </trkpt>
      <trkpt lat="50.80908" lon="2.89342">
        <ele>44</ele>
        <time>2018-01-04T23:44:32Z</time>
      </trkpt>
      <trkpt lat="50.80908" lon="2.89334">
        <ele>44</ele>
        <time>2018-01-04T23:45:32Z</time>
      </trkpt>
      <trkpt lat="50.80904" lon="2.89318">
        <ele>44</ele>
        <time>2018-01-04T23:46:32Z</time>
      </trkpt>
      <trkpt lat="50.80904" lon="2.89318">
        <ele>44</ele>
        <time>2018-01-04T23:47:32Z</time>
      </trkpt>
      <trkpt lat="50.80976" lon="2.89257">
        <ele>44</ele>
        <time>2018-01-04T23:48:32Z</time>
      </trkpt>
      <trkpt lat="50.80987" lon="2.89244">
        <ele>43</ele>
        <time>2018-01-04T23:49:32Z</time>
      </trkpt>
      <trkpt lat="50.80998" lon="2.8923">
        <ele>43</ele>
        <time>2018-01-04T23:50:32Z</time>
      </trkpt>
      <trkpt lat="50.81012" lon="2.89212">
        <ele>43</ele>
        <time>2018-01-04T23:51:32Z</time>
      </trkpt>
      <trkpt lat="50.81025" lon="2.89194">
        <ele>42</ele>
        <time>2018-01-04T23:52:32Z</time>
      </trkpt>
      <trkpt lat="50.81046" lon="2.89167">
        <ele>42</ele>
        <time>2018-01-04T23:53:32Z</time>
      </trkpt>
      <trkpt lat="50.81046" lon="2.89167">
        <ele>42</ele>
        <time>2018-01-04T23:54:32Z</time>
      </trkpt>
      <trkpt lat="50.81047" lon="2.89166">
        <ele>42</ele>
        <time>2018-01-04T23:55:32Z</time>
      </trkpt>
      <trkpt lat="50.81048" lon="2.89166">
        <ele>42</ele>
        <time>2018-01-04T23:56:32Z</time>
      </trkpt>
      <trkpt lat="50.81048" lon="2.89165">
        <ele>42</ele>
        <time>2018-01-04T23:57:32Z</time>
      </trkpt>
      <trkpt lat="50.81049" lon="2.89165">
        <ele>42</ele>
        <time>2018-01-04T23:58:32Z</time>
      </trkpt>
      <trkpt lat="50.81049" lon="2.89164">
        <ele>42</ele>
        <time>2018-01-04T23:59:32Z</time>
      </trkpt>
      <trkpt lat="50.8105" lon="2.89164">
        <ele>42</ele>
        <time>2018-01-05T00:00:32Z</time>
      </trkpt>
      <trkpt lat="50.8105" lon="2.89163">
        <ele>42</ele>
        <time>2018-01-05T00:01:32Z</time>
      </trkpt>
      <trkpt lat="50.81051" lon="2.89162">
        <ele>42</ele>
        <time>2018-01-05T00:02:32Z</time>
      </trkpt>
      <trkpt lat="50.81051" lon="2.89161">
        <ele>42</ele>
        <time>2018-01-05T00:03:32Z</time>
      </trkpt>
      <trkpt lat="50.81052" lon="2.8916">
        <ele>42</ele>
        <time>2018-01-05T00:04:32Z</time>
      </trkpt>
      <trkpt lat="50.81052" lon="2.89159">
        <ele>42</ele>
        <time>2018-01-05T00:05:32Z</time>
      </trkpt>
      <trkpt lat="50.81053" lon="2.89158">
        <ele>42</ele>
        <time>2018-01-05T00:06:32Z</time>
      </trkpt>
      <trkpt lat="50.81053" lon="2.89157">
        <ele>41</ele>
        <time>2018-01-05T00:07:32Z</time>
      </trkpt>
      <trkpt lat="50.81053" lon="2.89156">
        <ele>41</ele>
        <time>2018-01-05T00:08:32Z</time>
      </trkpt>
      <trkpt lat="50.81053" lon="2.89155">
        <ele>41</ele>
        <time>2018-01-05T00:09:32Z</time>
      </trkpt>
      <trkpt lat="50.81053" lon="2.89154">
        <ele>41</ele>
        <time>2018-01-05T00:10:32Z</time>
      </trkpt>
      <trkpt lat="50.81054" lon="2.89153">
        <ele>41</ele>
        <time>2018-01-05T00:11:32Z</time>
      </trkpt>
      <trkpt lat="50.81054" lon="2.89152">
        <ele>41</ele>
        <time>2018-01-05T00:12:32Z</time>
      </trkpt>
      <trkpt lat="50.81054" lon="2.89151">
        <ele>41</ele>
        <time>2018-01-05T00:13:32Z</time>
      </trkpt>
      <trkpt lat="50.81054" lon="2.8915">
        <ele>41</ele>
        <time>2018-01-05T00:14:32Z</time>
      </trkpt>
      <trkpt lat="50.81054" lon="2.89149">
        <ele>41</ele>
        <time>2018-01-05T00:15:32Z</time>
      </trkpt>
      <trkpt lat="50.81054" lon="2.89148">
        <ele>41</ele>
        <time>2018-01-05T00:16:32Z</time>
      </trkpt>
      <trkpt lat="50.81054" lon="2.89147">
        <ele>41</ele>
        <time>2018-01-05T00:17:32Z</time>
      </trkpt>
      <trkpt lat="50.81053" lon="2.89146">
        <ele>41</ele>
        <time>2018-01-05T00:18:32Z</time>
      </trkpt>
      <trkpt lat="50.81053" lon="2.89145">
        <ele>41</ele>
        <time>2018-01-05T00:19:32Z</time>
      </trkpt>
      <trkpt lat="50.81053" lon="2.89144">
        <ele>41</ele>
        <time>2018-01-05T00:20:32Z</time>
      </trkpt>
      <trkpt lat="50.81052" lon="2.89144">
        <ele>41</ele>
        <time>2018-01-05T00:21:32Z</time>
      </trkpt>
      <trkpt lat="50.81052" lon="2.89143">
        <ele>41</ele>
        <time>2018-01-05T00:22:32Z</time>
      </trkpt>
      <trkpt lat="50.81052" lon="2.89142">
        <ele>41</ele>
        <time>2018-01-05T00:23:32Z</time>
      </trkpt>
      <trkpt lat="50.81051" lon="2.89142">
        <ele>41</ele>
        <time>2018-01-05T00:24:32Z</time>
      </trkpt>
      <trkpt lat="50.81051" lon="2.89141">
        <ele>41</ele>
        <time>2018-01-05T00:25:32Z</time>
      </trkpt>
      <trkpt lat="50.8105" lon="2.89141">
        <ele>41</ele>
        <time>2018-01-05T00:26:32Z</time>
      </trkpt>
      <trkpt lat="50.8105" lon="2.8914">
        <ele>41</ele>
        <time>2018-01-05T00:27:32Z</time>
      </trkpt>
      <trkpt lat="50.8105" lon="2.89139">
        <ele>41</ele>
        <time>2018-01-05T00:28:32Z</time>
      </trkpt>
      <trkpt lat="50.81049" lon="2.89139">
        <ele>41</ele>
        <time>2018-01-05T00:29:32Z</time>
      </trkpt>
      <trkpt lat="50.81048" lon="2.89138">
        <ele>41</ele>
        <time>2018-01-05T00:30:32Z</time>
      </trkpt>
      <trkpt lat="50.81047" lon="2.89138">
        <ele>41</ele>
        <time>2018-01-05T00:31:32Z</time>
      </trkpt>
      <trkpt lat="50.81047" lon="2.89137">
        <ele>41</ele>
        <time>2018-01-05T00:32:32Z</time>
      </trkpt>
      <trkpt lat="50.81046" lon="2.89137">
        <ele>41</ele>
        <time>2018-01-05T00:33:32Z</time>
      </trkpt>
      <trkpt lat="50.81045" lon="2.89137">
        <ele>41</ele>
        <time>2018-01-05T00:34:32Z</time>
      </trkpt>
      <trkpt lat="50.81044" lon="2.89136">
        <ele>41</ele>
        <time>2018-01-05T00:35:32Z</time>
      </trkpt>
      <trkpt lat="50.81043" lon="2.89136">
        <ele>41</ele>
        <time>2018-01-05T00:36:32Z</time>
      </trkpt>
      <trkpt lat="50.81042" lon="2.89137">
        <ele>41</ele>
        <time>2018-01-05T00:37:32Z</time>
      </trkpt>
      <trkpt lat="50.81041" lon="2.89137">
        <ele>41</ele>
        <time>2018-01-05T00:38:32Z</time>
      </trkpt>
      <trkpt lat="50.81043" lon="2.89126">
        <ele>41</ele>
        <time>2018-01-05T00:39:32Z</time>
      </trkpt>
      <trkpt lat="50.81047" lon="2.89119">
        <ele>41</ele>
        <time>2018-01-05T00:40:32Z</time>
      </trkpt>
      <trkpt lat="50.81053" lon="2.89112">
        <ele>40</ele>
        <time>2018-01-05T00:41:32Z</time>
      </trkpt>
      <trkpt lat="50.81129" lon="2.89024">
        <ele>38</ele>
        <time>2018-01-05T00:42:32Z</time>
      </trkpt>
      <trkpt lat="50.81173" lon="2.88974">
        <ele>37</ele>
        <time>2018-01-05T00:43:32Z</time>
      </trkpt>
      <trkpt lat="50.81193" lon="2.88948">
        <ele>36</ele>
        <time>2018-01-05T00:44:32Z</time>
      </trkpt>
      <trkpt lat="50.81213" lon="2.8892">
        <ele>35</ele>
        <time>2018-01-05T00:45:32Z</time>
      </trkpt>
      <trkpt lat="50.81236" lon="2.88884">
        <ele>35</ele>
        <time>2018-01-05T00:46:32Z</time>
      </trkpt>
      <trkpt lat="50.81269" lon="2.88824">
        <ele>35</ele>
        <time>2018-01-05T00:47:32Z</time>
      </trkpt>
      <trkpt lat="50.81308" lon="2.88747">
        <ele>34</ele>
        <time>2018-01-05T00:48:32Z</time>
      </trkpt>
      <trkpt lat="50.81319" lon="2.88727">
        <ele>34</ele>
        <time>2018-01-05T00:49:32Z</time>
      </trkpt>
      <trkpt lat="50.81342" lon="2.88685">
        <ele>34</ele>
        <time>2018-01-05T00:50:32Z</time>
      </trkpt>
      <trkpt lat="50.81364" lon="2.88643">
        <ele>33</ele>
        <time>2018-01-05T00:51:32Z</time>
      </trkpt>
      <trkpt lat="50.81404" lon="2.88554">
        <ele>32</ele>
        <time>2018-01-05T00:52:32Z</time>
      </trkpt>
      <trkpt lat="50.8144" lon="2.88453">
        <ele>31</ele>
        <time>2018-01-05T00:53:32Z</time>
      </trkpt>
      <trkpt lat="50.81482" lon="2.88318">
        <ele>30</ele>
        <time>2018-01-05T00:54:32Z</time>
      </trkpt>
      <trkpt lat="50.81504" lon="2.88259">
        <ele>29</ele>
        <time>2018-01-05T00:55:32Z</time>
      </trkpt>
      <trkpt lat="50.81536" lon="2.88182">
        <ele>28</ele>
        <time>2018-01-05T00:56:32Z</time>
      </trkpt>
      <trkpt lat="50.81545" lon="2.88162">
        <ele>28</ele>
        <time>2018-01-05T00:57:32Z</time>
      </trkpt>
      <trkpt lat="50.81573" lon="2.88099">
        <ele>27</ele>
        <time>2018-01-05T00:58:32Z</time>
      </trkpt>
      <trkpt lat="50.816" lon="2.88038">
        <ele>26</ele>
        <time>2018-01-05T00:59:32Z</time>
      </trkpt>
      <trkpt lat="50.81627" lon="2.87981">
        <ele>25</ele>
        <time>2018-01-05T01:00:32Z</time>
      </trkpt>
      <trkpt lat="50.8165" lon="2.87932">
        <ele>24</ele>
        <time>2018-01-05T01:01:32Z</time>
      </trkpt>
      <trkpt lat="50.8166" lon="2.87913">
        <ele>24</ele>
        <time>2018-01-05T01:02:32Z</time>
      </trkpt>
      <trkpt lat="50.81672" lon="2.87881">
        <ele>24</ele>
        <time>2018-01-05T01:03:32Z</time>
      </trkpt>
      <trkpt lat="50.81684" lon="2.87835">
        <ele>24</ele>
        <time>2018-01-05T01:04:32Z</time>
      </trkpt>
      <trkpt lat="50.81686" lon="2.87803">
        <ele>24</ele>
        <time>2018-01-05T01:05:32Z</time>
      </trkpt>
      <trkpt lat="50.81684" lon="2.87782">
        <ele>24</ele>
        <time>2018-01-05T01:06:32Z</time>
      </trkpt>
      <trkpt lat="50.81669" lon="2.87701">
        <ele>25</ele>
        <time>2018-01-05T01:07:32Z</time>
      </trkpt>
      <trkpt lat="50.81656" lon="2.87613">
        <ele>26</ele>
        <time>2018-01-05T01:08:32Z</time>
      </trkpt>
      <trkpt lat="50.81657" lon="2.87607">
        <ele>26</ele>
        <time>2018-01-05T01:09:32Z</time>
      </trkpt>
      <trkpt lat="50.81657" lon="2.87592">
        <ele>26</ele>
        <time>2018-01-05T01:10:32Z</time>
      </trkpt>
      <trkpt lat="50.81657" lon="2.87592">
        <ele>26</ele>
        <time>2018-01-05T01:11:32Z</time>
      </trkpt>
      <trkpt lat="50.81658" lon="2.87591">
        <ele>26</ele>
        <time>2018-01-05T01:12:32Z</time>
      </trkpt>
      <trkpt lat="50.81659" lon="2.8759">
        <ele>26</ele>
        <time>2018-01-05T01:13:32Z</time>
      </trkpt>
      <trkpt lat="50.8166" lon="2.87588">
        <ele>26</ele>
        <time>2018-01-05T01:14:32Z</time>
      </trkpt>
      <trkpt lat="50.81661" lon="2.87587">
        <ele>26</ele>
        <time>2018-01-05T01:15:32Z</time>
      </trkpt>
      <trkpt lat="50.81661" lon="2.87585">
        <ele>26</ele>
        <time>2018-01-05T01:16:32Z</time>
      </trkpt>
      <trkpt lat="50.81662" lon="2.87582">
        <ele>26</ele>
        <time>2018-01-05T01:17:32Z</time>
      </trkpt>
      <trkpt lat="50.81662" lon="2.87579">
        <ele>26</ele>
        <time>2018-01-05T01:18:32Z</time>
      </trkpt>
      <trkpt lat="50.81668" lon="2.87568">
        <ele>26</ele>
        <time>2018-01-05T01:19:32Z</time>
      </trkpt>
      <trkpt lat="50.81669" lon="2.87562">
        <ele>26</ele>
        <time>2018-01-05T01:20:32Z</time>
      </trkpt>
      <trkpt lat="50.81687" lon="2.87544">
        <ele>26</ele>
        <time>2018-01-05T01:21:32Z</time>
      </trkpt>
      <trkpt lat="50.81697" lon="2.87531">
        <ele>26</ele>
        <time>2018-01-05T01:22:32Z</time>
      </trkpt>
      <trkpt lat="50.81746" lon="2.87452">
        <ele>26</ele>
        <time>2018-01-05T01:23:32Z</time>
      </trkpt>
      <trkpt lat="50.81759" lon="2.87431">
        <ele>26</ele>
        <time>2018-01-05T01:24:32Z</time>
      </trkpt>
      <trkpt lat="50.81816" lon="2.87342">
        <ele>25</ele>
        <time>2018-01-05T01:25:32Z</time>
      </trkpt>
      <trkpt lat="50.81816" lon="2.87342">
        <ele>25</ele>
        <time>2018-01-05T01:26:32Z</time>
      </trkpt>
      <trkpt lat="50.81873" lon="2.87258">
        <ele>26</ele>
        <time>2018-01-05T01:27:32Z</time>
      </trkpt>
      <trkpt lat="50.81936" lon="2.87182">
        <ele>26</ele>
        <time>2018-01-05T01:28:32Z</time>
      </trkpt>
      <trkpt lat="50.81973" lon="2.87143">
        <ele>25</ele>
        <time>2018-01-05T01:29:32Z</time>
      </trkpt>
      <trkpt lat="50.82179" lon="2.86947">
        <ele>25</ele>
        <time>2018-01-05T01:30:32Z</time>
      </trkpt>
      <trkpt lat="50.8221" lon="2.86912">
        <ele>26</ele>
        <time>2018-01-05T01:31:32Z</time>
      </trkpt>
      <trkpt lat="50.82236" lon="2.86865">
        <ele>27</ele>
        <time>2018-01-05T01:32:32Z</time>
      </trkpt>
      <trkpt lat="50.82246" lon="2.86842">
        <ele>27</ele>
        <time>2018-01-05T01:33:32Z</time>
      </trkpt>
      <trkpt lat="50.82253" lon="2.86821">
        <ele>27</ele>
        <time>2018-01-05T01:34:32Z</time>
      </trkpt>
      <trkpt lat="50.82261" lon="2.86793">
        <ele>28</ele>
        <time>2018-01-05T01:35:32Z</time>
      </trkpt>
      <trkpt lat="50.82264" lon="2.86769">
        <ele>28</ele>
        <time>2018-01-05T01:36:32Z</time>
      </trkpt>
      <trkpt lat="50.82268" lon="2.86762">
        <ele>28</ele>
        <time>2018-01-05T01:37:32Z</time>
      </trkpt>
      <trkpt lat="50.82272" lon="2.86741">
        <ele>28</ele>
        <time>2018-01-05T01:38:32Z</time>
      </trkpt>
      <trkpt lat="50.82274" lon="2.8674">
        <ele>28</ele>
        <time>2018-01-05T01:39:32Z</time>
      </trkpt>
      <trkpt lat="50.82276" lon="2.86739">
        <ele>28</ele>
        <time>2018-01-05T01:40:32Z</time>
      </trkpt>
      <trkpt lat="50.82278" lon="2.86737">
        <ele>28</ele>
        <time>2018-01-05T01:41:32Z</time>
      </trkpt>
      <trkpt lat="50.82279" lon="2.86735">
        <ele>28</ele>
        <time>2018-01-05T01:42:32Z</time>
      </trkpt>
      <trkpt lat="50.82281" lon="2.86732">
        <ele>29</ele>
        <time>2018-01-05T01:43:32Z</time>
      </trkpt>
      <trkpt lat="50.82281" lon="2.86729">
        <ele>29</ele>
        <time>2018-01-05T01:44:32Z</time>
      </trkpt>
      <trkpt lat="50.82282" lon="2.86726">
        <ele>29</ele>
        <time>2018-01-05T01:45:32Z</time>
      </trkpt>
      <trkpt lat="50.82282" lon="2.86724">
        <ele>29</ele>
        <time>2018-01-05T01:46:32Z</time>
      </trkpt>
      <trkpt lat="50.82282" lon="2.86722">
        <ele>29</ele>
        <time>2018-01-05T01:47:32Z</time>
      </trkpt>
      <trkpt lat="50.82282" lon="2.86719">
        <ele>29</ele>
        <time>2018-01-05T01:48:32Z</time>
      </trkpt>
      <trkpt lat="50.82281" lon="2.86717">
        <ele>29</ele>
        <time>2018-01-05T01:49:32Z</time>
      </trkpt>
      <trkpt lat="50.8228" lon="2.86715">
        <ele>29</ele>
        <time>2018-01-05T01:50:32Z</time>
      </trkpt>
      <trkpt lat="50.82279" lon="2.86713">
        <ele>29</ele>
        <time>2018-01-05T01:51:32Z</time>
      </trkpt>
      <trkpt lat="50.82278" lon="2.86711">
        <ele>29</ele>
        <time>2018-01-05T01:52:32Z</time>
      </trkpt>
      <trkpt lat="50.82277" lon="2.8671">
        <ele>29</ele>
        <time>2018-01-05T01:53:32Z</time>
      </trkpt>
      <trkpt lat="50.82281" lon="2.86682">
        <ele>29</ele>
        <time>2018-01-05T01:54:32Z</time>
      </trkpt>
      <trkpt lat="50.8228" lon="2.86672">
        <ele>29</ele>
        <time>2018-01-05T01:55:32Z</time>
      </trkpt>
      <trkpt lat="50.8229" lon="2.86613">
        <ele>30</ele>
        <time>2018-01-05T01:56:32Z</time>
      </trkpt>
      <trkpt lat="50.82303" lon="2.86555">
        <ele>30</ele>
        <time>2018-01-05T01:57:32Z</time>
      </trkpt>
      <trkpt lat="50.82321" lon="2.86495">
        <ele>30</ele>
        <time>2018-01-05T01:58:32Z</time>
      </trkpt>
      <trkpt lat="50.8234" lon="2.86447">
        <ele>31</ele>
        <time>2018-01-05T01:59:32Z</time>
      </trkpt>
      <trkpt lat="50.82371" lon="2.86388">
        <ele>31</ele>
        <time>2018-01-05T02:00:32Z</time>
      </trkpt>
      <trkpt lat="50.82494" lon="2.86211">
        <ele>34</ele>
        <time>2018-01-05T02:01:32Z</time>
      </trkpt>
      <trkpt lat="50.82574" lon="2.86101">
        <ele>35</ele>
        <time>2018-01-05T02:02:32Z</time>
      </trkpt>
      <trkpt lat="50.82684" lon="2.85945">
        <ele>31</ele>
        <time>2018-01-05T02:03:32Z</time>
      </trkpt>
      <trkpt lat="50.82797" lon="2.85788">
        <ele>29</ele>
        <time>2018-01-05T02:04:32Z</time>
      </trkpt>
      <trkpt lat="50.82814" lon="2.85768">
        <ele>28</ele>
        <time>2018-01-05T02:05:32Z</time>
      </trkpt>
      <trkpt lat="50.8282" lon="2.85766">
        <ele>28</ele>
        <time>2018-01-05T02:06:32Z</time>
      </trkpt>
      <trkpt lat="50.82833" lon="2.85755">
        <ele>28</ele>
        <time>2018-01-05T02:07:32Z</time>
      </trkpt>
      <trkpt lat="50.82833" lon="2.85755">
        <ele>28</ele>
        <time>2018-01-05T02:08:32Z</time>
      </trkpt>
      <trkpt lat="50.82835" lon="2.85756">
        <ele>28</ele>
        <time>2018-01-05T02:09:32Z</time>
      </trkpt>
      <trkpt lat="50.82836" lon="2.85757">
        <ele>28</ele>
        <time>2018-01-05T02:10:32Z</time>
      </trkpt>
      <trkpt lat="50.82837" lon="2.85758">
        <ele>28</ele>
        <time>2018-01-05T02:11:32Z</time>
      </trkpt>
      <trkpt lat="50.82838" lon="2.85758">
        <ele>28</ele>
        <time>2018-01-05T02:12:32Z</time>
      </trkpt>
      <trkpt lat="50.8284" lon="2.85758">
        <ele>28</ele>
        <time>2018-01-05T02:13:32Z</time>
      </trkpt>
      <trkpt lat="50.82842" lon="2.85757">
        <ele>28</ele>
        <time>2018-01-05T02:14:32Z</time>
      </trkpt>
      <trkpt lat="50.82844" lon="2.85756">
        <ele>28</ele>
        <time>2018-01-05T02:15:32Z</time>
      </trkpt>
      <trkpt lat="50.82846" lon="2.85754">
        <ele>28</ele>
        <time>2018-01-05T02:16:32Z</time>
      </trkpt>
      <trkpt lat="50.82848" lon="2.85751">
        <ele>27</ele>
        <time>2018-01-05T02:17:32Z</time>
      </trkpt>
      <trkpt lat="50.82849" lon="2.85749">
        <ele>27</ele>
        <time>2018-01-05T02:18:32Z</time>
      </trkpt>
      <trkpt lat="50.82849" lon="2.85747">
        <ele>27</ele>
        <time>2018-01-05T02:19:32Z</time>
      </trkpt>
      <trkpt lat="50.8285" lon="2.85744">
        <ele>27</ele>
        <time>2018-01-05T02:20:32Z</time>
      </trkpt>
      <trkpt lat="50.8285" lon="2.85742">
        <ele>27</ele>
        <time>2018-01-05T02:21:32Z</time>
      </trkpt>
      <trkpt lat="50.8285" lon="2.85739">
        <ele>27</ele>
        <time>2018-01-05T02:22:32Z</time>
      </trkpt>
      <trkpt lat="50.8285" lon="2.85737">
        <ele>27</ele>
        <time>2018-01-05T02:23:32Z</time>
      </trkpt>
      <trkpt lat="50.82849" lon="2.85735">
        <ele>27</ele>
        <time>2018-01-05T02:24:32Z</time>
      </trkpt>
      <trkpt lat="50.8286" lon="2.85718">
        <ele>27</ele>
        <time>2018-01-05T02:25:32Z</time>
      </trkpt>
      <trkpt lat="50.82863" lon="2.8571">
        <ele>27</ele>
        <time>2018-01-05T02:26:32Z</time>
      </trkpt>
      <trkpt lat="50.82891" lon="2.85678">
        <ele>26</ele>
        <time>2018-01-05T02:27:32Z</time>
      </trkpt>
      <trkpt lat="50.82975" lon="2.85567">
        <ele>24</ele>
        <time>2018-01-05T02:28:32Z</time>
      </trkpt>
      <trkpt lat="50.82984" lon="2.85551">
        <ele>24</ele>
        <time>2018-01-05T02:29:32Z</time>
      </trkpt>
      <trkpt lat="50.82994" lon="2.85525">
        <ele>24</ele>
        <time>2018-01-05T02:30:32Z</time>
      </trkpt>
      <trkpt lat="50.8301" lon="2.85475">
        <ele>23</ele>
        <time>2018-01-05T02:31:32Z</time>
      </trkpt>
      <trkpt lat="50.83039" lon="2.85384">
        <ele>23</ele>
        <time>2018-01-05T02:32:32Z</time>
      </trkpt>
      <trkpt lat="50.8308" lon="2.85256">
        <ele>22</ele>
        <time>2018-01-05T02:33:32Z</time>
      </trkpt>
      <trkpt lat="50.83088" lon="2.85231">
        <ele>22</ele>
        <time>2018-01-05T02:34:32Z</time>
      </trkpt>
      <trkpt lat="50.83089" lon="2.85229">
        <ele>22</ele>
        <time>2018-01-05T02:35:32Z</time>
      </trkpt>
      <trkpt lat="50.83099" lon="2.85201">
        <ele>22</ele>
        <time>2018-01-05T02:36:32Z</time>
      </trkpt>
      <trkpt lat="50.83109" lon="2.85178">
        <ele>22</ele>
        <time>2018-01-05T02:37:32Z</time>
      </trkpt>
      <trkpt lat="50.83114" lon="2.85168">
        <ele>22</ele>
        <time>2018-01-05T02:38:32Z</time>
      </trkpt>
      <trkpt lat="50.83126" lon="2.85152">
        <ele>21</ele>
        <time>2018-01-05T02:39:32Z</time>
      </trkpt>
      <trkpt lat="50.83141" lon="2.85134">
        <ele>21</ele>
        <time>2018-01-05T02:40:32Z</time>
      </trkpt>
      <trkpt lat="50.83176" lon="2.85093">
        <ele>21</ele>
        <time>2018-01-05T02:41:32Z</time>
      </trkpt>
      <trkpt lat="50.83216" lon="2.85046">
        <ele>21</ele>
        <time>2018-01-05T02:42:32Z</time>
      </trkpt>
      <trkpt lat="50.83249" lon="2.85005">
        <ele>21</ele>
        <time>2018-01-05T02:43:32Z</time>
      </trkpt>
      <trkpt lat="50.83279" lon="2.8497">
        <ele>21</ele>
        <time>2018-01-05T02:44:32Z</time>
      </trkpt>
      <trkpt lat="50.83486" lon="2.84723">
        <ele>19</ele>
        <time>2018-01-05T02:45:32Z</time>
      </trkpt>
      <trkpt lat="50.83507" lon="2.84695">
        <ele>18</ele>
        <time>2018-01-05T02:46:32Z</time>
      </trkpt>
      <trkpt lat="50.8373" lon="2.84277">
        <ele>17</ele>
        <time>2018-01-05T02:47:32Z</time>
      </trkpt>
      <trkpt lat="50.83755" lon="2.84233">
        <ele>17</ele>
        <time>2018-01-05T02:48:32Z</time>
      </trkpt>
      <trkpt lat="50.8384" lon="2.84106">
        <ele>18</ele>
        <time>2018-01-05T02:49:32Z</time>
      </trkpt>
      <trkpt lat="50.83907" lon="2.8401">
        <ele>17</ele>
        <time>2018-01-05T02:50:32Z</time>
      </trkpt>
      <trkpt lat="50.83916" lon="2.83999">
        <ele>17</ele>
        <time>2018-01-05T02:51:32Z</time>
      </trkpt>
      <trkpt lat="50.83924" lon="2.83992">
        <ele>17</ele>
        <time>2018-01-05T02:52:32Z</time>
      </trkpt>
      <trkpt lat="50.83937" lon="2.83983">
        <ele>17</ele>
        <time>2018-01-05T02:53:32Z</time>
      </trkpt>
      <trkpt lat="50.83971" lon="2.83977">
        <ele>18</ele>
        <time>2018-01-05T02:54:32Z</time>
      </trkpt>
      <trkpt lat="50.84172" lon="2.83967">
        <ele>16</ele>
        <time>2018-01-05T02:55:32Z</time>
      </trkpt>
      <trkpt lat="50.84198" lon="2.83962">
        <ele>16</ele>
        <time>2018-01-05T02:56:32Z</time>
      </trkpt>
      <trkpt lat="50.84207" lon="2.83957">
        <ele>17</ele>
        <time>2018-01-05T02:57:32Z</time>
      </trkpt>
      <trkpt lat="50.84215" lon="2.83951">
        <ele>17</ele>
        <time>2018-01-05T02:58:32Z</time>
      </trkpt>
      <trkpt lat="50.84223" lon="2.8394">
        <ele>17</ele>
        <time>2018-01-05T02:59:32Z</time>
      </trkpt>
      <trkpt lat="50.8425" lon="2.83889">
        <ele>17</ele>
        <time>2018-01-05T03:00:32Z</time>
      </trkpt>
      <trkpt lat="50.84301" lon="2.8378">
        <ele>18</ele>
        <time>2018-01-05T03:01:32Z</time>
      </trkpt>
      <trkpt lat="50.84314" lon="2.83755">
        <ele>18</ele>
        <time>2018-01-05T03:02:32Z</time>
      </trkpt>
      <trkpt lat="50.84331" lon="2.83731">
        <ele>18</ele>
        <time>2018-01-05T03:03:32Z</time>
      </trkpt>
      <trkpt lat="50.84343" lon="2.83718">
        <ele>18</ele>
        <time>2018-01-05T03:04:32Z</time>
      </trkpt>
      <trkpt lat="50.84611" lon="2.83527">
        <ele>19</ele>
        <time>2018-01-05T03:05:32Z</time>
      </trkpt>
      <trkpt lat="50.84611" lon="2.83527">
        <ele>19</ele>
        <time>2018-01-05T03:06:32Z</time>
      </trkpt>
      <trkpt lat="50.84644" lon="2.83503">
        <ele>19</ele>
        <time>2018-01-05T03:07:32Z</time>
      </trkpt>
      <trkpt lat="50.84655" lon="2.83491">
        <ele>19</ele>
        <time>2018-01-05T03:08:32Z</time>
      </trkpt>
      <trkpt lat="50.84693" lon="2.83433">
        <ele>19</ele>
        <time>2018-01-05T03:09:32Z</time>
      </trkpt>
      <trkpt lat="50.84775" lon="2.83305">
        <ele>18</ele>
        <time>2018-01-05T03:10:32Z</time>
      </trkpt>
      <trkpt lat="50.84794" lon="2.83281">
        <ele>18</ele>
        <time>2018-01-05T03:11:32Z</time>
      </trkpt>
      <trkpt lat="50.84807" lon="2.83259">
        <ele>17</ele>
        <time>2018-01-05T03:12:32Z</time>
      </trkpt>
      <trkpt lat="50.84827" lon="2.83222">
        <ele>17</ele>
        <time>2018-01-05T03:13:32Z</time>
      </trkpt>
      <trkpt lat="50.84848" lon="2.83188">
        <ele>17</ele>
        <time>2018-01-05T03:14:32Z</time>
      </trkpt>
      <trkpt lat="50.84854" lon="2.83179">
        <ele>17</ele>
        <time>2018-01-05T03:15:32Z</time>
      </trkpt>
      <trkpt lat="50.84893" lon="2.83125">
        <ele>17</ele>
        <time>2018-01-05T03:16:32Z</time>
      </trkpt>
      <trkpt lat="50.84908" lon="2.83109">
        <ele>16</ele>
        <time>2018-01-05T03:17:32Z</time>
      </trkpt>
      <trkpt lat="50.84923" lon="2.83094">
        <ele>16</ele>
        <time>2018-01-05T03:18:32Z</time>
      </trkpt>
      <trkpt lat="50.84944" lon="2.83073">
        <ele>16</ele>
        <time>2018-01-05T03:19:32Z</time>
      </trkpt>
      <trkpt lat="50.84973" lon="2.83051">
        <ele>17</ele>
        <time>2018-01-05T03:20:32Z</time>
      </trkpt>
      <trkpt lat="50.85012" lon="2.83026">
        <ele>17</ele>
        <time>2018-01-05T03:21:32Z</time>
      </trkpt>
      <trkpt lat="50.85027" lon="2.83014">
        <ele>17</ele>
        <time>2018-01-05T03:22:32Z</time>
      </trkpt>
      <trkpt lat="50.85041" lon="2.83002">
        <ele>17</ele>
        <time>2018-01-05T03:23:32Z</time>
      </trkpt>
      <trkpt lat="50.85055" lon="2.82989">
        <ele>17</ele>
        <time>2018-01-05T03:24:32Z</time>
      </trkpt>
      <trkpt lat="50.85067" lon="2.82971">
        <ele>17</ele>
        <time>2018-01-05T03:25:32Z</time>
      </trkpt>
      <trkpt lat="50.85084" lon="2.82942">
        <ele>18</ele>
        <time>2018-01-05T03:26:32Z</time>
      </trkpt>
      <trkpt lat="50.85159" lon="2.82801">
        <ele>18</ele>
        <time>2018-01-05T03:27:32Z</time>
      </trkpt>
      <trkpt lat="50.85176" lon="2.82765">
        <ele>18</ele>
        <time>2018-01-05T03:28:32Z</time>
      </trkpt>
      <trkpt lat="50.85194" lon="2.82728">
        <ele>18</ele>
        <time>2018-01-05T03:29:32Z</time>
      </trkpt>
      <trkpt lat="50.85214" lon="2.82668">
        <ele>19</ele>
        <time>2018-01-05T03:30:32Z</time>
      </trkpt>
      <trkpt lat="50.8525" lon="2.82553">
        <ele>18</ele>
        <time>2018-01-05T03:31:32Z</time>
      </trkpt>
      <trkpt lat="50.85279" lon="2.82462">
        <ele>18</ele>
        <time>2018-01-05T03:32:32Z</time>
      </trkpt>
      <trkpt lat="50.85299" lon="2.82412">
        <ele>18</ele>
        <time>2018-01-05T03:33:32Z</time>
      </trkpt>
      <trkpt lat="50.85311" lon="2.82389">
        <ele>18</ele>
        <time>2018-01-05T03:34:32Z</time>
      </trkpt>
      <trkpt lat="50.85311" lon="2.82389">
        <ele>18</ele>
        <time>2018-01-05T03:35:32Z</time>
      </trkpt>
      <trkpt lat="50.85325" lon="2.82396">
        <ele>18</ele>
        <time>2018-01-05T03:36:32Z</time>
      </trkpt>
      <trkpt lat="50.85332" lon="2.824">
        <ele>18</ele>
        <time>2018-01-05T03:37:32Z</time>
      </trkpt>
      <trkpt lat="50.85332" lon="2.824">
        <ele>18</ele>
        <time>2018-01-05T03:38:32Z</time>
      </trkpt>
      <trkpt lat="50.85335" lon="2.82401">
        <ele>18</ele>
        <time>2018-01-05T03:39:32Z</time>
      </trkpt>
      <trkpt lat="50.85338" lon="2.82404">
        <ele>18</ele>
        <time>2018-01-05T03:40:32Z</time>
      </trkpt>
      <trkpt lat="50.85356" lon="2.82416">
        <ele>18</ele>
        <time>2018-01-05T03:41:32Z</time>
      </trkpt>
      <trkpt lat="50.85356" lon="2.82416">
        <ele>18</ele>
        <time>2018-01-05T03:42:32Z</time>
      </trkpt>
      <trkpt lat="50.85367" lon="2.82424">
        <ele>18</ele>
        <time>2018-01-05T03:43:32Z</time>
      </trkpt>
      <trkpt lat="50.85367" lon="2.82424">
        <ele>18</ele>
        <time>2018-01-05T03:44:32Z</time>
      </trkpt>
      <trkpt lat="50.85377" lon="2.82392">
        <ele>17</ele>
        <time>2018-01-05T03:45:32Z</time>
      </trkpt>
      <trkpt lat="50.85432" lon="2.82227">
        <ele>16</ele>
        <time>2018-01-05T03:46:32Z</time>
      </trkpt>
      <trkpt lat="50.85453" lon="2.82164">
        <ele>16</ele>
        <time>2018-01-05T03:47:32Z</time>
      </trkpt>
      <trkpt lat="50.85468" lon="2.82128">
        <ele>16</ele>
        <time>2018-01-05T03:48:32Z</time>
      </trkpt>
      <trkpt lat="50.85499" lon="2.82071">
        <ele>17</ele>
        <time>2018-01-05T03:49:32Z</time>
      </trkpt>
      <trkpt lat="50.85505" lon="2.82049">
        <ele>17</ele>
        <time>2018-01-05T03:50:32Z</time>
      </trkpt>
      <trkpt lat="50.85505" lon="2.82049">
        <ele>17</ele>
        <time>2018-01-05T03:51:32Z</time>
      </trkpt>
      <trkpt lat="50.85531" lon="2.82024">
        <ele>17</ele>
        <time>2018-01-05T03:52:32Z</time>
      </trkpt>
      <trkpt lat="50.85694" lon="2.81876">
        <ele>18</ele>
        <time>2018-01-05T03:53:32Z</time>
      </trkpt>
      <trkpt lat="50.85739" lon="2.8183">
        <ele>20</ele>
        <time>2018-01-05T03:54:32Z</time>
      </trkpt>
      <trkpt lat="50.85743" lon="2.81826">
        <ele>20</ele>
        <time>2018-01-05T03:55:32Z</time>
      </trkpt>
      <trkpt lat="50.86051" lon="2.81473">
        <ele>18</ele>
        <time>2018-01-05T03:56:32Z</time>
      </trkpt>
      <trkpt lat="50.86126" lon="2.81374">
        <ele>15</ele>
        <time>2018-01-05T03:57:32Z</time>
      </trkpt>
      <trkpt lat="50.86135" lon="2.81363">
        <ele>15</ele>
        <time>2018-01-05T03:58:32Z</time>
      </trkpt>
      <trkpt lat="50.86205" lon="2.81285">
        <ele>14</ele>
        <time>2018-01-05T03:59:32Z</time>
      </trkpt>
      <trkpt lat="50.86247" lon="2.81233">
        <ele>14</ele>
        <time>2018-01-05T04:00:32Z</time>
      </trkpt>
      <trkpt lat="50.86334" lon="2.8109">
        <ele>15</ele>
        <time>2018-01-05T04:01:32Z</time>
      </trkpt>
      <trkpt lat="50.86347" lon="2.81072">
        <ele>15</ele>
        <time>2018-01-05T04:02:32Z</time>
      </trkpt>
      <trkpt lat="50.86363" lon="2.81052">
        <ele>15</ele>
        <time>2018-01-05T04:03:32Z</time>
      </trkpt>
      <trkpt lat="50.86397" lon="2.81016">
        <ele>16</ele>
        <time>2018-01-05T04:04:32Z</time>
      </trkpt>
      <trkpt lat="50.86428" lon="2.80993">
        <ele>16</ele>
        <time>2018-01-05T04:05:32Z</time>
      </trkpt>
      <trkpt lat="50.86436" lon="2.80989">
        <ele>16</ele>
        <time>2018-01-05T04:06:32Z</time>
      </trkpt>
      <trkpt lat="50.86474" lon="2.80977">
        <ele>16</ele>
        <time>2018-01-05T04:07:32Z</time>
      </trkpt>
      <trkpt lat="50.86501" lon="2.80972">
        <ele>16</ele>
        <time>2018-01-05T04:08:32Z</time>
      </trkpt>
      <trkpt lat="50.86545" lon="2.80959">
        <ele>14</ele>
        <time>2018-01-05T04:09:32Z</time>
      </trkpt>
      <trkpt lat="50.86625" lon="2.80927">
        <ele>13</ele>
        <time>2018-01-05T04:10:32Z</time>
      </trkpt>
      <trkpt lat="50.86678" lon="2.80889">
        <ele>12</ele>
        <time>2018-01-05T04:11:32Z</time>
      </trkpt>
      <trkpt lat="50.86698" lon="2.80871">
        <ele>12</ele>
        <time>2018-01-05T04:12:32Z</time>
      </trkpt>
      <trkpt lat="50.86718" lon="2.80849">
        <ele>12</ele>
        <time>2018-01-05T04:13:32Z</time>
      </trkpt>
      <trkpt lat="50.86729" lon="2.80831">
        <ele>12</ele>
        <time>2018-01-05T04:14:32Z</time>
      </trkpt>
      <trkpt lat="50.86744" lon="2.80798">
        <ele>12</ele>
        <time>2018-01-05T04:15:32Z</time>
      </trkpt>
      <trkpt lat="50.86751" lon="2.80779">
        <ele>13</ele>
        <time>2018-01-05T04:16:32Z</time>
      </trkpt>
      <trkpt lat="50.86754" lon="2.80768">
        <ele>13</ele>
        <time>2018-01-05T04:17:32Z</time>
      </trkpt>
      <trkpt lat="50.86769" lon="2.80719">
        <ele>14</ele>
        <time>2018-01-05T04:18:32Z</time>
      </trkpt>
      <trkpt lat="50.86779" lon="2.80695">
        <ele>14</ele>
        <time>2018-01-05T04:19:32Z</time>
      </trkpt>
      <trkpt lat="50.8679" lon="2.80661">
        <ele>14</ele>
        <time>2018-01-05T04:20:32Z</time>
      </trkpt>
      <trkpt lat="50.86813" lon="2.80611">
        <ele>15</ele>
        <time>2018-01-05T04:21:32Z</time>
      </trkpt>
      <trkpt lat="50.86836" lon="2.80573">
        <ele>15</ele>
        <time>2018-01-05T04:22:32Z</time>
      </trkpt>
      <trkpt lat="50.86838" lon="2.80569">
        <ele>15</ele>
        <time>2018-01-05T04:23:32Z</time>
      </trkpt>
      <trkpt lat="50.86853" lon="2.80546">
        <ele>14</ele>
        <time>2018-01-05T04:24:32Z</time>
      </trkpt>
      <trkpt lat="50.86873" lon="2.80514">
        <ele>14</ele>
        <time>2018-01-05T04:25:32Z</time>
      </trkpt>
      <trkpt lat="50.86914" lon="2.80457">
        <ele>12</ele>
        <time>2018-01-05T04:26:32Z</time>
      </trkpt>
      <trkpt lat="50.8693" lon="2.8043">
        <ele>12</ele>
        <time>2018-01-05T04:27:32Z</time>
      </trkpt>
      <trkpt lat="50.86938" lon="2.80413">
        <ele>12</ele>
        <time>2018-01-05T04:28:32Z</time>
      </trkpt>
      <trkpt lat="50.86946" lon="2.8039">
        <ele>12</ele>
        <time>2018-01-05T04:29:32Z</time>
      </trkpt>
      <trkpt lat="50.86971" lon="2.8029">
        <ele>14</ele>
        <time>2018-01-05T04:30:32Z</time>
      </trkpt>
      <trkpt lat="50.87004" lon="2.8022">
        <ele>16</ele>
        <time>2018-01-05T04:31:32Z</time>
      </trkpt>
      <trkpt lat="50.87059" lon="2.8012">
        <ele>17</ele>
        <time>2018-01-05T04:32:32Z</time>
      </trkpt>
      <trkpt lat="50.87075" lon="2.80101">
        <ele>17</ele>
        <time>2018-01-05T04:33:32Z</time>
      </trkpt>
      <trkpt lat="50.87096" lon="2.80075">
        <ele>17</ele>
        <time>2018-01-05T04:34:32Z</time>
      </trkpt>
      <trkpt lat="50.87128" lon="2.80026">
        <ele>16</ele>
        <time>2018-01-05T04:35:32Z</time>
      </trkpt>
      <trkpt lat="50.87148" lon="2.79991">
        <ele>16</ele>
        <time>2018-01-05T04:36:32Z</time>
      </trkpt>
      <trkpt lat="50.87154" lon="2.79974">
        <ele>16</ele>
        <time>2018-01-05T04:37:32Z</time>
      </trkpt>
      <trkpt lat="50.87159" lon="2.79961">
        <ele>16</ele>
        <time>2018-01-05T04:38:32Z</time>
      </trkpt>
      <trkpt lat="50.87159" lon="2.79961">
        <ele>16</ele>
        <time>2018-01-05T04:39:32Z</time>
      </trkpt>
      <trkpt lat="50.87166" lon="2.79944">
        <ele>17</ele>
        <time>2018-01-05T04:40:32Z</time>
      </trkpt>
      <trkpt lat="50.8718" lon="2.799">
        <ele>17</ele>
        <time>2018-01-05T04:41:32Z</time>
      </trkpt>
      <trkpt lat="50.87205" lon="2.79807">
        <ele>16</ele>
        <time>2018-01-05T04:42:32Z</time>
      </trkpt>
      <trkpt lat="50.87212" lon="2.79791">
        <ele>16</ele>
        <time>2018-01-05T04:43:32Z</time>
      </trkpt>
      <trkpt lat="50.87232" lon="2.79745">
        <ele>16</ele>
        <time>2018-01-05T04:44:32Z</time>
      </trkpt>
      <trkpt lat="50.87286" lon="2.79617">
        <ele>17</ele>
        <time>2018-01-05T04:45:32Z</time>
      </trkpt>
      <trkpt lat="50.87319" lon="2.79547">
        <ele>17</ele>
        <time>2018-01-05T04:46:32Z</time>
      </trkpt>
      <trkpt lat="50.87387" lon="2.79419">
        <ele>17</ele>
        <time>2018-01-05T04:47:32Z</time>
      </trkpt>
      <trkpt lat="50.87407" lon="2.79395">
        <ele>17</ele>
        <time>2018-01-05T04:48:32Z</time>
      </trkpt>
      <trkpt lat="50.87458" lon="2.79323">
        <ele>17</ele>
        <time>2018-01-05T04:49:32Z</time>
      </trkpt>
      <trkpt lat="50.87505" lon="2.79267">
        <ele>17</ele>
        <time>2018-01-05T04:50:32Z</time>
      </trkpt>
      <trkpt lat="50.87531" lon="2.79233">
        <ele>18</ele>
        <time>2018-01-05T04:51:32Z</time>
      </trkpt>
      <trkpt lat="50.87549" lon="2.79196">
        <ele>19</ele>
        <time>2018-01-05T04:52:32Z</time>
      </trkpt>
      <trkpt lat="50.8759" lon="2.79088">
        <ele>24</ele>
        <time>2018-01-05T04:53:32Z</time>
      </trkpt>
      <trkpt lat="50.87594" lon="2.79075">
        <ele>24</ele>
        <time>2018-01-05T04:54:32Z</time>
      </trkpt>
      <trkpt lat="50.876" lon="2.79058">
        <ele>24</ele>
        <time>2018-01-05T04:55:32Z</time>
      </trkpt>
      <trkpt lat="50.87608" lon="2.79045">
        <ele>24</ele>
        <time>2018-01-05T04:56:32Z</time>
      </trkpt>
      <trkpt lat="50.87618" lon="2.79034">
        <ele>23</ele>
        <time>2018-01-05T04:57:32Z</time>
      </trkpt>
      <trkpt lat="50.87674" lon="2.78998">
        <ele>17</ele>
        <time>2018-01-05T04:58:32Z</time>
      </trkpt>
      <trkpt lat="50.87913" lon="2.78842">
        <ele>15</ele>
        <time>2018-01-05T04:59:32Z</time>
      </trkpt>
      <trkpt lat="50.87995" lon="2.78782">
        <ele>14</ele>
        <time>2018-01-05T05:00:32Z</time>
      </trkpt>
      <trkpt lat="50.88035" lon="2.7876">
        <ele>14</ele>
        <time>2018-01-05T05:01:32Z</time>
      </trkpt>
      <trkpt lat="50.88121" lon="2.78708">
        <ele>13</ele>
        <time>2018-01-05T05:02:32Z</time>
      </trkpt>
      <trkpt lat="50.88146" lon="2.78695">
        <ele>12</ele>
        <time>2018-01-05T05:03:32Z</time>
      </trkpt>
      <trkpt lat="50.88165" lon="2.78689">
        <ele>12</ele>
        <time>2018-01-05T05:04:32Z</time>
      </trkpt>
      <trkpt lat="50.88206" lon="2.78686">
        <ele>12</ele>
        <time>2018-01-05T05:05:32Z</time>
      </trkpt>
      <trkpt lat="50.88218" lon="2.7868">
        <ele>13</ele>
        <time>2018-01-05T05:06:32Z</time>
      </trkpt>
      <trkpt lat="50.88218" lon="2.7868">
        <ele>13</ele>
        <time>2018-01-05T05:07:32Z</time>
      </trkpt>
      <trkpt lat="50.88257" lon="2.78739">
        <ele>13</ele>
        <time>2018-01-05T05:08:32Z</time>
      </trkpt>
      <trkpt lat="50.88257" lon="2.78739">
        <ele>13</ele>
        <time>2018-01-05T05:09:32Z</time>
      </trkpt>
      <trkpt lat="50.88436" lon="2.78565">
        <ele>13</ele>
        <time>2018-01-05T05:10:32Z</time>
      </trkpt>
      <trkpt lat="50.88491" lon="2.78515">
        <ele>14</ele>
        <time>2018-01-05T05:11:32Z</time>
      </trkpt>
      <trkpt lat="50.88497" lon="2.78509">
        <ele>14</ele>
        <time>2018-01-05T05:12:32Z</time>
      </trkpt>
      <trkpt lat="50.88535" lon="2.78482">
        <ele>13</ele>
        <time>2018-01-05T05:13:32Z</time>
      </trkpt>
      <trkpt lat="50.88569" lon="2.78461">
        <ele>13</ele>
        <time>2018-01-05T05:14:32Z</time>
      </trkpt>
      <trkpt lat="50.88608" lon="2.7844">
        <ele>13</ele>
        <time>2018-01-05T05:15:32Z</time>
      </trkpt>
      <trkpt lat="50.88654" lon="2.78403">
        <ele>12</ele>
        <time>2018-01-05T05:16:32Z</time>
      </trkpt>
      <trkpt lat="50.88685" lon="2.78371">
        <ele>12</ele>
        <time>2018-01-05T05:17:32Z</time>
      </trkpt>
      <trkpt lat="50.88748" lon="2.78284">
        <ele>12</ele>
        <time>2018-01-05T05:18:32Z</time>
      </trkpt>
      <trkpt lat="50.88768" lon="2.78257">
        <ele>12</ele>
        <time>2018-01-05T05:19:32Z</time>
      </trkpt>
      <trkpt lat="50.88774" lon="2.78247">
        <ele>12</ele>
        <time>2018-01-05T05:20:32Z</time>
      </trkpt>
      <trkpt lat="50.88778" lon="2.78237">
        <ele>12</ele>
        <time>2018-01-05T05:21:32Z</time>
      </trkpt>
      <trkpt lat="50.88782" lon="2.78227">
        <ele>12</ele>
        <time>2018-01-05T05:22:32Z</time>
      </trkpt>
      <trkpt lat="50.8879" lon="2.7819">
        <ele>12</ele>
        <time>2018-01-05T05:23:32Z</time>
      </trkpt>
      <trkpt lat="50.88803" lon="2.78154">
        <ele>13</ele>
        <time>2018-01-05T05:24:32Z</time>
      </trkpt>
      <trkpt lat="50.88956" lon="2.77926">
        <ele>14</ele>
        <time>2018-01-05T05:25:32Z</time>
      </trkpt>
      <trkpt lat="50.88969" lon="2.779">
        <ele>14</ele>
        <time>2018-01-05T05:26:32Z</time>
      </trkpt>
      <trkpt lat="50.88995" lon="2.77837">
        <ele>14</ele>
        <time>2018-01-05T05:27:32Z</time>
      </trkpt>
      <trkpt lat="50.89003" lon="2.77807">
        <ele>14</ele>
        <time>2018-01-05T05:28:32Z</time>
      </trkpt>
      <trkpt lat="50.89007" lon="2.77782">
        <ele>15</ele>
        <time>2018-01-05T05:29:32Z</time>
      </trkpt>
      <trkpt lat="50.89012" lon="2.77763">
        <ele>15</ele>
        <time>2018-01-05T05:30:32Z</time>
      </trkpt>
      <trkpt lat="50.8902" lon="2.77737">
        <ele>15</ele>
        <time>2018-01-05T05:31:32Z</time>
      </trkpt>
      <trkpt lat="50.89028" lon="2.77718">
        <ele>15</ele>
        <time>2018-01-05T05:32:32Z</time>
      </trkpt>
      <trkpt lat="50.89068" lon="2.77649">
        <ele>15</ele>
        <time>2018-01-05T05:33:32Z</time>
      </trkpt>
      <trkpt lat="50.89088" lon="2.77594">
        <ele>16</ele>
        <time>2018-01-05T05:34:32Z</time>
      </trkpt>
      <trkpt lat="50.89129" lon="2.775">
        <ele>16</ele>
        <time>2018-01-05T05:35:32Z</time>
      </trkpt>
      <trkpt lat="50.89143" lon="2.77472">
        <ele>17</ele>
        <time>2018-01-05T05:36:32Z</time>
      </trkpt>
      <trkpt lat="50.89186" lon="2.77402">
        <ele>17</ele>
        <time>2018-01-05T05:37:32Z</time>
      </trkpt>
      <trkpt lat="50.89202" lon="2.77384">
        <ele>17</ele>
        <time>2018-01-05T05:38:32Z</time>
      </trkpt>
      <trkpt lat="50.89202" lon="2.77384">
        <ele>17</ele>
        <time>2018-01-05T05:39:32Z</time>
      </trkpt>
      <trkpt lat="50.8921" lon="2.77377">
        <ele>18</ele>
        <time>2018-01-05T05:40:32Z</time>
      </trkpt>
      <trkpt lat="50.89252" lon="2.7733">
        <ele>18</ele>
        <time>2018-01-05T05:41:32Z</time>
      </trkpt>
      <trkpt lat="50.89336" lon="2.77229">
        <ele>18</ele>
        <time>2018-01-05T05:42:32Z</time>
      </trkpt>
      <trkpt lat="50.89367" lon="2.77196">
        <ele>17</ele>
        <time>2018-01-05T05:43:32Z</time>
      </trkpt>
      <trkpt lat="50.89478" lon="2.77082">
        <ele>15</ele>
        <time>2018-01-05T05:44:32Z</time>
      </trkpt>
      <trkpt lat="50.89486" lon="2.77074">
        <ele>15</ele>
        <time>2018-01-05T05:45:32Z</time>
      </trkpt>
      <trkpt lat="50.89542" lon="2.77022">
        <ele>14</ele>
        <time>2018-01-05T05:46:32Z</time>
      </trkpt>
      <trkpt lat="50.8957" lon="2.76999">
        <ele>14</ele>
        <time>2018-01-05T05:47:32Z</time>
      </trkpt>
      <trkpt lat="50.89601" lon="2.76969">
        <ele>14</ele>
        <time>2018-01-05T05:48:32Z</time>
      </trkpt>
      <trkpt lat="50.89607" lon="2.76961">
        <ele>14</ele>
        <time>2018-01-05T05:49:32Z</time>
      </trkpt>
      <trkpt lat="50.89635" lon="2.76915">
        <ele>13</ele>
        <time>2018-01-05T05:50:32Z</time>
      </trkpt>
      <trkpt lat="50.89653" lon="2.76889">
        <ele>13</ele>
        <time>2018-01-05T05:51:32Z</time>
      </trkpt>
      <trkpt lat="50.89661" lon="2.7688">
        <ele>13</ele>
        <time>2018-01-05T05:52:32Z</time>
      </trkpt>
      <trkpt lat="50.89673" lon="2.76872">
        <ele>12</ele>
        <time>2018-01-05T05:53:32Z</time>
      </trkpt>
      <trkpt lat="50.89692" lon="2.76863">
        <ele>12</ele>
        <time>2018-01-05T05:54:32Z</time>
      </trkpt>
      <trkpt lat="50.897" lon="2.76857">
        <ele>12</ele>
        <time>2018-01-05T05:55:32Z</time>
      </trkpt>
      <trkpt lat="50.89712" lon="2.76846">
        <ele>12</ele>
        <time>2018-01-05T05:56:32Z</time>
      </trkpt>
      <trkpt lat="50.89719" lon="2.76841">
        <ele>11</ele>
        <time>2018-01-05T05:57:32Z</time>
      </trkpt>
      <trkpt lat="50.89724" lon="2.76833">
        <ele>11</ele>
        <time>2018-01-05T05:58:32Z</time>
      </trkpt>
      <trkpt lat="50.89733" lon="2.76817">
        <ele>11</ele>
        <time>2018-01-05T05:59:32Z</time>
      </trkpt>
      <trkpt lat="50.8974" lon="2.768">
        <ele>12</ele>
        <time>2018-01-05T06:00:32Z</time>
      </trkpt>
      <trkpt lat="50.89752" lon="2.76757">
        <ele>12</ele>
        <time>2018-01-05T06:01:32Z</time>
      </trkpt>
      <trkpt lat="50.89757" lon="2.76745">
        <ele>12</ele>
        <time>2018-01-05T06:02:32Z</time>
      </trkpt>
      <trkpt lat="50.89764" lon="2.76735">
        <ele>12</ele>
        <time>2018-01-05T06:03:32Z</time>
      </trkpt>
      <trkpt lat="50.89772" lon="2.76727">
        <ele>12</ele>
        <time>2018-01-05T06:04:32Z</time>
      </trkpt>
      <trkpt lat="50.89787" lon="2.76723">
        <ele>13</ele>
        <time>2018-01-05T06:05:32Z</time>
      </trkpt>
      <trkpt lat="50.89823" lon="2.7672">
        <ele>13</ele>
        <time>2018-01-05T06:06:32Z</time>
      </trkpt>
      <trkpt lat="50.89904" lon="2.76719">
        <ele>11</ele>
        <time>2018-01-05T06:07:32Z</time>
      </trkpt>
      <trkpt lat="50.89923" lon="2.76714">
        <ele>11</ele>
        <time>2018-01-05T06:08:32Z</time>
      </trkpt>
      <trkpt lat="50.89936" lon="2.76708">
        <ele>11</ele>
        <time>2018-01-05T06:09:32Z</time>
      </trkpt>
      <trkpt lat="50.89945" lon="2.767">
        <ele>11</ele>
        <time>2018-01-05T06:10:32Z</time>
      </trkpt>
      <trkpt lat="50.89955" lon="2.76692">
        <ele>11</ele>
        <time>2018-01-05T06:11:32Z</time>
      </trkpt>
      <trkpt lat="50.89968" lon="2.76677">
        <ele>11</ele>
        <time>2018-01-05T06:12:32Z</time>
      </trkpt>
      <trkpt lat="50.89975" lon="2.76669">
        <ele>11</ele>
        <time>2018-01-05T06:13:32Z</time>
      </trkpt>
      <trkpt lat="50.89996" lon="2.76655">
        <ele>11</ele>
        <time>2018-01-05T06:14:32Z</time>
      </trkpt>
      <trkpt lat="50.90021" lon="2.76643">
        <ele>11</ele>
        <time>2018-01-05T06:15:32Z</time>
      </trkpt>
      <trkpt lat="50.90035" lon="2.76638">
        <ele>11</ele>
        <time>2018-01-05T06:16:32Z</time>
      </trkpt>
      <trkpt lat="50.90048" lon="2.76637">
        <ele>11</ele>
        <time>2018-01-05T06:17:32Z</time>
      </trkpt>
      <trkpt lat="50.90062" lon="2.76637">
        <ele>11</ele>
        <time>2018-01-05T06:18:32Z</time>
      </trkpt>
      <trkpt lat="50.90076" lon="2.76635">
        <ele>12</ele>
        <time>2018-01-05T06:19:32Z</time>
      </trkpt>
      <trkpt lat="50.90084" lon="2.76632">
        <ele>12</ele>
        <time>2018-01-05T06:20:32Z</time>
      </trkpt>
      <trkpt lat="50.90096" lon="2.76627">
        <ele>12</ele>
        <time>2018-01-05T06:21:32Z</time>
      </trkpt>
      <trkpt lat="50.90115" lon="2.76614">
        <ele>12</ele>
        <time>2018-01-05T06:22:32Z</time>
      </trkpt>
      <trkpt lat="50.90135" lon="2.76596">
        <ele>12</ele>
        <time>2018-01-05T06:23:32Z</time>
      </trkpt>
      <trkpt lat="50.90162" lon="2.76571">
        <ele>12</ele>
        <time>2018-01-05T06:24:32Z</time>
      </trkpt>
      <trkpt lat="50.90172" lon="2.76564">
        <ele>12</ele>
        <time>2018-01-05T06:25:32Z</time>
      </trkpt>
      <trkpt lat="50.90188" lon="2.76556">
        <ele>12</ele>
        <time>2018-01-05T06:26:32Z</time>
      </trkpt>
      <trkpt lat="50.90203" lon="2.76551">
        <ele>12</ele>
        <time>2018-01-05T06:27:32Z</time>
      </trkpt>
      <trkpt lat="50.9022" lon="2.76547">
        <ele>11</ele>
        <time>2018-01-05T06:28:32Z</time>
      </trkpt>
      <trkpt lat="50.90243" lon="2.76544">
        <ele>11</ele>
        <time>2018-01-05T06:29:32Z</time>
      </trkpt>
      <trkpt lat="50.90291" lon="2.76539">
        <ele>11</ele>
        <time>2018-01-05T06:30:32Z</time>
      </trkpt>
      <trkpt lat="50.90301" lon="2.76537">
        <ele>11</ele>
        <time>2018-01-05T06:31:32Z</time>
      </trkpt>
      <trkpt lat="50.9032" lon="2.76529">
        <ele>10</ele>
        <time>2018-01-05T06:32:32Z</time>
      </trkpt>
      <trkpt lat="50.90396" lon="2.76479">
        <ele>9</ele>
        <time>2018-01-05T06:33:32Z</time>
      </trkpt>
      <trkpt lat="50.90414" lon="2.7647">
        <ele>9</ele>
        <time>2018-01-05T06:34:32Z</time>
      </trkpt>
      <trkpt lat="50.9051" lon="2.76433">
        <ele>9</ele>
        <time>2018-01-05T06:35:32Z</time>
      </trkpt>
      <trkpt lat="50.90572" lon="2.76412">
        <ele>9</ele>
        <time>2018-01-05T06:36:32Z</time>
      </trkpt>
      <trkpt lat="50.90624" lon="2.76388">
        <ele>10</ele>
        <time>2018-01-05T06:37:32Z</time>
      </trkpt>
      <trkpt lat="50.90655" lon="2.76371">
        <ele>10</ele>
        <time>2018-01-05T06:38:32Z</time>
      </trkpt>
      <trkpt lat="50.90745" lon="2.76315">
        <ele>10</ele>
        <time>2018-01-05T06:39:32Z</time>
      </trkpt>
      <trkpt lat="50.90755" lon="2.76311">
        <ele>10</ele>
        <time>2018-01-05T06:40:32Z</time>
      </trkpt>
      <trkpt lat="50.90775" lon="2.76302">
        <ele>10</ele>
        <time>2018-01-05T06:41:32Z</time>
      </trkpt>
      <trkpt lat="50.90834" lon="2.76285">
        <ele>10</ele>
        <time>2018-01-05T06:42:32Z</time>
      </trkpt>
      <trkpt lat="50.90852" lon="2.76278">
        <ele>10</ele>
        <time>2018-01-05T06:43:32Z</time>
      </trkpt>
      <trkpt lat="50.90854" lon="2.76277">
        <ele>10</ele>
        <time>2018-01-05T06:44:32Z</time>
      </trkpt>
      <trkpt lat="50.90885" lon="2.7626">
        <ele>9</ele>
        <time>2018-01-05T06:45:32Z</time>
      </trkpt>
      <trkpt lat="50.90904" lon="2.76247">
        <ele>9</ele>
        <time>2018-01-05T06:46:32Z</time>
      </trkpt>
      <trkpt lat="50.90944" lon="2.76207">
        <ele>9</ele>
        <time>2018-01-05T06:47:32Z</time>
      </trkpt>
      <trkpt lat="50.91018" lon="2.76125">
        <ele>10</ele>
        <time>2018-01-05T06:48:32Z</time>
      </trkpt>
      <trkpt lat="50.91035" lon="2.76109">
        <ele>10</ele>
        <time>2018-01-05T06:49:32Z</time>
      </trkpt>
      <trkpt lat="50.91057" lon="2.76093">
        <ele>10</ele>
        <time>2018-01-05T06:50:32Z</time>
      </trkpt>
      <trkpt lat="50.91066" lon="2.76089">
        <ele>10</ele>
        <time>2018-01-05T06:51:32Z</time>
      </trkpt>
      <trkpt lat="50.91094" lon="2.76071">
        <ele>10</ele>
        <time>2018-01-05T06:52:32Z</time>
      </trkpt>
      <trkpt lat="50.91112" lon="2.76053">
        <ele>10</ele>
        <time>2018-01-05T06:53:32Z</time>
      </trkpt>
      <trkpt lat="50.91135" lon="2.7602">
        <ele>10</ele>
        <time>2018-01-05T06:54:32Z</time>
      </trkpt>
      <trkpt lat="50.91169" lon="2.75967">
        <ele>10</ele>
        <time>2018-01-05T06:55:32Z</time>
      </trkpt>
      <trkpt lat="50.91215" lon="2.75896">
        <ele>10</ele>
        <time>2018-01-05T06:56:32Z</time>
      </trkpt>
      <trkpt lat="50.91221" lon="2.75886">
        <ele>10</ele>
        <time>2018-01-05T06:57:32Z</time>
      </trkpt>
      <trkpt lat="50.91297" lon="2.75743">
        <ele>10</ele>
        <time>2018-01-05T06:58:32Z</time>
      </trkpt>
      <trkpt lat="50.91329" lon="2.75681">
        <ele>10</ele>
        <time>2018-01-05T06:59:32Z</time>
      </trkpt>
      <trkpt lat="50.91347" lon="2.7565">
        <ele>9</ele>
        <time>2018-01-05T07:00:32Z</time>
      </trkpt>
      <trkpt lat="50.91356" lon="2.75642">
        <ele>9</ele>
        <time>2018-01-05T07:01:32Z</time>
      </trkpt>
      <trkpt lat="50.91367" lon="2.75641">
        <ele>9</ele>
        <time>2018-01-05T07:02:32Z</time>
      </trkpt>
      <trkpt lat="50.91375" lon="2.75645">
        <ele>9</ele>
        <time>2018-01-05T07:03:32Z</time>
      </trkpt>
      <trkpt lat="50.91381" lon="2.75651">
        <ele>9</ele>
        <time>2018-01-05T07:04:32Z</time>
      </trkpt>
      <trkpt lat="50.91427" lon="2.75702">
        <ele>8</ele>
        <time>2018-01-05T07:05:32Z</time>
      </trkpt>
      <trkpt lat="50.91446" lon="2.75719">
        <ele>8</ele>
        <time>2018-01-05T07:06:32Z</time>
      </trkpt>
      <trkpt lat="50.91463" lon="2.75726">
        <ele>8</ele>
        <time>2018-01-05T07:07:32Z</time>
      </trkpt>
      <trkpt lat="50.91474" lon="2.75728">
        <ele>8</ele>
        <time>2018-01-05T07:08:32Z</time>
      </trkpt>
      <trkpt lat="50.91483" lon="2.75727">
        <ele>8</ele>
        <time>2018-01-05T07:09:32Z</time>
      </trkpt>
      <trkpt lat="50.91496" lon="2.75723">
        <ele>8</ele>
        <time>2018-01-05T07:10:32Z</time>
      </trkpt>
      <trkpt lat="50.9151" lon="2.75717">
        <ele>8</ele>
        <time>2018-01-05T07:11:32Z</time>
      </trkpt>
      <trkpt lat="50.91528" lon="2.75706">
        <ele>7</ele>
        <time>2018-01-05T07:12:32Z</time>
      </trkpt>
      <trkpt lat="50.91545" lon="2.75693">
        <ele>7</ele>
        <time>2018-01-05T07:13:32Z</time>
      </trkpt>
      <trkpt lat="50.91572" lon="2.75672">
        <ele>7</ele>
        <time>2018-01-05T07:14:32Z</time>
      </trkpt>
      <trkpt lat="50.91592" lon="2.7565">
        <ele>7</ele>
        <time>2018-01-05T07:15:32Z</time>
      </trkpt>
      <trkpt lat="50.91605" lon="2.75632">
        <ele>7</ele>
        <time>2018-01-05T07:16:32Z</time>
      </trkpt>
      <trkpt lat="50.91617" lon="2.75612">
        <ele>7</ele>
        <time>2018-01-05T07:17:32Z</time>
      </trkpt>
      <trkpt lat="50.91629" lon="2.75589">
        <ele>7</ele>
        <time>2018-01-05T07:18:32Z</time>
      </trkpt>
      <trkpt lat="50.91668" lon="2.75511">
        <ele>7</ele>
        <time>2018-01-05T07:19:32Z</time>
      </trkpt>
      <trkpt lat="50.91699" lon="2.75443">
        <ele>8</ele>
        <time>2018-01-05T07:20:32Z</time>
      </trkpt>
      <trkpt lat="50.91716" lon="2.7541">
        <ele>7</ele>
        <time>2018-01-05T07:21:32Z</time>
      </trkpt>
      <trkpt lat="50.91729" lon="2.75389">
        <ele>7</ele>
        <time>2018-01-05T07:22:32Z</time>
      </trkpt>
      <trkpt lat="50.91748" lon="2.75361">
        <ele>7</ele>
        <time>2018-01-05T07:23:32Z</time>
      </trkpt>
      <trkpt lat="50.91777" lon="2.75325">
        <ele>8</ele>
        <time>2018-01-05T07:24:32Z</time>
      </trkpt>
      <trkpt lat="50.91805" lon="2.75295">
        <ele>8</ele>
        <time>2018-01-05T07:25:32Z</time>
      </trkpt>
      <trkpt lat="50.91825" lon="2.75277">
        <ele>8</ele>
        <time>2018-01-05T07:26:32Z</time>
      </trkpt>
      <trkpt lat="50.91852" lon="2.75256">
        <ele>8</ele>
        <time>2018-01-05T07:27:32Z</time>
      </trkpt>
      <trkpt lat="50.91852" lon="2.75256">
        <ele>8</ele>
        <time>2018-01-05T07:28:32Z</time>
      </trkpt>
      <trkpt lat="50.91831" lon="2.75203">
        <ele>8</ele>
        <time>2018-01-05T07:29:32Z</time>
      </trkpt>
      <trkpt lat="50.91751" lon="2.75024">
        <ele>8</ele>
        <time>2018-01-05T07:30:32Z</time>
      </trkpt>
      <trkpt lat="50.91656" lon="2.74821">
        <ele>9</ele>
        <time>2018-01-05T07:31:32Z</time>
      </trkpt>
      <trkpt lat="50.91649" lon="2.74803">
        <ele>9</ele>
        <time>2018-01-05T07:32:32Z</time>
      </trkpt>
      <trkpt lat="50.91641" lon="2.74778">
        <ele>9</ele>
        <time>2018-01-05T07:33:32Z</time>
      </trkpt>
      <trkpt lat="50.91641" lon="2.74775">
        <ele>9</ele>
        <time>2018-01-05T07:34:32Z</time>
      </trkpt>
      <trkpt lat="50.91629" lon="2.74732">
        <ele>8</ele>
        <time>2018-01-05T07:35:32Z</time>
      </trkpt>
      <trkpt lat="50.91594" lon="2.74638">
        <ele>8</ele>
        <time>2018-01-05T07:36:32Z</time>
      </trkpt>
      <trkpt lat="50.91576" lon="2.74594">
        <ele>8</ele>
        <time>2018-01-05T07:37:32Z</time>
      </trkpt>
      <trkpt lat="50.9156" lon="2.74557">
        <ele>8</ele>
        <time>2018-01-05T07:38:32Z</time>
      </trkpt>
      <trkpt lat="50.91525" lon="2.74479">
        <ele>7</ele>
        <time>2018-01-05T07:39:32Z</time>
      </trkpt>
      <trkpt lat="50.9151" lon="2.74447">
        <ele>7</ele>
        <time>2018-01-05T07:40:32Z</time>
      </trkpt>
      <trkpt lat="50.91474" lon="2.74381">
        <ele>7</ele>
        <time>2018-01-05T07:41:32Z</time>
      </trkpt>
      <trkpt lat="50.91435" lon="2.74322">
        <ele>6</ele>
        <time>2018-01-05T07:42:32Z</time>
      </trkpt>
      <trkpt lat="50.91409" lon="2.74278">
        <ele>5</ele>
        <time>2018-01-05T07:43:32Z</time>
      </trkpt>
      <trkpt lat="50.91397" lon="2.74256">
        <ele>5</ele>
        <time>2018-01-05T07:44:32Z</time>
      </trkpt>
      <trkpt lat="50.91388" lon="2.7423">
        <ele>5</ele>
        <time>2018-01-05T07:45:32Z</time>
      </trkpt>
      <trkpt lat="50.91379" lon="2.742">
        <ele>5</ele>
        <time>2018-01-05T07:46:32Z</time>
      </trkpt>
      <trkpt lat="50.91367" lon="2.74152">
        <ele>4</ele>
        <time>2018-01-05T07:47:32Z</time>
      </trkpt>
      <trkpt lat="50.91346" lon="2.74068">
        <ele>3</ele>
        <time>2018-01-05T07:48:32Z</time>
      </trkpt>
      <trkpt lat="50.91343" lon="2.74056">
        <ele>3</ele>
        <time>2018-01-05T07:49:32Z</time>
      </trkpt>
      <trkpt lat="50.9134" lon="2.74043">
        <ele>3</ele>
        <time>2018-01-05T07:50:32Z</time>
      </trkpt>
      <trkpt lat="50.91298" lon="2.73907">
        <ele>6</ele>
        <time>2018-01-05T07:51:32Z</time>
      </trkpt>
      <trkpt lat="50.91284" lon="2.7386">
        <ele>6</ele>
        <time>2018-01-05T07:52:32Z</time>
      </trkpt>
      <trkpt lat="50.91284" lon="2.7386">
        <ele>6</ele>
        <time>2018-01-05T07:53:32Z</time>
      </trkpt>
      <trkpt lat="50.91486" lon="2.7363">
        <ele>8</ele>
        <time>2018-01-05T07:54:32Z</time>
      </trkpt>
      <trkpt lat="50.91541" lon="2.73568">
        <ele>7</ele>
        <time>2018-01-05T07:55:32Z</time>
      </trkpt>
      <trkpt lat="50.91541" lon="2.73568">
        <ele>7</ele>
        <time>2018-01-05T07:56:32Z</time>
      </trkpt>
      <trkpt lat="50.91325" lon="2.73284">
        <ele>8</ele>
        <time>2018-01-05T07:57:32Z</time>
      </trkpt>
      <trkpt lat="50.91284" lon="2.73224">
        <ele>8</ele>
        <time>2018-01-05T07:58:32Z</time>
      </trkpt>
      <trkpt lat="50.91281" lon="2.73217">
        <ele>8</ele>
        <time>2018-01-05T07:59:32Z</time>
      </trkpt>
      <trkpt lat="50.91278" lon="2.73199">
        <ele>8</ele>
        <time>2018-01-05T08:00:32Z</time>
      </trkpt>
      <trkpt lat="50.91271" lon="2.73069">
        <ele>7</ele>
        <time>2018-01-05T08:01:32Z</time>
      </trkpt>
      <trkpt lat="50.91271" lon="2.72962">
        <ele>8</ele>
        <time>2018-01-05T08:02:32Z</time>
      </trkpt>
      <trkpt lat="50.91282" lon="2.72668">
        <ele>9</ele>
        <time>2018-01-05T08:03:32Z</time>
      </trkpt>
      <trkpt lat="50.91283" lon="2.72645">
        <ele>9</ele>
        <time>2018-01-05T08:04:32Z</time>
      </trkpt>
      <trkpt lat="50.91289" lon="2.72617">
        <ele>9</ele>
        <time>2018-01-05T08:05:32Z</time>
      </trkpt>
      <trkpt lat="50.91311" lon="2.72547">
        <ele>9</ele>
        <time>2018-01-05T08:06:32Z</time>
      </trkpt>
      <trkpt lat="50.91314" lon="2.72531">
        <ele>10</ele>
        <time>2018-01-05T08:07:32Z</time>
      </trkpt>
      <trkpt lat="50.91314" lon="2.72519">
        <ele>10</ele>
        <time>2018-01-05T08:08:32Z</time>
      </trkpt>
      <trkpt lat="50.91313" lon="2.72503">
        <ele>10</ele>
        <time>2018-01-05T08:09:32Z</time>
      </trkpt>
      <trkpt lat="50.91311" lon="2.72482">
        <ele>9</ele>
        <time>2018-01-05T08:10:32Z</time>
      </trkpt>
      <trkpt lat="50.91303" lon="2.72417">
        <ele>9</ele>
        <time>2018-01-05T08:11:32Z</time>
      </trkpt>
      <trkpt lat="50.91302" lon="2.72411">
        <ele>9</ele>
        <time>2018-01-05T08:12:32Z</time>
      </trkpt>
      <trkpt lat="50.91301" lon="2.72405">
        <ele>9</ele>
        <time>2018-01-05T08:13:32Z</time>
      </trkpt>
      <trkpt lat="50.91315" lon="2.72283">
        <ele>9</ele>
        <time>2018-01-05T08:14:32Z</time>
      </trkpt>
      <trkpt lat="50.91323" lon="2.72179">
        <ele>9</ele>
        <time>2018-01-05T08:15:32Z</time>
      </trkpt>
      <trkpt lat="50.91329" lon="2.72122">
        <ele>9</ele>
        <time>2018-01-05T08:16:32Z</time>
      </trkpt>
      <trkpt lat="50.91329" lon="2.72085">
        <ele>9</ele>
        <time>2018-01-05T08:17:32Z</time>
      </trkpt>
      <trkpt lat="50.91319" lon="2.71981">
        <ele>9</ele>
        <time>2018-01-05T08:18:32Z</time>
      </trkpt>
      <trkpt lat="50.91321" lon="2.71957">
        <ele>10</ele>
        <time>2018-01-05T08:19:32Z</time>
      </trkpt>
      <trkpt lat="50.91326" lon="2.71932">
        <ele>10</ele>
        <time>2018-01-05T08:20:32Z</time>
      </trkpt>
      <trkpt lat="50.91334" lon="2.71901">
        <ele>10</ele>
        <time>2018-01-05T08:21:32Z</time>
      </trkpt>
      <trkpt lat="50.91339" lon="2.7187">
        <ele>10</ele>
        <time>2018-01-05T08:22:32Z</time>
      </trkpt>
      <trkpt lat="50.91339" lon="2.71825">
        <ele>10</ele>
        <time>2018-01-05T08:23:32Z</time>
      </trkpt>
      <trkpt lat="50.91337" lon="2.71771">
        <ele>9</ele>
        <time>2018-01-05T08:24:32Z</time>
      </trkpt>
      <trkpt lat="50.91338" lon="2.71729">
        <ele>9</ele>
        <time>2018-01-05T08:25:32Z</time>
      </trkpt>
      <trkpt lat="50.91339" lon="2.71645">
        <ele>9</ele>
        <time>2018-01-05T08:26:32Z</time>
      </trkpt>
      <trkpt lat="50.91352" lon="2.71466">
        <ele>9</ele>
        <time>2018-01-05T08:27:32Z</time>
      </trkpt>
      <trkpt lat="50.91372" lon="2.71062">
        <ele>10</ele>
        <time>2018-01-05T08:28:32Z</time>
      </trkpt>
      <trkpt lat="50.91378" lon="2.70843">
        <ele>9</ele>
        <time>2018-01-05T08:29:32Z</time>
      </trkpt>
      <trkpt lat="50.91376" lon="2.70818">
        <ele>9</ele>
        <time>2018-01-05T08:30:32Z</time>
      </trkpt>
      <trkpt lat="50.91376" lon="2.70756">
        <ele>9</ele>
        <time>2018-01-05T08:31:32Z</time>
      </trkpt>
      <trkpt lat="50.91381" lon="2.70528">
        <ele>7</ele>
        <time>2018-01-05T08:32:32Z</time>
      </trkpt>
      <trkpt lat="50.91378" lon="2.70468">
        <ele>7</ele>
        <time>2018-01-05T08:33:32Z</time>
      </trkpt>
      <trkpt lat="50.91364" lon="2.70384">
        <ele>8</ele>
        <time>2018-01-05T08:34:32Z</time>
      </trkpt>
      <trkpt lat="50.91364" lon="2.70363">
        <ele>8</ele>
        <time>2018-01-05T08:35:32Z</time>
      </trkpt>
      <trkpt lat="50.91366" lon="2.7032">
        <ele>8</ele>
        <time>2018-01-05T08:36:32Z</time>
      </trkpt>
      <trkpt lat="50.91368" lon="2.70306">
        <ele>8</ele>
        <time>2018-01-05T08:37:32Z</time>
      </trkpt>
      <trkpt lat="50.91376" lon="2.7028">
        <ele>8</ele>
        <time>2018-01-05T08:38:32Z</time>
      </trkpt>
      <trkpt lat="50.91396" lon="2.7024">
        <ele>8</ele>
        <time>2018-01-05T08:39:32Z</time>
      </trkpt>
      <trkpt lat="50.91399" lon="2.70225">
        <ele>8</ele>
        <time>2018-01-05T08:40:32Z</time>
      </trkpt>
      <trkpt lat="50.914" lon="2.70206">
        <ele>8</ele>
        <time>2018-01-05T08:41:32Z</time>
      </trkpt>
      <trkpt lat="50.91396" lon="2.70175">
        <ele>8</ele>
        <time>2018-01-05T08:42:32Z</time>
      </trkpt>
      <trkpt lat="50.91391" lon="2.70112">
        <ele>8</ele>
        <time>2018-01-05T08:43:32Z</time>
      </trkpt>
      <trkpt lat="50.91385" lon="2.7003">
        <ele>8</ele>
        <time>2018-01-05T08:44:32Z</time>
      </trkpt>
      <trkpt lat="50.91386" lon="2.70014">
        <ele>8</ele>
        <time>2018-01-05T08:45:32Z</time>
      </trkpt>
      <trkpt lat="50.91387" lon="2.70003">
        <ele>8</ele>
        <time>2018-01-05T08:46:32Z</time>
      </trkpt>
      <trkpt lat="50.91406" lon="2.69921">
        <ele>6</ele>
        <time>2018-01-05T08:47:32Z</time>
      </trkpt>
      <trkpt lat="50.91414" lon="2.69881">
        <ele>6</ele>
        <time>2018-01-05T08:48:32Z</time>
      </trkpt>
      <trkpt lat="50.91422" lon="2.69769">
        <ele>6</ele>
        <time>2018-01-05T08:49:32Z</time>
      </trkpt>
      <trkpt lat="50.91427" lon="2.69535">
        <ele>6</ele>
        <time>2018-01-05T08:50:32Z</time>
      </trkpt>
      <trkpt lat="50.91429" lon="2.69504">
        <ele>6</ele>
        <time>2018-01-05T08:51:32Z</time>
      </trkpt>
      <trkpt lat="50.91433" lon="2.69474">
        <ele>6</ele>
        <time>2018-01-05T08:52:32Z</time>
      </trkpt>
      <trkpt lat="50.91456" lon="2.69311">
        <ele>7</ele>
        <time>2018-01-05T08:53:32Z</time>
      </trkpt>
      <trkpt lat="50.91461" lon="2.6929">
        <ele>6</ele>
        <time>2018-01-05T08:54:32Z</time>
      </trkpt>
      <trkpt lat="50.91469" lon="2.69283">
        <ele>6</ele>
        <time>2018-01-05T08:55:32Z</time>
      </trkpt>
      <trkpt lat="50.91475" lon="2.6928">
        <ele>6</ele>
        <time>2018-01-05T08:56:32Z</time>
      </trkpt>
      <trkpt lat="50.91557" lon="2.69259">
        <ele>7</ele>
        <time>2018-01-05T08:57:32Z</time>
      </trkpt>
      <trkpt lat="50.91557" lon="2.69259">
        <ele>7</ele>
        <time>2018-01-05T08:58:32Z</time>
      </trkpt>
      <trkpt lat="50.91527" lon="2.69057">
        <ele>8</ele>
        <time>2018-01-05T08:59:32Z</time>
      </trkpt>
      <trkpt lat="50.91505" lon="2.68955">
        <ele>9</ele>
        <time>2018-01-05T09:00:32Z</time>
      </trkpt>
      <trkpt lat="50.91505" lon="2.68955">
        <ele>9</ele>
        <time>2018-01-05T09:01:32Z</time>
      </trkpt>
      <trkpt lat="50.91485" lon="2.68869">
        <ele>9</ele>
        <time>2018-01-05T09:02:32Z</time>
      </trkpt>
      <trkpt lat="50.91482" lon="2.68853">
        <ele>9</ele>
        <time>2018-01-05T09:03:32Z</time>
      </trkpt>
      <trkpt lat="50.91481" lon="2.68846">
        <ele>9</ele>
        <time>2018-01-05T09:04:32Z</time>
      </trkpt>
      <trkpt lat="50.9148" lon="2.68838">
        <ele>9</ele>
        <time>2018-01-05T09:05:32Z</time>
      </trkpt>
      <trkpt lat="50.91479" lon="2.68832">
        <ele>9</ele>
        <time>2018-01-05T09:06:32Z</time>
      </trkpt>
      <trkpt lat="50.91477" lon="2.68815">
        <ele>9</ele>
        <time>2018-01-05T09:07:32Z</time>
      </trkpt>
      <trkpt lat="50.91477" lon="2.6879">
        <ele>8</ele>
        <time>2018-01-05T09:08:32Z</time>
      </trkpt>
      <trkpt lat="50.91475" lon="2.68772">
        <ele>8</ele>
        <time>2018-01-05T09:09:32Z</time>
      </trkpt>
      <trkpt lat="50.91475" lon="2.68772">
        <ele>8</ele>
        <time>2018-01-05T09:10:32Z</time>
      </trkpt>
      <trkpt lat="50.91476" lon="2.68772">
        <ele>8</ele>
        <time>2018-01-05T09:11:32Z</time>
      </trkpt>
      <trkpt lat="50.91478" lon="2.6877">
        <ele>8</ele>
        <time>2018-01-05T09:12:32Z</time>
      </trkpt>
      <trkpt lat="50.91479" lon="2.68769">
        <ele>8</ele>
        <time>2018-01-05T09:13:32Z</time>
      </trkpt>
      <trkpt lat="50.91481" lon="2.68766">
        <ele>8</ele>
        <time>2018-01-05T09:14:32Z</time>
      </trkpt>
      <trkpt lat="50.91481" lon="2.68763">
        <ele>8</ele>
        <time>2018-01-05T09:15:32Z</time>
      </trkpt>
      <trkpt lat="50.91482" lon="2.68761">
        <ele>8</ele>
        <time>2018-01-05T09:16:32Z</time>
      </trkpt>
      <trkpt lat="50.91482" lon="2.68758">
        <ele>8</ele>
        <time>2018-01-05T09:17:32Z</time>
      </trkpt>
      <trkpt lat="50.91482" lon="2.68754">
        <ele>8</ele>
        <time>2018-01-05T09:18:32Z</time>
      </trkpt>
      <trkpt lat="50.91482" lon="2.68753">
        <ele>8</ele>
        <time>2018-01-05T09:19:32Z</time>
      </trkpt>
      <trkpt lat="50.91481" lon="2.68749">
        <ele>8</ele>
        <time>2018-01-05T09:20:32Z</time>
      </trkpt>
      <trkpt lat="50.9148" lon="2.68747">
        <ele>8</ele>
        <time>2018-01-05T09:21:32Z</time>
      </trkpt>
      <trkpt lat="50.91479" lon="2.68745">
        <ele>8</ele>
        <time>2018-01-05T09:22:32Z</time>
      </trkpt>
      <trkpt lat="50.9148" lon="2.68714">
        <ele>8</ele>
        <time>2018-01-05T09:23:32Z</time>
      </trkpt>
      <trkpt lat="50.91485" lon="2.68619">
        <ele>7</ele>
        <time>2018-01-05T09:24:32Z</time>
      </trkpt>
      <trkpt lat="50.91507" lon="2.68171">
        <ele>6</ele>
        <time>2018-01-05T09:25:32Z</time>
      </trkpt>
      <trkpt lat="50.91507" lon="2.68171">
        <ele>6</ele>
        <time>2018-01-05T09:26:32Z</time>
      </trkpt>
      <trkpt lat="50.91546" lon="2.68166">
        <ele>5</ele>
        <time>2018-01-05T09:27:32Z</time>
      </trkpt>
      <trkpt lat="50.91584" lon="2.68155">
        <ele>5</ele>
        <time>2018-01-05T09:28:32Z</time>
      </trkpt>
      <trkpt lat="50.91622" lon="2.68139">
        <ele>5</ele>
        <time>2018-01-05T09:29:32Z</time>
      </trkpt>
      <trkpt lat="50.91644" lon="2.68126">
        <ele>5</ele>
        <time>2018-01-05T09:30:32Z</time>
      </trkpt>
      <trkpt lat="50.91675" lon="2.68105">
        <ele>5</ele>
        <time>2018-01-05T09:31:32Z</time>
      </trkpt>
      <trkpt lat="50.91686" lon="2.68092">
        <ele>5</ele>
        <time>2018-01-05T09:32:32Z</time>
      </trkpt>
      <trkpt lat="50.91719" lon="2.68063">
        <ele>5</ele>
        <time>2018-01-05T09:33:32Z</time>
      </trkpt>
      <trkpt lat="50.91723" lon="2.68059">
        <ele>5</ele>
        <time>2018-01-05T09:34:32Z</time>
      </trkpt>
      <trkpt lat="50.91809" lon="2.67984">
        <ele>5</ele>
        <time>2018-01-05T09:35:32Z</time>
      </trkpt>
      <trkpt lat="50.91824" lon="2.67971">
        <ele>5</ele>
        <time>2018-01-05T09:36:32Z</time>
      </trkpt>
      <trkpt lat="50.92018" lon="2.67798">
        <ele>3</ele>
        <time>2018-01-05T09:37:32Z</time>
      </trkpt>
      <trkpt lat="50.92226" lon="2.67615">
        <ele>5</ele>
        <time>2018-01-05T09:38:32Z</time>
      </trkpt>
      <trkpt lat="50.92262" lon="2.67589">
        <ele>5</ele>
        <time>2018-01-05T09:39:32Z</time>
      </trkpt>
      <trkpt lat="50.92285" lon="2.67579">
        <ele>4</ele>
        <time>2018-01-05T09:40:32Z</time>
      </trkpt>
      <trkpt lat="50.92285" lon="2.67579">
        <ele>4</ele>
        <time>2018-01-05T09:41:32Z</time>
      </trkpt>
      <trkpt lat="50.92658" lon="2.67424">
        <ele>3</ele>
        <time>2018-01-05T09:42:32Z</time>
      </trkpt>
      <trkpt lat="50.92693" lon="2.67406">
        <ele>3</ele>
        <time>2018-01-05T09:43:32Z</time>
      </trkpt>
      <trkpt lat="50.92704" lon="2.674">
        <ele>3</ele>
        <time>2018-01-05T09:44:32Z</time>
      </trkpt>
      <trkpt lat="50.93101" lon="2.67169">
        <ele>5</ele>
        <time>2018-01-05T09:45:32Z</time>
      </trkpt>
      <trkpt lat="50.93185" lon="2.67121">
        <ele>2</ele>
        <time>2018-01-05T09:46:32Z</time>
      </trkpt>
      <trkpt lat="50.93309" lon="2.67049">
        <ele>1</ele>
        <time>2018-01-05T09:47:32Z</time>
      </trkpt>
      <trkpt lat="50.93331" lon="2.67043">
        <ele>1</ele>
        <time>2018-01-05T09:48:32Z</time>
      </trkpt>
      <trkpt lat="50.93348" lon="2.67043">
        <ele>1</ele>
        <time>2018-01-05T09:49:32Z</time>
      </trkpt>
      <trkpt lat="50.9336" lon="2.67049">
        <ele>1</ele>
        <time>2018-01-05T09:50:32Z</time>
      </trkpt>
      <trkpt lat="50.93376" lon="2.67061">
        <ele>1</ele>
        <time>2018-01-05T09:51:32Z</time>
      </trkpt>
      <trkpt lat="50.93504" lon="2.67156">
        <ele>2</ele>
        <time>2018-01-05T09:52:32Z</time>
      </trkpt>
      <trkpt lat="50.93536" lon="2.67176">
        <ele>2</ele>
        <time>2018-01-05T09:53:32Z</time>
      </trkpt>
      <trkpt lat="50.93552" lon="2.67176">
        <ele>2</ele>
        <time>2018-01-05T09:54:32Z</time>
      </trkpt>
      <trkpt lat="50.93567" lon="2.67172">
        <ele>2</ele>
        <time>2018-01-05T09:55:32Z</time>
      </trkpt>
      <trkpt lat="50.93582" lon="2.67163">
        <ele>2</ele>
        <time>2018-01-05T09:56:32Z</time>
      </trkpt>
      <trkpt lat="50.93633" lon="2.6713">
        <ele>2</ele>
        <time>2018-01-05T09:57:32Z</time>
      </trkpt>
      <trkpt lat="50.93824" lon="2.67003">
        <ele>3</ele>
        <time>2018-01-05T09:58:32Z</time>
      </trkpt>
      <trkpt lat="50.93832" lon="2.67001">
        <ele>3</ele>
        <time>2018-01-05T09:59:32Z</time>
      </trkpt>
      <trkpt lat="50.93841" lon="2.67001">
        <ele>3</ele>
        <time>2018-01-05T10:00:32Z</time>
      </trkpt>
      <trkpt lat="50.93871" lon="2.6702">
        <ele>3</ele>
        <time>2018-01-05T10:01:32Z</time>
      </trkpt>
      <trkpt lat="50.93894" lon="2.67092">
        <ele>3</ele>
        <time>2018-01-05T10:02:32Z</time>
      </trkpt>
      <trkpt lat="50.93912" lon="2.67148">
        <ele>3</ele>
        <time>2018-01-05T10:03:32Z</time>
      </trkpt>
      <trkpt lat="50.93955" lon="2.6726">
        <ele>3</ele>
        <time>2018-01-05T10:04:32Z</time>
      </trkpt>
      <trkpt lat="50.9397" lon="2.67306">
        <ele>4</ele>
        <time>2018-01-05T10:05:32Z</time>
      </trkpt>
      <trkpt lat="50.9397" lon="2.67306">
        <ele>4</ele>
        <time>2018-01-05T10:06:32Z</time>
      </trkpt>
      <trkpt lat="50.94025" lon="2.67261">
        <ele>3</ele>
        <time>2018-01-05T10:07:32Z</time>
      </trkpt>
      <trkpt lat="50.94065" lon="2.67231">
        <ele>3</ele>
        <time>2018-01-05T10:08:32Z</time>
      </trkpt>
      <trkpt lat="50.94139" lon="2.67185">
        <ele>2</ele>
        <time>2018-01-05T10:09:32Z</time>
      </trkpt>
      <trkpt lat="50.94153" lon="2.67181">
        <ele>2</ele>
        <time>2018-01-05T10:10:32Z</time>
      </trkpt>
      <trkpt lat="50.94166" lon="2.67179">
        <ele>2</ele>
        <time>2018-01-05T10:11:32Z</time>
      </trkpt>
      <trkpt lat="50.94182" lon="2.67177">
        <ele>2</ele>
        <time>2018-01-05T10:12:32Z</time>
      </trkpt>
      <trkpt lat="50.94281" lon="2.6721">
        <ele>2</ele>
        <time>2018-01-05T10:13:32Z</time>
      </trkpt>
      <trkpt lat="50.94307" lon="2.67215">
        <ele>2</ele>
        <time>2018-01-05T10:14:32Z</time>
      </trkpt>
      <trkpt lat="50.94321" lon="2.67214">
        <ele>2</ele>
        <time>2018-01-05T10:15:32Z</time>
      </trkpt>
      <trkpt lat="50.94346" lon="2.67209">
        <ele>2</ele>
        <time>2018-01-05T10:16:32Z</time>
      </trkpt>
      <trkpt lat="50.94417" lon="2.67179">
        <ele>1</ele>
        <time>2018-01-05T10:17:32Z</time>
      </trkpt>
      <trkpt lat="50.94602" lon="2.67102">
        <ele>1</ele>
        <time>2018-01-05T10:18:32Z</time>
      </trkpt>
      <trkpt lat="50.9462" lon="2.67086">
        <ele>1</ele>
        <time>2018-01-05T10:19:32Z</time>
      </trkpt>
      <trkpt lat="50.94624" lon="2.6708">
        <ele>1</ele>
        <time>2018-01-05T10:20:32Z</time>
      </trkpt>
      <trkpt lat="50.94727" lon="2.66835">
        <ele>4</ele>
        <time>2018-01-05T10:21:32Z</time>
      </trkpt>
      <trkpt lat="50.94868" lon="2.66491">
        <ele>8</ele>
        <time>2018-01-05T10:22:32Z</time>
      </trkpt>
      <trkpt lat="50.94941" lon="2.66315">
        <ele>7</ele>
        <time>2018-01-05T10:23:32Z</time>
      </trkpt>
      <trkpt lat="50.94978" lon="2.66226">
        <ele>8</ele>
        <time>2018-01-05T10:24:32Z</time>
      </trkpt>
      <trkpt lat="50.94988" lon="2.66205">
        <ele>8</ele>
        <time>2018-01-05T10:25:32Z</time>
      </trkpt>
      <trkpt lat="50.94998" lon="2.66191">
        <ele>9</ele>
        <time>2018-01-05T10:26:32Z</time>
      </trkpt>
      <trkpt lat="50.94998" lon="2.66191">
        <ele>9</ele>
        <time>2018-01-05T10:27:32Z</time>
      </trkpt>
      <trkpt lat="50.95026" lon="2.66167">
        <ele>9</ele>
        <time>2018-01-05T10:28:32Z</time>
      </trkpt>
      <trkpt lat="50.95109" lon="2.66103">
        <ele>8</ele>
        <time>2018-01-05T10:29:32Z</time>
      </trkpt>
      <trkpt lat="50.95206" lon="2.66027">
        <ele>8</ele>
        <time>2018-01-05T10:30:32Z</time>
      </trkpt>
      <trkpt lat="50.95337" lon="2.65925">
        <ele>8</ele>
        <time>2018-01-05T10:31:32Z</time>
      </trkpt>
      <trkpt lat="50.95456" lon="2.65839">
        <ele>8</ele>
        <time>2018-01-05T10:32:32Z</time>
      </trkpt>
      <trkpt lat="50.95654" lon="2.65697">
        <ele>7</ele>
        <time>2018-01-05T10:33:32Z</time>
      </trkpt>
      <trkpt lat="50.95696" lon="2.65666">
        <ele>7</ele>
        <time>2018-01-05T10:34:32Z</time>
      </trkpt>
      <trkpt lat="50.95744" lon="2.65634">
        <ele>6</ele>
        <time>2018-01-05T10:35:32Z</time>
      </trkpt>
      <trkpt lat="50.95871" lon="2.65544">
        <ele>8</ele>
        <time>2018-01-05T10:36:32Z</time>
      </trkpt>
      <trkpt lat="50.95872" lon="2.65543">
        <ele>8</ele>
        <time>2018-01-05T10:37:32Z</time>
      </trkpt>
      <trkpt lat="50.95873" lon="2.65542">
        <ele>8</ele>
        <time>2018-01-05T10:38:32Z</time>
      </trkpt>
      <trkpt lat="50.95874" lon="2.65541">
        <ele>8</ele>
        <time>2018-01-05T10:39:32Z</time>
      </trkpt>
      <trkpt lat="50.95879" lon="2.65533">
        <ele>8</ele>
        <time>2018-01-05T10:40:32Z</time>
      </trkpt>
      <trkpt lat="50.95879" lon="2.65533">
        <ele>8</ele>
        <time>2018-01-05T10:41:32Z</time>
      </trkpt>
      <trkpt lat="50.95896" lon="2.6554">
        <ele>8</ele>
        <time>2018-01-05T10:42:32Z</time>
      </trkpt>
      <trkpt lat="50.95896" lon="2.6554">
        <ele>8</ele>
        <time>2018-01-05T10:43:32Z</time>
      </trkpt>
      <trkpt lat="50.95899" lon="2.65531">
        <ele>8</ele>
        <time>2018-01-05T10:44:32Z</time>
      </trkpt>
      <trkpt lat="50.95901" lon="2.6553">
        <ele>8</ele>
        <time>2018-01-05T10:45:32Z</time>
      </trkpt>
      <trkpt lat="50.95902" lon="2.65528">
        <ele>8</ele>
        <time>2018-01-05T10:46:32Z</time>
      </trkpt>
      <trkpt lat="50.95903" lon="2.65527">
        <ele>8</ele>
        <time>2018-01-05T10:47:32Z</time>
      </trkpt>
      <trkpt lat="50.96119" lon="2.65369">
        <ele>10</ele>
        <time>2018-01-05T10:48:32Z</time>
      </trkpt>
      <trkpt lat="50.96227" lon="2.65289">
        <ele>11</ele>
        <time>2018-01-05T10:49:32Z</time>
      </trkpt>
      <trkpt lat="50.96273" lon="2.65253">
        <ele>11</ele>
        <time>2018-01-05T10:50:32Z</time>
      </trkpt>
      <trkpt lat="50.96287" lon="2.65248">
        <ele>11</ele>
        <time>2018-01-05T10:51:32Z</time>
      </trkpt>
      <trkpt lat="50.963" lon="2.65249">
        <ele>11</ele>
        <time>2018-01-05T10:52:32Z</time>
      </trkpt>
      <trkpt lat="50.96306" lon="2.65252">
        <ele>11</ele>
        <time>2018-01-05T10:53:32Z</time>
      </trkpt>
      <trkpt lat="50.96317" lon="2.65264">
        <ele>11</ele>
        <time>2018-01-05T10:54:32Z</time>
      </trkpt>
      <trkpt lat="50.9635" lon="2.65384">
        <ele>12</ele>
        <time>2018-01-05T10:55:32Z</time>
      </trkpt>
      <trkpt lat="50.9636" lon="2.65413">
        <ele>12</ele>
        <time>2018-01-05T10:56:32Z</time>
      </trkpt>
      <trkpt lat="50.96368" lon="2.65422">
        <ele>12</ele>
        <time>2018-01-05T10:57:32Z</time>
      </trkpt>
      <trkpt lat="50.96378" lon="2.65429">
        <ele>12</ele>
        <time>2018-01-05T10:58:32Z</time>
      </trkpt>
      <trkpt lat="50.96393" lon="2.65433">
        <ele>13</ele>
        <time>2018-01-05T10:59:32Z</time>
      </trkpt>
      <trkpt lat="50.96405" lon="2.65429">
        <ele>13</ele>
        <time>2018-01-05T11:00:32Z</time>
      </trkpt>
      <trkpt lat="50.96483" lon="2.65366">
        <ele>12</ele>
        <time>2018-01-05T11:01:32Z</time>
      </trkpt>
      <trkpt lat="50.96499" lon="2.65355">
        <ele>12</ele>
        <time>2018-01-05T11:02:32Z</time>
      </trkpt>
      <trkpt lat="50.96605" lon="2.65293">
        <ele>12</ele>
        <time>2018-01-05T11:03:32Z</time>
      </trkpt>
      <trkpt lat="50.96611" lon="2.65292">
        <ele>12</ele>
        <time>2018-01-05T11:04:32Z</time>
      </trkpt>
      <trkpt lat="50.96631" lon="2.65293">
        <ele>12</ele>
        <time>2018-01-05T11:05:32Z</time>
      </trkpt>
      <trkpt lat="50.96765" lon="2.65308">
        <ele>13</ele>
        <time>2018-01-05T11:06:32Z</time>
      </trkpt>
      <trkpt lat="50.96792" lon="2.65308">
        <ele>13</ele>
        <time>2018-01-05T11:07:32Z</time>
      </trkpt>
      <trkpt lat="50.96868" lon="2.65296">
        <ele>13</ele>
        <time>2018-01-05T11:08:32Z</time>
      </trkpt>
      <trkpt lat="50.96908" lon="2.65297">
        <ele>12</ele>
        <time>2018-01-05T11:09:32Z</time>
      </trkpt>
      <trkpt lat="50.96921" lon="2.65298">
        <ele>12</ele>
        <time>2018-01-05T11:10:32Z</time>
      </trkpt>
      <trkpt lat="50.96966" lon="2.65312">
        <ele>12</ele>
        <time>2018-01-05T11:11:32Z</time>
      </trkpt>
      <trkpt lat="50.96984" lon="2.65313">
        <ele>11</ele>
        <time>2018-01-05T11:12:32Z</time>
      </trkpt>
      <trkpt lat="50.97003" lon="2.65308">
        <ele>11</ele>
        <time>2018-01-05T11:13:32Z</time>
      </trkpt>
      <trkpt lat="50.97015" lon="2.65303">
        <ele>11</ele>
        <time>2018-01-05T11:14:32Z</time>
      </trkpt>
      <trkpt lat="50.97026" lon="2.65296">
        <ele>12</ele>
        <time>2018-01-05T11:15:32Z</time>
      </trkpt>
      <trkpt lat="50.97027" lon="2.65295">
        <ele>12</ele>
        <time>2018-01-05T11:16:32Z</time>
      </trkpt>
      <trkpt lat="50.97071" lon="2.6526">
        <ele>12</ele>
        <time>2018-01-05T11:17:32Z</time>
      </trkpt>
      <trkpt lat="50.9709" lon="2.6525">
        <ele>12</ele>
        <time>2018-01-05T11:18:32Z</time>
      </trkpt>
      <trkpt lat="50.97127" lon="2.65234">
        <ele>11</ele>
        <time>2018-01-05T11:19:32Z</time>
      </trkpt>
      <trkpt lat="50.97127" lon="2.65234">
        <ele>11</ele>
        <time>2018-01-05T11:20:32Z</time>
      </trkpt>
      <trkpt lat="50.97153" lon="2.65224">
        <ele>11</ele>
        <time>2018-01-05T11:21:32Z</time>
      </trkpt>
      <trkpt lat="50.97153" lon="2.65224">
        <ele>11</ele>
        <time>2018-01-05T11:22:32Z</time>
      </trkpt>
      <trkpt lat="50.97166" lon="2.65132">
        <ele>11</ele>
        <time>2018-01-05T11:23:32Z</time>
      </trkpt>
      <trkpt lat="50.97167" lon="2.65123">
        <ele>12</ele>
        <time>2018-01-05T11:24:32Z</time>
      </trkpt>
      <trkpt lat="50.97171" lon="2.651">
        <ele>12</ele>
        <time>2018-01-05T11:25:32Z</time>
      </trkpt>
      <trkpt lat="50.97183" lon="2.65017">
        <ele>12</ele>
        <time>2018-01-05T11:26:32Z</time>
      </trkpt>
      <trkpt lat="50.97199" lon="2.64932">
        <ele>12</ele>
        <time>2018-01-05T11:27:32Z</time>
      </trkpt>
      <trkpt lat="50.97233" lon="2.64787">
        <ele>12</ele>
        <time>2018-01-05T11:28:32Z</time>
      </trkpt>
      <trkpt lat="50.97259" lon="2.6463">
        <ele>13</ele>
        <time>2018-01-05T11:29:32Z</time>
      </trkpt>
      <trkpt lat="50.97259" lon="2.64628">
        <ele>13</ele>
        <time>2018-01-05T11:30:32Z</time>
      </trkpt>
      <trkpt lat="50.97288" lon="2.64444">
        <ele>13</ele>
        <time>2018-01-05T11:31:32Z</time>
      </trkpt>
      <trkpt lat="50.97301" lon="2.64315">
        <ele>12</ele>
        <time>2018-01-05T11:32:32Z</time>
      </trkpt>
      <trkpt lat="50.97312" lon="2.64247">
        <ele>11</ele>
        <time>2018-01-05T11:33:32Z</time>
      </trkpt>
      <trkpt lat="50.9733" lon="2.6417">
        <ele>11</ele>
        <time>2018-01-05T11:34:32Z</time>
      </trkpt>
      <trkpt lat="50.97346" lon="2.64106">
        <ele>10</ele>
        <time>2018-01-05T11:35:32Z</time>
      </trkpt>
      <trkpt lat="50.97355" lon="2.64057">
        <ele>10</ele>
        <time>2018-01-05T11:36:32Z</time>
      </trkpt>
      <trkpt lat="50.97411" lon="2.63608">
        <ele>11</ele>
        <time>2018-01-05T11:37:32Z</time>
      </trkpt>
      <trkpt lat="50.97458" lon="2.63268">
        <ele>10</ele>
        <time>2018-01-05T11:38:32Z</time>
      </trkpt>
      <trkpt lat="50.97486" lon="2.63058">
        <ele>9</ele>
        <time>2018-01-05T11:39:32Z</time>
      </trkpt>
      <trkpt lat="50.97501" lon="2.62971">
        <ele>9</ele>
        <time>2018-01-05T11:40:32Z</time>
      </trkpt>
      <trkpt lat="50.97506" lon="2.62952">
        <ele>10</ele>
        <time>2018-01-05T11:41:32Z</time>
      </trkpt>
      <trkpt lat="50.97519" lon="2.62895">
        <ele>10</ele>
        <time>2018-01-05T11:42:32Z</time>
      </trkpt>
      <trkpt lat="50.97525" lon="2.62877">
        <ele>10</ele>
        <time>2018-01-05T11:43:32Z</time>
      </trkpt>
      <trkpt lat="50.9753" lon="2.62829">
        <ele>10</ele>
        <time>2018-01-05T11:44:32Z</time>
      </trkpt>
      <trkpt lat="50.9753" lon="2.62814">
        <ele>9</ele>
        <time>2018-01-05T11:45:32Z</time>
      </trkpt>
      <trkpt lat="50.9754" lon="2.62755">
        <ele>9</ele>
        <time>2018-01-05T11:46:32Z</time>
      </trkpt>
      <trkpt lat="50.9755" lon="2.62638">
        <ele>9</ele>
        <time>2018-01-05T11:47:32Z</time>
      </trkpt>
      <trkpt lat="50.97558" lon="2.62565">
        <ele>10</ele>
        <time>2018-01-05T11:48:32Z</time>
      </trkpt>
      <trkpt lat="50.97563" lon="2.62513">
        <ele>10</ele>
        <time>2018-01-05T11:49:32Z</time>
      </trkpt>
      <trkpt lat="50.97573" lon="2.62451">
        <ele>10</ele>
        <time>2018-01-05T11:50:32Z</time>
      </trkpt>
      <trkpt lat="50.97585" lon="2.62384">
        <ele>10</ele>
        <time>2018-01-05T11:51:32Z</time>
      </trkpt>
      <trkpt lat="50.97599" lon="2.62329">
        <ele>10</ele>
        <time>2018-01-05T11:52:32Z</time>
      </trkpt>
      <trkpt lat="50.9762" lon="2.62256">
        <ele>10</ele>
        <time>2018-01-05T11:53:32Z</time>
      </trkpt>
      <trkpt lat="50.97636" lon="2.62202">
        <ele>9</ele>
        <time>2018-01-05T11:54:32Z</time>
      </trkpt>
      <trkpt lat="50.97654" lon="2.62134">
        <ele>9</ele>
        <time>2018-01-05T11:55:32Z</time>
      </trkpt>
      <trkpt lat="50.97664" lon="2.62082">
        <ele>9</ele>
        <time>2018-01-05T11:56:32Z</time>
      </trkpt>
      <trkpt lat="50.97672" lon="2.62031">
        <ele>9</ele>
        <time>2018-01-05T11:57:32Z</time>
      </trkpt>
      <trkpt lat="50.97688" lon="2.61902">
        <ele>9</ele>
        <time>2018-01-05T11:58:32Z</time>
      </trkpt>
      <trkpt lat="50.97695" lon="2.61851">
        <ele>9</ele>
        <time>2018-01-05T11:59:32Z</time>
      </trkpt>
      <trkpt lat="50.97699" lon="2.6182">
        <ele>9</ele>
        <time>2018-01-05T12:00:32Z</time>
      </trkpt>
      <trkpt lat="50.97719" lon="2.61712">
        <ele>8</ele>
        <time>2018-01-05T12:01:32Z</time>
      </trkpt>
      <trkpt lat="50.97754" lon="2.61488">
        <ele>9</ele>
        <time>2018-01-05T12:02:32Z</time>
      </trkpt>
      <trkpt lat="50.97758" lon="2.61451">
        <ele>9</ele>
        <time>2018-01-05T12:03:32Z</time>
      </trkpt>
      <trkpt lat="50.97765" lon="2.61387">
        <ele>9</ele>
        <time>2018-01-05T12:04:32Z</time>
      </trkpt>
      <trkpt lat="50.97768" lon="2.61352">
        <ele>9</ele>
        <time>2018-01-05T12:05:32Z</time>
      </trkpt>
      <trkpt lat="50.9777" lon="2.61332">
        <ele>9</ele>
        <time>2018-01-05T12:06:32Z</time>
      </trkpt>
      <trkpt lat="50.97773" lon="2.6131">
        <ele>9</ele>
        <time>2018-01-05T12:07:32Z</time>
      </trkpt>
      <trkpt lat="50.97779" lon="2.61278">
        <ele>9</ele>
        <time>2018-01-05T12:08:32Z</time>
      </trkpt>
      <trkpt lat="50.97805" lon="2.61138">
        <ele>9</ele>
        <time>2018-01-05T12:09:32Z</time>
      </trkpt>
      <trkpt lat="50.97808" lon="2.6112">
        <ele>9</ele>
        <time>2018-01-05T12:10:32Z</time>
      </trkpt>
      <trkpt lat="50.97809" lon="2.61106">
        <ele>9</ele>
        <time>2018-01-05T12:11:32Z</time>
      </trkpt>
      <trkpt lat="50.9781" lon="2.61093">
        <ele>9</ele>
        <time>2018-01-05T12:12:32Z</time>
      </trkpt>
      <trkpt lat="50.97811" lon="2.61078">
        <ele>9</ele>
        <time>2018-01-05T12:13:32Z</time>
      </trkpt>
      <trkpt lat="50.9781" lon="2.61065">
        <ele>9</ele>
        <time>2018-01-05T12:14:32Z</time>
      </trkpt>
      <trkpt lat="50.9781" lon="2.61065">
        <ele>9</ele>
        <time>2018-01-05T12:15:32Z</time>
      </trkpt>
      <trkpt lat="50.97809" lon="2.61051">
        <ele>9</ele>
        <time>2018-01-05T12:16:32Z</time>
      </trkpt>
      <trkpt lat="50.97808" lon="2.61038">
        <ele>9</ele>
        <time>2018-01-05T12:17:32Z</time>
      </trkpt>
      <trkpt lat="50.97804" lon="2.61009">
        <ele>9</ele>
        <time>2018-01-05T12:18:32Z</time>
      </trkpt>
      <trkpt lat="50.97789" lon="2.60932">
        <ele>9</ele>
        <time>2018-01-05T12:19:32Z</time>
      </trkpt>
      <trkpt lat="50.97782" lon="2.60893">
        <ele>10</ele>
        <time>2018-01-05T12:20:32Z</time>
      </trkpt>
      <trkpt lat="50.97775" lon="2.60864">
        <ele>10</ele>
        <time>2018-01-05T12:21:32Z</time>
      </trkpt>
      <trkpt lat="50.97769" lon="2.6084">
        <ele>10</ele>
        <time>2018-01-05T12:22:32Z</time>
      </trkpt>
      <trkpt lat="50.97756" lon="2.60792">
        <ele>10</ele>
        <time>2018-01-05T12:23:32Z</time>
      </trkpt>
      <trkpt lat="50.97742" lon="2.6074">
        <ele>10</ele>
        <time>2018-01-05T12:24:32Z</time>
      </trkpt>
      <trkpt lat="50.97728" lon="2.607">
        <ele>10</ele>
        <time>2018-01-05T12:25:32Z</time>
      </trkpt>
      <trkpt lat="50.97716" lon="2.60663">
        <ele>10</ele>
        <time>2018-01-05T12:26:32Z</time>
      </trkpt>
      <trkpt lat="50.97707" lon="2.6064">
        <ele>9</ele>
        <time>2018-01-05T12:27:32Z</time>
      </trkpt>
      <trkpt lat="50.97707" lon="2.6064">
        <ele>9</ele>
        <time>2018-01-05T12:28:32Z</time>
      </trkpt>
      <trkpt lat="50.97712" lon="2.60632">
        <ele>9</ele>
        <time>2018-01-05T12:29:32Z</time>
      </trkpt>
      <trkpt lat="50.97722" lon="2.60611">
        <ele>9</ele>
        <time>2018-01-05T12:30:32Z</time>
      </trkpt>
      <trkpt lat="50.97735" lon="2.60586">
        <ele>9</ele>
        <time>2018-01-05T12:31:32Z</time>
      </trkpt>
      <trkpt lat="50.97741" lon="2.60572">
        <ele>9</ele>
        <time>2018-01-05T12:32:32Z</time>
      </trkpt>
      <trkpt lat="50.97747" lon="2.60559">
        <ele>9</ele>
        <time>2018-01-05T12:33:32Z</time>
      </trkpt>
      <trkpt lat="50.97764" lon="2.60526">
        <ele>9</ele>
        <time>2018-01-05T12:34:32Z</time>
      </trkpt>
      <trkpt lat="50.97782" lon="2.60488">
        <ele>9</ele>
        <time>2018-01-05T12:35:32Z</time>
      </trkpt>
      <trkpt lat="50.97821" lon="2.60404">
        <ele>11</ele>
        <time>2018-01-05T12:36:32Z</time>
      </trkpt>
      <trkpt lat="50.97831" lon="2.60384">
        <ele>11</ele>
        <time>2018-01-05T12:37:32Z</time>
      </trkpt>
      <trkpt lat="50.97842" lon="2.60369">
        <ele>11</ele>
        <time>2018-01-05T12:38:32Z</time>
      </trkpt>
      <trkpt lat="50.9787" lon="2.60336">
        <ele>11</ele>
        <time>2018-01-05T12:39:32Z</time>
      </trkpt>
      <trkpt lat="50.97979" lon="2.60213">
        <ele>9</ele>
        <time>2018-01-05T12:40:32Z</time>
      </trkpt>
      <trkpt lat="50.97982" lon="2.60209">
        <ele>9</ele>
        <time>2018-01-05T12:41:32Z</time>
      </trkpt>
      <trkpt lat="50.97995" lon="2.60188">
        <ele>9</ele>
        <time>2018-01-05T12:42:32Z</time>
      </trkpt>
      <trkpt lat="50.97995" lon="2.60188">
        <ele>9</ele>
        <time>2018-01-05T12:43:32Z</time>
      </trkpt>
      <trkpt lat="50.9797" lon="2.60086">
        <ele>9</ele>
        <time>2018-01-05T12:44:32Z</time>
      </trkpt>
      <trkpt lat="50.97962" lon="2.60045">
        <ele>9</ele>
        <time>2018-01-05T12:45:32Z</time>
      </trkpt>
      <trkpt lat="50.97956" lon="2.60013">
        <ele>9</ele>
        <time>2018-01-05T12:46:32Z</time>
      </trkpt>
      <trkpt lat="50.97951" lon="2.59984">
        <ele>9</ele>
        <time>2018-01-05T12:47:32Z</time>
      </trkpt>
      <trkpt lat="50.97947" lon="2.59951">
        <ele>9</ele>
        <time>2018-01-05T12:48:32Z</time>
      </trkpt>
      <trkpt lat="50.97943" lon="2.59915">
        <ele>8</ele>
        <time>2018-01-05T12:49:32Z</time>
      </trkpt>
      <trkpt lat="50.9794" lon="2.59891">
        <ele>8</ele>
        <time>2018-01-05T12:50:32Z</time>
      </trkpt>
      <trkpt lat="50.97938" lon="2.59872">
        <ele>8</ele>
        <time>2018-01-05T12:51:32Z</time>
      </trkpt>
      <trkpt lat="50.97937" lon="2.59859">
        <ele>8</ele>
        <time>2018-01-05T12:52:32Z</time>
      </trkpt>
      <trkpt lat="50.97937" lon="2.59849">
        <ele>8</ele>
        <time>2018-01-05T12:53:32Z</time>
      </trkpt>
      <trkpt lat="50.97937" lon="2.59841">
        <ele>8</ele>
        <time>2018-01-05T12:54:32Z</time>
      </trkpt>
      <trkpt lat="50.97938" lon="2.59834">
        <ele>8</ele>
        <time>2018-01-05T12:55:32Z</time>
      </trkpt>
      <trkpt lat="50.97938" lon="2.59829">
        <ele>8</ele>
        <time>2018-01-05T12:56:32Z</time>
      </trkpt>
      <trkpt lat="50.9794" lon="2.59822">
        <ele>8</ele>
        <time>2018-01-05T12:57:32Z</time>
      </trkpt>
      <trkpt lat="50.97951" lon="2.59806">
        <ele>8</ele>
        <time>2018-01-05T12:58:32Z</time>
      </trkpt>
      <trkpt lat="50.9797" lon="2.59782">
        <ele>9</ele>
        <time>2018-01-05T12:59:32Z</time>
      </trkpt>
      <trkpt lat="50.97977" lon="2.59771">
        <ele>9</ele>
        <time>2018-01-05T13:00:32Z</time>
      </trkpt>
      <trkpt lat="50.97988" lon="2.5975">
        <ele>9</ele>
        <time>2018-01-05T13:01:32Z</time>
      </trkpt>
      <trkpt lat="50.98014" lon="2.59698">
        <ele>9</ele>
        <time>2018-01-05T13:02:32Z</time>
      </trkpt>
      <trkpt lat="50.98038" lon="2.59642">
        <ele>8</ele>
        <time>2018-01-05T13:03:32Z</time>
      </trkpt>
      <trkpt lat="50.98041" lon="2.59631">
        <ele>8</ele>
        <time>2018-01-05T13:04:32Z</time>
      </trkpt>
      <trkpt lat="50.98045" lon="2.59618">
        <ele>8</ele>
        <time>2018-01-05T13:05:32Z</time>
      </trkpt>
      <trkpt lat="50.98047" lon="2.59607">
        <ele>8</ele>
        <time>2018-01-05T13:06:32Z</time>
      </trkpt>
      <trkpt lat="50.9805" lon="2.59596">
        <ele>8</ele>
        <time>2018-01-05T13:07:32Z</time>
      </trkpt>
      <trkpt lat="50.98052" lon="2.59584">
        <ele>7</ele>
        <time>2018-01-05T13:08:32Z</time>
      </trkpt>
      <trkpt lat="50.98053" lon="2.59573">
        <ele>7</ele>
        <time>2018-01-05T13:09:32Z</time>
      </trkpt>
      <trkpt lat="50.98053" lon="2.59563">
        <ele>7</ele>
        <time>2018-01-05T13:10:32Z</time>
      </trkpt>
      <trkpt lat="50.98052" lon="2.59555">
        <ele>7</ele>
        <time>2018-01-05T13:11:32Z</time>
      </trkpt>
      <trkpt lat="50.98051" lon="2.59545">
        <ele>7</ele>
        <time>2018-01-05T13:12:32Z</time>
      </trkpt>
      <trkpt lat="50.98049" lon="2.59532">
        <ele>7</ele>
        <time>2018-01-05T13:13:32Z</time>
      </trkpt>
      <trkpt lat="50.98046" lon="2.59514">
        <ele>7</ele>
        <time>2018-01-05T13:14:32Z</time>
      </trkpt>
      <trkpt lat="50.98045" lon="2.59506">
        <ele>7</ele>
        <time>2018-01-05T13:15:32Z</time>
      </trkpt>
      <trkpt lat="50.98046" lon="2.59497">
        <ele>7</ele>
        <time>2018-01-05T13:16:32Z</time>
      </trkpt>
      <trkpt lat="50.98047" lon="2.5949">
        <ele>7</ele>
        <time>2018-01-05T13:17:32Z</time>
      </trkpt>
      <trkpt lat="50.98051" lon="2.59479">
        <ele>7</ele>
        <time>2018-01-05T13:18:32Z</time>
      </trkpt>
      <trkpt lat="50.98056" lon="2.59465">
        <ele>7</ele>
        <time>2018-01-05T13:19:32Z</time>
      </trkpt>
      <trkpt lat="50.98058" lon="2.59458">
        <ele>8</ele>
        <time>2018-01-05T13:20:32Z</time>
      </trkpt>
      <trkpt lat="50.98058" lon="2.59452">
        <ele>8</ele>
        <time>2018-01-05T13:21:32Z</time>
      </trkpt>
      <trkpt lat="50.98057" lon="2.59445">
        <ele>8</ele>
        <time>2018-01-05T13:22:32Z</time>
      </trkpt>
      <trkpt lat="50.98055" lon="2.59436">
        <ele>8</ele>
        <time>2018-01-05T13:23:32Z</time>
      </trkpt>
      <trkpt lat="50.98045" lon="2.59405">
        <ele>8</ele>
        <time>2018-01-05T13:24:32Z</time>
      </trkpt>
      <trkpt lat="50.98004" lon="2.59294">
        <ele>8</ele>
        <time>2018-01-05T13:25:32Z</time>
      </trkpt>
      <trkpt lat="50.9795" lon="2.59157">
        <ele>9</ele>
        <time>2018-01-05T13:26:32Z</time>
      </trkpt>
      <trkpt lat="50.9795" lon="2.59157">
        <ele>9</ele>
        <time>2018-01-05T13:27:32Z</time>
      </trkpt>
      <trkpt lat="50.97973" lon="2.59132">
        <ele>9</ele>
        <time>2018-01-05T13:28:32Z</time>
      </trkpt>
      <trkpt lat="50.98005" lon="2.59084">
        <ele>9</ele>
        <time>2018-01-05T13:29:32Z</time>
      </trkpt>
      <trkpt lat="50.98015" lon="2.5907">
        <ele>9</ele>
        <time>2018-01-05T13:30:32Z</time>
      </trkpt>
      <trkpt lat="50.98063" lon="2.59006">
        <ele>10</ele>
        <time>2018-01-05T13:31:32Z</time>
      </trkpt>
      <trkpt lat="50.98091" lon="2.58957">
        <ele>9</ele>
        <time>2018-01-05T13:32:32Z</time>
      </trkpt>
      <trkpt lat="50.98096" lon="2.58942">
        <ele>9</ele>
        <time>2018-01-05T13:33:32Z</time>
      </trkpt>
      <trkpt lat="50.98096" lon="2.58942">
        <ele>9</ele>
        <time>2018-01-05T13:34:32Z</time>
      </trkpt>
      <trkpt lat="50.98083" lon="2.5893">
        <ele>9</ele>
        <time>2018-01-05T13:35:32Z</time>
      </trkpt>
      <trkpt lat="50.98083" lon="2.5893">
        <ele>9</ele>
        <time>2018-01-05T13:36:32Z</time>
      </trkpt>
      <trkpt lat="50.98098" lon="2.58895">
        <ele>9</ele>
        <time>2018-01-05T13:37:32Z</time>
      </trkpt>
      <trkpt lat="50.98102" lon="2.58888">
        <ele>9</ele>
        <time>2018-01-05T13:38:32Z</time>
      </trkpt>
      <trkpt lat="50.9812" lon="2.58853">
        <ele>9</ele>
        <time>2018-01-05T13:39:32Z</time>
      </trkpt>
      <trkpt lat="50.98136" lon="2.58824">
        <ele>8</ele>
        <time>2018-01-05T13:40:32Z</time>
      </trkpt>
      <trkpt lat="50.98152" lon="2.58791">
        <ele>9</ele>
        <time>2018-01-05T13:41:32Z</time>
      </trkpt>
      <trkpt lat="50.98168" lon="2.58758">
        <ele>9</ele>
        <time>2018-01-05T13:42:32Z</time>
      </trkpt>
      <trkpt lat="50.98177" lon="2.58736">
        <ele>9</ele>
        <time>2018-01-05T13:43:32Z</time>
      </trkpt>
      <trkpt lat="50.98177" lon="2.58736">
        <ele>9</ele>
        <time>2018-01-05T13:44:32Z</time>
      </trkpt>
      <trkpt lat="50.98171" lon="2.58736">
        <ele>9</ele>
        <time>2018-01-05T13:45:32Z</time>
      </trkpt>
      <trkpt lat="50.98166" lon="2.58734">
        <ele>9</ele>
        <time>2018-01-05T13:46:32Z</time>
      </trkpt>
      <trkpt lat="50.98162" lon="2.58732">
        <ele>9</ele>
        <time>2018-01-05T13:47:32Z</time>
      </trkpt>
      <trkpt lat="50.98156" lon="2.58728">
        <ele>9</ele>
        <time>2018-01-05T13:48:32Z</time>
      </trkpt>
      <trkpt lat="50.98149" lon="2.58719">
        <ele>10</ele>
        <time>2018-01-05T13:49:32Z</time>
      </trkpt>
      <trkpt lat="50.98133" lon="2.58699">
        <ele>10</ele>
        <time>2018-01-05T13:50:32Z</time>
      </trkpt>
      <trkpt lat="50.98087" lon="2.58624">
        <ele>10</ele>
        <time>2018-01-05T13:51:32Z</time>
      </trkpt>
      <trkpt lat="50.98087" lon="2.58624">
        <ele>10</ele>
        <time>2018-01-05T13:52:32Z</time>
      </trkpt>
      <trkpt lat="50.98131" lon="2.58574">
        <ele>9</ele>
        <time>2018-01-05T13:53:32Z</time>
      </trkpt>
      <trkpt lat="50.98135" lon="2.58567">
        <ele>9</ele>
        <time>2018-01-05T13:54:32Z</time>
      </trkpt>
      <trkpt lat="50.98135" lon="2.58567">
        <ele>9</ele>
        <time>2018-01-05T13:55:32Z</time>
      </trkpt>
      <trkpt lat="50.98114" lon="2.5852">
        <ele>10</ele>
        <time>2018-01-05T13:56:32Z</time>
      </trkpt>
      <trkpt lat="50.98098" lon="2.58483">
        <ele>9</ele>
        <time>2018-01-05T13:57:32Z</time>
      </trkpt>
      <trkpt lat="50.98082" lon="2.58447">
        <ele>8</ele>
        <time>2018-01-05T13:58:32Z</time>
      </trkpt>
      <trkpt lat="50.98075" lon="2.58431">
        <ele>7</ele>
        <time>2018-01-05T13:59:32Z</time>
      </trkpt>
      <trkpt lat="50.98016" lon="2.58281">
        <ele>5</ele>
        <time>2018-01-05T14:00:32Z</time>
      </trkpt>
      <trkpt lat="50.98013" lon="2.58274">
        <ele>5</ele>
        <time>2018-01-05T14:01:32Z</time>
      </trkpt>
      <trkpt lat="50.98011" lon="2.58269">
        <ele>4</ele>
        <time>2018-01-05T14:02:32Z</time>
      </trkpt>
      <trkpt lat="50.97998" lon="2.5824">
        <ele>4</ele>
        <time>2018-01-05T14:03:32Z</time>
      </trkpt>
      <trkpt lat="50.97942" lon="2.58121">
        <ele>4</ele>
        <time>2018-01-05T14:04:32Z</time>
      </trkpt>
      <trkpt lat="50.97919" lon="2.58074">
        <ele>4</ele>
        <time>2018-01-05T14:05:32Z</time>
      </trkpt>
      <trkpt lat="50.97919" lon="2.58074">
        <ele>4</ele>
        <time>2018-01-05T14:06:32Z</time>
      </trkpt>
      <trkpt lat="50.97941" lon="2.58043">
        <ele>4</ele>
        <time>2018-01-05T14:07:32Z</time>
      </trkpt>
      <trkpt lat="50.97962" lon="2.58012">
        <ele>3</ele>
        <time>2018-01-05T14:08:32Z</time>
      </trkpt>
      <trkpt lat="50.97975" lon="2.57994">
        <ele>3</ele>
        <time>2018-01-05T14:09:32Z</time>
      </trkpt>
      <trkpt lat="50.97991" lon="2.57972">
        <ele>3</ele>
        <time>2018-01-05T14:10:32Z</time>
      </trkpt>
      <trkpt lat="50.98002" lon="2.57957">
        <ele>4</ele>
        <time>2018-01-05T14:11:32Z</time>
      </trkpt>
      <trkpt lat="50.98046" lon="2.57911">
        <ele>3</ele>
        <time>2018-01-05T14:12:32Z</time>
      </trkpt>
      <trkpt lat="50.9807" lon="2.57887">
        <ele>3</ele>
        <time>2018-01-05T14:13:32Z</time>
      </trkpt>
      <trkpt lat="50.98076" lon="2.57881">
        <ele>3</ele>
        <time>2018-01-05T14:14:32Z</time>
      </trkpt>
      <trkpt lat="50.98094" lon="2.57863">
        <ele>3</ele>
        <time>2018-01-05T14:15:32Z</time>
      </trkpt>
      <trkpt lat="50.98108" lon="2.57847">
        <ele>3</ele>
        <time>2018-01-05T14:16:32Z</time>
      </trkpt>
      <trkpt lat="50.98112" lon="2.57842">
        <ele>3</ele>
        <time>2018-01-05T14:17:32Z</time>
      </trkpt>
      <trkpt lat="50.9813" lon="2.5782">
        <ele>3</ele>
        <time>2018-01-05T14:18:32Z</time>
      </trkpt>
      <trkpt lat="50.98135" lon="2.5781">
        <ele>3</ele>
        <time>2018-01-05T14:19:32Z</time>
      </trkpt>
      <trkpt lat="50.98135" lon="2.5781">
        <ele>3</ele>
        <time>2018-01-05T14:20:32Z</time>
      </trkpt>
      <trkpt lat="50.98118" lon="2.57778">
        <ele>3</ele>
        <time>2018-01-05T14:21:32Z</time>
      </trkpt>
      <trkpt lat="50.98118" lon="2.57778">
        <ele>3</ele>
        <time>2018-01-05T14:22:32Z</time>
      </trkpt>
      <trkpt lat="50.98127" lon="2.57769">
        <ele>3</ele>
        <time>2018-01-05T14:23:32Z</time>
      </trkpt>
      <trkpt lat="50.98153" lon="2.57734">
        <ele>3</ele>
        <time>2018-01-05T14:24:32Z</time>
      </trkpt>
      <trkpt lat="50.98164" lon="2.57717">
        <ele>3</ele>
        <time>2018-01-05T14:25:32Z</time>
      </trkpt>
      <trkpt lat="50.98171" lon="2.57704">
        <ele>3</ele>
        <time>2018-01-05T14:26:32Z</time>
      </trkpt>
      <trkpt lat="50.98178" lon="2.57693">
        <ele>3</ele>
        <time>2018-01-05T14:27:32Z</time>
      </trkpt>
      <trkpt lat="50.98185" lon="2.57679">
        <ele>3</ele>
        <time>2018-01-05T14:28:32Z</time>
      </trkpt>
      <trkpt lat="50.98203" lon="2.57641">
        <ele>3</ele>
        <time>2018-01-05T14:29:32Z</time>
      </trkpt>
      <trkpt lat="50.98236" lon="2.5757">
        <ele>2</ele>
        <time>2018-01-05T14:30:32Z</time>
      </trkpt>
      <trkpt lat="50.9827" lon="2.57497">
        <ele>1</ele>
        <time>2018-01-05T14:31:32Z</time>
      </trkpt>
      <trkpt lat="50.98283" lon="2.5747">
        <ele>1</ele>
        <time>2018-01-05T14:32:32Z</time>
      </trkpt>
      <trkpt lat="50.98293" lon="2.57447">
        <ele>1</ele>
        <time>2018-01-05T14:33:32Z</time>
      </trkpt>
      <trkpt lat="50.98309" lon="2.57413">
        <ele>1</ele>
        <time>2018-01-05T14:34:32Z</time>
      </trkpt>
      <trkpt lat="50.9832" lon="2.57386">
        <ele>1</ele>
        <time>2018-01-05T14:35:32Z</time>
      </trkpt>
      <trkpt lat="50.98325" lon="2.57373">
        <ele>1</ele>
        <time>2018-01-05T14:36:32Z</time>
      </trkpt>
      <trkpt lat="50.98331" lon="2.57354">
        <ele>1</ele>
        <time>2018-01-05T14:37:32Z</time>
      </trkpt>
      <trkpt lat="50.98337" lon="2.57337">
        <ele>1</ele>
        <time>2018-01-05T14:38:32Z</time>
      </trkpt>
      <trkpt lat="50.98343" lon="2.57315">
        <ele>1</ele>
        <time>2018-01-05T14:39:32Z</time>
      </trkpt>
      <trkpt lat="50.98351" lon="2.57284">
        <ele>1</ele>
        <time>2018-01-05T14:40:32Z</time>
      </trkpt>
      <trkpt lat="50.9836" lon="2.57249">
        <ele>1</ele>
        <time>2018-01-05T14:41:32Z</time>
      </trkpt>
      <trkpt lat="50.98368" lon="2.57215">
        <ele>1</ele>
        <time>2018-01-05T14:42:32Z</time>
      </trkpt>
      <trkpt lat="50.98376" lon="2.57188">
        <ele>1</ele>
        <time>2018-01-05T14:43:32Z</time>
      </trkpt>
      <trkpt lat="50.98383" lon="2.57164">
        <ele>1</ele>
        <time>2018-01-05T14:44:32Z</time>
      </trkpt>
      <trkpt lat="50.9839" lon="2.5714">
        <ele>1</ele>
        <time>2018-01-05T14:45:32Z</time>
      </trkpt>
      <trkpt lat="50.98398" lon="2.57118">
        <ele>2</ele>
        <time>2018-01-05T14:46:32Z</time>
      </trkpt>
      <trkpt lat="50.98403" lon="2.57104">
        <ele>2</ele>
        <time>2018-01-05T14:47:32Z</time>
      </trkpt>
      <trkpt lat="50.98407" lon="2.57091">
        <ele>2</ele>
        <time>2018-01-05T14:48:32Z</time>
      </trkpt>
      <trkpt lat="50.9843" lon="2.57038">
        <ele>2</ele>
        <time>2018-01-05T14:49:32Z</time>
      </trkpt>
      <trkpt lat="50.9846" lon="2.56973">
        <ele>3</ele>
        <time>2018-01-05T14:50:32Z</time>
      </trkpt>
      <trkpt lat="50.98481" lon="2.56928">
        <ele>3</ele>
        <time>2018-01-05T14:51:32Z</time>
      </trkpt>
      <trkpt lat="50.98498" lon="2.56898">
        <ele>3</ele>
        <time>2018-01-05T14:52:32Z</time>
      </trkpt>
      <trkpt lat="50.98518" lon="2.56868">
        <ele>3</ele>
        <time>2018-01-05T14:53:32Z</time>
      </trkpt>
      <trkpt lat="50.98535" lon="2.56846">
        <ele>3</ele>
        <time>2018-01-05T14:54:32Z</time>
      </trkpt>
      <trkpt lat="50.98547" lon="2.56832">
        <ele>2</ele>
        <time>2018-01-05T14:55:32Z</time>
      </trkpt>
      <trkpt lat="50.98566" lon="2.56811">
        <ele>2</ele>
        <time>2018-01-05T14:56:32Z</time>
      </trkpt>
      <trkpt lat="50.98591" lon="2.56789">
        <ele>1</ele>
        <time>2018-01-05T14:57:32Z</time>
      </trkpt>
      <trkpt lat="50.98618" lon="2.56765">
        <ele>1</ele>
        <time>2018-01-05T14:58:32Z</time>
      </trkpt>
      <trkpt lat="50.98656" lon="2.56734">
        <ele>1</ele>
        <time>2018-01-05T14:59:32Z</time>
      </trkpt>
      <trkpt lat="50.98694" lon="2.56702">
        <ele>2</ele>
        <time>2018-01-05T15:00:32Z</time>
      </trkpt>
      <trkpt lat="50.98722" lon="2.5668">
        <ele>2</ele>
        <time>2018-01-05T15:01:32Z</time>
      </trkpt>
      <trkpt lat="50.98741" lon="2.56664">
        <ele>3</ele>
        <time>2018-01-05T15:02:32Z</time>
      </trkpt>
      <trkpt lat="50.98759" lon="2.56653">
        <ele>3</ele>
        <time>2018-01-05T15:03:32Z</time>
      </trkpt>
      <trkpt lat="50.98768" lon="2.56648">
        <ele>3</ele>
        <time>2018-01-05T15:04:32Z</time>
      </trkpt>
      <trkpt lat="50.98801" lon="2.56629">
        <ele>2</ele>
        <time>2018-01-05T15:05:32Z</time>
      </trkpt>
      <trkpt lat="50.98806" lon="2.56626">
        <ele>2</ele>
        <time>2018-01-05T15:06:32Z</time>
      </trkpt>
      <trkpt lat="50.9882" lon="2.56619">
        <ele>2</ele>
        <time>2018-01-05T15:07:32Z</time>
      </trkpt>
      <trkpt lat="50.98825" lon="2.56616">
        <ele>2</ele>
        <time>2018-01-05T15:08:32Z</time>
      </trkpt>
      <trkpt lat="50.98851" lon="2.56597">
        <ele>2</ele>
        <time>2018-01-05T15:09:32Z</time>
      </trkpt>
      <trkpt lat="50.98853" lon="2.56596">
        <ele>2</ele>
        <time>2018-01-05T15:10:32Z</time>
      </trkpt>
      <trkpt lat="50.98881" lon="2.56572">
        <ele>1</ele>
        <time>2018-01-05T15:11:32Z</time>
      </trkpt>
      <trkpt lat="50.98905" lon="2.56549">
        <ele>1</ele>
        <time>2018-01-05T15:12:32Z</time>
      </trkpt>
      <trkpt lat="50.98922" lon="2.56531">
        <ele>1</ele>
        <time>2018-01-05T15:13:32Z</time>
      </trkpt>
      <trkpt lat="50.98936" lon="2.56516">
        <ele>1</ele>
        <time>2018-01-05T15:14:32Z</time>
      </trkpt>
      <trkpt lat="50.98957" lon="2.56493">
        <ele>1</ele>
        <time>2018-01-05T15:15:32Z</time>
      </trkpt>
      <trkpt lat="50.98999" lon="2.5645">
        <ele>1</ele>
        <time>2018-01-05T15:16:32Z</time>
      </trkpt>
      <trkpt lat="50.99009" lon="2.56439">
        <ele>1</ele>
        <time>2018-01-05T15:17:32Z</time>
      </trkpt>
      <trkpt lat="50.99023" lon="2.56425">
        <ele>1</ele>
        <time>2018-01-05T15:18:32Z</time>
      </trkpt>
      <trkpt lat="50.99046" lon="2.56405">
        <ele>2</ele>
        <time>2018-01-05T15:19:32Z</time>
      </trkpt>
      <trkpt lat="50.99052" lon="2.56401">
        <ele>2</ele>
        <time>2018-01-05T15:20:32Z</time>
      </trkpt>
      <trkpt lat="50.99057" lon="2.56396">
        <ele>2</ele>
        <time>2018-01-05T15:21:32Z</time>
      </trkpt>
      <trkpt lat="50.99078" lon="2.56377">
        <ele>2</ele>
        <time>2018-01-05T15:22:32Z</time>
      </trkpt>
      <trkpt lat="50.99096" lon="2.56361">
        <ele>1</ele>
        <time>2018-01-05T15:23:32Z</time>
      </trkpt>
      <trkpt lat="50.99117" lon="2.56339">
        <ele>1</ele>
        <time>2018-01-05T15:24:32Z</time>
      </trkpt>
      <trkpt lat="50.99127" lon="2.56329">
        <ele>1</ele>
        <time>2018-01-05T15:25:32Z</time>
      </trkpt>
      <trkpt lat="50.99149" lon="2.56306">
        <ele>1</ele>
        <time>2018-01-05T15:26:32Z</time>
      </trkpt>
      <trkpt lat="50.99159" lon="2.56294">
        <ele>1</ele>
        <time>2018-01-05T15:27:32Z</time>
      </trkpt>
      <trkpt lat="50.99176" lon="2.56271">
        <ele>3.7</ele>
        <time>2018-01-05T15:28:32Z</time>
      </trkpt>
      <trkpt lat="50.99189" lon="2.56251">
        <ele>3.2</ele>
        <time>2018-01-05T15:29:32Z</time>
      </trkpt>
      <trkpt lat="50.99199" lon="2.56237">
        <ele>3</ele>
        <time>2018-01-05T15:30:32Z</time>
      </trkpt>
      <trkpt lat="50.99214" lon="2.56214">
        <ele>1</ele>
        <time>2018-01-05T15:31:32Z</time>
      </trkpt>
      <trkpt lat="50.99243" lon="2.56171">
        <ele>1</ele>
        <time>2018-01-05T15:32:32Z</time>
      </trkpt>
      <trkpt lat="50.99273" lon="2.56126">
        <ele>1</ele>
        <time>2018-01-05T15:33:32Z</time>
      </trkpt>
      <trkpt lat="50.99292" lon="2.56093">
        <ele>1</ele>
        <time>2018-01-05T15:34:32Z</time>
      </trkpt>
      <trkpt lat="50.99301" lon="2.56076">
        <ele>3</ele>
        <time>2018-01-05T15:35:32Z</time>
      </trkpt>
      <trkpt lat="50.9932" lon="2.56042">
        <ele>3</ele>
        <time>2018-01-05T15:36:32Z</time>
      </trkpt>
      <trkpt lat="50.9933" lon="2.56026">
        <ele>3</ele>
        <time>2018-01-05T15:37:32Z</time>
      </trkpt>
      <trkpt lat="50.99343" lon="2.56002">
        <ele>3</ele>
        <time>2018-01-05T15:38:32Z</time>
      </trkpt>
      <trkpt lat="50.99348" lon="2.55995">
        <ele>3</ele>
        <time>2018-01-05T15:39:32Z</time>
      </trkpt>
      <trkpt lat="50.99363" lon="2.55975">
        <ele>2.9</ele>
        <time>2018-01-05T15:40:32Z</time>
      </trkpt>
      <trkpt lat="50.99382" lon="2.5595">
        <ele>2.8</ele>
        <time>2018-01-05T15:41:32Z</time>
      </trkpt>
      <trkpt lat="50.99404" lon="2.55923">
        <ele>2.6</ele>
        <time>2018-01-05T15:42:32Z</time>
      </trkpt>
      <trkpt lat="50.99436" lon="2.55885">
        <ele>2.6</ele>
        <time>2018-01-05T15:43:32Z</time>
      </trkpt>
      <trkpt lat="50.99502" lon="2.55809">
        <ele>3</ele>
        <time>2018-01-05T15:44:32Z</time>
      </trkpt>
      <trkpt lat="50.99534" lon="2.55771">
        <ele>3</ele>
        <time>2018-01-05T15:45:32Z</time>
      </trkpt>
      <trkpt lat="50.99557" lon="2.55745">
        <ele>2.8</ele>
        <time>2018-01-05T15:46:32Z</time>
      </trkpt>
      <trkpt lat="50.99576" lon="2.55723">
        <ele>2.7</ele>
        <time>2018-01-05T15:47:32Z</time>
      </trkpt>
      <trkpt lat="50.99598" lon="2.55697">
        <ele>3</ele>
        <time>2018-01-05T15:48:32Z</time>
      </trkpt>
      <trkpt lat="50.99604" lon="2.55691">
        <ele>2.9</ele>
        <time>2018-01-05T15:49:32Z</time>
      </trkpt>
      <trkpt lat="50.99626" lon="2.55669">
        <ele>2.5</ele>
        <time>2018-01-05T15:50:32Z</time>
      </trkpt>
      <trkpt lat="50.99637" lon="2.5566">
        <ele>2.7</ele>
        <time>2018-01-05T15:51:32Z</time>
      </trkpt>
      <trkpt lat="50.99662" lon="2.55641">
        <ele>2.8</ele>
        <time>2018-01-05T15:52:32Z</time>
      </trkpt>
      <trkpt lat="50.99698" lon="2.55619">
        <ele>2</ele>
        <time>2018-01-05T15:53:32Z</time>
      </trkpt>
      <trkpt lat="50.99711" lon="2.5561">
        <ele>2</ele>
        <time>2018-01-05T15:54:32Z</time>
      </trkpt>
      <trkpt lat="50.99751" lon="2.55584">
        <ele>1.9</ele>
        <time>2018-01-05T15:55:32Z</time>
      </trkpt>
      <trkpt lat="50.99786" lon="2.55561">
        <ele>1</ele>
        <time>2018-01-05T15:56:32Z</time>
      </trkpt>
      <trkpt lat="51.00018" lon="2.55407">
        <ele>1</ele>
        <time>2018-01-05T15:57:32Z</time>
      </trkpt>
      <trkpt lat="51.00047" lon="2.55388">
        <ele>1</ele>
        <time>2018-01-05T15:58:32Z</time>
      </trkpt>
      <trkpt lat="51.00251" lon="2.55254">
        <ele>1</ele>
        <time>2018-01-05T15:59:32Z</time>
      </trkpt>
      <trkpt lat="51.0044" lon="2.55132">
        <ele>1</ele>
        <time>2018-01-05T16:00:32Z</time>
      </trkpt>
      <trkpt lat="51.00469" lon="2.55113">
        <ele>1</ele>
        <time>2018-01-05T16:01:32Z</time>
      </trkpt>
      <trkpt lat="51.00565" lon="2.5505">
        <ele>1</ele>
        <time>2018-01-05T16:02:32Z</time>
      </trkpt>
      <trkpt lat="51.00756" lon="2.54927">
        <ele>1</ele>
        <time>2018-01-05T16:03:32Z</time>
      </trkpt>
      <trkpt lat="51.00762" lon="2.54923">
        <ele>1</ele>
        <time>2018-01-05T16:04:32Z</time>
      </trkpt>
      <trkpt lat="51.00769" lon="2.54918">
        <ele>1</ele>
        <time>2018-01-05T16:05:32Z</time>
      </trkpt>
      <trkpt lat="51.00819" lon="2.54886">
        <ele>1</ele>
        <time>2018-01-05T16:06:32Z</time>
      </trkpt>
      <trkpt lat="51.00931" lon="2.54811">
        <ele>1</ele>
        <time>2018-01-05T16:07:32Z</time>
      </trkpt>
      <trkpt lat="51.01075" lon="2.54718">
        <ele>1</ele>
        <time>2018-01-05T16:08:32Z</time>
      </trkpt>
      <trkpt lat="51.0124" lon="2.5461">
        <ele>1</ele>
        <time>2018-01-05T16:09:32Z</time>
      </trkpt>
      <trkpt lat="51.01334" lon="2.5455">
        <ele>1</ele>
        <time>2018-01-05T16:10:32Z</time>
      </trkpt>
      <trkpt lat="51.01338" lon="2.54548">
        <ele>1</ele>
        <time>2018-01-05T16:11:32Z</time>
      </trkpt>
      <trkpt lat="51.01346" lon="2.54542">
        <ele>1</ele>
        <time>2018-01-05T16:12:32Z</time>
      </trkpt>
      <trkpt lat="51.0135" lon="2.54539">
        <ele>1</ele>
        <time>2018-01-05T16:13:32Z</time>
      </trkpt>
      <trkpt lat="51.01355" lon="2.54536">
        <ele>1</ele>
        <time>2018-01-05T16:14:32Z</time>
      </trkpt>
      <trkpt lat="51.01358" lon="2.54535">
        <ele>1</ele>
        <time>2018-01-05T16:15:32Z</time>
      </trkpt>
      <trkpt lat="51.01361" lon="2.54533">
        <ele>1</ele>
        <time>2018-01-05T16:16:32Z</time>
      </trkpt>
      <trkpt lat="51.01363" lon="2.54532">
        <ele>1</ele>
        <time>2018-01-05T16:17:32Z</time>
      </trkpt>
      <trkpt lat="51.01366" lon="2.54531">
        <ele>1</ele>
        <time>2018-01-05T16:18:32Z</time>
      </trkpt>
      <trkpt lat="51.01367" lon="2.54531">
        <ele>1</ele>
        <time>2018-01-05T16:19:32Z</time>
      </trkpt>
      <trkpt lat="51.01369" lon="2.54531">
        <ele>1</ele>
        <time>2018-01-05T16:20:32Z</time>
      </trkpt>
      <trkpt lat="51.01371" lon="2.5453">
        <ele>1</ele>
        <time>2018-01-05T16:21:32Z</time>
      </trkpt>
      <trkpt lat="51.01374" lon="2.5453">
        <ele>1</ele>
        <time>2018-01-05T16:22:32Z</time>
      </trkpt>
      <trkpt lat="51.01378" lon="2.54531">
        <ele>1</ele>
        <time>2018-01-05T16:23:32Z</time>
      </trkpt>
      <trkpt lat="51.01381" lon="2.54532">
        <ele>1</ele>
        <time>2018-01-05T16:24:32Z</time>
      </trkpt>
      <trkpt lat="51.01383" lon="2.54533">
        <ele>1</ele>
        <time>2018-01-05T16:25:32Z</time>
      </trkpt>
      <trkpt lat="51.01386" lon="2.54534">
        <ele>1</ele>
        <time>2018-01-05T16:26:32Z</time>
      </trkpt>
      <trkpt lat="51.01388" lon="2.54535">
        <ele>1</ele>
        <time>2018-01-05T16:27:32Z</time>
      </trkpt>
      <trkpt lat="51.01388" lon="2.54535">
        <ele>1</ele>
        <time>2018-01-05T16:28:32Z</time>
      </trkpt>
      <trkpt lat="51.0139" lon="2.54528">
        <ele>1</ele>
        <time>2018-01-05T16:29:32Z</time>
      </trkpt>
      <trkpt lat="51.01391" lon="2.54519">
        <ele>1</ele>
        <time>2018-01-05T16:30:32Z</time>
      </trkpt>
      <trkpt lat="51.01391" lon="2.54509">
        <ele>1</ele>
        <time>2018-01-05T16:31:32Z</time>
      </trkpt>
      <trkpt lat="51.0139" lon="2.54496">
        <ele>1</ele>
        <time>2018-01-05T16:32:32Z</time>
      </trkpt>
      <trkpt lat="51.01383" lon="2.54465">
        <ele>1</ele>
        <time>2018-01-05T16:33:32Z</time>
      </trkpt>
      <trkpt lat="51.01375" lon="2.54435">
        <ele>1</ele>
        <time>2018-01-05T16:34:32Z</time>
      </trkpt>
      <trkpt lat="51.01346" lon="2.54322">
        <ele>1</ele>
        <time>2018-01-05T16:35:32Z</time>
      </trkpt>
      <trkpt lat="51.01327" lon="2.54252">
        <ele>1</ele>
        <time>2018-01-05T16:36:32Z</time>
      </trkpt>
      <trkpt lat="51.013" lon="2.54148">
        <ele>1</ele>
        <time>2018-01-05T16:37:32Z</time>
      </trkpt>
      <trkpt lat="51.01269" lon="2.54028">
        <ele>1</ele>
        <time>2018-01-05T16:38:32Z</time>
      </trkpt>
      <trkpt lat="51.01253" lon="2.53965">
        <ele>1</ele>
        <time>2018-01-05T16:39:32Z</time>
      </trkpt>
      <trkpt lat="51.01197" lon="2.5375">
        <ele>1</ele>
        <time>2018-01-05T16:40:32Z</time>
      </trkpt>
      <trkpt lat="51.01196" lon="2.53745">
        <ele>1</ele>
        <time>2018-01-05T16:41:32Z</time>
      </trkpt>
      <trkpt lat="51.01194" lon="2.53737">
        <ele>1</ele>
        <time>2018-01-05T16:42:32Z</time>
      </trkpt>
      <trkpt lat="51.01191" lon="2.53729">
        <ele>1</ele>
        <time>2018-01-05T16:43:32Z</time>
      </trkpt>
      <trkpt lat="51.01126" lon="2.53477">
        <ele>1</ele>
        <time>2018-01-05T16:44:32Z</time>
      </trkpt>
      <trkpt lat="51.01123" lon="2.53463">
        <ele>1</ele>
        <time>2018-01-05T16:45:32Z</time>
      </trkpt>
      <trkpt lat="51.0112" lon="2.5345">
        <ele>1</ele>
        <time>2018-01-05T16:46:32Z</time>
      </trkpt>
      <trkpt lat="51.00997" lon="2.52967">
        <ele>1</ele>
        <time>2018-01-05T16:47:32Z</time>
      </trkpt>
      <trkpt lat="51.00995" lon="2.52961">
        <ele>1</ele>
        <time>2018-01-05T16:48:32Z</time>
      </trkpt>
      <trkpt lat="51.00994" lon="2.52958">
        <ele>1</ele>
        <time>2018-01-05T16:49:32Z</time>
      </trkpt>
      <trkpt lat="51.00994" lon="2.52954">
        <ele>1</ele>
        <time>2018-01-05T16:50:32Z</time>
      </trkpt>
      <trkpt lat="51.00849" lon="2.52391">
        <ele>1</ele>
        <time>2018-01-05T16:51:32Z</time>
      </trkpt>
      <trkpt lat="51.00805" lon="2.5222">
        <ele>2</ele>
        <time>2018-01-05T16:52:32Z</time>
      </trkpt>
      <trkpt lat="51.00805" lon="2.5222">
        <ele>2</ele>
        <time>2018-01-05T16:53:32Z</time>
      </trkpt>
      <trkpt lat="51.0082" lon="2.52216">
        <ele>2</ele>
        <time>2018-01-05T16:54:32Z</time>
      </trkpt>
      <trkpt lat="51.00853" lon="2.52205">
        <ele>2</ele>
        <time>2018-01-05T16:55:32Z</time>
      </trkpt>
      <trkpt lat="51.00866" lon="2.52201">
        <ele>2</ele>
        <time>2018-01-05T16:56:32Z</time>
      </trkpt>
      <trkpt lat="51.00894" lon="2.52192">
        <ele>2</ele>
        <time>2018-01-05T16:57:32Z</time>
      </trkpt>
      <trkpt lat="51.00902" lon="2.52188">
        <ele>2</ele>
        <time>2018-01-05T16:58:32Z</time>
      </trkpt>
      <trkpt lat="51.00912" lon="2.52184">
        <ele>2</ele>
        <time>2018-01-05T16:59:32Z</time>
      </trkpt>
      <trkpt lat="51.0092" lon="2.52176">
        <ele>1.9</ele>
        <time>2018-01-05T17:00:32Z</time>
      </trkpt>
      <trkpt lat="51.00926" lon="2.5217">
        <ele>1.7</ele>
        <time>2018-01-05T17:01:32Z</time>
      </trkpt>
      <trkpt lat="51.00933" lon="2.52157">
        <ele>1.6</ele>
        <time>2018-01-05T17:02:32Z</time>
      </trkpt>
      <trkpt lat="51.00939" lon="2.52141">
        <ele>1.9</ele>
        <time>2018-01-05T17:03:32Z</time>
      </trkpt>
      <trkpt lat="51.00942" lon="2.52128">
        <ele>2</ele>
        <time>2018-01-05T17:04:32Z</time>
      </trkpt>
      <trkpt lat="51.00942" lon="2.52127">
        <ele>2</ele>
        <time>2018-01-05T17:05:32Z</time>
      </trkpt>
      <trkpt lat="51.00947" lon="2.52098">
        <ele>2.4</ele>
        <time>2018-01-05T17:06:32Z</time>
      </trkpt>
      <trkpt lat="51.00948" lon="2.52088">
        <ele>2.7</ele>
        <time>2018-01-05T17:07:32Z</time>
      </trkpt>
      <trkpt lat="51.00949" lon="2.52083">
        <ele>2.8</ele>
        <time>2018-01-05T17:08:32Z</time>
      </trkpt>
      <trkpt lat="51.00952" lon="2.52078">
        <ele>2.8</ele>
        <time>2018-01-05T17:09:32Z</time>
      </trkpt>
      <trkpt lat="51.00954" lon="2.52074">
        <ele>2.8</ele>
        <time>2018-01-05T17:10:32Z</time>
      </trkpt>
      <trkpt lat="51.00957" lon="2.5207">
        <ele>2.8</ele>
        <time>2018-01-05T17:11:32Z</time>
      </trkpt>
      <trkpt lat="51.00962" lon="2.52064">
        <ele>2.8</ele>
        <time>2018-01-05T17:12:32Z</time>
      </trkpt>
      <trkpt lat="51.00971" lon="2.52056">
        <ele>3</ele>
        <time>2018-01-05T17:13:32Z</time>
      </trkpt>
      <trkpt lat="51.01003" lon="2.52019">
        <ele>2.6</ele>
        <time>2018-01-05T17:14:32Z</time>
      </trkpt>
      <trkpt lat="51.01013" lon="2.52006">
        <ele>2.5</ele>
        <time>2018-01-05T17:15:32Z</time>
      </trkpt>
      <trkpt lat="51.01083" lon="2.51915">
        <ele>2</ele>
        <time>2018-01-05T17:16:32Z</time>
      </trkpt>
      <trkpt lat="51.0109" lon="2.51906">
        <ele>2.1</ele>
        <time>2018-01-05T17:17:32Z</time>
      </trkpt>
      <trkpt lat="51.01098" lon="2.51896">
        <ele>2.4</ele>
        <time>2018-01-05T17:18:32Z</time>
      </trkpt>
      <trkpt lat="51.01108" lon="2.51884">
        <ele>2.6</ele>
        <time>2018-01-05T17:19:32Z</time>
      </trkpt>
      <trkpt lat="51.01121" lon="2.51868">
        <ele>1.9</ele>
        <time>2018-01-05T17:20:32Z</time>
      </trkpt>
      <trkpt lat="51.01214" lon="2.51786">
        <ele>2.1</ele>
        <time>2018-01-05T17:21:32Z</time>
      </trkpt>
      <trkpt lat="51.01242" lon="2.5176">
        <ele>2</ele>
        <time>2018-01-05T17:22:32Z</time>
      </trkpt>
      <trkpt lat="51.01276" lon="2.51734">
        <ele>2</ele>
        <time>2018-01-05T17:23:32Z</time>
      </trkpt>
      <trkpt lat="51.01283" lon="2.51732">
        <ele>1.9</ele>
        <time>2018-01-05T17:24:32Z</time>
      </trkpt>
      <trkpt lat="51.01386" lon="2.51703">
        <ele>1.3</ele>
        <time>2018-01-05T17:25:32Z</time>
      </trkpt>
      <trkpt lat="51.01392" lon="2.51702">
        <ele>1.4</ele>
        <time>2018-01-05T17:26:32Z</time>
      </trkpt>
      <trkpt lat="51.01399" lon="2.517">
        <ele>1.8</ele>
        <time>2018-01-05T17:27:32Z</time>
      </trkpt>
      <trkpt lat="51.01408" lon="2.51698">
        <ele>2.3</ele>
        <time>2018-01-05T17:28:32Z</time>
      </trkpt>
      <trkpt lat="51.01498" lon="2.51678">
        <ele>1.1</ele>
        <time>2018-01-05T17:29:32Z</time>
      </trkpt>
      <trkpt lat="51.01502" lon="2.51679">
        <ele>1</ele>
        <time>2018-01-05T17:30:32Z</time>
      </trkpt>
      <trkpt lat="51.01513" lon="2.5168">
        <ele>1.2</ele>
        <time>2018-01-05T17:31:32Z</time>
      </trkpt>
      <trkpt lat="51.01575" lon="2.51725">
        <ele>2</ele>
        <time>2018-01-05T17:32:32Z</time>
      </trkpt>
      <trkpt lat="51.01586" lon="2.51731">
        <ele>2</ele>
        <time>2018-01-05T17:33:32Z</time>
      </trkpt>
      <trkpt lat="51.01589" lon="2.51732">
        <ele>2</ele>
        <time>2018-01-05T17:34:32Z</time>
      </trkpt>
      <trkpt lat="51.01594" lon="2.51733">
        <ele>2</ele>
        <time>2018-01-05T17:35:32Z</time>
      </trkpt>
      <trkpt lat="51.0161" lon="2.5173">
        <ele>2</ele>
        <time>2018-01-05T17:36:32Z</time>
      </trkpt>
      <trkpt lat="51.01643" lon="2.51719">
        <ele>2</ele>
        <time>2018-01-05T17:37:32Z</time>
      </trkpt>
      <trkpt lat="51.0165" lon="2.51717">
        <ele>1.9</ele>
        <time>2018-01-05T17:38:32Z</time>
      </trkpt>
      <trkpt lat="51.01737" lon="2.51693">
        <ele>2.9</ele>
        <time>2018-01-05T17:39:32Z</time>
      </trkpt>
      <trkpt lat="51.01745" lon="2.5169">
        <ele>2.7</ele>
        <time>2018-01-05T17:40:32Z</time>
      </trkpt>
      <trkpt lat="51.01751" lon="2.51684">
        <ele>2.2</ele>
        <time>2018-01-05T17:41:32Z</time>
      </trkpt>
      <trkpt lat="51.01755" lon="2.51674">
        <ele>1.4</ele>
        <time>2018-01-05T17:42:32Z</time>
      </trkpt>
      <trkpt lat="51.01758" lon="2.51669">
        <ele>1.1</ele>
        <time>2018-01-05T17:43:32Z</time>
      </trkpt>
      <trkpt lat="51.0176" lon="2.51662">
        <ele>1.2</ele>
        <time>2018-01-05T17:44:32Z</time>
      </trkpt>
      <trkpt lat="51.01761" lon="2.51651">
        <ele>1.6</ele>
        <time>2018-01-05T17:45:32Z</time>
      </trkpt>
      <trkpt lat="51.01761" lon="2.51644">
        <ele>1.8</ele>
        <time>2018-01-05T17:46:32Z</time>
      </trkpt>
      <trkpt lat="51.0176" lon="2.51637">
        <ele>2</ele>
        <time>2018-01-05T17:47:32Z</time>
      </trkpt>
      <trkpt lat="51.01758" lon="2.51625">
        <ele>2.4</ele>
        <time>2018-01-05T17:48:32Z</time>
      </trkpt>
      <trkpt lat="51.01756" lon="2.51619">
        <ele>2.6</ele>
        <time>2018-01-05T17:49:32Z</time>
      </trkpt>
      <trkpt lat="51.0173" lon="2.51552">
        <ele>2</ele>
        <time>2018-01-05T17:50:32Z</time>
      </trkpt>
      <trkpt lat="51.01662" lon="2.51375">
        <ele>1.9</ele>
        <time>2018-01-05T17:51:32Z</time>
      </trkpt>
      <trkpt lat="51.01631" lon="2.51295">
        <ele>1.8</ele>
        <time>2018-01-05T17:52:32Z</time>
      </trkpt>
      <trkpt lat="51.0163" lon="2.5129">
        <ele>1.9</ele>
        <time>2018-01-05T17:53:32Z</time>
      </trkpt>
      <trkpt lat="51.01629" lon="2.51284">
        <ele>1.9</ele>
        <time>2018-01-05T17:54:32Z</time>
      </trkpt>
      <trkpt lat="51.01629" lon="2.51279">
        <ele>2</ele>
        <time>2018-01-05T17:55:32Z</time>
      </trkpt>
      <trkpt lat="51.01629" lon="2.51272">
        <ele>2</ele>
        <time>2018-01-05T17:56:32Z</time>
      </trkpt>
      <trkpt lat="51.01629" lon="2.51267">
        <ele>2</ele>
        <time>2018-01-05T17:57:32Z</time>
      </trkpt>
      <trkpt lat="51.01631" lon="2.51261">
        <ele>2</ele>
        <time>2018-01-05T17:58:32Z</time>
      </trkpt>
      <trkpt lat="51.01635" lon="2.51251">
        <ele>2</ele>
        <time>2018-01-05T17:59:32Z</time>
      </trkpt>
      <trkpt lat="51.01638" lon="2.51243">
        <ele>2</ele>
        <time>2018-01-05T18:00:32Z</time>
      </trkpt>
      <trkpt lat="51.01692" lon="2.51163">
        <ele>2</ele>
        <time>2018-01-05T18:01:32Z</time>
      </trkpt>
      <trkpt lat="51.01758" lon="2.51065">
        <ele>2</ele>
        <time>2018-01-05T18:02:32Z</time>
      </trkpt>
      <trkpt lat="51.01772" lon="2.51046">
        <ele>2</ele>
        <time>2018-01-05T18:03:32Z</time>
      </trkpt>
      <trkpt lat="51.01825" lon="2.50972">
        <ele>2.3</ele>
        <time>2018-01-05T18:04:32Z</time>
      </trkpt>
      <trkpt lat="51.01846" lon="2.50943">
        <ele>2</ele>
        <time>2018-01-05T18:05:32Z</time>
      </trkpt>
      <trkpt lat="51.01862" lon="2.50914">
        <ele>2.1</ele>
        <time>2018-01-05T18:06:32Z</time>
      </trkpt>
      <trkpt lat="51.01893" lon="2.50841">
        <ele>2</ele>
        <time>2018-01-05T18:07:32Z</time>
      </trkpt>
      <trkpt lat="51.019" lon="2.50824">
        <ele>2.2</ele>
        <time>2018-01-05T18:08:32Z</time>
      </trkpt>
      <trkpt lat="51.01905" lon="2.50816">
        <ele>2.3</ele>
        <time>2018-01-05T18:09:32Z</time>
      </trkpt>
      <trkpt lat="51.01908" lon="2.50809">
        <ele>2.3</ele>
        <time>2018-01-05T18:10:32Z</time>
      </trkpt>
      <trkpt lat="51.01921" lon="2.50791">
        <ele>2</ele>
        <time>2018-01-05T18:11:32Z</time>
      </trkpt>
      <trkpt lat="51.0194" lon="2.50765">
        <ele>2</ele>
        <time>2018-01-05T18:12:32Z</time>
      </trkpt>
      <trkpt lat="51.01962" lon="2.5074">
        <ele>2</ele>
        <time>2018-01-05T18:13:32Z</time>
      </trkpt>
      <trkpt lat="51.02002" lon="2.50705">
        <ele>2</ele>
        <time>2018-01-05T18:14:32Z</time>
      </trkpt>
      <trkpt lat="51.02032" lon="2.50669">
        <ele>2</ele>
        <time>2018-01-05T18:15:32Z</time>
      </trkpt>
      <trkpt lat="51.02082" lon="2.50595">
        <ele>2.6</ele>
        <time>2018-01-05T18:16:32Z</time>
      </trkpt>
      <trkpt lat="51.02092" lon="2.50577">
        <ele>2.7</ele>
        <time>2018-01-05T18:17:32Z</time>
      </trkpt>
      <trkpt lat="51.02122" lon="2.5053">
        <ele>2.6</ele>
        <time>2018-01-05T18:18:32Z</time>
      </trkpt>
      <trkpt lat="51.02138" lon="2.505">
        <ele>2</ele>
        <time>2018-01-05T18:19:32Z</time>
      </trkpt>
      <trkpt lat="51.02152" lon="2.50478">
        <ele>2.4</ele>
        <time>2018-01-05T18:20:32Z</time>
      </trkpt>
      <trkpt lat="51.0217" lon="2.50453">
        <ele>2.6</ele>
        <time>2018-01-05T18:21:32Z</time>
      </trkpt>
      <trkpt lat="51.02178" lon="2.50443">
        <ele>2.6</ele>
        <time>2018-01-05T18:22:32Z</time>
      </trkpt>
      <trkpt lat="51.02189" lon="2.5043">
        <ele>2.6</ele>
        <time>2018-01-05T18:23:32Z</time>
      </trkpt>
      <trkpt lat="51.02313" lon="2.50259">
        <ele>2.5</ele>
        <time>2018-01-05T18:24:32Z</time>
      </trkpt>
      <trkpt lat="51.02369" lon="2.50185">
        <ele>1</ele>
        <time>2018-01-05T18:25:32Z</time>
      </trkpt>
      <trkpt lat="51.02409" lon="2.50131">
        <ele>1</ele>
        <time>2018-01-05T18:26:32Z</time>
      </trkpt>
      <trkpt lat="51.02413" lon="2.50126">
        <ele>1</ele>
        <time>2018-01-05T18:27:32Z</time>
      </trkpt>
      <trkpt lat="51.02418" lon="2.5012">
        <ele>1</ele>
        <time>2018-01-05T18:28:32Z</time>
      </trkpt>
      <trkpt lat="51.02434" lon="2.5009">
        <ele>1</ele>
        <time>2018-01-05T18:29:32Z</time>
      </trkpt>
      <trkpt lat="51.0245" lon="2.50051">
        <ele>1</ele>
        <time>2018-01-05T18:30:32Z</time>
      </trkpt>
      <trkpt lat="51.02454" lon="2.50043">
        <ele>1</ele>
        <time>2018-01-05T18:31:32Z</time>
      </trkpt>
      <trkpt lat="51.0246" lon="2.5003">
        <ele>2.1</ele>
        <time>2018-01-05T18:32:32Z</time>
      </trkpt>
      <trkpt lat="51.02463" lon="2.50022">
        <ele>2.6</ele>
        <time>2018-01-05T18:33:32Z</time>
      </trkpt>
      <trkpt lat="51.02478" lon="2.49987">
        <ele>3.5</ele>
        <time>2018-01-05T18:34:32Z</time>
      </trkpt>
      <trkpt lat="51.02512" lon="2.49907">
        <ele>2.4</ele>
        <time>2018-01-05T18:35:32Z</time>
      </trkpt>
      <trkpt lat="51.02516" lon="2.49896">
        <ele>2.6</ele>
        <time>2018-01-05T18:36:32Z</time>
      </trkpt>
      <trkpt lat="51.02518" lon="2.49887">
        <ele>2.6</ele>
        <time>2018-01-05T18:37:32Z</time>
      </trkpt>
      <trkpt lat="51.0252" lon="2.49878">
        <ele>2.7</ele>
        <time>2018-01-05T18:38:32Z</time>
      </trkpt>
      <trkpt lat="51.02521" lon="2.49866">
        <ele>2.8</ele>
        <time>2018-01-05T18:39:32Z</time>
      </trkpt>
      <trkpt lat="51.02522" lon="2.49851">
        <ele>2.8</ele>
        <time>2018-01-05T18:40:32Z</time>
      </trkpt>
      <trkpt lat="51.02525" lon="2.49783">
        <ele>2.2</ele>
        <time>2018-01-05T18:41:32Z</time>
      </trkpt>
      <trkpt lat="51.02526" lon="2.49765">
        <ele>2</ele>
        <time>2018-01-05T18:42:32Z</time>
      </trkpt>
      <trkpt lat="51.02528" lon="2.49753">
        <ele>2</ele>
        <time>2018-01-05T18:43:32Z</time>
      </trkpt>
      <trkpt lat="51.0253" lon="2.49743">
        <ele>2.1</ele>
        <time>2018-01-05T18:44:32Z</time>
      </trkpt>
      <trkpt lat="51.02533" lon="2.49729">
        <ele>2.2</ele>
        <time>2018-01-05T18:45:32Z</time>
      </trkpt>
      <trkpt lat="51.02536" lon="2.49716">
        <ele>2.2</ele>
        <time>2018-01-05T18:46:32Z</time>
      </trkpt>
      <trkpt lat="51.02543" lon="2.49696">
        <ele>2</ele>
        <time>2018-01-05T18:47:32Z</time>
      </trkpt>
      <trkpt lat="51.02552" lon="2.49674">
        <ele>2</ele>
        <time>2018-01-05T18:48:32Z</time>
      </trkpt>
      <trkpt lat="51.02563" lon="2.49653">
        <ele>2.3</ele>
        <time>2018-01-05T18:49:32Z</time>
      </trkpt>
      <trkpt lat="51.02572" lon="2.49642">
        <ele>2.6</ele>
        <time>2018-01-05T18:50:32Z</time>
      </trkpt>
      <trkpt lat="51.02572" lon="2.49642">
        <ele>2.6</ele>
        <time>2018-01-05T18:51:32Z</time>
      </trkpt>
      <trkpt lat="51.02563" lon="2.49619">
        <ele>2.3</ele>
        <time>2018-01-05T18:52:32Z</time>
      </trkpt>
      <trkpt lat="51.0255" lon="2.49576">
        <ele>2</ele>
        <time>2018-01-05T18:53:32Z</time>
      </trkpt>
      <trkpt lat="51.0254" lon="2.49529">
        <ele>2.4</ele>
        <time>2018-01-05T18:54:32Z</time>
      </trkpt>
      <trkpt lat="51.02539" lon="2.49522">
        <ele>2.4</ele>
        <time>2018-01-05T18:55:32Z</time>
      </trkpt>
      <trkpt lat="51.0252" lon="2.49413">
        <ele>2.1</ele>
        <time>2018-01-05T18:56:32Z</time>
      </trkpt>
      <trkpt lat="51.02508" lon="2.4935">
        <ele>2.3</ele>
        <time>2018-01-05T18:57:32Z</time>
      </trkpt>
      <trkpt lat="51.02502" lon="2.4933">
        <ele>2.1</ele>
        <time>2018-01-05T18:58:32Z</time>
      </trkpt>
      <trkpt lat="51.02495" lon="2.49315">
        <ele>2</ele>
        <time>2018-01-05T18:59:32Z</time>
      </trkpt>
      <trkpt lat="51.02484" lon="2.49296">
        <ele>2.1</ele>
        <time>2018-01-05T19:00:32Z</time>
      </trkpt>
      <trkpt lat="51.02445" lon="2.4924">
        <ele>2.4</ele>
        <time>2018-01-05T19:01:32Z</time>
      </trkpt>
      <trkpt lat="51.02405" lon="2.49182">
        <ele>2.6</ele>
        <time>2018-01-05T19:02:32Z</time>
      </trkpt>
      <trkpt lat="51.02378" lon="2.49163">
        <ele>2.1</ele>
        <time>2018-01-05T19:03:32Z</time>
      </trkpt>
      <trkpt lat="51.02348" lon="2.49146">
        <ele>2.4</ele>
        <time>2018-01-05T19:04:32Z</time>
      </trkpt>
      <trkpt lat="51.0231" lon="2.49124">
        <ele>2</ele>
        <time>2018-01-05T19:05:32Z</time>
      </trkpt>
      <trkpt lat="51.02296" lon="2.4911">
        <ele>2</ele>
        <time>2018-01-05T19:06:32Z</time>
      </trkpt>
      <trkpt lat="51.02287" lon="2.49101">
        <ele>2</ele>
        <time>2018-01-05T19:07:32Z</time>
      </trkpt>
      <trkpt lat="51.02278" lon="2.4909">
        <ele>2</ele>
        <time>2018-01-05T19:08:32Z</time>
      </trkpt>
      <trkpt lat="51.02272" lon="2.49079">
        <ele>2</ele>
        <time>2018-01-05T19:09:32Z</time>
      </trkpt>
      <trkpt lat="51.02268" lon="2.49072">
        <ele>2</ele>
        <time>2018-01-05T19:10:32Z</time>
      </trkpt>
      <trkpt lat="51.02264" lon="2.49066">
        <ele>2</ele>
        <time>2018-01-05T19:11:32Z</time>
      </trkpt>
      <trkpt lat="51.02259" lon="2.49055">
        <ele>2</ele>
        <time>2018-01-05T19:12:32Z</time>
      </trkpt>
      <trkpt lat="51.02254" lon="2.49037">
        <ele>2.1</ele>
        <time>2018-01-05T19:13:32Z</time>
      </trkpt>
      <trkpt lat="51.0225" lon="2.49021">
        <ele>2</ele>
        <time>2018-01-05T19:14:32Z</time>
      </trkpt>
      <trkpt lat="51.02245" lon="2.48987">
        <ele>2.5</ele>
        <time>2018-01-05T19:15:32Z</time>
      </trkpt>
      <trkpt lat="51.0224" lon="2.4896">
        <ele>2.8</ele>
        <time>2018-01-05T19:16:32Z</time>
      </trkpt>
      <trkpt lat="51.02238" lon="2.48952">
        <ele>2.7</ele>
        <time>2018-01-05T19:17:32Z</time>
      </trkpt>
      <trkpt lat="51.02236" lon="2.48943">
        <ele>2.5</ele>
        <time>2018-01-05T19:18:32Z</time>
      </trkpt>
      <trkpt lat="51.02229" lon="2.48923">
        <ele>2.2</ele>
        <time>2018-01-05T19:19:32Z</time>
      </trkpt>
      <trkpt lat="51.02223" lon="2.48909">
        <ele>2.3</ele>
        <time>2018-01-05T19:20:32Z</time>
      </trkpt>
      <trkpt lat="51.02214" lon="2.48894">
        <ele>2.8</ele>
        <time>2018-01-05T19:21:32Z</time>
      </trkpt>
      <trkpt lat="51.02184" lon="2.48853">
        <ele>2.6</ele>
        <time>2018-01-05T19:22:32Z</time>
      </trkpt>
      <trkpt lat="51.02174" lon="2.48838">
        <ele>2.3</ele>
        <time>2018-01-05T19:23:32Z</time>
      </trkpt>
      <trkpt lat="51.02159" lon="2.48815">
        <ele>2.5</ele>
        <time>2018-01-05T19:24:32Z</time>
      </trkpt>
      <trkpt lat="51.02137" lon="2.48794">
        <ele>2.4</ele>
        <time>2018-01-05T19:25:32Z</time>
      </trkpt>
      <trkpt lat="51.02125" lon="2.48781">
        <ele>1</ele>
        <time>2018-01-05T19:26:32Z</time>
      </trkpt>
      <trkpt lat="51.02105" lon="2.48761">
        <ele>1</ele>
        <time>2018-01-05T19:27:32Z</time>
      </trkpt>
      <trkpt lat="51.02086" lon="2.48743">
        <ele>1</ele>
        <time>2018-01-05T19:28:32Z</time>
      </trkpt>
      <trkpt lat="51.02076" lon="2.48731">
        <ele>1</ele>
        <time>2018-01-05T19:29:32Z</time>
      </trkpt>
      <trkpt lat="51.02055" lon="2.48692">
        <ele>1</ele>
        <time>2018-01-05T19:30:32Z</time>
      </trkpt>
      <trkpt lat="51.02038" lon="2.48653">
        <ele>1</ele>
        <time>2018-01-05T19:31:32Z</time>
      </trkpt>
      <trkpt lat="51.02022" lon="2.48625">
        <ele>1</ele>
        <time>2018-01-05T19:32:32Z</time>
      </trkpt>
      <trkpt lat="51.01994" lon="2.48577">
        <ele>1</ele>
        <time>2018-01-05T19:33:32Z</time>
      </trkpt>
      <trkpt lat="51.01992" lon="2.48574">
        <ele>1</ele>
        <time>2018-01-05T19:34:32Z</time>
      </trkpt>
      <trkpt lat="51.01959" lon="2.48526">
        <ele>1</ele>
        <time>2018-01-05T19:35:32Z</time>
      </trkpt>
      <trkpt lat="51.01955" lon="2.48519">
        <ele>1</ele>
        <time>2018-01-05T19:36:32Z</time>
      </trkpt>
      <trkpt lat="51.01951" lon="2.48504">
        <ele>2</ele>
        <time>2018-01-05T19:37:32Z</time>
      </trkpt>
      <trkpt lat="51.01948" lon="2.48492">
        <ele>2</ele>
        <time>2018-01-05T19:38:32Z</time>
      </trkpt>
      <trkpt lat="51.01948" lon="2.48491">
        <ele>2</ele>
        <time>2018-01-05T19:39:32Z</time>
      </trkpt>
      <trkpt lat="51.01949" lon="2.48491">
        <ele>2</ele>
        <time>2018-01-05T19:40:32Z</time>
      </trkpt>
      <trkpt lat="51.01949" lon="2.4849">
        <ele>2</ele>
        <time>2018-01-05T19:41:32Z</time>
      </trkpt>
      <trkpt lat="51.01949" lon="2.48489">
        <ele>2</ele>
        <time>2018-01-05T19:42:32Z</time>
      </trkpt>
      <trkpt lat="51.0195" lon="2.48489">
        <ele>2</ele>
        <time>2018-01-05T19:43:32Z</time>
      </trkpt>
      <trkpt lat="51.0195" lon="2.48488">
        <ele>2</ele>
        <time>2018-01-05T19:44:32Z</time>
      </trkpt>
      <trkpt lat="51.0195" lon="2.48487">
        <ele>2</ele>
        <time>2018-01-05T19:45:32Z</time>
      </trkpt>
      <trkpt lat="51.0195" lon="2.48486">
        <ele>2</ele>
        <time>2018-01-05T19:46:32Z</time>
      </trkpt>
      <trkpt lat="51.01951" lon="2.48486">
        <ele>2</ele>
        <time>2018-01-05T19:47:32Z</time>
      </trkpt>
      <trkpt lat="51.01951" lon="2.48485">
        <ele>2</ele>
        <time>2018-01-05T19:48:32Z</time>
      </trkpt>
      <trkpt lat="51.01951" lon="2.48484">
        <ele>2</ele>
        <time>2018-01-05T19:49:32Z</time>
      </trkpt>
      <trkpt lat="51.01951" lon="2.48483">
        <ele>2</ele>
        <time>2018-01-05T19:50:32Z</time>
      </trkpt>
      <trkpt lat="51.01951" lon="2.48482">
        <ele>2</ele>
        <time>2018-01-05T19:51:32Z</time>
      </trkpt>
      <trkpt lat="51.01951" lon="2.48481">
        <ele>2</ele>
        <time>2018-01-05T19:52:32Z</time>
      </trkpt>
      <trkpt lat="51.01951" lon="2.4848">
        <ele>2</ele>
        <time>2018-01-05T19:53:32Z</time>
      </trkpt>
      <trkpt lat="51.01951" lon="2.48479">
        <ele>2</ele>
        <time>2018-01-05T19:54:32Z</time>
      </trkpt>
      <trkpt lat="51.01951" lon="2.48478">
        <ele>2</ele>
        <time>2018-01-05T19:55:32Z</time>
      </trkpt>
      <trkpt lat="51.01951" lon="2.48477">
        <ele>2</ele>
        <time>2018-01-05T19:56:32Z</time>
      </trkpt>
      <trkpt lat="51.0195" lon="2.48477">
        <ele>2</ele>
        <time>2018-01-05T19:57:32Z</time>
      </trkpt>
      <trkpt lat="51.0195" lon="2.48476">
        <ele>2</ele>
        <time>2018-01-05T19:58:32Z</time>
      </trkpt>
      <trkpt lat="51.0195" lon="2.48475">
        <ele>2</ele>
        <time>2018-01-05T19:59:32Z</time>
      </trkpt>
      <trkpt lat="51.0195" lon="2.48474">
        <ele>2</ele>
        <time>2018-01-05T20:00:32Z</time>
      </trkpt>
      <trkpt lat="51.01949" lon="2.48474">
        <ele>2</ele>
        <time>2018-01-05T20:01:32Z</time>
      </trkpt>
      <trkpt lat="51.01949" lon="2.48473">
        <ele>2</ele>
        <time>2018-01-05T20:02:32Z</time>
      </trkpt>
      <trkpt lat="51.01949" lon="2.48472">
        <ele>2</ele>
        <time>2018-01-05T20:03:32Z</time>
      </trkpt>
      <trkpt lat="51.01948" lon="2.48472">
        <ele>2</ele>
        <time>2018-01-05T20:04:32Z</time>
      </trkpt>
      <trkpt lat="51.01948" lon="2.48471">
        <ele>2</ele>
        <time>2018-01-05T20:05:32Z</time>
      </trkpt>
      <trkpt lat="51.01947" lon="2.48471">
        <ele>2</ele>
        <time>2018-01-05T20:06:32Z</time>
      </trkpt>
      <trkpt lat="51.01947" lon="2.4847">
        <ele>2</ele>
        <time>2018-01-05T20:07:32Z</time>
      </trkpt>
      <trkpt lat="51.01946" lon="2.4847">
        <ele>2</ele>
        <time>2018-01-05T20:08:32Z</time>
      </trkpt>
      <trkpt lat="51.01946" lon="2.48469">
        <ele>2</ele>
        <time>2018-01-05T20:09:32Z</time>
      </trkpt>
      <trkpt lat="51.01945" lon="2.48469">
        <ele>2</ele>
        <time>2018-01-05T20:10:32Z</time>
      </trkpt>
      <trkpt lat="51.01944" lon="2.48469">
        <ele>2</ele>
        <time>2018-01-05T20:11:32Z</time>
      </trkpt>
      <trkpt lat="51.01944" lon="2.48468">
        <ele>2</ele>
        <time>2018-01-05T20:12:32Z</time>
      </trkpt>
      <trkpt lat="51.01943" lon="2.48468">
        <ele>2</ele>
        <time>2018-01-05T20:13:32Z</time>
      </trkpt>
      <trkpt lat="51.01942" lon="2.48468">
        <ele>2</ele>
        <time>2018-01-05T20:14:32Z</time>
      </trkpt>
      <trkpt lat="51.01941" lon="2.48469">
        <ele>2</ele>
        <time>2018-01-05T20:15:32Z</time>
      </trkpt>
      <trkpt lat="51.0194" lon="2.48469">
        <ele>2</ele>
        <time>2018-01-05T20:16:32Z</time>
      </trkpt>
      <trkpt lat="51.01939" lon="2.48469">
        <ele>2</ele>
        <time>2018-01-05T20:17:32Z</time>
      </trkpt>
      <trkpt lat="51.01939" lon="2.4847">
        <ele>2</ele>
        <time>2018-01-05T20:18:32Z</time>
      </trkpt>
      <trkpt lat="51.01938" lon="2.4847">
        <ele>2</ele>
        <time>2018-01-05T20:19:32Z</time>
      </trkpt>
      <trkpt lat="51.01938" lon="2.48471">
        <ele>2</ele>
        <time>2018-01-05T20:20:32Z</time>
      </trkpt>
      <trkpt lat="51.01937" lon="2.48472">
        <ele>2</ele>
        <time>2018-01-05T20:21:32Z</time>
      </trkpt>
      <trkpt lat="51.01934" lon="2.48457">
        <ele>2</ele>
        <time>2018-01-05T20:22:32Z</time>
      </trkpt>
      <trkpt lat="51.01932" lon="2.48446">
        <ele>2</ele>
        <time>2018-01-05T20:23:32Z</time>
      </trkpt>
      <trkpt lat="51.01931" lon="2.48423">
        <ele>2</ele>
        <time>2018-01-05T20:24:32Z</time>
      </trkpt>
      <trkpt lat="51.0193" lon="2.48413">
        <ele>2</ele>
        <time>2018-01-05T20:25:32Z</time>
      </trkpt>
      <trkpt lat="51.0192" lon="2.483">
        <ele>2</ele>
        <time>2018-01-05T20:26:32Z</time>
      </trkpt>
      <trkpt lat="51.01915" lon="2.48273">
        <ele>1</ele>
        <time>2018-01-05T20:27:32Z</time>
      </trkpt>
      <trkpt lat="51.01909" lon="2.48246">
        <ele>1</ele>
        <time>2018-01-05T20:28:32Z</time>
      </trkpt>
      <trkpt lat="51.01904" lon="2.48226">
        <ele>1</ele>
        <time>2018-01-05T20:29:32Z</time>
      </trkpt>
      <trkpt lat="51.01887" lon="2.48166">
        <ele>1</ele>
        <time>2018-01-05T20:30:32Z</time>
      </trkpt>
      <trkpt lat="51.01883" lon="2.48151">
        <ele>1</ele>
        <time>2018-01-05T20:31:32Z</time>
      </trkpt>
      <trkpt lat="51.01879" lon="2.48136">
        <time>2018-01-05T20:32:32Z</time>
      </trkpt>
      <trkpt lat="51.01869" lon="2.48102">
        <ele>1</ele>
        <time>2018-01-05T20:33:32Z</time>
      </trkpt>
      <trkpt lat="51.01836" lon="2.47993">
        <ele>1</ele>
        <time>2018-01-05T20:34:32Z</time>
      </trkpt>
      <trkpt lat="51.01833" lon="2.47983">
        <time>2018-01-05T20:35:32Z</time>
      </trkpt>
      <trkpt lat="51.0183" lon="2.47976">
        <time>2018-01-05T20:36:32Z</time>
      </trkpt>
      <trkpt lat="51.01811" lon="2.47939">
        <ele>1</ele>
        <time>2018-01-05T20:37:32Z</time>
      </trkpt>
      <trkpt lat="51.01793" lon="2.47912">
        <ele>1</ele>
        <time>2018-01-05T20:38:32Z</time>
      </trkpt>
      <trkpt lat="51.0179" lon="2.47907">
        <ele>1</ele>
        <time>2018-01-05T20:39:32Z</time>
      </trkpt>
      <trkpt lat="51.01779" lon="2.47892">
        <ele>1</ele>
        <time>2018-01-05T20:40:32Z</time>
      </trkpt>
      <trkpt lat="51.01734" lon="2.4783">
        <ele>1</ele>
        <time>2018-01-05T20:41:32Z</time>
      </trkpt>
      <trkpt lat="51.01722" lon="2.4781">
        <ele>1</ele>
        <time>2018-01-05T20:42:32Z</time>
      </trkpt>
      <trkpt lat="51.01709" lon="2.47785">
        <ele>1</ele>
        <time>2018-01-05T20:43:32Z</time>
      </trkpt>
      <trkpt lat="51.01704" lon="2.47775">
        <ele>1</ele>
        <time>2018-01-05T20:44:32Z</time>
      </trkpt>
      <trkpt lat="51.01696" lon="2.47755">
        <ele>1</ele>
        <time>2018-01-05T20:45:32Z</time>
      </trkpt>
      <trkpt lat="51.01672" lon="2.47697">
        <ele>1</ele>
        <time>2018-01-05T20:46:32Z</time>
      </trkpt>
      <trkpt lat="51.01667" lon="2.47683">
        <ele>1</ele>
        <time>2018-01-05T20:47:32Z</time>
      </trkpt>
      <trkpt lat="51.01652" lon="2.47642">
        <ele>1</ele>
        <time>2018-01-05T20:48:32Z</time>
      </trkpt>
      <trkpt lat="51.0164" lon="2.47611">
        <ele>1</ele>
        <time>2018-01-05T20:49:32Z</time>
      </trkpt>
      <trkpt lat="51.0162" lon="2.47557">
        <ele>1</ele>
        <time>2018-01-05T20:50:32Z</time>
      </trkpt>
      <trkpt lat="51.01609" lon="2.4752">
        <ele>1</ele>
        <time>2018-01-05T20:51:32Z</time>
      </trkpt>
      <trkpt lat="51.01603" lon="2.47488">
        <ele>1</ele>
        <time>2018-01-05T20:52:32Z</time>
      </trkpt>
      <trkpt lat="51.016" lon="2.47455">
        <ele>1.2</ele>
        <time>2018-01-05T20:53:32Z</time>
      </trkpt>
      <trkpt lat="51.016" lon="2.47452">
        <ele>1.3</ele>
        <time>2018-01-05T20:54:32Z</time>
      </trkpt>
      <trkpt lat="51.016" lon="2.47428">
        <ele>1.2</ele>
        <time>2018-01-05T20:55:32Z</time>
      </trkpt>
      <trkpt lat="51.01604" lon="2.47334">
        <ele>1</ele>
        <time>2018-01-05T20:56:32Z</time>
      </trkpt>
      <trkpt lat="51.01604" lon="2.47308">
        <ele>1</ele>
        <time>2018-01-05T20:57:32Z</time>
      </trkpt>
      <trkpt lat="51.016" lon="2.47269">
        <ele>1</ele>
        <time>2018-01-05T20:58:32Z</time>
      </trkpt>
      <trkpt lat="51.01592" lon="2.47222">
        <ele>1</ele>
        <time>2018-01-05T20:59:32Z</time>
      </trkpt>
      <trkpt lat="51.01579" lon="2.47147">
        <ele>1</ele>
        <time>2018-01-05T21:00:32Z</time>
      </trkpt>
      <trkpt lat="51.01577" lon="2.47119">
        <ele>1</ele>
        <time>2018-01-05T21:01:32Z</time>
      </trkpt>
      <trkpt lat="51.01577" lon="2.47087">
        <ele>1.7</ele>
        <time>2018-01-05T21:02:32Z</time>
      </trkpt>
      <trkpt lat="51.01582" lon="2.47032">
        <ele>1</ele>
        <time>2018-01-05T21:03:32Z</time>
      </trkpt>
      <trkpt lat="51.01584" lon="2.4702">
        <ele>1</ele>
        <time>2018-01-05T21:04:32Z</time>
      </trkpt>
      <trkpt lat="51.01588" lon="2.47002">
        <ele>1</ele>
        <time>2018-01-05T21:05:32Z</time>
      </trkpt>
      <trkpt lat="51.01597" lon="2.46966">
        <ele>1.1</ele>
        <time>2018-01-05T21:06:32Z</time>
      </trkpt>
      <trkpt lat="51.01604" lon="2.46946">
        <ele>1.2</ele>
        <time>2018-01-05T21:07:32Z</time>
      </trkpt>
      <trkpt lat="51.01608" lon="2.46938">
        <ele>1</ele>
        <time>2018-01-05T21:08:32Z</time>
      </trkpt>
      <trkpt lat="51.01613" lon="2.4693">
        <ele>1</ele>
        <time>2018-01-05T21:09:32Z</time>
      </trkpt>
      <trkpt lat="51.01656" lon="2.46866">
        <ele>1.4</ele>
        <time>2018-01-05T21:10:32Z</time>
      </trkpt>
      <trkpt lat="51.01662" lon="2.46852">
        <ele>1.4</ele>
        <time>2018-01-05T21:11:32Z</time>
      </trkpt>
      <trkpt lat="51.01668" lon="2.46838">
        <ele>1.8</ele>
        <time>2018-01-05T21:12:32Z</time>
      </trkpt>
      <trkpt lat="51.0167" lon="2.4683">
        <ele>2</ele>
        <time>2018-01-05T21:13:32Z</time>
      </trkpt>
      <trkpt lat="51.01673" lon="2.46821">
        <ele>2</ele>
        <time>2018-01-05T21:14:32Z</time>
      </trkpt>
      <trkpt lat="51.01673" lon="2.46818">
        <ele>2</ele>
        <time>2018-01-05T21:15:32Z</time>
      </trkpt>
      <trkpt lat="51.01676" lon="2.46806">
        <ele>2</ele>
        <time>2018-01-05T21:16:32Z</time>
      </trkpt>
      <trkpt lat="51.01679" lon="2.46782">
        <ele>2</ele>
        <time>2018-01-05T21:17:32Z</time>
      </trkpt>
      <trkpt lat="51.0168" lon="2.46763">
        <ele>2</ele>
        <time>2018-01-05T21:18:32Z</time>
      </trkpt>
      <trkpt lat="51.01682" lon="2.46734">
        <ele>1.7</ele>
        <time>2018-01-05T21:19:32Z</time>
      </trkpt>
      <trkpt lat="51.01685" lon="2.46655">
        <ele>2</ele>
        <time>2018-01-05T21:20:32Z</time>
      </trkpt>
      <trkpt lat="51.01685" lon="2.46633">
        <ele>2</ele>
        <time>2018-01-05T21:21:32Z</time>
      </trkpt>
      <trkpt lat="51.01684" lon="2.46623">
        <ele>2</ele>
        <time>2018-01-05T21:22:32Z</time>
      </trkpt>
      <trkpt lat="51.01683" lon="2.46614">
        <ele>2</ele>
        <time>2018-01-05T21:23:32Z</time>
      </trkpt>
      <trkpt lat="51.01682" lon="2.46603">
        <ele>2</ele>
        <time>2018-01-05T21:24:32Z</time>
      </trkpt>
      <trkpt lat="51.01679" lon="2.46588">
        <ele>2</ele>
        <time>2018-01-05T21:25:32Z</time>
      </trkpt>
      <trkpt lat="51.01675" lon="2.46575">
        <ele>2</ele>
        <time>2018-01-05T21:26:32Z</time>
      </trkpt>
      <trkpt lat="51.0167" lon="2.46562">
        <ele>2</ele>
        <time>2018-01-05T21:27:32Z</time>
      </trkpt>
      <trkpt lat="51.01662" lon="2.46544">
        <ele>2</ele>
        <time>2018-01-05T21:28:32Z</time>
      </trkpt>
      <trkpt lat="51.01654" lon="2.46532">
        <ele>2</ele>
        <time>2018-01-05T21:29:32Z</time>
      </trkpt>
      <trkpt lat="51.01646" lon="2.46525">
        <ele>2</ele>
        <time>2018-01-05T21:30:32Z</time>
      </trkpt>
      <trkpt lat="51.01585" lon="2.46464">
        <ele>2</ele>
        <time>2018-01-05T21:31:32Z</time>
      </trkpt>
      <trkpt lat="51.01558" lon="2.46433">
        <ele>2</ele>
        <time>2018-01-05T21:32:32Z</time>
      </trkpt>
      <trkpt lat="51.01539" lon="2.46406">
        <ele>1</ele>
        <time>2018-01-05T21:33:32Z</time>
      </trkpt>
      <trkpt lat="51.01531" lon="2.46392">
        <ele>1</ele>
        <time>2018-01-05T21:34:32Z</time>
      </trkpt>
      <trkpt lat="51.01529" lon="2.46387">
        <ele>1</ele>
        <time>2018-01-05T21:35:32Z</time>
      </trkpt>
      <trkpt lat="51.01504" lon="2.46325">
        <ele>2</ele>
        <time>2018-01-05T21:36:32Z</time>
      </trkpt>
      <trkpt lat="51.01481" lon="2.46265">
        <ele>1.4</ele>
        <time>2018-01-05T21:37:32Z</time>
      </trkpt>
      <trkpt lat="51.01463" lon="2.46227">
        <ele>1.3</ele>
        <time>2018-01-05T21:38:32Z</time>
      </trkpt>
      <trkpt lat="51.01457" lon="2.46216">
        <ele>1</ele>
        <time>2018-01-05T21:39:32Z</time>
      </trkpt>
      <trkpt lat="51.0145" lon="2.46206">
        <ele>1</ele>
        <time>2018-01-05T21:40:32Z</time>
      </trkpt>
      <trkpt lat="51.01423" lon="2.46166">
        <ele>1</ele>
        <time>2018-01-05T21:41:32Z</time>
      </trkpt>
      <trkpt lat="51.01385" lon="2.46112">
        <ele>1</ele>
        <time>2018-01-05T21:42:32Z</time>
      </trkpt>
      <trkpt lat="51.01364" lon="2.46082">
        <ele>2</ele>
        <time>2018-01-05T21:43:32Z</time>
      </trkpt>
      <trkpt lat="51.01359" lon="2.46075">
        <ele>2</ele>
        <time>2018-01-05T21:44:32Z</time>
      </trkpt>
      <trkpt lat="51.01349" lon="2.46062">
        <ele>2</ele>
        <time>2018-01-05T21:45:32Z</time>
      </trkpt>
      <trkpt lat="51.01347" lon="2.4606">
        <ele>2</ele>
        <time>2018-01-05T21:46:32Z</time>
      </trkpt>
      <trkpt lat="51.01336" lon="2.46043">
        <ele>2</ele>
        <time>2018-01-05T21:47:32Z</time>
      </trkpt>
      <trkpt lat="51.01327" lon="2.46032">
        <ele>2</ele>
        <time>2018-01-05T21:48:32Z</time>
      </trkpt>
      <trkpt lat="51.01232" lon="2.45897">
        <ele>1</ele>
        <time>2018-01-05T21:49:32Z</time>
      </trkpt>
      <trkpt lat="51.01224" lon="2.45886">
        <ele>1</ele>
        <time>2018-01-05T21:50:32Z</time>
      </trkpt>
      <trkpt lat="51.01159" lon="2.45797">
        <ele>1.2</ele>
        <time>2018-01-05T21:51:32Z</time>
      </trkpt>
      <trkpt lat="51.01141" lon="2.45772">
        <ele>1.1</ele>
        <time>2018-01-05T21:52:32Z</time>
      </trkpt>
      <trkpt lat="51.0113" lon="2.45755">
        <ele>1</ele>
        <time>2018-01-05T21:53:32Z</time>
      </trkpt>
      <trkpt lat="51.01101" lon="2.4571">
        <ele>1</ele>
        <time>2018-01-05T21:54:32Z</time>
      </trkpt>
      <trkpt lat="51.01035" lon="2.45592">
        <ele>1</ele>
        <time>2018-01-05T21:55:32Z</time>
      </trkpt>
      <trkpt lat="51.01024" lon="2.45569">
        <ele>1</ele>
        <time>2018-01-05T21:56:32Z</time>
      </trkpt>
      <trkpt lat="51.01016" lon="2.45554">
        <ele>1</ele>
        <time>2018-01-05T21:57:32Z</time>
      </trkpt>
      <trkpt lat="51.01011" lon="2.45542">
        <ele>1</ele>
        <time>2018-01-05T21:58:32Z</time>
      </trkpt>
      <trkpt lat="51.01003" lon="2.45523">
        <ele>1</ele>
        <time>2018-01-05T21:59:32Z</time>
      </trkpt>
      <trkpt lat="51.00993" lon="2.45496">
        <ele>1</ele>
        <time>2018-01-05T22:00:32Z</time>
      </trkpt>
      <trkpt lat="51.00991" lon="2.45489">
        <ele>1</ele>
        <time>2018-01-05T22:01:32Z</time>
      </trkpt>
      <trkpt lat="51.00949" lon="2.45372">
        <ele>1</ele>
        <time>2018-01-05T22:02:32Z</time>
      </trkpt>
      <trkpt lat="51.00942" lon="2.45355">
        <ele>1</ele>
        <time>2018-01-05T22:03:32Z</time>
      </trkpt>
      <trkpt lat="51.00939" lon="2.45349">
        <ele>1</ele>
        <time>2018-01-05T22:04:32Z</time>
      </trkpt>
      <trkpt lat="51.00937" lon="2.4534">
        <ele>1</ele>
        <time>2018-01-05T22:05:32Z</time>
      </trkpt>
      <trkpt lat="51.00928" lon="2.45323">
        <ele>1</ele>
        <time>2018-01-05T22:06:32Z</time>
      </trkpt>
      <trkpt lat="51.00922" lon="2.45314">
        <ele>1</ele>
        <time>2018-01-05T22:07:32Z</time>
      </trkpt>
      <trkpt lat="51.00922" lon="2.45314">
        <ele>1</ele>
        <time>2018-01-05T22:08:32Z</time>
      </trkpt>
      <trkpt lat="51.00922" lon="2.45312">
        <ele>1</ele>
        <time>2018-01-05T22:09:32Z</time>
      </trkpt>
      <trkpt lat="51.00922" lon="2.4531">
        <ele>1</ele>
        <time>2018-01-05T22:10:32Z</time>
      </trkpt>
      <trkpt lat="51.00922" lon="2.45308">
        <ele>1</ele>
        <time>2018-01-05T22:11:32Z</time>
      </trkpt>
      <trkpt lat="51.00922" lon="2.45305">
        <ele>1</ele>
        <time>2018-01-05T22:12:32Z</time>
      </trkpt>
      <trkpt lat="51.00922" lon="2.45303">
        <ele>1</ele>
        <time>2018-01-05T22:13:32Z</time>
      </trkpt>
      <trkpt lat="51.00921" lon="2.453">
        <ele>1</ele>
        <time>2018-01-05T22:14:32Z</time>
      </trkpt>
      <trkpt lat="51.00919" lon="2.45298">
        <ele>1</ele>
        <time>2018-01-05T22:15:32Z</time>
      </trkpt>
      <trkpt lat="51.00917" lon="2.45297">
        <ele>1</ele>
        <time>2018-01-05T22:16:32Z</time>
      </trkpt>
      <trkpt lat="51.00915" lon="2.45296">
        <ele>1</ele>
        <time>2018-01-05T22:17:32Z</time>
      </trkpt>
      <trkpt lat="51.00913" lon="2.45297">
        <ele>1</ele>
        <time>2018-01-05T22:18:32Z</time>
      </trkpt>
      <trkpt lat="51.00911" lon="2.45297">
        <ele>1</ele>
        <time>2018-01-05T22:19:32Z</time>
      </trkpt>
      <trkpt lat="51.0091" lon="2.45298">
        <ele>1</ele>
        <time>2018-01-05T22:20:32Z</time>
      </trkpt>
      <trkpt lat="51.00909" lon="2.453">
        <ele>1</ele>
        <time>2018-01-05T22:21:32Z</time>
      </trkpt>
      <trkpt lat="51.00906" lon="2.45307">
        <ele>1</ele>
        <time>2018-01-05T22:22:32Z</time>
      </trkpt>
      <trkpt lat="51.00902" lon="2.45319">
        <ele>2</ele>
        <time>2018-01-05T22:23:32Z</time>
      </trkpt>
      <trkpt lat="51.00899" lon="2.45326">
        <ele>2</ele>
        <time>2018-01-05T22:24:32Z</time>
      </trkpt>
      <trkpt lat="51.00897" lon="2.45331">
        <ele>2</ele>
        <time>2018-01-05T22:25:32Z</time>
      </trkpt>
      <trkpt lat="51.00895" lon="2.45337">
        <ele>2</ele>
        <time>2018-01-05T22:26:32Z</time>
      </trkpt>
      <trkpt lat="51.00894" lon="2.45342">
        <ele>2</ele>
        <time>2018-01-05T22:27:32Z</time>
      </trkpt>
      <trkpt lat="51.00889" lon="2.45351">
        <ele>2</ele>
        <time>2018-01-05T22:28:32Z</time>
      </trkpt>
      <trkpt lat="51.00882" lon="2.45361">
        <ele>2</ele>
        <time>2018-01-05T22:29:32Z</time>
      </trkpt>
      <trkpt lat="51.00878" lon="2.45367">
        <ele>2</ele>
        <time>2018-01-05T22:30:32Z</time>
      </trkpt>
      <trkpt lat="51.00875" lon="2.4537">
        <ele>2</ele>
        <time>2018-01-05T22:31:32Z</time>
      </trkpt>
      <trkpt lat="51.0087" lon="2.45375">
        <ele>2</ele>
        <time>2018-01-05T22:32:32Z</time>
      </trkpt>
      <trkpt lat="51.00866" lon="2.45378">
        <ele>2</ele>
        <time>2018-01-05T22:33:32Z</time>
      </trkpt>
      <trkpt lat="51.00849" lon="2.4539">
        <ele>2</ele>
        <time>2018-01-05T22:34:32Z</time>
      </trkpt>
      <trkpt lat="51.00836" lon="2.45397">
        <ele>2</ele>
        <time>2018-01-05T22:35:32Z</time>
      </trkpt>
      <trkpt lat="51.0083" lon="2.454">
        <ele>2</ele>
        <time>2018-01-05T22:36:32Z</time>
      </trkpt>
      <trkpt lat="51.00823" lon="2.45403">
        <ele>2</ele>
        <time>2018-01-05T22:37:32Z</time>
      </trkpt>
      <trkpt lat="51.00815" lon="2.45406">
        <ele>2</ele>
        <time>2018-01-05T22:38:32Z</time>
      </trkpt>
      <trkpt lat="51.00806" lon="2.45408">
        <ele>1</ele>
        <time>2018-01-05T22:39:32Z</time>
      </trkpt>
      <trkpt lat="51.00793" lon="2.45411">
        <ele>1</ele>
        <time>2018-01-05T22:40:32Z</time>
      </trkpt>
      <trkpt lat="51.0078" lon="2.45412">
        <ele>1</ele>
        <time>2018-01-05T22:41:32Z</time>
      </trkpt>
      <trkpt lat="51.00775" lon="2.45412">
        <ele>1</ele>
        <time>2018-01-05T22:42:32Z</time>
      </trkpt>
      <trkpt lat="51.00767" lon="2.4541">
        <ele>1</ele>
        <time>2018-01-05T22:43:32Z</time>
      </trkpt>
      <trkpt lat="51.00761" lon="2.45409">
        <ele>1</ele>
        <time>2018-01-05T22:44:32Z</time>
      </trkpt>
      <trkpt lat="51.00758" lon="2.45407">
        <ele>1</ele>
        <time>2018-01-05T22:45:32Z</time>
      </trkpt>
      <trkpt lat="51.00744" lon="2.45401">
        <ele>1</ele>
        <time>2018-01-05T22:46:32Z</time>
      </trkpt>
      <trkpt lat="51.00732" lon="2.45395">
        <ele>1</ele>
        <time>2018-01-05T22:47:32Z</time>
      </trkpt>
      <trkpt lat="51.00719" lon="2.45388">
        <ele>1</ele>
        <time>2018-01-05T22:48:32Z</time>
      </trkpt>
      <trkpt lat="51.00715" lon="2.45387">
        <ele>1</ele>
        <time>2018-01-05T22:49:32Z</time>
      </trkpt>
      <trkpt lat="51.0071" lon="2.45385">
        <ele>1</ele>
        <time>2018-01-05T22:50:32Z</time>
      </trkpt>
      <trkpt lat="51.00705" lon="2.45384">
        <ele>1</ele>
        <time>2018-01-05T22:51:32Z</time>
      </trkpt>
      <trkpt lat="51.007" lon="2.45383">
        <ele>1</ele>
        <time>2018-01-05T22:52:32Z</time>
      </trkpt>
      <trkpt lat="51.00696" lon="2.45383">
        <ele>1</ele>
        <time>2018-01-05T22:53:32Z</time>
      </trkpt>
      <trkpt lat="51.00683" lon="2.45384">
        <ele>1</ele>
        <time>2018-01-05T22:54:32Z</time>
      </trkpt>
      <trkpt lat="51.00589" lon="2.4539">
        <ele>1</ele>
        <time>2018-01-05T22:55:32Z</time>
      </trkpt>
      <trkpt lat="51.00494" lon="2.454">
        <ele>1</ele>
        <time>2018-01-05T22:56:32Z</time>
      </trkpt>
      <trkpt lat="51.00459" lon="2.45401">
        <ele>1</ele>
        <time>2018-01-05T22:57:32Z</time>
      </trkpt>
      <trkpt lat="51.00412" lon="2.45401">
        <ele>1</ele>
        <time>2018-01-05T22:58:32Z</time>
      </trkpt>
      <trkpt lat="51.00365" lon="2.45401">
        <ele>1</ele>
        <time>2018-01-05T22:59:32Z</time>
      </trkpt>
      <trkpt lat="51.00352" lon="2.45403">
        <ele>1</ele>
        <time>2018-01-05T23:00:32Z</time>
      </trkpt>
      <trkpt lat="51.00334" lon="2.45407">
        <ele>1</ele>
        <time>2018-01-05T23:01:32Z</time>
      </trkpt>
      <trkpt lat="51.00315" lon="2.45413">
        <ele>1</ele>
        <time>2018-01-05T23:02:32Z</time>
      </trkpt>
      <trkpt lat="51.00302" lon="2.4542">
        <ele>1</ele>
        <time>2018-01-05T23:03:32Z</time>
      </trkpt>
      <trkpt lat="51.00293" lon="2.45426">
        <ele>1</ele>
        <time>2018-01-05T23:04:32Z</time>
      </trkpt>
      <trkpt lat="51.00282" lon="2.45434">
        <ele>1</ele>
        <time>2018-01-05T23:05:32Z</time>
      </trkpt>
      <trkpt lat="51.00265" lon="2.45446">
        <ele>1</ele>
        <time>2018-01-05T23:06:32Z</time>
      </trkpt>
      <trkpt lat="51.00253" lon="2.45456">
        <ele>1</ele>
        <time>2018-01-05T23:07:32Z</time>
      </trkpt>
      <trkpt lat="51.00231" lon="2.45476">
        <ele>1</ele>
        <time>2018-01-05T23:08:32Z</time>
      </trkpt>
      <trkpt lat="51.00225" lon="2.45481">
        <ele>1</ele>
        <time>2018-01-05T23:09:32Z</time>
      </trkpt>
      <trkpt lat="51.00218" lon="2.45488">
        <ele>1</ele>
        <time>2018-01-05T23:10:32Z</time>
      </trkpt>
      <trkpt lat="51.00213" lon="2.45492">
        <ele>1</ele>
        <time>2018-01-05T23:11:32Z</time>
      </trkpt>
      <trkpt lat="51.00207" lon="2.45496">
        <ele>1</ele>
        <time>2018-01-05T23:12:32Z</time>
      </trkpt>
      <trkpt lat="51.00186" lon="2.45511">
        <ele>1</ele>
        <time>2018-01-05T23:13:32Z</time>
      </trkpt>
      <trkpt lat="51.00143" lon="2.45538">
        <ele>1</ele>
        <time>2018-01-05T23:14:32Z</time>
      </trkpt>
      <trkpt lat="51.00101" lon="2.45562">
        <ele>1</ele>
        <time>2018-01-05T23:15:32Z</time>
      </trkpt>
      <trkpt lat="51.0008" lon="2.45574">
        <ele>1</ele>
        <time>2018-01-05T23:16:32Z</time>
      </trkpt>
      <trkpt lat="51.00055" lon="2.45591">
        <ele>1</ele>
        <time>2018-01-05T23:17:32Z</time>
      </trkpt>
      <trkpt lat="51.00033" lon="2.45602">
        <ele>1</ele>
        <time>2018-01-05T23:18:32Z</time>
      </trkpt>
      <trkpt lat="51.00023" lon="2.45607">
        <ele>1</ele>
        <time>2018-01-05T23:19:32Z</time>
      </trkpt>
      <trkpt lat="51.00013" lon="2.45611">
        <ele>1</ele>
        <time>2018-01-05T23:20:32Z</time>
      </trkpt>
      <trkpt lat="50.99999" lon="2.45616">
        <ele>1</ele>
        <time>2018-01-05T23:21:32Z</time>
      </trkpt>
      <trkpt lat="50.99943" lon="2.45633">
        <ele>1</ele>
        <time>2018-01-05T23:22:32Z</time>
      </trkpt>
      <trkpt lat="50.99916" lon="2.45642">
        <ele>1</ele>
        <time>2018-01-05T23:23:32Z</time>
      </trkpt>
      <trkpt lat="50.99895" lon="2.4565">
        <ele>1</ele>
        <time>2018-01-05T23:24:32Z</time>
      </trkpt>
      <trkpt lat="50.99867" lon="2.45663">
        <ele>1</ele>
        <time>2018-01-05T23:25:32Z</time>
      </trkpt>
      <trkpt lat="50.99847" lon="2.45675">
        <ele>1</ele>
        <time>2018-01-05T23:26:32Z</time>
      </trkpt>
      <trkpt lat="50.99814" lon="2.45695">
        <ele>1</ele>
        <time>2018-01-05T23:27:32Z</time>
      </trkpt>
      <trkpt lat="50.99768" lon="2.45729">
        <ele>1</ele>
        <time>2018-01-05T23:28:32Z</time>
      </trkpt>
      <trkpt lat="50.99761" lon="2.45734">
        <ele>1</ele>
        <time>2018-01-05T23:29:32Z</time>
      </trkpt>
      <trkpt lat="50.99718" lon="2.45773">
        <ele>1</ele>
        <time>2018-01-05T23:30:32Z</time>
      </trkpt>
      <trkpt lat="50.99641" lon="2.45823">
        <ele>1</ele>
        <time>2018-01-05T23:31:32Z</time>
      </trkpt>
      <trkpt lat="50.99619" lon="2.45837">
        <ele>1</ele>
        <time>2018-01-05T23:32:32Z</time>
      </trkpt>
      <trkpt lat="50.996" lon="2.45844">
        <time>2018-01-05T23:33:32Z</time>
      </trkpt>
      <trkpt lat="50.99587" lon="2.45849">
        <time>2018-01-05T23:34:32Z</time>
      </trkpt>
      <trkpt lat="50.9955" lon="2.45853">
        <time>2018-01-05T23:35:32Z</time>
      </trkpt>
      <trkpt lat="50.99522" lon="2.45851">
        <time>2018-01-05T23:36:32Z</time>
      </trkpt>
      <trkpt lat="50.99508" lon="2.45853">
        <time>2018-01-05T23:37:32Z</time>
      </trkpt>
      <trkpt lat="50.99472" lon="2.45859">
        <ele>1</ele>
        <time>2018-01-05T23:38:32Z</time>
      </trkpt>
      <trkpt lat="50.99446" lon="2.45865">
        <ele>1</ele>
        <time>2018-01-05T23:39:32Z</time>
      </trkpt>
      <trkpt lat="50.99421" lon="2.45877">
        <ele>1</ele>
        <time>2018-01-05T23:40:32Z</time>
      </trkpt>
      <trkpt lat="50.99383" lon="2.45905">
        <time>2018-01-05T23:41:32Z</time>
      </trkpt>
      <trkpt lat="50.99347" lon="2.45936">
        <ele>1</ele>
        <time>2018-01-05T23:42:32Z</time>
      </trkpt>
      <trkpt lat="50.99304" lon="2.45979">
        <time>2018-01-05T23:43:32Z</time>
      </trkpt>
      <trkpt lat="50.99291" lon="2.45996">
        <time>2018-01-05T23:44:32Z</time>
      </trkpt>
      <trkpt lat="50.99274" lon="2.46018">
        <time>2018-01-05T23:45:32Z</time>
      </trkpt>
      <trkpt lat="50.99207" lon="2.46117">
        <ele>1</ele>
        <time>2018-01-05T23:46:32Z</time>
      </trkpt>
      <trkpt lat="50.9919" lon="2.46139">
        <ele>1</ele>
        <time>2018-01-05T23:47:32Z</time>
      </trkpt>
      <trkpt lat="50.99143" lon="2.46189">
        <ele>1</ele>
        <time>2018-01-05T23:48:32Z</time>
      </trkpt>
      <trkpt lat="50.9913" lon="2.462">
        <ele>1</ele>
        <time>2018-01-05T23:49:32Z</time>
      </trkpt>
      <trkpt lat="50.99105" lon="2.46208">
        <time>2018-01-05T23:50:32Z</time>
      </trkpt>
      <trkpt lat="50.99055" lon="2.46211">
        <ele>1</ele>
        <time>2018-01-05T23:51:32Z</time>
      </trkpt>
      <trkpt lat="50.99054" lon="2.46211">
        <ele>1</ele>
        <time>2018-01-05T23:52:32Z</time>
      </trkpt>
      <trkpt lat="50.99044" lon="2.46212">
        <ele>1</ele>
        <time>2018-01-05T23:53:32Z</time>
      </trkpt>
      <trkpt lat="50.99005" lon="2.46224">
        <ele>1</ele>
        <time>2018-01-05T23:54:32Z</time>
      </trkpt>
      <trkpt lat="50.98974" lon="2.46233">
        <time>2018-01-05T23:55:32Z</time>
      </trkpt>
      <trkpt lat="50.98935" lon="2.46242">
        <ele>1</ele>
        <time>2018-01-05T23:56:32Z</time>
      </trkpt>
      <trkpt lat="50.9887" lon="2.46256">
        <ele>1</ele>
        <time>2018-01-05T23:57:32Z</time>
      </trkpt>
      <trkpt lat="50.98854" lon="2.4626">
        <ele>1</ele>
        <time>2018-01-05T23:58:32Z</time>
      </trkpt>
      <trkpt lat="50.98845" lon="2.46262">
        <ele>1</ele>
        <time>2018-01-05T23:59:32Z</time>
      </trkpt>
      <trkpt lat="50.98819" lon="2.46269">
        <ele>1</ele>
        <time>2018-01-06T00:00:32Z</time>
      </trkpt>
      <trkpt lat="50.98812" lon="2.46272">
        <ele>1</ele>
        <time>2018-01-06T00:01:32Z</time>
      </trkpt>
      <trkpt lat="50.98797" lon="2.46283">
        <ele>1</ele>
        <time>2018-01-06T00:02:32Z</time>
      </trkpt>
      <trkpt lat="50.98786" lon="2.46293">
        <ele>1</ele>
        <time>2018-01-06T00:03:32Z</time>
      </trkpt>
      <trkpt lat="50.9877" lon="2.46308">
        <ele>1</ele>
        <time>2018-01-06T00:04:32Z</time>
      </trkpt>
      <trkpt lat="50.98655" lon="2.46421">
        <ele>1.6</ele>
        <time>2018-01-06T00:05:32Z</time>
      </trkpt>
      <trkpt lat="50.98591" lon="2.46483">
        <ele>1.4</ele>
        <time>2018-01-06T00:06:32Z</time>
      </trkpt>
      <trkpt lat="50.98526" lon="2.46548">
        <ele>1</ele>
        <time>2018-01-06T00:07:32Z</time>
      </trkpt>
      <trkpt lat="50.98503" lon="2.46569">
        <ele>1</ele>
        <time>2018-01-06T00:08:32Z</time>
      </trkpt>
      <trkpt lat="50.98488" lon="2.46582">
        <ele>1</ele>
        <time>2018-01-06T00:09:32Z</time>
      </trkpt>
      <trkpt lat="50.98449" lon="2.46614">
        <ele>1</ele>
        <time>2018-01-06T00:10:32Z</time>
      </trkpt>
      <trkpt lat="50.98417" lon="2.46642">
        <ele>1</ele>
        <time>2018-01-06T00:11:32Z</time>
      </trkpt>
      <trkpt lat="50.98406" lon="2.46651">
        <ele>1.2</ele>
        <time>2018-01-06T00:12:32Z</time>
      </trkpt>
      <trkpt lat="50.98381" lon="2.46671">
        <ele>1</ele>
        <time>2018-01-06T00:13:32Z</time>
      </trkpt>
      <trkpt lat="50.98375" lon="2.46675">
        <ele>1</ele>
        <time>2018-01-06T00:14:32Z</time>
      </trkpt>
      <trkpt lat="50.98371" lon="2.46678">
        <ele>1</ele>
        <time>2018-01-06T00:15:32Z</time>
      </trkpt>
      <trkpt lat="50.98358" lon="2.46687">
        <ele>1</ele>
        <time>2018-01-06T00:16:32Z</time>
      </trkpt>
      <trkpt lat="50.98329" lon="2.46704">
        <ele>1</ele>
        <time>2018-01-06T00:17:32Z</time>
      </trkpt>
      <trkpt lat="50.98303" lon="2.46719">
        <ele>1</ele>
        <time>2018-01-06T00:18:32Z</time>
      </trkpt>
      <trkpt lat="50.98295" lon="2.46725">
        <ele>1</ele>
        <time>2018-01-06T00:19:32Z</time>
      </trkpt>
      <trkpt lat="50.98292" lon="2.46726">
        <ele>1</ele>
        <time>2018-01-06T00:20:32Z</time>
      </trkpt>
      <trkpt lat="50.98285" lon="2.46731">
        <ele>1.4</ele>
        <time>2018-01-06T00:21:32Z</time>
      </trkpt>
      <trkpt lat="50.98283" lon="2.46733">
        <ele>1.4</ele>
        <time>2018-01-06T00:22:32Z</time>
      </trkpt>
      <trkpt lat="50.98281" lon="2.46735">
        <ele>1.5</ele>
        <time>2018-01-06T00:23:32Z</time>
      </trkpt>
      <trkpt lat="50.98278" lon="2.46739">
        <ele>1.6</ele>
        <time>2018-01-06T00:24:32Z</time>
      </trkpt>
      <trkpt lat="50.98278" lon="2.46739">
        <ele>1.6</ele>
        <time>2018-01-06T00:25:32Z</time>
      </trkpt>
      <trkpt lat="50.98272" lon="2.46723">
        <ele>1.2</ele>
        <time>2018-01-06T00:26:32Z</time>
      </trkpt>
      <trkpt lat="50.9827" lon="2.46715">
        <ele>1.5</ele>
        <time>2018-01-06T00:27:32Z</time>
      </trkpt>
      <trkpt lat="50.98266" lon="2.46698">
        <ele>1.9</ele>
        <time>2018-01-06T00:28:32Z</time>
      </trkpt>
      <trkpt lat="50.98262" lon="2.4668">
        <ele>1.8</ele>
        <time>2018-01-06T00:29:32Z</time>
      </trkpt>
      <trkpt lat="50.98259" lon="2.46668">
        <ele>1.7</ele>
        <time>2018-01-06T00:30:32Z</time>
      </trkpt>
      <trkpt lat="50.98256" lon="2.46653">
        <ele>1.9</ele>
        <time>2018-01-06T00:31:32Z</time>
      </trkpt>
      <trkpt lat="50.98253" lon="2.46639">
        <ele>2</ele>
        <time>2018-01-06T00:32:32Z</time>
      </trkpt>
      <trkpt lat="50.98246" lon="2.46603">
        <ele>1</ele>
        <time>2018-01-06T00:33:32Z</time>
      </trkpt>
      <trkpt lat="50.98241" lon="2.46575">
        <ele>1</ele>
        <time>2018-01-06T00:34:32Z</time>
      </trkpt>
      <trkpt lat="50.98232" lon="2.46519">
        <ele>1</ele>
        <time>2018-01-06T00:35:32Z</time>
      </trkpt>
      <trkpt lat="50.98224" lon="2.46473">
        <ele>1</ele>
        <time>2018-01-06T00:36:32Z</time>
      </trkpt>
      <trkpt lat="50.98218" lon="2.46439">
        <ele>1</ele>
        <time>2018-01-06T00:37:32Z</time>
      </trkpt>
      <trkpt lat="50.98212" lon="2.46405">
        <ele>1</ele>
        <time>2018-01-06T00:38:32Z</time>
      </trkpt>
      <trkpt lat="50.98209" lon="2.46391">
        <ele>1</ele>
        <time>2018-01-06T00:39:32Z</time>
      </trkpt>
      <trkpt lat="50.98202" lon="2.46358">
        <ele>1.4</ele>
        <time>2018-01-06T00:40:32Z</time>
      </trkpt>
      <trkpt lat="50.98195" lon="2.46321">
        <ele>1.6</ele>
        <time>2018-01-06T00:41:32Z</time>
      </trkpt>
      <trkpt lat="50.98181" lon="2.46264">
        <ele>1</ele>
        <time>2018-01-06T00:42:32Z</time>
      </trkpt>
      <trkpt lat="50.98176" lon="2.46244">
        <ele>1.1</ele>
        <time>2018-01-06T00:43:32Z</time>
      </trkpt>
      <trkpt lat="50.98165" lon="2.46196">
        <ele>1.1</ele>
        <time>2018-01-06T00:44:32Z</time>
      </trkpt>
      <trkpt lat="50.98159" lon="2.46173">
        <ele>1</ele>
        <time>2018-01-06T00:45:32Z</time>
      </trkpt>
      <trkpt lat="50.98154" lon="2.46147">
        <ele>1</ele>
        <time>2018-01-06T00:46:32Z</time>
      </trkpt>
      <trkpt lat="50.98143" lon="2.46103">
        <ele>1.6</ele>
        <time>2018-01-06T00:47:32Z</time>
      </trkpt>
      <trkpt lat="50.98137" lon="2.4608">
        <ele>1</ele>
        <time>2018-01-06T00:48:32Z</time>
      </trkpt>
      <trkpt lat="50.98121" lon="2.46013">
        <ele>1</ele>
        <time>2018-01-06T00:49:32Z</time>
      </trkpt>
      <trkpt lat="50.98112" lon="2.45976">
        <ele>1.8</ele>
        <time>2018-01-06T00:50:32Z</time>
      </trkpt>
      <trkpt lat="50.98105" lon="2.45944">
        <ele>1</ele>
        <time>2018-01-06T00:51:32Z</time>
      </trkpt>
      <trkpt lat="50.98099" lon="2.45908">
        <ele>1</ele>
        <time>2018-01-06T00:52:32Z</time>
      </trkpt>
      <trkpt lat="50.9809" lon="2.45851">
        <ele>1.3</ele>
        <time>2018-01-06T00:53:32Z</time>
      </trkpt>
      <trkpt lat="50.98084" lon="2.45806">
        <ele>1</ele>
        <time>2018-01-06T00:54:32Z</time>
      </trkpt>
      <trkpt lat="50.98076" lon="2.45755">
        <ele>1</ele>
        <time>2018-01-06T00:55:32Z</time>
      </trkpt>
      <trkpt lat="50.98072" lon="2.45724">
        <ele>2</ele>
        <time>2018-01-06T00:56:32Z</time>
      </trkpt>
      <trkpt lat="50.98065" lon="2.45681">
        <ele>2</ele>
        <time>2018-01-06T00:57:32Z</time>
      </trkpt>
      <trkpt lat="50.98059" lon="2.4564">
        <ele>2</ele>
        <time>2018-01-06T00:58:32Z</time>
      </trkpt>
      <trkpt lat="50.98058" lon="2.45624">
        <ele>2</ele>
        <time>2018-01-06T00:59:32Z</time>
      </trkpt>
      <trkpt lat="50.98055" lon="2.45594">
        <ele>2</ele>
        <time>2018-01-06T01:00:32Z</time>
      </trkpt>
      <trkpt lat="50.98053" lon="2.4557">
        <ele>2</ele>
        <time>2018-01-06T01:01:32Z</time>
      </trkpt>
      <trkpt lat="50.98051" lon="2.45547">
        <ele>2</ele>
        <time>2018-01-06T01:02:32Z</time>
      </trkpt>
      <trkpt lat="50.98052" lon="2.45524">
        <ele>2</ele>
        <time>2018-01-06T01:03:32Z</time>
      </trkpt>
      <trkpt lat="50.98051" lon="2.45512">
        <ele>2</ele>
        <time>2018-01-06T01:04:32Z</time>
      </trkpt>
      <trkpt lat="50.98049" lon="2.455">
        <ele>2</ele>
        <time>2018-01-06T01:05:32Z</time>
      </trkpt>
      <trkpt lat="50.98048" lon="2.45488">
        <ele>2</ele>
        <time>2018-01-06T01:06:32Z</time>
      </trkpt>
      <trkpt lat="50.98046" lon="2.45476">
        <ele>2</ele>
        <time>2018-01-06T01:07:32Z</time>
      </trkpt>
      <trkpt lat="50.98041" lon="2.45449">
        <ele>2</ele>
        <time>2018-01-06T01:08:32Z</time>
      </trkpt>
      <trkpt lat="50.98039" lon="2.45434">
        <ele>2</ele>
        <time>2018-01-06T01:09:32Z</time>
      </trkpt>
      <trkpt lat="50.98019" lon="2.45336">
        <ele>1</ele>
        <time>2018-01-06T01:10:32Z</time>
      </trkpt>
      <trkpt lat="50.98007" lon="2.45273">
        <ele>1.7</ele>
        <time>2018-01-06T01:11:32Z</time>
      </trkpt>
      <trkpt lat="50.97992" lon="2.45207">
        <ele>1</ele>
        <time>2018-01-06T01:12:32Z</time>
      </trkpt>
      <trkpt lat="50.97989" lon="2.452">
        <ele>1</ele>
        <time>2018-01-06T01:13:32Z</time>
      </trkpt>
      <trkpt lat="50.97983" lon="2.45172">
        <ele>1.5</ele>
        <time>2018-01-06T01:14:32Z</time>
      </trkpt>
      <trkpt lat="50.9798" lon="2.45158">
        <ele>1.7</ele>
        <time>2018-01-06T01:15:32Z</time>
      </trkpt>
      <trkpt lat="50.97976" lon="2.45145">
        <ele>1.9</ele>
        <time>2018-01-06T01:16:32Z</time>
      </trkpt>
      <trkpt lat="50.97973" lon="2.45139">
        <ele>2</ele>
        <time>2018-01-06T01:17:32Z</time>
      </trkpt>
      <trkpt lat="50.9797" lon="2.45131">
        <ele>1.7</ele>
        <time>2018-01-06T01:18:32Z</time>
      </trkpt>
      <trkpt lat="50.9797" lon="2.4513">
        <ele>1.7</ele>
        <time>2018-01-06T01:19:32Z</time>
      </trkpt>
      <trkpt lat="50.97966" lon="2.45122">
        <ele>1.5</ele>
        <time>2018-01-06T01:20:32Z</time>
      </trkpt>
      <trkpt lat="50.97962" lon="2.45114">
        <ele>1.4</ele>
        <time>2018-01-06T01:21:32Z</time>
      </trkpt>
      <trkpt lat="50.97959" lon="2.45107">
        <ele>1.5</ele>
        <time>2018-01-06T01:22:32Z</time>
      </trkpt>
      <trkpt lat="50.97954" lon="2.45099">
        <ele>1.7</ele>
        <time>2018-01-06T01:23:32Z</time>
      </trkpt>
      <trkpt lat="50.97945" lon="2.45082">
        <ele>1.9</ele>
        <time>2018-01-06T01:24:32Z</time>
      </trkpt>
      <trkpt lat="50.97936" lon="2.45066">
        <ele>1.5</ele>
        <time>2018-01-06T01:25:32Z</time>
      </trkpt>
      <trkpt lat="50.97928" lon="2.45053">
        <ele>1.6</ele>
        <time>2018-01-06T01:26:32Z</time>
      </trkpt>
      <trkpt lat="50.97918" lon="2.45037">
        <ele>1.3</ele>
        <time>2018-01-06T01:27:32Z</time>
      </trkpt>
      <trkpt lat="50.97906" lon="2.45018">
        <ele>1.6</ele>
        <time>2018-01-06T01:28:32Z</time>
      </trkpt>
      <trkpt lat="50.97891" lon="2.44992">
        <ele>1.7</ele>
        <time>2018-01-06T01:29:32Z</time>
      </trkpt>
      <trkpt lat="50.97817" lon="2.44853">
        <ele>1</ele>
        <time>2018-01-06T01:30:32Z</time>
      </trkpt>
      <trkpt lat="50.97787" lon="2.44791">
        <ele>1.7</ele>
        <time>2018-01-06T01:31:32Z</time>
      </trkpt>
      <trkpt lat="50.97724" lon="2.4465">
        <ele>1</ele>
        <time>2018-01-06T01:32:32Z</time>
      </trkpt>
      <trkpt lat="50.97688" lon="2.4457">
        <ele>1</ele>
        <time>2018-01-06T01:33:32Z</time>
      </trkpt>
      <trkpt lat="50.97682" lon="2.44557">
        <ele>1</ele>
        <time>2018-01-06T01:34:32Z</time>
      </trkpt>
      <trkpt lat="50.97678" lon="2.44543">
        <ele>1</ele>
        <time>2018-01-06T01:35:32Z</time>
      </trkpt>
      <trkpt lat="50.97667" lon="2.44518">
        <ele>1</ele>
        <time>2018-01-06T01:36:32Z</time>
      </trkpt>
      <trkpt lat="50.97664" lon="2.44512">
        <ele>1</ele>
        <time>2018-01-06T01:37:32Z</time>
      </trkpt>
      <trkpt lat="50.97656" lon="2.44495">
        <ele>1</ele>
        <time>2018-01-06T01:38:32Z</time>
      </trkpt>
      <trkpt lat="50.9763" lon="2.44435">
        <ele>1.3</ele>
        <time>2018-01-06T01:39:32Z</time>
      </trkpt>
      <trkpt lat="50.97607" lon="2.44385">
        <ele>1.9</ele>
        <time>2018-01-06T01:40:32Z</time>
      </trkpt>
      <trkpt lat="50.97601" lon="2.4437">
        <ele>1.6</ele>
        <time>2018-01-06T01:41:32Z</time>
      </trkpt>
      <trkpt lat="50.97597" lon="2.44365">
        <ele>1.6</ele>
        <time>2018-01-06T01:42:32Z</time>
      </trkpt>
      <trkpt lat="50.97586" lon="2.44336">
        <ele>2</ele>
        <time>2018-01-06T01:43:32Z</time>
      </trkpt>
      <trkpt lat="50.97573" lon="2.44308">
        <ele>2</ele>
        <time>2018-01-06T01:44:32Z</time>
      </trkpt>
      <trkpt lat="50.97549" lon="2.44253">
        <ele>2</ele>
        <time>2018-01-06T01:45:32Z</time>
      </trkpt>
      <trkpt lat="50.97543" lon="2.44243">
        <ele>1</ele>
        <time>2018-01-06T01:46:32Z</time>
      </trkpt>
      <trkpt lat="50.97507" lon="2.44172">
        <ele>1</ele>
        <time>2018-01-06T01:47:32Z</time>
      </trkpt>
      <trkpt lat="50.97425" lon="2.44016">
        <ele>1.7</ele>
        <time>2018-01-06T01:48:32Z</time>
      </trkpt>
      <trkpt lat="50.97423" lon="2.44011">
        <ele>1.8</ele>
        <time>2018-01-06T01:49:32Z</time>
      </trkpt>
      <trkpt lat="50.97417" lon="2.43996">
        <ele>1.8</ele>
        <time>2018-01-06T01:50:32Z</time>
      </trkpt>
      <trkpt lat="50.97396" lon="2.43948">
        <ele>1</ele>
        <time>2018-01-06T01:51:32Z</time>
      </trkpt>
      <trkpt lat="50.97387" lon="2.43932">
        <ele>1</ele>
        <time>2018-01-06T01:52:32Z</time>
      </trkpt>
      <trkpt lat="50.97387" lon="2.43928">
        <ele>1</ele>
        <time>2018-01-06T01:53:32Z</time>
      </trkpt>
      <trkpt lat="50.97386" lon="2.43926">
        <ele>1</ele>
        <time>2018-01-06T01:54:32Z</time>
      </trkpt>
      <trkpt lat="50.97384" lon="2.43923">
        <ele>1</ele>
        <time>2018-01-06T01:55:32Z</time>
      </trkpt>
      <trkpt lat="50.97377" lon="2.43906">
        <ele>1</ele>
        <time>2018-01-06T01:56:32Z</time>
      </trkpt>
      <trkpt lat="50.97336" lon="2.43798">
        <ele>1.7</ele>
        <time>2018-01-06T01:57:32Z</time>
      </trkpt>
      <trkpt lat="50.97332" lon="2.43789">
        <ele>2</ele>
        <time>2018-01-06T01:58:32Z</time>
      </trkpt>
      <trkpt lat="50.97317" lon="2.43756">
        <ele>2</ele>
        <time>2018-01-06T01:59:32Z</time>
      </trkpt>
      <trkpt lat="50.97316" lon="2.43755">
        <ele>2</ele>
        <time>2018-01-06T02:00:32Z</time>
      </trkpt>
      <trkpt lat="50.97316" lon="2.43755">
        <ele>2</ele>
        <time>2018-01-06T02:01:32Z</time>
      </trkpt>
      <trkpt lat="50.97308" lon="2.43738">
        <ele>3</ele>
        <time>2018-01-06T02:02:32Z</time>
      </trkpt>
      <trkpt lat="50.97297" lon="2.43718">
        <ele>3</ele>
        <time>2018-01-06T02:03:32Z</time>
      </trkpt>
      <trkpt lat="50.97289" lon="2.43704">
        <ele>3</ele>
        <time>2018-01-06T02:04:32Z</time>
      </trkpt>
      <trkpt lat="50.97281" lon="2.43685">
        <ele>3</ele>
        <time>2018-01-06T02:05:32Z</time>
      </trkpt>
      <trkpt lat="50.97266" lon="2.43653">
        <ele>2</ele>
        <time>2018-01-06T02:06:32Z</time>
      </trkpt>
      <trkpt lat="50.97256" lon="2.4363">
        <ele>2</ele>
        <time>2018-01-06T02:07:32Z</time>
      </trkpt>
      <trkpt lat="50.97247" lon="2.43608">
        <ele>2</ele>
        <time>2018-01-06T02:08:32Z</time>
      </trkpt>
      <trkpt lat="50.97228" lon="2.4356">
        <ele>3</ele>
        <time>2018-01-06T02:09:32Z</time>
      </trkpt>
      <trkpt lat="50.97217" lon="2.43528">
        <ele>3</ele>
        <time>2018-01-06T02:10:32Z</time>
      </trkpt>
      <trkpt lat="50.9721" lon="2.43509">
        <ele>3</ele>
        <time>2018-01-06T02:11:32Z</time>
      </trkpt>
      <trkpt lat="50.97205" lon="2.43496">
        <ele>4</ele>
        <time>2018-01-06T02:12:32Z</time>
      </trkpt>
      <trkpt lat="50.97196" lon="2.43472">
        <ele>4</ele>
        <time>2018-01-06T02:13:32Z</time>
      </trkpt>
      <trkpt lat="50.97192" lon="2.43463">
        <ele>4</ele>
        <time>2018-01-06T02:14:32Z</time>
      </trkpt>
      <trkpt lat="50.97184" lon="2.43438">
        <ele>4</ele>
        <time>2018-01-06T02:15:32Z</time>
      </trkpt>
      <trkpt lat="50.97166" lon="2.43391">
        <ele>4</ele>
        <time>2018-01-06T02:16:32Z</time>
      </trkpt>
      <trkpt lat="50.97157" lon="2.43361">
        <ele>4</ele>
        <time>2018-01-06T02:17:32Z</time>
      </trkpt>
      <trkpt lat="50.97156" lon="2.43359">
        <ele>4</ele>
        <time>2018-01-06T02:18:32Z</time>
      </trkpt>
      <trkpt lat="50.9715" lon="2.43329">
        <ele>3</ele>
        <time>2018-01-06T02:19:32Z</time>
      </trkpt>
      <trkpt lat="50.97146" lon="2.43324">
        <ele>3</ele>
        <time>2018-01-06T02:20:32Z</time>
      </trkpt>
      <trkpt lat="50.97142" lon="2.4332">
        <ele>3</ele>
        <time>2018-01-06T02:21:32Z</time>
      </trkpt>
      <trkpt lat="50.97141" lon="2.43319">
        <ele>3</ele>
        <time>2018-01-06T02:22:32Z</time>
      </trkpt>
      <trkpt lat="50.97139" lon="2.43317">
        <ele>3</ele>
        <time>2018-01-06T02:23:32Z</time>
      </trkpt>
      <trkpt lat="50.97137" lon="2.43316">
        <ele>4</ele>
        <time>2018-01-06T02:24:32Z</time>
      </trkpt>
      <trkpt lat="50.97134" lon="2.43314">
        <ele>4</ele>
        <time>2018-01-06T02:25:32Z</time>
      </trkpt>
      <trkpt lat="50.97132" lon="2.43312">
        <ele>4</ele>
        <time>2018-01-06T02:26:32Z</time>
      </trkpt>
      <trkpt lat="50.97128" lon="2.43309">
        <ele>4</ele>
        <time>2018-01-06T02:27:32Z</time>
      </trkpt>
      <trkpt lat="50.97125" lon="2.43307">
        <ele>4</ele>
        <time>2018-01-06T02:28:32Z</time>
      </trkpt>
      <trkpt lat="50.97123" lon="2.43305">
        <ele>4</ele>
        <time>2018-01-06T02:29:32Z</time>
      </trkpt>
      <trkpt lat="50.9712" lon="2.43302">
        <ele>4</ele>
        <time>2018-01-06T02:30:32Z</time>
      </trkpt>
      <trkpt lat="50.97114" lon="2.43297">
        <ele>4</ele>
        <time>2018-01-06T02:31:32Z</time>
      </trkpt>
      <trkpt lat="50.97103" lon="2.4327">
        <ele>4</ele>
        <time>2018-01-06T02:32:32Z</time>
      </trkpt>
      <trkpt lat="50.97088" lon="2.43245">
        <ele>4</ele>
        <time>2018-01-06T02:33:32Z</time>
      </trkpt>
      <trkpt lat="50.97088" lon="2.43245">
        <ele>4</ele>
        <time>2018-01-06T02:34:32Z</time>
      </trkpt>
      <trkpt lat="50.97063" lon="2.4326">
        <ele>5</ele>
        <time>2018-01-06T02:35:32Z</time>
      </trkpt>
      <trkpt lat="50.97059" lon="2.43262">
        <ele>5</ele>
        <time>2018-01-06T02:36:32Z</time>
      </trkpt>
      <trkpt lat="50.97054" lon="2.43266">
        <ele>5</ele>
        <time>2018-01-06T02:37:32Z</time>
      </trkpt>
      <trkpt lat="50.97053" lon="2.43267">
        <ele>5</ele>
        <time>2018-01-06T02:38:32Z</time>
      </trkpt>
      <trkpt lat="50.97053" lon="2.43267">
        <ele>5</ele>
        <time>2018-01-06T02:39:32Z</time>
      </trkpt>
      <trkpt lat="50.97047" lon="2.4325">
        <ele>5</ele>
        <time>2018-01-06T02:40:32Z</time>
      </trkpt>
      <trkpt lat="50.97039" lon="2.43235">
        <ele>5</ele>
        <time>2018-01-06T02:41:32Z</time>
      </trkpt>
      <trkpt lat="50.96999" lon="2.43182">
        <ele>6</ele>
        <time>2018-01-06T02:42:32Z</time>
      </trkpt>
      <trkpt lat="50.9699" lon="2.43163">
        <ele>6</ele>
        <time>2018-01-06T02:43:32Z</time>
      </trkpt>
      <trkpt lat="50.96983" lon="2.4315">
        <ele>6</ele>
        <time>2018-01-06T02:44:32Z</time>
      </trkpt>
      <trkpt lat="50.96983" lon="2.4315">
        <ele>6</ele>
        <time>2018-01-06T02:45:32Z</time>
      </trkpt>
      <trkpt lat="50.96985" lon="2.43135">
        <ele>6</ele>
        <time>2018-01-06T02:46:32Z</time>
      </trkpt>
      <trkpt lat="50.96987" lon="2.43124">
        <ele>6</ele>
        <time>2018-01-06T02:47:32Z</time>
      </trkpt>
      <trkpt lat="50.96988" lon="2.43119">
        <ele>6</ele>
        <time>2018-01-06T02:48:32Z</time>
      </trkpt>
      <trkpt lat="50.96988" lon="2.43114">
        <ele>6</ele>
        <time>2018-01-06T02:49:32Z</time>
      </trkpt>
      <trkpt lat="50.96989" lon="2.43109">
        <ele>6</ele>
        <time>2018-01-06T02:50:32Z</time>
      </trkpt>
      <trkpt lat="50.96991" lon="2.43089">
        <ele>6</ele>
        <time>2018-01-06T02:51:32Z</time>
      </trkpt>
      <trkpt lat="50.96991" lon="2.43083">
        <ele>6</ele>
        <time>2018-01-06T02:52:32Z</time>
      </trkpt>
      <trkpt lat="50.96992" lon="2.4307">
        <ele>6</ele>
        <time>2018-01-06T02:53:32Z</time>
      </trkpt>
      <trkpt lat="50.96992" lon="2.43063">
        <ele>6</ele>
        <time>2018-01-06T02:54:32Z</time>
      </trkpt>
      <trkpt lat="50.96992" lon="2.43058">
        <ele>6</ele>
        <time>2018-01-06T02:55:32Z</time>
      </trkpt>
      <trkpt lat="50.96992" lon="2.43052">
        <ele>6</ele>
        <time>2018-01-06T02:56:32Z</time>
      </trkpt>
      <trkpt lat="50.96992" lon="2.43043">
        <ele>6</ele>
        <time>2018-01-06T02:57:32Z</time>
      </trkpt>
      <trkpt lat="50.96993" lon="2.43027">
        <ele>6</ele>
        <time>2018-01-06T02:58:32Z</time>
      </trkpt>
      <trkpt lat="50.96993" lon="2.4302">
        <ele>6</ele>
        <time>2018-01-06T02:59:32Z</time>
      </trkpt>
      <trkpt lat="50.96992" lon="2.43015">
        <ele>6</ele>
        <time>2018-01-06T03:00:32Z</time>
      </trkpt>
      <trkpt lat="50.96991" lon="2.43007">
        <ele>6</ele>
        <time>2018-01-06T03:01:32Z</time>
      </trkpt>
      <trkpt lat="50.9699" lon="2.42998">
        <ele>6</ele>
        <time>2018-01-06T03:02:32Z</time>
      </trkpt>
      <trkpt lat="50.96987" lon="2.42985">
        <ele>6</ele>
        <time>2018-01-06T03:03:32Z</time>
      </trkpt>
      <trkpt lat="50.96982" lon="2.42964">
        <ele>6</ele>
        <time>2018-01-06T03:04:32Z</time>
      </trkpt>
      <trkpt lat="50.96976" lon="2.4294">
        <ele>5</ele>
        <time>2018-01-06T03:05:32Z</time>
      </trkpt>
      <trkpt lat="50.96971" lon="2.42926">
        <ele>5</ele>
        <time>2018-01-06T03:06:32Z</time>
      </trkpt>
      <trkpt lat="50.96966" lon="2.42911">
        <ele>5</ele>
        <time>2018-01-06T03:07:32Z</time>
      </trkpt>
      <trkpt lat="50.96961" lon="2.42898">
        <ele>5</ele>
        <time>2018-01-06T03:08:32Z</time>
      </trkpt>
      <trkpt lat="50.96954" lon="2.42885">
        <ele>5</ele>
        <time>2018-01-06T03:09:32Z</time>
      </trkpt>
      <trkpt lat="50.96944" lon="2.42869">
        <ele>4</ele>
        <time>2018-01-06T03:10:32Z</time>
      </trkpt>
      <trkpt lat="50.96938" lon="2.42859">
        <ele>4</ele>
        <time>2018-01-06T03:11:32Z</time>
      </trkpt>
      <trkpt lat="50.96938" lon="2.42859">
        <ele>4</ele>
        <time>2018-01-06T03:12:32Z</time>
      </trkpt>
      <trkpt lat="50.96946" lon="2.42845">
        <ele>4</ele>
        <time>2018-01-06T03:13:32Z</time>
      </trkpt>
      <trkpt lat="50.9695" lon="2.42836">
        <ele>4</ele>
        <time>2018-01-06T03:14:32Z</time>
      </trkpt>
      <trkpt lat="50.96952" lon="2.42831">
        <ele>4</ele>
        <time>2018-01-06T03:15:32Z</time>
      </trkpt>
      <trkpt lat="50.96954" lon="2.42826">
        <ele>4</ele>
        <time>2018-01-06T03:16:32Z</time>
      </trkpt>
      <trkpt lat="50.96957" lon="2.4282">
        <ele>4</ele>
        <time>2018-01-06T03:17:32Z</time>
      </trkpt>
      <trkpt lat="50.9696" lon="2.42813">
        <ele>4</ele>
        <time>2018-01-06T03:18:32Z</time>
      </trkpt>
      <trkpt lat="50.96963" lon="2.42807">
        <ele>4</ele>
        <time>2018-01-06T03:19:32Z</time>
      </trkpt>
      <trkpt lat="50.96965" lon="2.428">
        <ele>4</ele>
        <time>2018-01-06T03:20:32Z</time>
      </trkpt>
      <trkpt lat="50.96967" lon="2.42792">
        <ele>4</ele>
        <time>2018-01-06T03:21:32Z</time>
      </trkpt>
      <trkpt lat="50.96969" lon="2.42783">
        <ele>4</ele>
        <time>2018-01-06T03:22:32Z</time>
      </trkpt>
      <trkpt lat="50.96983" lon="2.42685">
        <ele>3</ele>
        <time>2018-01-06T03:23:32Z</time>
      </trkpt>
      <trkpt lat="50.96985" lon="2.42668">
        <ele>2</ele>
        <time>2018-01-06T03:24:32Z</time>
      </trkpt>
      <trkpt lat="50.96985" lon="2.42663">
        <ele>2</ele>
        <time>2018-01-06T03:25:32Z</time>
      </trkpt>
      <trkpt lat="50.96986" lon="2.4266">
        <ele>2</ele>
        <time>2018-01-06T03:26:32Z</time>
      </trkpt>
      <trkpt lat="50.96986" lon="2.42657">
        <ele>2</ele>
        <time>2018-01-06T03:27:32Z</time>
      </trkpt>
      <trkpt lat="50.96986" lon="2.42652">
        <ele>2</ele>
        <time>2018-01-06T03:28:32Z</time>
      </trkpt>
      <trkpt lat="50.96985" lon="2.42649">
        <ele>2</ele>
        <time>2018-01-06T03:29:32Z</time>
      </trkpt>
      <trkpt lat="50.96976" lon="2.42592">
        <ele>2</ele>
        <time>2018-01-06T03:30:32Z</time>
      </trkpt>
      <trkpt lat="50.96968" lon="2.42563">
        <ele>2</ele>
        <time>2018-01-06T03:31:32Z</time>
      </trkpt>
      <trkpt lat="50.96968" lon="2.42563">
        <ele>2</ele>
        <time>2018-01-06T03:32:32Z</time>
      </trkpt>
      <trkpt lat="50.96985" lon="2.42548">
        <ele>2</ele>
        <time>2018-01-06T03:33:32Z</time>
      </trkpt>
      <trkpt lat="50.9699" lon="2.42543">
        <ele>2</ele>
        <time>2018-01-06T03:34:32Z</time>
      </trkpt>
      <trkpt lat="50.97003" lon="2.42531">
        <ele>2</ele>
        <time>2018-01-06T03:35:32Z</time>
      </trkpt>
      <trkpt lat="50.97012" lon="2.42523">
        <ele>2</ele>
        <time>2018-01-06T03:36:32Z</time>
      </trkpt>
      <trkpt lat="50.97039" lon="2.42499">
        <ele>2</ele>
        <time>2018-01-06T03:37:32Z</time>
      </trkpt>
      <trkpt lat="50.97059" lon="2.42481">
        <ele>1</ele>
        <time>2018-01-06T03:38:32Z</time>
      </trkpt>
      <trkpt lat="50.97061" lon="2.42479">
        <ele>1</ele>
        <time>2018-01-06T03:39:32Z</time>
      </trkpt>
      <trkpt lat="50.97064" lon="2.42476">
        <ele>1</ele>
        <time>2018-01-06T03:40:32Z</time>
      </trkpt>
      <trkpt lat="50.97078" lon="2.42464">
        <ele>1</ele>
        <time>2018-01-06T03:41:32Z</time>
      </trkpt>
      <trkpt lat="50.971" lon="2.42443">
        <ele>1</ele>
        <time>2018-01-06T03:42:32Z</time>
      </trkpt>
      <trkpt lat="50.97112" lon="2.42434">
        <ele>1</ele>
        <time>2018-01-06T03:43:32Z</time>
      </trkpt>
      <trkpt lat="50.9714" lon="2.42407">
        <ele>2</ele>
        <time>2018-01-06T03:44:32Z</time>
      </trkpt>
      <trkpt lat="50.97149" lon="2.42399">
        <ele>2</ele>
        <time>2018-01-06T03:45:32Z</time>
      </trkpt>
      <trkpt lat="50.97166" lon="2.42383">
        <ele>2</ele>
        <time>2018-01-06T03:46:32Z</time>
      </trkpt>
      <trkpt lat="50.97179" lon="2.42371">
        <ele>2</ele>
        <time>2018-01-06T03:47:32Z</time>
      </trkpt>
      <trkpt lat="50.97184" lon="2.42367">
        <ele>2</ele>
        <time>2018-01-06T03:48:32Z</time>
      </trkpt>
      <trkpt lat="50.9719" lon="2.42363">
        <ele>1</ele>
        <time>2018-01-06T03:49:32Z</time>
      </trkpt>
      <trkpt lat="50.97201" lon="2.4236">
        <ele>1</ele>
        <time>2018-01-06T03:50:32Z</time>
      </trkpt>
      <trkpt lat="50.97206" lon="2.42359">
        <ele>1</ele>
        <time>2018-01-06T03:51:32Z</time>
      </trkpt>
      <trkpt lat="50.97217" lon="2.42359">
        <ele>1</ele>
        <time>2018-01-06T03:52:32Z</time>
      </trkpt>
      <trkpt lat="50.97224" lon="2.42361">
        <ele>1</ele>
        <time>2018-01-06T03:53:32Z</time>
      </trkpt>
      <trkpt lat="50.97237" lon="2.42365">
        <ele>3.3</ele>
        <time>2018-01-06T03:54:32Z</time>
      </trkpt>
      <trkpt lat="50.97271" lon="2.42381">
        <ele>2.6</ele>
        <time>2018-01-06T03:55:32Z</time>
      </trkpt>
      <trkpt lat="50.97283" lon="2.42386">
        <ele>2.9</ele>
        <time>2018-01-06T03:56:32Z</time>
      </trkpt>
      <trkpt lat="50.97288" lon="2.42387">
        <ele>2.9</ele>
        <time>2018-01-06T03:57:32Z</time>
      </trkpt>
      <trkpt lat="50.97294" lon="2.4239">
        <ele>3</ele>
        <time>2018-01-06T03:58:32Z</time>
      </trkpt>
      <trkpt lat="50.97301" lon="2.4239">
        <ele>3</ele>
        <time>2018-01-06T03:59:32Z</time>
      </trkpt>
      <trkpt lat="50.97313" lon="2.42391">
        <ele>2.9</ele>
        <time>2018-01-06T04:00:32Z</time>
      </trkpt>
      <trkpt lat="50.97327" lon="2.4239">
        <ele>3</ele>
        <time>2018-01-06T04:01:32Z</time>
      </trkpt>
      <trkpt lat="50.97335" lon="2.4239">
        <ele>3</ele>
        <time>2018-01-06T04:02:32Z</time>
      </trkpt>
      <trkpt lat="50.97335" lon="2.4239">
        <ele>3</ele>
        <time>2018-01-06T04:03:32Z</time>
      </trkpt>
      <trkpt lat="50.97339" lon="2.42391">
        <ele>3</ele>
        <time>2018-01-06T04:04:32Z</time>
      </trkpt>
      <trkpt lat="50.97344" lon="2.42391">
        <ele>3</ele>
        <time>2018-01-06T04:05:32Z</time>
      </trkpt>
      <trkpt lat="50.97348" lon="2.42391">
        <ele>3</ele>
        <time>2018-01-06T04:06:32Z</time>
      </trkpt>
      <trkpt lat="50.97351" lon="2.42389">
        <ele>3</ele>
        <time>2018-01-06T04:07:32Z</time>
      </trkpt>
      <trkpt lat="50.97356" lon="2.42386">
        <ele>3</ele>
        <time>2018-01-06T04:08:32Z</time>
      </trkpt>
      <trkpt lat="50.97357" lon="2.42385">
        <ele>3</ele>
        <time>2018-01-06T04:09:32Z</time>
      </trkpt>
      <trkpt lat="50.9736" lon="2.42382">
        <ele>3</ele>
        <time>2018-01-06T04:10:32Z</time>
      </trkpt>
      <trkpt lat="50.97362" lon="2.42378">
        <ele>3</ele>
        <time>2018-01-06T04:11:32Z</time>
      </trkpt>
      <trkpt lat="50.97364" lon="2.42371">
        <ele>2.9</ele>
        <time>2018-01-06T04:12:32Z</time>
      </trkpt>
      <trkpt lat="50.97364" lon="2.42367">
        <ele>3</ele>
        <time>2018-01-06T04:13:32Z</time>
      </trkpt>
      <trkpt lat="50.97365" lon="2.42359">
        <ele>3</ele>
        <time>2018-01-06T04:14:32Z</time>
      </trkpt>
      <trkpt lat="50.97365" lon="2.42352">
        <ele>3</ele>
        <time>2018-01-06T04:15:32Z</time>
      </trkpt>
      <trkpt lat="50.97364" lon="2.42346">
        <ele>3</ele>
        <time>2018-01-06T04:16:32Z</time>
      </trkpt>
      <trkpt lat="50.97362" lon="2.42339">
        <ele>3</ele>
        <time>2018-01-06T04:17:32Z</time>
      </trkpt>
      <trkpt lat="50.9736" lon="2.42334">
        <ele>3</ele>
        <time>2018-01-06T04:18:32Z</time>
      </trkpt>
      <trkpt lat="50.97358" lon="2.4233">
        <ele>2.9</ele>
        <time>2018-01-06T04:19:32Z</time>
      </trkpt>
      <trkpt lat="50.97354" lon="2.42326">
        <ele>2.7</ele>
        <time>2018-01-06T04:20:32Z</time>
      </trkpt>
      <trkpt lat="50.9735" lon="2.42323">
        <ele>2.6</ele>
        <time>2018-01-06T04:21:32Z</time>
      </trkpt>
      <trkpt lat="50.97347" lon="2.42322">
        <ele>2.6</ele>
        <time>2018-01-06T04:22:32Z</time>
      </trkpt>
      <trkpt lat="50.97343" lon="2.42322">
        <ele>2.6</ele>
        <time>2018-01-06T04:23:32Z</time>
      </trkpt>
      <trkpt lat="50.97339" lon="2.42323">
        <ele>2.6</ele>
        <time>2018-01-06T04:24:32Z</time>
      </trkpt>
      <trkpt lat="50.97334" lon="2.42325">
        <ele>2.7</ele>
        <time>2018-01-06T04:25:32Z</time>
      </trkpt>
      <trkpt lat="50.97329" lon="2.42331">
        <ele>2.6</ele>
        <time>2018-01-06T04:26:32Z</time>
      </trkpt>
      <trkpt lat="50.97325" lon="2.42337">
        <ele>2.5</ele>
        <time>2018-01-06T04:27:32Z</time>
      </trkpt>
      <trkpt lat="50.97322" lon="2.42345">
        <ele>2.6</ele>
        <time>2018-01-06T04:28:32Z</time>
      </trkpt>
      <trkpt lat="50.97322" lon="2.42352">
        <ele>2.9</ele>
        <time>2018-01-06T04:29:32Z</time>
      </trkpt>
      <trkpt lat="50.97314" lon="2.42364">
        <ele>2.6</ele>
        <time>2018-01-06T04:30:32Z</time>
      </trkpt>
      <trkpt lat="50.97311" lon="2.42371">
        <ele>2.6</ele>
        <time>2018-01-06T04:31:32Z</time>
      </trkpt>
      <trkpt lat="50.97307" lon="2.42375">
        <ele>2.6</ele>
        <time>2018-01-06T04:32:32Z</time>
      </trkpt>
      <trkpt lat="50.97302" lon="2.42379">
        <ele>2.6</ele>
        <time>2018-01-06T04:33:32Z</time>
      </trkpt>
      <trkpt lat="50.97297" lon="2.42382">
        <ele>2.8</ele>
        <time>2018-01-06T04:34:32Z</time>
      </trkpt>
      <trkpt lat="50.97294" lon="2.42382">
        <ele>2.8</ele>
        <time>2018-01-06T04:35:32Z</time>
      </trkpt>
      <trkpt lat="50.97291" lon="2.42382">
        <ele>2.8</ele>
        <time>2018-01-06T04:36:32Z</time>
      </trkpt>
      <trkpt lat="50.97288" lon="2.42382">
        <ele>2.8</ele>
        <time>2018-01-06T04:37:32Z</time>
      </trkpt>
      <trkpt lat="50.97285" lon="2.42381">
        <ele>2.7</ele>
        <time>2018-01-06T04:38:32Z</time>
      </trkpt>
      <trkpt lat="50.97273" lon="2.42376">
        <ele>2.5</ele>
        <time>2018-01-06T04:39:32Z</time>
      </trkpt>
      <trkpt lat="50.97236" lon="2.42359">
        <ele>3.5</ele>
        <time>2018-01-06T04:40:32Z</time>
      </trkpt>
      <trkpt lat="50.97222" lon="2.42355">
        <ele>1</ele>
        <time>2018-01-06T04:41:32Z</time>
      </trkpt>
      <trkpt lat="50.97198" lon="2.42352">
        <ele>1</ele>
        <time>2018-01-06T04:42:32Z</time>
      </trkpt>
      <trkpt lat="50.97198" lon="2.42352">
        <ele>1</ele>
        <time>2018-01-06T04:43:32Z</time>
      </trkpt>
      <trkpt lat="50.9719" lon="2.42352">
        <ele>1</ele>
        <time>2018-01-06T04:44:32Z</time>
      </trkpt>
      <trkpt lat="50.97182" lon="2.42351">
        <ele>2</ele>
        <time>2018-01-06T04:45:32Z</time>
      </trkpt>
      <trkpt lat="50.97174" lon="2.42349">
        <ele>2</ele>
        <time>2018-01-06T04:46:32Z</time>
      </trkpt>
      <trkpt lat="50.97169" lon="2.42339">
        <ele>2</ele>
        <time>2018-01-06T04:47:32Z</time>
      </trkpt>
      <trkpt lat="50.97166" lon="2.42332">
        <ele>2</ele>
        <time>2018-01-06T04:48:32Z</time>
      </trkpt>
      <trkpt lat="50.97164" lon="2.42325">
        <ele>2</ele>
        <time>2018-01-06T04:49:32Z</time>
      </trkpt>
      <trkpt lat="50.97158" lon="2.42306">
        <ele>2</ele>
        <time>2018-01-06T04:50:32Z</time>
      </trkpt>
      <trkpt lat="50.97157" lon="2.42301">
        <ele>2</ele>
        <time>2018-01-06T04:51:32Z</time>
      </trkpt>
      <trkpt lat="50.97156" lon="2.42294">
        <ele>2</ele>
        <time>2018-01-06T04:52:32Z</time>
      </trkpt>
      <trkpt lat="50.97155" lon="2.42292">
        <ele>2</ele>
        <time>2018-01-06T04:53:32Z</time>
      </trkpt>
      <trkpt lat="50.97153" lon="2.42284">
        <ele>2</ele>
        <time>2018-01-06T04:54:32Z</time>
      </trkpt>
      <trkpt lat="50.97139" lon="2.42226">
        <ele>3</ele>
        <time>2018-01-06T04:55:32Z</time>
      </trkpt>
      <trkpt lat="50.97129" lon="2.42187">
        <ele>3</ele>
        <time>2018-01-06T04:56:32Z</time>
      </trkpt>
      <trkpt lat="50.97122" lon="2.42153">
        <ele>2</ele>
        <time>2018-01-06T04:57:32Z</time>
      </trkpt>
      <trkpt lat="50.97119" lon="2.42142">
        <ele>2</ele>
        <time>2018-01-06T04:58:32Z</time>
      </trkpt>
      <trkpt lat="50.97114" lon="2.42123">
        <ele>2</ele>
        <time>2018-01-06T04:59:32Z</time>
      </trkpt>
      <trkpt lat="50.97107" lon="2.42088">
        <ele>2</ele>
        <time>2018-01-06T05:00:32Z</time>
      </trkpt>
      <trkpt lat="50.97101" lon="2.42052">
        <ele>1</ele>
        <time>2018-01-06T05:01:32Z</time>
      </trkpt>
      <trkpt lat="50.97098" lon="2.42046">
        <ele>1</ele>
        <time>2018-01-06T05:02:32Z</time>
      </trkpt>
      <trkpt lat="50.97095" lon="2.42004">
        <ele>1.4</ele>
        <time>2018-01-06T05:03:32Z</time>
      </trkpt>
      <trkpt lat="50.97093" lon="2.41967">
        <ele>1</ele>
        <time>2018-01-06T05:04:32Z</time>
      </trkpt>
      <trkpt lat="50.97092" lon="2.41933">
        <ele>1</ele>
        <time>2018-01-06T05:05:32Z</time>
      </trkpt>
      <trkpt lat="50.97091" lon="2.41903">
        <ele>1</ele>
        <time>2018-01-06T05:06:32Z</time>
      </trkpt>
      <trkpt lat="50.9709" lon="2.4186">
        <ele>2</ele>
        <time>2018-01-06T05:07:32Z</time>
      </trkpt>
      <trkpt lat="50.97088" lon="2.41827">
        <ele>2</ele>
        <time>2018-01-06T05:08:32Z</time>
      </trkpt>
      <trkpt lat="50.97086" lon="2.41726">
        <ele>2</ele>
        <time>2018-01-06T05:09:32Z</time>
      </trkpt>
      <trkpt lat="50.97084" lon="2.41657">
        <ele>2</ele>
        <time>2018-01-06T05:10:32Z</time>
      </trkpt>
      <trkpt lat="50.97081" lon="2.41559">
        <ele>3</ele>
        <time>2018-01-06T05:11:32Z</time>
      </trkpt>
      <trkpt lat="50.97079" lon="2.41478">
        <ele>2</ele>
        <time>2018-01-06T05:12:32Z</time>
      </trkpt>
      <trkpt lat="50.97078" lon="2.41439">
        <ele>2</ele>
        <time>2018-01-06T05:13:32Z</time>
      </trkpt>
      <trkpt lat="50.9707" lon="2.41166">
        <ele>1</ele>
        <time>2018-01-06T05:14:32Z</time>
      </trkpt>
      <trkpt lat="50.97069" lon="2.41142">
        <ele>1</ele>
        <time>2018-01-06T05:15:32Z</time>
      </trkpt>
      <trkpt lat="50.97068" lon="2.41098">
        <ele>1.2</ele>
        <time>2018-01-06T05:16:32Z</time>
      </trkpt>
      <trkpt lat="50.97067" lon="2.4106">
        <ele>1</ele>
        <time>2018-01-06T05:17:32Z</time>
      </trkpt>
      <trkpt lat="50.97065" lon="2.4098">
        <ele>1</ele>
        <time>2018-01-06T05:18:32Z</time>
      </trkpt>
      <trkpt lat="50.97064" lon="2.40912">
        <ele>1</ele>
        <time>2018-01-06T05:19:32Z</time>
      </trkpt>
      <trkpt lat="50.97062" lon="2.40846">
        <ele>1</ele>
        <time>2018-01-06T05:20:32Z</time>
      </trkpt>
      <trkpt lat="50.97062" lon="2.40819">
        <ele>1</ele>
        <time>2018-01-06T05:21:32Z</time>
      </trkpt>
      <trkpt lat="50.97061" lon="2.40782">
        <ele>1</ele>
        <time>2018-01-06T05:22:32Z</time>
      </trkpt>
      <trkpt lat="50.97057" lon="2.40602">
        <ele>1</ele>
        <time>2018-01-06T05:23:32Z</time>
      </trkpt>
      <trkpt lat="50.97052" lon="2.40432">
        <ele>1</ele>
        <time>2018-01-06T05:24:32Z</time>
      </trkpt>
      <trkpt lat="50.97051" lon="2.40415">
        <ele>1</ele>
        <time>2018-01-06T05:25:32Z</time>
      </trkpt>
      <trkpt lat="50.9705" lon="2.40359">
        <ele>1</ele>
        <time>2018-01-06T05:26:32Z</time>
      </trkpt>
      <trkpt lat="50.97049" lon="2.40286">
        <ele>1</ele>
        <time>2018-01-06T05:27:32Z</time>
      </trkpt>
      <trkpt lat="50.97048" lon="2.40199">
        <ele>1</ele>
        <time>2018-01-06T05:28:32Z</time>
      </trkpt>
      <trkpt lat="50.97047" lon="2.40184">
        <ele>1</ele>
        <time>2018-01-06T05:29:32Z</time>
      </trkpt>
      <trkpt lat="50.97047" lon="2.40109">
        <ele>1</ele>
        <time>2018-01-06T05:30:32Z</time>
      </trkpt>
      <trkpt lat="50.97046" lon="2.40019">
        <ele>1.7</ele>
        <time>2018-01-06T05:31:32Z</time>
      </trkpt>
      <trkpt lat="50.97044" lon="2.3993">
        <ele>1.6</ele>
        <time>2018-01-06T05:32:32Z</time>
      </trkpt>
      <trkpt lat="50.97043" lon="2.39893">
        <ele>1.5</ele>
        <time>2018-01-06T05:33:32Z</time>
      </trkpt>
      <trkpt lat="50.97043" lon="2.39765">
        <ele>1</ele>
        <time>2018-01-06T05:34:32Z</time>
      </trkpt>
      <trkpt lat="50.97042" lon="2.39735">
        <ele>2</ele>
        <time>2018-01-06T05:35:32Z</time>
      </trkpt>
      <trkpt lat="50.97042" lon="2.39735">
        <ele>2</ele>
        <time>2018-01-06T05:36:32Z</time>
      </trkpt>
      <trkpt lat="50.97035" lon="2.39738">
        <ele>2</ele>
        <time>2018-01-06T05:37:32Z</time>
      </trkpt>
      <trkpt lat="50.97029" lon="2.3974">
        <ele>2</ele>
        <time>2018-01-06T05:38:32Z</time>
      </trkpt>
      <trkpt lat="50.97022" lon="2.39741">
        <ele>2</ele>
        <time>2018-01-06T05:39:32Z</time>
      </trkpt>
      <trkpt lat="50.97014" lon="2.39743">
        <ele>2</ele>
        <time>2018-01-06T05:40:32Z</time>
      </trkpt>
      <trkpt lat="50.97014" lon="2.39743">
        <ele>2</ele>
        <time>2018-01-06T05:41:32Z</time>
      </trkpt>
      <trkpt lat="50.97014" lon="2.39727">
        <ele>2</ele>
        <time>2018-01-06T05:42:32Z</time>
      </trkpt>
      <trkpt lat="50.97011" lon="2.39574">
        <ele>1</ele>
        <time>2018-01-06T05:43:32Z</time>
      </trkpt>
      <trkpt lat="50.97011" lon="2.39562">
        <ele>1</ele>
        <time>2018-01-06T05:44:32Z</time>
      </trkpt>
      <trkpt lat="50.97011" lon="2.3956">
        <ele>1</ele>
        <time>2018-01-06T05:45:32Z</time>
      </trkpt>
      <trkpt lat="50.97011" lon="2.39552">
        <ele>1</ele>
        <time>2018-01-06T05:46:32Z</time>
      </trkpt>
      <trkpt lat="50.97011" lon="2.39544">
        <ele>1</ele>
        <time>2018-01-06T05:47:32Z</time>
      </trkpt>
      <trkpt lat="50.97011" lon="2.39543">
        <ele>1</ele>
        <time>2018-01-06T05:48:32Z</time>
      </trkpt>
      <trkpt lat="50.97011" lon="2.39542">
        <ele>1</ele>
        <time>2018-01-06T05:49:32Z</time>
      </trkpt>
      <trkpt lat="50.9701" lon="2.39509">
        <ele>1</ele>
        <time>2018-01-06T05:50:32Z</time>
      </trkpt>
      <trkpt lat="50.97008" lon="2.39429">
        <ele>1.9</ele>
        <time>2018-01-06T05:51:32Z</time>
      </trkpt>
      <trkpt lat="50.97004" lon="2.39209">
        <ele>1</ele>
        <time>2018-01-06T05:52:32Z</time>
      </trkpt>
      <trkpt lat="50.97003" lon="2.39133">
        <ele>1</ele>
        <time>2018-01-06T05:53:32Z</time>
      </trkpt>
      <trkpt lat="50.96999" lon="2.38955">
        <ele>2</ele>
        <time>2018-01-06T05:54:32Z</time>
      </trkpt>
      <trkpt lat="50.96996" lon="2.38783">
        <ele>1.1</ele>
        <time>2018-01-06T05:55:32Z</time>
      </trkpt>
      <trkpt lat="50.96996" lon="2.38774">
        <ele>1.1</ele>
        <time>2018-01-06T05:56:32Z</time>
      </trkpt>
      <trkpt lat="50.96993" lon="2.38676">
        <ele>1.3</ele>
        <time>2018-01-06T05:57:32Z</time>
      </trkpt>
      <trkpt lat="50.96992" lon="2.38522">
        <ele>1</ele>
        <time>2018-01-06T05:58:32Z</time>
      </trkpt>
      <trkpt lat="50.9699" lon="2.38408">
        <ele>1.4</ele>
        <time>2018-01-06T05:59:32Z</time>
      </trkpt>
      <trkpt lat="50.9699" lon="2.38406">
        <ele>1.4</ele>
        <time>2018-01-06T06:00:32Z</time>
      </trkpt>
      <trkpt lat="50.9699" lon="2.38406">
        <ele>1.4</ele>
        <time>2018-01-06T06:01:32Z</time>
      </trkpt>
      <trkpt lat="50.96988" lon="2.38318">
        <ele>1.4</ele>
        <time>2018-01-06T06:02:32Z</time>
      </trkpt>
      <trkpt lat="50.96981" lon="2.37962">
        <ele>1</ele>
        <time>2018-01-06T06:03:32Z</time>
      </trkpt>
      <trkpt lat="50.9698" lon="2.37952">
        <ele>1</ele>
        <time>2018-01-06T06:04:32Z</time>
      </trkpt>
      <trkpt lat="50.96977" lon="2.37731">
        <ele>1.8</ele>
        <time>2018-01-06T06:05:32Z</time>
      </trkpt>
      <trkpt lat="50.96973" lon="2.37529">
        <ele>2</ele>
        <time>2018-01-06T06:06:32Z</time>
      </trkpt>
      <trkpt lat="50.96973" lon="2.37498">
        <ele>2</ele>
        <time>2018-01-06T06:07:32Z</time>
      </trkpt>
      <trkpt lat="50.96974" lon="2.37457">
        <ele>2</ele>
        <time>2018-01-06T06:08:32Z</time>
      </trkpt>
      <trkpt lat="50.96974" lon="2.37449">
        <ele>2</ele>
        <time>2018-01-06T06:09:32Z</time>
      </trkpt>
      <trkpt lat="50.96974" lon="2.37441">
        <ele>2.1</ele>
        <time>2018-01-06T06:10:32Z</time>
      </trkpt>
      <trkpt lat="50.96974" lon="2.3743">
        <ele>2.5</ele>
        <time>2018-01-06T06:11:32Z</time>
      </trkpt>
      <trkpt lat="50.96976" lon="2.37405">
        <ele>2.5</ele>
        <time>2018-01-06T06:12:32Z</time>
      </trkpt>
      <trkpt lat="50.96977" lon="2.37394">
        <ele>2.2</ele>
        <time>2018-01-06T06:13:32Z</time>
      </trkpt>
      <trkpt lat="50.96978" lon="2.37381">
        <ele>2</ele>
        <time>2018-01-06T06:14:32Z</time>
      </trkpt>
      <trkpt lat="50.96979" lon="2.37369">
        <ele>2</ele>
        <time>2018-01-06T06:15:32Z</time>
      </trkpt>
      <trkpt lat="50.9698" lon="2.37352">
        <ele>2</ele>
        <time>2018-01-06T06:16:32Z</time>
      </trkpt>
      <trkpt lat="50.9698" lon="2.3734">
        <ele>2</ele>
        <time>2018-01-06T06:17:32Z</time>
      </trkpt>
      <trkpt lat="50.9698" lon="2.37317">
        <ele>1.8</ele>
        <time>2018-01-06T06:18:32Z</time>
      </trkpt>
      <trkpt lat="50.9698" lon="2.37303">
        <ele>1.7</ele>
        <time>2018-01-06T06:19:32Z</time>
      </trkpt>
      <trkpt lat="50.9698" lon="2.37292">
        <ele>1.9</ele>
        <time>2018-01-06T06:20:32Z</time>
      </trkpt>
      <trkpt lat="50.9698" lon="2.37276">
        <ele>2</ele>
        <time>2018-01-06T06:21:32Z</time>
      </trkpt>
      <trkpt lat="50.96978" lon="2.37257">
        <ele>2</ele>
        <time>2018-01-06T06:22:32Z</time>
      </trkpt>
      <trkpt lat="50.96976" lon="2.37235">
        <ele>2</ele>
        <time>2018-01-06T06:23:32Z</time>
      </trkpt>
      <trkpt lat="50.96974" lon="2.37208">
        <ele>2</ele>
        <time>2018-01-06T06:24:32Z</time>
      </trkpt>
      <trkpt lat="50.96974" lon="2.37207">
        <ele>2</ele>
        <time>2018-01-06T06:25:32Z</time>
      </trkpt>
      <trkpt lat="50.96972" lon="2.37189">
        <ele>2</ele>
        <time>2018-01-06T06:26:32Z</time>
      </trkpt>
      <trkpt lat="50.96968" lon="2.37156">
        <ele>2</ele>
        <time>2018-01-06T06:27:32Z</time>
      </trkpt>
      <trkpt lat="50.96962" lon="2.37114">
        <ele>1.4</ele>
        <time>2018-01-06T06:28:32Z</time>
      </trkpt>
      <trkpt lat="50.96961" lon="2.37099">
        <ele>1.4</ele>
        <time>2018-01-06T06:29:32Z</time>
      </trkpt>
      <trkpt lat="50.96956" lon="2.37063">
        <ele>1.6</ele>
        <time>2018-01-06T06:30:32Z</time>
      </trkpt>
      <trkpt lat="50.96954" lon="2.37044">
        <ele>1.7</ele>
        <time>2018-01-06T06:31:32Z</time>
      </trkpt>
      <trkpt lat="50.96951" lon="2.37011">
        <ele>1.9</ele>
        <time>2018-01-06T06:32:32Z</time>
      </trkpt>
      <trkpt lat="50.96949" lon="2.36999">
        <ele>2</ele>
        <time>2018-01-06T06:33:32Z</time>
      </trkpt>
      <trkpt lat="50.96946" lon="2.36974">
        <ele>2</ele>
        <time>2018-01-06T06:34:32Z</time>
      </trkpt>
      <trkpt lat="50.96943" lon="2.36946">
        <ele>2</ele>
        <time>2018-01-06T06:35:32Z</time>
      </trkpt>
      <trkpt lat="50.9694" lon="2.36931">
        <ele>2</ele>
        <time>2018-01-06T06:36:32Z</time>
      </trkpt>
      <trkpt lat="50.96939" lon="2.36921">
        <ele>2</ele>
        <time>2018-01-06T06:37:32Z</time>
      </trkpt>
      <trkpt lat="50.96935" lon="2.36904">
        <ele>1.7</ele>
        <time>2018-01-06T06:38:32Z</time>
      </trkpt>
      <trkpt lat="50.9693" lon="2.36888">
        <ele>1.5</ele>
        <time>2018-01-06T06:39:32Z</time>
      </trkpt>
      <trkpt lat="50.96924" lon="2.36868">
        <ele>1.7</ele>
        <time>2018-01-06T06:40:32Z</time>
      </trkpt>
      <trkpt lat="50.96921" lon="2.3686">
        <ele>1.9</ele>
        <time>2018-01-06T06:41:32Z</time>
      </trkpt>
      <trkpt lat="50.96918" lon="2.36852">
        <ele>2</ele>
        <time>2018-01-06T06:42:32Z</time>
      </trkpt>
      <trkpt lat="50.96911" lon="2.36838">
        <ele>2</ele>
        <time>2018-01-06T06:43:32Z</time>
      </trkpt>
      <trkpt lat="50.96909" lon="2.36833">
        <ele>2</ele>
        <time>2018-01-06T06:44:32Z</time>
      </trkpt>
      <trkpt lat="50.96904" lon="2.36823">
        <ele>1.8</ele>
        <time>2018-01-06T06:45:32Z</time>
      </trkpt>
      <trkpt lat="50.96885" lon="2.36789">
        <ele>1.5</ele>
        <time>2018-01-06T06:46:32Z</time>
      </trkpt>
      <trkpt lat="50.9688" lon="2.36782">
        <ele>1.4</ele>
        <time>2018-01-06T06:47:32Z</time>
      </trkpt>
      <trkpt lat="50.96865" lon="2.36758">
        <ele>2</ele>
        <time>2018-01-06T06:48:32Z</time>
      </trkpt>
      <trkpt lat="50.9686" lon="2.3675">
        <ele>2</ele>
        <time>2018-01-06T06:49:32Z</time>
      </trkpt>
      <trkpt lat="50.96857" lon="2.36745">
        <ele>2</ele>
        <time>2018-01-06T06:50:32Z</time>
      </trkpt>
      <trkpt lat="50.96838" lon="2.36708">
        <ele>3.2</ele>
        <time>2018-01-06T06:51:32Z</time>
      </trkpt>
      <trkpt lat="50.96826" lon="2.36682">
        <ele>1</ele>
        <time>2018-01-06T06:52:32Z</time>
      </trkpt>
      <trkpt lat="50.96823" lon="2.36675">
        <ele>1</ele>
        <time>2018-01-06T06:53:32Z</time>
      </trkpt>
      <trkpt lat="50.96796" lon="2.36608">
        <ele>1</ele>
        <time>2018-01-06T06:54:32Z</time>
      </trkpt>
      <trkpt lat="50.96796" lon="2.36607">
        <ele>1</ele>
        <time>2018-01-06T06:55:32Z</time>
      </trkpt>
      <trkpt lat="50.9679" lon="2.36591">
        <ele>1</ele>
        <time>2018-01-06T06:56:32Z</time>
      </trkpt>
      <trkpt lat="50.9679" lon="2.3659">
        <ele>1</ele>
        <time>2018-01-06T06:57:32Z</time>
      </trkpt>
      <trkpt lat="50.96777" lon="2.36553">
        <ele>2.8</ele>
        <time>2018-01-06T06:58:32Z</time>
      </trkpt>
      <trkpt lat="50.9677" lon="2.36529">
        <ele>1.9</ele>
        <time>2018-01-06T06:59:32Z</time>
      </trkpt>
      <trkpt lat="50.96765" lon="2.36512">
        <ele>2.4</ele>
        <time>2018-01-06T07:00:32Z</time>
      </trkpt>
      <trkpt lat="50.96755" lon="2.36476">
        <ele>2.8</ele>
        <time>2018-01-06T07:01:32Z</time>
      </trkpt>
      <trkpt lat="50.96736" lon="2.36398">
        <ele>1.7</ele>
        <time>2018-01-06T07:02:32Z</time>
      </trkpt>
      <trkpt lat="50.9673" lon="2.3636">
        <ele>1</ele>
        <time>2018-01-06T07:03:32Z</time>
      </trkpt>
      <trkpt lat="50.96724" lon="2.36321">
        <ele>1.5</ele>
        <time>2018-01-06T07:04:32Z</time>
      </trkpt>
      <trkpt lat="50.96718" lon="2.36271">
        <ele>1.7</ele>
        <time>2018-01-06T07:05:32Z</time>
      </trkpt>
      <trkpt lat="50.96718" lon="2.36268">
        <ele>1.6</ele>
        <time>2018-01-06T07:06:32Z</time>
      </trkpt>
      <trkpt lat="50.96718" lon="2.36265">
        <ele>1.5</ele>
        <time>2018-01-06T07:07:32Z</time>
      </trkpt>
      <trkpt lat="50.96714" lon="2.36218">
        <ele>1</ele>
        <time>2018-01-06T07:08:32Z</time>
      </trkpt>
      <trkpt lat="50.96708" lon="2.36149">
        <ele>1</ele>
        <time>2018-01-06T07:09:32Z</time>
      </trkpt>
      <trkpt lat="50.96708" lon="2.36135">
        <ele>1</ele>
        <time>2018-01-06T07:10:32Z</time>
      </trkpt>
      <trkpt lat="50.96704" lon="2.36094">
        <ele>1</ele>
        <time>2018-01-06T07:11:32Z</time>
      </trkpt>
      <trkpt lat="50.96701" lon="2.36056">
        <ele>1.8</ele>
        <time>2018-01-06T07:12:32Z</time>
      </trkpt>
      <trkpt lat="50.96697" lon="2.35989">
        <ele>2</ele>
        <time>2018-01-06T07:13:32Z</time>
      </trkpt>
      <trkpt lat="50.96692" lon="2.3592">
        <ele>1.9</ele>
        <time>2018-01-06T07:14:32Z</time>
      </trkpt>
      <trkpt lat="50.96687" lon="2.35859">
        <ele>1</ele>
        <time>2018-01-06T07:15:32Z</time>
      </trkpt>
      <trkpt lat="50.96685" lon="2.35831">
        <ele>1</ele>
        <time>2018-01-06T07:16:32Z</time>
      </trkpt>
      <trkpt lat="50.96684" lon="2.35819">
        <ele>1</ele>
        <time>2018-01-06T07:17:32Z</time>
      </trkpt>
      <trkpt lat="50.96681" lon="2.35781">
        <ele>1.4</ele>
        <time>2018-01-06T07:18:32Z</time>
      </trkpt>
      <trkpt lat="50.96678" lon="2.35743">
        <ele>1.6</ele>
        <time>2018-01-06T07:19:32Z</time>
      </trkpt>
      <trkpt lat="50.96674" lon="2.35707">
        <ele>1.9</ele>
        <time>2018-01-06T07:20:32Z</time>
      </trkpt>
      <trkpt lat="50.96666" lon="2.35648">
        <ele>2</ele>
        <time>2018-01-06T07:21:32Z</time>
      </trkpt>
      <trkpt lat="50.96657" lon="2.35589">
        <ele>1.5</ele>
        <time>2018-01-06T07:22:32Z</time>
      </trkpt>
      <trkpt lat="50.96645" lon="2.35517">
        <ele>2</ele>
        <time>2018-01-06T07:23:32Z</time>
      </trkpt>
      <trkpt lat="50.96632" lon="2.35431">
        <ele>1.6</ele>
        <time>2018-01-06T07:24:32Z</time>
      </trkpt>
      <trkpt lat="50.9661" lon="2.35292">
        <ele>2</ele>
        <time>2018-01-06T07:25:32Z</time>
      </trkpt>
      <trkpt lat="50.96606" lon="2.35267">
        <ele>1.7</ele>
        <time>2018-01-06T07:26:32Z</time>
      </trkpt>
      <trkpt lat="50.96605" lon="2.35262">
        <ele>1.6</ele>
        <time>2018-01-06T07:27:32Z</time>
      </trkpt>
      <trkpt lat="50.96603" lon="2.35257">
        <ele>1.5</ele>
        <time>2018-01-06T07:28:32Z</time>
      </trkpt>
      <trkpt lat="50.96601" lon="2.35252">
        <ele>1.4</ele>
        <time>2018-01-06T07:29:32Z</time>
      </trkpt>
      <trkpt lat="50.96586" lon="2.3522">
        <ele>1.9</ele>
        <time>2018-01-06T07:30:32Z</time>
      </trkpt>
      <trkpt lat="50.96582" lon="2.35209">
        <ele>2</ele>
        <time>2018-01-06T07:31:32Z</time>
      </trkpt>
      <trkpt lat="50.96579" lon="2.352">
        <ele>2.1</ele>
        <time>2018-01-06T07:32:32Z</time>
      </trkpt>
      <trkpt lat="50.96578" lon="2.35191">
        <ele>2.2</ele>
        <time>2018-01-06T07:33:32Z</time>
      </trkpt>
      <trkpt lat="50.96573" lon="2.35158">
        <ele>2.1</ele>
        <time>2018-01-06T07:34:32Z</time>
      </trkpt>
      <trkpt lat="50.96567" lon="2.35119">
        <ele>1</ele>
        <time>2018-01-06T07:35:32Z</time>
      </trkpt>
      <trkpt lat="50.96555" lon="2.35042">
        <ele>1</ele>
        <time>2018-01-06T07:36:32Z</time>
      </trkpt>
      <trkpt lat="50.96553" lon="2.35027">
        <ele>1</ele>
        <time>2018-01-06T07:37:32Z</time>
      </trkpt>
      <trkpt lat="50.96553" lon="2.35019">
        <ele>1</ele>
        <time>2018-01-06T07:38:32Z</time>
      </trkpt>
      <trkpt lat="50.96556" lon="2.35001">
        <ele>1</ele>
        <time>2018-01-06T07:39:32Z</time>
      </trkpt>
      <trkpt lat="50.9656" lon="2.34982">
        <ele>1</ele>
        <time>2018-01-06T07:40:32Z</time>
      </trkpt>
      <trkpt lat="50.96561" lon="2.34972">
        <ele>1</ele>
        <time>2018-01-06T07:41:32Z</time>
      </trkpt>
      <trkpt lat="50.96562" lon="2.34964">
        <ele>1</ele>
        <time>2018-01-06T07:42:32Z</time>
      </trkpt>
      <trkpt lat="50.9656" lon="2.34948">
        <ele>2</ele>
        <time>2018-01-06T07:43:32Z</time>
      </trkpt>
      <trkpt lat="50.96556" lon="2.34927">
        <ele>2</ele>
        <time>2018-01-06T07:44:32Z</time>
      </trkpt>
      <trkpt lat="50.96552" lon="2.34901">
        <ele>2</ele>
        <time>2018-01-06T07:45:32Z</time>
      </trkpt>
      <trkpt lat="50.96545" lon="2.34853">
        <ele>2</ele>
        <time>2018-01-06T07:46:32Z</time>
      </trkpt>
      <trkpt lat="50.96529" lon="2.34746">
        <ele>2</ele>
        <time>2018-01-06T07:47:32Z</time>
      </trkpt>
      <trkpt lat="50.96522" lon="2.34701">
        <ele>2</ele>
        <time>2018-01-06T07:48:32Z</time>
      </trkpt>
      <trkpt lat="50.96519" lon="2.34679">
        <ele>2</ele>
        <time>2018-01-06T07:49:32Z</time>
      </trkpt>
      <trkpt lat="50.96513" lon="2.34646">
        <ele>2</ele>
        <time>2018-01-06T07:50:32Z</time>
      </trkpt>
      <trkpt lat="50.96508" lon="2.34616">
        <ele>1</ele>
        <time>2018-01-06T07:51:32Z</time>
      </trkpt>
      <trkpt lat="50.96508" lon="2.34611">
        <ele>1</ele>
        <time>2018-01-06T07:52:32Z</time>
      </trkpt>
      <trkpt lat="50.96494" lon="2.3453">
        <ele>1</ele>
        <time>2018-01-06T07:53:32Z</time>
      </trkpt>
      <trkpt lat="50.96475" lon="2.34427">
        <ele>2</ele>
        <time>2018-01-06T07:54:32Z</time>
      </trkpt>
      <trkpt lat="50.96472" lon="2.34414">
        <ele>2</ele>
        <time>2018-01-06T07:55:32Z</time>
      </trkpt>
      <trkpt lat="50.96461" lon="2.34362">
        <ele>2</ele>
        <time>2018-01-06T07:56:32Z</time>
      </trkpt>
      <trkpt lat="50.96446" lon="2.34291">
        <ele>2</ele>
        <time>2018-01-06T07:57:32Z</time>
      </trkpt>
      <trkpt lat="50.96445" lon="2.34282">
        <ele>2</ele>
        <time>2018-01-06T07:58:32Z</time>
      </trkpt>
      <trkpt lat="50.96435" lon="2.34242">
        <ele>2</ele>
        <time>2018-01-06T07:59:32Z</time>
      </trkpt>
      <trkpt lat="50.96434" lon="2.34234">
        <ele>2</ele>
        <time>2018-01-06T08:00:32Z</time>
      </trkpt>
      <trkpt lat="50.96427" lon="2.342">
        <ele>2</ele>
        <time>2018-01-06T08:01:32Z</time>
      </trkpt>
      <trkpt lat="50.96421" lon="2.34172">
        <ele>2</ele>
        <time>2018-01-06T08:02:32Z</time>
      </trkpt>
      <trkpt lat="50.96414" lon="2.34142">
        <ele>2</ele>
        <time>2018-01-06T08:03:32Z</time>
      </trkpt>
      <trkpt lat="50.96408" lon="2.3412">
        <ele>2</ele>
        <time>2018-01-06T08:04:32Z</time>
      </trkpt>
      <trkpt lat="50.96405" lon="2.34106">
        <ele>2</ele>
        <time>2018-01-06T08:05:32Z</time>
      </trkpt>
      <trkpt lat="50.96393" lon="2.3406">
        <ele>2</ele>
        <time>2018-01-06T08:06:32Z</time>
      </trkpt>
      <trkpt lat="50.96391" lon="2.34056">
        <ele>2</ele>
        <time>2018-01-06T08:07:32Z</time>
      </trkpt>
      <trkpt lat="50.96385" lon="2.34039">
        <ele>2</ele>
        <time>2018-01-06T08:08:32Z</time>
      </trkpt>
      <trkpt lat="50.96382" lon="2.34034">
        <ele>2</ele>
        <time>2018-01-06T08:09:32Z</time>
      </trkpt>
      <trkpt lat="50.96376" lon="2.34021">
        <ele>2</ele>
        <time>2018-01-06T08:10:32Z</time>
      </trkpt>
      <trkpt lat="50.96372" lon="2.34015">
        <ele>1</ele>
        <time>2018-01-06T08:11:32Z</time>
      </trkpt>
      <trkpt lat="50.96367" lon="2.34005">
        <ele>1</ele>
        <time>2018-01-06T08:12:32Z</time>
      </trkpt>
      <trkpt lat="50.96365" lon="2.34">
        <ele>1</ele>
        <time>2018-01-06T08:13:32Z</time>
      </trkpt>
      <trkpt lat="50.9636" lon="2.33984">
        <ele>1</ele>
        <time>2018-01-06T08:14:32Z</time>
      </trkpt>
      <trkpt lat="50.96358" lon="2.33979">
        <ele>1</ele>
        <time>2018-01-06T08:15:32Z</time>
      </trkpt>
      <trkpt lat="50.96357" lon="2.3397">
        <ele>1</ele>
        <time>2018-01-06T08:16:32Z</time>
      </trkpt>
      <trkpt lat="50.96356" lon="2.33966">
        <ele>1</ele>
        <time>2018-01-06T08:17:32Z</time>
      </trkpt>
      <trkpt lat="50.96356" lon="2.33938">
        <ele>1</ele>
        <time>2018-01-06T08:18:32Z</time>
      </trkpt>
      <trkpt lat="50.96356" lon="2.33934">
        <ele>1</ele>
        <time>2018-01-06T08:19:32Z</time>
      </trkpt>
      <trkpt lat="50.96353" lon="2.33919">
        <ele>1</ele>
        <time>2018-01-06T08:20:32Z</time>
      </trkpt>
      <trkpt lat="50.96348" lon="2.33893">
        <ele>1</ele>
        <time>2018-01-06T08:21:32Z</time>
      </trkpt>
      <trkpt lat="50.9634" lon="2.3386">
        <ele>1</ele>
        <time>2018-01-06T08:22:32Z</time>
      </trkpt>
      <trkpt lat="50.96339" lon="2.33854">
        <ele>1</ele>
        <time>2018-01-06T08:23:32Z</time>
      </trkpt>
      <trkpt lat="50.96339" lon="2.33854">
        <ele>1</ele>
        <time>2018-01-06T08:24:32Z</time>
      </trkpt>
      <trkpt lat="50.9633" lon="2.33815">
        <ele>2</ele>
        <time>2018-01-06T08:25:32Z</time>
      </trkpt>
      <trkpt lat="50.96325" lon="2.33795">
        <ele>1.7</ele>
        <time>2018-01-06T08:26:32Z</time>
      </trkpt>
      <trkpt lat="50.96308" lon="2.33734">
        <ele>2</ele>
        <time>2018-01-06T08:27:32Z</time>
      </trkpt>
      <trkpt lat="50.96301" lon="2.33715">
        <ele>1.8</ele>
        <time>2018-01-06T08:28:32Z</time>
      </trkpt>
      <trkpt lat="50.96264" lon="2.33605">
        <ele>1.6</ele>
        <time>2018-01-06T08:29:32Z</time>
      </trkpt>
      <trkpt lat="50.96258" lon="2.33589">
        <ele>2.3</ele>
        <time>2018-01-06T08:30:32Z</time>
      </trkpt>
      <trkpt lat="50.96231" lon="2.33509">
        <ele>2.1</ele>
        <time>2018-01-06T08:31:32Z</time>
      </trkpt>
      <trkpt lat="50.96208" lon="2.33443">
        <ele>1.5</ele>
        <time>2018-01-06T08:32:32Z</time>
      </trkpt>
      <trkpt lat="50.96204" lon="2.33435">
        <ele>1.7</ele>
        <time>2018-01-06T08:33:32Z</time>
      </trkpt>
      <trkpt lat="50.96189" lon="2.33391">
        <ele>2</ele>
        <time>2018-01-06T08:34:32Z</time>
      </trkpt>
      <trkpt lat="50.96186" lon="2.33384">
        <ele>1.9</ele>
        <time>2018-01-06T08:35:32Z</time>
      </trkpt>
      <trkpt lat="50.96169" lon="2.33347">
        <ele>2</ele>
        <time>2018-01-06T08:36:32Z</time>
      </trkpt>
      <trkpt lat="50.96165" lon="2.3334">
        <ele>2</ele>
        <time>2018-01-06T08:37:32Z</time>
      </trkpt>
      <trkpt lat="50.96146" lon="2.33306">
        <ele>2.5</ele>
        <time>2018-01-06T08:38:32Z</time>
      </trkpt>
      <trkpt lat="50.96116" lon="2.33256">
        <ele>1</ele>
        <time>2018-01-06T08:39:32Z</time>
      </trkpt>
      <trkpt lat="50.9611" lon="2.33245">
        <ele>1</ele>
        <time>2018-01-06T08:40:32Z</time>
      </trkpt>
      <trkpt lat="50.96064" lon="2.33161">
        <ele>1</ele>
        <time>2018-01-06T08:41:32Z</time>
      </trkpt>
      <trkpt lat="50.96038" lon="2.33098">
        <ele>1</ele>
        <time>2018-01-06T08:42:32Z</time>
      </trkpt>
      <trkpt lat="50.96024" lon="2.33048">
        <ele>1.8</ele>
        <time>2018-01-06T08:43:32Z</time>
      </trkpt>
      <trkpt lat="50.96" lon="2.32953">
        <ele>2.3</ele>
        <time>2018-01-06T08:44:32Z</time>
      </trkpt>
      <trkpt lat="50.95974" lon="2.32835">
        <ele>2</ele>
        <time>2018-01-06T08:45:32Z</time>
      </trkpt>
      <trkpt lat="50.95959" lon="2.32776">
        <ele>1</ele>
        <time>2018-01-06T08:46:32Z</time>
      </trkpt>
      <trkpt lat="50.95942" lon="2.32685">
        <ele>1</ele>
        <time>2018-01-06T08:47:32Z</time>
      </trkpt>
      <trkpt lat="50.95934" lon="2.32627">
        <ele>1</ele>
        <time>2018-01-06T08:48:32Z</time>
      </trkpt>
      <trkpt lat="50.95925" lon="2.32424">
        <ele>1</ele>
        <time>2018-01-06T08:49:32Z</time>
      </trkpt>
      <trkpt lat="50.95923" lon="2.32407">
        <ele>1</ele>
        <time>2018-01-06T08:50:32Z</time>
      </trkpt>
      <trkpt lat="50.9592" lon="2.32385">
        <ele>1</ele>
        <time>2018-01-06T08:51:32Z</time>
      </trkpt>
      <trkpt lat="50.95912" lon="2.3235">
        <ele>1</ele>
        <time>2018-01-06T08:52:32Z</time>
      </trkpt>
      <trkpt lat="50.95899" lon="2.32313">
        <ele>1</ele>
        <time>2018-01-06T08:53:32Z</time>
      </trkpt>
      <trkpt lat="50.95883" lon="2.32278">
        <ele>1</ele>
        <time>2018-01-06T08:54:32Z</time>
      </trkpt>
      <trkpt lat="50.95878" lon="2.3227">
        <ele>1</ele>
        <time>2018-01-06T08:55:32Z</time>
      </trkpt>
      <trkpt lat="50.95865" lon="2.32251">
        <ele>2</ele>
        <time>2018-01-06T08:56:32Z</time>
      </trkpt>
      <trkpt lat="50.95841" lon="2.32224">
        <ele>1.7</ele>
        <time>2018-01-06T08:57:32Z</time>
      </trkpt>
      <trkpt lat="50.95826" lon="2.32209">
        <ele>2</ele>
        <time>2018-01-06T08:58:32Z</time>
      </trkpt>
      <trkpt lat="50.95772" lon="2.32166">
        <ele>2</ele>
        <time>2018-01-06T08:59:32Z</time>
      </trkpt>
      <trkpt lat="50.95711" lon="2.32118">
        <ele>1</ele>
        <time>2018-01-06T09:00:32Z</time>
      </trkpt>
      <trkpt lat="50.95676" lon="2.32087">
        <ele>1</ele>
        <time>2018-01-06T09:01:32Z</time>
      </trkpt>
      <trkpt lat="50.95605" lon="2.32027">
        <ele>1</ele>
        <time>2018-01-06T09:02:32Z</time>
      </trkpt>
      <trkpt lat="50.95557" lon="2.31989">
        <ele>2.5</ele>
        <time>2018-01-06T09:03:32Z</time>
      </trkpt>
      <trkpt lat="50.95353" lon="2.31798">
        <ele>1.8</ele>
        <time>2018-01-06T09:04:32Z</time>
      </trkpt>
      <trkpt lat="50.95271" lon="2.31722">
        <ele>1.5</ele>
        <time>2018-01-06T09:05:32Z</time>
      </trkpt>
      <trkpt lat="50.95254" lon="2.31706">
        <ele>1</ele>
        <time>2018-01-06T09:06:32Z</time>
      </trkpt>
      <trkpt lat="50.95235" lon="2.31689">
        <ele>1</ele>
        <time>2018-01-06T09:07:32Z</time>
      </trkpt>
      <trkpt lat="50.9509" lon="2.31553">
        <ele>1.7</ele>
        <time>2018-01-06T09:08:32Z</time>
      </trkpt>
      <trkpt lat="50.94999" lon="2.31481">
        <ele>1.4</ele>
        <time>2018-01-06T09:09:32Z</time>
      </trkpt>
      <trkpt lat="50.94979" lon="2.31463">
        <ele>2.3</ele>
        <time>2018-01-06T09:10:32Z</time>
      </trkpt>
      <trkpt lat="50.94943" lon="2.31425">
        <ele>2.3</ele>
        <time>2018-01-06T09:11:32Z</time>
      </trkpt>
      <trkpt lat="50.9491" lon="2.31386">
        <ele>2.1</ele>
        <time>2018-01-06T09:12:32Z</time>
      </trkpt>
      <trkpt lat="50.94884" lon="2.31362">
        <ele>2.2</ele>
        <time>2018-01-06T09:13:32Z</time>
      </trkpt>
      <trkpt lat="50.94873" lon="2.31352">
        <ele>1</ele>
        <time>2018-01-06T09:14:32Z</time>
      </trkpt>
      <trkpt lat="50.94828" lon="2.31314">
        <ele>1</ele>
        <time>2018-01-06T09:15:32Z</time>
      </trkpt>
      <trkpt lat="50.94769" lon="2.31263">
        <ele>1</ele>
        <time>2018-01-06T09:16:32Z</time>
      </trkpt>
      <trkpt lat="50.94717" lon="2.31218">
        <ele>1</ele>
        <time>2018-01-06T09:17:32Z</time>
      </trkpt>
      <trkpt lat="50.9463" lon="2.31144">
        <ele>1</ele>
        <time>2018-01-06T09:18:32Z</time>
      </trkpt>
      <trkpt lat="50.94626" lon="2.3114">
        <ele>1</ele>
        <time>2018-01-06T09:19:32Z</time>
      </trkpt>
      <trkpt lat="50.94619" lon="2.31133">
        <ele>1</ele>
        <time>2018-01-06T09:20:32Z</time>
      </trkpt>
      <trkpt lat="50.94612" lon="2.31128">
        <ele>1</ele>
        <time>2018-01-06T09:21:32Z</time>
      </trkpt>
      <trkpt lat="50.94608" lon="2.31125">
        <ele>1</ele>
        <time>2018-01-06T09:22:32Z</time>
      </trkpt>
      <trkpt lat="50.94546" lon="2.31071">
        <ele>1</ele>
        <time>2018-01-06T09:23:32Z</time>
      </trkpt>
      <trkpt lat="50.94416" lon="2.30959">
        <ele>2.1</ele>
        <time>2018-01-06T09:24:32Z</time>
      </trkpt>
      <trkpt lat="50.94265" lon="2.30829">
        <ele>1</ele>
        <time>2018-01-06T09:25:32Z</time>
      </trkpt>
      <trkpt lat="50.94227" lon="2.30796">
        <ele>1</ele>
        <time>2018-01-06T09:26:32Z</time>
      </trkpt>
      <trkpt lat="50.94176" lon="2.30749">
        <ele>2</ele>
        <time>2018-01-06T09:27:32Z</time>
      </trkpt>
      <trkpt lat="50.94164" lon="2.30735">
        <ele>2</ele>
        <time>2018-01-06T09:28:32Z</time>
      </trkpt>
      <trkpt lat="50.94142" lon="2.30711">
        <ele>2</ele>
        <time>2018-01-06T09:29:32Z</time>
      </trkpt>
      <trkpt lat="50.9413" lon="2.30698">
        <ele>2</ele>
        <time>2018-01-06T09:30:32Z</time>
      </trkpt>
      <trkpt lat="50.9409" lon="2.30649">
        <ele>1</ele>
        <time>2018-01-06T09:31:32Z</time>
      </trkpt>
      <trkpt lat="50.94081" lon="2.30638">
        <ele>1</ele>
        <time>2018-01-06T09:32:32Z</time>
      </trkpt>
      <trkpt lat="50.93993" lon="2.30529">
        <ele>2.3</ele>
        <time>2018-01-06T09:33:32Z</time>
      </trkpt>
      <trkpt lat="50.93981" lon="2.30512">
        <ele>2.3</ele>
        <time>2018-01-06T09:34:32Z</time>
      </trkpt>
      <trkpt lat="50.93961" lon="2.30488">
        <ele>1.7</ele>
        <time>2018-01-06T09:35:32Z</time>
      </trkpt>
      <trkpt lat="50.93952" lon="2.30477">
        <ele>1.8</ele>
        <time>2018-01-06T09:36:32Z</time>
      </trkpt>
      <trkpt lat="50.93917" lon="2.30435">
        <ele>1.7</ele>
        <time>2018-01-06T09:37:32Z</time>
      </trkpt>
      <trkpt lat="50.93894" lon="2.30405">
        <ele>1.6</ele>
        <time>2018-01-06T09:38:32Z</time>
      </trkpt>
      <trkpt lat="50.93892" lon="2.30402">
        <ele>1.5</ele>
        <time>2018-01-06T09:39:32Z</time>
      </trkpt>
      <trkpt lat="50.9389" lon="2.30399">
        <ele>1.4</ele>
        <time>2018-01-06T09:40:32Z</time>
      </trkpt>
      <trkpt lat="50.93885" lon="2.30393">
        <ele>1.3</ele>
        <time>2018-01-06T09:41:32Z</time>
      </trkpt>
      <trkpt lat="50.93875" lon="2.30381">
        <ele>1.5</ele>
        <time>2018-01-06T09:42:32Z</time>
      </trkpt>
      <trkpt lat="50.93852" lon="2.30352">
        <ele>1.6</ele>
        <time>2018-01-06T09:43:32Z</time>
      </trkpt>
      <trkpt lat="50.93782" lon="2.30266">
        <ele>1.5</ele>
        <time>2018-01-06T09:44:32Z</time>
      </trkpt>
      <trkpt lat="50.93765" lon="2.30244">
        <ele>1</ele>
        <time>2018-01-06T09:45:32Z</time>
      </trkpt>
      <trkpt lat="50.93757" lon="2.30234">
        <ele>1</ele>
        <time>2018-01-06T09:46:32Z</time>
      </trkpt>
      <trkpt lat="50.93735" lon="2.30207">
        <ele>1.3</ele>
        <time>2018-01-06T09:47:32Z</time>
      </trkpt>
      <trkpt lat="50.93718" lon="2.30186">
        <ele>1.6</ele>
        <time>2018-01-06T09:48:32Z</time>
      </trkpt>
      <trkpt lat="50.93716" lon="2.30183">
        <ele>1.5</ele>
        <time>2018-01-06T09:49:32Z</time>
      </trkpt>
      <trkpt lat="50.93713" lon="2.30179">
        <ele>1.3</ele>
        <time>2018-01-06T09:50:32Z</time>
      </trkpt>
      <trkpt lat="50.937" lon="2.30163">
        <ele>1</ele>
        <time>2018-01-06T09:51:32Z</time>
      </trkpt>
      <trkpt lat="50.93689" lon="2.30146">
        <ele>1</ele>
        <time>2018-01-06T09:52:32Z</time>
      </trkpt>
      <trkpt lat="50.93678" lon="2.30127">
        <ele>1.3</ele>
        <time>2018-01-06T09:53:32Z</time>
      </trkpt>
      <trkpt lat="50.93672" lon="2.30116">
        <ele>1.7</ele>
        <time>2018-01-06T09:54:32Z</time>
      </trkpt>
      <trkpt lat="50.93668" lon="2.30106">
        <ele>1.8</ele>
        <time>2018-01-06T09:55:32Z</time>
      </trkpt>
      <trkpt lat="50.93664" lon="2.30097">
        <ele>1.4</ele>
        <time>2018-01-06T09:56:32Z</time>
      </trkpt>
      <trkpt lat="50.93639" lon="2.3004">
        <ele>1</ele>
        <time>2018-01-06T09:57:32Z</time>
      </trkpt>
      <trkpt lat="50.93637" lon="2.30036">
        <ele>1</ele>
        <time>2018-01-06T09:58:32Z</time>
      </trkpt>
      <trkpt lat="50.93629" lon="2.30017">
        <ele>1</ele>
        <time>2018-01-06T09:59:32Z</time>
      </trkpt>
      <trkpt lat="50.93618" lon="2.29993">
        <ele>1</ele>
        <time>2018-01-06T10:00:32Z</time>
      </trkpt>
      <trkpt lat="50.93608" lon="2.29973">
        <ele>1</ele>
        <time>2018-01-06T10:01:32Z</time>
      </trkpt>
      <trkpt lat="50.93597" lon="2.29952">
        <ele>1</ele>
        <time>2018-01-06T10:02:32Z</time>
      </trkpt>
      <trkpt lat="50.93592" lon="2.29945">
        <ele>1</ele>
        <time>2018-01-06T10:03:32Z</time>
      </trkpt>
      <trkpt lat="50.93592" lon="2.29944">
        <ele>1</ele>
        <time>2018-01-06T10:04:32Z</time>
      </trkpt>
      <trkpt lat="50.93582" lon="2.29928">
        <ele>1.5</ele>
        <time>2018-01-06T10:05:32Z</time>
      </trkpt>
      <trkpt lat="50.93574" lon="2.29917">
        <ele>2</ele>
        <time>2018-01-06T10:06:32Z</time>
      </trkpt>
      <trkpt lat="50.93559" lon="2.29898">
        <ele>2.5</ele>
        <time>2018-01-06T10:07:32Z</time>
      </trkpt>
      <trkpt lat="50.93541" lon="2.29875">
        <ele>2.8</ele>
        <time>2018-01-06T10:08:32Z</time>
      </trkpt>
      <trkpt lat="50.93514" lon="2.29842">
        <ele>2</ele>
        <time>2018-01-06T10:09:32Z</time>
      </trkpt>
      <trkpt lat="50.93487" lon="2.29808">
        <ele>1.5</ele>
        <time>2018-01-06T10:10:32Z</time>
      </trkpt>
      <trkpt lat="50.93476" lon="2.29795">
        <ele>1.5</ele>
        <time>2018-01-06T10:11:32Z</time>
      </trkpt>
      <trkpt lat="50.9346" lon="2.29775">
        <ele>1.4</ele>
        <time>2018-01-06T10:12:32Z</time>
      </trkpt>
      <trkpt lat="50.93422" lon="2.29727">
        <ele>1</ele>
        <time>2018-01-06T10:13:32Z</time>
      </trkpt>
      <trkpt lat="50.93415" lon="2.29719">
        <ele>1</ele>
        <time>2018-01-06T10:14:32Z</time>
      </trkpt>
      <trkpt lat="50.93412" lon="2.29715">
        <ele>1</ele>
        <time>2018-01-06T10:15:32Z</time>
      </trkpt>
      <trkpt lat="50.93397" lon="2.29697">
        <ele>1</ele>
        <time>2018-01-06T10:16:32Z</time>
      </trkpt>
      <trkpt lat="50.93366" lon="2.2966">
        <ele>1</ele>
        <time>2018-01-06T10:17:32Z</time>
      </trkpt>
      <trkpt lat="50.93342" lon="2.2963">
        <ele>1</ele>
        <time>2018-01-06T10:18:32Z</time>
      </trkpt>
      <trkpt lat="50.93322" lon="2.29604">
        <ele>1</ele>
        <time>2018-01-06T10:19:32Z</time>
      </trkpt>
      <trkpt lat="50.93304" lon="2.2958">
        <ele>1</ele>
        <time>2018-01-06T10:20:32Z</time>
      </trkpt>
      <trkpt lat="50.93298" lon="2.29571">
        <ele>1</ele>
        <time>2018-01-06T10:21:32Z</time>
      </trkpt>
      <trkpt lat="50.93285" lon="2.29551">
        <ele>1</ele>
        <time>2018-01-06T10:22:32Z</time>
      </trkpt>
      <trkpt lat="50.93265" lon="2.29519">
        <ele>1</ele>
        <time>2018-01-06T10:23:32Z</time>
      </trkpt>
      <trkpt lat="50.93242" lon="2.29479">
        <ele>1</ele>
        <time>2018-01-06T10:24:32Z</time>
      </trkpt>
      <trkpt lat="50.932" lon="2.29408">
        <ele>1</ele>
        <time>2018-01-06T10:25:32Z</time>
      </trkpt>
      <trkpt lat="50.93179" lon="2.29372">
        <ele>1</ele>
        <time>2018-01-06T10:26:32Z</time>
      </trkpt>
      <trkpt lat="50.93166" lon="2.29353">
        <ele>1</ele>
        <time>2018-01-06T10:27:32Z</time>
      </trkpt>
      <trkpt lat="50.93153" lon="2.29334">
        <ele>1</ele>
        <time>2018-01-06T10:28:32Z</time>
      </trkpt>
      <trkpt lat="50.93144" lon="2.29324">
        <ele>1</ele>
        <time>2018-01-06T10:29:32Z</time>
      </trkpt>
      <trkpt lat="50.93132" lon="2.29308">
        <ele>1</ele>
        <time>2018-01-06T10:30:32Z</time>
      </trkpt>
      <trkpt lat="50.93124" lon="2.29298">
        <ele>1</ele>
        <time>2018-01-06T10:31:32Z</time>
      </trkpt>
      <trkpt lat="50.93111" lon="2.29281">
        <ele>1</ele>
        <time>2018-01-06T10:32:32Z</time>
      </trkpt>
      <trkpt lat="50.9309" lon="2.29256">
        <ele>1</ele>
        <time>2018-01-06T10:33:32Z</time>
      </trkpt>
      <trkpt lat="50.93089" lon="2.29255">
        <ele>1</ele>
        <time>2018-01-06T10:34:32Z</time>
      </trkpt>
      <trkpt lat="50.93075" lon="2.29239">
        <ele>1</ele>
        <time>2018-01-06T10:35:32Z</time>
      </trkpt>
      <trkpt lat="50.93052" lon="2.29211">
        <ele>1</ele>
        <time>2018-01-06T10:36:32Z</time>
      </trkpt>
      <trkpt lat="50.93035" lon="2.2919">
        <ele>1.7</ele>
        <time>2018-01-06T10:37:32Z</time>
      </trkpt>
      <trkpt lat="50.9302" lon="2.29172">
        <ele>1.4</ele>
        <time>2018-01-06T10:38:32Z</time>
      </trkpt>
      <trkpt lat="50.93007" lon="2.29154">
        <ele>1.5</ele>
        <time>2018-01-06T10:39:32Z</time>
      </trkpt>
      <trkpt lat="50.93" lon="2.29143">
        <ele>1.1</ele>
        <time>2018-01-06T10:40:32Z</time>
      </trkpt>
      <trkpt lat="50.92993" lon="2.29132">
        <ele>1</ele>
        <time>2018-01-06T10:41:32Z</time>
      </trkpt>
      <trkpt lat="50.92987" lon="2.29121">
        <ele>1</ele>
        <time>2018-01-06T10:42:32Z</time>
      </trkpt>
      <trkpt lat="50.92981" lon="2.29108">
        <ele>1</ele>
        <time>2018-01-06T10:43:32Z</time>
      </trkpt>
      <trkpt lat="50.92974" lon="2.29094">
        <ele>1</ele>
        <time>2018-01-06T10:44:32Z</time>
      </trkpt>
      <trkpt lat="50.92969" lon="2.29081">
        <ele>1</ele>
        <time>2018-01-06T10:45:32Z</time>
      </trkpt>
      <trkpt lat="50.92964" lon="2.29067">
        <ele>1</ele>
        <time>2018-01-06T10:46:32Z</time>
      </trkpt>
      <trkpt lat="50.92952" lon="2.29029">
        <ele>1.7</ele>
        <time>2018-01-06T10:47:32Z</time>
      </trkpt>
      <trkpt lat="50.92939" lon="2.2899">
        <ele>1.5</ele>
        <time>2018-01-06T10:48:32Z</time>
      </trkpt>
      <trkpt lat="50.92922" lon="2.28938">
        <ele>1.9</ele>
        <time>2018-01-06T10:49:32Z</time>
      </trkpt>
      <trkpt lat="50.92914" lon="2.28913">
        <ele>1</ele>
        <time>2018-01-06T10:50:32Z</time>
      </trkpt>
      <trkpt lat="50.92906" lon="2.28888">
        <ele>1</ele>
        <time>2018-01-06T10:51:32Z</time>
      </trkpt>
      <trkpt lat="50.92894" lon="2.2885">
        <ele>1</ele>
        <time>2018-01-06T10:52:32Z</time>
      </trkpt>
      <trkpt lat="50.92881" lon="2.2881">
        <ele>1</ele>
        <time>2018-01-06T10:53:32Z</time>
      </trkpt>
      <trkpt lat="50.9288" lon="2.28807">
        <ele>1</ele>
        <time>2018-01-06T10:54:32Z</time>
      </trkpt>
      <trkpt lat="50.92879" lon="2.28804">
        <ele>1</ele>
        <time>2018-01-06T10:55:32Z</time>
      </trkpt>
      <trkpt lat="50.92879" lon="2.28804">
        <ele>1</ele>
        <time>2018-01-06T10:56:32Z</time>
      </trkpt>
      <trkpt lat="50.92868" lon="2.28771">
        <ele>1</ele>
        <time>2018-01-06T10:57:32Z</time>
      </trkpt>
      <trkpt lat="50.92848" lon="2.2871">
        <ele>1.5</ele>
        <time>2018-01-06T10:58:32Z</time>
      </trkpt>
      <trkpt lat="50.92834" lon="2.28669">
        <ele>2</ele>
        <time>2018-01-06T10:59:32Z</time>
      </trkpt>
      <trkpt lat="50.92825" lon="2.28647">
        <ele>1.6</ele>
        <time>2018-01-06T11:00:32Z</time>
      </trkpt>
      <trkpt lat="50.92813" lon="2.28621">
        <ele>1.7</ele>
        <time>2018-01-06T11:01:32Z</time>
      </trkpt>
      <trkpt lat="50.92804" lon="2.28602">
        <ele>1.7</ele>
        <time>2018-01-06T11:02:32Z</time>
      </trkpt>
      <trkpt lat="50.92797" lon="2.28588">
        <ele>1.4</ele>
        <time>2018-01-06T11:03:32Z</time>
      </trkpt>
      <trkpt lat="50.92795" lon="2.28584">
        <ele>1.4</ele>
        <time>2018-01-06T11:04:32Z</time>
      </trkpt>
      <trkpt lat="50.92783" lon="2.28563">
        <ele>1.8</ele>
        <time>2018-01-06T11:05:32Z</time>
      </trkpt>
      <trkpt lat="50.92761" lon="2.28526">
        <ele>2</ele>
        <time>2018-01-06T11:06:32Z</time>
      </trkpt>
      <trkpt lat="50.92741" lon="2.28491">
        <ele>1.6</ele>
        <time>2018-01-06T11:07:32Z</time>
      </trkpt>
      <trkpt lat="50.92709" lon="2.28437">
        <ele>1.1</ele>
        <time>2018-01-06T11:08:32Z</time>
      </trkpt>
      <trkpt lat="50.9267" lon="2.28368">
        <ele>1.9</ele>
        <time>2018-01-06T11:09:32Z</time>
      </trkpt>
      <trkpt lat="50.92638" lon="2.28313">
        <ele>1.3</ele>
        <time>2018-01-06T11:10:32Z</time>
      </trkpt>
      <trkpt lat="50.92626" lon="2.28292">
        <ele>1.2</ele>
        <time>2018-01-06T11:11:32Z</time>
      </trkpt>
      <trkpt lat="50.92588" lon="2.28226">
        <ele>1.7</ele>
        <time>2018-01-06T11:12:32Z</time>
      </trkpt>
      <trkpt lat="50.92552" lon="2.28163">
        <ele>1</ele>
        <time>2018-01-06T11:13:32Z</time>
      </trkpt>
      <trkpt lat="50.92538" lon="2.2814">
        <ele>1</ele>
        <time>2018-01-06T11:14:32Z</time>
      </trkpt>
      <trkpt lat="50.92517" lon="2.28104">
        <ele>1.6</ele>
        <time>2018-01-06T11:15:32Z</time>
      </trkpt>
      <trkpt lat="50.92492" lon="2.2806">
        <ele>1.1</ele>
        <time>2018-01-06T11:16:32Z</time>
      </trkpt>
      <trkpt lat="50.92466" lon="2.28014">
        <ele>1.7</ele>
        <time>2018-01-06T11:17:32Z</time>
      </trkpt>
      <trkpt lat="50.92463" lon="2.28009">
        <ele>1.7</ele>
        <time>2018-01-06T11:18:32Z</time>
      </trkpt>
      <trkpt lat="50.92446" lon="2.2798">
        <ele>2</ele>
        <time>2018-01-06T11:19:32Z</time>
      </trkpt>
      <trkpt lat="50.92439" lon="2.27968">
        <ele>1.8</ele>
        <time>2018-01-06T11:20:32Z</time>
      </trkpt>
      <trkpt lat="50.92409" lon="2.27918">
        <ele>1</ele>
        <time>2018-01-06T11:21:32Z</time>
      </trkpt>
      <trkpt lat="50.92384" lon="2.27874">
        <ele>1.5</ele>
        <time>2018-01-06T11:22:32Z</time>
      </trkpt>
      <trkpt lat="50.92341" lon="2.27799">
        <ele>1.8</ele>
        <time>2018-01-06T11:23:32Z</time>
      </trkpt>
      <trkpt lat="50.92305" lon="2.27737">
        <ele>1.5</ele>
        <time>2018-01-06T11:24:32Z</time>
      </trkpt>
      <trkpt lat="50.92264" lon="2.27663">
        <ele>1.5</ele>
        <time>2018-01-06T11:25:32Z</time>
      </trkpt>
      <trkpt lat="50.92259" lon="2.27656">
        <ele>1.5</ele>
        <time>2018-01-06T11:26:32Z</time>
      </trkpt>
      <trkpt lat="50.92236" lon="2.27617">
        <ele>1.5</ele>
        <time>2018-01-06T11:27:32Z</time>
      </trkpt>
      <trkpt lat="50.92205" lon="2.27564">
        <ele>1.6</ele>
        <time>2018-01-06T11:28:32Z</time>
      </trkpt>
      <trkpt lat="50.92174" lon="2.2751">
        <ele>1.7</ele>
        <time>2018-01-06T11:29:32Z</time>
      </trkpt>
      <trkpt lat="50.92142" lon="2.27455">
        <ele>2</ele>
        <time>2018-01-06T11:30:32Z</time>
      </trkpt>
      <trkpt lat="50.92113" lon="2.27407">
        <ele>1.6</ele>
        <time>2018-01-06T11:31:32Z</time>
      </trkpt>
      <trkpt lat="50.9211" lon="2.27402">
        <ele>1.5</ele>
        <time>2018-01-06T11:32:32Z</time>
      </trkpt>
      <trkpt lat="50.92085" lon="2.27362">
        <ele>1.9</ele>
        <time>2018-01-06T11:33:32Z</time>
      </trkpt>
      <trkpt lat="50.92072" lon="2.27343">
        <ele>1.6</ele>
        <time>2018-01-06T11:34:32Z</time>
      </trkpt>
      <trkpt lat="50.92055" lon="2.27322">
        <ele>1.6</ele>
        <time>2018-01-06T11:35:32Z</time>
      </trkpt>
      <trkpt lat="50.92045" lon="2.27309">
        <ele>1.5</ele>
        <time>2018-01-06T11:36:32Z</time>
      </trkpt>
      <trkpt lat="50.92029" lon="2.27288">
        <ele>2</ele>
        <time>2018-01-06T11:37:32Z</time>
      </trkpt>
      <trkpt lat="50.92009" lon="2.27266">
        <ele>1.9</ele>
        <time>2018-01-06T11:38:32Z</time>
      </trkpt>
      <trkpt lat="50.91999" lon="2.27256">
        <ele>2</ele>
        <time>2018-01-06T11:39:32Z</time>
      </trkpt>
      <trkpt lat="50.91987" lon="2.27244">
        <ele>1.9</ele>
        <time>2018-01-06T11:40:32Z</time>
      </trkpt>
      <trkpt lat="50.91986" lon="2.27243">
        <ele>1.9</ele>
        <time>2018-01-06T11:41:32Z</time>
      </trkpt>
      <trkpt lat="50.91981" lon="2.27238">
        <ele>1.7</ele>
        <time>2018-01-06T11:42:32Z</time>
      </trkpt>
      <trkpt lat="50.91965" lon="2.27226">
        <ele>1.4</ele>
        <time>2018-01-06T11:43:32Z</time>
      </trkpt>
      <trkpt lat="50.91957" lon="2.27219">
        <ele>1.5</ele>
        <time>2018-01-06T11:44:32Z</time>
      </trkpt>
      <trkpt lat="50.91954" lon="2.27217">
        <ele>1.6</ele>
        <time>2018-01-06T11:45:32Z</time>
      </trkpt>
      <trkpt lat="50.91948" lon="2.27211">
        <ele>1.6</ele>
        <time>2018-01-06T11:46:32Z</time>
      </trkpt>
      <trkpt lat="50.91942" lon="2.27205">
        <ele>1.4</ele>
        <time>2018-01-06T11:47:32Z</time>
      </trkpt>
      <trkpt lat="50.91934" lon="2.27194">
        <ele>1.4</ele>
        <time>2018-01-06T11:48:32Z</time>
      </trkpt>
      <trkpt lat="50.91906" lon="2.27153">
        <ele>1.9</ele>
        <time>2018-01-06T11:49:32Z</time>
      </trkpt>
      <trkpt lat="50.91883" lon="2.27117">
        <ele>1</ele>
        <time>2018-01-06T11:50:32Z</time>
      </trkpt>
      <trkpt lat="50.91866" lon="2.27092">
        <ele>1</ele>
        <time>2018-01-06T11:51:32Z</time>
      </trkpt>
      <trkpt lat="50.91857" lon="2.27077">
        <ele>1</ele>
        <time>2018-01-06T11:52:32Z</time>
      </trkpt>
      <trkpt lat="50.91854" lon="2.27072">
        <ele>1</ele>
        <time>2018-01-06T11:53:32Z</time>
      </trkpt>
      <trkpt lat="50.91848" lon="2.27063">
        <ele>1</ele>
        <time>2018-01-06T11:54:32Z</time>
      </trkpt>
      <trkpt lat="50.91819" lon="2.27011">
        <ele>1</ele>
        <time>2018-01-06T11:55:32Z</time>
      </trkpt>
      <trkpt lat="50.91791" lon="2.26959">
        <ele>2</ele>
        <time>2018-01-06T11:56:32Z</time>
      </trkpt>
      <trkpt lat="50.91774" lon="2.26923">
        <ele>2</ele>
        <time>2018-01-06T11:57:32Z</time>
      </trkpt>
      <trkpt lat="50.91762" lon="2.26896">
        <ele>2</ele>
        <time>2018-01-06T11:58:32Z</time>
      </trkpt>
      <trkpt lat="50.91752" lon="2.2688">
        <ele>2</ele>
        <time>2018-01-06T11:59:32Z</time>
      </trkpt>
      <trkpt lat="50.91743" lon="2.26869">
        <ele>2</ele>
        <time>2018-01-06T12:00:32Z</time>
      </trkpt>
      <trkpt lat="50.91733" lon="2.2686">
        <ele>2</ele>
        <time>2018-01-06T12:01:32Z</time>
      </trkpt>
      <trkpt lat="50.91733" lon="2.2686">
        <ele>2</ele>
        <time>2018-01-06T12:02:32Z</time>
      </trkpt>
      <trkpt lat="50.91724" lon="2.26851">
        <ele>2</ele>
        <time>2018-01-06T12:03:32Z</time>
      </trkpt>
      <trkpt lat="50.91724" lon="2.26851">
        <ele>2</ele>
        <time>2018-01-06T12:04:32Z</time>
      </trkpt>
      <trkpt lat="50.91724" lon="2.26846">
        <ele>1</ele>
        <time>2018-01-06T12:05:32Z</time>
      </trkpt>
      <trkpt lat="50.91726" lon="2.26831">
        <ele>1</ele>
        <time>2018-01-06T12:06:32Z</time>
      </trkpt>
      <trkpt lat="50.91728" lon="2.26816">
        <ele>1</ele>
        <time>2018-01-06T12:07:32Z</time>
      </trkpt>
      <trkpt lat="50.91729" lon="2.2681">
        <ele>1</ele>
        <time>2018-01-06T12:08:32Z</time>
      </trkpt>
      <trkpt lat="50.91729" lon="2.2681">
        <ele>1</ele>
        <time>2018-01-06T12:09:32Z</time>
      </trkpt>
      <trkpt lat="50.91697" lon="2.26785">
        <ele>1</ele>
        <time>2018-01-06T12:10:32Z</time>
      </trkpt>
      <trkpt lat="50.91694" lon="2.26783">
        <ele>1</ele>
        <time>2018-01-06T12:11:32Z</time>
      </trkpt>
      <trkpt lat="50.91684" lon="2.26774">
        <ele>1</ele>
        <time>2018-01-06T12:12:32Z</time>
      </trkpt>
      <trkpt lat="50.9158" lon="2.26689">
        <ele>1.7</ele>
        <time>2018-01-06T12:13:32Z</time>
      </trkpt>
      <trkpt lat="50.91577" lon="2.26687">
        <ele>1.6</ele>
        <time>2018-01-06T12:14:32Z</time>
      </trkpt>
      <trkpt lat="50.91574" lon="2.26684">
        <ele>1.5</ele>
        <time>2018-01-06T12:15:32Z</time>
      </trkpt>
      <trkpt lat="50.91536" lon="2.26653">
        <ele>1.6</ele>
        <time>2018-01-06T12:16:32Z</time>
      </trkpt>
      <trkpt lat="50.91509" lon="2.2663">
        <ele>1.9</ele>
        <time>2018-01-06T12:17:32Z</time>
      </trkpt>
      <trkpt lat="50.91506" lon="2.26627">
        <ele>1.9</ele>
        <time>2018-01-06T12:18:32Z</time>
      </trkpt>
      <trkpt lat="50.9148" lon="2.26605">
        <ele>1.4</ele>
        <time>2018-01-06T12:19:32Z</time>
      </trkpt>
      <trkpt lat="50.91443" lon="2.26575">
        <ele>2</ele>
        <time>2018-01-06T12:20:32Z</time>
      </trkpt>
      <trkpt lat="50.91419" lon="2.26555">
        <ele>2</ele>
        <time>2018-01-06T12:21:32Z</time>
      </trkpt>
      <trkpt lat="50.91413" lon="2.2655">
        <ele>1.7</ele>
        <time>2018-01-06T12:22:32Z</time>
      </trkpt>
      <trkpt lat="50.91377" lon="2.26525">
        <ele>1.6</ele>
        <time>2018-01-06T12:23:32Z</time>
      </trkpt>
      <trkpt lat="50.91341" lon="2.26502">
        <ele>1.9</ele>
        <time>2018-01-06T12:24:32Z</time>
      </trkpt>
      <trkpt lat="50.91304" lon="2.2648">
        <ele>1.7</ele>
        <time>2018-01-06T12:25:32Z</time>
      </trkpt>
      <trkpt lat="50.91274" lon="2.2646">
        <ele>1</ele>
        <time>2018-01-06T12:26:32Z</time>
      </trkpt>
      <trkpt lat="50.91239" lon="2.26441">
        <ele>1</ele>
        <time>2018-01-06T12:27:32Z</time>
      </trkpt>
      <trkpt lat="50.91211" lon="2.26425">
        <ele>1</ele>
        <time>2018-01-06T12:28:32Z</time>
      </trkpt>
      <trkpt lat="50.9118" lon="2.26409">
        <ele>1</ele>
        <time>2018-01-06T12:29:32Z</time>
      </trkpt>
      <trkpt lat="50.91149" lon="2.26395">
        <ele>1</ele>
        <time>2018-01-06T12:30:32Z</time>
      </trkpt>
      <trkpt lat="50.91145" lon="2.26393">
        <ele>1</ele>
        <time>2018-01-06T12:31:32Z</time>
      </trkpt>
      <trkpt lat="50.91095" lon="2.26369">
        <ele>1.7</ele>
        <time>2018-01-06T12:32:32Z</time>
      </trkpt>
      <trkpt lat="50.91077" lon="2.2636">
        <ele>2</ele>
        <time>2018-01-06T12:33:32Z</time>
      </trkpt>
      <trkpt lat="50.91059" lon="2.26348">
        <ele>2</ele>
        <time>2018-01-06T12:34:32Z</time>
      </trkpt>
      <trkpt lat="50.91033" lon="2.26329">
        <ele>1.3</ele>
        <time>2018-01-06T12:35:32Z</time>
      </trkpt>
      <trkpt lat="50.91001" lon="2.26305">
        <ele>2</ele>
        <time>2018-01-06T12:36:32Z</time>
      </trkpt>
      <trkpt lat="50.90993" lon="2.26297">
        <ele>1.6</ele>
        <time>2018-01-06T12:37:32Z</time>
      </trkpt>
      <trkpt lat="50.90953" lon="2.26262">
        <ele>2</ele>
        <time>2018-01-06T12:38:32Z</time>
      </trkpt>
      <trkpt lat="50.90902" lon="2.26211">
        <ele>2</ele>
        <time>2018-01-06T12:39:32Z</time>
      </trkpt>
      <trkpt lat="50.90878" lon="2.26189">
        <ele>3</ele>
        <time>2018-01-06T12:40:32Z</time>
      </trkpt>
      <trkpt lat="50.90829" lon="2.26141">
        <ele>5</ele>
        <time>2018-01-06T12:41:32Z</time>
      </trkpt>
      <trkpt lat="50.90784" lon="2.26098">
        <ele>3</ele>
        <time>2018-01-06T12:42:32Z</time>
      </trkpt>
      <trkpt lat="50.90774" lon="2.26089">
        <ele>3</ele>
        <time>2018-01-06T12:43:32Z</time>
      </trkpt>
      <trkpt lat="50.90728" lon="2.26048">
        <ele>1</ele>
        <time>2018-01-06T12:44:32Z</time>
      </trkpt>
      <trkpt lat="50.90688" lon="2.26014">
        <ele>2</ele>
        <time>2018-01-06T12:45:32Z</time>
      </trkpt>
      <trkpt lat="50.90667" lon="2.25997">
        <ele>2</ele>
        <time>2018-01-06T12:46:32Z</time>
      </trkpt>
      <trkpt lat="50.90661" lon="2.25992">
        <ele>1.9</ele>
        <time>2018-01-06T12:47:32Z</time>
      </trkpt>
      <trkpt lat="50.90647" lon="2.25982">
        <ele>2.2</ele>
        <time>2018-01-06T12:48:32Z</time>
      </trkpt>
      <trkpt lat="50.90629" lon="2.25973">
        <ele>2.6</ele>
        <time>2018-01-06T12:49:32Z</time>
      </trkpt>
      <trkpt lat="50.90599" lon="2.25958">
        <ele>2.5</ele>
        <time>2018-01-06T12:50:32Z</time>
      </trkpt>
      <trkpt lat="50.90571" lon="2.25942">
        <ele>2.5</ele>
        <time>2018-01-06T12:51:32Z</time>
      </trkpt>
      <trkpt lat="50.90565" lon="2.25939">
        <ele>2.3</ele>
        <time>2018-01-06T12:52:32Z</time>
      </trkpt>
      <trkpt lat="50.9055" lon="2.2593">
        <ele>1.9</ele>
        <time>2018-01-06T12:53:32Z</time>
      </trkpt>
      <trkpt lat="50.90514" lon="2.25905">
        <ele>1.9</ele>
        <time>2018-01-06T12:54:32Z</time>
      </trkpt>
      <trkpt lat="50.90477" lon="2.25874">
        <ele>1.7</ele>
        <time>2018-01-06T12:55:32Z</time>
      </trkpt>
      <trkpt lat="50.90439" lon="2.25844">
        <ele>1</ele>
        <time>2018-01-06T12:56:32Z</time>
      </trkpt>
      <trkpt lat="50.9043" lon="2.25837">
        <ele>1</ele>
        <time>2018-01-06T12:57:32Z</time>
      </trkpt>
      <trkpt lat="50.90411" lon="2.25823">
        <ele>1</ele>
        <time>2018-01-06T12:58:32Z</time>
      </trkpt>
      <trkpt lat="50.90377" lon="2.25799">
        <ele>1</ele>
        <time>2018-01-06T12:59:32Z</time>
      </trkpt>
      <trkpt lat="50.90357" lon="2.25785">
        <ele>2</ele>
        <time>2018-01-06T13:00:32Z</time>
      </trkpt>
      <trkpt lat="50.90343" lon="2.25777">
        <ele>2</ele>
        <time>2018-01-06T13:01:32Z</time>
      </trkpt>
      <trkpt lat="50.90337" lon="2.25772">
        <ele>2</ele>
        <time>2018-01-06T13:02:32Z</time>
      </trkpt>
      <trkpt lat="50.90333" lon="2.2577">
        <ele>2</ele>
        <time>2018-01-06T13:03:32Z</time>
      </trkpt>
      <trkpt lat="50.9033" lon="2.25768">
        <ele>1.9</ele>
        <time>2018-01-06T13:04:32Z</time>
      </trkpt>
      <trkpt lat="50.90311" lon="2.25758">
        <ele>1.8</ele>
        <time>2018-01-06T13:05:32Z</time>
      </trkpt>
      <trkpt lat="50.90292" lon="2.25748">
        <ele>2</ele>
        <time>2018-01-06T13:06:32Z</time>
      </trkpt>
      <trkpt lat="50.90276" lon="2.25739">
        <ele>1</ele>
        <time>2018-01-06T13:07:32Z</time>
      </trkpt>
      <trkpt lat="50.90254" lon="2.25723">
        <ele>1</ele>
        <time>2018-01-06T13:08:32Z</time>
      </trkpt>
      <trkpt lat="50.90211" lon="2.25693">
        <ele>2</ele>
        <time>2018-01-06T13:09:32Z</time>
      </trkpt>
      <trkpt lat="50.90068" lon="2.25594">
        <ele>4</ele>
        <time>2018-01-06T13:10:32Z</time>
      </trkpt>
      <trkpt lat="50.89996" lon="2.25544">
        <ele>2</ele>
        <time>2018-01-06T13:11:32Z</time>
      </trkpt>
      <trkpt lat="50.8997" lon="2.25527">
        <ele>2</ele>
        <time>2018-01-06T13:12:32Z</time>
      </trkpt>
      <trkpt lat="50.89945" lon="2.25509">
        <ele>1</ele>
        <time>2018-01-06T13:13:32Z</time>
      </trkpt>
      <trkpt lat="50.89911" lon="2.25482">
        <ele>1.9</ele>
        <time>2018-01-06T13:14:32Z</time>
      </trkpt>
      <trkpt lat="50.89884" lon="2.25456">
        <ele>2</ele>
        <time>2018-01-06T13:15:32Z</time>
      </trkpt>
      <trkpt lat="50.89862" lon="2.25429">
        <ele>2</ele>
        <time>2018-01-06T13:16:32Z</time>
      </trkpt>
      <trkpt lat="50.89838" lon="2.25399">
        <ele>2.5</ele>
        <time>2018-01-06T13:17:32Z</time>
      </trkpt>
      <trkpt lat="50.89815" lon="2.25367">
        <ele>2.6</ele>
        <time>2018-01-06T13:18:32Z</time>
      </trkpt>
      <trkpt lat="50.898" lon="2.25344">
        <ele>2.3</ele>
        <time>2018-01-06T13:19:32Z</time>
      </trkpt>
      <trkpt lat="50.89788" lon="2.2532">
        <ele>2.3</ele>
        <time>2018-01-06T13:20:32Z</time>
      </trkpt>
      <trkpt lat="50.89775" lon="2.25294">
        <ele>2.5</ele>
        <time>2018-01-06T13:21:32Z</time>
      </trkpt>
      <trkpt lat="50.89757" lon="2.25251">
        <ele>2.7</ele>
        <time>2018-01-06T13:22:32Z</time>
      </trkpt>
      <trkpt lat="50.89738" lon="2.252">
        <ele>2.2</ele>
        <time>2018-01-06T13:23:32Z</time>
      </trkpt>
      <trkpt lat="50.89729" lon="2.25172">
        <ele>3</ele>
        <time>2018-01-06T13:24:32Z</time>
      </trkpt>
      <trkpt lat="50.89728" lon="2.25167">
        <ele>3.4</ele>
        <time>2018-01-06T13:25:32Z</time>
      </trkpt>
      <trkpt lat="50.89722" lon="2.25146">
        <ele>4</ele>
        <time>2018-01-06T13:26:32Z</time>
      </trkpt>
      <trkpt lat="50.89711" lon="2.25101">
        <ele>2</ele>
        <time>2018-01-06T13:27:32Z</time>
      </trkpt>
      <trkpt lat="50.89698" lon="2.25041">
        <ele>5.5</ele>
        <time>2018-01-06T13:28:32Z</time>
      </trkpt>
      <trkpt lat="50.89691" lon="2.24993">
        <ele>1</ele>
        <time>2018-01-06T13:29:32Z</time>
      </trkpt>
      <trkpt lat="50.89684" lon="2.2495">
        <ele>1</ele>
        <time>2018-01-06T13:30:32Z</time>
      </trkpt>
      <trkpt lat="50.89683" lon="2.24946">
        <ele>1</ele>
        <time>2018-01-06T13:31:32Z</time>
      </trkpt>
      <trkpt lat="50.89682" lon="2.24939">
        <ele>1</ele>
        <time>2018-01-06T13:32:32Z</time>
      </trkpt>
      <trkpt lat="50.89677" lon="2.24906">
        <ele>1</ele>
        <time>2018-01-06T13:33:32Z</time>
      </trkpt>
      <trkpt lat="50.89672" lon="2.24874">
        <ele>1</ele>
        <time>2018-01-06T13:34:32Z</time>
      </trkpt>
      <trkpt lat="50.8967" lon="2.24866">
        <ele>1</ele>
        <time>2018-01-06T13:35:32Z</time>
      </trkpt>
      <trkpt lat="50.8965" lon="2.24746">
        <ele>1</ele>
        <time>2018-01-06T13:36:32Z</time>
      </trkpt>
      <trkpt lat="50.89635" lon="2.24657">
        <ele>3.6</ele>
        <time>2018-01-06T13:37:32Z</time>
      </trkpt>
      <trkpt lat="50.89633" lon="2.24645">
        <ele>2.6</ele>
        <time>2018-01-06T13:38:32Z</time>
      </trkpt>
      <trkpt lat="50.89631" lon="2.24632">
        <ele>2</ele>
        <time>2018-01-06T13:39:32Z</time>
      </trkpt>
      <trkpt lat="50.89628" lon="2.2462">
        <ele>1.7</ele>
        <time>2018-01-06T13:40:32Z</time>
      </trkpt>
      <trkpt lat="50.89613" lon="2.24547">
        <ele>2.6</ele>
        <time>2018-01-06T13:41:32Z</time>
      </trkpt>
      <trkpt lat="50.89596" lon="2.24473">
        <ele>1.6</ele>
        <time>2018-01-06T13:42:32Z</time>
      </trkpt>
      <trkpt lat="50.89579" lon="2.24406">
        <ele>1.9</ele>
        <time>2018-01-06T13:43:32Z</time>
      </trkpt>
      <trkpt lat="50.89567" lon="2.24363">
        <ele>2</ele>
        <time>2018-01-06T13:44:32Z</time>
      </trkpt>
      <trkpt lat="50.89555" lon="2.24321">
        <ele>2</ele>
        <time>2018-01-06T13:45:32Z</time>
      </trkpt>
      <trkpt lat="50.89525" lon="2.24228">
        <ele>1.3</ele>
        <time>2018-01-06T13:46:32Z</time>
      </trkpt>
      <trkpt lat="50.89521" lon="2.24216">
        <ele>1.2</ele>
        <time>2018-01-06T13:47:32Z</time>
      </trkpt>
      <trkpt lat="50.89517" lon="2.24205">
        <ele>1.4</ele>
        <time>2018-01-06T13:48:32Z</time>
      </trkpt>
      <trkpt lat="50.89507" lon="2.24172">
        <ele>1.7</ele>
        <time>2018-01-06T13:49:32Z</time>
      </trkpt>
      <trkpt lat="50.89492" lon="2.24134">
        <ele>1.9</ele>
        <time>2018-01-06T13:50:32Z</time>
      </trkpt>
      <trkpt lat="50.89462" lon="2.24057">
        <ele>2</ele>
        <time>2018-01-06T13:51:32Z</time>
      </trkpt>
      <trkpt lat="50.8943" lon="2.23981">
        <ele>2</ele>
        <time>2018-01-06T13:52:32Z</time>
      </trkpt>
      <trkpt lat="50.89398" lon="2.23913">
        <ele>1.7</ele>
        <time>2018-01-06T13:53:32Z</time>
      </trkpt>
      <trkpt lat="50.8939" lon="2.23897">
        <ele>2</ele>
        <time>2018-01-06T13:54:32Z</time>
      </trkpt>
      <trkpt lat="50.89381" lon="2.23877">
        <ele>1.7</ele>
        <time>2018-01-06T13:55:32Z</time>
      </trkpt>
      <trkpt lat="50.89372" lon="2.23859">
        <ele>1.4</ele>
        <time>2018-01-06T13:56:32Z</time>
      </trkpt>
      <trkpt lat="50.89361" lon="2.23839">
        <ele>1.8</ele>
        <time>2018-01-06T13:57:32Z</time>
      </trkpt>
      <trkpt lat="50.89352" lon="2.23821">
        <ele>2</ele>
        <time>2018-01-06T13:58:32Z</time>
      </trkpt>
      <trkpt lat="50.89325" lon="2.23773">
        <ele>2</ele>
        <time>2018-01-06T13:59:32Z</time>
      </trkpt>
      <trkpt lat="50.89283" lon="2.23701">
        <ele>2</ele>
        <time>2018-01-06T14:00:32Z</time>
      </trkpt>
      <trkpt lat="50.89221" lon="2.23606">
        <ele>2</ele>
        <time>2018-01-06T14:01:32Z</time>
      </trkpt>
      <trkpt lat="50.89165" lon="2.2353">
        <ele>2</ele>
        <time>2018-01-06T14:02:32Z</time>
      </trkpt>
      <trkpt lat="50.89153" lon="2.23517">
        <ele>2.2</ele>
        <time>2018-01-06T14:03:32Z</time>
      </trkpt>
      <trkpt lat="50.89138" lon="2.23505">
        <ele>2</ele>
        <time>2018-01-06T14:04:32Z</time>
      </trkpt>
      <trkpt lat="50.89047" lon="2.23432">
        <ele>2</ele>
        <time>2018-01-06T14:05:32Z</time>
      </trkpt>
      <trkpt lat="50.89041" lon="2.23427">
        <ele>2</ele>
        <time>2018-01-06T14:06:32Z</time>
      </trkpt>
      <trkpt lat="50.89035" lon="2.23423">
        <ele>2</ele>
        <time>2018-01-06T14:07:32Z</time>
      </trkpt>
      <trkpt lat="50.89029" lon="2.23419">
        <ele>2</ele>
        <time>2018-01-06T14:08:32Z</time>
      </trkpt>
      <trkpt lat="50.89022" lon="2.23417">
        <ele>2</ele>
        <time>2018-01-06T14:09:32Z</time>
      </trkpt>
      <trkpt lat="50.89016" lon="2.23415">
        <ele>2</ele>
        <time>2018-01-06T14:10:32Z</time>
      </trkpt>
      <trkpt lat="50.8901" lon="2.23413">
        <ele>2</ele>
        <time>2018-01-06T14:11:32Z</time>
      </trkpt>
      <trkpt lat="50.89004" lon="2.23412">
        <ele>2</ele>
        <time>2018-01-06T14:12:32Z</time>
      </trkpt>
      <trkpt lat="50.88998" lon="2.23411">
        <ele>2</ele>
        <time>2018-01-06T14:13:32Z</time>
      </trkpt>
      <trkpt lat="50.88993" lon="2.2341">
        <ele>2</ele>
        <time>2018-01-06T14:14:32Z</time>
      </trkpt>
      <trkpt lat="50.88988" lon="2.23409">
        <ele>2</ele>
        <time>2018-01-06T14:15:32Z</time>
      </trkpt>
      <trkpt lat="50.88983" lon="2.23408">
        <ele>2</ele>
        <time>2018-01-06T14:16:32Z</time>
      </trkpt>
      <trkpt lat="50.88979" lon="2.23406">
        <ele>2</ele>
        <time>2018-01-06T14:17:32Z</time>
      </trkpt>
      <trkpt lat="50.88974" lon="2.23403">
        <ele>2</ele>
        <time>2018-01-06T14:18:32Z</time>
      </trkpt>
      <trkpt lat="50.8897" lon="2.234">
        <ele>2</ele>
        <time>2018-01-06T14:19:32Z</time>
      </trkpt>
      <trkpt lat="50.88967" lon="2.23396">
        <ele>2</ele>
        <time>2018-01-06T14:20:32Z</time>
      </trkpt>
      <trkpt lat="50.88964" lon="2.23391">
        <ele>2</ele>
        <time>2018-01-06T14:21:32Z</time>
      </trkpt>
      <trkpt lat="50.8896" lon="2.23387">
        <ele>2</ele>
        <time>2018-01-06T14:22:32Z</time>
      </trkpt>
      <trkpt lat="50.88958" lon="2.23382">
        <ele>2.1</ele>
        <time>2018-01-06T14:23:32Z</time>
      </trkpt>
      <trkpt lat="50.88955" lon="2.23377">
        <ele>2.3</ele>
        <time>2018-01-06T14:24:32Z</time>
      </trkpt>
      <trkpt lat="50.88953" lon="2.23366">
        <ele>2.6</ele>
        <time>2018-01-06T14:25:32Z</time>
      </trkpt>
      <trkpt lat="50.88952" lon="2.23361">
        <ele>2.7</ele>
        <time>2018-01-06T14:26:32Z</time>
      </trkpt>
      <trkpt lat="50.88952" lon="2.23356">
        <ele>2.8</ele>
        <time>2018-01-06T14:27:32Z</time>
      </trkpt>
      <trkpt lat="50.88952" lon="2.23352">
        <ele>2.8</ele>
        <time>2018-01-06T14:28:32Z</time>
      </trkpt>
      <trkpt lat="50.88953" lon="2.23347">
        <ele>2.8</ele>
        <time>2018-01-06T14:29:32Z</time>
      </trkpt>
      <trkpt lat="50.88953" lon="2.23343">
        <ele>2.9</ele>
        <time>2018-01-06T14:30:32Z</time>
      </trkpt>
      <trkpt lat="50.88955" lon="2.23333">
        <ele>3</ele>
        <time>2018-01-06T14:31:32Z</time>
      </trkpt>
      <trkpt lat="50.88955" lon="2.23333">
        <ele>3</ele>
        <time>2018-01-06T14:32:32Z</time>
      </trkpt>
      <trkpt lat="50.88956" lon="2.23333">
        <ele>3</ele>
        <time>2018-01-06T14:33:32Z</time>
      </trkpt>
      <trkpt lat="50.88956" lon="2.23332">
        <ele>3</ele>
        <time>2018-01-06T14:34:32Z</time>
      </trkpt>
      <trkpt lat="50.88957" lon="2.23332">
        <ele>3</ele>
        <time>2018-01-06T14:35:32Z</time>
      </trkpt>
      <trkpt lat="50.88957" lon="2.23331">
        <ele>3</ele>
        <time>2018-01-06T14:36:32Z</time>
      </trkpt>
      <trkpt lat="50.88958" lon="2.23331">
        <ele>3</ele>
        <time>2018-01-06T14:37:32Z</time>
      </trkpt>
      <trkpt lat="50.88959" lon="2.23329">
        <ele>3.1</ele>
        <time>2018-01-06T14:38:32Z</time>
      </trkpt>
      <trkpt lat="50.8896" lon="2.23328">
        <ele>3.1</ele>
        <time>2018-01-06T14:39:32Z</time>
      </trkpt>
      <trkpt lat="50.88961" lon="2.23326">
        <ele>3.1</ele>
        <time>2018-01-06T14:40:32Z</time>
      </trkpt>
      <trkpt lat="50.88963" lon="2.23324">
        <ele>3.1</ele>
        <time>2018-01-06T14:41:32Z</time>
      </trkpt>
      <trkpt lat="50.88964" lon="2.23321">
        <ele>3.1</ele>
        <time>2018-01-06T14:42:32Z</time>
      </trkpt>
      <trkpt lat="50.88965" lon="2.23318">
        <ele>3.1</ele>
        <time>2018-01-06T14:43:32Z</time>
      </trkpt>
      <trkpt lat="50.88966" lon="2.23316">
        <ele>3.1</ele>
        <time>2018-01-06T14:44:32Z</time>
      </trkpt>
      <trkpt lat="50.88966" lon="2.23313">
        <ele>3.2</ele>
        <time>2018-01-06T14:45:32Z</time>
      </trkpt>
      <trkpt lat="50.88967" lon="2.2331">
        <ele>3.2</ele>
        <time>2018-01-06T14:46:32Z</time>
      </trkpt>
      <trkpt lat="50.88967" lon="2.23306">
        <ele>3.2</ele>
        <time>2018-01-06T14:47:32Z</time>
      </trkpt>
      <trkpt lat="50.88967" lon="2.23303">
        <ele>3.2</ele>
        <time>2018-01-06T14:48:32Z</time>
      </trkpt>
      <trkpt lat="50.88967" lon="2.23302">
        <ele>3.2</ele>
        <time>2018-01-06T14:49:32Z</time>
      </trkpt>
      <trkpt lat="50.88967" lon="2.233">
        <ele>3.2</ele>
        <time>2018-01-06T14:50:32Z</time>
      </trkpt>
      <trkpt lat="50.88967" lon="2.23298">
        <ele>3.1</ele>
        <time>2018-01-06T14:51:32Z</time>
      </trkpt>
      <trkpt lat="50.88967" lon="2.23297">
        <ele>3.1</ele>
        <time>2018-01-06T14:52:32Z</time>
      </trkpt>
      <trkpt lat="50.88967" lon="2.23295">
        <ele>3.1</ele>
        <time>2018-01-06T14:53:32Z</time>
      </trkpt>
      <trkpt lat="50.88966" lon="2.23293">
        <ele>3.1</ele>
        <time>2018-01-06T14:54:32Z</time>
      </trkpt>
      <trkpt lat="50.88966" lon="2.23292">
        <ele>3.1</ele>
        <time>2018-01-06T14:55:32Z</time>
      </trkpt>
      <trkpt lat="50.88966" lon="2.23291">
        <ele>3.1</ele>
        <time>2018-01-06T14:56:32Z</time>
      </trkpt>
      <trkpt lat="50.88965" lon="2.23287">
        <ele>3.1</ele>
        <time>2018-01-06T14:57:32Z</time>
      </trkpt>
      <trkpt lat="50.88964" lon="2.23285">
        <ele>3.1</ele>
        <time>2018-01-06T14:58:32Z</time>
      </trkpt>
      <trkpt lat="50.88963" lon="2.23282">
        <ele>3.1</ele>
        <time>2018-01-06T14:59:32Z</time>
      </trkpt>
      <trkpt lat="50.88962" lon="2.2328">
        <ele>3</ele>
        <time>2018-01-06T15:00:32Z</time>
      </trkpt>
      <trkpt lat="50.8896" lon="2.23278">
        <ele>3</ele>
        <time>2018-01-06T15:01:32Z</time>
      </trkpt>
      <trkpt lat="50.88959" lon="2.23276">
        <ele>2.9</ele>
        <time>2018-01-06T15:02:32Z</time>
      </trkpt>
      <trkpt lat="50.88957" lon="2.23274">
        <ele>2.9</ele>
        <time>2018-01-06T15:03:32Z</time>
      </trkpt>
      <trkpt lat="50.88954" lon="2.23272">
        <ele>2.8</ele>
        <time>2018-01-06T15:04:32Z</time>
      </trkpt>
      <trkpt lat="50.88952" lon="2.23271">
        <ele>2.8</ele>
        <time>2018-01-06T15:05:32Z</time>
      </trkpt>
      <trkpt lat="50.88951" lon="2.2327">
        <ele>2.7</ele>
        <time>2018-01-06T15:06:32Z</time>
      </trkpt>
      <trkpt lat="50.88949" lon="2.23269">
        <ele>2.7</ele>
        <time>2018-01-06T15:07:32Z</time>
      </trkpt>
      <trkpt lat="50.88947" lon="2.23269">
        <ele>2.7</ele>
        <time>2018-01-06T15:08:32Z</time>
      </trkpt>
      <trkpt lat="50.88945" lon="2.23269">
        <ele>2.7</ele>
        <time>2018-01-06T15:09:32Z</time>
      </trkpt>
      <trkpt lat="50.88943" lon="2.2327">
        <ele>2.7</ele>
        <time>2018-01-06T15:10:32Z</time>
      </trkpt>
      <trkpt lat="50.88941" lon="2.2327">
        <ele>2.7</ele>
        <time>2018-01-06T15:11:32Z</time>
      </trkpt>
      <trkpt lat="50.88939" lon="2.23271">
        <ele>2.8</ele>
        <time>2018-01-06T15:12:32Z</time>
      </trkpt>
      <trkpt lat="50.88937" lon="2.23273">
        <ele>2.8</ele>
        <time>2018-01-06T15:13:32Z</time>
      </trkpt>
      <trkpt lat="50.88935" lon="2.23275">
        <ele>2.9</ele>
        <time>2018-01-06T15:14:32Z</time>
      </trkpt>
      <trkpt lat="50.88933" lon="2.23277">
        <ele>3</ele>
        <time>2018-01-06T15:15:32Z</time>
      </trkpt>
      <trkpt lat="50.88931" lon="2.23279">
        <ele>3</ele>
        <time>2018-01-06T15:16:32Z</time>
      </trkpt>
      <trkpt lat="50.8893" lon="2.23281">
        <ele>3.1</ele>
        <time>2018-01-06T15:17:32Z</time>
      </trkpt>
      <trkpt lat="50.88929" lon="2.23284">
        <ele>3.1</ele>
        <time>2018-01-06T15:18:32Z</time>
      </trkpt>
      <trkpt lat="50.88928" lon="2.23286">
        <ele>3.1</ele>
        <time>2018-01-06T15:19:32Z</time>
      </trkpt>
      <trkpt lat="50.88927" lon="2.23289">
        <ele>3.2</ele>
        <time>2018-01-06T15:20:32Z</time>
      </trkpt>
      <trkpt lat="50.88926" lon="2.23292">
        <ele>3.2</ele>
        <time>2018-01-06T15:21:32Z</time>
      </trkpt>
      <trkpt lat="50.88926" lon="2.23295">
        <ele>3.2</ele>
        <time>2018-01-06T15:22:32Z</time>
      </trkpt>
      <trkpt lat="50.88925" lon="2.23298">
        <ele>3.2</ele>
        <time>2018-01-06T15:23:32Z</time>
      </trkpt>
      <trkpt lat="50.88926" lon="2.23306">
        <ele>3.3</ele>
        <time>2018-01-06T15:24:32Z</time>
      </trkpt>
      <trkpt lat="50.88924" lon="2.23315">
        <ele>3.2</ele>
        <time>2018-01-06T15:25:32Z</time>
      </trkpt>
      <trkpt lat="50.88921" lon="2.23322">
        <ele>3.1</ele>
        <time>2018-01-06T15:26:32Z</time>
      </trkpt>
      <trkpt lat="50.88918" lon="2.23328">
        <ele>3</ele>
        <time>2018-01-06T15:27:32Z</time>
      </trkpt>
      <trkpt lat="50.88914" lon="2.23334">
        <ele>2.9</ele>
        <time>2018-01-06T15:28:32Z</time>
      </trkpt>
      <trkpt lat="50.88908" lon="2.23339">
        <ele>2.5</ele>
        <time>2018-01-06T15:29:32Z</time>
      </trkpt>
      <trkpt lat="50.88892" lon="2.23349">
        <ele>2</ele>
        <time>2018-01-06T15:30:32Z</time>
      </trkpt>
      <trkpt lat="50.88892" lon="2.23349">
        <ele>2</ele>
        <time>2018-01-06T15:31:32Z</time>
      </trkpt>
      <trkpt lat="50.88874" lon="2.23303">
        <ele>2</ele>
        <time>2018-01-06T15:32:32Z</time>
      </trkpt>
      <trkpt lat="50.88869" lon="2.23294">
        <ele>2</ele>
        <time>2018-01-06T15:33:32Z</time>
      </trkpt>
      <trkpt lat="50.88862" lon="2.23287">
        <ele>2</ele>
        <time>2018-01-06T15:34:32Z</time>
      </trkpt>
      <trkpt lat="50.88344" lon="2.22862">
        <ele>2</ele>
        <time>2018-01-06T15:35:32Z</time>
      </trkpt>
      <trkpt lat="50.88248" lon="2.22789">
        <ele>1</ele>
        <time>2018-01-06T15:36:32Z</time>
      </trkpt>
      <trkpt lat="50.88214" lon="2.22759">
        <ele>1</ele>
        <time>2018-01-06T15:37:32Z</time>
      </trkpt>
      <trkpt lat="50.88201" lon="2.22748">
        <ele>1</ele>
        <time>2018-01-06T15:38:32Z</time>
      </trkpt>
      <trkpt lat="50.88173" lon="2.22718">
        <ele>1</ele>
        <time>2018-01-06T15:39:32Z</time>
      </trkpt>
      <trkpt lat="50.88165" lon="2.22711">
        <ele>1</ele>
        <time>2018-01-06T15:40:32Z</time>
      </trkpt>
      <trkpt lat="50.88118" lon="2.22679">
        <ele>2.1</ele>
        <time>2018-01-06T15:41:32Z</time>
      </trkpt>
      <trkpt lat="50.87351" lon="2.22057">
        <ele>1</ele>
        <time>2018-01-06T15:42:32Z</time>
      </trkpt>
      <trkpt lat="50.87243" lon="2.21962">
        <ele>2</ele>
        <time>2018-01-06T15:43:32Z</time>
      </trkpt>
      <trkpt lat="50.87017" lon="2.21804">
        <ele>2</ele>
        <time>2018-01-06T15:44:32Z</time>
      </trkpt>
      <trkpt lat="50.87007" lon="2.218">
        <ele>1.9</ele>
        <time>2018-01-06T15:45:32Z</time>
      </trkpt>
      <trkpt lat="50.86984" lon="2.21793">
        <ele>1.8</ele>
        <time>2018-01-06T15:46:32Z</time>
      </trkpt>
      <trkpt lat="50.86951" lon="2.21777">
        <ele>2</ele>
        <time>2018-01-06T15:47:32Z</time>
      </trkpt>
      <trkpt lat="50.86584" lon="2.21575">
        <ele>1.7</ele>
        <time>2018-01-06T15:48:32Z</time>
      </trkpt>
      <trkpt lat="50.86548" lon="2.21554">
        <ele>1.3</ele>
        <time>2018-01-06T15:49:32Z</time>
      </trkpt>
      <trkpt lat="50.86526" lon="2.21541">
        <ele>2</ele>
        <time>2018-01-06T15:50:32Z</time>
      </trkpt>
      <trkpt lat="50.86449" lon="2.21498">
        <ele>1.9</ele>
        <time>2018-01-06T15:51:32Z</time>
      </trkpt>
      <trkpt lat="50.86409" lon="2.21476">
        <ele>1.4</ele>
        <time>2018-01-06T15:52:32Z</time>
      </trkpt>
      <trkpt lat="50.86324" lon="2.2143">
        <ele>1.7</ele>
        <time>2018-01-06T15:53:32Z</time>
      </trkpt>
      <trkpt lat="50.86323" lon="2.21429">
        <ele>1.7</ele>
        <time>2018-01-06T15:54:32Z</time>
      </trkpt>
      <trkpt lat="50.86252" lon="2.21391">
        <ele>2</ele>
        <time>2018-01-06T15:55:32Z</time>
      </trkpt>
      <trkpt lat="50.86205" lon="2.21366">
        <ele>2</ele>
        <time>2018-01-06T15:56:32Z</time>
      </trkpt>
      <trkpt lat="50.86189" lon="2.21357">
        <ele>1</ele>
        <time>2018-01-06T15:57:32Z</time>
      </trkpt>
      <trkpt lat="50.86151" lon="2.21334">
        <ele>1</ele>
        <time>2018-01-06T15:58:32Z</time>
      </trkpt>
      <trkpt lat="50.86145" lon="2.21327">
        <ele>1</ele>
        <time>2018-01-06T15:59:32Z</time>
      </trkpt>
      <trkpt lat="50.86138" lon="2.21321">
        <ele>1</ele>
        <time>2018-01-06T16:00:32Z</time>
      </trkpt>
      <trkpt lat="50.86133" lon="2.21316">
        <ele>1</ele>
        <time>2018-01-06T16:01:32Z</time>
      </trkpt>
      <trkpt lat="50.86128" lon="2.21313">
        <ele>1</ele>
        <time>2018-01-06T16:02:32Z</time>
      </trkpt>
      <trkpt lat="50.86103" lon="2.21297">
        <ele>1</ele>
        <time>2018-01-06T16:03:32Z</time>
      </trkpt>
      <trkpt lat="50.85938" lon="2.21208">
        <ele>1</ele>
        <time>2018-01-06T16:04:32Z</time>
      </trkpt>
      <trkpt lat="50.85888" lon="2.21182">
        <ele>1</ele>
        <time>2018-01-06T16:05:32Z</time>
      </trkpt>
      <trkpt lat="50.85742" lon="2.21103">
        <ele>1</ele>
        <time>2018-01-06T16:06:32Z</time>
      </trkpt>
      <trkpt lat="50.85634" lon="2.21045">
        <ele>3</ele>
        <time>2018-01-06T16:07:32Z</time>
      </trkpt>
      <trkpt lat="50.8557" lon="2.21014">
        <ele>2</ele>
        <time>2018-01-06T16:08:32Z</time>
      </trkpt>
      <trkpt lat="50.85543" lon="2.20999">
        <ele>2</ele>
        <time>2018-01-06T16:09:32Z</time>
      </trkpt>
      <trkpt lat="50.85524" lon="2.2099">
        <ele>2</ele>
        <time>2018-01-06T16:10:32Z</time>
      </trkpt>
      <trkpt lat="50.85507" lon="2.20981">
        <ele>2</ele>
        <time>2018-01-06T16:11:32Z</time>
      </trkpt>
      <trkpt lat="50.85472" lon="2.20966">
        <ele>2</ele>
        <time>2018-01-06T16:12:32Z</time>
      </trkpt>
      <trkpt lat="50.85448" lon="2.20958">
        <ele>2</ele>
        <time>2018-01-06T16:13:32Z</time>
      </trkpt>
      <trkpt lat="50.85416" lon="2.20947">
        <ele>2</ele>
        <time>2018-01-06T16:14:32Z</time>
      </trkpt>
      <trkpt lat="50.85357" lon="2.20931">
        <ele>2</ele>
        <time>2018-01-06T16:15:32Z</time>
      </trkpt>
      <trkpt lat="50.85317" lon="2.2092">
        <ele>2</ele>
        <time>2018-01-06T16:16:32Z</time>
      </trkpt>
      <trkpt lat="50.8529" lon="2.20914">
        <ele>1</ele>
        <time>2018-01-06T16:17:32Z</time>
      </trkpt>
      <trkpt lat="50.8521" lon="2.209">
        <ele>1</ele>
        <time>2018-01-06T16:18:32Z</time>
      </trkpt>
      <trkpt lat="50.85157" lon="2.2089">
        <ele>1</ele>
        <time>2018-01-06T16:19:32Z</time>
      </trkpt>
      <trkpt lat="50.8504" lon="2.20873">
        <ele>2</ele>
        <time>2018-01-06T16:20:32Z</time>
      </trkpt>
      <trkpt lat="50.85034" lon="2.20873">
        <ele>2</ele>
        <time>2018-01-06T16:21:32Z</time>
      </trkpt>
      <trkpt lat="50.8503" lon="2.20874">
        <ele>2</ele>
        <time>2018-01-06T16:22:32Z</time>
      </trkpt>
      <trkpt lat="50.85028" lon="2.20875">
        <ele>2</ele>
        <time>2018-01-06T16:23:32Z</time>
      </trkpt>
      <trkpt lat="50.85025" lon="2.20877">
        <ele>2</ele>
        <time>2018-01-06T16:24:32Z</time>
      </trkpt>
      <trkpt lat="50.85021" lon="2.20884">
        <ele>2</ele>
        <time>2018-01-06T16:25:32Z</time>
      </trkpt>
      <trkpt lat="50.85021" lon="2.20884">
        <ele>2</ele>
        <time>2018-01-06T16:26:32Z</time>
      </trkpt>
      <trkpt lat="50.85013" lon="2.20891">
        <ele>2</ele>
        <time>2018-01-06T16:27:32Z</time>
      </trkpt>
      <trkpt lat="50.85006" lon="2.209">
        <ele>2</ele>
        <time>2018-01-06T16:28:32Z</time>
      </trkpt>
      <trkpt lat="50.8498" lon="2.20929">
        <ele>2</ele>
        <time>2018-01-06T16:29:32Z</time>
      </trkpt>
      <trkpt lat="50.84978" lon="2.20931">
        <ele>2</ele>
        <time>2018-01-06T16:30:32Z</time>
      </trkpt>
      <trkpt lat="50.84975" lon="2.20932">
        <ele>2</ele>
        <time>2018-01-06T16:31:32Z</time>
      </trkpt>
      <trkpt lat="50.84971" lon="2.20931">
        <ele>2</ele>
        <time>2018-01-06T16:32:32Z</time>
      </trkpt>
      <trkpt lat="50.84967" lon="2.20929">
        <ele>2</ele>
        <time>2018-01-06T16:33:32Z</time>
      </trkpt>
      <trkpt lat="50.84964" lon="2.20926">
        <ele>2</ele>
        <time>2018-01-06T16:34:32Z</time>
      </trkpt>
      <trkpt lat="50.84951" lon="2.20908">
        <ele>1</ele>
        <time>2018-01-06T16:35:32Z</time>
      </trkpt>
      <trkpt lat="50.84951" lon="2.20908">
        <ele>1</ele>
        <time>2018-01-06T16:36:32Z</time>
      </trkpt>
      <trkpt lat="50.84942" lon="2.20894">
        <ele>1</ele>
        <time>2018-01-06T16:37:32Z</time>
      </trkpt>
      <trkpt lat="50.84918" lon="2.20863">
        <ele>1</ele>
        <time>2018-01-06T16:38:32Z</time>
      </trkpt>
      <trkpt lat="50.84909" lon="2.20856">
        <ele>1</ele>
        <time>2018-01-06T16:39:32Z</time>
      </trkpt>
      <trkpt lat="50.84902" lon="2.20852">
        <ele>1</ele>
        <time>2018-01-06T16:40:32Z</time>
      </trkpt>
      <trkpt lat="50.84893" lon="2.20849">
        <ele>1</ele>
        <time>2018-01-06T16:41:32Z</time>
      </trkpt>
      <trkpt lat="50.84727" lon="2.20828">
        <ele>2</ele>
        <time>2018-01-06T16:42:32Z</time>
      </trkpt>
      <trkpt lat="50.84612" lon="2.20813">
        <ele>1</ele>
        <time>2018-01-06T16:43:32Z</time>
      </trkpt>
      <trkpt lat="50.84554" lon="2.20798">
        <ele>1</ele>
        <time>2018-01-06T16:44:32Z</time>
      </trkpt>
      <trkpt lat="50.84545" lon="2.20796">
        <ele>1</ele>
        <time>2018-01-06T16:45:32Z</time>
      </trkpt>
      <trkpt lat="50.84494" lon="2.20783">
        <ele>1</ele>
        <time>2018-01-06T16:46:32Z</time>
      </trkpt>
      <trkpt lat="50.84461" lon="2.20769">
        <ele>2</ele>
        <time>2018-01-06T16:47:32Z</time>
      </trkpt>
      <trkpt lat="50.84441" lon="2.20761">
        <ele>2</ele>
        <time>2018-01-06T16:48:32Z</time>
      </trkpt>
      <trkpt lat="50.84439" lon="2.20761">
        <ele>2</ele>
        <time>2018-01-06T16:49:32Z</time>
      </trkpt>
      <trkpt lat="50.84434" lon="2.2076">
        <ele>2</ele>
        <time>2018-01-06T16:50:32Z</time>
      </trkpt>
      <trkpt lat="50.84433" lon="2.20759">
        <ele>2</ele>
        <time>2018-01-06T16:51:32Z</time>
      </trkpt>
      <trkpt lat="50.84365" lon="2.20748">
        <ele>2</ele>
        <time>2018-01-06T16:52:32Z</time>
      </trkpt>
      <trkpt lat="50.84359" lon="2.20748">
        <ele>2</ele>
        <time>2018-01-06T16:53:32Z</time>
      </trkpt>
      <trkpt lat="50.84305" lon="2.20738">
        <ele>2</ele>
        <time>2018-01-06T16:54:32Z</time>
      </trkpt>
      <trkpt lat="50.84292" lon="2.20736">
        <ele>2</ele>
        <time>2018-01-06T16:55:32Z</time>
      </trkpt>
      <trkpt lat="50.84261" lon="2.2073">
        <ele>2</ele>
        <time>2018-01-06T16:56:32Z</time>
      </trkpt>
      <trkpt lat="50.84205" lon="2.20714">
        <ele>3</ele>
        <time>2018-01-06T16:57:32Z</time>
      </trkpt>
      <trkpt lat="50.84181" lon="2.20708">
        <ele>4</ele>
        <time>2018-01-06T16:58:32Z</time>
      </trkpt>
      <trkpt lat="50.8418" lon="2.20708">
        <ele>4</ele>
        <time>2018-01-06T16:59:32Z</time>
      </trkpt>
      <trkpt lat="50.84168" lon="2.20707">
        <ele>4</ele>
        <time>2018-01-06T17:00:32Z</time>
      </trkpt>
      <trkpt lat="50.84151" lon="2.20707">
        <ele>4</ele>
        <time>2018-01-06T17:01:32Z</time>
      </trkpt>
      <trkpt lat="50.84135" lon="2.2071">
        <ele>4</ele>
        <time>2018-01-06T17:02:32Z</time>
      </trkpt>
      <trkpt lat="50.84124" lon="2.20715">
        <ele>4</ele>
        <time>2018-01-06T17:03:32Z</time>
      </trkpt>
      <trkpt lat="50.8411" lon="2.20722">
        <ele>4</ele>
        <time>2018-01-06T17:04:32Z</time>
      </trkpt>
      <trkpt lat="50.84096" lon="2.20731">
        <ele>4</ele>
        <time>2018-01-06T17:05:32Z</time>
      </trkpt>
      <trkpt lat="50.84068" lon="2.2075">
        <ele>4</ele>
        <time>2018-01-06T17:06:32Z</time>
      </trkpt>
      <trkpt lat="50.84044" lon="2.20768">
        <ele>4</ele>
        <time>2018-01-06T17:07:32Z</time>
      </trkpt>
      <trkpt lat="50.8404" lon="2.2077">
        <ele>3</ele>
        <time>2018-01-06T17:08:32Z</time>
      </trkpt>
      <trkpt lat="50.84038" lon="2.20771">
        <ele>3</ele>
        <time>2018-01-06T17:09:32Z</time>
      </trkpt>
      <trkpt lat="50.84036" lon="2.20771">
        <ele>3</ele>
        <time>2018-01-06T17:10:32Z</time>
      </trkpt>
      <trkpt lat="50.84034" lon="2.20771">
        <ele>3</ele>
        <time>2018-01-06T17:11:32Z</time>
      </trkpt>
      <trkpt lat="50.84032" lon="2.20771">
        <ele>3</ele>
        <time>2018-01-06T17:12:32Z</time>
      </trkpt>
      <trkpt lat="50.84031" lon="2.2077">
        <ele>3</ele>
        <time>2018-01-06T17:13:32Z</time>
      </trkpt>
      <trkpt lat="50.84029" lon="2.20769">
        <ele>3</ele>
        <time>2018-01-06T17:14:32Z</time>
      </trkpt>
      <trkpt lat="50.84027" lon="2.20767">
        <ele>3</ele>
        <time>2018-01-06T17:15:32Z</time>
      </trkpt>
      <trkpt lat="50.84025" lon="2.20764">
        <ele>3</ele>
        <time>2018-01-06T17:16:32Z</time>
      </trkpt>
      <trkpt lat="50.84022" lon="2.20759">
        <ele>3</ele>
        <time>2018-01-06T17:17:32Z</time>
      </trkpt>
      <trkpt lat="50.84013" lon="2.2074">
        <ele>3</ele>
        <time>2018-01-06T17:18:32Z</time>
      </trkpt>
      <trkpt lat="50.84013" lon="2.2074">
        <ele>3</ele>
        <time>2018-01-06T17:19:32Z</time>
      </trkpt>
      <trkpt lat="50.84001" lon="2.2075">
        <ele>3</ele>
        <time>2018-01-06T17:20:32Z</time>
      </trkpt>
      <trkpt lat="50.83987" lon="2.20763">
        <ele>3</ele>
        <time>2018-01-06T17:21:32Z</time>
      </trkpt>
      <trkpt lat="50.83973" lon="2.20777">
        <ele>4</ele>
        <time>2018-01-06T17:22:32Z</time>
      </trkpt>
      <trkpt lat="50.8396" lon="2.20793">
        <ele>4</ele>
        <time>2018-01-06T17:23:32Z</time>
      </trkpt>
      <trkpt lat="50.83948" lon="2.20809">
        <ele>4</ele>
        <time>2018-01-06T17:24:32Z</time>
      </trkpt>
      <trkpt lat="50.83937" lon="2.20825">
        <ele>3</ele>
        <time>2018-01-06T17:25:32Z</time>
      </trkpt>
      <trkpt lat="50.83913" lon="2.20862">
        <ele>3</ele>
        <time>2018-01-06T17:26:32Z</time>
      </trkpt>
      <trkpt lat="50.8391" lon="2.20867">
        <ele>3</ele>
        <time>2018-01-06T17:27:32Z</time>
      </trkpt>
      <trkpt lat="50.83896" lon="2.20892">
        <ele>3</ele>
        <time>2018-01-06T17:28:32Z</time>
      </trkpt>
      <trkpt lat="50.83883" lon="2.20917">
        <ele>3</ele>
        <time>2018-01-06T17:29:32Z</time>
      </trkpt>
      <trkpt lat="50.83879" lon="2.20923">
        <ele>3</ele>
        <time>2018-01-06T17:30:32Z</time>
      </trkpt>
      <trkpt lat="50.83849" lon="2.20977">
        <ele>3</ele>
        <time>2018-01-06T17:31:32Z</time>
      </trkpt>
      <trkpt lat="50.83819" lon="2.2103">
        <ele>4</ele>
        <time>2018-01-06T17:32:32Z</time>
      </trkpt>
      <trkpt lat="50.83771" lon="2.21119">
        <ele>4</ele>
        <time>2018-01-06T17:33:32Z</time>
      </trkpt>
      <trkpt lat="50.83762" lon="2.21133">
        <ele>4</ele>
        <time>2018-01-06T17:34:32Z</time>
      </trkpt>
      <trkpt lat="50.83755" lon="2.21145">
        <ele>4</ele>
        <time>2018-01-06T17:35:32Z</time>
      </trkpt>
      <trkpt lat="50.83747" lon="2.21157">
        <ele>4</ele>
        <time>2018-01-06T17:36:32Z</time>
      </trkpt>
      <trkpt lat="50.83736" lon="2.2117">
        <ele>4</ele>
        <time>2018-01-06T17:37:32Z</time>
      </trkpt>
      <trkpt lat="50.83722" lon="2.21185">
        <ele>4</ele>
        <time>2018-01-06T17:38:32Z</time>
      </trkpt>
      <trkpt lat="50.83714" lon="2.21192">
        <ele>4</ele>
        <time>2018-01-06T17:39:32Z</time>
      </trkpt>
      <trkpt lat="50.83703" lon="2.21201">
        <ele>4</ele>
        <time>2018-01-06T17:40:32Z</time>
      </trkpt>
      <trkpt lat="50.8368" lon="2.21215">
        <ele>4</ele>
        <time>2018-01-06T17:41:32Z</time>
      </trkpt>
      <trkpt lat="50.83673" lon="2.21219">
        <ele>4</ele>
        <time>2018-01-06T17:42:32Z</time>
      </trkpt>
      <trkpt lat="50.83667" lon="2.21222">
        <ele>4</ele>
        <time>2018-01-06T17:43:32Z</time>
      </trkpt>
      <trkpt lat="50.83659" lon="2.21225">
        <ele>4</ele>
        <time>2018-01-06T17:44:32Z</time>
      </trkpt>
      <trkpt lat="50.83653" lon="2.21226">
        <ele>4</ele>
        <time>2018-01-06T17:45:32Z</time>
      </trkpt>
      <trkpt lat="50.83647" lon="2.21228">
        <ele>4</ele>
        <time>2018-01-06T17:46:32Z</time>
      </trkpt>
      <trkpt lat="50.83638" lon="2.21229">
        <ele>4</ele>
        <time>2018-01-06T17:47:32Z</time>
      </trkpt>
      <trkpt lat="50.83629" lon="2.21229">
        <ele>4</ele>
        <time>2018-01-06T17:48:32Z</time>
      </trkpt>
      <trkpt lat="50.83621" lon="2.21228">
        <ele>4</ele>
        <time>2018-01-06T17:49:32Z</time>
      </trkpt>
      <trkpt lat="50.83615" lon="2.21227">
        <ele>4</ele>
        <time>2018-01-06T17:50:32Z</time>
      </trkpt>
      <trkpt lat="50.83605" lon="2.21224">
        <ele>4</ele>
        <time>2018-01-06T17:51:32Z</time>
      </trkpt>
      <trkpt lat="50.83589" lon="2.2122">
        <ele>4</ele>
        <time>2018-01-06T17:52:32Z</time>
      </trkpt>
      <trkpt lat="50.83561" lon="2.21212">
        <ele>4</ele>
        <time>2018-01-06T17:53:32Z</time>
      </trkpt>
      <trkpt lat="50.83541" lon="2.21205">
        <ele>4</ele>
        <time>2018-01-06T17:54:32Z</time>
      </trkpt>
      <trkpt lat="50.83534" lon="2.21203">
        <ele>4</ele>
        <time>2018-01-06T17:55:32Z</time>
      </trkpt>
      <trkpt lat="50.83519" lon="2.21198">
        <ele>4</ele>
        <time>2018-01-06T17:56:32Z</time>
      </trkpt>
      <trkpt lat="50.83497" lon="2.21191">
        <ele>4</ele>
        <time>2018-01-06T17:57:32Z</time>
      </trkpt>
      <trkpt lat="50.8349" lon="2.2119">
        <ele>4</ele>
        <time>2018-01-06T17:58:32Z</time>
      </trkpt>
      <trkpt lat="50.83459" lon="2.21183">
        <ele>4</ele>
        <time>2018-01-06T17:59:32Z</time>
      </trkpt>
      <trkpt lat="50.83415" lon="2.21171">
        <ele>5</ele>
        <time>2018-01-06T18:00:32Z</time>
      </trkpt>
      <trkpt lat="50.83389" lon="2.21158">
        <ele>5</ele>
        <time>2018-01-06T18:01:32Z</time>
      </trkpt>
      <trkpt lat="50.83377" lon="2.21152">
        <ele>5</ele>
        <time>2018-01-06T18:02:32Z</time>
      </trkpt>
      <trkpt lat="50.8336" lon="2.21147">
        <ele>6</ele>
        <time>2018-01-06T18:03:32Z</time>
      </trkpt>
      <trkpt lat="50.83354" lon="2.21145">
        <ele>6</ele>
        <time>2018-01-06T18:04:32Z</time>
      </trkpt>
      <trkpt lat="50.83348" lon="2.21144">
        <ele>6</ele>
        <time>2018-01-06T18:05:32Z</time>
      </trkpt>
      <trkpt lat="50.83336" lon="2.21142">
        <ele>6</ele>
        <time>2018-01-06T18:06:32Z</time>
      </trkpt>
      <trkpt lat="50.83312" lon="2.21139">
        <ele>6</ele>
        <time>2018-01-06T18:07:32Z</time>
      </trkpt>
      <trkpt lat="50.83305" lon="2.21138">
        <ele>6</ele>
        <time>2018-01-06T18:08:32Z</time>
      </trkpt>
      <trkpt lat="50.83266" lon="2.21133">
        <ele>7</ele>
        <time>2018-01-06T18:09:32Z</time>
      </trkpt>
      <trkpt lat="50.83251" lon="2.2113">
        <ele>7</ele>
        <time>2018-01-06T18:10:32Z</time>
      </trkpt>
      <trkpt lat="50.8323" lon="2.21126">
        <ele>7</ele>
        <time>2018-01-06T18:11:32Z</time>
      </trkpt>
      <trkpt lat="50.83207" lon="2.21122">
        <ele>7</ele>
        <time>2018-01-06T18:12:32Z</time>
      </trkpt>
      <trkpt lat="50.83207" lon="2.21122">
        <ele>7</ele>
        <time>2018-01-06T18:13:32Z</time>
      </trkpt>
      <trkpt lat="50.83165" lon="2.21109">
        <ele>8</ele>
        <time>2018-01-06T18:14:32Z</time>
      </trkpt>
      <trkpt lat="50.83133" lon="2.21102">
        <ele>7</ele>
        <time>2018-01-06T18:15:32Z</time>
      </trkpt>
      <trkpt lat="50.83105" lon="2.21093">
        <ele>7</ele>
        <time>2018-01-06T18:16:32Z</time>
      </trkpt>
      <trkpt lat="50.83091" lon="2.21087">
        <ele>6</ele>
        <time>2018-01-06T18:17:32Z</time>
      </trkpt>
      <trkpt lat="50.83086" lon="2.21085">
        <ele>6</ele>
        <time>2018-01-06T18:18:32Z</time>
      </trkpt>
      <trkpt lat="50.83081" lon="2.21082">
        <ele>6</ele>
        <time>2018-01-06T18:19:32Z</time>
      </trkpt>
      <trkpt lat="50.83076" lon="2.21078">
        <ele>6</ele>
        <time>2018-01-06T18:20:32Z</time>
      </trkpt>
      <trkpt lat="50.83072" lon="2.21075">
        <ele>6</ele>
        <time>2018-01-06T18:21:32Z</time>
      </trkpt>
      <trkpt lat="50.83068" lon="2.21072">
        <ele>6</ele>
        <time>2018-01-06T18:22:32Z</time>
      </trkpt>
      <trkpt lat="50.83062" lon="2.21066">
        <ele>6</ele>
        <time>2018-01-06T18:23:32Z</time>
      </trkpt>
      <trkpt lat="50.83056" lon="2.2106">
        <ele>5</ele>
        <time>2018-01-06T18:24:32Z</time>
      </trkpt>
      <trkpt lat="50.83042" lon="2.21044">
        <ele>5</ele>
        <time>2018-01-06T18:25:32Z</time>
      </trkpt>
      <trkpt lat="50.83034" lon="2.21035">
        <ele>5</ele>
        <time>2018-01-06T18:26:32Z</time>
      </trkpt>
      <trkpt lat="50.8303" lon="2.21031">
        <ele>5</ele>
        <time>2018-01-06T18:27:32Z</time>
      </trkpt>
      <trkpt lat="50.83028" lon="2.2103">
        <ele>5</ele>
        <time>2018-01-06T18:28:32Z</time>
      </trkpt>
      <trkpt lat="50.83028" lon="2.21029">
        <ele>5</ele>
        <time>2018-01-06T18:29:32Z</time>
      </trkpt>
      <trkpt lat="50.83021" lon="2.21023">
        <ele>5</ele>
        <time>2018-01-06T18:30:32Z</time>
      </trkpt>
      <trkpt lat="50.83015" lon="2.21016">
        <ele>4</ele>
        <time>2018-01-06T18:31:32Z</time>
      </trkpt>
      <trkpt lat="50.82989" lon="2.20985">
        <ele>4</ele>
        <time>2018-01-06T18:32:32Z</time>
      </trkpt>
      <trkpt lat="50.82988" lon="2.20984">
        <ele>4</ele>
        <time>2018-01-06T18:33:32Z</time>
      </trkpt>
      <trkpt lat="50.82986" lon="2.20983">
        <ele>4</ele>
        <time>2018-01-06T18:34:32Z</time>
      </trkpt>
      <trkpt lat="50.82985" lon="2.20981">
        <ele>4</ele>
        <time>2018-01-06T18:35:32Z</time>
      </trkpt>
      <trkpt lat="50.82983" lon="2.20981">
        <ele>4</ele>
        <time>2018-01-06T18:36:32Z</time>
      </trkpt>
      <trkpt lat="50.82982" lon="2.2098">
        <ele>4</ele>
        <time>2018-01-06T18:37:32Z</time>
      </trkpt>
      <trkpt lat="50.8298" lon="2.2098">
        <ele>4</ele>
        <time>2018-01-06T18:38:32Z</time>
      </trkpt>
      <trkpt lat="50.82977" lon="2.2098">
        <ele>4</ele>
        <time>2018-01-06T18:39:32Z</time>
      </trkpt>
      <trkpt lat="50.82975" lon="2.2098">
        <ele>4</ele>
        <time>2018-01-06T18:40:32Z</time>
      </trkpt>
      <trkpt lat="50.82972" lon="2.20981">
        <ele>4</ele>
        <time>2018-01-06T18:41:32Z</time>
      </trkpt>
      <trkpt lat="50.8297" lon="2.20982">
        <ele>4</ele>
        <time>2018-01-06T18:42:32Z</time>
      </trkpt>
      <trkpt lat="50.82953" lon="2.20989">
        <ele>4</ele>
        <time>2018-01-06T18:43:32Z</time>
      </trkpt>
      <trkpt lat="50.82947" lon="2.20992">
        <ele>4</ele>
        <time>2018-01-06T18:44:32Z</time>
      </trkpt>
      <trkpt lat="50.82942" lon="2.20993">
        <ele>4</ele>
        <time>2018-01-06T18:45:32Z</time>
      </trkpt>
      <trkpt lat="50.82937" lon="2.20995">
        <ele>4</ele>
        <time>2018-01-06T18:46:32Z</time>
      </trkpt>
      <trkpt lat="50.8292" lon="2.20999">
        <ele>4</ele>
        <time>2018-01-06T18:47:32Z</time>
      </trkpt>
      <trkpt lat="50.82909" lon="2.21001">
        <ele>4</ele>
        <time>2018-01-06T18:48:32Z</time>
      </trkpt>
      <trkpt lat="50.82896" lon="2.21002">
        <ele>4</ele>
        <time>2018-01-06T18:49:32Z</time>
      </trkpt>
      <trkpt lat="50.82883" lon="2.21002">
        <ele>4</ele>
        <time>2018-01-06T18:50:32Z</time>
      </trkpt>
      <trkpt lat="50.82866" lon="2.21002">
        <ele>3</ele>
        <time>2018-01-06T18:51:32Z</time>
      </trkpt>
      <trkpt lat="50.82833" lon="2.21001">
        <ele>3</ele>
        <time>2018-01-06T18:52:32Z</time>
      </trkpt>
      <trkpt lat="50.82824" lon="2.21001">
        <ele>3</ele>
        <time>2018-01-06T18:53:32Z</time>
      </trkpt>
      <trkpt lat="50.82816" lon="2.21002">
        <ele>3</ele>
        <time>2018-01-06T18:54:32Z</time>
      </trkpt>
      <trkpt lat="50.82809" lon="2.21003">
        <ele>3</ele>
        <time>2018-01-06T18:55:32Z</time>
      </trkpt>
      <trkpt lat="50.82756" lon="2.21013">
        <ele>4</ele>
        <time>2018-01-06T18:56:32Z</time>
      </trkpt>
      <trkpt lat="50.82745" lon="2.21017">
        <ele>4</ele>
        <time>2018-01-06T18:57:32Z</time>
      </trkpt>
      <trkpt lat="50.82735" lon="2.2102">
        <ele>4</ele>
        <time>2018-01-06T18:58:32Z</time>
      </trkpt>
      <trkpt lat="50.82722" lon="2.21026">
        <ele>4</ele>
        <time>2018-01-06T18:59:32Z</time>
      </trkpt>
      <trkpt lat="50.82715" lon="2.21029">
        <ele>4</ele>
        <time>2018-01-06T19:00:32Z</time>
      </trkpt>
      <trkpt lat="50.82709" lon="2.21032">
        <ele>4</ele>
        <time>2018-01-06T19:01:32Z</time>
      </trkpt>
      <trkpt lat="50.82698" lon="2.21038">
        <ele>4</ele>
        <time>2018-01-06T19:02:32Z</time>
      </trkpt>
      <trkpt lat="50.82687" lon="2.21045">
        <ele>4</ele>
        <time>2018-01-06T19:03:32Z</time>
      </trkpt>
      <trkpt lat="50.82617" lon="2.21089">
        <ele>3</ele>
        <time>2018-01-06T19:04:32Z</time>
      </trkpt>
      <trkpt lat="50.82592" lon="2.21108">
        <ele>2</ele>
        <time>2018-01-06T19:05:32Z</time>
      </trkpt>
      <trkpt lat="50.82573" lon="2.21121">
        <ele>3</ele>
        <time>2018-01-06T19:06:32Z</time>
      </trkpt>
      <trkpt lat="50.82556" lon="2.21133">
        <ele>3</ele>
        <time>2018-01-06T19:07:32Z</time>
      </trkpt>
      <trkpt lat="50.82548" lon="2.21138">
        <ele>3</ele>
        <time>2018-01-06T19:08:32Z</time>
      </trkpt>
      <trkpt lat="50.82531" lon="2.21147">
        <ele>3</ele>
        <time>2018-01-06T19:09:32Z</time>
      </trkpt>
      <trkpt lat="50.82515" lon="2.21156">
        <ele>3</ele>
        <time>2018-01-06T19:10:32Z</time>
      </trkpt>
      <trkpt lat="50.82508" lon="2.2116">
        <ele>3</ele>
        <time>2018-01-06T19:11:32Z</time>
      </trkpt>
      <trkpt lat="50.82499" lon="2.21166">
        <ele>3</ele>
        <time>2018-01-06T19:12:32Z</time>
      </trkpt>
      <trkpt lat="50.82464" lon="2.21193">
        <ele>4</ele>
        <time>2018-01-06T19:13:32Z</time>
      </trkpt>
      <trkpt lat="50.82442" lon="2.2121">
        <ele>4</ele>
        <time>2018-01-06T19:14:32Z</time>
      </trkpt>
      <trkpt lat="50.82415" lon="2.21232">
        <ele>4</ele>
        <time>2018-01-06T19:15:32Z</time>
      </trkpt>
      <trkpt lat="50.8238" lon="2.21263">
        <ele>3</ele>
        <time>2018-01-06T19:16:32Z</time>
      </trkpt>
      <trkpt lat="50.82347" lon="2.2129">
        <ele>3</ele>
        <time>2018-01-06T19:17:32Z</time>
      </trkpt>
      <trkpt lat="50.823" lon="2.21329">
        <ele>3</ele>
        <time>2018-01-06T19:18:32Z</time>
      </trkpt>
      <trkpt lat="50.82246" lon="2.21374">
        <ele>3</ele>
        <time>2018-01-06T19:19:32Z</time>
      </trkpt>
      <trkpt lat="50.8219" lon="2.21419">
        <ele>3</ele>
        <time>2018-01-06T19:20:32Z</time>
      </trkpt>
      <trkpt lat="50.82188" lon="2.21421">
        <ele>3</ele>
        <time>2018-01-06T19:21:32Z</time>
      </trkpt>
      <trkpt lat="50.82146" lon="2.21456">
        <ele>2</ele>
        <time>2018-01-06T19:22:32Z</time>
      </trkpt>
      <trkpt lat="50.82115" lon="2.21482">
        <ele>2</ele>
        <time>2018-01-06T19:23:32Z</time>
      </trkpt>
      <trkpt lat="50.82087" lon="2.21503">
        <ele>2</ele>
        <time>2018-01-06T19:24:32Z</time>
      </trkpt>
      <trkpt lat="50.82059" lon="2.21521">
        <ele>2</ele>
        <time>2018-01-06T19:25:32Z</time>
      </trkpt>
      <trkpt lat="50.82044" lon="2.21529">
        <ele>2</ele>
        <time>2018-01-06T19:26:32Z</time>
      </trkpt>
      <trkpt lat="50.82027" lon="2.21539">
        <ele>2</ele>
        <time>2018-01-06T19:27:32Z</time>
      </trkpt>
      <trkpt lat="50.82015" lon="2.21545">
        <ele>2</ele>
        <time>2018-01-06T19:28:32Z</time>
      </trkpt>
      <trkpt lat="50.81991" lon="2.21558">
        <ele>2</ele>
        <time>2018-01-06T19:29:32Z</time>
      </trkpt>
      <trkpt lat="50.81935" lon="2.21585">
        <ele>2</ele>
        <time>2018-01-06T19:30:32Z</time>
      </trkpt>
      <trkpt lat="50.81907" lon="2.21598">
        <ele>2</ele>
        <time>2018-01-06T19:31:32Z</time>
      </trkpt>
      <trkpt lat="50.81892" lon="2.21604">
        <ele>3</ele>
        <time>2018-01-06T19:32:32Z</time>
      </trkpt>
      <trkpt lat="50.81875" lon="2.2161">
        <ele>3</ele>
        <time>2018-01-06T19:33:32Z</time>
      </trkpt>
      <trkpt lat="50.81834" lon="2.21623">
        <ele>3</ele>
        <time>2018-01-06T19:34:32Z</time>
      </trkpt>
      <trkpt lat="50.81817" lon="2.21628">
        <ele>3</ele>
        <time>2018-01-06T19:35:32Z</time>
      </trkpt>
      <trkpt lat="50.81793" lon="2.21635">
        <ele>3</ele>
        <time>2018-01-06T19:36:32Z</time>
      </trkpt>
      <trkpt lat="50.81754" lon="2.21646">
        <ele>3</ele>
        <time>2018-01-06T19:37:32Z</time>
      </trkpt>
      <trkpt lat="50.81731" lon="2.21654">
        <ele>3</ele>
        <time>2018-01-06T19:38:32Z</time>
      </trkpt>
      <trkpt lat="50.81723" lon="2.21656">
        <ele>3</ele>
        <time>2018-01-06T19:39:32Z</time>
      </trkpt>
      <trkpt lat="50.81688" lon="2.21667">
        <ele>3</ele>
        <time>2018-01-06T19:40:32Z</time>
      </trkpt>
      <trkpt lat="50.8168" lon="2.21669">
        <ele>3</ele>
        <time>2018-01-06T19:41:32Z</time>
      </trkpt>
      <trkpt lat="50.81662" lon="2.21674">
        <ele>3</ele>
        <time>2018-01-06T19:42:32Z</time>
      </trkpt>
      <trkpt lat="50.81644" lon="2.21679">
        <ele>3</ele>
        <time>2018-01-06T19:43:32Z</time>
      </trkpt>
      <trkpt lat="50.81611" lon="2.2169">
        <ele>3</ele>
        <time>2018-01-06T19:44:32Z</time>
      </trkpt>
      <trkpt lat="50.81582" lon="2.217">
        <ele>3</ele>
        <time>2018-01-06T19:45:32Z</time>
      </trkpt>
      <trkpt lat="50.81552" lon="2.21712">
        <ele>2</ele>
        <time>2018-01-06T19:46:32Z</time>
      </trkpt>
      <trkpt lat="50.81525" lon="2.21724">
        <ele>2</ele>
        <time>2018-01-06T19:47:32Z</time>
      </trkpt>
      <trkpt lat="50.81521" lon="2.21726">
        <ele>2</ele>
        <time>2018-01-06T19:48:32Z</time>
      </trkpt>
      <trkpt lat="50.81502" lon="2.21735">
        <ele>1</ele>
        <time>2018-01-06T19:49:32Z</time>
      </trkpt>
      <trkpt lat="50.81492" lon="2.2174">
        <ele>1</ele>
        <time>2018-01-06T19:50:32Z</time>
      </trkpt>
      <trkpt lat="50.81475" lon="2.21747">
        <ele>2</ele>
        <time>2018-01-06T19:51:32Z</time>
      </trkpt>
      <trkpt lat="50.8147" lon="2.21749">
        <ele>2</ele>
        <time>2018-01-06T19:52:32Z</time>
      </trkpt>
      <trkpt lat="50.81459" lon="2.21754">
        <ele>2</ele>
        <time>2018-01-06T19:53:32Z</time>
      </trkpt>
      <trkpt lat="50.81431" lon="2.21765">
        <ele>3</ele>
        <time>2018-01-06T19:54:32Z</time>
      </trkpt>
      <trkpt lat="50.81426" lon="2.21766">
        <ele>3</ele>
        <time>2018-01-06T19:55:32Z</time>
      </trkpt>
      <trkpt lat="50.81422" lon="2.21767">
        <ele>3</ele>
        <time>2018-01-06T19:56:32Z</time>
      </trkpt>
      <trkpt lat="50.81415" lon="2.21769">
        <ele>3</ele>
        <time>2018-01-06T19:57:32Z</time>
      </trkpt>
      <trkpt lat="50.81395" lon="2.21773">
        <ele>3</ele>
        <time>2018-01-06T19:58:32Z</time>
      </trkpt>
      <trkpt lat="50.8139" lon="2.21774">
        <ele>3</ele>
        <time>2018-01-06T19:59:32Z</time>
      </trkpt>
      <trkpt lat="50.81361" lon="2.21781">
        <ele>3</ele>
        <time>2018-01-06T20:00:32Z</time>
      </trkpt>
      <trkpt lat="50.81338" lon="2.21784">
        <ele>3</ele>
        <time>2018-01-06T20:01:32Z</time>
      </trkpt>
      <trkpt lat="50.81318" lon="2.21787">
        <ele>3</ele>
        <time>2018-01-06T20:02:32Z</time>
      </trkpt>
      <trkpt lat="50.81279" lon="2.21794">
        <ele>3</ele>
        <time>2018-01-06T20:03:32Z</time>
      </trkpt>
      <trkpt lat="50.8126" lon="2.21799">
        <ele>2</ele>
        <time>2018-01-06T20:04:32Z</time>
      </trkpt>
      <trkpt lat="50.81243" lon="2.21806">
        <ele>2</ele>
        <time>2018-01-06T20:05:32Z</time>
      </trkpt>
      <trkpt lat="50.81225" lon="2.21818">
        <ele>3</ele>
        <time>2018-01-06T20:06:32Z</time>
      </trkpt>
      <trkpt lat="50.81204" lon="2.21838">
        <ele>3</ele>
        <time>2018-01-06T20:07:32Z</time>
      </trkpt>
      <trkpt lat="50.81185" lon="2.21859">
        <ele>3</ele>
        <time>2018-01-06T20:08:32Z</time>
      </trkpt>
      <trkpt lat="50.8117" lon="2.21881">
        <ele>3</ele>
        <time>2018-01-06T20:09:32Z</time>
      </trkpt>
      <trkpt lat="50.81165" lon="2.2189">
        <ele>3</ele>
        <time>2018-01-06T20:10:32Z</time>
      </trkpt>
      <trkpt lat="50.81156" lon="2.21907">
        <ele>3</ele>
        <time>2018-01-06T20:11:32Z</time>
      </trkpt>
      <trkpt lat="50.81151" lon="2.21917">
        <ele>3</ele>
        <time>2018-01-06T20:12:32Z</time>
      </trkpt>
      <trkpt lat="50.81137" lon="2.21948">
        <ele>3</ele>
        <time>2018-01-06T20:13:32Z</time>
      </trkpt>
      <trkpt lat="50.81126" lon="2.21978">
        <ele>3</ele>
        <time>2018-01-06T20:14:32Z</time>
      </trkpt>
      <trkpt lat="50.8112" lon="2.21991">
        <ele>3</ele>
        <time>2018-01-06T20:15:32Z</time>
      </trkpt>
      <trkpt lat="50.81109" lon="2.22011">
        <ele>3</ele>
        <time>2018-01-06T20:16:32Z</time>
      </trkpt>
      <trkpt lat="50.81093" lon="2.22038">
        <ele>3</ele>
        <time>2018-01-06T20:17:32Z</time>
      </trkpt>
      <trkpt lat="50.81061" lon="2.22079">
        <ele>3</ele>
        <time>2018-01-06T20:18:32Z</time>
      </trkpt>
      <trkpt lat="50.81032" lon="2.22116">
        <ele>3</ele>
        <time>2018-01-06T20:19:32Z</time>
      </trkpt>
      <trkpt lat="50.80999" lon="2.22158">
        <ele>3</ele>
        <time>2018-01-06T20:20:32Z</time>
      </trkpt>
      <trkpt lat="50.8097" lon="2.22205">
        <ele>3</ele>
        <time>2018-01-06T20:21:32Z</time>
      </trkpt>
      <trkpt lat="50.80937" lon="2.22258">
        <ele>2</ele>
        <time>2018-01-06T20:22:32Z</time>
      </trkpt>
      <trkpt lat="50.80912" lon="2.22305">
        <ele>2</ele>
        <time>2018-01-06T20:23:32Z</time>
      </trkpt>
      <trkpt lat="50.80886" lon="2.22354">
        <ele>2</ele>
        <time>2018-01-06T20:24:32Z</time>
      </trkpt>
      <trkpt lat="50.80864" lon="2.22396">
        <ele>1</ele>
        <time>2018-01-06T20:25:32Z</time>
      </trkpt>
      <trkpt lat="50.80864" lon="2.22398">
        <ele>1</ele>
        <time>2018-01-06T20:26:32Z</time>
      </trkpt>
      <trkpt lat="50.80841" lon="2.22446">
        <ele>1</ele>
        <time>2018-01-06T20:27:32Z</time>
      </trkpt>
      <trkpt lat="50.80818" lon="2.22502">
        <ele>2</ele>
        <time>2018-01-06T20:28:32Z</time>
      </trkpt>
      <trkpt lat="50.80798" lon="2.22552">
        <ele>2</ele>
        <time>2018-01-06T20:29:32Z</time>
      </trkpt>
      <trkpt lat="50.80796" lon="2.22557">
        <ele>2</ele>
        <time>2018-01-06T20:30:32Z</time>
      </trkpt>
      <trkpt lat="50.80771" lon="2.2263">
        <ele>3</ele>
        <time>2018-01-06T20:31:32Z</time>
      </trkpt>
      <trkpt lat="50.80757" lon="2.2267">
        <ele>3</ele>
        <time>2018-01-06T20:32:32Z</time>
      </trkpt>
      <trkpt lat="50.80747" lon="2.22699">
        <ele>3</ele>
        <time>2018-01-06T20:33:32Z</time>
      </trkpt>
      <trkpt lat="50.80746" lon="2.22701">
        <ele>3</ele>
        <time>2018-01-06T20:34:32Z</time>
      </trkpt>
      <trkpt lat="50.80732" lon="2.22745">
        <ele>3</ele>
        <time>2018-01-06T20:35:32Z</time>
      </trkpt>
      <trkpt lat="50.80712" lon="2.22801">
        <ele>4</ele>
        <time>2018-01-06T20:36:32Z</time>
      </trkpt>
      <trkpt lat="50.80673" lon="2.22915">
        <ele>4</ele>
        <time>2018-01-06T20:37:32Z</time>
      </trkpt>
      <trkpt lat="50.80653" lon="2.22973">
        <ele>4</ele>
        <time>2018-01-06T20:38:32Z</time>
      </trkpt>
      <trkpt lat="50.80645" lon="2.22994">
        <ele>4</ele>
        <time>2018-01-06T20:39:32Z</time>
      </trkpt>
      <trkpt lat="50.80619" lon="2.23064">
        <ele>3</ele>
        <time>2018-01-06T20:40:32Z</time>
      </trkpt>
      <trkpt lat="50.80587" lon="2.23142">
        <ele>3</ele>
        <time>2018-01-06T20:41:32Z</time>
      </trkpt>
      <trkpt lat="50.80555" lon="2.23206">
        <ele>4</ele>
        <time>2018-01-06T20:42:32Z</time>
      </trkpt>
      <trkpt lat="50.8055" lon="2.23216">
        <ele>4</ele>
        <time>2018-01-06T20:43:32Z</time>
      </trkpt>
      <trkpt lat="50.80516" lon="2.2328">
        <ele>3</ele>
        <time>2018-01-06T20:44:32Z</time>
      </trkpt>
      <trkpt lat="50.80481" lon="2.23338">
        <ele>3</ele>
        <time>2018-01-06T20:45:32Z</time>
      </trkpt>
      <trkpt lat="50.80447" lon="2.23392">
        <ele>3</ele>
        <time>2018-01-06T20:46:32Z</time>
      </trkpt>
      <trkpt lat="50.80413" lon="2.23441">
        <ele>3</ele>
        <time>2018-01-06T20:47:32Z</time>
      </trkpt>
      <trkpt lat="50.80382" lon="2.2348">
        <ele>3</ele>
        <time>2018-01-06T20:48:32Z</time>
      </trkpt>
      <trkpt lat="50.80376" lon="2.23487">
        <ele>3</ele>
        <time>2018-01-06T20:49:32Z</time>
      </trkpt>
      <trkpt lat="50.80366" lon="2.235">
        <ele>2</ele>
        <time>2018-01-06T20:50:32Z</time>
      </trkpt>
      <trkpt lat="50.80343" lon="2.23528">
        <ele>2</ele>
        <time>2018-01-06T20:51:32Z</time>
      </trkpt>
      <trkpt lat="50.80313" lon="2.2356">
        <ele>2</ele>
        <time>2018-01-06T20:52:32Z</time>
      </trkpt>
      <trkpt lat="50.80286" lon="2.23589">
        <ele>3</ele>
        <time>2018-01-06T20:53:32Z</time>
      </trkpt>
      <trkpt lat="50.80283" lon="2.23591">
        <ele>3</ele>
        <time>2018-01-06T20:54:32Z</time>
      </trkpt>
      <trkpt lat="50.8025" lon="2.23624">
        <ele>3</ele>
        <time>2018-01-06T20:55:32Z</time>
      </trkpt>
      <trkpt lat="50.80209" lon="2.23661">
        <ele>3</ele>
        <time>2018-01-06T20:56:32Z</time>
      </trkpt>
      <trkpt lat="50.80175" lon="2.2369">
        <ele>2</ele>
        <time>2018-01-06T20:57:32Z</time>
      </trkpt>
      <trkpt lat="50.80142" lon="2.23714">
        <ele>2</ele>
        <time>2018-01-06T20:58:32Z</time>
      </trkpt>
      <trkpt lat="50.80074" lon="2.23758">
        <ele>4</ele>
        <time>2018-01-06T20:59:32Z</time>
      </trkpt>
      <trkpt lat="50.80038" lon="2.23786">
        <ele>4</ele>
        <time>2018-01-06T21:00:32Z</time>
      </trkpt>
      <trkpt lat="50.80004" lon="2.23813">
        <ele>5</ele>
        <time>2018-01-06T21:01:32Z</time>
      </trkpt>
      <trkpt lat="50.79968" lon="2.23844">
        <ele>5</ele>
        <time>2018-01-06T21:02:32Z</time>
      </trkpt>
      <trkpt lat="50.79931" lon="2.23879">
        <ele>5</ele>
        <time>2018-01-06T21:03:32Z</time>
      </trkpt>
      <trkpt lat="50.79927" lon="2.23883">
        <ele>5</ele>
        <time>2018-01-06T21:04:32Z</time>
      </trkpt>
      <trkpt lat="50.79906" lon="2.23907">
        <ele>4</ele>
        <time>2018-01-06T21:05:32Z</time>
      </trkpt>
      <trkpt lat="50.79881" lon="2.23932">
        <ele>3</ele>
        <time>2018-01-06T21:06:32Z</time>
      </trkpt>
      <trkpt lat="50.79851" lon="2.23969">
        <ele>2</ele>
        <time>2018-01-06T21:07:32Z</time>
      </trkpt>
      <trkpt lat="50.79834" lon="2.2399">
        <ele>2</ele>
        <time>2018-01-06T21:08:32Z</time>
      </trkpt>
      <trkpt lat="50.79819" lon="2.24009">
        <ele>2</ele>
        <time>2018-01-06T21:09:32Z</time>
      </trkpt>
      <trkpt lat="50.79812" lon="2.24018">
        <ele>2</ele>
        <time>2018-01-06T21:10:32Z</time>
      </trkpt>
      <trkpt lat="50.79761" lon="2.24078">
        <ele>2</ele>
        <time>2018-01-06T21:11:32Z</time>
      </trkpt>
      <trkpt lat="50.79712" lon="2.24137">
        <ele>3</ele>
        <time>2018-01-06T21:12:32Z</time>
      </trkpt>
      <trkpt lat="50.79667" lon="2.24193">
        <ele>3</ele>
        <time>2018-01-06T21:13:32Z</time>
      </trkpt>
      <trkpt lat="50.79632" lon="2.24235">
        <ele>4</ele>
        <time>2018-01-06T21:14:32Z</time>
      </trkpt>
      <trkpt lat="50.79625" lon="2.24243">
        <ele>4</ele>
        <time>2018-01-06T21:15:32Z</time>
      </trkpt>
      <trkpt lat="50.79588" lon="2.2429">
        <ele>4</ele>
        <time>2018-01-06T21:16:32Z</time>
      </trkpt>
      <trkpt lat="50.79509" lon="2.24386">
        <ele>2</ele>
        <time>2018-01-06T21:17:32Z</time>
      </trkpt>
      <trkpt lat="50.79469" lon="2.24436">
        <ele>2</ele>
        <time>2018-01-06T21:18:32Z</time>
      </trkpt>
      <trkpt lat="50.79469" lon="2.24436">
        <ele>2</ele>
        <time>2018-01-06T21:19:32Z</time>
      </trkpt>
      <trkpt lat="50.79428" lon="2.24485">
        <ele>1</ele>
        <time>2018-01-06T21:20:32Z</time>
      </trkpt>
      <trkpt lat="50.79368" lon="2.24557">
        <ele>2</ele>
        <time>2018-01-06T21:21:32Z</time>
      </trkpt>
      <trkpt lat="50.79354" lon="2.24574">
        <ele>2</ele>
        <time>2018-01-06T21:22:32Z</time>
      </trkpt>
      <trkpt lat="50.79336" lon="2.24592">
        <ele>2</ele>
        <time>2018-01-06T21:23:32Z</time>
      </trkpt>
      <trkpt lat="50.79327" lon="2.24599">
        <ele>2</ele>
        <time>2018-01-06T21:24:32Z</time>
      </trkpt>
      <trkpt lat="50.7931" lon="2.24611">
        <ele>2</ele>
        <time>2018-01-06T21:25:32Z</time>
      </trkpt>
      <trkpt lat="50.79294" lon="2.24621">
        <ele>2</ele>
        <time>2018-01-06T21:26:32Z</time>
      </trkpt>
      <trkpt lat="50.79196" lon="2.24683">
        <ele>2</ele>
        <time>2018-01-06T21:27:32Z</time>
      </trkpt>
      <trkpt lat="50.79101" lon="2.24744">
        <ele>3</ele>
        <time>2018-01-06T21:28:32Z</time>
      </trkpt>
      <trkpt lat="50.79092" lon="2.2475">
        <ele>3</ele>
        <time>2018-01-06T21:29:32Z</time>
      </trkpt>
      <trkpt lat="50.79066" lon="2.24766">
        <ele>3</ele>
        <time>2018-01-06T21:30:32Z</time>
      </trkpt>
      <trkpt lat="50.7901" lon="2.24802">
        <ele>2</ele>
        <time>2018-01-06T21:31:32Z</time>
      </trkpt>
      <trkpt lat="50.7896" lon="2.24833">
        <ele>2</ele>
        <time>2018-01-06T21:32:32Z</time>
      </trkpt>
      <trkpt lat="50.7894" lon="2.24846">
        <ele>2</ele>
        <time>2018-01-06T21:33:32Z</time>
      </trkpt>
      <trkpt lat="50.7893" lon="2.24854">
        <ele>2</ele>
        <time>2018-01-06T21:34:32Z</time>
      </trkpt>
      <trkpt lat="50.78925" lon="2.2486">
        <ele>2</ele>
        <time>2018-01-06T21:35:32Z</time>
      </trkpt>
      <trkpt lat="50.78919" lon="2.24867">
        <ele>2</ele>
        <time>2018-01-06T21:36:32Z</time>
      </trkpt>
      <trkpt lat="50.78913" lon="2.24877">
        <ele>2</ele>
        <time>2018-01-06T21:37:32Z</time>
      </trkpt>
      <trkpt lat="50.78908" lon="2.24886">
        <ele>3</ele>
        <time>2018-01-06T21:38:32Z</time>
      </trkpt>
      <trkpt lat="50.78903" lon="2.24895">
        <ele>3</ele>
        <time>2018-01-06T21:39:32Z</time>
      </trkpt>
      <trkpt lat="50.78898" lon="2.24899">
        <ele>3</ele>
        <time>2018-01-06T21:40:32Z</time>
      </trkpt>
      <trkpt lat="50.78892" lon="2.24909">
        <ele>3</ele>
        <time>2018-01-06T21:41:32Z</time>
      </trkpt>
      <trkpt lat="50.78885" lon="2.24917">
        <ele>3</ele>
        <time>2018-01-06T21:42:32Z</time>
      </trkpt>
      <trkpt lat="50.7888" lon="2.24922">
        <ele>3</ele>
        <time>2018-01-06T21:43:32Z</time>
      </trkpt>
      <trkpt lat="50.7888" lon="2.24922">
        <ele>3</ele>
        <time>2018-01-06T21:44:32Z</time>
      </trkpt>
      <trkpt lat="50.78879" lon="2.24922">
        <ele>3</ele>
        <time>2018-01-06T21:45:32Z</time>
      </trkpt>
      <trkpt lat="50.78877" lon="2.24922">
        <ele>3</ele>
        <time>2018-01-06T21:46:32Z</time>
      </trkpt>
      <trkpt lat="50.78875" lon="2.24923">
        <ele>3</ele>
        <time>2018-01-06T21:47:32Z</time>
      </trkpt>
      <trkpt lat="50.78874" lon="2.24923">
        <ele>3</ele>
        <time>2018-01-06T21:48:32Z</time>
      </trkpt>
      <trkpt lat="50.78872" lon="2.24924">
        <ele>3</ele>
        <time>2018-01-06T21:49:32Z</time>
      </trkpt>
      <trkpt lat="50.7887" lon="2.24925">
        <ele>3</ele>
        <time>2018-01-06T21:50:32Z</time>
      </trkpt>
      <trkpt lat="50.78869" lon="2.24926">
        <ele>3</ele>
        <time>2018-01-06T21:51:32Z</time>
      </trkpt>
      <trkpt lat="50.78867" lon="2.24928">
        <ele>3</ele>
        <time>2018-01-06T21:52:32Z</time>
      </trkpt>
      <trkpt lat="50.78866" lon="2.24929">
        <ele>3</ele>
        <time>2018-01-06T21:53:32Z</time>
      </trkpt>
      <trkpt lat="50.78865" lon="2.24931">
        <ele>3</ele>
        <time>2018-01-06T21:54:32Z</time>
      </trkpt>
      <trkpt lat="50.78864" lon="2.24933">
        <ele>3</ele>
        <time>2018-01-06T21:55:32Z</time>
      </trkpt>
      <trkpt lat="50.78863" lon="2.24935">
        <ele>3</ele>
        <time>2018-01-06T21:56:32Z</time>
      </trkpt>
      <trkpt lat="50.78862" lon="2.24938">
        <ele>3</ele>
        <time>2018-01-06T21:57:32Z</time>
      </trkpt>
      <trkpt lat="50.78861" lon="2.2494">
        <ele>3</ele>
        <time>2018-01-06T21:58:32Z</time>
      </trkpt>
      <trkpt lat="50.7886" lon="2.24942">
        <ele>3</ele>
        <time>2018-01-06T21:59:32Z</time>
      </trkpt>
      <trkpt lat="50.7886" lon="2.24945">
        <ele>3</ele>
        <time>2018-01-06T22:00:32Z</time>
      </trkpt>
      <trkpt lat="50.78859" lon="2.24948">
        <ele>3</ele>
        <time>2018-01-06T22:01:32Z</time>
      </trkpt>
      <trkpt lat="50.78859" lon="2.2495">
        <ele>3</ele>
        <time>2018-01-06T22:02:32Z</time>
      </trkpt>
      <trkpt lat="50.78859" lon="2.24953">
        <ele>3</ele>
        <time>2018-01-06T22:03:32Z</time>
      </trkpt>
      <trkpt lat="50.78859" lon="2.24956">
        <ele>3</ele>
        <time>2018-01-06T22:04:32Z</time>
      </trkpt>
      <trkpt lat="50.78857" lon="2.24958">
        <ele>3</ele>
        <time>2018-01-06T22:05:32Z</time>
      </trkpt>
      <trkpt lat="50.78856" lon="2.2496">
        <ele>3</ele>
        <time>2018-01-06T22:06:32Z</time>
      </trkpt>
      <trkpt lat="50.78854" lon="2.24961">
        <ele>3</ele>
        <time>2018-01-06T22:07:32Z</time>
      </trkpt>
      <trkpt lat="50.78852" lon="2.24963">
        <ele>3</ele>
        <time>2018-01-06T22:08:32Z</time>
      </trkpt>
      <trkpt lat="50.78851" lon="2.24965">
        <ele>3</ele>
        <time>2018-01-06T22:09:32Z</time>
      </trkpt>
      <trkpt lat="50.78849" lon="2.24966">
        <ele>3</ele>
        <time>2018-01-06T22:10:32Z</time>
      </trkpt>
      <trkpt lat="50.78847" lon="2.24968">
        <ele>3</ele>
        <time>2018-01-06T22:11:32Z</time>
      </trkpt>
      <trkpt lat="50.78846" lon="2.2497">
        <ele>3</ele>
        <time>2018-01-06T22:12:32Z</time>
      </trkpt>
      <trkpt lat="50.78844" lon="2.24972">
        <ele>3</ele>
        <time>2018-01-06T22:13:32Z</time>
      </trkpt>
      <trkpt lat="50.78841" lon="2.24974">
        <ele>3</ele>
        <time>2018-01-06T22:14:32Z</time>
      </trkpt>
      <trkpt lat="50.78839" lon="2.24976">
        <ele>3</ele>
        <time>2018-01-06T22:15:32Z</time>
      </trkpt>
      <trkpt lat="50.78837" lon="2.24978">
        <ele>3</ele>
        <time>2018-01-06T22:16:32Z</time>
      </trkpt>
      <trkpt lat="50.78835" lon="2.2498">
        <ele>3</ele>
        <time>2018-01-06T22:17:32Z</time>
      </trkpt>
      <trkpt lat="50.78833" lon="2.24982">
        <ele>3</ele>
        <time>2018-01-06T22:18:32Z</time>
      </trkpt>
      <trkpt lat="50.78831" lon="2.24984">
        <ele>3</ele>
        <time>2018-01-06T22:19:32Z</time>
      </trkpt>
      <trkpt lat="50.78829" lon="2.24986">
        <ele>3</ele>
        <time>2018-01-06T22:20:32Z</time>
      </trkpt>
      <trkpt lat="50.78822" lon="2.24994">
        <ele>3</ele>
        <time>2018-01-06T22:21:32Z</time>
      </trkpt>
      <trkpt lat="50.78815" lon="2.25001">
        <ele>3</ele>
        <time>2018-01-06T22:22:32Z</time>
      </trkpt>
      <trkpt lat="50.78805" lon="2.25014">
        <ele>2</ele>
        <time>2018-01-06T22:23:32Z</time>
      </trkpt>
      <trkpt lat="50.78796" lon="2.25026">
        <ele>2</ele>
        <time>2018-01-06T22:24:32Z</time>
      </trkpt>
      <trkpt lat="50.78756" lon="2.25081">
        <ele>1</ele>
        <time>2018-01-06T22:25:32Z</time>
      </trkpt>
      <trkpt lat="50.78709" lon="2.25146">
        <ele>2</ele>
        <time>2018-01-06T22:26:32Z</time>
      </trkpt>
      <trkpt lat="50.78688" lon="2.25176">
        <ele>2</ele>
        <time>2018-01-06T22:27:32Z</time>
      </trkpt>
      <trkpt lat="50.7867" lon="2.252">
        <ele>2</ele>
        <time>2018-01-06T22:28:32Z</time>
      </trkpt>
      <trkpt lat="50.78648" lon="2.2523">
        <ele>3</ele>
        <time>2018-01-06T22:29:32Z</time>
      </trkpt>
      <trkpt lat="50.78636" lon="2.25247">
        <ele>3</ele>
        <time>2018-01-06T22:30:32Z</time>
      </trkpt>
      <trkpt lat="50.78623" lon="2.25263">
        <ele>3</ele>
        <time>2018-01-06T22:31:32Z</time>
      </trkpt>
      <trkpt lat="50.78609" lon="2.25279">
        <ele>3</ele>
        <time>2018-01-06T22:32:32Z</time>
      </trkpt>
      <trkpt lat="50.786" lon="2.25289">
        <ele>3</ele>
        <time>2018-01-06T22:33:32Z</time>
      </trkpt>
      <trkpt lat="50.78587" lon="2.25303">
        <ele>3</ele>
        <time>2018-01-06T22:34:32Z</time>
      </trkpt>
      <trkpt lat="50.78579" lon="2.25311">
        <ele>3</ele>
        <time>2018-01-06T22:35:32Z</time>
      </trkpt>
      <trkpt lat="50.78567" lon="2.25321">
        <ele>2</ele>
        <time>2018-01-06T22:36:32Z</time>
      </trkpt>
      <trkpt lat="50.78557" lon="2.2533">
        <ele>2</ele>
        <time>2018-01-06T22:37:32Z</time>
      </trkpt>
      <trkpt lat="50.78545" lon="2.2534">
        <ele>2</ele>
        <time>2018-01-06T22:38:32Z</time>
      </trkpt>
      <trkpt lat="50.78535" lon="2.25348">
        <ele>2</ele>
        <time>2018-01-06T22:39:32Z</time>
      </trkpt>
      <trkpt lat="50.78523" lon="2.25356">
        <ele>2</ele>
        <time>2018-01-06T22:40:32Z</time>
      </trkpt>
      <trkpt lat="50.78497" lon="2.25372">
        <ele>2</ele>
        <time>2018-01-06T22:41:32Z</time>
      </trkpt>
      <trkpt lat="50.78452" lon="2.25396">
        <ele>2</ele>
        <time>2018-01-06T22:42:32Z</time>
      </trkpt>
      <trkpt lat="50.78383" lon="2.25432">
        <ele>2</ele>
        <time>2018-01-06T22:43:32Z</time>
      </trkpt>
      <trkpt lat="50.78307" lon="2.2547">
        <ele>2</ele>
        <time>2018-01-06T22:44:32Z</time>
      </trkpt>
      <trkpt lat="50.78225" lon="2.25514">
        <ele>3</ele>
        <time>2018-01-06T22:45:32Z</time>
      </trkpt>
      <trkpt lat="50.78144" lon="2.25556">
        <ele>2</ele>
        <time>2018-01-06T22:46:32Z</time>
      </trkpt>
      <trkpt lat="50.7811" lon="2.25573">
        <ele>1</ele>
        <time>2018-01-06T22:47:32Z</time>
      </trkpt>
      <trkpt lat="50.78107" lon="2.25575">
        <ele>1</ele>
        <time>2018-01-06T22:48:32Z</time>
      </trkpt>
      <trkpt lat="50.78079" lon="2.25588">
        <ele>1</ele>
        <time>2018-01-06T22:49:32Z</time>
      </trkpt>
      <trkpt lat="50.78034" lon="2.25613">
        <ele>1</ele>
        <time>2018-01-06T22:50:32Z</time>
      </trkpt>
      <trkpt lat="50.78014" lon="2.25625">
        <ele>1</ele>
        <time>2018-01-06T22:51:32Z</time>
      </trkpt>
      <trkpt lat="50.77973" lon="2.25651">
        <ele>3</ele>
        <time>2018-01-06T22:52:32Z</time>
      </trkpt>
      <trkpt lat="50.77917" lon="2.25689">
        <ele>1</ele>
        <time>2018-01-06T22:53:32Z</time>
      </trkpt>
      <trkpt lat="50.77896" lon="2.25705">
        <ele>1</ele>
        <time>2018-01-06T22:54:32Z</time>
      </trkpt>
      <trkpt lat="50.77869" lon="2.25727">
        <ele>2</ele>
        <time>2018-01-06T22:55:32Z</time>
      </trkpt>
      <trkpt lat="50.77845" lon="2.25746">
        <ele>2</ele>
        <time>2018-01-06T22:56:32Z</time>
      </trkpt>
      <trkpt lat="50.77782" lon="2.25798">
        <ele>2</ele>
        <time>2018-01-06T22:57:32Z</time>
      </trkpt>
      <trkpt lat="50.77703" lon="2.25865">
        <ele>2</ele>
        <time>2018-01-06T22:58:32Z</time>
      </trkpt>
      <trkpt lat="50.77596" lon="2.25952">
        <ele>1</ele>
        <time>2018-01-06T22:59:32Z</time>
      </trkpt>
      <trkpt lat="50.77573" lon="2.25971">
        <ele>3.6</ele>
        <time>2018-01-06T23:00:32Z</time>
      </trkpt>
      <trkpt lat="50.77549" lon="2.25993">
        <ele>3</ele>
        <time>2018-01-06T23:01:32Z</time>
      </trkpt>
      <trkpt lat="50.77538" lon="2.26006">
        <ele>3.1</ele>
        <time>2018-01-06T23:02:32Z</time>
      </trkpt>
      <trkpt lat="50.77525" lon="2.26018">
        <ele>3.6</ele>
        <time>2018-01-06T23:03:32Z</time>
      </trkpt>
      <trkpt lat="50.77503" lon="2.26042">
        <ele>1</ele>
        <time>2018-01-06T23:04:32Z</time>
      </trkpt>
      <trkpt lat="50.77487" lon="2.2606">
        <ele>3.5</ele>
        <time>2018-01-06T23:05:32Z</time>
      </trkpt>
      <trkpt lat="50.77469" lon="2.26079">
        <ele>3.7</ele>
        <time>2018-01-06T23:06:32Z</time>
      </trkpt>
      <trkpt lat="50.77447" lon="2.26102">
        <ele>1</ele>
        <time>2018-01-06T23:07:32Z</time>
      </trkpt>
      <trkpt lat="50.77434" lon="2.26114">
        <ele>1</ele>
        <time>2018-01-06T23:08:32Z</time>
      </trkpt>
      <trkpt lat="50.77421" lon="2.26127">
        <ele>1</ele>
        <time>2018-01-06T23:09:32Z</time>
      </trkpt>
      <trkpt lat="50.77403" lon="2.26142">
        <ele>1</ele>
        <time>2018-01-06T23:10:32Z</time>
      </trkpt>
      <trkpt lat="50.77388" lon="2.26155">
        <ele>2</ele>
        <time>2018-01-06T23:11:32Z</time>
      </trkpt>
      <trkpt lat="50.77378" lon="2.26163">
        <ele>2</ele>
        <time>2018-01-06T23:12:32Z</time>
      </trkpt>
      <trkpt lat="50.77366" lon="2.26173">
        <ele>2</ele>
        <time>2018-01-06T23:13:32Z</time>
      </trkpt>
      <trkpt lat="50.77344" lon="2.2619">
        <ele>2</ele>
        <time>2018-01-06T23:14:32Z</time>
      </trkpt>
      <trkpt lat="50.77329" lon="2.26201">
        <ele>2</ele>
        <time>2018-01-06T23:15:32Z</time>
      </trkpt>
      <trkpt lat="50.77313" lon="2.26212">
        <ele>2</ele>
        <time>2018-01-06T23:16:32Z</time>
      </trkpt>
      <trkpt lat="50.773" lon="2.2622">
        <ele>2</ele>
        <time>2018-01-06T23:17:32Z</time>
      </trkpt>
      <trkpt lat="50.77279" lon="2.26232">
        <ele>2</ele>
        <time>2018-01-06T23:18:32Z</time>
      </trkpt>
      <trkpt lat="50.77258" lon="2.26245">
        <ele>2</ele>
        <time>2018-01-06T23:19:32Z</time>
      </trkpt>
      <trkpt lat="50.7724" lon="2.26255">
        <ele>2</ele>
        <time>2018-01-06T23:20:32Z</time>
      </trkpt>
      <trkpt lat="50.77221" lon="2.26265">
        <ele>3</ele>
        <time>2018-01-06T23:21:32Z</time>
      </trkpt>
      <trkpt lat="50.77201" lon="2.26274">
        <ele>3</ele>
        <time>2018-01-06T23:22:32Z</time>
      </trkpt>
      <trkpt lat="50.77186" lon="2.2628">
        <ele>3</ele>
        <time>2018-01-06T23:23:32Z</time>
      </trkpt>
      <trkpt lat="50.7717" lon="2.26285">
        <ele>3</ele>
        <time>2018-01-06T23:24:32Z</time>
      </trkpt>
      <trkpt lat="50.77147" lon="2.26289">
        <ele>3</ele>
        <time>2018-01-06T23:25:32Z</time>
      </trkpt>
      <trkpt lat="50.77115" lon="2.26295">
        <ele>4</ele>
        <time>2018-01-06T23:26:32Z</time>
      </trkpt>
      <trkpt lat="50.77096" lon="2.26297">
        <ele>4</ele>
        <time>2018-01-06T23:27:32Z</time>
      </trkpt>
      <trkpt lat="50.77081" lon="2.26298">
        <ele>4</ele>
        <time>2018-01-06T23:28:32Z</time>
      </trkpt>
      <trkpt lat="50.77065" lon="2.26298">
        <ele>4</ele>
        <time>2018-01-06T23:29:32Z</time>
      </trkpt>
      <trkpt lat="50.77045" lon="2.26295">
        <ele>4</ele>
        <time>2018-01-06T23:30:32Z</time>
      </trkpt>
      <trkpt lat="50.77019" lon="2.26287">
        <ele>4</ele>
        <time>2018-01-06T23:31:32Z</time>
      </trkpt>
      <trkpt lat="50.76962" lon="2.26265">
        <ele>4</ele>
        <time>2018-01-06T23:32:32Z</time>
      </trkpt>
      <trkpt lat="50.76944" lon="2.26258">
        <ele>3</ele>
        <time>2018-01-06T23:33:32Z</time>
      </trkpt>
      <trkpt lat="50.76902" lon="2.26241">
        <ele>3</ele>
        <time>2018-01-06T23:34:32Z</time>
      </trkpt>
      <trkpt lat="50.76829" lon="2.26213">
        <ele>3</ele>
        <time>2018-01-06T23:35:32Z</time>
      </trkpt>
      <trkpt lat="50.76797" lon="2.262">
        <ele>3</ele>
        <time>2018-01-06T23:36:32Z</time>
      </trkpt>
      <trkpt lat="50.76782" lon="2.26195">
        <ele>3</ele>
        <time>2018-01-06T23:37:32Z</time>
      </trkpt>
      <trkpt lat="50.76762" lon="2.26187">
        <ele>3</ele>
        <time>2018-01-06T23:38:32Z</time>
      </trkpt>
      <trkpt lat="50.76609" lon="2.2612">
        <ele>3</ele>
        <time>2018-01-06T23:39:32Z</time>
      </trkpt>
      <trkpt lat="50.76607" lon="2.26119">
        <ele>3</ele>
        <time>2018-01-06T23:40:32Z</time>
      </trkpt>
      <trkpt lat="50.76579" lon="2.2611">
        <ele>3</ele>
        <time>2018-01-06T23:41:32Z</time>
      </trkpt>
      <trkpt lat="50.76536" lon="2.26092">
        <ele>3</ele>
        <time>2018-01-06T23:42:32Z</time>
      </trkpt>
      <trkpt lat="50.76475" lon="2.26065">
        <ele>4</ele>
        <time>2018-01-06T23:43:32Z</time>
      </trkpt>
      <trkpt lat="50.76423" lon="2.26044">
        <ele>4</ele>
        <time>2018-01-06T23:44:32Z</time>
      </trkpt>
      <trkpt lat="50.76401" lon="2.26037">
        <ele>4</ele>
        <time>2018-01-06T23:45:32Z</time>
      </trkpt>
      <trkpt lat="50.76362" lon="2.26027">
        <ele>3</ele>
        <time>2018-01-06T23:46:32Z</time>
      </trkpt>
      <trkpt lat="50.76304" lon="2.26014">
        <ele>3</ele>
        <time>2018-01-06T23:47:32Z</time>
      </trkpt>
      <trkpt lat="50.76272" lon="2.26007">
        <ele>4</ele>
        <time>2018-01-06T23:48:32Z</time>
      </trkpt>
      <trkpt lat="50.76231" lon="2.26">
        <ele>4</ele>
        <time>2018-01-06T23:49:32Z</time>
      </trkpt>
      <trkpt lat="50.76154" lon="2.25985">
        <ele>5</ele>
        <time>2018-01-06T23:50:32Z</time>
      </trkpt>
      <trkpt lat="50.76124" lon="2.25979">
        <ele>4</ele>
        <time>2018-01-06T23:51:32Z</time>
      </trkpt>
      <trkpt lat="50.761" lon="2.25975">
        <ele>4</ele>
        <time>2018-01-06T23:52:32Z</time>
      </trkpt>
      <trkpt lat="50.76078" lon="2.25975">
        <ele>4</ele>
        <time>2018-01-06T23:53:32Z</time>
      </trkpt>
      <trkpt lat="50.76056" lon="2.2598">
        <ele>5</ele>
        <time>2018-01-06T23:54:32Z</time>
      </trkpt>
      <trkpt lat="50.75963" lon="2.26007">
        <ele>5</ele>
        <time>2018-01-06T23:55:32Z</time>
      </trkpt>
      <trkpt lat="50.75943" lon="2.26015">
        <ele>5</ele>
        <time>2018-01-06T23:56:32Z</time>
      </trkpt>
      <trkpt lat="50.7592" lon="2.26025">
        <ele>5</ele>
        <time>2018-01-06T23:57:32Z</time>
      </trkpt>
      <trkpt lat="50.75903" lon="2.26032">
        <ele>5</ele>
        <time>2018-01-06T23:58:32Z</time>
      </trkpt>
      <trkpt lat="50.75887" lon="2.26038">
        <ele>5</ele>
        <time>2018-01-06T23:59:32Z</time>
      </trkpt>
      <trkpt lat="50.75876" lon="2.26042">
        <ele>5</ele>
        <time>2018-01-07T00:00:32Z</time>
      </trkpt>
      <trkpt lat="50.75866" lon="2.26045">
        <ele>5</ele>
        <time>2018-01-07T00:01:32Z</time>
      </trkpt>
      <trkpt lat="50.75843" lon="2.2605">
        <ele>5</ele>
        <time>2018-01-07T00:02:32Z</time>
      </trkpt>
      <trkpt lat="50.75789" lon="2.26064">
        <ele>5</ele>
        <time>2018-01-07T00:03:32Z</time>
      </trkpt>
      <trkpt lat="50.75739" lon="2.26077">
        <ele>5</ele>
        <time>2018-01-07T00:04:32Z</time>
      </trkpt>
      <trkpt lat="50.75739" lon="2.26077">
        <ele>5</ele>
        <time>2018-01-07T00:05:32Z</time>
      </trkpt>
      <trkpt lat="50.7574" lon="2.26102">
        <ele>5</ele>
        <time>2018-01-07T00:06:32Z</time>
      </trkpt>
      <trkpt lat="50.75742" lon="2.26127">
        <ele>5</ele>
        <time>2018-01-07T00:07:32Z</time>
      </trkpt>
      <trkpt lat="50.75739" lon="2.26141">
        <ele>5</ele>
        <time>2018-01-07T00:08:32Z</time>
      </trkpt>
      <trkpt lat="50.75735" lon="2.26158">
        <ele>5</ele>
        <time>2018-01-07T00:09:32Z</time>
      </trkpt>
      <trkpt lat="50.75731" lon="2.26181">
        <ele>5</ele>
        <time>2018-01-07T00:10:32Z</time>
      </trkpt>
      <trkpt lat="50.75729" lon="2.26194">
        <ele>5</ele>
        <time>2018-01-07T00:11:32Z</time>
      </trkpt>
      <trkpt lat="50.75724" lon="2.26214">
        <ele>5</ele>
        <time>2018-01-07T00:12:32Z</time>
      </trkpt>
      <trkpt lat="50.75716" lon="2.26248">
        <ele>4</ele>
        <time>2018-01-07T00:13:32Z</time>
      </trkpt>
      <trkpt lat="50.75711" lon="2.26264">
        <ele>4</ele>
        <time>2018-01-07T00:14:32Z</time>
      </trkpt>
      <trkpt lat="50.75697" lon="2.26311">
        <ele>4</ele>
        <time>2018-01-07T00:15:32Z</time>
      </trkpt>
      <trkpt lat="50.75669" lon="2.26398">
        <ele>3</ele>
        <time>2018-01-07T00:16:32Z</time>
      </trkpt>
      <trkpt lat="50.75657" lon="2.26435">
        <ele>3</ele>
        <time>2018-01-07T00:17:32Z</time>
      </trkpt>
      <trkpt lat="50.7565" lon="2.26456">
        <ele>3</ele>
        <time>2018-01-07T00:18:32Z</time>
      </trkpt>
      <trkpt lat="50.75646" lon="2.26468">
        <ele>3</ele>
        <time>2018-01-07T00:19:32Z</time>
      </trkpt>
      <trkpt lat="50.75644" lon="2.26478">
        <ele>3</ele>
        <time>2018-01-07T00:20:32Z</time>
      </trkpt>
      <trkpt lat="50.75634" lon="2.26508">
        <ele>2</ele>
        <time>2018-01-07T00:21:32Z</time>
      </trkpt>
      <trkpt lat="50.75615" lon="2.2657">
        <ele>3</ele>
        <time>2018-01-07T00:22:32Z</time>
      </trkpt>
      <trkpt lat="50.75598" lon="2.26624">
        <ele>3</ele>
        <time>2018-01-07T00:23:32Z</time>
      </trkpt>
      <trkpt lat="50.7559" lon="2.26652">
        <ele>4</ele>
        <time>2018-01-07T00:24:32Z</time>
      </trkpt>
      <trkpt lat="50.75562" lon="2.26744">
        <ele>4</ele>
        <time>2018-01-07T00:25:32Z</time>
      </trkpt>
      <trkpt lat="50.75535" lon="2.26832">
        <ele>5</ele>
        <time>2018-01-07T00:26:32Z</time>
      </trkpt>
      <trkpt lat="50.75516" lon="2.2689">
        <ele>5</ele>
        <time>2018-01-07T00:27:32Z</time>
      </trkpt>
      <trkpt lat="50.75513" lon="2.26898">
        <ele>5</ele>
        <time>2018-01-07T00:28:32Z</time>
      </trkpt>
      <trkpt lat="50.75507" lon="2.2691">
        <ele>5</ele>
        <time>2018-01-07T00:29:32Z</time>
      </trkpt>
      <trkpt lat="50.7549" lon="2.2695">
        <ele>5</ele>
        <time>2018-01-07T00:30:32Z</time>
      </trkpt>
      <trkpt lat="50.7549" lon="2.2695">
        <ele>5</ele>
        <time>2018-01-07T00:31:32Z</time>
      </trkpt>
      <trkpt lat="50.7551" lon="2.26991">
        <ele>4</ele>
        <time>2018-01-07T00:32:32Z</time>
      </trkpt>
      <trkpt lat="50.75515" lon="2.26999">
        <ele>4</ele>
        <time>2018-01-07T00:33:32Z</time>
      </trkpt>
      <trkpt lat="50.75529" lon="2.27021">
        <ele>4</ele>
        <time>2018-01-07T00:34:32Z</time>
      </trkpt>
      <trkpt lat="50.75553" lon="2.27059">
        <ele>4</ele>
        <time>2018-01-07T00:35:32Z</time>
      </trkpt>
      <trkpt lat="50.75569" lon="2.27086">
        <ele>4</ele>
        <time>2018-01-07T00:36:32Z</time>
      </trkpt>
      <trkpt lat="50.75577" lon="2.27099">
        <ele>4</ele>
        <time>2018-01-07T00:37:32Z</time>
      </trkpt>
      <trkpt lat="50.75595" lon="2.27131">
        <ele>3</ele>
        <time>2018-01-07T00:38:32Z</time>
      </trkpt>
      <trkpt lat="50.75603" lon="2.27146">
        <ele>3</ele>
        <time>2018-01-07T00:39:32Z</time>
      </trkpt>
      <trkpt lat="50.75607" lon="2.27154">
        <ele>3</ele>
        <time>2018-01-07T00:40:32Z</time>
      </trkpt>
      <trkpt lat="50.75615" lon="2.27174">
        <ele>3</ele>
        <time>2018-01-07T00:41:32Z</time>
      </trkpt>
      <trkpt lat="50.75623" lon="2.27193">
        <ele>3</ele>
        <time>2018-01-07T00:42:32Z</time>
      </trkpt>
      <trkpt lat="50.7563" lon="2.27209">
        <ele>4</ele>
        <time>2018-01-07T00:43:32Z</time>
      </trkpt>
      <trkpt lat="50.75635" lon="2.27221">
        <ele>4</ele>
        <time>2018-01-07T00:44:32Z</time>
      </trkpt>
      <trkpt lat="50.7564" lon="2.27235">
        <ele>4</ele>
        <time>2018-01-07T00:45:32Z</time>
      </trkpt>
      <trkpt lat="50.75646" lon="2.27251">
        <ele>4</ele>
        <time>2018-01-07T00:46:32Z</time>
      </trkpt>
      <trkpt lat="50.75651" lon="2.27271">
        <ele>4</ele>
        <time>2018-01-07T00:47:32Z</time>
      </trkpt>
      <trkpt lat="50.75658" lon="2.27297">
        <ele>4</ele>
        <time>2018-01-07T00:48:32Z</time>
      </trkpt>
      <trkpt lat="50.7566" lon="2.2731">
        <ele>4</ele>
        <time>2018-01-07T00:49:32Z</time>
      </trkpt>
      <trkpt lat="50.75661" lon="2.27313">
        <ele>4</ele>
        <time>2018-01-07T00:50:32Z</time>
      </trkpt>
      <trkpt lat="50.75663" lon="2.27325">
        <ele>4</ele>
        <time>2018-01-07T00:51:32Z</time>
      </trkpt>
      <trkpt lat="50.75664" lon="2.27332">
        <ele>4</ele>
        <time>2018-01-07T00:52:32Z</time>
      </trkpt>
      <trkpt lat="50.75666" lon="2.27339">
        <ele>4</ele>
        <time>2018-01-07T00:53:32Z</time>
      </trkpt>
      <trkpt lat="50.75673" lon="2.27377">
        <ele>4</ele>
        <time>2018-01-07T00:54:32Z</time>
      </trkpt>
      <trkpt lat="50.7568" lon="2.27406">
        <ele>4</ele>
        <time>2018-01-07T00:55:32Z</time>
      </trkpt>
      <trkpt lat="50.75683" lon="2.27419">
        <ele>4</ele>
        <time>2018-01-07T00:56:32Z</time>
      </trkpt>
      <trkpt lat="50.75686" lon="2.27427">
        <ele>4</ele>
        <time>2018-01-07T00:57:32Z</time>
      </trkpt>
      <trkpt lat="50.75689" lon="2.27434">
        <ele>4</ele>
        <time>2018-01-07T00:58:32Z</time>
      </trkpt>
      <trkpt lat="50.75693" lon="2.27444">
        <ele>4</ele>
        <time>2018-01-07T00:59:32Z</time>
      </trkpt>
      <trkpt lat="50.75698" lon="2.27453">
        <ele>4</ele>
        <time>2018-01-07T01:00:32Z</time>
      </trkpt>
      <trkpt lat="50.75706" lon="2.27469">
        <ele>3</ele>
        <time>2018-01-07T01:01:32Z</time>
      </trkpt>
      <trkpt lat="50.75731" lon="2.27508">
        <ele>3</ele>
        <time>2018-01-07T01:02:32Z</time>
      </trkpt>
      <trkpt lat="50.75757" lon="2.2755">
        <ele>3</ele>
        <time>2018-01-07T01:03:32Z</time>
      </trkpt>
      <trkpt lat="50.7576" lon="2.27556">
        <ele>3</ele>
        <time>2018-01-07T01:04:32Z</time>
      </trkpt>
      <trkpt lat="50.75764" lon="2.27561">
        <ele>3</ele>
        <time>2018-01-07T01:05:32Z</time>
      </trkpt>
      <trkpt lat="50.75789" lon="2.27602">
        <ele>2</ele>
        <time>2018-01-07T01:06:32Z</time>
      </trkpt>
      <trkpt lat="50.75823" lon="2.27659">
        <ele>2</ele>
        <time>2018-01-07T01:07:32Z</time>
      </trkpt>
      <trkpt lat="50.75832" lon="2.27676">
        <ele>2</ele>
        <time>2018-01-07T01:08:32Z</time>
      </trkpt>
      <trkpt lat="50.75848" lon="2.27707">
        <ele>2</ele>
        <time>2018-01-07T01:09:32Z</time>
      </trkpt>
      <trkpt lat="50.75878" lon="2.2777">
        <ele>2</ele>
        <time>2018-01-07T01:10:32Z</time>
      </trkpt>
      <trkpt lat="50.7589" lon="2.27793">
        <ele>3</ele>
        <time>2018-01-07T01:11:32Z</time>
      </trkpt>
      <trkpt lat="50.75903" lon="2.27819">
        <ele>3</ele>
        <time>2018-01-07T01:12:32Z</time>
      </trkpt>
      <trkpt lat="50.75928" lon="2.27869">
        <ele>3</ele>
        <time>2018-01-07T01:13:32Z</time>
      </trkpt>
      <trkpt lat="50.7595" lon="2.27913">
        <ele>3</ele>
        <time>2018-01-07T01:14:32Z</time>
      </trkpt>
      <trkpt lat="50.75956" lon="2.27925">
        <ele>3</ele>
        <time>2018-01-07T01:15:32Z</time>
      </trkpt>
      <trkpt lat="50.75969" lon="2.27949">
        <ele>3</ele>
        <time>2018-01-07T01:16:32Z</time>
      </trkpt>
      <trkpt lat="50.75995" lon="2.28">
        <ele>2</ele>
        <time>2018-01-07T01:17:32Z</time>
      </trkpt>
      <trkpt lat="50.7601" lon="2.28033">
        <ele>2</ele>
        <time>2018-01-07T01:18:32Z</time>
      </trkpt>
      <trkpt lat="50.76011" lon="2.28035">
        <ele>2</ele>
        <time>2018-01-07T01:19:32Z</time>
      </trkpt>
      <trkpt lat="50.76012" lon="2.28037">
        <ele>2</ele>
        <time>2018-01-07T01:20:32Z</time>
      </trkpt>
      <trkpt lat="50.76025" lon="2.28063">
        <ele>2</ele>
        <time>2018-01-07T01:21:32Z</time>
      </trkpt>
      <trkpt lat="50.7603" lon="2.28072">
        <ele>2</ele>
        <time>2018-01-07T01:22:32Z</time>
      </trkpt>
      <trkpt lat="50.76047" lon="2.28105">
        <ele>2</ele>
        <time>2018-01-07T01:23:32Z</time>
      </trkpt>
      <trkpt lat="50.7605" lon="2.28112">
        <ele>2</ele>
        <time>2018-01-07T01:24:32Z</time>
      </trkpt>
      <trkpt lat="50.76053" lon="2.28118">
        <ele>2</ele>
        <time>2018-01-07T01:25:32Z</time>
      </trkpt>
      <trkpt lat="50.76062" lon="2.28135">
        <ele>2</ele>
        <time>2018-01-07T01:26:32Z</time>
      </trkpt>
      <trkpt lat="50.76063" lon="2.28137">
        <ele>2</ele>
        <time>2018-01-07T01:27:32Z</time>
      </trkpt>
      <trkpt lat="50.76071" lon="2.28153">
        <ele>3</ele>
        <time>2018-01-07T01:28:32Z</time>
      </trkpt>
      <trkpt lat="50.76076" lon="2.28163">
        <ele>3</ele>
        <time>2018-01-07T01:29:32Z</time>
      </trkpt>
      <trkpt lat="50.76082" lon="2.28176">
        <ele>3</ele>
        <time>2018-01-07T01:30:32Z</time>
      </trkpt>
      <trkpt lat="50.76086" lon="2.28185">
        <ele>3</ele>
        <time>2018-01-07T01:31:32Z</time>
      </trkpt>
      <trkpt lat="50.76094" lon="2.28206">
        <ele>3</ele>
        <time>2018-01-07T01:32:32Z</time>
      </trkpt>
      <trkpt lat="50.76102" lon="2.28225">
        <ele>3</ele>
        <time>2018-01-07T01:33:32Z</time>
      </trkpt>
      <trkpt lat="50.76104" lon="2.28233">
        <ele>3</ele>
        <time>2018-01-07T01:34:32Z</time>
      </trkpt>
      <trkpt lat="50.76107" lon="2.28243">
        <ele>3</ele>
        <time>2018-01-07T01:35:32Z</time>
      </trkpt>
      <trkpt lat="50.76113" lon="2.28268">
        <ele>3</ele>
        <time>2018-01-07T01:36:32Z</time>
      </trkpt>
      <trkpt lat="50.76114" lon="2.28273">
        <ele>3</ele>
        <time>2018-01-07T01:37:32Z</time>
      </trkpt>
      <trkpt lat="50.76123" lon="2.28313">
        <ele>3</ele>
        <time>2018-01-07T01:38:32Z</time>
      </trkpt>
      <trkpt lat="50.76135" lon="2.28365">
        <ele>4</ele>
        <time>2018-01-07T01:39:32Z</time>
      </trkpt>
      <trkpt lat="50.76147" lon="2.28415">
        <ele>4</ele>
        <time>2018-01-07T01:40:32Z</time>
      </trkpt>
      <trkpt lat="50.76148" lon="2.28416">
        <ele>4</ele>
        <time>2018-01-07T01:41:32Z</time>
      </trkpt>
      <trkpt lat="50.76155" lon="2.28447">
        <ele>4</ele>
        <time>2018-01-07T01:42:32Z</time>
      </trkpt>
      <trkpt lat="50.76157" lon="2.28458">
        <ele>4</ele>
        <time>2018-01-07T01:43:32Z</time>
      </trkpt>
      <trkpt lat="50.76162" lon="2.28479">
        <ele>4</ele>
        <time>2018-01-07T01:44:32Z</time>
      </trkpt>
      <trkpt lat="50.76169" lon="2.28513">
        <ele>4</ele>
        <time>2018-01-07T01:45:32Z</time>
      </trkpt>
      <trkpt lat="50.76179" lon="2.28555">
        <ele>4</ele>
        <time>2018-01-07T01:46:32Z</time>
      </trkpt>
      <trkpt lat="50.76186" lon="2.28585">
        <ele>4</ele>
        <time>2018-01-07T01:47:32Z</time>
      </trkpt>
      <trkpt lat="50.76191" lon="2.28606">
        <ele>4</ele>
        <time>2018-01-07T01:48:32Z</time>
      </trkpt>
      <trkpt lat="50.76193" lon="2.28618">
        <ele>4</ele>
        <time>2018-01-07T01:49:32Z</time>
      </trkpt>
      <trkpt lat="50.76196" lon="2.2863">
        <ele>3</ele>
        <time>2018-01-07T01:50:32Z</time>
      </trkpt>
      <trkpt lat="50.76199" lon="2.28646">
        <ele>3</ele>
        <time>2018-01-07T01:51:32Z</time>
      </trkpt>
      <trkpt lat="50.76204" lon="2.28664">
        <ele>3</ele>
        <time>2018-01-07T01:52:32Z</time>
      </trkpt>
      <trkpt lat="50.76205" lon="2.28667">
        <ele>3</ele>
        <time>2018-01-07T01:53:32Z</time>
      </trkpt>
      <trkpt lat="50.76207" lon="2.28674">
        <ele>3</ele>
        <time>2018-01-07T01:54:32Z</time>
      </trkpt>
      <trkpt lat="50.76208" lon="2.28679">
        <ele>3</ele>
        <time>2018-01-07T01:55:32Z</time>
      </trkpt>
      <trkpt lat="50.76211" lon="2.28691">
        <ele>4</ele>
        <time>2018-01-07T01:56:32Z</time>
      </trkpt>
      <trkpt lat="50.76212" lon="2.28696">
        <ele>4</ele>
        <time>2018-01-07T01:57:32Z</time>
      </trkpt>
      <trkpt lat="50.76215" lon="2.28708">
        <ele>4</ele>
        <time>2018-01-07T01:58:32Z</time>
      </trkpt>
      <trkpt lat="50.76218" lon="2.2872">
        <ele>4</ele>
        <time>2018-01-07T01:59:32Z</time>
      </trkpt>
      <trkpt lat="50.7622" lon="2.28726">
        <ele>4</ele>
        <time>2018-01-07T02:00:32Z</time>
      </trkpt>
      <trkpt lat="50.76223" lon="2.28738">
        <ele>4</ele>
        <time>2018-01-07T02:01:32Z</time>
      </trkpt>
      <trkpt lat="50.76229" lon="2.28754">
        <ele>4</ele>
        <time>2018-01-07T02:02:32Z</time>
      </trkpt>
      <trkpt lat="50.76232" lon="2.28765">
        <ele>4</ele>
        <time>2018-01-07T02:03:32Z</time>
      </trkpt>
      <trkpt lat="50.76235" lon="2.28771">
        <ele>4</ele>
        <time>2018-01-07T02:04:32Z</time>
      </trkpt>
      <trkpt lat="50.76239" lon="2.28788">
        <ele>3</ele>
        <time>2018-01-07T02:05:32Z</time>
      </trkpt>
      <trkpt lat="50.76243" lon="2.28805">
        <ele>3</ele>
        <time>2018-01-07T02:06:32Z</time>
      </trkpt>
      <trkpt lat="50.76247" lon="2.2882">
        <ele>3</ele>
        <time>2018-01-07T02:07:32Z</time>
      </trkpt>
      <trkpt lat="50.76249" lon="2.2883">
        <ele>3</ele>
        <time>2018-01-07T02:08:32Z</time>
      </trkpt>
      <trkpt lat="50.7625" lon="2.28833">
        <ele>3</ele>
        <time>2018-01-07T02:09:32Z</time>
      </trkpt>
      <trkpt lat="50.76259" lon="2.28876">
        <ele>3</ele>
        <time>2018-01-07T02:10:32Z</time>
      </trkpt>
      <trkpt lat="50.7626" lon="2.28881">
        <ele>3</ele>
        <time>2018-01-07T02:11:32Z</time>
      </trkpt>
      <trkpt lat="50.76261" lon="2.28887">
        <ele>3</ele>
        <time>2018-01-07T02:12:32Z</time>
      </trkpt>
      <trkpt lat="50.76262" lon="2.28891">
        <ele>3</ele>
        <time>2018-01-07T02:13:32Z</time>
      </trkpt>
      <trkpt lat="50.76262" lon="2.28893">
        <ele>3</ele>
        <time>2018-01-07T02:14:32Z</time>
      </trkpt>
      <trkpt lat="50.76275" lon="2.28954">
        <ele>2</ele>
        <time>2018-01-07T02:15:32Z</time>
      </trkpt>
      <trkpt lat="50.76293" lon="2.29025">
        <ele>1</ele>
        <time>2018-01-07T02:16:32Z</time>
      </trkpt>
      <trkpt lat="50.76297" lon="2.29042">
        <ele>1</ele>
        <time>2018-01-07T02:17:32Z</time>
      </trkpt>
      <trkpt lat="50.76298" lon="2.29047">
        <ele>1</ele>
        <time>2018-01-07T02:18:32Z</time>
      </trkpt>
      <trkpt lat="50.7632" lon="2.29146">
        <ele>2</ele>
        <time>2018-01-07T02:19:32Z</time>
      </trkpt>
      <trkpt lat="50.76322" lon="2.29156">
        <ele>2</ele>
        <time>2018-01-07T02:20:32Z</time>
      </trkpt>
      <trkpt lat="50.76332" lon="2.29197">
        <ele>2</ele>
        <time>2018-01-07T02:21:32Z</time>
      </trkpt>
      <trkpt lat="50.76345" lon="2.29251">
        <ele>2</ele>
        <time>2018-01-07T02:22:32Z</time>
      </trkpt>
      <trkpt lat="50.76347" lon="2.29267">
        <ele>2</ele>
        <time>2018-01-07T02:23:32Z</time>
      </trkpt>
      <trkpt lat="50.7635" lon="2.29286">
        <ele>2</ele>
        <time>2018-01-07T02:24:32Z</time>
      </trkpt>
      <trkpt lat="50.76352" lon="2.29295">
        <ele>2</ele>
        <time>2018-01-07T02:25:32Z</time>
      </trkpt>
      <trkpt lat="50.76354" lon="2.29304">
        <ele>2</ele>
        <time>2018-01-07T02:26:32Z</time>
      </trkpt>
      <trkpt lat="50.76428" lon="2.29616">
        <ele>1</ele>
        <time>2018-01-07T02:27:32Z</time>
      </trkpt>
      <trkpt lat="50.76441" lon="2.29674">
        <ele>2</ele>
        <time>2018-01-07T02:28:32Z</time>
      </trkpt>
      <trkpt lat="50.76459" lon="2.29753">
        <ele>2</ele>
        <time>2018-01-07T02:29:32Z</time>
      </trkpt>
      <trkpt lat="50.76486" lon="2.29867">
        <ele>1</ele>
        <time>2018-01-07T02:30:32Z</time>
      </trkpt>
      <trkpt lat="50.76494" lon="2.29901">
        <ele>1</ele>
        <time>2018-01-07T02:31:32Z</time>
      </trkpt>
      <trkpt lat="50.76504" lon="2.29943">
        <ele>1</ele>
        <time>2018-01-07T02:32:32Z</time>
      </trkpt>
      <trkpt lat="50.76511" lon="2.29972">
        <ele>2</ele>
        <time>2018-01-07T02:33:32Z</time>
      </trkpt>
      <trkpt lat="50.76517" lon="2.29998">
        <ele>2</ele>
        <time>2018-01-07T02:34:32Z</time>
      </trkpt>
      <trkpt lat="50.76521" lon="2.30014">
        <ele>2</ele>
        <time>2018-01-07T02:35:32Z</time>
      </trkpt>
      <trkpt lat="50.76526" lon="2.30035">
        <ele>2</ele>
        <time>2018-01-07T02:36:32Z</time>
      </trkpt>
      <trkpt lat="50.7653" lon="2.30048">
        <ele>2</ele>
        <time>2018-01-07T02:37:32Z</time>
      </trkpt>
      <trkpt lat="50.76536" lon="2.3006">
        <ele>2</ele>
        <time>2018-01-07T02:38:32Z</time>
      </trkpt>
      <trkpt lat="50.76542" lon="2.3007">
        <ele>1</ele>
        <time>2018-01-07T02:39:32Z</time>
      </trkpt>
      <trkpt lat="50.76545" lon="2.30075">
        <ele>1</ele>
        <time>2018-01-07T02:40:32Z</time>
      </trkpt>
      <trkpt lat="50.76553" lon="2.30084">
        <ele>1</ele>
        <time>2018-01-07T02:41:32Z</time>
      </trkpt>
      <trkpt lat="50.76556" lon="2.30088">
        <ele>1</ele>
        <time>2018-01-07T02:42:32Z</time>
      </trkpt>
      <trkpt lat="50.76564" lon="2.30094">
        <ele>1</ele>
        <time>2018-01-07T02:43:32Z</time>
      </trkpt>
      <trkpt lat="50.76574" lon="2.30099">
        <ele>1</ele>
        <time>2018-01-07T02:44:32Z</time>
      </trkpt>
      <trkpt lat="50.76581" lon="2.30103">
        <ele>1</ele>
        <time>2018-01-07T02:45:32Z</time>
      </trkpt>
      <trkpt lat="50.766" lon="2.30109">
        <ele>1</ele>
        <time>2018-01-07T02:46:32Z</time>
      </trkpt>
      <trkpt lat="50.76614" lon="2.30111">
        <ele>1</ele>
        <time>2018-01-07T02:47:32Z</time>
      </trkpt>
      <trkpt lat="50.76635" lon="2.30114">
        <ele>2</ele>
        <time>2018-01-07T02:48:32Z</time>
      </trkpt>
      <trkpt lat="50.76657" lon="2.30118">
        <ele>2</ele>
        <time>2018-01-07T02:49:32Z</time>
      </trkpt>
      <trkpt lat="50.76668" lon="2.3012">
        <ele>2</ele>
        <time>2018-01-07T02:50:32Z</time>
      </trkpt>
      <trkpt lat="50.76676" lon="2.30121">
        <ele>2</ele>
        <time>2018-01-07T02:51:32Z</time>
      </trkpt>
      <trkpt lat="50.76707" lon="2.30126">
        <ele>2</ele>
        <time>2018-01-07T02:52:32Z</time>
      </trkpt>
      <trkpt lat="50.76723" lon="2.30129">
        <ele>2</ele>
        <time>2018-01-07T02:53:32Z</time>
      </trkpt>
      <trkpt lat="50.76725" lon="2.3013">
        <ele>2</ele>
        <time>2018-01-07T02:54:32Z</time>
      </trkpt>
      <trkpt lat="50.76756" lon="2.30135">
        <ele>2</ele>
        <time>2018-01-07T02:55:32Z</time>
      </trkpt>
      <trkpt lat="50.76788" lon="2.30141">
        <ele>3</ele>
        <time>2018-01-07T02:56:32Z</time>
      </trkpt>
      <trkpt lat="50.76798" lon="2.30143">
        <ele>3</ele>
        <time>2018-01-07T02:57:32Z</time>
      </trkpt>
      <trkpt lat="50.76803" lon="2.30144">
        <ele>3</ele>
        <time>2018-01-07T02:58:32Z</time>
      </trkpt>
      <trkpt lat="50.76807" lon="2.30145">
        <ele>3</ele>
        <time>2018-01-07T02:59:32Z</time>
      </trkpt>
      <trkpt lat="50.76811" lon="2.30145">
        <ele>3</ele>
        <time>2018-01-07T03:00:32Z</time>
      </trkpt>
      <trkpt lat="50.76819" lon="2.30148">
        <ele>3</ele>
        <time>2018-01-07T03:01:32Z</time>
      </trkpt>
      <trkpt lat="50.76825" lon="2.3015">
        <ele>4</ele>
        <time>2018-01-07T03:02:32Z</time>
      </trkpt>
      <trkpt lat="50.76832" lon="2.30154">
        <ele>4</ele>
        <time>2018-01-07T03:03:32Z</time>
      </trkpt>
      <trkpt lat="50.76838" lon="2.30157">
        <ele>4</ele>
        <time>2018-01-07T03:04:32Z</time>
      </trkpt>
      <trkpt lat="50.76845" lon="2.30163">
        <ele>4</ele>
        <time>2018-01-07T03:05:32Z</time>
      </trkpt>
      <trkpt lat="50.7685" lon="2.30167">
        <ele>4</ele>
        <time>2018-01-07T03:06:32Z</time>
      </trkpt>
      <trkpt lat="50.76856" lon="2.30173">
        <ele>4</ele>
        <time>2018-01-07T03:07:32Z</time>
      </trkpt>
      <trkpt lat="50.76863" lon="2.30182">
        <ele>5</ele>
        <time>2018-01-07T03:08:32Z</time>
      </trkpt>
      <trkpt lat="50.76867" lon="2.30189">
        <ele>5</ele>
        <time>2018-01-07T03:09:32Z</time>
      </trkpt>
      <trkpt lat="50.76893" lon="2.30235">
        <ele>6</ele>
        <time>2018-01-07T03:10:32Z</time>
      </trkpt>
      <trkpt lat="50.76931" lon="2.30305">
        <ele>8</ele>
        <time>2018-01-07T03:11:32Z</time>
      </trkpt>
      <trkpt lat="50.76958" lon="2.30353">
        <ele>9</ele>
        <time>2018-01-07T03:12:32Z</time>
      </trkpt>
      <trkpt lat="50.76976" lon="2.30385">
        <ele>10</ele>
        <time>2018-01-07T03:13:32Z</time>
      </trkpt>
      <trkpt lat="50.76995" lon="2.30434">
        <ele>11</ele>
        <time>2018-01-07T03:14:32Z</time>
      </trkpt>
      <trkpt lat="50.77025" lon="2.30517">
        <ele>15</ele>
        <time>2018-01-07T03:15:32Z</time>
      </trkpt>
      <trkpt lat="50.77036" lon="2.30548">
        <ele>15</ele>
        <time>2018-01-07T03:16:32Z</time>
      </trkpt>
      <trkpt lat="50.77056" lon="2.30593">
        <ele>17</ele>
        <time>2018-01-07T03:17:32Z</time>
      </trkpt>
      <trkpt lat="50.77074" lon="2.30631">
        <ele>18</ele>
        <time>2018-01-07T03:18:32Z</time>
      </trkpt>
      <trkpt lat="50.77093" lon="2.30673">
        <ele>19</ele>
        <time>2018-01-07T03:19:32Z</time>
      </trkpt>
      <trkpt lat="50.77104" lon="2.30694">
        <ele>19</ele>
        <time>2018-01-07T03:20:32Z</time>
      </trkpt>
      <trkpt lat="50.77112" lon="2.30712">
        <ele>19</ele>
        <time>2018-01-07T03:21:32Z</time>
      </trkpt>
      <trkpt lat="50.77118" lon="2.30726">
        <ele>19</ele>
        <time>2018-01-07T03:22:32Z</time>
      </trkpt>
      <trkpt lat="50.77127" lon="2.30747">
        <ele>18</ele>
        <time>2018-01-07T03:23:32Z</time>
      </trkpt>
      <trkpt lat="50.77138" lon="2.30778">
        <ele>18</ele>
        <time>2018-01-07T03:24:32Z</time>
      </trkpt>
      <trkpt lat="50.77146" lon="2.30803">
        <ele>18</ele>
        <time>2018-01-07T03:25:32Z</time>
      </trkpt>
      <trkpt lat="50.77153" lon="2.30826">
        <ele>17</ele>
        <time>2018-01-07T03:26:32Z</time>
      </trkpt>
      <trkpt lat="50.77155" lon="2.30838">
        <ele>17</ele>
        <time>2018-01-07T03:27:32Z</time>
      </trkpt>
      <trkpt lat="50.77162" lon="2.30874">
        <ele>17</ele>
        <time>2018-01-07T03:28:32Z</time>
      </trkpt>
      <trkpt lat="50.77166" lon="2.30903">
        <ele>17</ele>
        <time>2018-01-07T03:29:32Z</time>
      </trkpt>
      <trkpt lat="50.7717" lon="2.30935">
        <ele>17</ele>
        <time>2018-01-07T03:30:32Z</time>
      </trkpt>
      <trkpt lat="50.77174" lon="2.30977">
        <ele>17</ele>
        <time>2018-01-07T03:31:32Z</time>
      </trkpt>
      <trkpt lat="50.77176" lon="2.31004">
        <ele>17</ele>
        <time>2018-01-07T03:32:32Z</time>
      </trkpt>
      <trkpt lat="50.77178" lon="2.31031">
        <ele>17</ele>
        <time>2018-01-07T03:33:32Z</time>
      </trkpt>
      <trkpt lat="50.7718" lon="2.31056">
        <ele>17</ele>
        <time>2018-01-07T03:34:32Z</time>
      </trkpt>
      <trkpt lat="50.77181" lon="2.31067">
        <ele>17</ele>
        <time>2018-01-07T03:35:32Z</time>
      </trkpt>
      <trkpt lat="50.77185" lon="2.31088">
        <ele>17</ele>
        <time>2018-01-07T03:36:32Z</time>
      </trkpt>
      <trkpt lat="50.77189" lon="2.3111">
        <ele>17</ele>
        <time>2018-01-07T03:37:32Z</time>
      </trkpt>
      <trkpt lat="50.77192" lon="2.31125">
        <ele>17</ele>
        <time>2018-01-07T03:38:32Z</time>
      </trkpt>
      <trkpt lat="50.77199" lon="2.31144">
        <ele>16</ele>
        <time>2018-01-07T03:39:32Z</time>
      </trkpt>
      <trkpt lat="50.77207" lon="2.31166">
        <ele>16</ele>
        <time>2018-01-07T03:40:32Z</time>
      </trkpt>
      <trkpt lat="50.77219" lon="2.31193">
        <ele>16</ele>
        <time>2018-01-07T03:41:32Z</time>
      </trkpt>
      <trkpt lat="50.77229" lon="2.31214">
        <ele>16</ele>
        <time>2018-01-07T03:42:32Z</time>
      </trkpt>
      <trkpt lat="50.77238" lon="2.31236">
        <ele>15</ele>
        <time>2018-01-07T03:43:32Z</time>
      </trkpt>
      <trkpt lat="50.77246" lon="2.31258">
        <ele>15</ele>
        <time>2018-01-07T03:44:32Z</time>
      </trkpt>
      <trkpt lat="50.7725" lon="2.31272">
        <ele>15</ele>
        <time>2018-01-07T03:45:32Z</time>
      </trkpt>
      <trkpt lat="50.77255" lon="2.31296">
        <ele>14</ele>
        <time>2018-01-07T03:46:32Z</time>
      </trkpt>
      <trkpt lat="50.77257" lon="2.31305">
        <ele>14</ele>
        <time>2018-01-07T03:47:32Z</time>
      </trkpt>
      <trkpt lat="50.77261" lon="2.31337">
        <ele>13</ele>
        <time>2018-01-07T03:48:32Z</time>
      </trkpt>
      <trkpt lat="50.77267" lon="2.31387">
        <ele>11</ele>
        <time>2018-01-07T03:49:32Z</time>
      </trkpt>
      <trkpt lat="50.77268" lon="2.31396">
        <ele>11</ele>
        <time>2018-01-07T03:50:32Z</time>
      </trkpt>
      <trkpt lat="50.77276" lon="2.31486">
        <ele>7</ele>
        <time>2018-01-07T03:51:32Z</time>
      </trkpt>
      <trkpt lat="50.7728" lon="2.31523">
        <ele>6</ele>
        <time>2018-01-07T03:52:32Z</time>
      </trkpt>
      <trkpt lat="50.77289" lon="2.31625">
        <ele>6</ele>
        <time>2018-01-07T03:53:32Z</time>
      </trkpt>
      <trkpt lat="50.77303" lon="2.31768">
        <ele>5</ele>
        <time>2018-01-07T03:54:32Z</time>
      </trkpt>
      <trkpt lat="50.77306" lon="2.31803">
        <ele>5</ele>
        <time>2018-01-07T03:55:32Z</time>
      </trkpt>
      <trkpt lat="50.77314" lon="2.31886">
        <ele>5</ele>
        <time>2018-01-07T03:56:32Z</time>
      </trkpt>
      <trkpt lat="50.77315" lon="2.31894">
        <ele>5</ele>
        <time>2018-01-07T03:57:32Z</time>
      </trkpt>
      <trkpt lat="50.7732" lon="2.3195">
        <ele>5</ele>
        <time>2018-01-07T03:58:32Z</time>
      </trkpt>
      <trkpt lat="50.77327" lon="2.32028">
        <ele>5</ele>
        <time>2018-01-07T03:59:32Z</time>
      </trkpt>
      <trkpt lat="50.77335" lon="2.32107">
        <ele>5</ele>
        <time>2018-01-07T04:00:32Z</time>
      </trkpt>
      <trkpt lat="50.77342" lon="2.32181">
        <ele>5</ele>
        <time>2018-01-07T04:01:32Z</time>
      </trkpt>
      <trkpt lat="50.77354" lon="2.32302">
        <ele>5</ele>
        <time>2018-01-07T04:02:32Z</time>
      </trkpt>
      <trkpt lat="50.77355" lon="2.32314">
        <ele>5</ele>
        <time>2018-01-07T04:03:32Z</time>
      </trkpt>
      <trkpt lat="50.77356" lon="2.32326">
        <ele>5</ele>
        <time>2018-01-07T04:04:32Z</time>
      </trkpt>
      <trkpt lat="50.77368" lon="2.32454">
        <ele>5</ele>
        <time>2018-01-07T04:05:32Z</time>
      </trkpt>
      <trkpt lat="50.77379" lon="2.32577">
        <ele>5</ele>
        <time>2018-01-07T04:06:32Z</time>
      </trkpt>
      <trkpt lat="50.77382" lon="2.32614">
        <ele>6</ele>
        <time>2018-01-07T04:07:32Z</time>
      </trkpt>
      <trkpt lat="50.77386" lon="2.32658">
        <ele>6</ele>
        <time>2018-01-07T04:08:32Z</time>
      </trkpt>
      <trkpt lat="50.77388" lon="2.32682">
        <ele>6</ele>
        <time>2018-01-07T04:09:32Z</time>
      </trkpt>
      <trkpt lat="50.77392" lon="2.32703">
        <ele>6</ele>
        <time>2018-01-07T04:10:32Z</time>
      </trkpt>
      <trkpt lat="50.77393" lon="2.32707">
        <ele>6</ele>
        <time>2018-01-07T04:11:32Z</time>
      </trkpt>
      <trkpt lat="50.77398" lon="2.32721">
        <ele>5</ele>
        <time>2018-01-07T04:12:32Z</time>
      </trkpt>
      <trkpt lat="50.77408" lon="2.32742">
        <ele>5</ele>
        <time>2018-01-07T04:13:32Z</time>
      </trkpt>
      <trkpt lat="50.77433" lon="2.32784">
        <ele>4</ele>
        <time>2018-01-07T04:14:32Z</time>
      </trkpt>
      <trkpt lat="50.77501" lon="2.32899">
        <ele>3</ele>
        <time>2018-01-07T04:15:32Z</time>
      </trkpt>
      <trkpt lat="50.77544" lon="2.32971">
        <ele>3</ele>
        <time>2018-01-07T04:16:32Z</time>
      </trkpt>
      <trkpt lat="50.77546" lon="2.32974">
        <ele>3</ele>
        <time>2018-01-07T04:17:32Z</time>
      </trkpt>
      <trkpt lat="50.77552" lon="2.32988">
        <ele>3</ele>
        <time>2018-01-07T04:18:32Z</time>
      </trkpt>
      <trkpt lat="50.77556" lon="2.33001">
        <ele>3</ele>
        <time>2018-01-07T04:19:32Z</time>
      </trkpt>
      <trkpt lat="50.77559" lon="2.33014">
        <ele>3</ele>
        <time>2018-01-07T04:20:32Z</time>
      </trkpt>
      <trkpt lat="50.7756" lon="2.33029">
        <ele>3</ele>
        <time>2018-01-07T04:21:32Z</time>
      </trkpt>
      <trkpt lat="50.77563" lon="2.33072">
        <ele>3</ele>
        <time>2018-01-07T04:22:32Z</time>
      </trkpt>
      <trkpt lat="50.77565" lon="2.33109">
        <ele>2</ele>
        <time>2018-01-07T04:23:32Z</time>
      </trkpt>
      <trkpt lat="50.77565" lon="2.33112">
        <ele>2</ele>
        <time>2018-01-07T04:24:32Z</time>
      </trkpt>
      <trkpt lat="50.77565" lon="2.33115">
        <ele>2</ele>
        <time>2018-01-07T04:25:32Z</time>
      </trkpt>
      <trkpt lat="50.77565" lon="2.33123">
        <ele>2</ele>
        <time>2018-01-07T04:26:32Z</time>
      </trkpt>
      <trkpt lat="50.77566" lon="2.3313">
        <ele>2</ele>
        <time>2018-01-07T04:27:32Z</time>
      </trkpt>
      <trkpt lat="50.77568" lon="2.33183">
        <ele>2</ele>
        <time>2018-01-07T04:28:32Z</time>
      </trkpt>
      <trkpt lat="50.77573" lon="2.33303">
        <ele>1</ele>
        <time>2018-01-07T04:29:32Z</time>
      </trkpt>
      <trkpt lat="50.77576" lon="2.33356">
        <ele>1</ele>
        <time>2018-01-07T04:30:32Z</time>
      </trkpt>
      <trkpt lat="50.77577" lon="2.33369">
        <ele>1</ele>
        <time>2018-01-07T04:31:32Z</time>
      </trkpt>
      <trkpt lat="50.77579" lon="2.33403">
        <ele>1</ele>
        <time>2018-01-07T04:32:32Z</time>
      </trkpt>
      <trkpt lat="50.77584" lon="2.33435">
        <ele>1</ele>
        <time>2018-01-07T04:33:32Z</time>
      </trkpt>
      <trkpt lat="50.77591" lon="2.33482">
        <ele>2</ele>
        <time>2018-01-07T04:34:32Z</time>
      </trkpt>
      <trkpt lat="50.77602" lon="2.33538">
        <ele>2</ele>
        <time>2018-01-07T04:35:32Z</time>
      </trkpt>
      <trkpt lat="50.77603" lon="2.3354">
        <ele>2</ele>
        <time>2018-01-07T04:36:32Z</time>
      </trkpt>
      <trkpt lat="50.77611" lon="2.33576">
        <ele>3</ele>
        <time>2018-01-07T04:37:32Z</time>
      </trkpt>
      <trkpt lat="50.77613" lon="2.33582">
        <ele>3</ele>
        <time>2018-01-07T04:38:32Z</time>
      </trkpt>
      <trkpt lat="50.77615" lon="2.3359">
        <ele>3</ele>
        <time>2018-01-07T04:39:32Z</time>
      </trkpt>
      <trkpt lat="50.77618" lon="2.33601">
        <ele>3</ele>
        <time>2018-01-07T04:40:32Z</time>
      </trkpt>
      <trkpt lat="50.77635" lon="2.33664">
        <ele>4</ele>
        <time>2018-01-07T04:41:32Z</time>
      </trkpt>
      <trkpt lat="50.77645" lon="2.33705">
        <ele>5</ele>
        <time>2018-01-07T04:42:32Z</time>
      </trkpt>
      <trkpt lat="50.77649" lon="2.33722">
        <ele>5</ele>
        <time>2018-01-07T04:43:32Z</time>
      </trkpt>
      <trkpt lat="50.77654" lon="2.33756">
        <ele>6</ele>
        <time>2018-01-07T04:44:32Z</time>
      </trkpt>
      <trkpt lat="50.77657" lon="2.33793">
        <ele>6</ele>
        <time>2018-01-07T04:45:32Z</time>
      </trkpt>
      <trkpt lat="50.77657" lon="2.33827">
        <ele>7</ele>
        <time>2018-01-07T04:46:32Z</time>
      </trkpt>
      <trkpt lat="50.77656" lon="2.33885">
        <ele>7</ele>
        <time>2018-01-07T04:47:32Z</time>
      </trkpt>
      <trkpt lat="50.77656" lon="2.339">
        <ele>7</ele>
        <time>2018-01-07T04:48:32Z</time>
      </trkpt>
      <trkpt lat="50.77653" lon="2.33975">
        <ele>7</ele>
        <time>2018-01-07T04:49:32Z</time>
      </trkpt>
      <trkpt lat="50.77648" lon="2.34077">
        <ele>8</ele>
        <time>2018-01-07T04:50:32Z</time>
      </trkpt>
      <trkpt lat="50.77648" lon="2.3409">
        <ele>8</ele>
        <time>2018-01-07T04:51:32Z</time>
      </trkpt>
      <trkpt lat="50.77648" lon="2.3411">
        <ele>8</ele>
        <time>2018-01-07T04:52:32Z</time>
      </trkpt>
      <trkpt lat="50.77648" lon="2.34133">
        <ele>9</ele>
        <time>2018-01-07T04:53:32Z</time>
      </trkpt>
      <trkpt lat="50.77649" lon="2.34188">
        <ele>9</ele>
        <time>2018-01-07T04:54:32Z</time>
      </trkpt>
      <trkpt lat="50.77655" lon="2.34305">
        <ele>12</ele>
        <time>2018-01-07T04:55:32Z</time>
      </trkpt>
      <trkpt lat="50.77656" lon="2.34328">
        <ele>13</ele>
        <time>2018-01-07T04:56:32Z</time>
      </trkpt>
      <trkpt lat="50.77659" lon="2.34387">
        <ele>12</ele>
        <time>2018-01-07T04:57:32Z</time>
      </trkpt>
      <trkpt lat="50.77662" lon="2.34458">
        <ele>10</ele>
        <time>2018-01-07T04:58:32Z</time>
      </trkpt>
      <trkpt lat="50.77663" lon="2.34463">
        <ele>10</ele>
        <time>2018-01-07T04:59:32Z</time>
      </trkpt>
      <trkpt lat="50.77663" lon="2.34473">
        <ele>10</ele>
        <time>2018-01-07T05:00:32Z</time>
      </trkpt>
      <trkpt lat="50.77664" lon="2.34485">
        <ele>9</ele>
        <time>2018-01-07T05:01:32Z</time>
      </trkpt>
      <trkpt lat="50.77664" lon="2.34493">
        <ele>9</ele>
        <time>2018-01-07T05:02:32Z</time>
      </trkpt>
      <trkpt lat="50.77664" lon="2.34503">
        <ele>9</ele>
        <time>2018-01-07T05:03:32Z</time>
      </trkpt>
      <trkpt lat="50.77665" lon="2.34516">
        <ele>8</ele>
        <time>2018-01-07T05:04:32Z</time>
      </trkpt>
      <trkpt lat="50.77669" lon="2.34604">
        <ele>5</ele>
        <time>2018-01-07T05:05:32Z</time>
      </trkpt>
      <trkpt lat="50.77671" lon="2.34658">
        <ele>2</ele>
        <time>2018-01-07T05:06:32Z</time>
      </trkpt>
      <trkpt lat="50.77671" lon="2.34684">
        <ele>2</ele>
        <time>2018-01-07T05:07:32Z</time>
      </trkpt>
      <trkpt lat="50.77666" lon="2.34709">
        <ele>2</ele>
        <time>2018-01-07T05:08:32Z</time>
      </trkpt>
      <trkpt lat="50.77658" lon="2.34743">
        <ele>2</ele>
        <time>2018-01-07T05:09:32Z</time>
      </trkpt>
      <trkpt lat="50.77631" lon="2.34823">
        <ele>2</ele>
        <time>2018-01-07T05:10:32Z</time>
      </trkpt>
      <trkpt lat="50.77607" lon="2.34894">
        <ele>2</ele>
        <time>2018-01-07T05:11:32Z</time>
      </trkpt>
      <trkpt lat="50.7759" lon="2.34943">
        <ele>3</ele>
        <time>2018-01-07T05:12:32Z</time>
      </trkpt>
      <trkpt lat="50.77576" lon="2.34986">
        <ele>3</ele>
        <time>2018-01-07T05:13:32Z</time>
      </trkpt>
      <trkpt lat="50.77559" lon="2.35031">
        <ele>3</ele>
        <time>2018-01-07T05:14:32Z</time>
      </trkpt>
      <trkpt lat="50.77555" lon="2.35042">
        <ele>3</ele>
        <time>2018-01-07T05:15:32Z</time>
      </trkpt>
      <trkpt lat="50.77535" lon="2.35092">
        <ele>2</ele>
        <time>2018-01-07T05:16:32Z</time>
      </trkpt>
      <trkpt lat="50.77515" lon="2.35144">
        <ele>1</ele>
        <time>2018-01-07T05:17:32Z</time>
      </trkpt>
      <trkpt lat="50.77513" lon="2.3515">
        <ele>1</ele>
        <time>2018-01-07T05:18:32Z</time>
      </trkpt>
      <trkpt lat="50.77484" lon="2.35224">
        <ele>1</ele>
        <time>2018-01-07T05:19:32Z</time>
      </trkpt>
      <trkpt lat="50.77462" lon="2.35284">
        <ele>1</ele>
        <time>2018-01-07T05:20:32Z</time>
      </trkpt>
      <trkpt lat="50.77458" lon="2.35298">
        <ele>2</ele>
        <time>2018-01-07T05:21:32Z</time>
      </trkpt>
      <trkpt lat="50.77444" lon="2.35346">
        <ele>2</ele>
        <time>2018-01-07T05:22:32Z</time>
      </trkpt>
      <trkpt lat="50.77431" lon="2.35388">
        <ele>2</ele>
        <time>2018-01-07T05:23:32Z</time>
      </trkpt>
      <trkpt lat="50.77412" lon="2.35433">
        <ele>2</ele>
        <time>2018-01-07T05:24:32Z</time>
      </trkpt>
      <trkpt lat="50.77405" lon="2.35447">
        <ele>2</ele>
        <time>2018-01-07T05:25:32Z</time>
      </trkpt>
      <trkpt lat="50.77368" lon="2.35524">
        <ele>1</ele>
        <time>2018-01-07T05:26:32Z</time>
      </trkpt>
      <trkpt lat="50.77357" lon="2.35548">
        <ele>2</ele>
        <time>2018-01-07T05:27:32Z</time>
      </trkpt>
      <trkpt lat="50.77338" lon="2.35587">
        <ele>1</ele>
        <time>2018-01-07T05:28:32Z</time>
      </trkpt>
      <trkpt lat="50.77312" lon="2.35644">
        <ele>2</ele>
        <time>2018-01-07T05:29:32Z</time>
      </trkpt>
      <trkpt lat="50.77302" lon="2.35668">
        <ele>1</ele>
        <time>2018-01-07T05:30:32Z</time>
      </trkpt>
      <trkpt lat="50.77295" lon="2.35686">
        <ele>1</ele>
        <time>2018-01-07T05:31:32Z</time>
      </trkpt>
      <trkpt lat="50.77291" lon="2.35695">
        <ele>2</ele>
        <time>2018-01-07T05:32:32Z</time>
      </trkpt>
      <trkpt lat="50.77288" lon="2.35703">
        <ele>2</ele>
        <time>2018-01-07T05:33:32Z</time>
      </trkpt>
      <trkpt lat="50.77287" lon="2.35705">
        <ele>2</ele>
        <time>2018-01-07T05:34:32Z</time>
      </trkpt>
      <trkpt lat="50.77286" lon="2.35709">
        <ele>2</ele>
        <time>2018-01-07T05:35:32Z</time>
      </trkpt>
      <trkpt lat="50.77264" lon="2.35764">
        <ele>2</ele>
        <time>2018-01-07T05:36:32Z</time>
      </trkpt>
      <trkpt lat="50.77256" lon="2.35787">
        <ele>2</ele>
        <time>2018-01-07T05:37:32Z</time>
      </trkpt>
      <trkpt lat="50.77248" lon="2.35806">
        <ele>1</ele>
        <time>2018-01-07T05:38:32Z</time>
      </trkpt>
      <trkpt lat="50.77246" lon="2.35813">
        <ele>1</ele>
        <time>2018-01-07T05:39:32Z</time>
      </trkpt>
      <trkpt lat="50.77233" lon="2.35861">
        <ele>2</ele>
        <time>2018-01-07T05:40:32Z</time>
      </trkpt>
      <trkpt lat="50.77212" lon="2.3594">
        <ele>3</ele>
        <time>2018-01-07T05:41:32Z</time>
      </trkpt>
      <trkpt lat="50.7721" lon="2.35947">
        <ele>4</ele>
        <time>2018-01-07T05:42:32Z</time>
      </trkpt>
      <trkpt lat="50.77207" lon="2.35959">
        <ele>4</ele>
        <time>2018-01-07T05:43:32Z</time>
      </trkpt>
      <trkpt lat="50.77193" lon="2.3601">
        <ele>5</ele>
        <time>2018-01-07T05:44:32Z</time>
      </trkpt>
      <trkpt lat="50.77184" lon="2.36045">
        <ele>4</ele>
        <time>2018-01-07T05:45:32Z</time>
      </trkpt>
      <trkpt lat="50.77173" lon="2.36087">
        <ele>4</ele>
        <time>2018-01-07T05:46:32Z</time>
      </trkpt>
      <trkpt lat="50.77157" lon="2.36151">
        <ele>3</ele>
        <time>2018-01-07T05:47:32Z</time>
      </trkpt>
      <trkpt lat="50.77142" lon="2.36218">
        <ele>3</ele>
        <time>2018-01-07T05:48:32Z</time>
      </trkpt>
      <trkpt lat="50.77128" lon="2.36293">
        <ele>3</ele>
        <time>2018-01-07T05:49:32Z</time>
      </trkpt>
      <trkpt lat="50.77124" lon="2.36314">
        <ele>3</ele>
        <time>2018-01-07T05:50:32Z</time>
      </trkpt>
      <trkpt lat="50.77113" lon="2.36359">
        <ele>3</ele>
        <time>2018-01-07T05:51:32Z</time>
      </trkpt>
      <trkpt lat="50.77094" lon="2.3643">
        <ele>3</ele>
        <time>2018-01-07T05:52:32Z</time>
      </trkpt>
      <trkpt lat="50.77077" lon="2.36482">
        <ele>2</ele>
        <time>2018-01-07T05:53:32Z</time>
      </trkpt>
      <trkpt lat="50.77048" lon="2.36566">
        <ele>2</ele>
        <time>2018-01-07T05:54:32Z</time>
      </trkpt>
      <trkpt lat="50.7702" lon="2.3664">
        <ele>3</ele>
        <time>2018-01-07T05:55:32Z</time>
      </trkpt>
      <trkpt lat="50.77014" lon="2.36658">
        <ele>4</ele>
        <time>2018-01-07T05:56:32Z</time>
      </trkpt>
      <trkpt lat="50.76999" lon="2.36701">
        <ele>4</ele>
        <time>2018-01-07T05:57:32Z</time>
      </trkpt>
      <trkpt lat="50.76978" lon="2.36751">
        <ele>5</ele>
        <time>2018-01-07T05:58:32Z</time>
      </trkpt>
      <trkpt lat="50.76972" lon="2.36764">
        <ele>5</ele>
        <time>2018-01-07T05:59:32Z</time>
      </trkpt>
      <trkpt lat="50.76958" lon="2.36793">
        <ele>5</ele>
        <time>2018-01-07T06:00:32Z</time>
      </trkpt>
      <trkpt lat="50.76956" lon="2.36798">
        <ele>5</ele>
        <time>2018-01-07T06:01:32Z</time>
      </trkpt>
      <trkpt lat="50.76948" lon="2.36818">
        <ele>5</ele>
        <time>2018-01-07T06:02:32Z</time>
      </trkpt>
      <trkpt lat="50.76921" lon="2.36878">
        <ele>5</ele>
        <time>2018-01-07T06:03:32Z</time>
      </trkpt>
      <trkpt lat="50.76907" lon="2.36912">
        <ele>5</ele>
        <time>2018-01-07T06:04:32Z</time>
      </trkpt>
      <trkpt lat="50.76903" lon="2.36932">
        <ele>5</ele>
        <time>2018-01-07T06:05:32Z</time>
      </trkpt>
      <trkpt lat="50.769" lon="2.36958">
        <ele>5</ele>
        <time>2018-01-07T06:06:32Z</time>
      </trkpt>
      <trkpt lat="50.769" lon="2.36985">
        <ele>5</ele>
        <time>2018-01-07T06:07:32Z</time>
      </trkpt>
      <trkpt lat="50.76902" lon="2.3702">
        <ele>5</ele>
        <time>2018-01-07T06:08:32Z</time>
      </trkpt>
      <trkpt lat="50.76904" lon="2.37083">
        <ele>5</ele>
        <time>2018-01-07T06:09:32Z</time>
      </trkpt>
      <trkpt lat="50.76907" lon="2.37169">
        <ele>5</ele>
        <time>2018-01-07T06:10:32Z</time>
      </trkpt>
      <trkpt lat="50.7691" lon="2.37243">
        <ele>4</ele>
        <time>2018-01-07T06:11:32Z</time>
      </trkpt>
      <trkpt lat="50.76911" lon="2.37302">
        <ele>4</ele>
        <time>2018-01-07T06:12:32Z</time>
      </trkpt>
      <trkpt lat="50.76909" lon="2.37327">
        <ele>3</ele>
        <time>2018-01-07T06:13:32Z</time>
      </trkpt>
      <trkpt lat="50.76909" lon="2.37337">
        <ele>3</ele>
        <time>2018-01-07T06:14:32Z</time>
      </trkpt>
      <trkpt lat="50.76903" lon="2.37363">
        <ele>4</ele>
        <time>2018-01-07T06:15:32Z</time>
      </trkpt>
      <trkpt lat="50.76893" lon="2.37391">
        <ele>4</ele>
        <time>2018-01-07T06:16:32Z</time>
      </trkpt>
      <trkpt lat="50.76875" lon="2.37435">
        <ele>5</ele>
        <time>2018-01-07T06:17:32Z</time>
      </trkpt>
      <trkpt lat="50.76841" lon="2.37516">
        <ele>5</ele>
        <time>2018-01-07T06:18:32Z</time>
      </trkpt>
      <trkpt lat="50.76805" lon="2.37601">
        <ele>6</ele>
        <time>2018-01-07T06:19:32Z</time>
      </trkpt>
      <trkpt lat="50.76794" lon="2.37629">
        <ele>7</ele>
        <time>2018-01-07T06:20:32Z</time>
      </trkpt>
      <trkpt lat="50.76779" lon="2.37665">
        <ele>8</ele>
        <time>2018-01-07T06:21:32Z</time>
      </trkpt>
      <trkpt lat="50.76761" lon="2.37711">
        <ele>8</ele>
        <time>2018-01-07T06:22:32Z</time>
      </trkpt>
      <trkpt lat="50.76752" lon="2.37732">
        <ele>9</ele>
        <time>2018-01-07T06:23:32Z</time>
      </trkpt>
      <trkpt lat="50.76747" lon="2.37741">
        <ele>9</ele>
        <time>2018-01-07T06:24:32Z</time>
      </trkpt>
      <trkpt lat="50.76733" lon="2.37767">
        <ele>9</ele>
        <time>2018-01-07T06:25:32Z</time>
      </trkpt>
      <trkpt lat="50.76708" lon="2.37804">
        <ele>8</ele>
        <time>2018-01-07T06:26:32Z</time>
      </trkpt>
      <trkpt lat="50.76671" lon="2.37851">
        <ele>8</ele>
        <time>2018-01-07T06:27:32Z</time>
      </trkpt>
      <trkpt lat="50.76652" lon="2.37875">
        <ele>8</ele>
        <time>2018-01-07T06:28:32Z</time>
      </trkpt>
      <trkpt lat="50.76594" lon="2.37946">
        <ele>8</ele>
        <time>2018-01-07T06:29:32Z</time>
      </trkpt>
      <trkpt lat="50.76536" lon="2.38016">
        <ele>8</ele>
        <time>2018-01-07T06:30:32Z</time>
      </trkpt>
      <trkpt lat="50.76517" lon="2.38038">
        <ele>8</ele>
        <time>2018-01-07T06:31:32Z</time>
      </trkpt>
      <trkpt lat="50.76487" lon="2.38075">
        <ele>8</ele>
        <time>2018-01-07T06:32:32Z</time>
      </trkpt>
      <trkpt lat="50.76481" lon="2.38082">
        <ele>8</ele>
        <time>2018-01-07T06:33:32Z</time>
      </trkpt>
      <trkpt lat="50.76478" lon="2.38085">
        <ele>8</ele>
        <time>2018-01-07T06:34:32Z</time>
      </trkpt>
      <trkpt lat="50.76431" lon="2.38144">
        <ele>9</ele>
        <time>2018-01-07T06:35:32Z</time>
      </trkpt>
      <trkpt lat="50.7641" lon="2.3817">
        <ele>9</ele>
        <time>2018-01-07T06:36:32Z</time>
      </trkpt>
      <trkpt lat="50.76385" lon="2.382">
        <ele>11</ele>
        <time>2018-01-07T06:37:32Z</time>
      </trkpt>
      <trkpt lat="50.76378" lon="2.38209">
        <ele>11</ele>
        <time>2018-01-07T06:38:32Z</time>
      </trkpt>
      <trkpt lat="50.76321" lon="2.38278">
        <ele>13</ele>
        <time>2018-01-07T06:39:32Z</time>
      </trkpt>
      <trkpt lat="50.76256" lon="2.38353">
        <ele>15</ele>
        <time>2018-01-07T06:40:32Z</time>
      </trkpt>
      <trkpt lat="50.76249" lon="2.3836">
        <ele>15</ele>
        <time>2018-01-07T06:41:32Z</time>
      </trkpt>
      <trkpt lat="50.76183" lon="2.38431">
        <ele>17</ele>
        <time>2018-01-07T06:42:32Z</time>
      </trkpt>
      <trkpt lat="50.76141" lon="2.38474">
        <ele>18</ele>
        <time>2018-01-07T06:43:32Z</time>
      </trkpt>
      <trkpt lat="50.7613" lon="2.38487">
        <ele>18</ele>
        <time>2018-01-07T06:44:32Z</time>
      </trkpt>
      <trkpt lat="50.761" lon="2.38525">
        <ele>18</ele>
        <time>2018-01-07T06:45:32Z</time>
      </trkpt>
      <trkpt lat="50.7604" lon="2.38606">
        <ele>18</ele>
        <time>2018-01-07T06:46:32Z</time>
      </trkpt>
      <trkpt lat="50.75989" lon="2.38677">
        <ele>18</ele>
        <time>2018-01-07T06:47:32Z</time>
      </trkpt>
      <trkpt lat="50.75976" lon="2.38693">
        <ele>18</ele>
        <time>2018-01-07T06:48:32Z</time>
      </trkpt>
      <trkpt lat="50.75974" lon="2.38696">
        <ele>18</ele>
        <time>2018-01-07T06:49:32Z</time>
      </trkpt>
      <trkpt lat="50.75964" lon="2.38709">
        <ele>18</ele>
        <time>2018-01-07T06:50:32Z</time>
      </trkpt>
      <trkpt lat="50.75955" lon="2.38721">
        <ele>18</ele>
        <time>2018-01-07T06:51:32Z</time>
      </trkpt>
      <trkpt lat="50.75896" lon="2.38799">
        <ele>17</ele>
        <time>2018-01-07T06:52:32Z</time>
      </trkpt>
      <trkpt lat="50.75877" lon="2.38822">
        <ele>16</ele>
        <time>2018-01-07T06:53:32Z</time>
      </trkpt>
      <trkpt lat="50.75858" lon="2.38846">
        <ele>17</ele>
        <time>2018-01-07T06:54:32Z</time>
      </trkpt>
      <trkpt lat="50.75842" lon="2.38869">
        <ele>18</ele>
        <time>2018-01-07T06:55:32Z</time>
      </trkpt>
      <trkpt lat="50.75841" lon="2.3887">
        <ele>19</ele>
        <time>2018-01-07T06:56:32Z</time>
      </trkpt>
      <trkpt lat="50.75823" lon="2.38898">
        <ele>20</ele>
        <time>2018-01-07T06:57:32Z</time>
      </trkpt>
      <trkpt lat="50.75799" lon="2.38928">
        <ele>22</ele>
        <time>2018-01-07T06:58:32Z</time>
      </trkpt>
      <trkpt lat="50.75799" lon="2.38929">
        <ele>22</ele>
        <time>2018-01-07T06:59:32Z</time>
      </trkpt>
      <trkpt lat="50.75774" lon="2.38963">
        <ele>23</ele>
        <time>2018-01-07T07:00:32Z</time>
      </trkpt>
      <trkpt lat="50.75747" lon="2.38997">
        <ele>24</ele>
        <time>2018-01-07T07:01:32Z</time>
      </trkpt>
      <trkpt lat="50.75736" lon="2.39012">
        <ele>24</ele>
        <time>2018-01-07T07:02:32Z</time>
      </trkpt>
      <trkpt lat="50.75736" lon="2.39012">
        <ele>24</ele>
        <time>2018-01-07T07:03:32Z</time>
      </trkpt>
      <trkpt lat="50.75714" lon="2.3904">
        <ele>23</ele>
        <time>2018-01-07T07:04:32Z</time>
      </trkpt>
      <trkpt lat="50.75686" lon="2.39075">
        <ele>23</ele>
        <time>2018-01-07T07:05:32Z</time>
      </trkpt>
      <trkpt lat="50.75683" lon="2.39078">
        <ele>23</ele>
        <time>2018-01-07T07:06:32Z</time>
      </trkpt>
      <trkpt lat="50.75656" lon="2.39111">
        <ele>22</ele>
        <time>2018-01-07T07:07:32Z</time>
      </trkpt>
      <trkpt lat="50.75621" lon="2.39154">
        <ele>23</ele>
        <time>2018-01-07T07:08:32Z</time>
      </trkpt>
      <trkpt lat="50.75583" lon="2.39196">
        <ele>25</ele>
        <time>2018-01-07T07:09:32Z</time>
      </trkpt>
      <trkpt lat="50.75543" lon="2.39245">
        <ele>26</ele>
        <time>2018-01-07T07:10:32Z</time>
      </trkpt>
      <trkpt lat="50.75522" lon="2.3927">
        <ele>27</ele>
        <time>2018-01-07T07:11:32Z</time>
      </trkpt>
      <trkpt lat="50.75519" lon="2.39274">
        <ele>27</ele>
        <time>2018-01-07T07:12:32Z</time>
      </trkpt>
      <trkpt lat="50.75495" lon="2.393">
        <ele>28</ele>
        <time>2018-01-07T07:13:32Z</time>
      </trkpt>
      <trkpt lat="50.75444" lon="2.39358">
        <ele>30</ele>
        <time>2018-01-07T07:14:32Z</time>
      </trkpt>
      <trkpt lat="50.75395" lon="2.39415">
        <ele>33</ele>
        <time>2018-01-07T07:15:32Z</time>
      </trkpt>
      <trkpt lat="50.75346" lon="2.39471">
        <ele>36</ele>
        <time>2018-01-07T07:16:32Z</time>
      </trkpt>
      <trkpt lat="50.75305" lon="2.39519">
        <ele>40</ele>
        <time>2018-01-07T07:17:32Z</time>
      </trkpt>
      <trkpt lat="50.75282" lon="2.39544">
        <ele>42</ele>
        <time>2018-01-07T07:18:32Z</time>
      </trkpt>
      <trkpt lat="50.7523" lon="2.39614">
        <ele>48</ele>
        <time>2018-01-07T07:19:32Z</time>
      </trkpt>
      <trkpt lat="50.75185" lon="2.39673">
        <ele>53</ele>
        <time>2018-01-07T07:20:32Z</time>
      </trkpt>
      <trkpt lat="50.75151" lon="2.39721">
        <ele>54</ele>
        <time>2018-01-07T07:21:32Z</time>
      </trkpt>
      <trkpt lat="50.75121" lon="2.39759">
        <ele>55</ele>
        <time>2018-01-07T07:22:32Z</time>
      </trkpt>
      <trkpt lat="50.75101" lon="2.39785">
        <ele>56</ele>
        <time>2018-01-07T07:23:32Z</time>
      </trkpt>
      <trkpt lat="50.75098" lon="2.39787">
        <ele>56</ele>
        <time>2018-01-07T07:24:32Z</time>
      </trkpt>
      <trkpt lat="50.75091" lon="2.39795">
        <ele>56</ele>
        <time>2018-01-07T07:25:32Z</time>
      </trkpt>
      <trkpt lat="50.75084" lon="2.39803">
        <ele>56</ele>
        <time>2018-01-07T07:26:32Z</time>
      </trkpt>
      <trkpt lat="50.75063" lon="2.39823">
        <ele>56</ele>
        <time>2018-01-07T07:27:32Z</time>
      </trkpt>
      <trkpt lat="50.75048" lon="2.39838">
        <ele>56</ele>
        <time>2018-01-07T07:28:32Z</time>
      </trkpt>
      <trkpt lat="50.75031" lon="2.3986">
        <ele>57</ele>
        <time>2018-01-07T07:29:32Z</time>
      </trkpt>
      <trkpt lat="50.75018" lon="2.39879">
        <ele>57</ele>
        <time>2018-01-07T07:30:32Z</time>
      </trkpt>
      <trkpt lat="50.75012" lon="2.39888">
        <ele>57</ele>
        <time>2018-01-07T07:31:32Z</time>
      </trkpt>
      <trkpt lat="50.74997" lon="2.3991">
        <ele>57</ele>
        <time>2018-01-07T07:32:32Z</time>
      </trkpt>
      <trkpt lat="50.74994" lon="2.39915">
        <ele>57</ele>
        <time>2018-01-07T07:33:32Z</time>
      </trkpt>
      <trkpt lat="50.74977" lon="2.3994">
        <ele>57</ele>
        <time>2018-01-07T07:34:32Z</time>
      </trkpt>
      <trkpt lat="50.74963" lon="2.39959">
        <ele>58</ele>
        <time>2018-01-07T07:35:32Z</time>
      </trkpt>
      <trkpt lat="50.74955" lon="2.39968">
        <ele>58</ele>
        <time>2018-01-07T07:36:32Z</time>
      </trkpt>
      <trkpt lat="50.74949" lon="2.39975">
        <ele>58</ele>
        <time>2018-01-07T07:37:32Z</time>
      </trkpt>
      <trkpt lat="50.74949" lon="2.39975">
        <ele>58</ele>
        <time>2018-01-07T07:38:32Z</time>
      </trkpt>
      <trkpt lat="50.74926" lon="2.39895">
        <ele>58</ele>
        <time>2018-01-07T07:39:32Z</time>
      </trkpt>
      <trkpt lat="50.74926" lon="2.39895">
        <ele>58</ele>
        <time>2018-01-07T07:40:32Z</time>
      </trkpt>
      <trkpt lat="50.74912" lon="2.399">
        <ele>58</ele>
        <time>2018-01-07T07:41:32Z</time>
      </trkpt>
      <trkpt lat="50.74901" lon="2.3991">
        <ele>58</ele>
        <time>2018-01-07T07:42:32Z</time>
      </trkpt>
      <trkpt lat="50.74891" lon="2.39921">
        <ele>58</ele>
        <time>2018-01-07T07:43:32Z</time>
      </trkpt>
      <trkpt lat="50.74882" lon="2.39934">
        <ele>58</ele>
        <time>2018-01-07T07:44:32Z</time>
      </trkpt>
      <trkpt lat="50.74873" lon="2.39953">
        <ele>58</ele>
        <time>2018-01-07T07:45:32Z</time>
      </trkpt>
      <trkpt lat="50.74862" lon="2.39976">
        <ele>58</ele>
        <time>2018-01-07T07:46:32Z</time>
      </trkpt>
      <trkpt lat="50.74848" lon="2.40009">
        <ele>59</ele>
        <time>2018-01-07T07:47:32Z</time>
      </trkpt>
      <trkpt lat="50.74834" lon="2.40044">
        <ele>59</ele>
        <time>2018-01-07T07:48:32Z</time>
      </trkpt>
      <trkpt lat="50.74821" lon="2.4008">
        <ele>59</ele>
        <time>2018-01-07T07:49:32Z</time>
      </trkpt>
      <trkpt lat="50.74815" lon="2.40097">
        <ele>58</ele>
        <time>2018-01-07T07:50:32Z</time>
      </trkpt>
      <trkpt lat="50.74803" lon="2.40129">
        <ele>58</ele>
        <time>2018-01-07T07:51:32Z</time>
      </trkpt>
      <trkpt lat="50.74778" lon="2.40188">
        <ele>59</ele>
        <time>2018-01-07T07:52:32Z</time>
      </trkpt>
      <trkpt lat="50.74757" lon="2.40237">
        <ele>60</ele>
        <time>2018-01-07T07:53:32Z</time>
      </trkpt>
      <trkpt lat="50.74741" lon="2.40268">
        <ele>60</ele>
        <time>2018-01-07T07:54:32Z</time>
      </trkpt>
      <trkpt lat="50.74729" lon="2.40289">
        <ele>61</ele>
        <time>2018-01-07T07:55:32Z</time>
      </trkpt>
      <trkpt lat="50.74718" lon="2.40302">
        <ele>61</ele>
        <time>2018-01-07T07:56:32Z</time>
      </trkpt>
      <trkpt lat="50.74703" lon="2.40318">
        <ele>62</ele>
        <time>2018-01-07T07:57:32Z</time>
      </trkpt>
      <trkpt lat="50.74682" lon="2.40341">
        <ele>63</ele>
        <time>2018-01-07T07:58:32Z</time>
      </trkpt>
      <trkpt lat="50.74668" lon="2.40357">
        <ele>64</ele>
        <time>2018-01-07T07:59:32Z</time>
      </trkpt>
      <trkpt lat="50.74649" lon="2.40377">
        <ele>64</ele>
        <time>2018-01-07T08:00:32Z</time>
      </trkpt>
      <trkpt lat="50.74643" lon="2.40384">
        <ele>64</ele>
        <time>2018-01-07T08:01:32Z</time>
      </trkpt>
      <trkpt lat="50.74626" lon="2.40401">
        <ele>64</ele>
        <time>2018-01-07T08:02:32Z</time>
      </trkpt>
      <trkpt lat="50.74608" lon="2.40423">
        <ele>64</ele>
        <time>2018-01-07T08:03:32Z</time>
      </trkpt>
      <trkpt lat="50.74603" lon="2.40428">
        <ele>64</ele>
        <time>2018-01-07T08:04:32Z</time>
      </trkpt>
      <trkpt lat="50.74586" lon="2.40452">
        <ele>65</ele>
        <time>2018-01-07T08:05:32Z</time>
      </trkpt>
      <trkpt lat="50.74556" lon="2.40492">
        <ele>66</ele>
        <time>2018-01-07T08:06:32Z</time>
      </trkpt>
      <trkpt lat="50.74527" lon="2.40531">
        <ele>65</ele>
        <time>2018-01-07T08:07:32Z</time>
      </trkpt>
      <trkpt lat="50.74506" lon="2.40559">
        <ele>65</ele>
        <time>2018-01-07T08:08:32Z</time>
      </trkpt>
      <trkpt lat="50.74483" lon="2.40592">
        <ele>64</ele>
        <time>2018-01-07T08:09:32Z</time>
      </trkpt>
      <trkpt lat="50.74462" lon="2.4062">
        <ele>64</ele>
        <time>2018-01-07T08:10:32Z</time>
      </trkpt>
      <trkpt lat="50.74448" lon="2.40638">
        <ele>65</ele>
        <time>2018-01-07T08:11:32Z</time>
      </trkpt>
      <trkpt lat="50.74438" lon="2.40647">
        <ele>65</ele>
        <time>2018-01-07T08:12:32Z</time>
      </trkpt>
      <trkpt lat="50.74429" lon="2.40652">
        <ele>65</ele>
        <time>2018-01-07T08:13:32Z</time>
      </trkpt>
      <trkpt lat="50.74426" lon="2.40654">
        <ele>65</ele>
        <time>2018-01-07T08:14:32Z</time>
      </trkpt>
      <trkpt lat="50.74422" lon="2.40657">
        <ele>65</ele>
        <time>2018-01-07T08:15:32Z</time>
      </trkpt>
      <trkpt lat="50.7441" lon="2.40662">
        <ele>64</ele>
        <time>2018-01-07T08:16:32Z</time>
      </trkpt>
      <trkpt lat="50.74401" lon="2.40667">
        <ele>64</ele>
        <time>2018-01-07T08:17:32Z</time>
      </trkpt>
      <trkpt lat="50.74397" lon="2.40669">
        <ele>64</ele>
        <time>2018-01-07T08:18:32Z</time>
      </trkpt>
      <trkpt lat="50.74384" lon="2.40679">
        <ele>64</ele>
        <time>2018-01-07T08:19:32Z</time>
      </trkpt>
      <trkpt lat="50.74375" lon="2.40691">
        <ele>64</ele>
        <time>2018-01-07T08:20:32Z</time>
      </trkpt>
      <trkpt lat="50.74363" lon="2.40707">
        <ele>64</ele>
        <time>2018-01-07T08:21:32Z</time>
      </trkpt>
      <trkpt lat="50.74354" lon="2.4072">
        <ele>64</ele>
        <time>2018-01-07T08:22:32Z</time>
      </trkpt>
      <trkpt lat="50.74316" lon="2.40776">
        <ele>65</ele>
        <time>2018-01-07T08:23:32Z</time>
      </trkpt>
      <trkpt lat="50.74315" lon="2.40778">
        <ele>65</ele>
        <time>2018-01-07T08:24:32Z</time>
      </trkpt>
      <trkpt lat="50.74308" lon="2.40786">
        <ele>65</ele>
        <time>2018-01-07T08:25:32Z</time>
      </trkpt>
      <trkpt lat="50.74273" lon="2.40837">
        <ele>68</ele>
        <time>2018-01-07T08:26:32Z</time>
      </trkpt>
      <trkpt lat="50.74236" lon="2.40894">
        <ele>67</ele>
        <time>2018-01-07T08:27:32Z</time>
      </trkpt>
      <trkpt lat="50.74211" lon="2.40932">
        <ele>66</ele>
        <time>2018-01-07T08:28:32Z</time>
      </trkpt>
      <trkpt lat="50.74193" lon="2.40958">
        <ele>66</ele>
        <time>2018-01-07T08:29:32Z</time>
      </trkpt>
      <trkpt lat="50.74143" lon="2.4103">
        <ele>66</ele>
        <time>2018-01-07T08:30:32Z</time>
      </trkpt>
      <trkpt lat="50.74121" lon="2.41065">
        <ele>65</ele>
        <time>2018-01-07T08:31:32Z</time>
      </trkpt>
      <trkpt lat="50.74072" lon="2.41136">
        <ele>65</ele>
        <time>2018-01-07T08:32:32Z</time>
      </trkpt>
      <trkpt lat="50.74025" lon="2.41203">
        <ele>65</ele>
        <time>2018-01-07T08:33:32Z</time>
      </trkpt>
      <trkpt lat="50.74001" lon="2.41237">
        <ele>65</ele>
        <time>2018-01-07T08:34:32Z</time>
      </trkpt>
      <trkpt lat="50.73996" lon="2.41245">
        <ele>65</ele>
        <time>2018-01-07T08:35:32Z</time>
      </trkpt>
      <trkpt lat="50.73974" lon="2.41275">
        <ele>65</ele>
        <time>2018-01-07T08:36:32Z</time>
      </trkpt>
      <trkpt lat="50.7395" lon="2.41304">
        <ele>65</ele>
        <time>2018-01-07T08:37:32Z</time>
      </trkpt>
      <trkpt lat="50.73947" lon="2.41306">
        <ele>65</ele>
        <time>2018-01-07T08:38:32Z</time>
      </trkpt>
      <trkpt lat="50.73927" lon="2.41326">
        <ele>65</ele>
        <time>2018-01-07T08:39:32Z</time>
      </trkpt>
      <trkpt lat="50.73907" lon="2.41341">
        <ele>65</ele>
        <time>2018-01-07T08:40:32Z</time>
      </trkpt>
      <trkpt lat="50.73887" lon="2.41355">
        <ele>64</ele>
        <time>2018-01-07T08:41:32Z</time>
      </trkpt>
      <trkpt lat="50.7388" lon="2.41358">
        <ele>64</ele>
        <time>2018-01-07T08:42:32Z</time>
      </trkpt>
      <trkpt lat="50.7387" lon="2.41362">
        <ele>64</ele>
        <time>2018-01-07T08:43:32Z</time>
      </trkpt>
      <trkpt lat="50.73853" lon="2.41367">
        <ele>64</ele>
        <time>2018-01-07T08:44:32Z</time>
      </trkpt>
      <trkpt lat="50.73825" lon="2.41372">
        <ele>63</ele>
        <time>2018-01-07T08:45:32Z</time>
      </trkpt>
      <trkpt lat="50.73797" lon="2.41374">
        <ele>62</ele>
        <time>2018-01-07T08:46:32Z</time>
      </trkpt>
      <trkpt lat="50.73777" lon="2.41378">
        <ele>62</ele>
        <time>2018-01-07T08:47:32Z</time>
      </trkpt>
      <trkpt lat="50.73766" lon="2.41381">
        <ele>62</ele>
        <time>2018-01-07T08:48:32Z</time>
      </trkpt>
      <trkpt lat="50.7376" lon="2.41382">
        <ele>61</ele>
        <time>2018-01-07T08:49:32Z</time>
      </trkpt>
      <trkpt lat="50.73754" lon="2.41384">
        <ele>61</ele>
        <time>2018-01-07T08:50:32Z</time>
      </trkpt>
      <trkpt lat="50.73754" lon="2.41384">
        <ele>61</ele>
        <time>2018-01-07T08:51:32Z</time>
      </trkpt>
      <trkpt lat="50.73757" lon="2.41388">
        <ele>62</ele>
        <time>2018-01-07T08:52:32Z</time>
      </trkpt>
      <trkpt lat="50.73766" lon="2.41399">
        <ele>62</ele>
        <time>2018-01-07T08:53:32Z</time>
      </trkpt>
      <trkpt lat="50.73785" lon="2.4142">
        <ele>63</ele>
        <time>2018-01-07T08:54:32Z</time>
      </trkpt>
      <trkpt lat="50.73805" lon="2.41442">
        <ele>64</ele>
        <time>2018-01-07T08:55:32Z</time>
      </trkpt>
      <trkpt lat="50.73827" lon="2.41466">
        <ele>64</ele>
        <time>2018-01-07T08:56:32Z</time>
      </trkpt>
      <trkpt lat="50.73846" lon="2.41489">
        <ele>65</ele>
        <time>2018-01-07T08:57:32Z</time>
      </trkpt>
      <trkpt lat="50.73873" lon="2.41521">
        <ele>65</ele>
        <time>2018-01-07T08:58:32Z</time>
      </trkpt>
      <trkpt lat="50.73898" lon="2.41553">
        <ele>66</ele>
        <time>2018-01-07T08:59:32Z</time>
      </trkpt>
      <trkpt lat="50.73916" lon="2.41581">
        <ele>66</ele>
        <time>2018-01-07T09:00:32Z</time>
      </trkpt>
      <trkpt lat="50.73921" lon="2.41588">
        <ele>66</ele>
        <time>2018-01-07T09:01:32Z</time>
      </trkpt>
      <trkpt lat="50.73925" lon="2.41593">
        <ele>66</ele>
        <time>2018-01-07T09:02:32Z</time>
      </trkpt>
      <trkpt lat="50.73946" lon="2.41622">
        <ele>66</ele>
        <time>2018-01-07T09:03:32Z</time>
      </trkpt>
      <trkpt lat="50.73966" lon="2.41649">
        <ele>66</ele>
        <time>2018-01-07T09:04:32Z</time>
      </trkpt>
      <trkpt lat="50.73993" lon="2.41683">
        <ele>66</ele>
        <time>2018-01-07T09:05:32Z</time>
      </trkpt>
      <trkpt lat="50.74025" lon="2.4172">
        <ele>66</ele>
        <time>2018-01-07T09:06:32Z</time>
      </trkpt>
      <trkpt lat="50.74041" lon="2.41738">
        <ele>65</ele>
        <time>2018-01-07T09:07:32Z</time>
      </trkpt>
      <trkpt lat="50.74045" lon="2.41745">
        <ele>65</ele>
        <time>2018-01-07T09:08:32Z</time>
      </trkpt>
      <trkpt lat="50.74074" lon="2.41778">
        <ele>64</ele>
        <time>2018-01-07T09:09:32Z</time>
      </trkpt>
      <trkpt lat="50.74093" lon="2.41802">
        <ele>63</ele>
        <time>2018-01-07T09:10:32Z</time>
      </trkpt>
      <trkpt lat="50.74104" lon="2.41816">
        <ele>63</ele>
        <time>2018-01-07T09:11:32Z</time>
      </trkpt>
      <trkpt lat="50.74116" lon="2.41832">
        <ele>63</ele>
        <time>2018-01-07T09:12:32Z</time>
      </trkpt>
      <trkpt lat="50.74132" lon="2.4186">
        <ele>62</ele>
        <time>2018-01-07T09:13:32Z</time>
      </trkpt>
      <trkpt lat="50.7414" lon="2.41874">
        <ele>62</ele>
        <time>2018-01-07T09:14:32Z</time>
      </trkpt>
      <trkpt lat="50.74153" lon="2.41896">
        <ele>61</ele>
        <time>2018-01-07T09:15:32Z</time>
      </trkpt>
      <trkpt lat="50.74187" lon="2.41951">
        <ele>59</ele>
        <time>2018-01-07T09:16:32Z</time>
      </trkpt>
      <trkpt lat="50.7421" lon="2.41988">
        <ele>58</ele>
        <time>2018-01-07T09:17:32Z</time>
      </trkpt>
      <trkpt lat="50.74212" lon="2.41992">
        <ele>58</ele>
        <time>2018-01-07T09:18:32Z</time>
      </trkpt>
      <trkpt lat="50.7423" lon="2.42023">
        <ele>57</ele>
        <time>2018-01-07T09:19:32Z</time>
      </trkpt>
      <trkpt lat="50.74259" lon="2.42067">
        <ele>57</ele>
        <time>2018-01-07T09:20:32Z</time>
      </trkpt>
      <trkpt lat="50.74286" lon="2.42111">
        <ele>56</ele>
        <time>2018-01-07T09:21:32Z</time>
      </trkpt>
      <trkpt lat="50.74299" lon="2.42131">
        <ele>55</ele>
        <time>2018-01-07T09:22:32Z</time>
      </trkpt>
      <trkpt lat="50.74328" lon="2.42181">
        <ele>53</ele>
        <time>2018-01-07T09:23:32Z</time>
      </trkpt>
      <trkpt lat="50.74345" lon="2.42212">
        <ele>53</ele>
        <time>2018-01-07T09:24:32Z</time>
      </trkpt>
      <trkpt lat="50.74372" lon="2.42269">
        <ele>53</ele>
        <time>2018-01-07T09:25:32Z</time>
      </trkpt>
      <trkpt lat="50.74398" lon="2.42323">
        <ele>52</ele>
        <time>2018-01-07T09:26:32Z</time>
      </trkpt>
      <trkpt lat="50.74428" lon="2.42387">
        <ele>52</ele>
        <time>2018-01-07T09:27:32Z</time>
      </trkpt>
      <trkpt lat="50.74451" lon="2.42433">
        <ele>52</ele>
        <time>2018-01-07T09:28:32Z</time>
      </trkpt>
      <trkpt lat="50.74471" lon="2.4247">
        <ele>52</ele>
        <time>2018-01-07T09:29:32Z</time>
      </trkpt>
      <trkpt lat="50.74491" lon="2.42506">
        <ele>52</ele>
        <time>2018-01-07T09:30:32Z</time>
      </trkpt>
      <trkpt lat="50.74514" lon="2.42546">
        <ele>52</ele>
        <time>2018-01-07T09:31:32Z</time>
      </trkpt>
      <trkpt lat="50.74542" lon="2.42595">
        <ele>51</ele>
        <time>2018-01-07T09:32:32Z</time>
      </trkpt>
      <trkpt lat="50.74609" lon="2.42714">
        <ele>51</ele>
        <time>2018-01-07T09:33:32Z</time>
      </trkpt>
      <trkpt lat="50.74641" lon="2.42773">
        <ele>50</ele>
        <time>2018-01-07T09:34:32Z</time>
      </trkpt>
      <trkpt lat="50.74659" lon="2.42807">
        <ele>50</ele>
        <time>2018-01-07T09:35:32Z</time>
      </trkpt>
      <trkpt lat="50.74661" lon="2.4281">
        <ele>50</ele>
        <time>2018-01-07T09:36:32Z</time>
      </trkpt>
      <trkpt lat="50.74667" lon="2.42821">
        <ele>50</ele>
        <time>2018-01-07T09:37:32Z</time>
      </trkpt>
      <trkpt lat="50.74683" lon="2.42851">
        <ele>50</ele>
        <time>2018-01-07T09:38:32Z</time>
      </trkpt>
      <trkpt lat="50.7471" lon="2.42901">
        <ele>49</ele>
        <time>2018-01-07T09:39:32Z</time>
      </trkpt>
      <trkpt lat="50.74727" lon="2.42934">
        <ele>49</ele>
        <time>2018-01-07T09:40:32Z</time>
      </trkpt>
      <trkpt lat="50.7474" lon="2.42966">
        <ele>50</ele>
        <time>2018-01-07T09:41:32Z</time>
      </trkpt>
      <trkpt lat="50.74751" lon="2.42998">
        <ele>50</ele>
        <time>2018-01-07T09:42:32Z</time>
      </trkpt>
      <trkpt lat="50.74755" lon="2.43016">
        <ele>50</ele>
        <time>2018-01-07T09:43:32Z</time>
      </trkpt>
      <trkpt lat="50.7476" lon="2.43035">
        <ele>50</ele>
        <time>2018-01-07T09:44:32Z</time>
      </trkpt>
      <trkpt lat="50.74766" lon="2.43077">
        <ele>51</ele>
        <time>2018-01-07T09:45:32Z</time>
      </trkpt>
      <trkpt lat="50.74772" lon="2.43133">
        <ele>52</ele>
        <time>2018-01-07T09:46:32Z</time>
      </trkpt>
      <trkpt lat="50.74775" lon="2.43186">
        <ele>53</ele>
        <time>2018-01-07T09:47:32Z</time>
      </trkpt>
      <trkpt lat="50.74776" lon="2.43225">
        <ele>53</ele>
        <time>2018-01-07T09:48:32Z</time>
      </trkpt>
      <trkpt lat="50.74777" lon="2.43237">
        <ele>53</ele>
        <time>2018-01-07T09:49:32Z</time>
      </trkpt>
      <trkpt lat="50.74775" lon="2.43285">
        <ele>54</ele>
        <time>2018-01-07T09:50:32Z</time>
      </trkpt>
      <trkpt lat="50.74774" lon="2.43303">
        <ele>55</ele>
        <time>2018-01-07T09:51:32Z</time>
      </trkpt>
      <trkpt lat="50.74774" lon="2.43322">
        <ele>55</ele>
        <time>2018-01-07T09:52:32Z</time>
      </trkpt>
      <trkpt lat="50.74773" lon="2.43344">
        <ele>55</ele>
        <time>2018-01-07T09:53:32Z</time>
      </trkpt>
      <trkpt lat="50.74772" lon="2.43367">
        <ele>55</ele>
        <time>2018-01-07T09:54:32Z</time>
      </trkpt>
      <trkpt lat="50.74773" lon="2.43384">
        <ele>55</ele>
        <time>2018-01-07T09:55:32Z</time>
      </trkpt>
      <trkpt lat="50.74774" lon="2.43398">
        <ele>55</ele>
        <time>2018-01-07T09:56:32Z</time>
      </trkpt>
      <trkpt lat="50.74774" lon="2.43403">
        <ele>55</ele>
        <time>2018-01-07T09:57:32Z</time>
      </trkpt>
      <trkpt lat="50.74775" lon="2.43414">
        <ele>55</ele>
        <time>2018-01-07T09:58:32Z</time>
      </trkpt>
      <trkpt lat="50.74778" lon="2.43435">
        <ele>55</ele>
        <time>2018-01-07T09:59:32Z</time>
      </trkpt>
      <trkpt lat="50.74782" lon="2.43465">
        <ele>55</ele>
        <time>2018-01-07T10:00:32Z</time>
      </trkpt>
      <trkpt lat="50.74786" lon="2.43486">
        <ele>55</ele>
        <time>2018-01-07T10:01:32Z</time>
      </trkpt>
      <trkpt lat="50.74792" lon="2.43516">
        <ele>55</ele>
        <time>2018-01-07T10:02:32Z</time>
      </trkpt>
      <trkpt lat="50.74799" lon="2.43549">
        <ele>55</ele>
        <time>2018-01-07T10:03:32Z</time>
      </trkpt>
      <trkpt lat="50.74804" lon="2.43577">
        <ele>55</ele>
        <time>2018-01-07T10:04:32Z</time>
      </trkpt>
      <trkpt lat="50.74812" lon="2.43616">
        <ele>55</ele>
        <time>2018-01-07T10:05:32Z</time>
      </trkpt>
      <trkpt lat="50.7482" lon="2.43657">
        <ele>54</ele>
        <time>2018-01-07T10:06:32Z</time>
      </trkpt>
      <trkpt lat="50.74826" lon="2.4369">
        <ele>54</ele>
        <time>2018-01-07T10:07:32Z</time>
      </trkpt>
      <trkpt lat="50.7483" lon="2.43718">
        <ele>54</ele>
        <time>2018-01-07T10:08:32Z</time>
      </trkpt>
      <trkpt lat="50.74834" lon="2.43741">
        <ele>54</ele>
        <time>2018-01-07T10:09:32Z</time>
      </trkpt>
      <trkpt lat="50.74838" lon="2.43771">
        <ele>54</ele>
        <time>2018-01-07T10:10:32Z</time>
      </trkpt>
      <trkpt lat="50.74841" lon="2.43794">
        <ele>54</ele>
        <time>2018-01-07T10:11:32Z</time>
      </trkpt>
      <trkpt lat="50.74844" lon="2.43825">
        <ele>54</ele>
        <time>2018-01-07T10:12:32Z</time>
      </trkpt>
      <trkpt lat="50.74853" lon="2.43904">
        <ele>54</ele>
        <time>2018-01-07T10:13:32Z</time>
      </trkpt>
      <trkpt lat="50.74859" lon="2.43955">
        <ele>54</ele>
        <time>2018-01-07T10:14:32Z</time>
      </trkpt>
      <trkpt lat="50.7487" lon="2.44054">
        <ele>54</ele>
        <time>2018-01-07T10:15:32Z</time>
      </trkpt>
      <trkpt lat="50.74878" lon="2.44125">
        <ele>54</ele>
        <time>2018-01-07T10:16:32Z</time>
      </trkpt>
      <trkpt lat="50.74884" lon="2.44185">
        <ele>54</ele>
        <time>2018-01-07T10:17:32Z</time>
      </trkpt>
      <trkpt lat="50.7489" lon="2.44235">
        <ele>54</ele>
        <time>2018-01-07T10:18:32Z</time>
      </trkpt>
      <trkpt lat="50.74896" lon="2.44295">
        <ele>53</ele>
        <time>2018-01-07T10:19:32Z</time>
      </trkpt>
      <trkpt lat="50.74902" lon="2.44346">
        <ele>53</ele>
        <time>2018-01-07T10:20:32Z</time>
      </trkpt>
      <trkpt lat="50.74906" lon="2.44389">
        <ele>53</ele>
        <time>2018-01-07T10:21:32Z</time>
      </trkpt>
      <trkpt lat="50.74909" lon="2.44426">
        <ele>53</ele>
        <time>2018-01-07T10:22:32Z</time>
      </trkpt>
      <trkpt lat="50.74913" lon="2.44475">
        <ele>52</ele>
        <time>2018-01-07T10:23:32Z</time>
      </trkpt>
      <trkpt lat="50.74918" lon="2.44521">
        <ele>52</ele>
        <time>2018-01-07T10:24:32Z</time>
      </trkpt>
      <trkpt lat="50.74921" lon="2.44551">
        <ele>51</ele>
        <time>2018-01-07T10:25:32Z</time>
      </trkpt>
      <trkpt lat="50.74922" lon="2.44564">
        <ele>51</ele>
        <time>2018-01-07T10:26:32Z</time>
      </trkpt>
      <trkpt lat="50.74927" lon="2.44601">
        <ele>51</ele>
        <time>2018-01-07T10:27:32Z</time>
      </trkpt>
      <trkpt lat="50.74932" lon="2.44642">
        <ele>51</ele>
        <time>2018-01-07T10:28:32Z</time>
      </trkpt>
      <trkpt lat="50.74938" lon="2.44686">
        <ele>51</ele>
        <time>2018-01-07T10:29:32Z</time>
      </trkpt>
      <trkpt lat="50.74942" lon="2.44714">
        <ele>51</ele>
        <time>2018-01-07T10:30:32Z</time>
      </trkpt>
      <trkpt lat="50.74946" lon="2.44742">
        <ele>51</ele>
        <time>2018-01-07T10:31:32Z</time>
      </trkpt>
      <trkpt lat="50.74951" lon="2.4478">
        <ele>51</ele>
        <time>2018-01-07T10:32:32Z</time>
      </trkpt>
      <trkpt lat="50.74961" lon="2.44854">
        <ele>50</ele>
        <time>2018-01-07T10:33:32Z</time>
      </trkpt>
      <trkpt lat="50.74965" lon="2.4488">
        <ele>50</ele>
        <time>2018-01-07T10:34:32Z</time>
      </trkpt>
      <trkpt lat="50.74968" lon="2.44908">
        <ele>50</ele>
        <time>2018-01-07T10:35:32Z</time>
      </trkpt>
      <trkpt lat="50.74977" lon="2.44968">
        <ele>49</ele>
        <time>2018-01-07T10:36:32Z</time>
      </trkpt>
      <trkpt lat="50.74981" lon="2.45003">
        <ele>49</ele>
        <time>2018-01-07T10:37:32Z</time>
      </trkpt>
      <trkpt lat="50.74989" lon="2.45061">
        <ele>49</ele>
        <time>2018-01-07T10:38:32Z</time>
      </trkpt>
      <trkpt lat="50.75008" lon="2.45192">
        <ele>48</ele>
        <time>2018-01-07T10:39:32Z</time>
      </trkpt>
      <trkpt lat="50.75011" lon="2.45216">
        <ele>48</ele>
        <time>2018-01-07T10:40:32Z</time>
      </trkpt>
      <trkpt lat="50.75013" lon="2.45224">
        <ele>48</ele>
        <time>2018-01-07T10:41:32Z</time>
      </trkpt>
      <trkpt lat="50.75016" lon="2.45247">
        <ele>48</ele>
        <time>2018-01-07T10:42:32Z</time>
      </trkpt>
      <trkpt lat="50.75021" lon="2.45294">
        <ele>48</ele>
        <time>2018-01-07T10:43:32Z</time>
      </trkpt>
      <trkpt lat="50.75025" lon="2.45322">
        <ele>47</ele>
        <time>2018-01-07T10:44:32Z</time>
      </trkpt>
      <trkpt lat="50.75026" lon="2.45336">
        <ele>47</ele>
        <time>2018-01-07T10:45:32Z</time>
      </trkpt>
      <trkpt lat="50.75031" lon="2.45376">
        <ele>47</ele>
        <time>2018-01-07T10:46:32Z</time>
      </trkpt>
      <trkpt lat="50.75037" lon="2.45426">
        <ele>47</ele>
        <time>2018-01-07T10:47:32Z</time>
      </trkpt>
      <trkpt lat="50.75037" lon="2.45428">
        <ele>47</ele>
        <time>2018-01-07T10:48:32Z</time>
      </trkpt>
      <trkpt lat="50.75043" lon="2.4548">
        <ele>46</ele>
        <time>2018-01-07T10:49:32Z</time>
      </trkpt>
      <trkpt lat="50.75046" lon="2.45498">
        <ele>46</ele>
        <time>2018-01-07T10:50:32Z</time>
      </trkpt>
      <trkpt lat="50.75051" lon="2.45539">
        <ele>46</ele>
        <time>2018-01-07T10:51:32Z</time>
      </trkpt>
      <trkpt lat="50.75054" lon="2.45566">
        <ele>47</ele>
        <time>2018-01-07T10:52:32Z</time>
      </trkpt>
      <trkpt lat="50.75059" lon="2.45601">
        <ele>47</ele>
        <time>2018-01-07T10:53:32Z</time>
      </trkpt>
      <trkpt lat="50.75069" lon="2.45681">
        <ele>47</ele>
        <time>2018-01-07T10:54:32Z</time>
      </trkpt>
      <trkpt lat="50.75072" lon="2.45698">
        <ele>47</ele>
        <time>2018-01-07T10:55:32Z</time>
      </trkpt>
      <trkpt lat="50.75078" lon="2.4574">
        <ele>47</ele>
        <time>2018-01-07T10:56:32Z</time>
      </trkpt>
      <trkpt lat="50.75081" lon="2.45767">
        <ele>47</ele>
        <time>2018-01-07T10:57:32Z</time>
      </trkpt>
      <trkpt lat="50.75085" lon="2.45798">
        <ele>48</ele>
        <time>2018-01-07T10:58:32Z</time>
      </trkpt>
      <trkpt lat="50.75089" lon="2.45833">
        <ele>48</ele>
        <time>2018-01-07T10:59:32Z</time>
      </trkpt>
      <trkpt lat="50.75092" lon="2.45849">
        <ele>48</ele>
        <time>2018-01-07T11:00:32Z</time>
      </trkpt>
      <trkpt lat="50.75092" lon="2.45854">
        <ele>48</ele>
        <time>2018-01-07T11:01:32Z</time>
      </trkpt>
      <trkpt lat="50.75095" lon="2.45882">
        <ele>48</ele>
        <time>2018-01-07T11:02:32Z</time>
      </trkpt>
      <trkpt lat="50.75099" lon="2.45911">
        <ele>48</ele>
        <time>2018-01-07T11:03:32Z</time>
      </trkpt>
      <trkpt lat="50.75099" lon="2.45916">
        <ele>48</ele>
        <time>2018-01-07T11:04:32Z</time>
      </trkpt>
      <trkpt lat="50.75102" lon="2.45939">
        <ele>48</ele>
        <time>2018-01-07T11:05:32Z</time>
      </trkpt>
      <trkpt lat="50.75103" lon="2.45946">
        <ele>48</ele>
        <time>2018-01-07T11:06:32Z</time>
      </trkpt>
      <trkpt lat="50.75103" lon="2.45953">
        <ele>48</ele>
        <time>2018-01-07T11:07:32Z</time>
      </trkpt>
      <trkpt lat="50.75107" lon="2.45973">
        <ele>48</ele>
        <time>2018-01-07T11:08:32Z</time>
      </trkpt>
      <trkpt lat="50.75109" lon="2.45988">
        <ele>47</ele>
        <time>2018-01-07T11:09:32Z</time>
      </trkpt>
      <trkpt lat="50.7511" lon="2.45993">
        <ele>47</ele>
        <time>2018-01-07T11:10:32Z</time>
      </trkpt>
      <trkpt lat="50.75112" lon="2.46006">
        <ele>47</ele>
        <time>2018-01-07T11:11:32Z</time>
      </trkpt>
      <trkpt lat="50.75116" lon="2.46035">
        <ele>47</ele>
        <time>2018-01-07T11:12:32Z</time>
      </trkpt>
      <trkpt lat="50.7512" lon="2.4606">
        <ele>47</ele>
        <time>2018-01-07T11:13:32Z</time>
      </trkpt>
      <trkpt lat="50.75122" lon="2.4608">
        <ele>48</ele>
        <time>2018-01-07T11:14:32Z</time>
      </trkpt>
      <trkpt lat="50.75124" lon="2.46098">
        <ele>48</ele>
        <time>2018-01-07T11:15:32Z</time>
      </trkpt>
      <trkpt lat="50.75126" lon="2.46118">
        <ele>48</ele>
        <time>2018-01-07T11:16:32Z</time>
      </trkpt>
      <trkpt lat="50.75129" lon="2.46147">
        <ele>48</ele>
        <time>2018-01-07T11:17:32Z</time>
      </trkpt>
      <trkpt lat="50.75132" lon="2.46179">
        <ele>48</ele>
        <time>2018-01-07T11:18:32Z</time>
      </trkpt>
      <trkpt lat="50.75135" lon="2.46215">
        <ele>48</ele>
        <time>2018-01-07T11:19:32Z</time>
      </trkpt>
      <trkpt lat="50.75138" lon="2.46253">
        <ele>48</ele>
        <time>2018-01-07T11:20:32Z</time>
      </trkpt>
      <trkpt lat="50.75143" lon="2.46305">
        <ele>48</ele>
        <time>2018-01-07T11:21:32Z</time>
      </trkpt>
      <trkpt lat="50.7515" lon="2.46375">
        <ele>48</ele>
        <time>2018-01-07T11:22:32Z</time>
      </trkpt>
      <trkpt lat="50.75154" lon="2.46426">
        <ele>48</ele>
        <time>2018-01-07T11:23:32Z</time>
      </trkpt>
      <trkpt lat="50.75159" lon="2.4648">
        <ele>49</ele>
        <time>2018-01-07T11:24:32Z</time>
      </trkpt>
      <trkpt lat="50.75165" lon="2.46532">
        <ele>49</ele>
        <time>2018-01-07T11:25:32Z</time>
      </trkpt>
      <trkpt lat="50.75169" lon="2.46572">
        <ele>49</ele>
        <time>2018-01-07T11:26:32Z</time>
      </trkpt>
      <trkpt lat="50.75175" lon="2.46624">
        <ele>49</ele>
        <time>2018-01-07T11:27:32Z</time>
      </trkpt>
      <trkpt lat="50.75181" lon="2.46676">
        <ele>50</ele>
        <time>2018-01-07T11:28:32Z</time>
      </trkpt>
      <trkpt lat="50.75186" lon="2.46712">
        <ele>49</ele>
        <time>2018-01-07T11:29:32Z</time>
      </trkpt>
      <trkpt lat="50.75187" lon="2.46717">
        <ele>49</ele>
        <time>2018-01-07T11:30:32Z</time>
      </trkpt>
      <trkpt lat="50.75191" lon="2.46744">
        <ele>49</ele>
        <time>2018-01-07T11:31:32Z</time>
      </trkpt>
      <trkpt lat="50.75193" lon="2.46756">
        <ele>49</ele>
        <time>2018-01-07T11:32:32Z</time>
      </trkpt>
      <trkpt lat="50.75194" lon="2.46765">
        <ele>49</ele>
        <time>2018-01-07T11:33:32Z</time>
      </trkpt>
      <trkpt lat="50.752" lon="2.46794">
        <ele>48</ele>
        <time>2018-01-07T11:34:32Z</time>
      </trkpt>
      <trkpt lat="50.75204" lon="2.46817">
        <ele>48</ele>
        <time>2018-01-07T11:35:32Z</time>
      </trkpt>
      <trkpt lat="50.75206" lon="2.46828">
        <ele>48</ele>
        <time>2018-01-07T11:36:32Z</time>
      </trkpt>
      <trkpt lat="50.7521" lon="2.46859">
        <ele>48</ele>
        <time>2018-01-07T11:37:32Z</time>
      </trkpt>
      <trkpt lat="50.75214" lon="2.46894">
        <ele>48</ele>
        <time>2018-01-07T11:38:32Z</time>
      </trkpt>
      <trkpt lat="50.7522" lon="2.4694">
        <ele>49</ele>
        <time>2018-01-07T11:39:32Z</time>
      </trkpt>
      <trkpt lat="50.75225" lon="2.46984">
        <ele>50</ele>
        <time>2018-01-07T11:40:32Z</time>
      </trkpt>
      <trkpt lat="50.75227" lon="2.46997">
        <ele>50</ele>
        <time>2018-01-07T11:41:32Z</time>
      </trkpt>
      <trkpt lat="50.7523" lon="2.47024">
        <ele>50</ele>
        <time>2018-01-07T11:42:32Z</time>
      </trkpt>
      <trkpt lat="50.75235" lon="2.47058">
        <ele>50</ele>
        <time>2018-01-07T11:43:32Z</time>
      </trkpt>
      <trkpt lat="50.75248" lon="2.47147">
        <ele>50</ele>
        <time>2018-01-07T11:44:32Z</time>
      </trkpt>
      <trkpt lat="50.75257" lon="2.47215">
        <ele>50</ele>
        <time>2018-01-07T11:45:32Z</time>
      </trkpt>
      <trkpt lat="50.75259" lon="2.47239">
        <ele>50</ele>
        <time>2018-01-07T11:46:32Z</time>
      </trkpt>
      <trkpt lat="50.7526" lon="2.47251">
        <ele>50</ele>
        <time>2018-01-07T11:47:32Z</time>
      </trkpt>
      <trkpt lat="50.75263" lon="2.47279">
        <ele>50</ele>
        <time>2018-01-07T11:48:32Z</time>
      </trkpt>
      <trkpt lat="50.75271" lon="2.47368">
        <ele>50</ele>
        <time>2018-01-07T11:49:32Z</time>
      </trkpt>
      <trkpt lat="50.75272" lon="2.47391">
        <ele>50</ele>
        <time>2018-01-07T11:50:32Z</time>
      </trkpt>
      <trkpt lat="50.75273" lon="2.47412">
        <ele>50</ele>
        <time>2018-01-07T11:51:32Z</time>
      </trkpt>
      <trkpt lat="50.75273" lon="2.47424">
        <ele>50</ele>
        <time>2018-01-07T11:52:32Z</time>
      </trkpt>
      <trkpt lat="50.75272" lon="2.47448">
        <ele>50</ele>
        <time>2018-01-07T11:53:32Z</time>
      </trkpt>
      <trkpt lat="50.75269" lon="2.47532">
        <ele>50</ele>
        <time>2018-01-07T11:54:32Z</time>
      </trkpt>
      <trkpt lat="50.75268" lon="2.47565">
        <ele>50</ele>
        <time>2018-01-07T11:55:32Z</time>
      </trkpt>
      <trkpt lat="50.75268" lon="2.47597">
        <ele>49</ele>
        <time>2018-01-07T11:56:32Z</time>
      </trkpt>
      <trkpt lat="50.75269" lon="2.47629">
        <ele>49</ele>
        <time>2018-01-07T11:57:32Z</time>
      </trkpt>
      <trkpt lat="50.7527" lon="2.47666">
        <ele>48</ele>
        <time>2018-01-07T11:58:32Z</time>
      </trkpt>
      <trkpt lat="50.75272" lon="2.47709">
        <ele>48</ele>
        <time>2018-01-07T11:59:32Z</time>
      </trkpt>
      <trkpt lat="50.75273" lon="2.47743">
        <ele>48</ele>
        <time>2018-01-07T12:00:32Z</time>
      </trkpt>
      <trkpt lat="50.75273" lon="2.4775">
        <ele>48</ele>
        <time>2018-01-07T12:01:32Z</time>
      </trkpt>
      <trkpt lat="50.75275" lon="2.47779">
        <ele>48</ele>
        <time>2018-01-07T12:02:32Z</time>
      </trkpt>
      <trkpt lat="50.75276" lon="2.47804">
        <ele>47</ele>
        <time>2018-01-07T12:03:32Z</time>
      </trkpt>
      <trkpt lat="50.75276" lon="2.47823">
        <ele>47</ele>
        <time>2018-01-07T12:04:32Z</time>
      </trkpt>
      <trkpt lat="50.75276" lon="2.47829">
        <ele>47</ele>
        <time>2018-01-07T12:05:32Z</time>
      </trkpt>
      <trkpt lat="50.75275" lon="2.47848">
        <ele>47</ele>
        <time>2018-01-07T12:06:32Z</time>
      </trkpt>
      <trkpt lat="50.75274" lon="2.47878">
        <ele>46</ele>
        <time>2018-01-07T12:07:32Z</time>
      </trkpt>
      <trkpt lat="50.75272" lon="2.4791">
        <ele>46</ele>
        <time>2018-01-07T12:08:32Z</time>
      </trkpt>
      <trkpt lat="50.7527" lon="2.47943">
        <ele>45</ele>
        <time>2018-01-07T12:09:32Z</time>
      </trkpt>
      <trkpt lat="50.75268" lon="2.47982">
        <ele>45</ele>
        <time>2018-01-07T12:10:32Z</time>
      </trkpt>
      <trkpt lat="50.75267" lon="2.48006">
        <ele>44</ele>
        <time>2018-01-07T12:11:32Z</time>
      </trkpt>
      <trkpt lat="50.75267" lon="2.48044">
        <ele>44</ele>
        <time>2018-01-07T12:12:32Z</time>
      </trkpt>
      <trkpt lat="50.75268" lon="2.48073">
        <ele>44</ele>
        <time>2018-01-07T12:13:32Z</time>
      </trkpt>
      <trkpt lat="50.75269" lon="2.48098">
        <ele>43</ele>
        <time>2018-01-07T12:14:32Z</time>
      </trkpt>
      <trkpt lat="50.75271" lon="2.48124">
        <ele>43</ele>
        <time>2018-01-07T12:15:32Z</time>
      </trkpt>
      <trkpt lat="50.75274" lon="2.48158">
        <ele>42</ele>
        <time>2018-01-07T12:16:32Z</time>
      </trkpt>
      <trkpt lat="50.75278" lon="2.48193">
        <ele>42</ele>
        <time>2018-01-07T12:17:32Z</time>
      </trkpt>
      <trkpt lat="50.75282" lon="2.48233">
        <ele>42</ele>
        <time>2018-01-07T12:18:32Z</time>
      </trkpt>
      <trkpt lat="50.75285" lon="2.4827">
        <ele>42</ele>
        <time>2018-01-07T12:19:32Z</time>
      </trkpt>
      <trkpt lat="50.75286" lon="2.483">
        <ele>42</ele>
        <time>2018-01-07T12:20:32Z</time>
      </trkpt>
      <trkpt lat="50.75287" lon="2.48323">
        <ele>42</ele>
        <time>2018-01-07T12:21:32Z</time>
      </trkpt>
      <trkpt lat="50.75287" lon="2.48343">
        <ele>42</ele>
        <time>2018-01-07T12:22:32Z</time>
      </trkpt>
      <trkpt lat="50.75288" lon="2.4837">
        <ele>42</ele>
        <time>2018-01-07T12:23:32Z</time>
      </trkpt>
      <trkpt lat="50.75287" lon="2.48389">
        <ele>42</ele>
        <time>2018-01-07T12:24:32Z</time>
      </trkpt>
      <trkpt lat="50.75286" lon="2.48422">
        <ele>41</ele>
        <time>2018-01-07T12:25:32Z</time>
      </trkpt>
      <trkpt lat="50.75285" lon="2.48469">
        <ele>41</ele>
        <time>2018-01-07T12:26:32Z</time>
      </trkpt>
      <trkpt lat="50.75284" lon="2.485">
        <ele>40</ele>
        <time>2018-01-07T12:27:32Z</time>
      </trkpt>
      <trkpt lat="50.75284" lon="2.48531">
        <ele>40</ele>
        <time>2018-01-07T12:28:32Z</time>
      </trkpt>
      <trkpt lat="50.75283" lon="2.48559">
        <ele>40</ele>
        <time>2018-01-07T12:29:32Z</time>
      </trkpt>
      <trkpt lat="50.75283" lon="2.48591">
        <ele>39</ele>
        <time>2018-01-07T12:30:32Z</time>
      </trkpt>
      <trkpt lat="50.75284" lon="2.48618">
        <ele>39</ele>
        <time>2018-01-07T12:31:32Z</time>
      </trkpt>
      <trkpt lat="50.75284" lon="2.48661">
        <ele>38</ele>
        <time>2018-01-07T12:32:32Z</time>
      </trkpt>
      <trkpt lat="50.75284" lon="2.48678">
        <ele>38</ele>
        <time>2018-01-07T12:33:32Z</time>
      </trkpt>
      <trkpt lat="50.75283" lon="2.4875">
        <ele>38</ele>
        <time>2018-01-07T12:34:32Z</time>
      </trkpt>
      <trkpt lat="50.75284" lon="2.48845">
        <ele>37</ele>
        <time>2018-01-07T12:35:32Z</time>
      </trkpt>
      <trkpt lat="50.75284" lon="2.48907">
        <ele>38</ele>
        <time>2018-01-07T12:36:32Z</time>
      </trkpt>
      <trkpt lat="50.75284" lon="2.48941">
        <ele>38</ele>
        <time>2018-01-07T12:37:32Z</time>
      </trkpt>
      <trkpt lat="50.75284" lon="2.48993">
        <ele>38</ele>
        <time>2018-01-07T12:38:32Z</time>
      </trkpt>
      <trkpt lat="50.75284" lon="2.49022">
        <ele>39</ele>
        <time>2018-01-07T12:39:32Z</time>
      </trkpt>
      <trkpt lat="50.75283" lon="2.49044">
        <ele>39</ele>
        <time>2018-01-07T12:40:32Z</time>
      </trkpt>
      <trkpt lat="50.75282" lon="2.49066">
        <ele>39</ele>
        <time>2018-01-07T12:41:32Z</time>
      </trkpt>
      <trkpt lat="50.75281" lon="2.49081">
        <ele>39</ele>
        <time>2018-01-07T12:42:32Z</time>
      </trkpt>
      <trkpt lat="50.75279" lon="2.49099">
        <ele>39</ele>
        <time>2018-01-07T12:43:32Z</time>
      </trkpt>
      <trkpt lat="50.75277" lon="2.49114">
        <ele>39</ele>
        <time>2018-01-07T12:44:32Z</time>
      </trkpt>
      <trkpt lat="50.75277" lon="2.49118">
        <ele>39</ele>
        <time>2018-01-07T12:45:32Z</time>
      </trkpt>
      <trkpt lat="50.75277" lon="2.49124">
        <ele>39</ele>
        <time>2018-01-07T12:46:32Z</time>
      </trkpt>
      <trkpt lat="50.75277" lon="2.49136">
        <ele>39</ele>
        <time>2018-01-07T12:47:32Z</time>
      </trkpt>
      <trkpt lat="50.75279" lon="2.49148">
        <ele>39</ele>
        <time>2018-01-07T12:48:32Z</time>
      </trkpt>
      <trkpt lat="50.75279" lon="2.4915">
        <ele>39</ele>
        <time>2018-01-07T12:49:32Z</time>
      </trkpt>
      <trkpt lat="50.7528" lon="2.49154">
        <ele>40</ele>
        <time>2018-01-07T12:50:32Z</time>
      </trkpt>
      <trkpt lat="50.75281" lon="2.49163">
        <ele>40</ele>
        <time>2018-01-07T12:51:32Z</time>
      </trkpt>
      <trkpt lat="50.75281" lon="2.49176">
        <ele>40</ele>
        <time>2018-01-07T12:52:32Z</time>
      </trkpt>
      <trkpt lat="50.7528" lon="2.49191">
        <ele>40</ele>
        <time>2018-01-07T12:53:32Z</time>
      </trkpt>
      <trkpt lat="50.7528" lon="2.49214">
        <ele>40</ele>
        <time>2018-01-07T12:54:32Z</time>
      </trkpt>
      <trkpt lat="50.75279" lon="2.49232">
        <ele>40</ele>
        <time>2018-01-07T12:55:32Z</time>
      </trkpt>
      <trkpt lat="50.7528" lon="2.49248">
        <ele>40</ele>
        <time>2018-01-07T12:56:32Z</time>
      </trkpt>
      <trkpt lat="50.75281" lon="2.49281">
        <ele>40</ele>
        <time>2018-01-07T12:57:32Z</time>
      </trkpt>
      <trkpt lat="50.75283" lon="2.49313">
        <ele>40</ele>
        <time>2018-01-07T12:58:32Z</time>
      </trkpt>
      <trkpt lat="50.75286" lon="2.49353">
        <ele>40</ele>
        <time>2018-01-07T12:59:32Z</time>
      </trkpt>
      <trkpt lat="50.7529" lon="2.49393">
        <ele>40</ele>
        <time>2018-01-07T13:00:32Z</time>
      </trkpt>
      <trkpt lat="50.75291" lon="2.49418">
        <ele>40</ele>
        <time>2018-01-07T13:01:32Z</time>
      </trkpt>
      <trkpt lat="50.75292" lon="2.4944">
        <ele>40</ele>
        <time>2018-01-07T13:02:32Z</time>
      </trkpt>
      <trkpt lat="50.75293" lon="2.49462">
        <ele>40</ele>
        <time>2018-01-07T13:03:32Z</time>
      </trkpt>
      <trkpt lat="50.75292" lon="2.49504">
        <ele>40</ele>
        <time>2018-01-07T13:04:32Z</time>
      </trkpt>
      <trkpt lat="50.75291" lon="2.49579">
        <ele>40</ele>
        <time>2018-01-07T13:05:32Z</time>
      </trkpt>
      <trkpt lat="50.75288" lon="2.49683">
        <ele>40</ele>
        <time>2018-01-07T13:06:32Z</time>
      </trkpt>
      <trkpt lat="50.75287" lon="2.49747">
        <ele>41</ele>
        <time>2018-01-07T13:07:32Z</time>
      </trkpt>
      <trkpt lat="50.75287" lon="2.49788">
        <ele>41</ele>
        <time>2018-01-07T13:08:32Z</time>
      </trkpt>
      <trkpt lat="50.75287" lon="2.49808">
        <ele>42</ele>
        <time>2018-01-07T13:09:32Z</time>
      </trkpt>
      <trkpt lat="50.75287" lon="2.49822">
        <ele>42</ele>
        <time>2018-01-07T13:10:32Z</time>
      </trkpt>
      <trkpt lat="50.75291" lon="2.49878">
        <ele>42</ele>
        <time>2018-01-07T13:11:32Z</time>
      </trkpt>
      <trkpt lat="50.75292" lon="2.4991">
        <ele>42</ele>
        <time>2018-01-07T13:12:32Z</time>
      </trkpt>
      <trkpt lat="50.75293" lon="2.49938">
        <ele>43</ele>
        <time>2018-01-07T13:13:32Z</time>
      </trkpt>
      <trkpt lat="50.75293" lon="2.4996">
        <ele>43</ele>
        <time>2018-01-07T13:14:32Z</time>
      </trkpt>
      <trkpt lat="50.75293" lon="2.4998">
        <ele>43</ele>
        <time>2018-01-07T13:15:32Z</time>
      </trkpt>
      <trkpt lat="50.75292" lon="2.50002">
        <ele>44</ele>
        <time>2018-01-07T13:16:32Z</time>
      </trkpt>
      <trkpt lat="50.75291" lon="2.50044">
        <ele>44</ele>
        <time>2018-01-07T13:17:32Z</time>
      </trkpt>
      <trkpt lat="50.7529" lon="2.50079">
        <ele>44</ele>
        <time>2018-01-07T13:18:32Z</time>
      </trkpt>
      <trkpt lat="50.7529" lon="2.50107">
        <ele>45</ele>
        <time>2018-01-07T13:19:32Z</time>
      </trkpt>
      <trkpt lat="50.75289" lon="2.50138">
        <ele>46</ele>
        <time>2018-01-07T13:20:32Z</time>
      </trkpt>
      <trkpt lat="50.7529" lon="2.50168">
        <ele>46</ele>
        <time>2018-01-07T13:21:32Z</time>
      </trkpt>
      <trkpt lat="50.75289" lon="2.50203">
        <ele>47</ele>
        <time>2018-01-07T13:22:32Z</time>
      </trkpt>
      <trkpt lat="50.7529" lon="2.50213">
        <ele>47</ele>
        <time>2018-01-07T13:23:32Z</time>
      </trkpt>
      <trkpt lat="50.7529" lon="2.50236">
        <ele>47</ele>
        <time>2018-01-07T13:24:32Z</time>
      </trkpt>
      <trkpt lat="50.75291" lon="2.50262">
        <ele>47</ele>
        <time>2018-01-07T13:25:32Z</time>
      </trkpt>
      <trkpt lat="50.75291" lon="2.50281">
        <ele>47</ele>
        <time>2018-01-07T13:26:32Z</time>
      </trkpt>
      <trkpt lat="50.7529" lon="2.50303">
        <ele>48</ele>
        <time>2018-01-07T13:27:32Z</time>
      </trkpt>
      <trkpt lat="50.75288" lon="2.50328">
        <ele>48</ele>
        <time>2018-01-07T13:28:32Z</time>
      </trkpt>
      <trkpt lat="50.75285" lon="2.50357">
        <ele>48</ele>
        <time>2018-01-07T13:29:32Z</time>
      </trkpt>
      <trkpt lat="50.7528" lon="2.50405">
        <ele>47</ele>
        <time>2018-01-07T13:30:32Z</time>
      </trkpt>
      <trkpt lat="50.75277" lon="2.5044">
        <ele>47</ele>
        <time>2018-01-07T13:31:32Z</time>
      </trkpt>
      <trkpt lat="50.75277" lon="2.50445">
        <ele>47</ele>
        <time>2018-01-07T13:32:32Z</time>
      </trkpt>
      <trkpt lat="50.75276" lon="2.50466">
        <ele>47</ele>
        <time>2018-01-07T13:33:32Z</time>
      </trkpt>
      <trkpt lat="50.75275" lon="2.50485">
        <ele>47</ele>
        <time>2018-01-07T13:34:32Z</time>
      </trkpt>
      <trkpt lat="50.75274" lon="2.50502">
        <ele>47</ele>
        <time>2018-01-07T13:35:32Z</time>
      </trkpt>
      <trkpt lat="50.75275" lon="2.50529">
        <ele>47</ele>
        <time>2018-01-07T13:36:32Z</time>
      </trkpt>
      <trkpt lat="50.75276" lon="2.5059">
        <ele>46</ele>
        <time>2018-01-07T13:37:32Z</time>
      </trkpt>
      <trkpt lat="50.75277" lon="2.50658">
        <ele>45</ele>
        <time>2018-01-07T13:38:32Z</time>
      </trkpt>
      <trkpt lat="50.75278" lon="2.50732">
        <ele>45</ele>
        <time>2018-01-07T13:39:32Z</time>
      </trkpt>
      <trkpt lat="50.7528" lon="2.50819">
        <ele>45</ele>
        <time>2018-01-07T13:40:32Z</time>
      </trkpt>
      <trkpt lat="50.7528" lon="2.50875">
        <ele>44</ele>
        <time>2018-01-07T13:41:32Z</time>
      </trkpt>
      <trkpt lat="50.75281" lon="2.50914">
        <ele>44</ele>
        <time>2018-01-07T13:42:32Z</time>
      </trkpt>
      <trkpt lat="50.75282" lon="2.50942">
        <ele>43</ele>
        <time>2018-01-07T13:43:32Z</time>
      </trkpt>
      <trkpt lat="50.75283" lon="2.50966">
        <ele>43</ele>
        <time>2018-01-07T13:44:32Z</time>
      </trkpt>
      <trkpt lat="50.75285" lon="2.50987">
        <ele>42</ele>
        <time>2018-01-07T13:45:32Z</time>
      </trkpt>
      <trkpt lat="50.75287" lon="2.51013">
        <ele>42</ele>
        <time>2018-01-07T13:46:32Z</time>
      </trkpt>
      <trkpt lat="50.75289" lon="2.51038">
        <ele>42</ele>
        <time>2018-01-07T13:47:32Z</time>
      </trkpt>
      <trkpt lat="50.75291" lon="2.51057">
        <ele>42</ele>
        <time>2018-01-07T13:48:32Z</time>
      </trkpt>
      <trkpt lat="50.75292" lon="2.51067">
        <ele>43</ele>
        <time>2018-01-07T13:49:32Z</time>
      </trkpt>
      <trkpt lat="50.75292" lon="2.51076">
        <ele>43</ele>
        <time>2018-01-07T13:50:32Z</time>
      </trkpt>
      <trkpt lat="50.75292" lon="2.51091">
        <ele>43</ele>
        <time>2018-01-07T13:51:32Z</time>
      </trkpt>
      <trkpt lat="50.75292" lon="2.51139">
        <ele>43</ele>
        <time>2018-01-07T13:52:32Z</time>
      </trkpt>
      <trkpt lat="50.75287" lon="2.51304">
        <ele>41</ele>
        <time>2018-01-07T13:53:32Z</time>
      </trkpt>
      <trkpt lat="50.75286" lon="2.51448">
        <ele>40</ele>
        <time>2018-01-07T13:54:32Z</time>
      </trkpt>
      <trkpt lat="50.75287" lon="2.5149">
        <ele>40</ele>
        <time>2018-01-07T13:55:32Z</time>
      </trkpt>
      <trkpt lat="50.75287" lon="2.51515">
        <ele>40</ele>
        <time>2018-01-07T13:56:32Z</time>
      </trkpt>
      <trkpt lat="50.75289" lon="2.51545">
        <ele>40</ele>
        <time>2018-01-07T13:57:32Z</time>
      </trkpt>
      <trkpt lat="50.7529" lon="2.51578">
        <ele>40</ele>
        <time>2018-01-07T13:58:32Z</time>
      </trkpt>
      <trkpt lat="50.75291" lon="2.51671">
        <ele>39</ele>
        <time>2018-01-07T13:59:32Z</time>
      </trkpt>
      <trkpt lat="50.7529" lon="2.51695">
        <ele>39</ele>
        <time>2018-01-07T14:00:32Z</time>
      </trkpt>
      <trkpt lat="50.75289" lon="2.51719">
        <ele>39</ele>
        <time>2018-01-07T14:01:32Z</time>
      </trkpt>
      <trkpt lat="50.75288" lon="2.51748">
        <ele>39</ele>
        <time>2018-01-07T14:02:32Z</time>
      </trkpt>
      <trkpt lat="50.7529" lon="2.51825">
        <ele>40</ele>
        <time>2018-01-07T14:03:32Z</time>
      </trkpt>
      <trkpt lat="50.7529" lon="2.51861">
        <ele>39</ele>
        <time>2018-01-07T14:04:32Z</time>
      </trkpt>
      <trkpt lat="50.75292" lon="2.51882">
        <ele>39</ele>
        <time>2018-01-07T14:05:32Z</time>
      </trkpt>
      <trkpt lat="50.75294" lon="2.51895">
        <ele>39</ele>
        <time>2018-01-07T14:06:32Z</time>
      </trkpt>
      <trkpt lat="50.75296" lon="2.51917">
        <ele>39</ele>
        <time>2018-01-07T14:07:32Z</time>
      </trkpt>
      <trkpt lat="50.75297" lon="2.51954">
        <ele>38</ele>
        <time>2018-01-07T14:08:32Z</time>
      </trkpt>
      <trkpt lat="50.75297" lon="2.52005">
        <ele>37</ele>
        <time>2018-01-07T14:09:32Z</time>
      </trkpt>
      <trkpt lat="50.75295" lon="2.52027">
        <ele>36</ele>
        <time>2018-01-07T14:10:32Z</time>
      </trkpt>
      <trkpt lat="50.75293" lon="2.52048">
        <ele>36</ele>
        <time>2018-01-07T14:11:32Z</time>
      </trkpt>
      <trkpt lat="50.75291" lon="2.52072">
        <ele>36</ele>
        <time>2018-01-07T14:12:32Z</time>
      </trkpt>
      <trkpt lat="50.75291" lon="2.52096">
        <ele>36</ele>
        <time>2018-01-07T14:13:32Z</time>
      </trkpt>
      <trkpt lat="50.7529" lon="2.52129">
        <ele>36</ele>
        <time>2018-01-07T14:14:32Z</time>
      </trkpt>
      <trkpt lat="50.75288" lon="2.52269">
        <ele>37</ele>
        <time>2018-01-07T14:15:32Z</time>
      </trkpt>
      <trkpt lat="50.75289" lon="2.5229">
        <ele>38</ele>
        <time>2018-01-07T14:16:32Z</time>
      </trkpt>
      <trkpt lat="50.75292" lon="2.52314">
        <ele>38</ele>
        <time>2018-01-07T14:17:32Z</time>
      </trkpt>
      <trkpt lat="50.7529" lon="2.52315">
        <ele>38</ele>
        <time>2018-01-07T14:18:32Z</time>
      </trkpt>
      <trkpt lat="50.75288" lon="2.52316">
        <ele>38</ele>
        <time>2018-01-07T14:19:32Z</time>
      </trkpt>
      <trkpt lat="50.75285" lon="2.52318">
        <ele>38</ele>
        <time>2018-01-07T14:20:32Z</time>
      </trkpt>
      <trkpt lat="50.75283" lon="2.52322">
        <ele>38</ele>
        <time>2018-01-07T14:21:32Z</time>
      </trkpt>
      <trkpt lat="50.75281" lon="2.52327">
        <ele>38</ele>
        <time>2018-01-07T14:22:32Z</time>
      </trkpt>
      <trkpt lat="50.75281" lon="2.52331">
        <ele>38</ele>
        <time>2018-01-07T14:23:32Z</time>
      </trkpt>
      <trkpt lat="50.75281" lon="2.52336">
        <ele>38</ele>
        <time>2018-01-07T14:24:32Z</time>
      </trkpt>
      <trkpt lat="50.75281" lon="2.52341">
        <ele>38</ele>
        <time>2018-01-07T14:25:32Z</time>
      </trkpt>
      <trkpt lat="50.75282" lon="2.52346">
        <ele>38</ele>
        <time>2018-01-07T14:26:32Z</time>
      </trkpt>
      <trkpt lat="50.75284" lon="2.52352">
        <ele>38</ele>
        <time>2018-01-07T14:27:32Z</time>
      </trkpt>
      <trkpt lat="50.75286" lon="2.52355">
        <ele>38</ele>
        <time>2018-01-07T14:28:32Z</time>
      </trkpt>
      <trkpt lat="50.75289" lon="2.52357">
        <ele>38</ele>
        <time>2018-01-07T14:29:32Z</time>
      </trkpt>
      <trkpt lat="50.75293" lon="2.52359">
        <ele>39</ele>
        <time>2018-01-07T14:30:32Z</time>
      </trkpt>
      <trkpt lat="50.75291" lon="2.52371">
        <ele>38</ele>
        <time>2018-01-07T14:31:32Z</time>
      </trkpt>
      <trkpt lat="50.75289" lon="2.52388">
        <ele>38</ele>
        <time>2018-01-07T14:32:32Z</time>
      </trkpt>
      <trkpt lat="50.75288" lon="2.52403">
        <ele>38</ele>
        <time>2018-01-07T14:33:32Z</time>
      </trkpt>
      <trkpt lat="50.75286" lon="2.52455">
        <ele>38</ele>
        <time>2018-01-07T14:34:32Z</time>
      </trkpt>
      <trkpt lat="50.75284" lon="2.52666">
        <ele>38</ele>
        <time>2018-01-07T14:35:32Z</time>
      </trkpt>
      <trkpt lat="50.75282" lon="2.52916">
        <ele>37</ele>
        <time>2018-01-07T14:36:32Z</time>
      </trkpt>
      <trkpt lat="50.75283" lon="2.52966">
        <ele>37</ele>
        <time>2018-01-07T14:37:32Z</time>
      </trkpt>
      <trkpt lat="50.75273" lon="2.53143">
        <ele>35</ele>
        <time>2018-01-07T14:38:32Z</time>
      </trkpt>
      <trkpt lat="50.75272" lon="2.53256">
        <ele>34</ele>
        <time>2018-01-07T14:39:32Z</time>
      </trkpt>
      <trkpt lat="50.7527" lon="2.53359">
        <ele>33</ele>
        <time>2018-01-07T14:40:32Z</time>
      </trkpt>
      <trkpt lat="50.75269" lon="2.53414">
        <ele>32</ele>
        <time>2018-01-07T14:41:32Z</time>
      </trkpt>
      <trkpt lat="50.75268" lon="2.53465">
        <ele>32</ele>
        <time>2018-01-07T14:42:32Z</time>
      </trkpt>
      <trkpt lat="50.75267" lon="2.53506">
        <ele>31</ele>
        <time>2018-01-07T14:43:32Z</time>
      </trkpt>
      <trkpt lat="50.75265" lon="2.53557">
        <ele>31</ele>
        <time>2018-01-07T14:44:32Z</time>
      </trkpt>
      <trkpt lat="50.75263" lon="2.536">
        <ele>31</ele>
        <time>2018-01-07T14:45:32Z</time>
      </trkpt>
      <trkpt lat="50.75262" lon="2.5365">
        <ele>32</ele>
        <time>2018-01-07T14:46:32Z</time>
      </trkpt>
      <trkpt lat="50.75261" lon="2.53671">
        <ele>32</ele>
        <time>2018-01-07T14:47:32Z</time>
      </trkpt>
      <trkpt lat="50.75261" lon="2.537">
        <ele>32</ele>
        <time>2018-01-07T14:48:32Z</time>
      </trkpt>
      <trkpt lat="50.75262" lon="2.53732">
        <ele>32</ele>
        <time>2018-01-07T14:49:32Z</time>
      </trkpt>
      <trkpt lat="50.75265" lon="2.53791">
        <ele>32</ele>
        <time>2018-01-07T14:50:32Z</time>
      </trkpt>
      <trkpt lat="50.75266" lon="2.53829">
        <ele>32</ele>
        <time>2018-01-07T14:51:32Z</time>
      </trkpt>
      <trkpt lat="50.75272" lon="2.53996">
        <ele>31</ele>
        <time>2018-01-07T14:52:32Z</time>
      </trkpt>
      <trkpt lat="50.75273" lon="2.54087">
        <ele>31</ele>
        <time>2018-01-07T14:53:32Z</time>
      </trkpt>
      <trkpt lat="50.75274" lon="2.54147">
        <ele>30</ele>
        <time>2018-01-07T14:54:32Z</time>
      </trkpt>
      <trkpt lat="50.75274" lon="2.54193">
        <ele>30</ele>
        <time>2018-01-07T14:55:32Z</time>
      </trkpt>
      <trkpt lat="50.75274" lon="2.54215">
        <ele>30</ele>
        <time>2018-01-07T14:56:32Z</time>
      </trkpt>
      <trkpt lat="50.75274" lon="2.54242">
        <ele>30</ele>
        <time>2018-01-07T14:57:32Z</time>
      </trkpt>
      <trkpt lat="50.75273" lon="2.54275">
        <ele>30</ele>
        <time>2018-01-07T14:58:32Z</time>
      </trkpt>
      <trkpt lat="50.7527" lon="2.54375">
        <ele>29</ele>
        <time>2018-01-07T14:59:32Z</time>
      </trkpt>
      <trkpt lat="50.75269" lon="2.54455">
        <ele>29</ele>
        <time>2018-01-07T15:00:32Z</time>
      </trkpt>
      <trkpt lat="50.75269" lon="2.54493">
        <ele>28</ele>
        <time>2018-01-07T15:01:32Z</time>
      </trkpt>
      <trkpt lat="50.75268" lon="2.54533">
        <ele>28</ele>
        <time>2018-01-07T15:02:32Z</time>
      </trkpt>
      <trkpt lat="50.75267" lon="2.54554">
        <ele>27</ele>
        <time>2018-01-07T15:03:32Z</time>
      </trkpt>
      <trkpt lat="50.75266" lon="2.54573">
        <ele>27</ele>
        <time>2018-01-07T15:04:32Z</time>
      </trkpt>
      <trkpt lat="50.75265" lon="2.54598">
        <ele>27</ele>
        <time>2018-01-07T15:05:32Z</time>
      </trkpt>
      <trkpt lat="50.75257" lon="2.54718">
        <ele>26</ele>
        <time>2018-01-07T15:06:32Z</time>
      </trkpt>
      <trkpt lat="50.75256" lon="2.54742">
        <ele>26</ele>
        <time>2018-01-07T15:07:32Z</time>
      </trkpt>
      <trkpt lat="50.75256" lon="2.54765">
        <ele>26</ele>
        <time>2018-01-07T15:08:32Z</time>
      </trkpt>
      <trkpt lat="50.75255" lon="2.54813">
        <ele>25</ele>
        <time>2018-01-07T15:09:32Z</time>
      </trkpt>
      <trkpt lat="50.75255" lon="2.54824">
        <ele>25</ele>
        <time>2018-01-07T15:10:32Z</time>
      </trkpt>
      <trkpt lat="50.75255" lon="2.54831">
        <ele>25</ele>
        <time>2018-01-07T15:11:32Z</time>
      </trkpt>
      <trkpt lat="50.75255" lon="2.54932">
        <ele>28</ele>
        <time>2018-01-07T15:12:32Z</time>
      </trkpt>
      <trkpt lat="50.75255" lon="2.54957">
        <ele>29</ele>
        <time>2018-01-07T15:13:32Z</time>
      </trkpt>
      <trkpt lat="50.7525" lon="2.55131">
        <ele>32</ele>
        <time>2018-01-07T15:14:32Z</time>
      </trkpt>
      <trkpt lat="50.75248" lon="2.5517">
        <ele>32</ele>
        <time>2018-01-07T15:15:32Z</time>
      </trkpt>
      <trkpt lat="50.75248" lon="2.55192">
        <ele>32</ele>
        <time>2018-01-07T15:16:32Z</time>
      </trkpt>
      <trkpt lat="50.75245" lon="2.55204">
        <ele>32</ele>
        <time>2018-01-07T15:17:32Z</time>
      </trkpt>
      <trkpt lat="50.75244" lon="2.55212">
        <ele>32</ele>
        <time>2018-01-07T15:18:32Z</time>
      </trkpt>
      <trkpt lat="50.75243" lon="2.55222">
        <ele>32</ele>
        <time>2018-01-07T15:19:32Z</time>
      </trkpt>
      <trkpt lat="50.75242" lon="2.55229">
        <ele>32</ele>
        <time>2018-01-07T15:20:32Z</time>
      </trkpt>
      <trkpt lat="50.7524" lon="2.55239">
        <ele>32</ele>
        <time>2018-01-07T15:21:32Z</time>
      </trkpt>
      <trkpt lat="50.75237" lon="2.55252">
        <ele>32</ele>
        <time>2018-01-07T15:22:32Z</time>
      </trkpt>
      <trkpt lat="50.75235" lon="2.55258">
        <ele>32</ele>
        <time>2018-01-07T15:23:32Z</time>
      </trkpt>
      <trkpt lat="50.75232" lon="2.55265">
        <ele>32</ele>
        <time>2018-01-07T15:24:32Z</time>
      </trkpt>
      <trkpt lat="50.75227" lon="2.55274">
        <ele>32</ele>
        <time>2018-01-07T15:25:32Z</time>
      </trkpt>
      <trkpt lat="50.75226" lon="2.55275">
        <ele>32</ele>
        <time>2018-01-07T15:26:32Z</time>
      </trkpt>
      <trkpt lat="50.75225" lon="2.55276">
        <ele>32</ele>
        <time>2018-01-07T15:27:32Z</time>
      </trkpt>
      <trkpt lat="50.75224" lon="2.55277">
        <ele>32</ele>
        <time>2018-01-07T15:28:32Z</time>
      </trkpt>
      <trkpt lat="50.75223" lon="2.55279">
        <ele>32</ele>
        <time>2018-01-07T15:29:32Z</time>
      </trkpt>
      <trkpt lat="50.75221" lon="2.5528">
        <ele>32</ele>
        <time>2018-01-07T15:30:32Z</time>
      </trkpt>
      <trkpt lat="50.75221" lon="2.55282">
        <ele>32</ele>
        <time>2018-01-07T15:31:32Z</time>
      </trkpt>
      <trkpt lat="50.7522" lon="2.55284">
        <ele>32</ele>
        <time>2018-01-07T15:32:32Z</time>
      </trkpt>
      <trkpt lat="50.75218" lon="2.55286">
        <ele>32</ele>
        <time>2018-01-07T15:33:32Z</time>
      </trkpt>
      <trkpt lat="50.75218" lon="2.55289">
        <ele>32</ele>
        <time>2018-01-07T15:34:32Z</time>
      </trkpt>
      <trkpt lat="50.75217" lon="2.55291">
        <ele>32</ele>
        <time>2018-01-07T15:35:32Z</time>
      </trkpt>
      <trkpt lat="50.75217" lon="2.55293">
        <ele>32</ele>
        <time>2018-01-07T15:36:32Z</time>
      </trkpt>
      <trkpt lat="50.75217" lon="2.55295">
        <ele>32</ele>
        <time>2018-01-07T15:37:32Z</time>
      </trkpt>
      <trkpt lat="50.75216" lon="2.55297">
        <ele>32</ele>
        <time>2018-01-07T15:38:32Z</time>
      </trkpt>
      <trkpt lat="50.75216" lon="2.553">
        <ele>32</ele>
        <time>2018-01-07T15:39:32Z</time>
      </trkpt>
      <trkpt lat="50.75216" lon="2.55302">
        <ele>32</ele>
        <time>2018-01-07T15:40:32Z</time>
      </trkpt>
      <trkpt lat="50.75217" lon="2.55304">
        <ele>32</ele>
        <time>2018-01-07T15:41:32Z</time>
      </trkpt>
      <trkpt lat="50.75217" lon="2.55306">
        <ele>32</ele>
        <time>2018-01-07T15:42:32Z</time>
      </trkpt>
      <trkpt lat="50.75217" lon="2.55309">
        <ele>32</ele>
        <time>2018-01-07T15:43:32Z</time>
      </trkpt>
      <trkpt lat="50.75218" lon="2.55311">
        <ele>32</ele>
        <time>2018-01-07T15:44:32Z</time>
      </trkpt>
      <trkpt lat="50.75218" lon="2.55313">
        <ele>32</ele>
        <time>2018-01-07T15:45:32Z</time>
      </trkpt>
      <trkpt lat="50.75219" lon="2.55315">
        <ele>32</ele>
        <time>2018-01-07T15:46:32Z</time>
      </trkpt>
      <trkpt lat="50.7522" lon="2.55317">
        <ele>32</ele>
        <time>2018-01-07T15:47:32Z</time>
      </trkpt>
      <trkpt lat="50.75221" lon="2.55318">
        <ele>32</ele>
        <time>2018-01-07T15:48:32Z</time>
      </trkpt>
      <trkpt lat="50.75221" lon="2.5532">
        <ele>32</ele>
        <time>2018-01-07T15:49:32Z</time>
      </trkpt>
      <trkpt lat="50.75222" lon="2.55321">
        <ele>32</ele>
        <time>2018-01-07T15:50:32Z</time>
      </trkpt>
      <trkpt lat="50.75224" lon="2.55323">
        <ele>32</ele>
        <time>2018-01-07T15:51:32Z</time>
      </trkpt>
      <trkpt lat="50.75225" lon="2.55324">
        <ele>32</ele>
        <time>2018-01-07T15:52:32Z</time>
      </trkpt>
      <trkpt lat="50.75227" lon="2.55335">
        <ele>32</ele>
        <time>2018-01-07T15:53:32Z</time>
      </trkpt>
      <trkpt lat="50.7523" lon="2.55342">
        <ele>33</ele>
        <time>2018-01-07T15:54:32Z</time>
      </trkpt>
      <trkpt lat="50.75231" lon="2.5535">
        <ele>33</ele>
        <time>2018-01-07T15:55:32Z</time>
      </trkpt>
      <trkpt lat="50.75232" lon="2.55357">
        <ele>33</ele>
        <time>2018-01-07T15:56:32Z</time>
      </trkpt>
      <trkpt lat="50.75233" lon="2.55377">
        <ele>33</ele>
        <time>2018-01-07T15:57:32Z</time>
      </trkpt>
      <trkpt lat="50.75236" lon="2.55389">
        <ele>33</ele>
        <time>2018-01-07T15:58:32Z</time>
      </trkpt>
      <trkpt lat="50.75238" lon="2.55451">
        <ele>32</ele>
        <time>2018-01-07T15:59:32Z</time>
      </trkpt>
      <trkpt lat="50.7524" lon="2.55496">
        <ele>32</ele>
        <time>2018-01-07T16:00:32Z</time>
      </trkpt>
      <trkpt lat="50.75241" lon="2.55548">
        <ele>32</ele>
        <time>2018-01-07T16:01:32Z</time>
      </trkpt>
      <trkpt lat="50.75242" lon="2.55594">
        <ele>32</ele>
        <time>2018-01-07T16:02:32Z</time>
      </trkpt>
      <trkpt lat="50.75242" lon="2.55665">
        <ele>32</ele>
        <time>2018-01-07T16:03:32Z</time>
      </trkpt>
      <trkpt lat="50.7524" lon="2.55723">
        <ele>31</ele>
        <time>2018-01-07T16:04:32Z</time>
      </trkpt>
      <trkpt lat="50.75238" lon="2.55776">
        <ele>31</ele>
        <time>2018-01-07T16:05:32Z</time>
      </trkpt>
      <trkpt lat="50.75237" lon="2.55783">
        <ele>31</ele>
        <time>2018-01-07T16:06:32Z</time>
      </trkpt>
      <trkpt lat="50.75236" lon="2.55963">
        <ele>29</ele>
        <time>2018-01-07T16:07:32Z</time>
      </trkpt>
      <trkpt lat="50.75235" lon="2.56048">
        <ele>28</ele>
        <time>2018-01-07T16:08:32Z</time>
      </trkpt>
      <trkpt lat="50.75233" lon="2.56104">
        <ele>28</ele>
        <time>2018-01-07T16:09:32Z</time>
      </trkpt>
      <trkpt lat="50.75229" lon="2.56201">
        <ele>28</ele>
        <time>2018-01-07T16:10:32Z</time>
      </trkpt>
      <trkpt lat="50.75225" lon="2.56305">
        <ele>28</ele>
        <time>2018-01-07T16:11:32Z</time>
      </trkpt>
      <trkpt lat="50.75224" lon="2.56339">
        <ele>27</ele>
        <time>2018-01-07T16:12:32Z</time>
      </trkpt>
      <trkpt lat="50.75224" lon="2.56376">
        <ele>27</ele>
        <time>2018-01-07T16:13:32Z</time>
      </trkpt>
      <trkpt lat="50.75225" lon="2.5646">
        <ele>27</ele>
        <time>2018-01-07T16:14:32Z</time>
      </trkpt>
      <trkpt lat="50.75225" lon="2.56514">
        <ele>28</ele>
        <time>2018-01-07T16:15:32Z</time>
      </trkpt>
      <trkpt lat="50.75224" lon="2.56538">
        <ele>28</ele>
        <time>2018-01-07T16:16:32Z</time>
      </trkpt>
      <trkpt lat="50.75223" lon="2.56571">
        <ele>28</ele>
        <time>2018-01-07T16:17:32Z</time>
      </trkpt>
      <trkpt lat="50.75218" lon="2.56671">
        <ele>30</ele>
        <time>2018-01-07T16:18:32Z</time>
      </trkpt>
      <trkpt lat="50.75214" lon="2.5677">
        <ele>30</ele>
        <time>2018-01-07T16:19:32Z</time>
      </trkpt>
      <trkpt lat="50.75213" lon="2.56844">
        <ele>31</ele>
        <time>2018-01-07T16:20:32Z</time>
      </trkpt>
      <trkpt lat="50.75212" lon="2.56913">
        <ele>31</ele>
        <time>2018-01-07T16:21:32Z</time>
      </trkpt>
      <trkpt lat="50.75213" lon="2.57013">
        <ele>30</ele>
        <time>2018-01-07T16:22:32Z</time>
      </trkpt>
      <trkpt lat="50.75213" lon="2.57041">
        <ele>30</ele>
        <time>2018-01-07T16:23:32Z</time>
      </trkpt>
      <trkpt lat="50.75213" lon="2.57111">
        <ele>29</ele>
        <time>2018-01-07T16:24:32Z</time>
      </trkpt>
      <trkpt lat="50.75213" lon="2.57204">
        <ele>28</ele>
        <time>2018-01-07T16:25:32Z</time>
      </trkpt>
      <trkpt lat="50.75212" lon="2.57254">
        <ele>27</ele>
        <time>2018-01-07T16:26:32Z</time>
      </trkpt>
      <trkpt lat="50.7521" lon="2.57299">
        <ele>27</ele>
        <time>2018-01-07T16:27:32Z</time>
      </trkpt>
      <trkpt lat="50.75208" lon="2.57338">
        <ele>26</ele>
        <time>2018-01-07T16:28:32Z</time>
      </trkpt>
      <trkpt lat="50.75199" lon="2.57477">
        <ele>24</ele>
        <time>2018-01-07T16:29:32Z</time>
      </trkpt>
      <trkpt lat="50.75198" lon="2.57485">
        <ele>24</ele>
        <time>2018-01-07T16:30:32Z</time>
      </trkpt>
      <trkpt lat="50.75198" lon="2.57493">
        <ele>24</ele>
        <time>2018-01-07T16:31:32Z</time>
      </trkpt>
      <trkpt lat="50.75195" lon="2.57535">
        <ele>24</ele>
        <time>2018-01-07T16:32:32Z</time>
      </trkpt>
      <trkpt lat="50.75191" lon="2.576">
        <ele>24</ele>
        <time>2018-01-07T16:33:32Z</time>
      </trkpt>
      <trkpt lat="50.75185" lon="2.57703">
        <ele>25</ele>
        <time>2018-01-07T16:34:32Z</time>
      </trkpt>
      <trkpt lat="50.75184" lon="2.57721">
        <ele>25</ele>
        <time>2018-01-07T16:35:32Z</time>
      </trkpt>
      <trkpt lat="50.75183" lon="2.57751">
        <ele>25</ele>
        <time>2018-01-07T16:36:32Z</time>
      </trkpt>
      <trkpt lat="50.75185" lon="2.57814">
        <ele>25</ele>
        <time>2018-01-07T16:37:32Z</time>
      </trkpt>
      <trkpt lat="50.75185" lon="2.57822">
        <ele>25</ele>
        <time>2018-01-07T16:38:32Z</time>
      </trkpt>
      <trkpt lat="50.75186" lon="2.57829">
        <ele>25</ele>
        <time>2018-01-07T16:39:32Z</time>
      </trkpt>
      <trkpt lat="50.75187" lon="2.57854">
        <ele>26</ele>
        <time>2018-01-07T16:40:32Z</time>
      </trkpt>
      <trkpt lat="50.75191" lon="2.57898">
        <ele>26</ele>
        <time>2018-01-07T16:41:32Z</time>
      </trkpt>
      <trkpt lat="50.75192" lon="2.57929">
        <ele>27</ele>
        <time>2018-01-07T16:42:32Z</time>
      </trkpt>
      <trkpt lat="50.75192" lon="2.57943">
        <ele>27</ele>
        <time>2018-01-07T16:43:32Z</time>
      </trkpt>
      <trkpt lat="50.75192" lon="2.57952">
        <ele>27</ele>
        <time>2018-01-07T16:44:32Z</time>
      </trkpt>
      <trkpt lat="50.75191" lon="2.57964">
        <ele>28</ele>
        <time>2018-01-07T16:45:32Z</time>
      </trkpt>
      <trkpt lat="50.7519" lon="2.57977">
        <ele>28</ele>
        <time>2018-01-07T16:46:32Z</time>
      </trkpt>
      <trkpt lat="50.75187" lon="2.57994">
        <ele>28</ele>
        <time>2018-01-07T16:47:32Z</time>
      </trkpt>
      <trkpt lat="50.75174" lon="2.5807">
        <ele>29</ele>
        <time>2018-01-07T16:48:32Z</time>
      </trkpt>
      <trkpt lat="50.75171" lon="2.58102">
        <ele>29</ele>
        <time>2018-01-07T16:49:32Z</time>
      </trkpt>
      <trkpt lat="50.75171" lon="2.58114">
        <ele>29</ele>
        <time>2018-01-07T16:50:32Z</time>
      </trkpt>
      <trkpt lat="50.75172" lon="2.58128">
        <ele>29</ele>
        <time>2018-01-07T16:51:32Z</time>
      </trkpt>
      <trkpt lat="50.75173" lon="2.58136">
        <ele>29</ele>
        <time>2018-01-07T16:52:32Z</time>
      </trkpt>
      <trkpt lat="50.75178" lon="2.58164">
        <ele>29</ele>
        <time>2018-01-07T16:53:32Z</time>
      </trkpt>
      <trkpt lat="50.75179" lon="2.58168">
        <ele>29</ele>
        <time>2018-01-07T16:54:32Z</time>
      </trkpt>
      <trkpt lat="50.75187" lon="2.58196">
        <ele>29</ele>
        <time>2018-01-07T16:55:32Z</time>
      </trkpt>
      <trkpt lat="50.75196" lon="2.58225">
        <ele>29</ele>
        <time>2018-01-07T16:56:32Z</time>
      </trkpt>
      <trkpt lat="50.75203" lon="2.58246">
        <ele>29</ele>
        <time>2018-01-07T16:57:32Z</time>
      </trkpt>
      <trkpt lat="50.75232" lon="2.58327">
        <ele>27</ele>
        <time>2018-01-07T16:58:32Z</time>
      </trkpt>
      <trkpt lat="50.75286" lon="2.58461">
        <ele>28</ele>
        <time>2018-01-07T16:59:32Z</time>
      </trkpt>
      <trkpt lat="50.75299" lon="2.58495">
        <ele>28</ele>
        <time>2018-01-07T17:00:32Z</time>
      </trkpt>
      <trkpt lat="50.75308" lon="2.58521">
        <ele>28</ele>
        <time>2018-01-07T17:01:32Z</time>
      </trkpt>
      <trkpt lat="50.75314" lon="2.58541">
        <ele>28</ele>
        <time>2018-01-07T17:02:32Z</time>
      </trkpt>
      <trkpt lat="50.7532" lon="2.58564">
        <ele>29</ele>
        <time>2018-01-07T17:03:32Z</time>
      </trkpt>
      <trkpt lat="50.75324" lon="2.58582">
        <ele>29</ele>
        <time>2018-01-07T17:04:32Z</time>
      </trkpt>
      <trkpt lat="50.75326" lon="2.58595">
        <ele>29</ele>
        <time>2018-01-07T17:05:32Z</time>
      </trkpt>
      <trkpt lat="50.7533" lon="2.58611">
        <ele>30</ele>
        <time>2018-01-07T17:06:32Z</time>
      </trkpt>
      <trkpt lat="50.75333" lon="2.58623">
        <ele>30</ele>
        <time>2018-01-07T17:07:32Z</time>
      </trkpt>
      <trkpt lat="50.7534" lon="2.58643">
        <ele>30</ele>
        <time>2018-01-07T17:08:32Z</time>
      </trkpt>
      <trkpt lat="50.75343" lon="2.58652">
        <ele>31</ele>
        <time>2018-01-07T17:09:32Z</time>
      </trkpt>
      <trkpt lat="50.7535" lon="2.58671">
        <ele>31</ele>
        <time>2018-01-07T17:10:32Z</time>
      </trkpt>
      <trkpt lat="50.75377" lon="2.58741">
        <ele>30</ele>
        <time>2018-01-07T17:11:32Z</time>
      </trkpt>
      <trkpt lat="50.75404" lon="2.58814">
        <ele>30</ele>
        <time>2018-01-07T17:12:32Z</time>
      </trkpt>
      <trkpt lat="50.75407" lon="2.58822">
        <ele>30</ele>
        <time>2018-01-07T17:13:32Z</time>
      </trkpt>
      <trkpt lat="50.75417" lon="2.5885">
        <ele>30</ele>
        <time>2018-01-07T17:14:32Z</time>
      </trkpt>
      <trkpt lat="50.7542" lon="2.58858">
        <ele>30</ele>
        <time>2018-01-07T17:15:32Z</time>
      </trkpt>
      <trkpt lat="50.75428" lon="2.58882">
        <ele>30</ele>
        <time>2018-01-07T17:16:32Z</time>
      </trkpt>
      <trkpt lat="50.75439" lon="2.58918">
        <ele>30</ele>
        <time>2018-01-07T17:17:32Z</time>
      </trkpt>
      <trkpt lat="50.75468" lon="2.59027">
        <ele>30</ele>
        <time>2018-01-07T17:18:32Z</time>
      </trkpt>
      <trkpt lat="50.75485" lon="2.59086">
        <ele>31</ele>
        <time>2018-01-07T17:19:32Z</time>
      </trkpt>
      <trkpt lat="50.75495" lon="2.5912">
        <ele>31</ele>
        <time>2018-01-07T17:20:32Z</time>
      </trkpt>
      <trkpt lat="50.75506" lon="2.59158">
        <ele>32</ele>
        <time>2018-01-07T17:21:32Z</time>
      </trkpt>
      <trkpt lat="50.75539" lon="2.59265">
        <ele>32</ele>
        <time>2018-01-07T17:22:32Z</time>
      </trkpt>
      <trkpt lat="50.75547" lon="2.59293">
        <ele>32</ele>
        <time>2018-01-07T17:23:32Z</time>
      </trkpt>
      <trkpt lat="50.75556" lon="2.59325">
        <ele>32</ele>
        <time>2018-01-07T17:24:32Z</time>
      </trkpt>
      <trkpt lat="50.75558" lon="2.59333">
        <ele>32</ele>
        <time>2018-01-07T17:25:32Z</time>
      </trkpt>
      <trkpt lat="50.75579" lon="2.59411">
        <ele>33</ele>
        <time>2018-01-07T17:26:32Z</time>
      </trkpt>
      <trkpt lat="50.75591" lon="2.59465">
        <ele>34</ele>
        <time>2018-01-07T17:27:32Z</time>
      </trkpt>
      <trkpt lat="50.75601" lon="2.59507">
        <ele>34</ele>
        <time>2018-01-07T17:28:32Z</time>
      </trkpt>
      <trkpt lat="50.75631" lon="2.59625">
        <ele>35</ele>
        <time>2018-01-07T17:29:32Z</time>
      </trkpt>
      <trkpt lat="50.75644" lon="2.59675">
        <ele>36</ele>
        <time>2018-01-07T17:30:32Z</time>
      </trkpt>
      <trkpt lat="50.75646" lon="2.59684">
        <ele>36</ele>
        <time>2018-01-07T17:31:32Z</time>
      </trkpt>
      <trkpt lat="50.75654" lon="2.59717">
        <ele>36</ele>
        <time>2018-01-07T17:32:32Z</time>
      </trkpt>
      <trkpt lat="50.75657" lon="2.59726">
        <ele>36</ele>
        <time>2018-01-07T17:33:32Z</time>
      </trkpt>
      <trkpt lat="50.75659" lon="2.5974">
        <ele>36</ele>
        <time>2018-01-07T17:34:32Z</time>
      </trkpt>
      <trkpt lat="50.75665" lon="2.59765">
        <ele>36</ele>
        <time>2018-01-07T17:35:32Z</time>
      </trkpt>
      <trkpt lat="50.75689" lon="2.59864">
        <ele>37</ele>
        <time>2018-01-07T17:36:32Z</time>
      </trkpt>
      <trkpt lat="50.75693" lon="2.59877">
        <ele>37</ele>
        <time>2018-01-07T17:37:32Z</time>
      </trkpt>
      <trkpt lat="50.75699" lon="2.59897">
        <ele>37</ele>
        <time>2018-01-07T17:38:32Z</time>
      </trkpt>
      <trkpt lat="50.75707" lon="2.5993">
        <ele>38</ele>
        <time>2018-01-07T17:39:32Z</time>
      </trkpt>
      <trkpt lat="50.75715" lon="2.59958">
        <ele>38</ele>
        <time>2018-01-07T17:40:32Z</time>
      </trkpt>
      <trkpt lat="50.75724" lon="2.59984">
        <ele>39</ele>
        <time>2018-01-07T17:41:32Z</time>
      </trkpt>
      <trkpt lat="50.75734" lon="2.60009">
        <ele>39</ele>
        <time>2018-01-07T17:42:32Z</time>
      </trkpt>
      <trkpt lat="50.7575" lon="2.60052">
        <ele>39</ele>
        <time>2018-01-07T17:43:32Z</time>
      </trkpt>
      <trkpt lat="50.75753" lon="2.60059">
        <ele>39</ele>
        <time>2018-01-07T17:44:32Z</time>
      </trkpt>
      <trkpt lat="50.75758" lon="2.60072">
        <ele>39</ele>
        <time>2018-01-07T17:45:32Z</time>
      </trkpt>
      <trkpt lat="50.75775" lon="2.60118">
        <ele>38</ele>
        <time>2018-01-07T17:46:32Z</time>
      </trkpt>
      <trkpt lat="50.75793" lon="2.60162">
        <ele>38</ele>
        <time>2018-01-07T17:47:32Z</time>
      </trkpt>
      <trkpt lat="50.75798" lon="2.60178">
        <ele>38</ele>
        <time>2018-01-07T17:48:32Z</time>
      </trkpt>
      <trkpt lat="50.75802" lon="2.6019">
        <ele>38</ele>
        <time>2018-01-07T17:49:32Z</time>
      </trkpt>
      <trkpt lat="50.75804" lon="2.60201">
        <ele>38</ele>
        <time>2018-01-07T17:50:32Z</time>
      </trkpt>
      <trkpt lat="50.75806" lon="2.6022">
        <ele>38</ele>
        <time>2018-01-07T17:51:32Z</time>
      </trkpt>
      <trkpt lat="50.75808" lon="2.60234">
        <ele>38</ele>
        <time>2018-01-07T17:52:32Z</time>
      </trkpt>
      <trkpt lat="50.75814" lon="2.60326">
        <ele>38</ele>
        <time>2018-01-07T17:53:32Z</time>
      </trkpt>
      <trkpt lat="50.75814" lon="2.60334">
        <ele>38</ele>
        <time>2018-01-07T17:54:32Z</time>
      </trkpt>
      <trkpt lat="50.75814" lon="2.60334">
        <ele>38</ele>
        <time>2018-01-07T17:55:32Z</time>
      </trkpt>
      <trkpt lat="50.7589" lon="2.60454">
        <ele>39</ele>
        <time>2018-01-07T17:56:32Z</time>
      </trkpt>
      <trkpt lat="50.75895" lon="2.6046">
        <ele>39</ele>
        <time>2018-01-07T17:57:32Z</time>
      </trkpt>
      <trkpt lat="50.75895" lon="2.6046">
        <ele>39</ele>
        <time>2018-01-07T17:58:32Z</time>
      </trkpt>
      <trkpt lat="50.75895" lon="2.60461">
        <ele>39</ele>
        <time>2018-01-07T17:59:32Z</time>
      </trkpt>
      <trkpt lat="50.75895" lon="2.60462">
        <ele>39</ele>
        <time>2018-01-07T18:00:32Z</time>
      </trkpt>
      <trkpt lat="50.75895" lon="2.60463">
        <ele>39</ele>
        <time>2018-01-07T18:01:32Z</time>
      </trkpt>
      <trkpt lat="50.75895" lon="2.60464">
        <ele>39</ele>
        <time>2018-01-07T18:02:32Z</time>
      </trkpt>
      <trkpt lat="50.75895" lon="2.60465">
        <ele>39</ele>
        <time>2018-01-07T18:03:32Z</time>
      </trkpt>
      <trkpt lat="50.75895" lon="2.60466">
        <ele>39</ele>
        <time>2018-01-07T18:04:32Z</time>
      </trkpt>
      <trkpt lat="50.75896" lon="2.60466">
        <ele>39</ele>
        <time>2018-01-07T18:05:32Z</time>
      </trkpt>
      <trkpt lat="50.75896" lon="2.60467">
        <ele>39</ele>
        <time>2018-01-07T18:06:32Z</time>
      </trkpt>
      <trkpt lat="50.75896" lon="2.60468">
        <ele>39</ele>
        <time>2018-01-07T18:07:32Z</time>
      </trkpt>
      <trkpt lat="50.75897" lon="2.60469">
        <ele>39</ele>
        <time>2018-01-07T18:08:32Z</time>
      </trkpt>
      <trkpt lat="50.75897" lon="2.6047">
        <ele>39</ele>
        <time>2018-01-07T18:09:32Z</time>
      </trkpt>
      <trkpt lat="50.75898" lon="2.6047">
        <ele>39</ele>
        <time>2018-01-07T18:10:32Z</time>
      </trkpt>
      <trkpt lat="50.75898" lon="2.60471">
        <ele>39</ele>
        <time>2018-01-07T18:11:32Z</time>
      </trkpt>
      <trkpt lat="50.75899" lon="2.60472">
        <ele>39</ele>
        <time>2018-01-07T18:12:32Z</time>
      </trkpt>
      <trkpt lat="50.759" lon="2.60472">
        <ele>39</ele>
        <time>2018-01-07T18:13:32Z</time>
      </trkpt>
      <trkpt lat="50.759" lon="2.60473">
        <ele>39</ele>
        <time>2018-01-07T18:14:32Z</time>
      </trkpt>
      <trkpt lat="50.75901" lon="2.60473">
        <ele>39</ele>
        <time>2018-01-07T18:15:32Z</time>
      </trkpt>
      <trkpt lat="50.75902" lon="2.60473">
        <ele>39</ele>
        <time>2018-01-07T18:16:32Z</time>
      </trkpt>
      <trkpt lat="50.75902" lon="2.60474">
        <ele>39</ele>
        <time>2018-01-07T18:17:32Z</time>
      </trkpt>
      <trkpt lat="50.75903" lon="2.60474">
        <ele>39</ele>
        <time>2018-01-07T18:18:32Z</time>
      </trkpt>
      <trkpt lat="50.75904" lon="2.60474">
        <ele>39</ele>
        <time>2018-01-07T18:19:32Z</time>
      </trkpt>
      <trkpt lat="50.75904" lon="2.60473">
        <ele>39</ele>
        <time>2018-01-07T18:20:32Z</time>
      </trkpt>
      <trkpt lat="50.75905" lon="2.60473">
        <ele>39</ele>
        <time>2018-01-07T18:21:32Z</time>
      </trkpt>
      <trkpt lat="50.75907" lon="2.6049">
        <ele>39</ele>
        <time>2018-01-07T18:22:32Z</time>
      </trkpt>
      <trkpt lat="50.75907" lon="2.60498">
        <ele>39</ele>
        <time>2018-01-07T18:23:32Z</time>
      </trkpt>
      <trkpt lat="50.75907" lon="2.60506">
        <ele>39</ele>
        <time>2018-01-07T18:24:32Z</time>
      </trkpt>
      <trkpt lat="50.75906" lon="2.60523">
        <ele>39</ele>
        <time>2018-01-07T18:25:32Z</time>
      </trkpt>
      <trkpt lat="50.75904" lon="2.60544">
        <ele>39</ele>
        <time>2018-01-07T18:26:32Z</time>
      </trkpt>
      <trkpt lat="50.75888" lon="2.60651">
        <ele>38</ele>
        <time>2018-01-07T18:27:32Z</time>
      </trkpt>
      <trkpt lat="50.75885" lon="2.60672">
        <ele>37</ele>
        <time>2018-01-07T18:28:32Z</time>
      </trkpt>
      <trkpt lat="50.7587" lon="2.60775">
        <ele>36</ele>
        <time>2018-01-07T18:29:32Z</time>
      </trkpt>
      <trkpt lat="50.75859" lon="2.60859">
        <ele>35</ele>
        <time>2018-01-07T18:30:32Z</time>
      </trkpt>
      <trkpt lat="50.75858" lon="2.60866">
        <ele>36</ele>
        <time>2018-01-07T18:31:32Z</time>
      </trkpt>
      <trkpt lat="50.75857" lon="2.60873">
        <ele>36</ele>
        <time>2018-01-07T18:32:32Z</time>
      </trkpt>
      <trkpt lat="50.75836" lon="2.61016">
        <ele>35</ele>
        <time>2018-01-07T18:33:32Z</time>
      </trkpt>
      <trkpt lat="50.75821" lon="2.6112">
        <ele>37</ele>
        <time>2018-01-07T18:34:32Z</time>
      </trkpt>
      <trkpt lat="50.75787" lon="2.61352">
        <ele>39</ele>
        <time>2018-01-07T18:35:32Z</time>
      </trkpt>
      <trkpt lat="50.75665" lon="2.62173">
        <ele>47</ele>
        <time>2018-01-07T18:36:32Z</time>
      </trkpt>
      <trkpt lat="50.75647" lon="2.62296">
        <ele>47</ele>
        <time>2018-01-07T18:37:32Z</time>
      </trkpt>
      <trkpt lat="50.7564" lon="2.62341">
        <ele>47</ele>
        <time>2018-01-07T18:38:32Z</time>
      </trkpt>
      <trkpt lat="50.75632" lon="2.62394">
        <ele>47</ele>
        <time>2018-01-07T18:39:32Z</time>
      </trkpt>
      <trkpt lat="50.75609" lon="2.62549">
        <ele>47</ele>
        <time>2018-01-07T18:40:32Z</time>
      </trkpt>
      <trkpt lat="50.75535" lon="2.6305">
        <ele>44</ele>
        <time>2018-01-07T18:41:32Z</time>
      </trkpt>
      <trkpt lat="50.75526" lon="2.63103">
        <ele>44</ele>
        <time>2018-01-07T18:42:32Z</time>
      </trkpt>
      <trkpt lat="50.75512" lon="2.63203">
        <ele>43</ele>
        <time>2018-01-07T18:43:32Z</time>
      </trkpt>
      <trkpt lat="50.7551" lon="2.63221">
        <ele>43</ele>
        <time>2018-01-07T18:44:32Z</time>
      </trkpt>
      <trkpt lat="50.75491" lon="2.63348">
        <ele>40</ele>
        <time>2018-01-07T18:45:32Z</time>
      </trkpt>
      <trkpt lat="50.75479" lon="2.63429">
        <ele>40</ele>
        <time>2018-01-07T18:46:32Z</time>
      </trkpt>
      <trkpt lat="50.75458" lon="2.63567">
        <ele>39</ele>
        <time>2018-01-07T18:47:32Z</time>
      </trkpt>
      <trkpt lat="50.7544" lon="2.63689">
        <ele>38</ele>
        <time>2018-01-07T18:48:32Z</time>
      </trkpt>
      <trkpt lat="50.75426" lon="2.63784">
        <ele>36</ele>
        <time>2018-01-07T18:49:32Z</time>
      </trkpt>
      <trkpt lat="50.7541" lon="2.63891">
        <ele>34</ele>
        <time>2018-01-07T18:50:32Z</time>
      </trkpt>
      <trkpt lat="50.75389" lon="2.64037">
        <ele>33</ele>
        <time>2018-01-07T18:51:32Z</time>
      </trkpt>
      <trkpt lat="50.75381" lon="2.64089">
        <ele>33</ele>
        <time>2018-01-07T18:52:32Z</time>
      </trkpt>
      <trkpt lat="50.75377" lon="2.64116">
        <ele>33</ele>
        <time>2018-01-07T18:53:32Z</time>
      </trkpt>
      <trkpt lat="50.75372" lon="2.64165">
        <ele>32</ele>
        <time>2018-01-07T18:54:32Z</time>
      </trkpt>
      <trkpt lat="50.75369" lon="2.64188">
        <ele>32</ele>
        <time>2018-01-07T18:55:32Z</time>
      </trkpt>
      <trkpt lat="50.75369" lon="2.64196">
        <ele>32</ele>
        <time>2018-01-07T18:56:32Z</time>
      </trkpt>
      <trkpt lat="50.75368" lon="2.64201">
        <ele>32</ele>
        <time>2018-01-07T18:57:32Z</time>
      </trkpt>
      <trkpt lat="50.75368" lon="2.64206">
        <ele>32</ele>
        <time>2018-01-07T18:58:32Z</time>
      </trkpt>
      <trkpt lat="50.75368" lon="2.64211">
        <ele>33</ele>
        <time>2018-01-07T18:59:32Z</time>
      </trkpt>
      <trkpt lat="50.75368" lon="2.64215">
        <ele>33</ele>
        <time>2018-01-07T19:00:32Z</time>
      </trkpt>
      <trkpt lat="50.75367" lon="2.64243">
        <ele>33</ele>
        <time>2018-01-07T19:01:32Z</time>
      </trkpt>
      <trkpt lat="50.75367" lon="2.64278">
        <ele>33</ele>
        <time>2018-01-07T19:02:32Z</time>
      </trkpt>
      <trkpt lat="50.75367" lon="2.64302">
        <ele>34</ele>
        <time>2018-01-07T19:03:32Z</time>
      </trkpt>
      <trkpt lat="50.75367" lon="2.64318">
        <ele>34</ele>
        <time>2018-01-07T19:04:32Z</time>
      </trkpt>
      <trkpt lat="50.75368" lon="2.64338">
        <ele>35</ele>
        <time>2018-01-07T19:05:32Z</time>
      </trkpt>
      <trkpt lat="50.75369" lon="2.64348">
        <ele>35</ele>
        <time>2018-01-07T19:06:32Z</time>
      </trkpt>
      <trkpt lat="50.75374" lon="2.64412">
        <ele>37</ele>
        <time>2018-01-07T19:07:32Z</time>
      </trkpt>
      <trkpt lat="50.75377" lon="2.64457">
        <ele>38</ele>
        <time>2018-01-07T19:08:32Z</time>
      </trkpt>
      <trkpt lat="50.75379" lon="2.6449">
        <ele>40</ele>
        <time>2018-01-07T19:09:32Z</time>
      </trkpt>
      <trkpt lat="50.75381" lon="2.64521">
        <ele>40</ele>
        <time>2018-01-07T19:10:32Z</time>
      </trkpt>
      <trkpt lat="50.75382" lon="2.64553">
        <ele>40</ele>
        <time>2018-01-07T19:11:32Z</time>
      </trkpt>
      <trkpt lat="50.75382" lon="2.64575">
        <ele>40</ele>
        <time>2018-01-07T19:12:32Z</time>
      </trkpt>
      <trkpt lat="50.75381" lon="2.64582">
        <ele>40</ele>
        <time>2018-01-07T19:13:32Z</time>
      </trkpt>
      <trkpt lat="50.75381" lon="2.64591">
        <ele>40</ele>
        <time>2018-01-07T19:14:32Z</time>
      </trkpt>
      <trkpt lat="50.7538" lon="2.64593">
        <ele>40</ele>
        <time>2018-01-07T19:15:32Z</time>
      </trkpt>
      <trkpt lat="50.75378" lon="2.64602">
        <ele>40</ele>
        <time>2018-01-07T19:16:32Z</time>
      </trkpt>
      <trkpt lat="50.75376" lon="2.64609">
        <ele>40</ele>
        <time>2018-01-07T19:17:32Z</time>
      </trkpt>
      <trkpt lat="50.75374" lon="2.64612">
        <ele>40</ele>
        <time>2018-01-07T19:18:32Z</time>
      </trkpt>
      <trkpt lat="50.75373" lon="2.64615">
        <ele>40</ele>
        <time>2018-01-07T19:19:32Z</time>
      </trkpt>
      <trkpt lat="50.7537" lon="2.6462">
        <ele>40</ele>
        <time>2018-01-07T19:20:32Z</time>
      </trkpt>
      <trkpt lat="50.75364" lon="2.64626">
        <ele>41</ele>
        <time>2018-01-07T19:21:32Z</time>
      </trkpt>
      <trkpt lat="50.75357" lon="2.64631">
        <ele>41</ele>
        <time>2018-01-07T19:22:32Z</time>
      </trkpt>
      <trkpt lat="50.75354" lon="2.64632">
        <ele>41</ele>
        <time>2018-01-07T19:23:32Z</time>
      </trkpt>
      <trkpt lat="50.75351" lon="2.64633">
        <ele>41</ele>
        <time>2018-01-07T19:24:32Z</time>
      </trkpt>
      <trkpt lat="50.75336" lon="2.6464">
        <ele>41</ele>
        <time>2018-01-07T19:25:32Z</time>
      </trkpt>
      <trkpt lat="50.75317" lon="2.64648">
        <ele>40</ele>
        <time>2018-01-07T19:26:32Z</time>
      </trkpt>
      <trkpt lat="50.75306" lon="2.64655">
        <ele>40</ele>
        <time>2018-01-07T19:27:32Z</time>
      </trkpt>
      <trkpt lat="50.75292" lon="2.64668">
        <ele>40</ele>
        <time>2018-01-07T19:28:32Z</time>
      </trkpt>
      <trkpt lat="50.75287" lon="2.64674">
        <ele>40</ele>
        <time>2018-01-07T19:29:32Z</time>
      </trkpt>
      <trkpt lat="50.7528" lon="2.64684">
        <ele>40</ele>
        <time>2018-01-07T19:30:32Z</time>
      </trkpt>
      <trkpt lat="50.75274" lon="2.64696">
        <ele>40</ele>
        <time>2018-01-07T19:31:32Z</time>
      </trkpt>
      <trkpt lat="50.75268" lon="2.64709">
        <ele>39</ele>
        <time>2018-01-07T19:32:32Z</time>
      </trkpt>
      <trkpt lat="50.75262" lon="2.64726">
        <ele>39</ele>
        <time>2018-01-07T19:33:32Z</time>
      </trkpt>
      <trkpt lat="50.75257" lon="2.64746">
        <ele>39</ele>
        <time>2018-01-07T19:34:32Z</time>
      </trkpt>
      <trkpt lat="50.7524" lon="2.64806">
        <ele>38</ele>
        <time>2018-01-07T19:35:32Z</time>
      </trkpt>
      <trkpt lat="50.75234" lon="2.64826">
        <ele>38</ele>
        <time>2018-01-07T19:36:32Z</time>
      </trkpt>
      <trkpt lat="50.75195" lon="2.64962">
        <ele>40</ele>
        <time>2018-01-07T19:37:32Z</time>
      </trkpt>
      <trkpt lat="50.75192" lon="2.64971">
        <ele>40</ele>
        <time>2018-01-07T19:38:32Z</time>
      </trkpt>
      <trkpt lat="50.75177" lon="2.65026">
        <ele>41</ele>
        <time>2018-01-07T19:39:32Z</time>
      </trkpt>
      <trkpt lat="50.75169" lon="2.65054">
        <ele>41</ele>
        <time>2018-01-07T19:40:32Z</time>
      </trkpt>
      <trkpt lat="50.75122" lon="2.65216">
        <ele>40</ele>
        <time>2018-01-07T19:41:32Z</time>
      </trkpt>
      <trkpt lat="50.75114" lon="2.65242">
        <ele>40</ele>
        <time>2018-01-07T19:42:32Z</time>
      </trkpt>
      <trkpt lat="50.75106" lon="2.6527">
        <ele>40</ele>
        <time>2018-01-07T19:43:32Z</time>
      </trkpt>
      <trkpt lat="50.75097" lon="2.65299">
        <ele>40</ele>
        <time>2018-01-07T19:44:32Z</time>
      </trkpt>
      <trkpt lat="50.75073" lon="2.65381">
        <ele>38</ele>
        <time>2018-01-07T19:45:32Z</time>
      </trkpt>
      <trkpt lat="50.75034" lon="2.65517">
        <ele>34</ele>
        <time>2018-01-07T19:46:32Z</time>
      </trkpt>
      <trkpt lat="50.75007" lon="2.65612">
        <ele>35</ele>
        <time>2018-01-07T19:47:32Z</time>
      </trkpt>
      <trkpt lat="50.7499" lon="2.65669">
        <ele>36</ele>
        <time>2018-01-07T19:48:32Z</time>
      </trkpt>
      <trkpt lat="50.74959" lon="2.6578">
        <ele>38</ele>
        <time>2018-01-07T19:49:32Z</time>
      </trkpt>
      <trkpt lat="50.74922" lon="2.65906">
        <ele>41</ele>
        <time>2018-01-07T19:50:32Z</time>
      </trkpt>
      <trkpt lat="50.74903" lon="2.65972">
        <ele>42</ele>
        <time>2018-01-07T19:51:32Z</time>
      </trkpt>
      <trkpt lat="50.74864" lon="2.66105">
        <ele>42</ele>
        <time>2018-01-07T19:52:32Z</time>
      </trkpt>
      <trkpt lat="50.74835" lon="2.66205">
        <ele>42</ele>
        <time>2018-01-07T19:53:32Z</time>
      </trkpt>
      <trkpt lat="50.74821" lon="2.66253">
        <ele>42</ele>
        <time>2018-01-07T19:54:32Z</time>
      </trkpt>
      <trkpt lat="50.74812" lon="2.66285">
        <ele>42</ele>
        <time>2018-01-07T19:55:32Z</time>
      </trkpt>
      <trkpt lat="50.74786" lon="2.66377">
        <ele>41</ele>
        <time>2018-01-07T19:56:32Z</time>
      </trkpt>
      <trkpt lat="50.74754" lon="2.66484">
        <ele>38</ele>
        <time>2018-01-07T19:57:32Z</time>
      </trkpt>
      <trkpt lat="50.74719" lon="2.66606">
        <ele>36</ele>
        <time>2018-01-07T19:58:32Z</time>
      </trkpt>
      <trkpt lat="50.74669" lon="2.66779">
        <ele>33</ele>
        <time>2018-01-07T19:59:32Z</time>
      </trkpt>
      <trkpt lat="50.74631" lon="2.66911">
        <ele>32</ele>
        <time>2018-01-07T20:00:32Z</time>
      </trkpt>
      <trkpt lat="50.74607" lon="2.66993">
        <ele>32</ele>
        <time>2018-01-07T20:01:32Z</time>
      </trkpt>
      <trkpt lat="50.74583" lon="2.6708">
        <ele>32</ele>
        <time>2018-01-07T20:02:32Z</time>
      </trkpt>
      <trkpt lat="50.74557" lon="2.67167">
        <ele>31</ele>
        <time>2018-01-07T20:03:32Z</time>
      </trkpt>
      <trkpt lat="50.74553" lon="2.67182">
        <ele>31</ele>
        <time>2018-01-07T20:04:32Z</time>
      </trkpt>
      <trkpt lat="50.74547" lon="2.67202">
        <ele>31</ele>
        <time>2018-01-07T20:05:32Z</time>
      </trkpt>
      <trkpt lat="50.74543" lon="2.67211">
        <ele>31</ele>
        <time>2018-01-07T20:06:32Z</time>
      </trkpt>
      <trkpt lat="50.74526" lon="2.67269">
        <ele>31</ele>
        <time>2018-01-07T20:07:32Z</time>
      </trkpt>
      <trkpt lat="50.74505" lon="2.67338">
        <ele>31</ele>
        <time>2018-01-07T20:08:32Z</time>
      </trkpt>
      <trkpt lat="50.74504" lon="2.67347">
        <ele>31</ele>
        <time>2018-01-07T20:09:32Z</time>
      </trkpt>
      <trkpt lat="50.74504" lon="2.67352">
        <ele>31</ele>
        <time>2018-01-07T20:10:32Z</time>
      </trkpt>
      <trkpt lat="50.74497" lon="2.67378">
        <ele>31</ele>
        <time>2018-01-07T20:11:32Z</time>
      </trkpt>
      <trkpt lat="50.74487" lon="2.67411">
        <ele>31</ele>
        <time>2018-01-07T20:12:32Z</time>
      </trkpt>
      <trkpt lat="50.74458" lon="2.67508">
        <ele>29</ele>
        <time>2018-01-07T20:13:32Z</time>
      </trkpt>
      <trkpt lat="50.74455" lon="2.67519">
        <ele>29</ele>
        <time>2018-01-07T20:14:32Z</time>
      </trkpt>
      <trkpt lat="50.74448" lon="2.67532">
        <ele>29</ele>
        <time>2018-01-07T20:15:32Z</time>
      </trkpt>
      <trkpt lat="50.74441" lon="2.67558">
        <ele>29</ele>
        <time>2018-01-07T20:16:32Z</time>
      </trkpt>
      <trkpt lat="50.74427" lon="2.67606">
        <ele>29</ele>
        <time>2018-01-07T20:17:32Z</time>
      </trkpt>
      <trkpt lat="50.74413" lon="2.67657">
        <ele>28</ele>
        <time>2018-01-07T20:18:32Z</time>
      </trkpt>
      <trkpt lat="50.74401" lon="2.67698">
        <ele>28</ele>
        <time>2018-01-07T20:19:32Z</time>
      </trkpt>
      <trkpt lat="50.74395" lon="2.67717">
        <ele>28</ele>
        <time>2018-01-07T20:20:32Z</time>
      </trkpt>
      <trkpt lat="50.74375" lon="2.67784">
        <ele>28</ele>
        <time>2018-01-07T20:21:32Z</time>
      </trkpt>
      <trkpt lat="50.74368" lon="2.67811">
        <ele>29</ele>
        <time>2018-01-07T20:22:32Z</time>
      </trkpt>
      <trkpt lat="50.74345" lon="2.67892">
        <ele>29</ele>
        <time>2018-01-07T20:23:32Z</time>
      </trkpt>
      <trkpt lat="50.74321" lon="2.67974">
        <ele>29</ele>
        <time>2018-01-07T20:24:32Z</time>
      </trkpt>
      <trkpt lat="50.74313" lon="2.68001">
        <ele>29</ele>
        <time>2018-01-07T20:25:32Z</time>
      </trkpt>
      <trkpt lat="50.74298" lon="2.68054">
        <ele>30</ele>
        <time>2018-01-07T20:26:32Z</time>
      </trkpt>
      <trkpt lat="50.74296" lon="2.68062">
        <ele>31</ele>
        <time>2018-01-07T20:27:32Z</time>
      </trkpt>
      <trkpt lat="50.74295" lon="2.68064">
        <ele>31</ele>
        <time>2018-01-07T20:28:32Z</time>
      </trkpt>
      <trkpt lat="50.74296" lon="2.68071">
        <ele>31</ele>
        <time>2018-01-07T20:29:32Z</time>
      </trkpt>
      <trkpt lat="50.74288" lon="2.68099">
        <ele>31</ele>
        <time>2018-01-07T20:30:32Z</time>
      </trkpt>
      <trkpt lat="50.74276" lon="2.6814">
        <ele>33</ele>
        <time>2018-01-07T20:31:32Z</time>
      </trkpt>
      <trkpt lat="50.74263" lon="2.68183">
        <ele>34</ele>
        <time>2018-01-07T20:32:32Z</time>
      </trkpt>
      <trkpt lat="50.74253" lon="2.68219">
        <ele>34</ele>
        <time>2018-01-07T20:33:32Z</time>
      </trkpt>
      <trkpt lat="50.74244" lon="2.68251">
        <ele>35</ele>
        <time>2018-01-07T20:34:32Z</time>
      </trkpt>
      <trkpt lat="50.74239" lon="2.68269">
        <ele>36</ele>
        <time>2018-01-07T20:35:32Z</time>
      </trkpt>
      <trkpt lat="50.74232" lon="2.6829">
        <ele>36</ele>
        <time>2018-01-07T20:36:32Z</time>
      </trkpt>
      <trkpt lat="50.74221" lon="2.68331">
        <ele>37</ele>
        <time>2018-01-07T20:37:32Z</time>
      </trkpt>
      <trkpt lat="50.74216" lon="2.68337">
        <ele>37</ele>
        <time>2018-01-07T20:38:32Z</time>
      </trkpt>
      <trkpt lat="50.74212" lon="2.68347">
        <ele>37</ele>
        <time>2018-01-07T20:39:32Z</time>
      </trkpt>
      <trkpt lat="50.74208" lon="2.68357">
        <ele>38</ele>
        <time>2018-01-07T20:40:32Z</time>
      </trkpt>
      <trkpt lat="50.74201" lon="2.68364">
        <ele>38</ele>
        <time>2018-01-07T20:41:32Z</time>
      </trkpt>
      <trkpt lat="50.74196" lon="2.68369">
        <ele>38</ele>
        <time>2018-01-07T20:42:32Z</time>
      </trkpt>
      <trkpt lat="50.74191" lon="2.68372">
        <ele>38</ele>
        <time>2018-01-07T20:43:32Z</time>
      </trkpt>
      <trkpt lat="50.74189" lon="2.68372">
        <ele>38</ele>
        <time>2018-01-07T20:44:32Z</time>
      </trkpt>
      <trkpt lat="50.74186" lon="2.68372">
        <ele>38</ele>
        <time>2018-01-07T20:45:32Z</time>
      </trkpt>
      <trkpt lat="50.74184" lon="2.68373">
        <ele>38</ele>
        <time>2018-01-07T20:46:32Z</time>
      </trkpt>
      <trkpt lat="50.74181" lon="2.68376">
        <ele>39</ele>
        <time>2018-01-07T20:47:32Z</time>
      </trkpt>
      <trkpt lat="50.7418" lon="2.68378">
        <ele>39</ele>
        <time>2018-01-07T20:48:32Z</time>
      </trkpt>
      <trkpt lat="50.74178" lon="2.6838">
        <ele>39</ele>
        <time>2018-01-07T20:49:32Z</time>
      </trkpt>
      <trkpt lat="50.74177" lon="2.68386">
        <ele>39</ele>
        <time>2018-01-07T20:50:32Z</time>
      </trkpt>
      <trkpt lat="50.74176" lon="2.68392">
        <ele>39</ele>
        <time>2018-01-07T20:51:32Z</time>
      </trkpt>
      <trkpt lat="50.74176" lon="2.68406">
        <ele>39</ele>
        <time>2018-01-07T20:52:32Z</time>
      </trkpt>
      <trkpt lat="50.74176" lon="2.68414">
        <ele>39</ele>
        <time>2018-01-07T20:53:32Z</time>
      </trkpt>
      <trkpt lat="50.74175" lon="2.68422">
        <ele>39</ele>
        <time>2018-01-07T20:54:32Z</time>
      </trkpt>
      <trkpt lat="50.74172" lon="2.68434">
        <ele>39</ele>
        <time>2018-01-07T20:55:32Z</time>
      </trkpt>
      <trkpt lat="50.7417" lon="2.68445">
        <ele>39</ele>
        <time>2018-01-07T20:56:32Z</time>
      </trkpt>
      <trkpt lat="50.74167" lon="2.68453">
        <ele>39</ele>
        <time>2018-01-07T20:57:32Z</time>
      </trkpt>
      <trkpt lat="50.74164" lon="2.68464">
        <ele>40</ele>
        <time>2018-01-07T20:58:32Z</time>
      </trkpt>
      <trkpt lat="50.74162" lon="2.68471">
        <ele>40</ele>
        <time>2018-01-07T20:59:32Z</time>
      </trkpt>
      <trkpt lat="50.74159" lon="2.68476">
        <ele>40</ele>
        <time>2018-01-07T21:00:32Z</time>
      </trkpt>
      <trkpt lat="50.74152" lon="2.68484">
        <ele>40</ele>
        <time>2018-01-07T21:01:32Z</time>
      </trkpt>
      <trkpt lat="50.7415" lon="2.68487">
        <ele>40</ele>
        <time>2018-01-07T21:02:32Z</time>
      </trkpt>
      <trkpt lat="50.74148" lon="2.68491">
        <ele>40</ele>
        <time>2018-01-07T21:03:32Z</time>
      </trkpt>
      <trkpt lat="50.74146" lon="2.68496">
        <ele>40</ele>
        <time>2018-01-07T21:04:32Z</time>
      </trkpt>
      <trkpt lat="50.74145" lon="2.68499">
        <ele>40</ele>
        <time>2018-01-07T21:05:32Z</time>
      </trkpt>
      <trkpt lat="50.74144" lon="2.68502">
        <ele>40</ele>
        <time>2018-01-07T21:06:32Z</time>
      </trkpt>
      <trkpt lat="50.74144" lon="2.68506">
        <ele>40</ele>
        <time>2018-01-07T21:07:32Z</time>
      </trkpt>
      <trkpt lat="50.74144" lon="2.68509">
        <ele>40</ele>
        <time>2018-01-07T21:08:32Z</time>
      </trkpt>
      <trkpt lat="50.74144" lon="2.68515">
        <ele>41</ele>
        <time>2018-01-07T21:09:32Z</time>
      </trkpt>
      <trkpt lat="50.74144" lon="2.68518">
        <ele>41</ele>
        <time>2018-01-07T21:10:32Z</time>
      </trkpt>
      <trkpt lat="50.74145" lon="2.6852">
        <ele>41</ele>
        <time>2018-01-07T21:11:32Z</time>
      </trkpt>
      <trkpt lat="50.74147" lon="2.68522">
        <ele>41</ele>
        <time>2018-01-07T21:12:32Z</time>
      </trkpt>
      <trkpt lat="50.74148" lon="2.68524">
        <ele>41</ele>
        <time>2018-01-07T21:13:32Z</time>
      </trkpt>
      <trkpt lat="50.74149" lon="2.68533">
        <ele>41</ele>
        <time>2018-01-07T21:14:32Z</time>
      </trkpt>
      <trkpt lat="50.7415" lon="2.6854">
        <ele>41</ele>
        <time>2018-01-07T21:15:32Z</time>
      </trkpt>
      <trkpt lat="50.7415" lon="2.6855">
        <ele>41</ele>
        <time>2018-01-07T21:16:32Z</time>
      </trkpt>
      <trkpt lat="50.7415" lon="2.68557">
        <ele>41</ele>
        <time>2018-01-07T21:17:32Z</time>
      </trkpt>
      <trkpt lat="50.74148" lon="2.68564">
        <ele>42</ele>
        <time>2018-01-07T21:18:32Z</time>
      </trkpt>
      <trkpt lat="50.74145" lon="2.68579">
        <ele>42</ele>
        <time>2018-01-07T21:19:32Z</time>
      </trkpt>
      <trkpt lat="50.74142" lon="2.68592">
        <ele>42</ele>
        <time>2018-01-07T21:20:32Z</time>
      </trkpt>
      <trkpt lat="50.74141" lon="2.68595">
        <ele>42</ele>
        <time>2018-01-07T21:21:32Z</time>
      </trkpt>
      <trkpt lat="50.74138" lon="2.68606">
        <ele>43</ele>
        <time>2018-01-07T21:22:32Z</time>
      </trkpt>
      <trkpt lat="50.74136" lon="2.68614">
        <ele>43</ele>
        <time>2018-01-07T21:23:32Z</time>
      </trkpt>
      <trkpt lat="50.74135" lon="2.68617">
        <ele>43</ele>
        <time>2018-01-07T21:24:32Z</time>
      </trkpt>
      <trkpt lat="50.7413" lon="2.68635">
        <ele>43</ele>
        <time>2018-01-07T21:25:32Z</time>
      </trkpt>
      <trkpt lat="50.74129" lon="2.68636">
        <ele>43</ele>
        <time>2018-01-07T21:26:32Z</time>
      </trkpt>
      <trkpt lat="50.74123" lon="2.68657">
        <ele>44</ele>
        <time>2018-01-07T21:27:32Z</time>
      </trkpt>
      <trkpt lat="50.74121" lon="2.68666">
        <ele>44</ele>
        <time>2018-01-07T21:28:32Z</time>
      </trkpt>
      <trkpt lat="50.7412" lon="2.68677">
        <ele>44</ele>
        <time>2018-01-07T21:29:32Z</time>
      </trkpt>
      <trkpt lat="50.74115" lon="2.68695">
        <ele>44</ele>
        <time>2018-01-07T21:30:32Z</time>
      </trkpt>
      <trkpt lat="50.74099" lon="2.68749">
        <ele>44</ele>
        <time>2018-01-07T21:31:32Z</time>
      </trkpt>
      <trkpt lat="50.74091" lon="2.68779">
        <ele>44</ele>
        <time>2018-01-07T21:32:32Z</time>
      </trkpt>
      <trkpt lat="50.74087" lon="2.68795">
        <ele>45</ele>
        <time>2018-01-07T21:33:32Z</time>
      </trkpt>
      <trkpt lat="50.74085" lon="2.68804">
        <ele>45</ele>
        <time>2018-01-07T21:34:32Z</time>
      </trkpt>
      <trkpt lat="50.74084" lon="2.68812">
        <ele>45</ele>
        <time>2018-01-07T21:35:32Z</time>
      </trkpt>
      <trkpt lat="50.74083" lon="2.68819">
        <ele>45</ele>
        <time>2018-01-07T21:36:32Z</time>
      </trkpt>
      <trkpt lat="50.74081" lon="2.68838">
        <ele>45</ele>
        <time>2018-01-07T21:37:32Z</time>
      </trkpt>
      <trkpt lat="50.7408" lon="2.68857">
        <ele>45</ele>
        <time>2018-01-07T21:38:32Z</time>
      </trkpt>
      <trkpt lat="50.74079" lon="2.68893">
        <ele>46</ele>
        <time>2018-01-07T21:39:32Z</time>
      </trkpt>
      <trkpt lat="50.74078" lon="2.68932">
        <ele>46</ele>
        <time>2018-01-07T21:40:32Z</time>
      </trkpt>
      <trkpt lat="50.74076" lon="2.68942">
        <ele>46</ele>
        <time>2018-01-07T21:41:32Z</time>
      </trkpt>
      <trkpt lat="50.74075" lon="2.68944">
        <ele>46</ele>
        <time>2018-01-07T21:42:32Z</time>
      </trkpt>
      <trkpt lat="50.74074" lon="2.6897">
        <ele>46</ele>
        <time>2018-01-07T21:43:32Z</time>
      </trkpt>
      <trkpt lat="50.74072" lon="2.69021">
        <ele>47</ele>
        <time>2018-01-07T21:44:32Z</time>
      </trkpt>
      <trkpt lat="50.7407" lon="2.6908">
        <ele>48</ele>
        <time>2018-01-07T21:45:32Z</time>
      </trkpt>
      <trkpt lat="50.7407" lon="2.691">
        <ele>49</ele>
        <time>2018-01-07T21:46:32Z</time>
      </trkpt>
      <trkpt lat="50.74066" lon="2.69168">
        <ele>50</ele>
        <time>2018-01-07T21:47:32Z</time>
      </trkpt>
      <trkpt lat="50.74063" lon="2.69192">
        <ele>51</ele>
        <time>2018-01-07T21:48:32Z</time>
      </trkpt>
      <trkpt lat="50.74058" lon="2.6923">
        <ele>51</ele>
        <time>2018-01-07T21:49:32Z</time>
      </trkpt>
      <trkpt lat="50.74056" lon="2.69242">
        <ele>51</ele>
        <time>2018-01-07T21:50:32Z</time>
      </trkpt>
      <trkpt lat="50.74056" lon="2.69257">
        <ele>51</ele>
        <time>2018-01-07T21:51:32Z</time>
      </trkpt>
      <trkpt lat="50.74054" lon="2.69271">
        <ele>51</ele>
        <time>2018-01-07T21:52:32Z</time>
      </trkpt>
      <trkpt lat="50.7405" lon="2.69292">
        <ele>51</ele>
        <time>2018-01-07T21:53:32Z</time>
      </trkpt>
      <trkpt lat="50.74042" lon="2.69341">
        <ele>52</ele>
        <time>2018-01-07T21:54:32Z</time>
      </trkpt>
      <trkpt lat="50.74032" lon="2.69402">
        <ele>52</ele>
        <time>2018-01-07T21:55:32Z</time>
      </trkpt>
      <trkpt lat="50.74023" lon="2.69462">
        <ele>53</ele>
        <time>2018-01-07T21:56:32Z</time>
      </trkpt>
      <trkpt lat="50.74017" lon="2.69493">
        <ele>53</ele>
        <time>2018-01-07T21:57:32Z</time>
      </trkpt>
      <trkpt lat="50.74014" lon="2.69511">
        <ele>53</ele>
        <time>2018-01-07T21:58:32Z</time>
      </trkpt>
      <trkpt lat="50.74008" lon="2.69547">
        <ele>53</ele>
        <time>2018-01-07T21:59:32Z</time>
      </trkpt>
      <trkpt lat="50.7399" lon="2.69654">
        <ele>51</ele>
        <time>2018-01-07T22:00:32Z</time>
      </trkpt>
      <trkpt lat="50.73979" lon="2.69727">
        <ele>50</ele>
        <time>2018-01-07T22:01:32Z</time>
      </trkpt>
      <trkpt lat="50.73976" lon="2.69756">
        <ele>49</ele>
        <time>2018-01-07T22:02:32Z</time>
      </trkpt>
      <trkpt lat="50.73973" lon="2.69779">
        <ele>48</ele>
        <time>2018-01-07T22:03:32Z</time>
      </trkpt>
      <trkpt lat="50.73972" lon="2.69806">
        <ele>48</ele>
        <time>2018-01-07T22:04:32Z</time>
      </trkpt>
      <trkpt lat="50.73971" lon="2.69827">
        <ele>47</ele>
        <time>2018-01-07T22:05:32Z</time>
      </trkpt>
      <trkpt lat="50.7397" lon="2.69847">
        <ele>47</ele>
        <time>2018-01-07T22:06:32Z</time>
      </trkpt>
      <trkpt lat="50.73969" lon="2.69892">
        <ele>46</ele>
        <time>2018-01-07T22:07:32Z</time>
      </trkpt>
      <trkpt lat="50.73964" lon="2.69999">
        <ele>44</ele>
        <time>2018-01-07T22:08:32Z</time>
      </trkpt>
      <trkpt lat="50.73959" lon="2.7014">
        <ele>40</ele>
        <time>2018-01-07T22:09:32Z</time>
      </trkpt>
      <trkpt lat="50.73952" lon="2.70318">
        <ele>36</ele>
        <time>2018-01-07T22:10:32Z</time>
      </trkpt>
      <trkpt lat="50.73948" lon="2.70419">
        <ele>34</ele>
        <time>2018-01-07T22:11:32Z</time>
      </trkpt>
      <trkpt lat="50.73942" lon="2.70579">
        <ele>32</ele>
        <time>2018-01-07T22:12:32Z</time>
      </trkpt>
      <trkpt lat="50.73941" lon="2.70604">
        <ele>32</ele>
        <time>2018-01-07T22:13:32Z</time>
      </trkpt>
      <trkpt lat="50.73934" lon="2.70764">
        <ele>31</ele>
        <time>2018-01-07T22:14:32Z</time>
      </trkpt>
      <trkpt lat="50.7393" lon="2.70867">
        <ele>30</ele>
        <time>2018-01-07T22:15:32Z</time>
      </trkpt>
      <trkpt lat="50.73924" lon="2.71038">
        <ele>29</ele>
        <time>2018-01-07T22:16:32Z</time>
      </trkpt>
      <trkpt lat="50.73922" lon="2.71065">
        <ele>29</ele>
        <time>2018-01-07T22:17:32Z</time>
      </trkpt>
      <trkpt lat="50.73921" lon="2.71104">
        <ele>29</ele>
        <time>2018-01-07T22:18:32Z</time>
      </trkpt>
      <trkpt lat="50.73918" lon="2.71161">
        <ele>28</ele>
        <time>2018-01-07T22:19:32Z</time>
      </trkpt>
      <trkpt lat="50.73914" lon="2.71267">
        <ele>27</ele>
        <time>2018-01-07T22:20:32Z</time>
      </trkpt>
      <trkpt lat="50.73912" lon="2.71326">
        <ele>25</ele>
        <time>2018-01-07T22:21:32Z</time>
      </trkpt>
      <trkpt lat="50.73909" lon="2.71404">
        <ele>25</ele>
        <time>2018-01-07T22:22:32Z</time>
      </trkpt>
      <trkpt lat="50.73906" lon="2.71479">
        <ele>24</ele>
        <time>2018-01-07T22:23:32Z</time>
      </trkpt>
      <trkpt lat="50.73901" lon="2.71589">
        <ele>24</ele>
        <time>2018-01-07T22:24:32Z</time>
      </trkpt>
      <trkpt lat="50.739" lon="2.7163">
        <ele>24</ele>
        <time>2018-01-07T22:25:32Z</time>
      </trkpt>
      <trkpt lat="50.73898" lon="2.71681">
        <ele>24</ele>
        <time>2018-01-07T22:26:32Z</time>
      </trkpt>
      <trkpt lat="50.73892" lon="2.71836">
        <ele>23</ele>
        <time>2018-01-07T22:27:32Z</time>
      </trkpt>
      <trkpt lat="50.7389" lon="2.7189">
        <ele>23</ele>
        <time>2018-01-07T22:28:32Z</time>
      </trkpt>
      <trkpt lat="50.73885" lon="2.71997">
        <ele>22</ele>
        <time>2018-01-07T22:29:32Z</time>
      </trkpt>
      <trkpt lat="50.73883" lon="2.72057">
        <ele>22</ele>
        <time>2018-01-07T22:30:32Z</time>
      </trkpt>
      <trkpt lat="50.73873" lon="2.72288">
        <ele>23</ele>
        <time>2018-01-07T22:31:32Z</time>
      </trkpt>
      <trkpt lat="50.73873" lon="2.72297">
        <ele>23</ele>
        <time>2018-01-07T22:32:32Z</time>
      </trkpt>
      <trkpt lat="50.73873" lon="2.72308">
        <ele>23</ele>
        <time>2018-01-07T22:33:32Z</time>
      </trkpt>
      <trkpt lat="50.73872" lon="2.72314">
        <ele>23</ele>
        <time>2018-01-07T22:34:32Z</time>
      </trkpt>
      <trkpt lat="50.73872" lon="2.72321">
        <ele>23</ele>
        <time>2018-01-07T22:35:32Z</time>
      </trkpt>
      <trkpt lat="50.7387" lon="2.7238">
        <ele>23</ele>
        <time>2018-01-07T22:36:32Z</time>
      </trkpt>
      <trkpt lat="50.73869" lon="2.72408">
        <ele>23</ele>
        <time>2018-01-07T22:37:32Z</time>
      </trkpt>
      <trkpt lat="50.73868" lon="2.72441">
        <ele>24</ele>
        <time>2018-01-07T22:38:32Z</time>
      </trkpt>
      <trkpt lat="50.73865" lon="2.72491">
        <ele>25</ele>
        <time>2018-01-07T22:39:32Z</time>
      </trkpt>
      <trkpt lat="50.73864" lon="2.7253">
        <ele>25</ele>
        <time>2018-01-07T22:40:32Z</time>
      </trkpt>
      <trkpt lat="50.73864" lon="2.7253">
        <ele>25</ele>
        <time>2018-01-07T22:41:32Z</time>
      </trkpt>
      <trkpt lat="50.73867" lon="2.72552">
        <ele>26</ele>
        <time>2018-01-07T22:42:32Z</time>
      </trkpt>
      <trkpt lat="50.73864" lon="2.72623">
        <ele>27</ele>
        <time>2018-01-07T22:43:32Z</time>
      </trkpt>
      <trkpt lat="50.73861" lon="2.72696">
        <ele>29</ele>
        <time>2018-01-07T22:44:32Z</time>
      </trkpt>
      <trkpt lat="50.73859" lon="2.72731">
        <ele>30</ele>
        <time>2018-01-07T22:45:32Z</time>
      </trkpt>
      <trkpt lat="50.73858" lon="2.72755">
        <ele>31</ele>
        <time>2018-01-07T22:46:32Z</time>
      </trkpt>
      <trkpt lat="50.73857" lon="2.72794">
        <ele>33</ele>
        <time>2018-01-07T22:47:32Z</time>
      </trkpt>
      <trkpt lat="50.73851" lon="2.72864">
        <ele>35</ele>
        <time>2018-01-07T22:48:32Z</time>
      </trkpt>
      <trkpt lat="50.73845" lon="2.72879">
        <ele>36</ele>
        <time>2018-01-07T22:49:32Z</time>
      </trkpt>
      <trkpt lat="50.73843" lon="2.72894">
        <ele>36</ele>
        <time>2018-01-07T22:50:32Z</time>
      </trkpt>
      <trkpt lat="50.73833" lon="2.72943">
        <ele>38</ele>
        <time>2018-01-07T22:51:32Z</time>
      </trkpt>
      <trkpt lat="50.73802" lon="2.73084">
        <ele>41</ele>
        <time>2018-01-07T22:52:32Z</time>
      </trkpt>
      <trkpt lat="50.73799" lon="2.73098">
        <ele>42</ele>
        <time>2018-01-07T22:53:32Z</time>
      </trkpt>
      <trkpt lat="50.73797" lon="2.73106">
        <ele>42</ele>
        <time>2018-01-07T22:54:32Z</time>
      </trkpt>
      <trkpt lat="50.73796" lon="2.73113">
        <ele>42</ele>
        <time>2018-01-07T22:55:32Z</time>
      </trkpt>
      <trkpt lat="50.73795" lon="2.73125">
        <ele>42</ele>
        <time>2018-01-07T22:56:32Z</time>
      </trkpt>
      <trkpt lat="50.73795" lon="2.73125">
        <ele>42</ele>
        <time>2018-01-07T22:57:32Z</time>
      </trkpt>
      <trkpt lat="50.73794" lon="2.73125">
        <ele>42</ele>
        <time>2018-01-07T22:58:32Z</time>
      </trkpt>
      <trkpt lat="50.73793" lon="2.73125">
        <ele>42</ele>
        <time>2018-01-07T22:59:32Z</time>
      </trkpt>
      <trkpt lat="50.73792" lon="2.73125">
        <ele>42</ele>
        <time>2018-01-07T23:00:32Z</time>
      </trkpt>
      <trkpt lat="50.73791" lon="2.73126">
        <ele>42</ele>
        <time>2018-01-07T23:01:32Z</time>
      </trkpt>
      <trkpt lat="50.7379" lon="2.73126">
        <ele>42</ele>
        <time>2018-01-07T23:02:32Z</time>
      </trkpt>
      <trkpt lat="50.73789" lon="2.73126">
        <ele>42</ele>
        <time>2018-01-07T23:03:32Z</time>
      </trkpt>
      <trkpt lat="50.73789" lon="2.73127">
        <ele>42</ele>
        <time>2018-01-07T23:04:32Z</time>
      </trkpt>
      <trkpt lat="50.73788" lon="2.73127">
        <ele>42</ele>
        <time>2018-01-07T23:05:32Z</time>
      </trkpt>
      <trkpt lat="50.73787" lon="2.73128">
        <ele>42</ele>
        <time>2018-01-07T23:06:32Z</time>
      </trkpt>
      <trkpt lat="50.73786" lon="2.73129">
        <ele>42</ele>
        <time>2018-01-07T23:07:32Z</time>
      </trkpt>
      <trkpt lat="50.73785" lon="2.7313">
        <ele>42</ele>
        <time>2018-01-07T23:08:32Z</time>
      </trkpt>
      <trkpt lat="50.73785" lon="2.73131">
        <ele>42</ele>
        <time>2018-01-07T23:09:32Z</time>
      </trkpt>
      <trkpt lat="50.73784" lon="2.73131">
        <ele>42</ele>
        <time>2018-01-07T23:10:32Z</time>
      </trkpt>
      <trkpt lat="50.73784" lon="2.73132">
        <ele>42</ele>
        <time>2018-01-07T23:11:32Z</time>
      </trkpt>
      <trkpt lat="50.73783" lon="2.73134">
        <ele>42</ele>
        <time>2018-01-07T23:12:32Z</time>
      </trkpt>
      <trkpt lat="50.73783" lon="2.73135">
        <ele>42</ele>
        <time>2018-01-07T23:13:32Z</time>
      </trkpt>
      <trkpt lat="50.73783" lon="2.73136">
        <ele>42</ele>
        <time>2018-01-07T23:14:32Z</time>
      </trkpt>
      <trkpt lat="50.73782" lon="2.73137">
        <ele>42</ele>
        <time>2018-01-07T23:15:32Z</time>
      </trkpt>
      <trkpt lat="50.73782" lon="2.73138">
        <ele>42</ele>
        <time>2018-01-07T23:16:32Z</time>
      </trkpt>
      <trkpt lat="50.73782" lon="2.73139">
        <ele>42</ele>
        <time>2018-01-07T23:17:32Z</time>
      </trkpt>
      <trkpt lat="50.73782" lon="2.7314">
        <ele>42</ele>
        <time>2018-01-07T23:18:32Z</time>
      </trkpt>
      <trkpt lat="50.73782" lon="2.73142">
        <ele>42</ele>
        <time>2018-01-07T23:19:32Z</time>
      </trkpt>
      <trkpt lat="50.73782" lon="2.73143">
        <ele>42</ele>
        <time>2018-01-07T23:20:32Z</time>
      </trkpt>
      <trkpt lat="50.73782" lon="2.73144">
        <ele>42</ele>
        <time>2018-01-07T23:21:32Z</time>
      </trkpt>
      <trkpt lat="50.73782" lon="2.73145">
        <ele>42</ele>
        <time>2018-01-07T23:22:32Z</time>
      </trkpt>
      <trkpt lat="50.73782" lon="2.73146">
        <ele>42</ele>
        <time>2018-01-07T23:23:32Z</time>
      </trkpt>
      <trkpt lat="50.73782" lon="2.73148">
        <ele>42</ele>
        <time>2018-01-07T23:24:32Z</time>
      </trkpt>
      <trkpt lat="50.73782" lon="2.73149">
        <ele>42</ele>
        <time>2018-01-07T23:25:32Z</time>
      </trkpt>
      <trkpt lat="50.73782" lon="2.7315">
        <ele>42</ele>
        <time>2018-01-07T23:26:32Z</time>
      </trkpt>
      <trkpt lat="50.73782" lon="2.73151">
        <ele>42</ele>
        <time>2018-01-07T23:27:32Z</time>
      </trkpt>
      <trkpt lat="50.73783" lon="2.73152">
        <ele>42</ele>
        <time>2018-01-07T23:28:32Z</time>
      </trkpt>
      <trkpt lat="50.73783" lon="2.73153">
        <ele>42</ele>
        <time>2018-01-07T23:29:32Z</time>
      </trkpt>
      <trkpt lat="50.73783" lon="2.73154">
        <ele>42</ele>
        <time>2018-01-07T23:30:32Z</time>
      </trkpt>
      <trkpt lat="50.73784" lon="2.73155">
        <ele>42</ele>
        <time>2018-01-07T23:31:32Z</time>
      </trkpt>
      <trkpt lat="50.73784" lon="2.73156">
        <ele>42</ele>
        <time>2018-01-07T23:32:32Z</time>
      </trkpt>
      <trkpt lat="50.73785" lon="2.73157">
        <ele>42</ele>
        <time>2018-01-07T23:33:32Z</time>
      </trkpt>
      <trkpt lat="50.73785" lon="2.73158">
        <ele>42</ele>
        <time>2018-01-07T23:34:32Z</time>
      </trkpt>
      <trkpt lat="50.73786" lon="2.73158">
        <ele>42</ele>
        <time>2018-01-07T23:35:32Z</time>
      </trkpt>
      <trkpt lat="50.73786" lon="2.73159">
        <ele>42</ele>
        <time>2018-01-07T23:36:32Z</time>
      </trkpt>
      <trkpt lat="50.73787" lon="2.73159">
        <ele>42</ele>
        <time>2018-01-07T23:37:32Z</time>
      </trkpt>
      <trkpt lat="50.73787" lon="2.7316">
        <ele>42</ele>
        <time>2018-01-07T23:38:32Z</time>
      </trkpt>
      <trkpt lat="50.73788" lon="2.7316">
        <ele>42</ele>
        <time>2018-01-07T23:39:32Z</time>
      </trkpt>
      <trkpt lat="50.73788" lon="2.73161">
        <ele>42</ele>
        <time>2018-01-07T23:40:32Z</time>
      </trkpt>
      <trkpt lat="50.73789" lon="2.73161">
        <ele>42</ele>
        <time>2018-01-07T23:41:32Z</time>
      </trkpt>
      <trkpt lat="50.7379" lon="2.73162">
        <ele>42</ele>
        <time>2018-01-07T23:42:32Z</time>
      </trkpt>
      <trkpt lat="50.73791" lon="2.73162">
        <ele>42</ele>
        <time>2018-01-07T23:43:32Z</time>
      </trkpt>
      <trkpt lat="50.73792" lon="2.73162">
        <ele>42</ele>
        <time>2018-01-07T23:44:32Z</time>
      </trkpt>
      <trkpt lat="50.73793" lon="2.73162">
        <ele>42</ele>
        <time>2018-01-07T23:45:32Z</time>
      </trkpt>
      <trkpt lat="50.73794" lon="2.73162">
        <ele>42</ele>
        <time>2018-01-07T23:46:32Z</time>
      </trkpt>
      <trkpt lat="50.73795" lon="2.73162">
        <ele>42</ele>
        <time>2018-01-07T23:47:32Z</time>
      </trkpt>
      <trkpt lat="50.73796" lon="2.73161">
        <ele>42</ele>
        <time>2018-01-07T23:48:32Z</time>
      </trkpt>
      <trkpt lat="50.73797" lon="2.73161">
        <ele>42</ele>
        <time>2018-01-07T23:49:32Z</time>
      </trkpt>
      <trkpt lat="50.73797" lon="2.7316">
        <ele>42</ele>
        <time>2018-01-07T23:50:32Z</time>
      </trkpt>
      <trkpt lat="50.73798" lon="2.7316">
        <ele>42</ele>
        <time>2018-01-07T23:51:32Z</time>
      </trkpt>
      <trkpt lat="50.73799" lon="2.73159">
        <ele>42</ele>
        <time>2018-01-07T23:52:32Z</time>
      </trkpt>
      <trkpt lat="50.73811" lon="2.73168">
        <ele>43</ele>
        <time>2018-01-07T23:53:32Z</time>
      </trkpt>
      <trkpt lat="50.73816" lon="2.73172">
        <ele>43</ele>
        <time>2018-01-07T23:54:32Z</time>
      </trkpt>
      <trkpt lat="50.73819" lon="2.73178">
        <ele>43</ele>
        <time>2018-01-07T23:55:32Z</time>
      </trkpt>
      <trkpt lat="50.73827" lon="2.7319">
        <ele>43</ele>
        <time>2018-01-07T23:56:32Z</time>
      </trkpt>
      <trkpt lat="50.73834" lon="2.73196">
        <ele>43</ele>
        <time>2018-01-07T23:57:32Z</time>
      </trkpt>
      <trkpt lat="50.73882" lon="2.7329">
        <ele>45</ele>
        <time>2018-01-07T23:58:32Z</time>
      </trkpt>
      <trkpt lat="50.73894" lon="2.73318">
        <ele>46</ele>
        <time>2018-01-07T23:59:32Z</time>
      </trkpt>
      <trkpt lat="50.73901" lon="2.73341">
        <ele>46</ele>
        <time>2018-01-08T00:00:32Z</time>
      </trkpt>
      <trkpt lat="50.73906" lon="2.73354">
        <ele>46</ele>
        <time>2018-01-08T00:01:32Z</time>
      </trkpt>
      <trkpt lat="50.7391" lon="2.73364">
        <ele>46</ele>
        <time>2018-01-08T00:02:32Z</time>
      </trkpt>
      <trkpt lat="50.73931" lon="2.73422">
        <ele>46</ele>
        <time>2018-01-08T00:03:32Z</time>
      </trkpt>
      <trkpt lat="50.73939" lon="2.73444">
        <ele>46</ele>
        <time>2018-01-08T00:04:32Z</time>
      </trkpt>
      <trkpt lat="50.73941" lon="2.73453">
        <ele>46</ele>
        <time>2018-01-08T00:05:32Z</time>
      </trkpt>
      <trkpt lat="50.73946" lon="2.73469">
        <ele>46</ele>
        <time>2018-01-08T00:06:32Z</time>
      </trkpt>
      <trkpt lat="50.7395" lon="2.73484">
        <ele>46</ele>
        <time>2018-01-08T00:07:32Z</time>
      </trkpt>
      <trkpt lat="50.73953" lon="2.73496">
        <ele>46</ele>
        <time>2018-01-08T00:08:32Z</time>
      </trkpt>
      <trkpt lat="50.73953" lon="2.73502">
        <ele>46</ele>
        <time>2018-01-08T00:09:32Z</time>
      </trkpt>
      <trkpt lat="50.73953" lon="2.73507">
        <ele>46</ele>
        <time>2018-01-08T00:10:32Z</time>
      </trkpt>
      <trkpt lat="50.73953" lon="2.73517">
        <ele>46</ele>
        <time>2018-01-08T00:11:32Z</time>
      </trkpt>
      <trkpt lat="50.73952" lon="2.73528">
        <ele>46</ele>
        <time>2018-01-08T00:12:32Z</time>
      </trkpt>
      <trkpt lat="50.73949" lon="2.73539">
        <ele>46</ele>
        <time>2018-01-08T00:13:32Z</time>
      </trkpt>
      <trkpt lat="50.73942" lon="2.73558">
        <ele>45</ele>
        <time>2018-01-08T00:14:32Z</time>
      </trkpt>
      <trkpt lat="50.73932" lon="2.73574">
        <ele>45</ele>
        <time>2018-01-08T00:15:32Z</time>
      </trkpt>
      <trkpt lat="50.73924" lon="2.73585">
        <ele>45</ele>
        <time>2018-01-08T00:16:32Z</time>
      </trkpt>
      <trkpt lat="50.73908" lon="2.73605">
        <ele>44</ele>
        <time>2018-01-08T00:17:32Z</time>
      </trkpt>
      <trkpt lat="50.73891" lon="2.73625">
        <ele>44</ele>
        <time>2018-01-08T00:18:32Z</time>
      </trkpt>
      <trkpt lat="50.73859" lon="2.73667">
        <ele>42</ele>
        <time>2018-01-08T00:19:32Z</time>
      </trkpt>
      <trkpt lat="50.73823" lon="2.73718">
        <ele>40</ele>
        <time>2018-01-08T00:20:32Z</time>
      </trkpt>
      <trkpt lat="50.73781" lon="2.73775">
        <ele>38</ele>
        <time>2018-01-08T00:21:32Z</time>
      </trkpt>
      <trkpt lat="50.73772" lon="2.73787">
        <ele>38</ele>
        <time>2018-01-08T00:22:32Z</time>
      </trkpt>
      <trkpt lat="50.73759" lon="2.73803">
        <ele>38</ele>
        <time>2018-01-08T00:23:32Z</time>
      </trkpt>
      <trkpt lat="50.73736" lon="2.73835">
        <ele>37</ele>
        <time>2018-01-08T00:24:32Z</time>
      </trkpt>
      <trkpt lat="50.73677" lon="2.73917">
        <ele>34</ele>
        <time>2018-01-08T00:25:32Z</time>
      </trkpt>
      <trkpt lat="50.73605" lon="2.74016">
        <ele>30</ele>
        <time>2018-01-08T00:26:32Z</time>
      </trkpt>
      <trkpt lat="50.73577" lon="2.74054">
        <ele>29</ele>
        <time>2018-01-08T00:27:32Z</time>
      </trkpt>
      <trkpt lat="50.73546" lon="2.74093">
        <ele>28</ele>
        <time>2018-01-08T00:28:32Z</time>
      </trkpt>
      <trkpt lat="50.73521" lon="2.74126">
        <ele>27</ele>
        <time>2018-01-08T00:29:32Z</time>
      </trkpt>
      <trkpt lat="50.73486" lon="2.74171">
        <ele>26</ele>
        <time>2018-01-08T00:30:32Z</time>
      </trkpt>
      <trkpt lat="50.7346" lon="2.74205">
        <ele>26</ele>
        <time>2018-01-08T00:31:32Z</time>
      </trkpt>
      <trkpt lat="50.73433" lon="2.74239">
        <ele>25</ele>
        <time>2018-01-08T00:32:32Z</time>
      </trkpt>
      <trkpt lat="50.73426" lon="2.74248">
        <ele>25</ele>
        <time>2018-01-08T00:33:32Z</time>
      </trkpt>
      <trkpt lat="50.73421" lon="2.74255">
        <ele>25</ele>
        <time>2018-01-08T00:34:32Z</time>
      </trkpt>
      <trkpt lat="50.73415" lon="2.74262">
        <ele>25</ele>
        <time>2018-01-08T00:35:32Z</time>
      </trkpt>
      <trkpt lat="50.73396" lon="2.74286">
        <ele>24</ele>
        <time>2018-01-08T00:36:32Z</time>
      </trkpt>
      <trkpt lat="50.73383" lon="2.74302">
        <ele>24</ele>
        <time>2018-01-08T00:37:32Z</time>
      </trkpt>
      <trkpt lat="50.7336" lon="2.7433">
        <ele>23</ele>
        <time>2018-01-08T00:38:32Z</time>
      </trkpt>
      <trkpt lat="50.73329" lon="2.74367">
        <ele>23</ele>
        <time>2018-01-08T00:39:32Z</time>
      </trkpt>
      <trkpt lat="50.73301" lon="2.74402">
        <ele>22</ele>
        <time>2018-01-08T00:40:32Z</time>
      </trkpt>
      <trkpt lat="50.73285" lon="2.74422">
        <ele>22</ele>
        <time>2018-01-08T00:41:32Z</time>
      </trkpt>
      <trkpt lat="50.73273" lon="2.74436">
        <ele>22</ele>
        <time>2018-01-08T00:42:32Z</time>
      </trkpt>
      <trkpt lat="50.73264" lon="2.74447">
        <ele>21</ele>
        <time>2018-01-08T00:43:32Z</time>
      </trkpt>
      <trkpt lat="50.73246" lon="2.7447">
        <ele>21</ele>
        <time>2018-01-08T00:44:32Z</time>
      </trkpt>
      <trkpt lat="50.73229" lon="2.74491">
        <ele>21</ele>
        <time>2018-01-08T00:45:32Z</time>
      </trkpt>
      <trkpt lat="50.73224" lon="2.74495">
        <ele>21</ele>
        <time>2018-01-08T00:46:32Z</time>
      </trkpt>
      <trkpt lat="50.73214" lon="2.74502">
        <ele>21</ele>
        <time>2018-01-08T00:47:32Z</time>
      </trkpt>
      <trkpt lat="50.732" lon="2.74519">
        <ele>20</ele>
        <time>2018-01-08T00:48:32Z</time>
      </trkpt>
      <trkpt lat="50.73188" lon="2.74534">
        <ele>20</ele>
        <time>2018-01-08T00:49:32Z</time>
      </trkpt>
      <trkpt lat="50.73164" lon="2.74564">
        <ele>20</ele>
        <time>2018-01-08T00:50:32Z</time>
      </trkpt>
      <trkpt lat="50.73124" lon="2.74618">
        <ele>20</ele>
        <time>2018-01-08T00:51:32Z</time>
      </trkpt>
      <trkpt lat="50.73104" lon="2.74643">
        <ele>20</ele>
        <time>2018-01-08T00:52:32Z</time>
      </trkpt>
      <trkpt lat="50.73095" lon="2.74653">
        <ele>20</ele>
        <time>2018-01-08T00:53:32Z</time>
      </trkpt>
      <trkpt lat="50.73086" lon="2.7466">
        <ele>20</ele>
        <time>2018-01-08T00:54:32Z</time>
      </trkpt>
      <trkpt lat="50.73075" lon="2.74668">
        <ele>20</ele>
        <time>2018-01-08T00:55:32Z</time>
      </trkpt>
      <trkpt lat="50.73056" lon="2.74681">
        <ele>20</ele>
        <time>2018-01-08T00:56:32Z</time>
      </trkpt>
      <trkpt lat="50.73054" lon="2.74682">
        <ele>20</ele>
        <time>2018-01-08T00:57:32Z</time>
      </trkpt>
      <trkpt lat="50.73052" lon="2.74683">
        <ele>20</ele>
        <time>2018-01-08T00:58:32Z</time>
      </trkpt>
      <trkpt lat="50.7305" lon="2.74684">
        <ele>20</ele>
        <time>2018-01-08T00:59:32Z</time>
      </trkpt>
      <trkpt lat="50.73047" lon="2.74684">
        <ele>20</ele>
        <time>2018-01-08T01:00:32Z</time>
      </trkpt>
      <trkpt lat="50.73041" lon="2.74685">
        <ele>20</ele>
        <time>2018-01-08T01:01:32Z</time>
      </trkpt>
      <trkpt lat="50.7304" lon="2.74684">
        <ele>20</ele>
        <time>2018-01-08T01:02:32Z</time>
      </trkpt>
      <trkpt lat="50.73039" lon="2.74683">
        <ele>20</ele>
        <time>2018-01-08T01:03:32Z</time>
      </trkpt>
      <trkpt lat="50.73038" lon="2.74683">
        <ele>20</ele>
        <time>2018-01-08T01:04:32Z</time>
      </trkpt>
      <trkpt lat="50.73038" lon="2.74682">
        <ele>20</ele>
        <time>2018-01-08T01:05:32Z</time>
      </trkpt>
      <trkpt lat="50.73036" lon="2.74682">
        <ele>20</ele>
        <time>2018-01-08T01:06:32Z</time>
      </trkpt>
      <trkpt lat="50.73035" lon="2.74681">
        <ele>20</ele>
        <time>2018-01-08T01:07:32Z</time>
      </trkpt>
      <trkpt lat="50.73034" lon="2.74681">
        <ele>20</ele>
        <time>2018-01-08T01:08:32Z</time>
      </trkpt>
      <trkpt lat="50.73032" lon="2.7468">
        <ele>20</ele>
        <time>2018-01-08T01:09:32Z</time>
      </trkpt>
      <trkpt lat="50.73031" lon="2.7468">
        <ele>20</ele>
        <time>2018-01-08T01:10:32Z</time>
      </trkpt>
      <trkpt lat="50.7303" lon="2.7468">
        <ele>20</ele>
        <time>2018-01-08T01:11:32Z</time>
      </trkpt>
      <trkpt lat="50.73028" lon="2.7468">
        <ele>20</ele>
        <time>2018-01-08T01:12:32Z</time>
      </trkpt>
      <trkpt lat="50.73027" lon="2.7468">
        <ele>20</ele>
        <time>2018-01-08T01:13:32Z</time>
      </trkpt>
      <trkpt lat="50.73026" lon="2.7468">
        <ele>20</ele>
        <time>2018-01-08T01:14:32Z</time>
      </trkpt>
      <trkpt lat="50.73026" lon="2.74681">
        <ele>20</ele>
        <time>2018-01-08T01:15:32Z</time>
      </trkpt>
      <trkpt lat="50.73025" lon="2.74681">
        <ele>20</ele>
        <time>2018-01-08T01:16:32Z</time>
      </trkpt>
      <trkpt lat="50.73024" lon="2.74681">
        <ele>20</ele>
        <time>2018-01-08T01:17:32Z</time>
      </trkpt>
      <trkpt lat="50.73023" lon="2.74682">
        <ele>20</ele>
        <time>2018-01-08T01:18:32Z</time>
      </trkpt>
      <trkpt lat="50.73021" lon="2.74683">
        <ele>20</ele>
        <time>2018-01-08T01:19:32Z</time>
      </trkpt>
      <trkpt lat="50.7302" lon="2.74684">
        <ele>20</ele>
        <time>2018-01-08T01:20:32Z</time>
      </trkpt>
      <trkpt lat="50.73019" lon="2.74685">
        <ele>20</ele>
        <time>2018-01-08T01:21:32Z</time>
      </trkpt>
      <trkpt lat="50.73018" lon="2.74686">
        <ele>20</ele>
        <time>2018-01-08T01:22:32Z</time>
      </trkpt>
      <trkpt lat="50.73017" lon="2.74687">
        <ele>20</ele>
        <time>2018-01-08T01:23:32Z</time>
      </trkpt>
      <trkpt lat="50.73016" lon="2.74689">
        <ele>20</ele>
        <time>2018-01-08T01:24:32Z</time>
      </trkpt>
      <trkpt lat="50.73015" lon="2.7469">
        <ele>20</ele>
        <time>2018-01-08T01:25:32Z</time>
      </trkpt>
      <trkpt lat="50.73014" lon="2.74692">
        <ele>20</ele>
        <time>2018-01-08T01:26:32Z</time>
      </trkpt>
      <trkpt lat="50.73013" lon="2.74694">
        <ele>20</ele>
        <time>2018-01-08T01:27:32Z</time>
      </trkpt>
      <trkpt lat="50.73013" lon="2.74696">
        <ele>20</ele>
        <time>2018-01-08T01:28:32Z</time>
      </trkpt>
      <trkpt lat="50.73012" lon="2.74698">
        <ele>20</ele>
        <time>2018-01-08T01:29:32Z</time>
      </trkpt>
      <trkpt lat="50.73012" lon="2.747">
        <ele>20</ele>
        <time>2018-01-08T01:30:32Z</time>
      </trkpt>
      <trkpt lat="50.73012" lon="2.74702">
        <ele>20</ele>
        <time>2018-01-08T01:31:32Z</time>
      </trkpt>
      <trkpt lat="50.73011" lon="2.74704">
        <ele>20</ele>
        <time>2018-01-08T01:32:32Z</time>
      </trkpt>
      <trkpt lat="50.73011" lon="2.74706">
        <ele>20</ele>
        <time>2018-01-08T01:33:32Z</time>
      </trkpt>
      <trkpt lat="50.73011" lon="2.74708">
        <ele>20</ele>
        <time>2018-01-08T01:34:32Z</time>
      </trkpt>
      <trkpt lat="50.73011" lon="2.7471">
        <ele>20</ele>
        <time>2018-01-08T01:35:32Z</time>
      </trkpt>
      <trkpt lat="50.73011" lon="2.74712">
        <ele>20</ele>
        <time>2018-01-08T01:36:32Z</time>
      </trkpt>
      <trkpt lat="50.73012" lon="2.74714">
        <ele>20</ele>
        <time>2018-01-08T01:37:32Z</time>
      </trkpt>
      <trkpt lat="50.73012" lon="2.74715">
        <ele>20</ele>
        <time>2018-01-08T01:38:32Z</time>
      </trkpt>
      <trkpt lat="50.73012" lon="2.74717">
        <ele>20</ele>
        <time>2018-01-08T01:39:32Z</time>
      </trkpt>
      <trkpt lat="50.73013" lon="2.74719">
        <ele>20</ele>
        <time>2018-01-08T01:40:32Z</time>
      </trkpt>
      <trkpt lat="50.73013" lon="2.74721">
        <ele>20</ele>
        <time>2018-01-08T01:41:32Z</time>
      </trkpt>
      <trkpt lat="50.73014" lon="2.74722">
        <ele>20</ele>
        <time>2018-01-08T01:42:32Z</time>
      </trkpt>
      <trkpt lat="50.73014" lon="2.74724">
        <ele>20</ele>
        <time>2018-01-08T01:43:32Z</time>
      </trkpt>
      <trkpt lat="50.73015" lon="2.74726">
        <ele>20</ele>
        <time>2018-01-08T01:44:32Z</time>
      </trkpt>
      <trkpt lat="50.73015" lon="2.7474">
        <ele>20</ele>
        <time>2018-01-08T01:45:32Z</time>
      </trkpt>
      <trkpt lat="50.73015" lon="2.74747">
        <ele>20</ele>
        <time>2018-01-08T01:46:32Z</time>
      </trkpt>
      <trkpt lat="50.73014" lon="2.74752">
        <ele>20</ele>
        <time>2018-01-08T01:47:32Z</time>
      </trkpt>
      <trkpt lat="50.73013" lon="2.74757">
        <ele>20</ele>
        <time>2018-01-08T01:48:32Z</time>
      </trkpt>
      <trkpt lat="50.7301" lon="2.74763">
        <ele>20</ele>
        <time>2018-01-08T01:49:32Z</time>
      </trkpt>
      <trkpt lat="50.73005" lon="2.74771">
        <ele>20</ele>
        <time>2018-01-08T01:50:32Z</time>
      </trkpt>
      <trkpt lat="50.73" lon="2.74778">
        <ele>20</ele>
        <time>2018-01-08T01:51:32Z</time>
      </trkpt>
      <trkpt lat="50.72986" lon="2.74795">
        <ele>19</ele>
        <time>2018-01-08T01:52:32Z</time>
      </trkpt>
      <trkpt lat="50.72982" lon="2.74804">
        <ele>19</ele>
        <time>2018-01-08T01:53:32Z</time>
      </trkpt>
      <trkpt lat="50.72905" lon="2.74894">
        <ele>19</ele>
        <time>2018-01-08T01:54:32Z</time>
      </trkpt>
      <trkpt lat="50.72869" lon="2.74938">
        <ele>19</ele>
        <time>2018-01-08T01:55:32Z</time>
      </trkpt>
      <trkpt lat="50.7286" lon="2.74949">
        <ele>19</ele>
        <time>2018-01-08T01:56:32Z</time>
      </trkpt>
      <trkpt lat="50.72844" lon="2.74968">
        <ele>19</ele>
        <time>2018-01-08T01:57:32Z</time>
      </trkpt>
      <trkpt lat="50.72814" lon="2.75006">
        <ele>19</ele>
        <time>2018-01-08T01:58:32Z</time>
      </trkpt>
      <trkpt lat="50.72784" lon="2.75048">
        <ele>20</ele>
        <time>2018-01-08T01:59:32Z</time>
      </trkpt>
      <trkpt lat="50.72761" lon="2.75081">
        <ele>20</ele>
        <time>2018-01-08T02:00:32Z</time>
      </trkpt>
      <trkpt lat="50.72741" lon="2.75111">
        <ele>20</ele>
        <time>2018-01-08T02:01:32Z</time>
      </trkpt>
      <trkpt lat="50.72726" lon="2.75134">
        <ele>19</ele>
        <time>2018-01-08T02:02:32Z</time>
      </trkpt>
      <trkpt lat="50.7272" lon="2.75144">
        <ele>19</ele>
        <time>2018-01-08T02:03:32Z</time>
      </trkpt>
      <trkpt lat="50.72715" lon="2.75152">
        <ele>19</ele>
        <time>2018-01-08T02:04:32Z</time>
      </trkpt>
      <trkpt lat="50.72712" lon="2.75158">
        <ele>19</ele>
        <time>2018-01-08T02:05:32Z</time>
      </trkpt>
      <trkpt lat="50.7271" lon="2.75164">
        <ele>19</ele>
        <time>2018-01-08T02:06:32Z</time>
      </trkpt>
      <trkpt lat="50.72708" lon="2.75168">
        <ele>20</ele>
        <time>2018-01-08T02:07:32Z</time>
      </trkpt>
      <trkpt lat="50.72707" lon="2.75173">
        <ele>20</ele>
        <time>2018-01-08T02:08:32Z</time>
      </trkpt>
      <trkpt lat="50.72706" lon="2.75177">
        <ele>20</ele>
        <time>2018-01-08T02:09:32Z</time>
      </trkpt>
      <trkpt lat="50.72704" lon="2.75183">
        <ele>20</ele>
        <time>2018-01-08T02:10:32Z</time>
      </trkpt>
      <trkpt lat="50.72704" lon="2.75187">
        <ele>20</ele>
        <time>2018-01-08T02:11:32Z</time>
      </trkpt>
      <trkpt lat="50.72703" lon="2.75192">
        <ele>20</ele>
        <time>2018-01-08T02:12:32Z</time>
      </trkpt>
      <trkpt lat="50.72703" lon="2.75197">
        <ele>20</ele>
        <time>2018-01-08T02:13:32Z</time>
      </trkpt>
      <trkpt lat="50.72703" lon="2.75203">
        <ele>20</ele>
        <time>2018-01-08T02:14:32Z</time>
      </trkpt>
      <trkpt lat="50.72702" lon="2.75208">
        <ele>20</ele>
        <time>2018-01-08T02:15:32Z</time>
      </trkpt>
      <trkpt lat="50.72703" lon="2.75213">
        <ele>20</ele>
        <time>2018-01-08T02:16:32Z</time>
      </trkpt>
      <trkpt lat="50.72705" lon="2.75238">
        <ele>20</ele>
        <time>2018-01-08T02:17:32Z</time>
      </trkpt>
      <trkpt lat="50.72707" lon="2.75261">
        <ele>20</ele>
        <time>2018-01-08T02:18:32Z</time>
      </trkpt>
      <trkpt lat="50.72709" lon="2.75291">
        <ele>19</ele>
        <time>2018-01-08T02:19:32Z</time>
      </trkpt>
      <trkpt lat="50.72712" lon="2.7533">
        <ele>19</ele>
        <time>2018-01-08T02:20:32Z</time>
      </trkpt>
      <trkpt lat="50.72714" lon="2.75361">
        <ele>19</ele>
        <time>2018-01-08T02:21:32Z</time>
      </trkpt>
      <trkpt lat="50.72716" lon="2.75397">
        <ele>19</ele>
        <time>2018-01-08T02:22:32Z</time>
      </trkpt>
      <trkpt lat="50.72726" lon="2.75556">
        <ele>18</ele>
        <time>2018-01-08T02:23:32Z</time>
      </trkpt>
      <trkpt lat="50.72734" lon="2.75682">
        <ele>19</ele>
        <time>2018-01-08T02:24:32Z</time>
      </trkpt>
      <trkpt lat="50.72744" lon="2.75831">
        <ele>19</ele>
        <time>2018-01-08T02:25:32Z</time>
      </trkpt>
      <trkpt lat="50.72757" lon="2.76035">
        <ele>19</ele>
        <time>2018-01-08T02:26:32Z</time>
      </trkpt>
      <trkpt lat="50.72767" lon="2.76188">
        <ele>17</ele>
        <time>2018-01-08T02:27:32Z</time>
      </trkpt>
      <trkpt lat="50.72768" lon="2.76203">
        <ele>18</ele>
        <time>2018-01-08T02:28:32Z</time>
      </trkpt>
      <trkpt lat="50.72776" lon="2.76328">
        <ele>19</ele>
        <time>2018-01-08T02:29:32Z</time>
      </trkpt>
      <trkpt lat="50.72778" lon="2.76349">
        <ele>19</ele>
        <time>2018-01-08T02:30:32Z</time>
      </trkpt>
      <trkpt lat="50.72808" lon="2.76816">
        <ele>18</ele>
        <time>2018-01-08T02:31:32Z</time>
      </trkpt>
      <trkpt lat="50.72811" lon="2.76859">
        <ele>18</ele>
        <time>2018-01-08T02:32:32Z</time>
      </trkpt>
      <trkpt lat="50.72827" lon="2.77106">
        <ele>18</ele>
        <time>2018-01-08T02:33:32Z</time>
      </trkpt>
      <trkpt lat="50.72833" lon="2.77195">
        <ele>17</ele>
        <time>2018-01-08T02:34:32Z</time>
      </trkpt>
      <trkpt lat="50.72833" lon="2.77213">
        <ele>17</ele>
        <time>2018-01-08T02:35:32Z</time>
      </trkpt>
      <trkpt lat="50.72832" lon="2.77229">
        <ele>17</ele>
        <time>2018-01-08T02:36:32Z</time>
      </trkpt>
      <trkpt lat="50.72832" lon="2.77242">
        <ele>17</ele>
        <time>2018-01-08T02:37:32Z</time>
      </trkpt>
      <trkpt lat="50.72831" lon="2.77255">
        <ele>17</ele>
        <time>2018-01-08T02:38:32Z</time>
      </trkpt>
      <trkpt lat="50.7283" lon="2.77267">
        <ele>17</ele>
        <time>2018-01-08T02:39:32Z</time>
      </trkpt>
      <trkpt lat="50.72829" lon="2.77279">
        <ele>17</ele>
        <time>2018-01-08T02:40:32Z</time>
      </trkpt>
      <trkpt lat="50.72827" lon="2.77292">
        <ele>17</ele>
        <time>2018-01-08T02:41:32Z</time>
      </trkpt>
      <trkpt lat="50.72826" lon="2.77299">
        <ele>17</ele>
        <time>2018-01-08T02:42:32Z</time>
      </trkpt>
      <trkpt lat="50.72811" lon="2.77371">
        <ele>17</ele>
        <time>2018-01-08T02:43:32Z</time>
      </trkpt>
      <trkpt lat="50.72781" lon="2.77521">
        <ele>17</ele>
        <time>2018-01-08T02:44:32Z</time>
      </trkpt>
      <trkpt lat="50.72732" lon="2.77766">
        <ele>18</ele>
        <time>2018-01-08T02:45:32Z</time>
      </trkpt>
      <trkpt lat="50.727" lon="2.77923">
        <ele>17</ele>
        <time>2018-01-08T02:46:32Z</time>
      </trkpt>
      <trkpt lat="50.72683" lon="2.78009">
        <ele>16</ele>
        <time>2018-01-08T02:47:32Z</time>
      </trkpt>
      <trkpt lat="50.72676" lon="2.78045">
        <ele>16</ele>
        <time>2018-01-08T02:48:32Z</time>
      </trkpt>
      <trkpt lat="50.7267" lon="2.78078">
        <ele>16</ele>
        <time>2018-01-08T02:49:32Z</time>
      </trkpt>
      <trkpt lat="50.72658" lon="2.78151">
        <ele>16</ele>
        <time>2018-01-08T02:50:32Z</time>
      </trkpt>
      <trkpt lat="50.72622" lon="2.78365">
        <ele>17</ele>
        <time>2018-01-08T02:51:32Z</time>
      </trkpt>
      <trkpt lat="50.72598" lon="2.7851">
        <ele>17</ele>
        <time>2018-01-08T02:52:32Z</time>
      </trkpt>
      <trkpt lat="50.72569" lon="2.78678">
        <ele>17</ele>
        <time>2018-01-08T02:53:32Z</time>
      </trkpt>
      <trkpt lat="50.72517" lon="2.78993">
        <ele>17</ele>
        <time>2018-01-08T02:54:32Z</time>
      </trkpt>
      <trkpt lat="50.72509" lon="2.79042">
        <ele>17</ele>
        <time>2018-01-08T02:55:32Z</time>
      </trkpt>
      <trkpt lat="50.72504" lon="2.79069">
        <ele>17</ele>
        <time>2018-01-08T02:56:32Z</time>
      </trkpt>
      <trkpt lat="50.72501" lon="2.79086">
        <ele>17</ele>
        <time>2018-01-08T02:57:32Z</time>
      </trkpt>
      <trkpt lat="50.72497" lon="2.79105">
        <ele>17</ele>
        <time>2018-01-08T02:58:32Z</time>
      </trkpt>
      <trkpt lat="50.72494" lon="2.79118">
        <ele>17</ele>
        <time>2018-01-08T02:59:32Z</time>
      </trkpt>
      <trkpt lat="50.72491" lon="2.7913">
        <ele>17</ele>
        <time>2018-01-08T03:00:32Z</time>
      </trkpt>
      <trkpt lat="50.72488" lon="2.79141">
        <ele>18</ele>
        <time>2018-01-08T03:01:32Z</time>
      </trkpt>
      <trkpt lat="50.72484" lon="2.79153">
        <ele>18</ele>
        <time>2018-01-08T03:02:32Z</time>
      </trkpt>
      <trkpt lat="50.72479" lon="2.79168">
        <ele>18</ele>
        <time>2018-01-08T03:03:32Z</time>
      </trkpt>
      <trkpt lat="50.72469" lon="2.79195">
        <ele>17</ele>
        <time>2018-01-08T03:04:32Z</time>
      </trkpt>
      <trkpt lat="50.72437" lon="2.7928">
        <ele>17</ele>
        <time>2018-01-08T03:05:32Z</time>
      </trkpt>
      <trkpt lat="50.7238" lon="2.79432">
        <ele>17</ele>
        <time>2018-01-08T03:06:32Z</time>
      </trkpt>
      <trkpt lat="50.72337" lon="2.79549">
        <ele>18</ele>
        <time>2018-01-08T03:07:32Z</time>
      </trkpt>
      <trkpt lat="50.72275" lon="2.79714">
        <ele>18</ele>
        <time>2018-01-08T03:08:32Z</time>
      </trkpt>
      <trkpt lat="50.72102" lon="2.80176">
        <ele>17</ele>
        <time>2018-01-08T03:09:32Z</time>
      </trkpt>
      <trkpt lat="50.72097" lon="2.80185">
        <ele>17</ele>
        <time>2018-01-08T03:10:32Z</time>
      </trkpt>
      <trkpt lat="50.72089" lon="2.80205">
        <ele>17</ele>
        <time>2018-01-08T03:11:32Z</time>
      </trkpt>
      <trkpt lat="50.7208" lon="2.80227">
        <ele>17</ele>
        <time>2018-01-08T03:12:32Z</time>
      </trkpt>
      <trkpt lat="50.72061" lon="2.80274">
        <ele>18</ele>
        <time>2018-01-08T03:13:32Z</time>
      </trkpt>
      <trkpt lat="50.72055" lon="2.80291">
        <ele>18</ele>
        <time>2018-01-08T03:14:32Z</time>
      </trkpt>
      <trkpt lat="50.72029" lon="2.80352">
        <ele>19</ele>
        <time>2018-01-08T03:15:32Z</time>
      </trkpt>
      <trkpt lat="50.72002" lon="2.80408">
        <ele>19</ele>
        <time>2018-01-08T03:16:32Z</time>
      </trkpt>
      <trkpt lat="50.72002" lon="2.80408">
        <ele>19</ele>
        <time>2018-01-08T03:17:32Z</time>
      </trkpt>
      <trkpt lat="50.72004" lon="2.80418">
        <ele>19</ele>
        <time>2018-01-08T03:18:32Z</time>
      </trkpt>
      <trkpt lat="50.72012" lon="2.80424">
        <ele>19</ele>
        <time>2018-01-08T03:19:32Z</time>
      </trkpt>
      <trkpt lat="50.72015" lon="2.80427">
        <ele>19</ele>
        <time>2018-01-08T03:20:32Z</time>
      </trkpt>
      <trkpt lat="50.7202" lon="2.8043">
        <ele>19</ele>
        <time>2018-01-08T03:21:32Z</time>
      </trkpt>
      <trkpt lat="50.72094" lon="2.80463">
        <ele>17</ele>
        <time>2018-01-08T03:22:32Z</time>
      </trkpt>
      <trkpt lat="50.72094" lon="2.80463">
        <ele>17</ele>
        <time>2018-01-08T03:23:32Z</time>
      </trkpt>
      <trkpt lat="50.72166" lon="2.80505">
        <ele>17</ele>
        <time>2018-01-08T03:24:32Z</time>
      </trkpt>
      <trkpt lat="50.72168" lon="2.80506">
        <ele>17</ele>
        <time>2018-01-08T03:25:32Z</time>
      </trkpt>
      <trkpt lat="50.72186" lon="2.80515">
        <ele>17</ele>
        <time>2018-01-08T03:26:32Z</time>
      </trkpt>
      <trkpt lat="50.72204" lon="2.8053">
        <ele>17</ele>
        <time>2018-01-08T03:27:32Z</time>
      </trkpt>
      <trkpt lat="50.72207" lon="2.80532">
        <ele>17</ele>
        <time>2018-01-08T03:28:32Z</time>
      </trkpt>
      <trkpt lat="50.72414" lon="2.80726">
        <ele>17</ele>
        <time>2018-01-08T03:29:32Z</time>
      </trkpt>
      <trkpt lat="50.72463" lon="2.80764">
        <ele>18</ele>
        <time>2018-01-08T03:30:32Z</time>
      </trkpt>
      <trkpt lat="50.72499" lon="2.80788">
        <ele>18</ele>
        <time>2018-01-08T03:31:32Z</time>
      </trkpt>
      <trkpt lat="50.72499" lon="2.80788">
        <ele>18</ele>
        <time>2018-01-08T03:32:32Z</time>
      </trkpt>
      <trkpt lat="50.72482" lon="2.80914">
        <ele>18</ele>
        <time>2018-01-08T03:33:32Z</time>
      </trkpt>
      <trkpt lat="50.72482" lon="2.80914">
        <ele>18</ele>
        <time>2018-01-08T03:34:32Z</time>
      </trkpt>
      <trkpt lat="50.72558" lon="2.80928">
        <ele>18</ele>
        <time>2018-01-08T03:35:32Z</time>
      </trkpt>
      <trkpt lat="50.72558" lon="2.80928">
        <ele>18</ele>
        <time>2018-01-08T03:36:32Z</time>
      </trkpt>
      <trkpt lat="50.72482" lon="2.80914">
        <ele>18</ele>
        <time>2018-01-08T03:37:32Z</time>
      </trkpt>
      <trkpt lat="50.72482" lon="2.80914">
        <ele>18</ele>
        <time>2018-01-08T03:38:32Z</time>
      </trkpt>
      <trkpt lat="50.72499" lon="2.80788">
        <ele>18</ele>
        <time>2018-01-08T03:39:32Z</time>
      </trkpt>
      <trkpt lat="50.72499" lon="2.80788">
        <ele>18</ele>
        <time>2018-01-08T03:40:32Z</time>
      </trkpt>
      <trkpt lat="50.72589" lon="2.80849">
        <ele>18</ele>
        <time>2018-01-08T03:41:32Z</time>
      </trkpt>
      <trkpt lat="50.72746" lon="2.80954">
        <ele>18</ele>
        <time>2018-01-08T03:42:32Z</time>
      </trkpt>
      <trkpt lat="50.72792" lon="2.80986">
        <ele>18</ele>
        <time>2018-01-08T03:43:32Z</time>
      </trkpt>
      <trkpt lat="50.72917" lon="2.81085">
        <ele>20</ele>
        <time>2018-01-08T03:44:32Z</time>
      </trkpt>
      <trkpt lat="50.72953" lon="2.81112">
        <ele>21</ele>
        <time>2018-01-08T03:45:32Z</time>
      </trkpt>
      <trkpt lat="50.73003" lon="2.81149">
        <ele>24</ele>
        <time>2018-01-08T03:46:32Z</time>
      </trkpt>
      <trkpt lat="50.73163" lon="2.81275">
        <ele>32</ele>
        <time>2018-01-08T03:47:32Z</time>
      </trkpt>
      <trkpt lat="50.73178" lon="2.81285">
        <ele>33</ele>
        <time>2018-01-08T03:48:32Z</time>
      </trkpt>
      <trkpt lat="50.73362" lon="2.81441">
        <ele>36</ele>
        <time>2018-01-08T03:49:32Z</time>
      </trkpt>
      <trkpt lat="50.73387" lon="2.81463">
        <ele>36</ele>
        <time>2018-01-08T03:50:32Z</time>
      </trkpt>
      <trkpt lat="50.73488" lon="2.81547">
        <ele>37</ele>
        <time>2018-01-08T03:51:32Z</time>
      </trkpt>
      <trkpt lat="50.73533" lon="2.81583">
        <ele>39</ele>
        <time>2018-01-08T03:52:32Z</time>
      </trkpt>
      <trkpt lat="50.73778" lon="2.81772">
        <ele>47</ele>
        <time>2018-01-08T03:53:32Z</time>
      </trkpt>
      <trkpt lat="50.73834" lon="2.81822">
        <ele>48</ele>
        <time>2018-01-08T03:54:32Z</time>
      </trkpt>
      <trkpt lat="50.74002" lon="2.81967">
        <ele>55</ele>
        <time>2018-01-08T03:55:32Z</time>
      </trkpt>
      <trkpt lat="50.74044" lon="2.82003">
        <ele>56</ele>
        <time>2018-01-08T03:56:32Z</time>
      </trkpt>
      <trkpt lat="50.74073" lon="2.82024">
        <ele>57</ele>
        <time>2018-01-08T03:57:32Z</time>
      </trkpt>
      <trkpt lat="50.74102" lon="2.82043">
        <ele>57</ele>
        <time>2018-01-08T03:58:32Z</time>
      </trkpt>
      <trkpt lat="50.74181" lon="2.82092">
        <ele>57</ele>
        <time>2018-01-08T03:59:32Z</time>
      </trkpt>
      <trkpt lat="50.74238" lon="2.82125">
        <ele>57</ele>
        <time>2018-01-08T04:00:32Z</time>
      </trkpt>
      <trkpt lat="50.74272" lon="2.82146">
        <ele>58</ele>
        <time>2018-01-08T04:01:32Z</time>
      </trkpt>
      <trkpt lat="50.74363" lon="2.82201">
        <ele>60</ele>
        <time>2018-01-08T04:02:32Z</time>
      </trkpt>
      <trkpt lat="50.74453" lon="2.82254">
        <ele>62</ele>
        <time>2018-01-08T04:03:32Z</time>
      </trkpt>
      <trkpt lat="50.74498" lon="2.82283">
        <ele>63</ele>
        <time>2018-01-08T04:04:32Z</time>
      </trkpt>
      <trkpt lat="50.74507" lon="2.82291">
        <ele>63</ele>
        <time>2018-01-08T04:05:32Z</time>
      </trkpt>
      <trkpt lat="50.74517" lon="2.82298">
        <ele>63</ele>
        <time>2018-01-08T04:06:32Z</time>
      </trkpt>
      <trkpt lat="50.74521" lon="2.82306">
        <ele>63</ele>
        <time>2018-01-08T04:07:32Z</time>
      </trkpt>
      <trkpt lat="50.74585" lon="2.82479">
        <ele>59</ele>
        <time>2018-01-08T04:08:32Z</time>
      </trkpt>
      <trkpt lat="50.74602" lon="2.82524">
        <ele>58</ele>
        <time>2018-01-08T04:09:32Z</time>
      </trkpt>
      <trkpt lat="50.74602" lon="2.82524">
        <ele>58</ele>
        <time>2018-01-08T04:10:32Z</time>
      </trkpt>
      <trkpt lat="50.74625" lon="2.8258">
        <ele>58</ele>
        <time>2018-01-08T04:11:32Z</time>
      </trkpt>
      <trkpt lat="50.74644" lon="2.82629">
        <ele>58</ele>
        <time>2018-01-08T04:12:32Z</time>
      </trkpt>
      <trkpt lat="50.74658" lon="2.82667">
        <ele>58</ele>
        <time>2018-01-08T04:13:32Z</time>
      </trkpt>
      <trkpt lat="50.74658" lon="2.82667">
        <ele>58</ele>
        <time>2018-01-08T04:14:32Z</time>
      </trkpt>
      <trkpt lat="50.74706" lon="2.8279">
        <ele>58</ele>
        <time>2018-01-08T04:15:32Z</time>
      </trkpt>
      <trkpt lat="50.74733" lon="2.8286">
        <ele>58</ele>
        <time>2018-01-08T04:16:32Z</time>
      </trkpt>
      <trkpt lat="50.74825" lon="2.83111">
        <ele>61</ele>
        <time>2018-01-08T04:17:32Z</time>
      </trkpt>
      <trkpt lat="50.74839" lon="2.83149">
        <ele>61</ele>
        <time>2018-01-08T04:18:32Z</time>
      </trkpt>
      <trkpt lat="50.74903" lon="2.83319">
        <ele>56</ele>
        <time>2018-01-08T04:19:32Z</time>
      </trkpt>
      <trkpt lat="50.74918" lon="2.83345">
        <ele>55</ele>
        <time>2018-01-08T04:20:32Z</time>
      </trkpt>
      <trkpt lat="50.74931" lon="2.83367">
        <ele>53</ele>
        <time>2018-01-08T04:21:32Z</time>
      </trkpt>
      <trkpt lat="50.74987" lon="2.8344">
        <ele>50</ele>
        <time>2018-01-08T04:22:32Z</time>
      </trkpt>
      <trkpt lat="50.75065" lon="2.83542">
        <ele>45</ele>
        <time>2018-01-08T04:23:32Z</time>
      </trkpt>
      <trkpt lat="50.75193" lon="2.83713">
        <ele>42</ele>
        <time>2018-01-08T04:24:32Z</time>
      </trkpt>
      <trkpt lat="50.75224" lon="2.83756">
        <ele>41</ele>
        <time>2018-01-08T04:25:32Z</time>
      </trkpt>
      <trkpt lat="50.75235" lon="2.83777">
        <ele>41</ele>
        <time>2018-01-08T04:26:32Z</time>
      </trkpt>
      <trkpt lat="50.75247" lon="2.83806">
        <ele>41</ele>
        <time>2018-01-08T04:27:32Z</time>
      </trkpt>
      <trkpt lat="50.75317" lon="2.84038">
        <ele>37</ele>
        <time>2018-01-08T04:28:32Z</time>
      </trkpt>
      <trkpt lat="50.75352" lon="2.84157">
        <ele>36</ele>
        <time>2018-01-08T04:29:32Z</time>
      </trkpt>
      <trkpt lat="50.75508" lon="2.84688">
        <ele>30</ele>
        <time>2018-01-08T04:30:32Z</time>
      </trkpt>
      <trkpt lat="50.7554" lon="2.84795">
        <ele>29</ele>
        <time>2018-01-08T04:31:32Z</time>
      </trkpt>
      <trkpt lat="50.75547" lon="2.84817">
        <ele>29</ele>
        <time>2018-01-08T04:32:32Z</time>
      </trkpt>
      <trkpt lat="50.75557" lon="2.84844">
        <ele>28</ele>
        <time>2018-01-08T04:33:32Z</time>
      </trkpt>
      <trkpt lat="50.75565" lon="2.84862">
        <ele>28</ele>
        <time>2018-01-08T04:34:32Z</time>
      </trkpt>
      <trkpt lat="50.75572" lon="2.84875">
        <ele>28</ele>
        <time>2018-01-08T04:35:32Z</time>
      </trkpt>
      <trkpt lat="50.75577" lon="2.8488">
        <ele>28</ele>
        <time>2018-01-08T04:36:32Z</time>
      </trkpt>
      <trkpt lat="50.75593" lon="2.84901">
        <ele>28</ele>
        <time>2018-01-08T04:37:32Z</time>
      </trkpt>
      <trkpt lat="50.7562" lon="2.84926">
        <ele>28</ele>
        <time>2018-01-08T04:38:32Z</time>
      </trkpt>
      <trkpt lat="50.75691" lon="2.84983">
        <ele>27</ele>
        <time>2018-01-08T04:39:32Z</time>
      </trkpt>
      <trkpt lat="50.75776" lon="2.85047">
        <ele>26</ele>
        <time>2018-01-08T04:40:32Z</time>
      </trkpt>
      <trkpt lat="50.75836" lon="2.85096">
        <ele>25</ele>
        <time>2018-01-08T04:41:32Z</time>
      </trkpt>
      <trkpt lat="50.75896" lon="2.85139">
        <ele>26</ele>
        <time>2018-01-08T04:42:32Z</time>
      </trkpt>
      <trkpt lat="50.75999" lon="2.8522">
        <ele>31</ele>
        <time>2018-01-08T04:43:32Z</time>
      </trkpt>
      <trkpt lat="50.76002" lon="2.85225">
        <ele>31</ele>
        <time>2018-01-08T04:44:32Z</time>
      </trkpt>
      <trkpt lat="50.76004" lon="2.8523">
        <ele>31</ele>
        <time>2018-01-08T04:45:32Z</time>
      </trkpt>
      <trkpt lat="50.76006" lon="2.85237">
        <ele>31</ele>
        <time>2018-01-08T04:46:32Z</time>
      </trkpt>
      <trkpt lat="50.76007" lon="2.85244">
        <ele>31</ele>
        <time>2018-01-08T04:47:32Z</time>
      </trkpt>
      <trkpt lat="50.76007" lon="2.85253">
        <ele>31</ele>
        <time>2018-01-08T04:48:32Z</time>
      </trkpt>
      <trkpt lat="50.76007" lon="2.85253">
        <ele>31</ele>
        <time>2018-01-08T04:49:32Z</time>
      </trkpt>
      <trkpt lat="50.76005" lon="2.85259">
        <ele>31</ele>
        <time>2018-01-08T04:50:32Z</time>
      </trkpt>
      <trkpt lat="50.76002" lon="2.85268">
        <ele>31</ele>
        <time>2018-01-08T04:51:32Z</time>
      </trkpt>
      <trkpt lat="50.7599" lon="2.85299">
        <ele>30</ele>
        <time>2018-01-08T04:52:32Z</time>
      </trkpt>
      <trkpt lat="50.7598" lon="2.85328">
        <ele>29</ele>
        <time>2018-01-08T04:53:32Z</time>
      </trkpt>
      <trkpt lat="50.75966" lon="2.8538">
        <ele>29</ele>
        <time>2018-01-08T04:54:32Z</time>
      </trkpt>
      <trkpt lat="50.75946" lon="2.8547">
        <ele>28</ele>
        <time>2018-01-08T04:55:32Z</time>
      </trkpt>
      <trkpt lat="50.75944" lon="2.85481">
        <ele>28</ele>
        <time>2018-01-08T04:56:32Z</time>
      </trkpt>
      <trkpt lat="50.75834" lon="2.85953">
        <ele>25</ele>
        <time>2018-01-08T04:57:32Z</time>
      </trkpt>
      <trkpt lat="50.75819" lon="2.86026">
        <ele>27</ele>
        <time>2018-01-08T04:58:32Z</time>
      </trkpt>
      <trkpt lat="50.75815" lon="2.86056">
        <ele>28</ele>
        <time>2018-01-08T04:59:32Z</time>
      </trkpt>
      <trkpt lat="50.75815" lon="2.86083">
        <ele>29</ele>
        <time>2018-01-08T05:00:32Z</time>
      </trkpt>
      <trkpt lat="50.75825" lon="2.86144">
        <ele>32</ele>
        <time>2018-01-08T05:01:32Z</time>
      </trkpt>
      <trkpt lat="50.75857" lon="2.86294">
        <ele>38</ele>
        <time>2018-01-08T05:02:32Z</time>
      </trkpt>
      <trkpt lat="50.75866" lon="2.86343">
        <ele>41</ele>
        <time>2018-01-08T05:03:32Z</time>
      </trkpt>
      <trkpt lat="50.75899" lon="2.8649">
        <ele>44</ele>
        <time>2018-01-08T05:04:32Z</time>
      </trkpt>
      <trkpt lat="50.75997" lon="2.86955">
        <ele>43</ele>
        <time>2018-01-08T05:05:32Z</time>
      </trkpt>
      <trkpt lat="50.76057" lon="2.87239">
        <ele>40</ele>
        <time>2018-01-08T05:06:32Z</time>
      </trkpt>
      <trkpt lat="50.76076" lon="2.87334">
        <ele>40</ele>
        <time>2018-01-08T05:07:32Z</time>
      </trkpt>
      <trkpt lat="50.76086" lon="2.87388">
        <ele>40</ele>
        <time>2018-01-08T05:08:32Z</time>
      </trkpt>
      <trkpt lat="50.76108" lon="2.87527">
        <ele>38</ele>
        <time>2018-01-08T05:09:32Z</time>
      </trkpt>
      <trkpt lat="50.76114" lon="2.87565">
        <ele>38</ele>
        <time>2018-01-08T05:10:32Z</time>
      </trkpt>
      <trkpt lat="50.76126" lon="2.87638">
        <ele>37</ele>
        <time>2018-01-08T05:11:32Z</time>
      </trkpt>
      <trkpt lat="50.76152" lon="2.87822">
        <ele>36</ele>
        <time>2018-01-08T05:12:32Z</time>
      </trkpt>
      <trkpt lat="50.76174" lon="2.87955">
        <ele>36</ele>
        <time>2018-01-08T05:13:32Z</time>
      </trkpt>
      <trkpt lat="50.76189" lon="2.88021">
        <ele>35</ele>
        <time>2018-01-08T05:14:32Z</time>
      </trkpt>
      <trkpt lat="50.76215" lon="2.881">
        <ele>34</ele>
        <time>2018-01-08T05:15:32Z</time>
      </trkpt>
      <trkpt lat="50.76231" lon="2.88144">
        <ele>33</ele>
        <time>2018-01-08T05:16:32Z</time>
      </trkpt>
      <trkpt lat="50.76235" lon="2.88155">
        <ele>33</ele>
        <time>2018-01-08T05:17:32Z</time>
      </trkpt>
      <trkpt lat="50.76281" lon="2.88286">
        <ele>32</ele>
        <time>2018-01-08T05:18:32Z</time>
      </trkpt>
      <trkpt lat="50.76318" lon="2.88393">
        <ele>31</ele>
        <time>2018-01-08T05:19:32Z</time>
      </trkpt>
      <trkpt lat="50.76335" lon="2.88435">
        <ele>31</ele>
        <time>2018-01-08T05:20:32Z</time>
      </trkpt>
      <trkpt lat="50.76379" lon="2.88536">
        <ele>33</ele>
        <time>2018-01-08T05:21:32Z</time>
      </trkpt>
      <trkpt lat="50.76385" lon="2.88551">
        <ele>34</ele>
        <time>2018-01-08T05:22:32Z</time>
      </trkpt>
      <trkpt lat="50.76411" lon="2.88611">
        <ele>38</ele>
        <time>2018-01-08T05:23:32Z</time>
      </trkpt>
      <trkpt lat="50.76463" lon="2.88742">
        <ele>44</ele>
        <time>2018-01-08T05:24:32Z</time>
      </trkpt>
      <trkpt lat="50.76492" lon="2.88821">
        <ele>48</ele>
        <time>2018-01-08T05:25:32Z</time>
      </trkpt>
      <trkpt lat="50.76496" lon="2.88839">
        <ele>49</ele>
        <time>2018-01-08T05:26:32Z</time>
      </trkpt>
      <trkpt lat="50.76501" lon="2.88861">
        <ele>50</ele>
        <time>2018-01-08T05:27:32Z</time>
      </trkpt>
      <trkpt lat="50.76512" lon="2.88924">
        <ele>53</ele>
        <time>2018-01-08T05:28:32Z</time>
      </trkpt>
      <trkpt lat="50.76538" lon="2.89083">
        <ele>58</ele>
        <time>2018-01-08T05:29:32Z</time>
      </trkpt>
      <trkpt lat="50.76551" lon="2.8915">
        <ele>59</ele>
        <time>2018-01-08T05:30:32Z</time>
      </trkpt>
      <trkpt lat="50.76565" lon="2.89244">
        <ele>61</ele>
        <time>2018-01-08T05:31:32Z</time>
      </trkpt>
      <trkpt lat="50.76568" lon="2.8926">
        <ele>61</ele>
        <time>2018-01-08T05:32:32Z</time>
      </trkpt>
      <trkpt lat="50.76572" lon="2.8929">
        <ele>61</ele>
        <time>2018-01-08T05:33:32Z</time>
      </trkpt>
      <trkpt lat="50.7658" lon="2.89331">
        <ele>62</ele>
        <time>2018-01-08T05:34:32Z</time>
      </trkpt>
      <trkpt lat="50.76598" lon="2.89419">
        <ele>62</ele>
        <time>2018-01-08T05:35:32Z</time>
      </trkpt>
      <trkpt lat="50.7661" lon="2.89484">
        <ele>62</ele>
        <time>2018-01-08T05:36:32Z</time>
      </trkpt>
      <trkpt lat="50.76623" lon="2.89551">
        <ele>63</ele>
        <time>2018-01-08T05:37:32Z</time>
      </trkpt>
      <trkpt lat="50.76629" lon="2.89576">
        <ele>63</ele>
        <time>2018-01-08T05:38:32Z</time>
      </trkpt>
      <trkpt lat="50.76638" lon="2.89621">
        <ele>63</ele>
        <time>2018-01-08T05:39:32Z</time>
      </trkpt>
      <trkpt lat="50.76642" lon="2.89649">
        <ele>64</ele>
        <time>2018-01-08T05:40:32Z</time>
      </trkpt>
      <trkpt lat="50.76653" lon="2.89698">
        <ele>64</ele>
        <time>2018-01-08T05:41:32Z</time>
      </trkpt>
      <trkpt lat="50.76662" lon="2.89753">
        <ele>64</ele>
        <time>2018-01-08T05:42:32Z</time>
      </trkpt>
      <trkpt lat="50.76678" lon="2.89831">
        <ele>63</ele>
        <time>2018-01-08T05:43:32Z</time>
      </trkpt>
      <trkpt lat="50.76694" lon="2.89945">
        <ele>62</ele>
        <time>2018-01-08T05:44:32Z</time>
      </trkpt>
      <trkpt lat="50.767" lon="2.89994">
        <ele>63</ele>
        <time>2018-01-08T05:45:32Z</time>
      </trkpt>
      <trkpt lat="50.76704" lon="2.90054">
        <ele>62</ele>
        <time>2018-01-08T05:46:32Z</time>
      </trkpt>
      <trkpt lat="50.76705" lon="2.90068">
        <ele>62</ele>
        <time>2018-01-08T05:47:32Z</time>
      </trkpt>
      <trkpt lat="50.76705" lon="2.90084">
        <ele>62</ele>
        <time>2018-01-08T05:48:32Z</time>
      </trkpt>
      <trkpt lat="50.76706" lon="2.90111">
        <ele>61</ele>
        <time>2018-01-08T05:49:32Z</time>
      </trkpt>
      <trkpt lat="50.76702" lon="2.90193">
        <ele>60</ele>
        <time>2018-01-08T05:50:32Z</time>
      </trkpt>
      <trkpt lat="50.76695" lon="2.90243">
        <ele>60</ele>
        <time>2018-01-08T05:51:32Z</time>
      </trkpt>
      <trkpt lat="50.76661" lon="2.90477">
        <ele>58</ele>
        <time>2018-01-08T05:52:32Z</time>
      </trkpt>
      <trkpt lat="50.76582" lon="2.91072">
        <ele>47</ele>
        <time>2018-01-08T05:53:32Z</time>
      </trkpt>
      <trkpt lat="50.76571" lon="2.91137">
        <ele>46</ele>
        <time>2018-01-08T05:54:32Z</time>
      </trkpt>
      <trkpt lat="50.76566" lon="2.91156">
        <ele>46</ele>
        <time>2018-01-08T05:55:32Z</time>
      </trkpt>
      <trkpt lat="50.76441" lon="2.91532">
        <ele>39</ele>
        <time>2018-01-08T05:56:32Z</time>
      </trkpt>
      <trkpt lat="50.76422" lon="2.91665">
        <ele>38</ele>
        <time>2018-01-08T05:57:32Z</time>
      </trkpt>
      <trkpt lat="50.76399" lon="2.91851">
        <ele>38</ele>
        <time>2018-01-08T05:58:32Z</time>
      </trkpt>
      <trkpt lat="50.76397" lon="2.91879">
        <ele>38</ele>
        <time>2018-01-08T05:59:32Z</time>
      </trkpt>
      <trkpt lat="50.76402" lon="2.91935">
        <ele>38</ele>
        <time>2018-01-08T06:00:32Z</time>
      </trkpt>
      <trkpt lat="50.76417" lon="2.91997">
        <ele>37</ele>
        <time>2018-01-08T06:01:32Z</time>
      </trkpt>
      <trkpt lat="50.76555" lon="2.92462">
        <ele>36</ele>
        <time>2018-01-08T06:02:32Z</time>
      </trkpt>
      <trkpt lat="50.76669" lon="2.9285">
        <ele>33</ele>
        <time>2018-01-08T06:03:32Z</time>
      </trkpt>
      <trkpt lat="50.76727" lon="2.93053">
        <ele>32</ele>
        <time>2018-01-08T06:04:32Z</time>
      </trkpt>
      <trkpt lat="50.76727" lon="2.93053">
        <ele>32</ele>
        <time>2018-01-08T06:05:32Z</time>
      </trkpt>
      <trkpt lat="50.76717" lon="2.9306">
        <ele>32</ele>
        <time>2018-01-08T06:06:32Z</time>
      </trkpt>
      <trkpt lat="50.76691" lon="2.93087">
        <ele>32</ele>
        <time>2018-01-08T06:07:32Z</time>
      </trkpt>
      <trkpt lat="50.76665" lon="2.93123">
        <ele>32</ele>
        <time>2018-01-08T06:08:32Z</time>
      </trkpt>
      <trkpt lat="50.7663" lon="2.93173">
        <ele>31</ele>
        <time>2018-01-08T06:09:32Z</time>
      </trkpt>
      <trkpt lat="50.76602" lon="2.93209">
        <ele>30</ele>
        <time>2018-01-08T06:10:32Z</time>
      </trkpt>
      <trkpt lat="50.76579" lon="2.93234">
        <ele>30</ele>
        <time>2018-01-08T06:11:32Z</time>
      </trkpt>
      <trkpt lat="50.76435" lon="2.9338">
        <ele>28</ele>
        <time>2018-01-08T06:12:32Z</time>
      </trkpt>
      <trkpt lat="50.76418" lon="2.93395">
        <ele>27</ele>
        <time>2018-01-08T06:13:32Z</time>
      </trkpt>
      <trkpt lat="50.76395" lon="2.93422">
        <ele>27</ele>
        <time>2018-01-08T06:14:32Z</time>
      </trkpt>
      <trkpt lat="50.76376" lon="2.93452">
        <ele>26</ele>
        <time>2018-01-08T06:15:32Z</time>
      </trkpt>
      <trkpt lat="50.76374" lon="2.93454">
        <ele>26</ele>
        <time>2018-01-08T06:16:32Z</time>
      </trkpt>
      <trkpt lat="50.76294" lon="2.93596">
        <ele>26</ele>
        <time>2018-01-08T06:17:32Z</time>
      </trkpt>
      <trkpt lat="50.76198" lon="2.93771">
        <ele>25</ele>
        <time>2018-01-08T06:18:32Z</time>
      </trkpt>
      <trkpt lat="50.7612" lon="2.9392">
        <ele>23</ele>
        <time>2018-01-08T06:19:32Z</time>
      </trkpt>
      <trkpt lat="50.76078" lon="2.93992">
        <ele>22</ele>
        <time>2018-01-08T06:20:32Z</time>
      </trkpt>
      <trkpt lat="50.75976" lon="2.94154">
        <ele>20</ele>
        <time>2018-01-08T06:21:32Z</time>
      </trkpt>
      <trkpt lat="50.75907" lon="2.94261">
        <ele>19</ele>
        <time>2018-01-08T06:22:32Z</time>
      </trkpt>
      <trkpt lat="50.75897" lon="2.94279">
        <ele>19</ele>
        <time>2018-01-08T06:23:32Z</time>
      </trkpt>
      <trkpt lat="50.75888" lon="2.94298">
        <ele>19</ele>
        <time>2018-01-08T06:24:32Z</time>
      </trkpt>
      <trkpt lat="50.75877" lon="2.94318">
        <ele>19</ele>
        <time>2018-01-08T06:25:32Z</time>
      </trkpt>
      <trkpt lat="50.75868" lon="2.94343">
        <ele>20</ele>
        <time>2018-01-08T06:26:32Z</time>
      </trkpt>
      <trkpt lat="50.75857" lon="2.94368">
        <ele>20</ele>
        <time>2018-01-08T06:27:32Z</time>
      </trkpt>
      <trkpt lat="50.75851" lon="2.94384">
        <ele>20</ele>
        <time>2018-01-08T06:28:32Z</time>
      </trkpt>
      <trkpt lat="50.75839" lon="2.94412">
        <ele>20</ele>
        <time>2018-01-08T06:29:32Z</time>
      </trkpt>
      <trkpt lat="50.75783" lon="2.94524">
        <ele>22</ele>
        <time>2018-01-08T06:30:32Z</time>
      </trkpt>
      <trkpt lat="50.75731" lon="2.9462">
        <ele>22</ele>
        <time>2018-01-08T06:31:32Z</time>
      </trkpt>
      <trkpt lat="50.75704" lon="2.94662">
        <ele>21</ele>
        <time>2018-01-08T06:32:32Z</time>
      </trkpt>
      <trkpt lat="50.75675" lon="2.94695">
        <ele>21</ele>
        <time>2018-01-08T06:33:32Z</time>
      </trkpt>
      <trkpt lat="50.75657" lon="2.94711">
        <ele>20</ele>
        <time>2018-01-08T06:34:32Z</time>
      </trkpt>
      <trkpt lat="50.7564" lon="2.94723">
        <ele>20</ele>
        <time>2018-01-08T06:35:32Z</time>
      </trkpt>
      <trkpt lat="50.75581" lon="2.94751">
        <ele>19</ele>
        <time>2018-01-08T06:36:32Z</time>
      </trkpt>
      <trkpt lat="50.7552" lon="2.94784">
        <ele>19</ele>
        <time>2018-01-08T06:37:32Z</time>
      </trkpt>
      <trkpt lat="50.75491" lon="2.94798">
        <ele>19</ele>
        <time>2018-01-08T06:38:32Z</time>
      </trkpt>
      <trkpt lat="50.75486" lon="2.94801">
        <ele>19</ele>
        <time>2018-01-08T06:39:32Z</time>
      </trkpt>
      <trkpt lat="50.75478" lon="2.94806">
        <ele>19</ele>
        <time>2018-01-08T06:40:32Z</time>
      </trkpt>
      <trkpt lat="50.75462" lon="2.94816">
        <ele>19</ele>
        <time>2018-01-08T06:41:32Z</time>
      </trkpt>
      <trkpt lat="50.75414" lon="2.94823">
        <ele>18</ele>
        <time>2018-01-08T06:42:32Z</time>
      </trkpt>
      <trkpt lat="50.75387" lon="2.94825">
        <ele>19</ele>
        <time>2018-01-08T06:43:32Z</time>
      </trkpt>
      <trkpt lat="50.75355" lon="2.94824">
        <ele>19</ele>
        <time>2018-01-08T06:44:32Z</time>
      </trkpt>
      <trkpt lat="50.7534" lon="2.94825">
        <ele>20</ele>
        <time>2018-01-08T06:45:32Z</time>
      </trkpt>
      <trkpt lat="50.75335" lon="2.94827">
        <ele>20</ele>
        <time>2018-01-08T06:46:32Z</time>
      </trkpt>
      <trkpt lat="50.75329" lon="2.9483">
        <ele>20</ele>
        <time>2018-01-08T06:47:32Z</time>
      </trkpt>
      <trkpt lat="50.7532" lon="2.94836">
        <ele>20</ele>
        <time>2018-01-08T06:48:32Z</time>
      </trkpt>
      <trkpt lat="50.75308" lon="2.94847">
        <ele>20</ele>
        <time>2018-01-08T06:49:32Z</time>
      </trkpt>
      <trkpt lat="50.75295" lon="2.94861">
        <ele>21</ele>
        <time>2018-01-08T06:50:32Z</time>
      </trkpt>
      <trkpt lat="50.75287" lon="2.94871">
        <ele>21</ele>
        <time>2018-01-08T06:51:32Z</time>
      </trkpt>
      <trkpt lat="50.75282" lon="2.94881">
        <ele>21</ele>
        <time>2018-01-08T06:52:32Z</time>
      </trkpt>
      <trkpt lat="50.75274" lon="2.94897">
        <ele>21</ele>
        <time>2018-01-08T06:53:32Z</time>
      </trkpt>
      <trkpt lat="50.75263" lon="2.94911">
        <ele>21</ele>
        <time>2018-01-08T06:54:32Z</time>
      </trkpt>
      <trkpt lat="50.75254" lon="2.94923">
        <ele>21</ele>
        <time>2018-01-08T06:55:32Z</time>
      </trkpt>
      <trkpt lat="50.75243" lon="2.94935">
        <ele>21</ele>
        <time>2018-01-08T06:56:32Z</time>
      </trkpt>
      <trkpt lat="50.7519" lon="2.94996">
        <ele>17</ele>
        <time>2018-01-08T06:57:32Z</time>
      </trkpt>
      <trkpt lat="50.75172" lon="2.95021">
        <ele>16</ele>
        <time>2018-01-08T06:58:32Z</time>
      </trkpt>
      <trkpt lat="50.7517" lon="2.95024">
        <ele>16</ele>
        <time>2018-01-08T06:59:32Z</time>
      </trkpt>
      <trkpt lat="50.7517" lon="2.95025">
        <ele>16</ele>
        <time>2018-01-08T07:00:32Z</time>
      </trkpt>
      <trkpt lat="50.75154" lon="2.95047">
        <ele>15</ele>
        <time>2018-01-08T07:01:32Z</time>
      </trkpt>
      <trkpt lat="50.75154" lon="2.95047">
        <ele>15</ele>
        <time>2018-01-08T07:02:32Z</time>
      </trkpt>
      <trkpt lat="50.75143" lon="2.95062">
        <ele>14</ele>
        <time>2018-01-08T07:03:32Z</time>
      </trkpt>
      <trkpt lat="50.75139" lon="2.95067">
        <ele>14</ele>
        <time>2018-01-08T07:04:32Z</time>
      </trkpt>
      <trkpt lat="50.75102" lon="2.95122">
        <ele>13</ele>
        <time>2018-01-08T07:05:32Z</time>
      </trkpt>
      <trkpt lat="50.75095" lon="2.95131">
        <ele>13</ele>
        <time>2018-01-08T07:06:32Z</time>
      </trkpt>
      <trkpt lat="50.75089" lon="2.95139">
        <ele>13</ele>
        <time>2018-01-08T07:07:32Z</time>
      </trkpt>
      <trkpt lat="50.75077" lon="2.95152">
        <ele>13</ele>
        <time>2018-01-08T07:08:32Z</time>
      </trkpt>
      <trkpt lat="50.75066" lon="2.9516">
        <ele>13</ele>
        <time>2018-01-08T07:09:32Z</time>
      </trkpt>
      <trkpt lat="50.75053" lon="2.9517">
        <ele>13</ele>
        <time>2018-01-08T07:10:32Z</time>
      </trkpt>
      <trkpt lat="50.7504" lon="2.95179">
        <ele>12</ele>
        <time>2018-01-08T07:11:32Z</time>
      </trkpt>
      <trkpt lat="50.75025" lon="2.95188">
        <ele>12</ele>
        <time>2018-01-08T07:12:32Z</time>
      </trkpt>
      <trkpt lat="50.75017" lon="2.95193">
        <ele>12</ele>
        <time>2018-01-08T07:13:32Z</time>
      </trkpt>
      <trkpt lat="50.74974" lon="2.95219">
        <ele>12</ele>
        <time>2018-01-08T07:14:32Z</time>
      </trkpt>
      <trkpt lat="50.74966" lon="2.95224">
        <ele>12</ele>
        <time>2018-01-08T07:15:32Z</time>
      </trkpt>
      <trkpt lat="50.74954" lon="2.95231">
        <ele>11</ele>
        <time>2018-01-08T07:16:32Z</time>
      </trkpt>
      <trkpt lat="50.7494" lon="2.95239">
        <ele>11</ele>
        <time>2018-01-08T07:17:32Z</time>
      </trkpt>
      <trkpt lat="50.74931" lon="2.95244">
        <ele>11</ele>
        <time>2018-01-08T07:18:32Z</time>
      </trkpt>
      <trkpt lat="50.74927" lon="2.95247">
        <ele>11</ele>
        <time>2018-01-08T07:19:32Z</time>
      </trkpt>
      <trkpt lat="50.74908" lon="2.95253">
        <ele>11</ele>
        <time>2018-01-08T07:20:32Z</time>
      </trkpt>
      <trkpt lat="50.74892" lon="2.95256">
        <ele>12</ele>
        <time>2018-01-08T07:21:32Z</time>
      </trkpt>
      <trkpt lat="50.74876" lon="2.95258">
        <ele>12</ele>
        <time>2018-01-08T07:22:32Z</time>
      </trkpt>
      <trkpt lat="50.7486" lon="2.95257">
        <ele>12</ele>
        <time>2018-01-08T07:23:32Z</time>
      </trkpt>
      <trkpt lat="50.74853" lon="2.95257">
        <ele>13</ele>
        <time>2018-01-08T07:24:32Z</time>
      </trkpt>
      <trkpt lat="50.74841" lon="2.95256">
        <ele>13</ele>
        <time>2018-01-08T07:25:32Z</time>
      </trkpt>
      <trkpt lat="50.74838" lon="2.95256">
        <ele>13</ele>
        <time>2018-01-08T07:26:32Z</time>
      </trkpt>
      <trkpt lat="50.74811" lon="2.95254">
        <ele>13</ele>
        <time>2018-01-08T07:27:32Z</time>
      </trkpt>
      <trkpt lat="50.74798" lon="2.95255">
        <ele>13</ele>
        <time>2018-01-08T07:28:32Z</time>
      </trkpt>
      <trkpt lat="50.74783" lon="2.95259">
        <ele>14</ele>
        <time>2018-01-08T07:29:32Z</time>
      </trkpt>
      <trkpt lat="50.74778" lon="2.95261">
        <ele>14</ele>
        <time>2018-01-08T07:30:32Z</time>
      </trkpt>
      <trkpt lat="50.74758" lon="2.95272">
        <ele>14</ele>
        <time>2018-01-08T07:31:32Z</time>
      </trkpt>
      <trkpt lat="50.74698" lon="2.95292">
        <ele>14</ele>
        <time>2018-01-08T07:32:32Z</time>
      </trkpt>
      <trkpt lat="50.74642" lon="2.95312">
        <ele>14</ele>
        <time>2018-01-08T07:33:32Z</time>
      </trkpt>
      <trkpt lat="50.74636" lon="2.95315">
        <ele>14</ele>
        <time>2018-01-08T07:34:32Z</time>
      </trkpt>
      <trkpt lat="50.74627" lon="2.95315">
        <ele>14</ele>
        <time>2018-01-08T07:35:32Z</time>
      </trkpt>
      <trkpt lat="50.7457" lon="2.95334">
        <ele>14</ele>
        <time>2018-01-08T07:36:32Z</time>
      </trkpt>
      <trkpt lat="50.74534" lon="2.95348">
        <ele>14</ele>
        <time>2018-01-08T07:37:32Z</time>
      </trkpt>
      <trkpt lat="50.74511" lon="2.95357">
        <ele>14</ele>
        <time>2018-01-08T07:38:32Z</time>
      </trkpt>
      <trkpt lat="50.74503" lon="2.95362">
        <ele>14</ele>
        <time>2018-01-08T07:39:32Z</time>
      </trkpt>
      <trkpt lat="50.745" lon="2.95364">
        <ele>14</ele>
        <time>2018-01-08T07:40:32Z</time>
      </trkpt>
      <trkpt lat="50.74485" lon="2.95372">
        <ele>14</ele>
        <time>2018-01-08T07:41:32Z</time>
      </trkpt>
      <trkpt lat="50.74481" lon="2.95374">
        <ele>14</ele>
        <time>2018-01-08T07:42:32Z</time>
      </trkpt>
      <trkpt lat="50.74468" lon="2.95382">
        <ele>14</ele>
        <time>2018-01-08T07:43:32Z</time>
      </trkpt>
      <trkpt lat="50.74457" lon="2.95391">
        <ele>15</ele>
        <time>2018-01-08T07:44:32Z</time>
      </trkpt>
      <trkpt lat="50.74442" lon="2.95404">
        <ele>15</ele>
        <time>2018-01-08T07:45:32Z</time>
      </trkpt>
      <trkpt lat="50.74408" lon="2.95434">
        <ele>15</ele>
        <time>2018-01-08T07:46:32Z</time>
      </trkpt>
      <trkpt lat="50.74406" lon="2.95437">
        <ele>15</ele>
        <time>2018-01-08T07:47:32Z</time>
      </trkpt>
      <trkpt lat="50.74387" lon="2.95453">
        <ele>15</ele>
        <time>2018-01-08T07:48:32Z</time>
      </trkpt>
      <trkpt lat="50.74363" lon="2.95473">
        <ele>16</ele>
        <time>2018-01-08T07:49:32Z</time>
      </trkpt>
      <trkpt lat="50.74348" lon="2.95485">
        <ele>16</ele>
        <time>2018-01-08T07:50:32Z</time>
      </trkpt>
      <trkpt lat="50.74333" lon="2.95494">
        <ele>16</ele>
        <time>2018-01-08T07:51:32Z</time>
      </trkpt>
      <trkpt lat="50.74316" lon="2.95502">
        <ele>16</ele>
        <time>2018-01-08T07:52:32Z</time>
      </trkpt>
      <trkpt lat="50.74301" lon="2.95508">
        <ele>16</ele>
        <time>2018-01-08T07:53:32Z</time>
      </trkpt>
      <trkpt lat="50.74286" lon="2.95512">
        <ele>16</ele>
        <time>2018-01-08T07:54:32Z</time>
      </trkpt>
      <trkpt lat="50.74276" lon="2.95515">
        <ele>16</ele>
        <time>2018-01-08T07:55:32Z</time>
      </trkpt>
      <trkpt lat="50.74272" lon="2.95515">
        <ele>16</ele>
        <time>2018-01-08T07:56:32Z</time>
      </trkpt>
      <trkpt lat="50.74257" lon="2.95517">
        <ele>16</ele>
        <time>2018-01-08T07:57:32Z</time>
      </trkpt>
      <trkpt lat="50.74244" lon="2.95517">
        <ele>16</ele>
        <time>2018-01-08T07:58:32Z</time>
      </trkpt>
      <trkpt lat="50.74231" lon="2.95517">
        <ele>16</ele>
        <time>2018-01-08T07:59:32Z</time>
      </trkpt>
      <trkpt lat="50.74228" lon="2.95517">
        <ele>16</ele>
        <time>2018-01-08T08:00:32Z</time>
      </trkpt>
      <trkpt lat="50.74146" lon="2.95515">
        <ele>16</ele>
        <time>2018-01-08T08:01:32Z</time>
      </trkpt>
      <trkpt lat="50.74133" lon="2.95514">
        <ele>15</ele>
        <time>2018-01-08T08:02:32Z</time>
      </trkpt>
      <trkpt lat="50.74075" lon="2.95513">
        <ele>14</ele>
        <time>2018-01-08T08:03:32Z</time>
      </trkpt>
      <trkpt lat="50.74056" lon="2.95515">
        <ele>15</ele>
        <time>2018-01-08T08:04:32Z</time>
      </trkpt>
      <trkpt lat="50.74038" lon="2.95518">
        <ele>15</ele>
        <time>2018-01-08T08:05:32Z</time>
      </trkpt>
      <trkpt lat="50.74022" lon="2.95523">
        <ele>15</ele>
        <time>2018-01-08T08:06:32Z</time>
      </trkpt>
      <trkpt lat="50.74006" lon="2.9553">
        <ele>16</ele>
        <time>2018-01-08T08:07:32Z</time>
      </trkpt>
      <trkpt lat="50.73993" lon="2.95536">
        <ele>16</ele>
        <time>2018-01-08T08:08:32Z</time>
      </trkpt>
      <trkpt lat="50.7398" lon="2.95544">
        <ele>16</ele>
        <time>2018-01-08T08:09:32Z</time>
      </trkpt>
      <trkpt lat="50.73964" lon="2.95556">
        <ele>16</ele>
        <time>2018-01-08T08:10:32Z</time>
      </trkpt>
      <trkpt lat="50.73948" lon="2.9557">
        <ele>15</ele>
        <time>2018-01-08T08:11:32Z</time>
      </trkpt>
      <trkpt lat="50.73903" lon="2.95614">
        <ele>15</ele>
        <time>2018-01-08T08:12:32Z</time>
      </trkpt>
      <trkpt lat="50.73864" lon="2.95651">
        <ele>15</ele>
        <time>2018-01-08T08:13:32Z</time>
      </trkpt>
      <trkpt lat="50.73861" lon="2.95655">
        <ele>15</ele>
        <time>2018-01-08T08:14:32Z</time>
      </trkpt>
      <trkpt lat="50.73857" lon="2.95658">
        <ele>15</ele>
        <time>2018-01-08T08:15:32Z</time>
      </trkpt>
      <trkpt lat="50.73842" lon="2.95672">
        <ele>15</ele>
        <time>2018-01-08T08:16:32Z</time>
      </trkpt>
      <trkpt lat="50.7383" lon="2.95682">
        <ele>15</ele>
        <time>2018-01-08T08:17:32Z</time>
      </trkpt>
      <trkpt lat="50.73827" lon="2.95686">
        <ele>15</ele>
        <time>2018-01-08T08:18:32Z</time>
      </trkpt>
      <trkpt lat="50.73826" lon="2.95686">
        <ele>15</ele>
        <time>2018-01-08T08:19:32Z</time>
      </trkpt>
      <trkpt lat="50.73817" lon="2.95696">
        <ele>15</ele>
        <time>2018-01-08T08:20:32Z</time>
      </trkpt>
      <trkpt lat="50.73811" lon="2.95706">
        <ele>15</ele>
        <time>2018-01-08T08:21:32Z</time>
      </trkpt>
      <trkpt lat="50.73806" lon="2.95717">
        <ele>15</ele>
        <time>2018-01-08T08:22:32Z</time>
      </trkpt>
      <trkpt lat="50.73806" lon="2.95719">
        <ele>15</ele>
        <time>2018-01-08T08:23:32Z</time>
      </trkpt>
      <trkpt lat="50.73802" lon="2.95727">
        <ele>15</ele>
        <time>2018-01-08T08:24:32Z</time>
      </trkpt>
      <trkpt lat="50.73798" lon="2.95744">
        <ele>15</ele>
        <time>2018-01-08T08:25:32Z</time>
      </trkpt>
      <trkpt lat="50.73793" lon="2.95755">
        <ele>16</ele>
        <time>2018-01-08T08:26:32Z</time>
      </trkpt>
      <trkpt lat="50.73787" lon="2.95765">
        <ele>16</ele>
        <time>2018-01-08T08:27:32Z</time>
      </trkpt>
      <trkpt lat="50.73778" lon="2.95774">
        <ele>16</ele>
        <time>2018-01-08T08:28:32Z</time>
      </trkpt>
      <trkpt lat="50.73769" lon="2.9578">
        <ele>16</ele>
        <time>2018-01-08T08:29:32Z</time>
      </trkpt>
      <trkpt lat="50.73758" lon="2.95785">
        <ele>16</ele>
        <time>2018-01-08T08:30:32Z</time>
      </trkpt>
      <trkpt lat="50.73758" lon="2.95785">
        <ele>16</ele>
        <time>2018-01-08T08:31:32Z</time>
      </trkpt>
      <trkpt lat="50.73757" lon="2.95784">
        <ele>16</ele>
        <time>2018-01-08T08:32:32Z</time>
      </trkpt>
      <trkpt lat="50.73757" lon="2.95783">
        <ele>16</ele>
        <time>2018-01-08T08:33:32Z</time>
      </trkpt>
      <trkpt lat="50.73757" lon="2.95781">
        <ele>16</ele>
        <time>2018-01-08T08:34:32Z</time>
      </trkpt>
      <trkpt lat="50.73756" lon="2.9578">
        <ele>16</ele>
        <time>2018-01-08T08:35:32Z</time>
      </trkpt>
      <trkpt lat="50.73756" lon="2.95779">
        <ele>16</ele>
        <time>2018-01-08T08:36:32Z</time>
      </trkpt>
      <trkpt lat="50.73755" lon="2.95778">
        <ele>16</ele>
        <time>2018-01-08T08:37:32Z</time>
      </trkpt>
      <trkpt lat="50.73754" lon="2.95777">
        <ele>16</ele>
        <time>2018-01-08T08:38:32Z</time>
      </trkpt>
      <trkpt lat="50.73754" lon="2.95776">
        <ele>16</ele>
        <time>2018-01-08T08:39:32Z</time>
      </trkpt>
      <trkpt lat="50.73753" lon="2.95775">
        <ele>16</ele>
        <time>2018-01-08T08:40:32Z</time>
      </trkpt>
      <trkpt lat="50.73752" lon="2.95775">
        <ele>16</ele>
        <time>2018-01-08T08:41:32Z</time>
      </trkpt>
      <trkpt lat="50.73751" lon="2.95774">
        <ele>16</ele>
        <time>2018-01-08T08:42:32Z</time>
      </trkpt>
      <trkpt lat="50.7375" lon="2.95773">
        <ele>16</ele>
        <time>2018-01-08T08:43:32Z</time>
      </trkpt>
      <trkpt lat="50.73749" lon="2.95773">
        <ele>16</ele>
        <time>2018-01-08T08:44:32Z</time>
      </trkpt>
      <trkpt lat="50.73748" lon="2.95772">
        <ele>16</ele>
        <time>2018-01-08T08:45:32Z</time>
      </trkpt>
      <trkpt lat="50.73747" lon="2.95772">
        <ele>16</ele>
        <time>2018-01-08T08:46:32Z</time>
      </trkpt>
      <trkpt lat="50.73746" lon="2.95772">
        <ele>16</ele>
        <time>2018-01-08T08:47:32Z</time>
      </trkpt>
      <trkpt lat="50.73745" lon="2.95772">
        <ele>16</ele>
        <time>2018-01-08T08:48:32Z</time>
      </trkpt>
      <trkpt lat="50.73744" lon="2.95772">
        <ele>16</ele>
        <time>2018-01-08T08:49:32Z</time>
      </trkpt>
      <trkpt lat="50.73743" lon="2.95772">
        <ele>16</ele>
        <time>2018-01-08T08:50:32Z</time>
      </trkpt>
      <trkpt lat="50.73742" lon="2.95772">
        <ele>16</ele>
        <time>2018-01-08T08:51:32Z</time>
      </trkpt>
      <trkpt lat="50.73741" lon="2.95772">
        <ele>16</ele>
        <time>2018-01-08T08:52:32Z</time>
      </trkpt>
      <trkpt lat="50.7374" lon="2.95773">
        <ele>16</ele>
        <time>2018-01-08T08:53:32Z</time>
      </trkpt>
      <trkpt lat="50.73739" lon="2.95773">
        <ele>16</ele>
        <time>2018-01-08T08:54:32Z</time>
      </trkpt>
      <trkpt lat="50.73738" lon="2.95774">
        <ele>16</ele>
        <time>2018-01-08T08:55:32Z</time>
      </trkpt>
      <trkpt lat="50.73737" lon="2.95774">
        <ele>16</ele>
        <time>2018-01-08T08:56:32Z</time>
      </trkpt>
      <trkpt lat="50.73736" lon="2.95775">
        <ele>16</ele>
        <time>2018-01-08T08:57:32Z</time>
      </trkpt>
      <trkpt lat="50.73735" lon="2.95776">
        <ele>16</ele>
        <time>2018-01-08T08:58:32Z</time>
      </trkpt>
      <trkpt lat="50.73735" lon="2.95777">
        <ele>16</ele>
        <time>2018-01-08T08:59:32Z</time>
      </trkpt>
      <trkpt lat="50.73734" lon="2.95778">
        <ele>16</ele>
        <time>2018-01-08T09:00:32Z</time>
      </trkpt>
      <trkpt lat="50.73734" lon="2.95779">
        <ele>16</ele>
        <time>2018-01-08T09:01:32Z</time>
      </trkpt>
      <trkpt lat="50.73733" lon="2.9578">
        <ele>16</ele>
        <time>2018-01-08T09:02:32Z</time>
      </trkpt>
      <trkpt lat="50.73733" lon="2.95781">
        <ele>16</ele>
        <time>2018-01-08T09:03:32Z</time>
      </trkpt>
      <trkpt lat="50.73732" lon="2.95782">
        <ele>16</ele>
        <time>2018-01-08T09:04:32Z</time>
      </trkpt>
      <trkpt lat="50.73732" lon="2.95783">
        <ele>16</ele>
        <time>2018-01-08T09:05:32Z</time>
      </trkpt>
      <trkpt lat="50.73731" lon="2.95784">
        <ele>16</ele>
        <time>2018-01-08T09:06:32Z</time>
      </trkpt>
      <trkpt lat="50.73731" lon="2.95785">
        <ele>16</ele>
        <time>2018-01-08T09:07:32Z</time>
      </trkpt>
      <trkpt lat="50.73731" lon="2.95786">
        <ele>16</ele>
        <time>2018-01-08T09:08:32Z</time>
      </trkpt>
      <trkpt lat="50.7373" lon="2.95788">
        <ele>16</ele>
        <time>2018-01-08T09:09:32Z</time>
      </trkpt>
      <trkpt lat="50.7373" lon="2.95789">
        <ele>16</ele>
        <time>2018-01-08T09:10:32Z</time>
      </trkpt>
      <trkpt lat="50.7373" lon="2.9579">
        <ele>16</ele>
        <time>2018-01-08T09:11:32Z</time>
      </trkpt>
      <trkpt lat="50.7373" lon="2.95792">
        <ele>17</ele>
        <time>2018-01-08T09:12:32Z</time>
      </trkpt>
      <trkpt lat="50.7373" lon="2.95793">
        <ele>17</ele>
        <time>2018-01-08T09:13:32Z</time>
      </trkpt>
      <trkpt lat="50.7373" lon="2.95794">
        <ele>17</ele>
        <time>2018-01-08T09:14:32Z</time>
      </trkpt>
      <trkpt lat="50.7373" lon="2.95796">
        <ele>17</ele>
        <time>2018-01-08T09:15:32Z</time>
      </trkpt>
      <trkpt lat="50.73731" lon="2.95797">
        <ele>17</ele>
        <time>2018-01-08T09:16:32Z</time>
      </trkpt>
      <trkpt lat="50.73731" lon="2.95798">
        <ele>17</ele>
        <time>2018-01-08T09:17:32Z</time>
      </trkpt>
      <trkpt lat="50.73731" lon="2.958">
        <ele>17</ele>
        <time>2018-01-08T09:18:32Z</time>
      </trkpt>
      <trkpt lat="50.73731" lon="2.95801">
        <ele>17</ele>
        <time>2018-01-08T09:19:32Z</time>
      </trkpt>
      <trkpt lat="50.73732" lon="2.95802">
        <ele>17</ele>
        <time>2018-01-08T09:20:32Z</time>
      </trkpt>
      <trkpt lat="50.73732" lon="2.95804">
        <ele>17</ele>
        <time>2018-01-08T09:21:32Z</time>
      </trkpt>
      <trkpt lat="50.73733" lon="2.95805">
        <ele>17</ele>
        <time>2018-01-08T09:22:32Z</time>
      </trkpt>
      <trkpt lat="50.73733" lon="2.95806">
        <ele>17</ele>
        <time>2018-01-08T09:23:32Z</time>
      </trkpt>
      <trkpt lat="50.73734" lon="2.95808">
        <ele>17</ele>
        <time>2018-01-08T09:24:32Z</time>
      </trkpt>
      <trkpt lat="50.73734" lon="2.95809">
        <ele>17</ele>
        <time>2018-01-08T09:25:32Z</time>
      </trkpt>
      <trkpt lat="50.73735" lon="2.9581">
        <ele>17</ele>
        <time>2018-01-08T09:26:32Z</time>
      </trkpt>
      <trkpt lat="50.73736" lon="2.95811">
        <ele>17</ele>
        <time>2018-01-08T09:27:32Z</time>
      </trkpt>
      <trkpt lat="50.73737" lon="2.95812">
        <ele>17</ele>
        <time>2018-01-08T09:28:32Z</time>
      </trkpt>
      <trkpt lat="50.73738" lon="2.95813">
        <ele>17</ele>
        <time>2018-01-08T09:29:32Z</time>
      </trkpt>
      <trkpt lat="50.73739" lon="2.95814">
        <ele>17</ele>
        <time>2018-01-08T09:30:32Z</time>
      </trkpt>
      <trkpt lat="50.7374" lon="2.95814">
        <ele>17</ele>
        <time>2018-01-08T09:31:32Z</time>
      </trkpt>
      <trkpt lat="50.73741" lon="2.95815">
        <ele>17</ele>
        <time>2018-01-08T09:32:32Z</time>
      </trkpt>
      <trkpt lat="50.73742" lon="2.95815">
        <ele>17</ele>
        <time>2018-01-08T09:33:32Z</time>
      </trkpt>
      <trkpt lat="50.73746" lon="2.95827">
        <ele>17</ele>
        <time>2018-01-08T09:34:32Z</time>
      </trkpt>
      <trkpt lat="50.7375" lon="2.95838">
        <ele>17</ele>
        <time>2018-01-08T09:35:32Z</time>
      </trkpt>
      <trkpt lat="50.73754" lon="2.95858">
        <ele>17</ele>
        <time>2018-01-08T09:36:32Z</time>
      </trkpt>
      <trkpt lat="50.73759" lon="2.95877">
        <ele>17</ele>
        <time>2018-01-08T09:37:32Z</time>
      </trkpt>
      <trkpt lat="50.73764" lon="2.95893">
        <ele>17</ele>
        <time>2018-01-08T09:38:32Z</time>
      </trkpt>
      <trkpt lat="50.73768" lon="2.95901">
        <ele>17</ele>
        <time>2018-01-08T09:39:32Z</time>
      </trkpt>
      <trkpt lat="50.73772" lon="2.95914">
        <ele>16</ele>
        <time>2018-01-08T09:40:32Z</time>
      </trkpt>
      <trkpt lat="50.73777" lon="2.95928">
        <ele>16</ele>
        <time>2018-01-08T09:41:32Z</time>
      </trkpt>
      <trkpt lat="50.73789" lon="2.95968">
        <ele>16</ele>
        <time>2018-01-08T09:42:32Z</time>
      </trkpt>
      <trkpt lat="50.738" lon="2.96">
        <ele>16</ele>
        <time>2018-01-08T09:43:32Z</time>
      </trkpt>
      <trkpt lat="50.73812" lon="2.96038">
        <ele>16</ele>
        <time>2018-01-08T09:44:32Z</time>
      </trkpt>
      <trkpt lat="50.73827" lon="2.96074">
        <ele>16</ele>
        <time>2018-01-08T09:45:32Z</time>
      </trkpt>
      <trkpt lat="50.73849" lon="2.9612">
        <ele>16</ele>
        <time>2018-01-08T09:46:32Z</time>
      </trkpt>
      <trkpt lat="50.73876" lon="2.96171">
        <ele>17</ele>
        <time>2018-01-08T09:47:32Z</time>
      </trkpt>
      <trkpt lat="50.73904" lon="2.96216">
        <ele>17</ele>
        <time>2018-01-08T09:48:32Z</time>
      </trkpt>
      <trkpt lat="50.73927" lon="2.96248">
        <ele>17</ele>
        <time>2018-01-08T09:49:32Z</time>
      </trkpt>
      <trkpt lat="50.73938" lon="2.96262">
        <ele>17</ele>
        <time>2018-01-08T09:50:32Z</time>
      </trkpt>
      <trkpt lat="50.73953" lon="2.96284">
        <ele>17</ele>
        <time>2018-01-08T09:51:32Z</time>
      </trkpt>
      <trkpt lat="50.73974" lon="2.96316">
        <ele>17</ele>
        <time>2018-01-08T09:52:32Z</time>
      </trkpt>
      <trkpt lat="50.73984" lon="2.96329">
        <ele>18</ele>
        <time>2018-01-08T09:53:32Z</time>
      </trkpt>
      <trkpt lat="50.73993" lon="2.96343">
        <ele>18</ele>
        <time>2018-01-08T09:54:32Z</time>
      </trkpt>
      <trkpt lat="50.74006" lon="2.96362">
        <ele>18</ele>
        <time>2018-01-08T09:55:32Z</time>
      </trkpt>
      <trkpt lat="50.74023" lon="2.96391">
        <ele>17</ele>
        <time>2018-01-08T09:56:32Z</time>
      </trkpt>
      <trkpt lat="50.74036" lon="2.96415">
        <ele>17</ele>
        <time>2018-01-08T09:57:32Z</time>
      </trkpt>
      <trkpt lat="50.74051" lon="2.96445">
        <ele>16</ele>
        <time>2018-01-08T09:58:32Z</time>
      </trkpt>
      <trkpt lat="50.7406" lon="2.96464">
        <ele>16</ele>
        <time>2018-01-08T09:59:32Z</time>
      </trkpt>
      <trkpt lat="50.74069" lon="2.96486">
        <ele>16</ele>
        <time>2018-01-08T10:00:32Z</time>
      </trkpt>
      <trkpt lat="50.74083" lon="2.96521">
        <ele>16</ele>
        <time>2018-01-08T10:01:32Z</time>
      </trkpt>
      <trkpt lat="50.74083" lon="2.96523">
        <ele>16</ele>
        <time>2018-01-08T10:02:32Z</time>
      </trkpt>
      <trkpt lat="50.74091" lon="2.96543">
        <ele>16</ele>
        <time>2018-01-08T10:03:32Z</time>
      </trkpt>
      <trkpt lat="50.74095" lon="2.96553">
        <ele>16</ele>
        <time>2018-01-08T10:04:32Z</time>
      </trkpt>
      <trkpt lat="50.74106" lon="2.96581">
        <ele>16</ele>
        <time>2018-01-08T10:05:32Z</time>
      </trkpt>
      <trkpt lat="50.74122" lon="2.96616">
        <ele>16</ele>
        <time>2018-01-08T10:06:32Z</time>
      </trkpt>
      <trkpt lat="50.74146" lon="2.96669">
        <ele>17</ele>
        <time>2018-01-08T10:07:32Z</time>
      </trkpt>
      <trkpt lat="50.74159" lon="2.96694">
        <ele>18</ele>
        <time>2018-01-08T10:08:32Z</time>
      </trkpt>
      <trkpt lat="50.74174" lon="2.9672">
        <ele>17</ele>
        <time>2018-01-08T10:09:32Z</time>
      </trkpt>
      <trkpt lat="50.74184" lon="2.96734">
        <ele>17</ele>
        <time>2018-01-08T10:10:32Z</time>
      </trkpt>
      <trkpt lat="50.74192" lon="2.96745">
        <ele>17</ele>
        <time>2018-01-08T10:11:32Z</time>
      </trkpt>
      <trkpt lat="50.74213" lon="2.96774">
        <ele>17</ele>
        <time>2018-01-08T10:12:32Z</time>
      </trkpt>
      <trkpt lat="50.74216" lon="2.96778">
        <ele>17</ele>
        <time>2018-01-08T10:13:32Z</time>
      </trkpt>
      <trkpt lat="50.74233" lon="2.96801">
        <ele>16</ele>
        <time>2018-01-08T10:14:32Z</time>
      </trkpt>
      <trkpt lat="50.74256" lon="2.96831">
        <ele>16</ele>
        <time>2018-01-08T10:15:32Z</time>
      </trkpt>
      <trkpt lat="50.74275" lon="2.96861">
        <ele>16</ele>
        <time>2018-01-08T10:16:32Z</time>
      </trkpt>
      <trkpt lat="50.74276" lon="2.96863">
        <ele>16</ele>
        <time>2018-01-08T10:17:32Z</time>
      </trkpt>
      <trkpt lat="50.74306" lon="2.96913">
        <ele>16</ele>
        <time>2018-01-08T10:18:32Z</time>
      </trkpt>
      <trkpt lat="50.74342" lon="2.96971">
        <ele>17</ele>
        <time>2018-01-08T10:19:32Z</time>
      </trkpt>
      <trkpt lat="50.74377" lon="2.9703">
        <ele>16</ele>
        <time>2018-01-08T10:20:32Z</time>
      </trkpt>
      <trkpt lat="50.74396" lon="2.97067">
        <ele>16</ele>
        <time>2018-01-08T10:21:32Z</time>
      </trkpt>
      <trkpt lat="50.74407" lon="2.97086">
        <ele>16</ele>
        <time>2018-01-08T10:22:32Z</time>
      </trkpt>
      <trkpt lat="50.74422" lon="2.97107">
        <ele>16</ele>
        <time>2018-01-08T10:23:32Z</time>
      </trkpt>
      <trkpt lat="50.74452" lon="2.97145">
        <ele>16</ele>
        <time>2018-01-08T10:24:32Z</time>
      </trkpt>
      <trkpt lat="50.74471" lon="2.97168">
        <ele>16</ele>
        <time>2018-01-08T10:25:32Z</time>
      </trkpt>
      <trkpt lat="50.74478" lon="2.97178">
        <ele>16</ele>
        <time>2018-01-08T10:26:32Z</time>
      </trkpt>
      <trkpt lat="50.74485" lon="2.97188">
        <ele>16</ele>
        <time>2018-01-08T10:27:32Z</time>
      </trkpt>
      <trkpt lat="50.74492" lon="2.972">
        <ele>16</ele>
        <time>2018-01-08T10:28:32Z</time>
      </trkpt>
      <trkpt lat="50.74505" lon="2.97223">
        <ele>16</ele>
        <time>2018-01-08T10:29:32Z</time>
      </trkpt>
      <trkpt lat="50.7453" lon="2.97267">
        <ele>16</ele>
        <time>2018-01-08T10:30:32Z</time>
      </trkpt>
      <trkpt lat="50.74544" lon="2.97294">
        <ele>16</ele>
        <time>2018-01-08T10:31:32Z</time>
      </trkpt>
      <trkpt lat="50.74559" lon="2.97327">
        <ele>16</ele>
        <time>2018-01-08T10:32:32Z</time>
      </trkpt>
      <trkpt lat="50.74581" lon="2.97379">
        <ele>15</ele>
        <time>2018-01-08T10:33:32Z</time>
      </trkpt>
      <trkpt lat="50.74592" lon="2.97406">
        <ele>15</ele>
        <time>2018-01-08T10:34:32Z</time>
      </trkpt>
      <trkpt lat="50.74596" lon="2.97416">
        <ele>15</ele>
        <time>2018-01-08T10:35:32Z</time>
      </trkpt>
      <trkpt lat="50.74643" lon="2.97529">
        <ele>15</ele>
        <time>2018-01-08T10:36:32Z</time>
      </trkpt>
      <trkpt lat="50.74645" lon="2.97533">
        <ele>15</ele>
        <time>2018-01-08T10:37:32Z</time>
      </trkpt>
      <trkpt lat="50.74687" lon="2.9763">
        <ele>15</ele>
        <time>2018-01-08T10:38:32Z</time>
      </trkpt>
      <trkpt lat="50.74701" lon="2.97662">
        <ele>16</ele>
        <time>2018-01-08T10:39:32Z</time>
      </trkpt>
      <trkpt lat="50.74708" lon="2.97677">
        <ele>16</ele>
        <time>2018-01-08T10:40:32Z</time>
      </trkpt>
      <trkpt lat="50.74727" lon="2.97721">
        <ele>15</ele>
        <time>2018-01-08T10:41:32Z</time>
      </trkpt>
      <trkpt lat="50.74752" lon="2.97767">
        <ele>15</ele>
        <time>2018-01-08T10:42:32Z</time>
      </trkpt>
      <trkpt lat="50.74775" lon="2.97813">
        <ele>15</ele>
        <time>2018-01-08T10:43:32Z</time>
      </trkpt>
      <trkpt lat="50.74779" lon="2.97823">
        <ele>15</ele>
        <time>2018-01-08T10:44:32Z</time>
      </trkpt>
      <trkpt lat="50.74785" lon="2.97837">
        <ele>15</ele>
        <time>2018-01-08T10:45:32Z</time>
      </trkpt>
      <trkpt lat="50.74789" lon="2.97849">
        <ele>15</ele>
        <time>2018-01-08T10:46:32Z</time>
      </trkpt>
      <trkpt lat="50.74808" lon="2.97904">
        <ele>15</ele>
        <time>2018-01-08T10:47:32Z</time>
      </trkpt>
      <trkpt lat="50.74827" lon="2.97952">
        <ele>15</ele>
        <time>2018-01-08T10:48:32Z</time>
      </trkpt>
      <trkpt lat="50.74856" lon="2.98017">
        <ele>15</ele>
        <time>2018-01-08T10:49:32Z</time>
      </trkpt>
      <trkpt lat="50.74895" lon="2.98099">
        <ele>15</ele>
        <time>2018-01-08T10:50:32Z</time>
      </trkpt>
      <trkpt lat="50.74952" lon="2.9822">
        <ele>14</ele>
        <time>2018-01-08T10:51:32Z</time>
      </trkpt>
      <trkpt lat="50.74974" lon="2.98266">
        <ele>15</ele>
        <time>2018-01-08T10:52:32Z</time>
      </trkpt>
      <trkpt lat="50.74981" lon="2.98282">
        <ele>15</ele>
        <time>2018-01-08T10:53:32Z</time>
      </trkpt>
      <trkpt lat="50.74989" lon="2.98302">
        <ele>15</ele>
        <time>2018-01-08T10:54:32Z</time>
      </trkpt>
      <trkpt lat="50.74994" lon="2.98312">
        <ele>15</ele>
        <time>2018-01-08T10:55:32Z</time>
      </trkpt>
      <trkpt lat="50.74998" lon="2.98321">
        <ele>15</ele>
        <time>2018-01-08T10:56:32Z</time>
      </trkpt>
      <trkpt lat="50.75002" lon="2.98331">
        <ele>15</ele>
        <time>2018-01-08T10:57:32Z</time>
      </trkpt>
      <trkpt lat="50.75006" lon="2.9834">
        <ele>15</ele>
        <time>2018-01-08T10:58:32Z</time>
      </trkpt>
      <trkpt lat="50.75009" lon="2.98349">
        <ele>15</ele>
        <time>2018-01-08T10:59:32Z</time>
      </trkpt>
      <trkpt lat="50.75012" lon="2.98358">
        <ele>15</ele>
        <time>2018-01-08T11:00:32Z</time>
      </trkpt>
      <trkpt lat="50.75014" lon="2.98367">
        <ele>15</ele>
        <time>2018-01-08T11:01:32Z</time>
      </trkpt>
      <trkpt lat="50.75017" lon="2.98375">
        <ele>15</ele>
        <time>2018-01-08T11:02:32Z</time>
      </trkpt>
      <trkpt lat="50.75019" lon="2.98384">
        <ele>15</ele>
        <time>2018-01-08T11:03:32Z</time>
      </trkpt>
      <trkpt lat="50.7502" lon="2.98386">
        <ele>15</ele>
        <time>2018-01-08T11:04:32Z</time>
      </trkpt>
      <trkpt lat="50.75024" lon="2.98414">
        <ele>15</ele>
        <time>2018-01-08T11:05:32Z</time>
      </trkpt>
      <trkpt lat="50.75025" lon="2.98427">
        <ele>15</ele>
        <time>2018-01-08T11:06:32Z</time>
      </trkpt>
      <trkpt lat="50.75025" lon="2.98445">
        <ele>15</ele>
        <time>2018-01-08T11:07:32Z</time>
      </trkpt>
      <trkpt lat="50.75025" lon="2.98449">
        <ele>15</ele>
        <time>2018-01-08T11:08:32Z</time>
      </trkpt>
      <trkpt lat="50.75024" lon="2.98453">
        <ele>15</ele>
        <time>2018-01-08T11:09:32Z</time>
      </trkpt>
      <trkpt lat="50.75023" lon="2.98458">
        <ele>15</ele>
        <time>2018-01-08T11:10:32Z</time>
      </trkpt>
      <trkpt lat="50.75021" lon="2.98463">
        <ele>15</ele>
        <time>2018-01-08T11:11:32Z</time>
      </trkpt>
      <trkpt lat="50.75019" lon="2.98468">
        <ele>15</ele>
        <time>2018-01-08T11:12:32Z</time>
      </trkpt>
      <trkpt lat="50.75014" lon="2.98482">
        <ele>15</ele>
        <time>2018-01-08T11:13:32Z</time>
      </trkpt>
      <trkpt lat="50.75014" lon="2.98484">
        <ele>15</ele>
        <time>2018-01-08T11:14:32Z</time>
      </trkpt>
      <trkpt lat="50.75013" lon="2.98489">
        <ele>15</ele>
        <time>2018-01-08T11:15:32Z</time>
      </trkpt>
      <trkpt lat="50.75012" lon="2.98495">
        <ele>15</ele>
        <time>2018-01-08T11:16:32Z</time>
      </trkpt>
      <trkpt lat="50.75013" lon="2.98501">
        <ele>15</ele>
        <time>2018-01-08T11:17:32Z</time>
      </trkpt>
      <trkpt lat="50.75015" lon="2.98507">
        <ele>15</ele>
        <time>2018-01-08T11:18:32Z</time>
      </trkpt>
      <trkpt lat="50.75017" lon="2.9851">
        <ele>15</ele>
        <time>2018-01-08T11:19:32Z</time>
      </trkpt>
      <trkpt lat="50.75018" lon="2.98512">
        <ele>15</ele>
        <time>2018-01-08T11:20:32Z</time>
      </trkpt>
      <trkpt lat="50.75021" lon="2.98517">
        <ele>15</ele>
        <time>2018-01-08T11:21:32Z</time>
      </trkpt>
      <trkpt lat="50.75025" lon="2.98521">
        <ele>15</ele>
        <time>2018-01-08T11:22:32Z</time>
      </trkpt>
      <trkpt lat="50.75027" lon="2.98522">
        <ele>15</ele>
        <time>2018-01-08T11:23:32Z</time>
      </trkpt>
      <trkpt lat="50.75028" lon="2.98524">
        <ele>15</ele>
        <time>2018-01-08T11:24:32Z</time>
      </trkpt>
      <trkpt lat="50.7503" lon="2.98528">
        <ele>15</ele>
        <time>2018-01-08T11:25:32Z</time>
      </trkpt>
      <trkpt lat="50.75032" lon="2.98532">
        <ele>15</ele>
        <time>2018-01-08T11:26:32Z</time>
      </trkpt>
      <trkpt lat="50.75034" lon="2.98537">
        <ele>15</ele>
        <time>2018-01-08T11:27:32Z</time>
      </trkpt>
      <trkpt lat="50.75036" lon="2.98542">
        <ele>15</ele>
        <time>2018-01-08T11:28:32Z</time>
      </trkpt>
      <trkpt lat="50.75038" lon="2.98548">
        <ele>15</ele>
        <time>2018-01-08T11:29:32Z</time>
      </trkpt>
      <trkpt lat="50.75039" lon="2.98554">
        <ele>15</ele>
        <time>2018-01-08T11:30:32Z</time>
      </trkpt>
      <trkpt lat="50.75041" lon="2.98561">
        <ele>15</ele>
        <time>2018-01-08T11:31:32Z</time>
      </trkpt>
      <trkpt lat="50.75042" lon="2.98567">
        <ele>16</ele>
        <time>2018-01-08T11:32:32Z</time>
      </trkpt>
      <trkpt lat="50.75043" lon="2.98574">
        <ele>16</ele>
        <time>2018-01-08T11:33:32Z</time>
      </trkpt>
      <trkpt lat="50.75044" lon="2.98578">
        <ele>16</ele>
        <time>2018-01-08T11:34:32Z</time>
      </trkpt>
      <trkpt lat="50.75044" lon="2.98581">
        <ele>16</ele>
        <time>2018-01-08T11:35:32Z</time>
      </trkpt>
      <trkpt lat="50.75045" lon="2.98589">
        <ele>16</ele>
        <time>2018-01-08T11:36:32Z</time>
      </trkpt>
      <trkpt lat="50.75049" lon="2.9862">
        <ele>15</ele>
        <time>2018-01-08T11:37:32Z</time>
      </trkpt>
      <trkpt lat="50.7505" lon="2.98627">
        <ele>15</ele>
        <time>2018-01-08T11:38:32Z</time>
      </trkpt>
      <trkpt lat="50.7505" lon="2.98634">
        <ele>15</ele>
        <time>2018-01-08T11:39:32Z</time>
      </trkpt>
      <trkpt lat="50.75051" lon="2.98642">
        <ele>15</ele>
        <time>2018-01-08T11:40:32Z</time>
      </trkpt>
      <trkpt lat="50.75052" lon="2.98651">
        <ele>15</ele>
        <time>2018-01-08T11:41:32Z</time>
      </trkpt>
      <trkpt lat="50.75053" lon="2.9866">
        <ele>15</ele>
        <time>2018-01-08T11:42:32Z</time>
      </trkpt>
      <trkpt lat="50.75054" lon="2.9867">
        <ele>15</ele>
        <time>2018-01-08T11:43:32Z</time>
      </trkpt>
      <trkpt lat="50.75055" lon="2.9868">
        <ele>15</ele>
        <time>2018-01-08T11:44:32Z</time>
      </trkpt>
      <trkpt lat="50.75056" lon="2.9869">
        <ele>15</ele>
        <time>2018-01-08T11:45:32Z</time>
      </trkpt>
      <trkpt lat="50.75056" lon="2.987">
        <ele>15</ele>
        <time>2018-01-08T11:46:32Z</time>
      </trkpt>
      <trkpt lat="50.75057" lon="2.98712">
        <ele>15</ele>
        <time>2018-01-08T11:47:32Z</time>
      </trkpt>
      <trkpt lat="50.75058" lon="2.98724">
        <ele>15</ele>
        <time>2018-01-08T11:48:32Z</time>
      </trkpt>
      <trkpt lat="50.75059" lon="2.98737">
        <ele>15</ele>
        <time>2018-01-08T11:49:32Z</time>
      </trkpt>
      <trkpt lat="50.75059" lon="2.9875">
        <ele>15</ele>
        <time>2018-01-08T11:50:32Z</time>
      </trkpt>
      <trkpt lat="50.7506" lon="2.98763">
        <ele>15</ele>
        <time>2018-01-08T11:51:32Z</time>
      </trkpt>
      <trkpt lat="50.75061" lon="2.98777">
        <ele>15</ele>
        <time>2018-01-08T11:52:32Z</time>
      </trkpt>
      <trkpt lat="50.75061" lon="2.9879">
        <ele>15</ele>
        <time>2018-01-08T11:53:32Z</time>
      </trkpt>
      <trkpt lat="50.75062" lon="2.98805">
        <ele>15</ele>
        <time>2018-01-08T11:54:32Z</time>
      </trkpt>
      <trkpt lat="50.75062" lon="2.9882">
        <ele>15</ele>
        <time>2018-01-08T11:55:32Z</time>
      </trkpt>
      <trkpt lat="50.75062" lon="2.98834">
        <ele>15</ele>
        <time>2018-01-08T11:56:32Z</time>
      </trkpt>
      <trkpt lat="50.75063" lon="2.98849">
        <ele>16</ele>
        <time>2018-01-08T11:57:32Z</time>
      </trkpt>
      <trkpt lat="50.75063" lon="2.98864">
        <ele>16</ele>
        <time>2018-01-08T11:58:32Z</time>
      </trkpt>
      <trkpt lat="50.75064" lon="2.9888">
        <ele>16</ele>
        <time>2018-01-08T11:59:32Z</time>
      </trkpt>
      <trkpt lat="50.75064" lon="2.98895">
        <ele>16</ele>
        <time>2018-01-08T12:00:32Z</time>
      </trkpt>
      <trkpt lat="50.75065" lon="2.9891">
        <ele>16</ele>
        <time>2018-01-08T12:01:32Z</time>
      </trkpt>
      <trkpt lat="50.75065" lon="2.98926">
        <ele>16</ele>
        <time>2018-01-08T12:02:32Z</time>
      </trkpt>
      <trkpt lat="50.75066" lon="2.98941">
        <ele>16</ele>
        <time>2018-01-08T12:03:32Z</time>
      </trkpt>
      <trkpt lat="50.75066" lon="2.98956">
        <ele>16</ele>
        <time>2018-01-08T12:04:32Z</time>
      </trkpt>
      <trkpt lat="50.75066" lon="2.98971">
        <ele>16</ele>
        <time>2018-01-08T12:05:32Z</time>
      </trkpt>
      <trkpt lat="50.75067" lon="2.98986">
        <ele>17</ele>
        <time>2018-01-08T12:06:32Z</time>
      </trkpt>
      <trkpt lat="50.75067" lon="2.99001">
        <ele>17</ele>
        <time>2018-01-08T12:07:32Z</time>
      </trkpt>
      <trkpt lat="50.75068" lon="2.99015">
        <ele>17</ele>
        <time>2018-01-08T12:08:32Z</time>
      </trkpt>
      <trkpt lat="50.75068" lon="2.99029">
        <ele>17</ele>
        <time>2018-01-08T12:09:32Z</time>
      </trkpt>
      <trkpt lat="50.75069" lon="2.99042">
        <ele>17</ele>
        <time>2018-01-08T12:10:32Z</time>
      </trkpt>
      <trkpt lat="50.75069" lon="2.99055">
        <ele>17</ele>
        <time>2018-01-08T12:11:32Z</time>
      </trkpt>
      <trkpt lat="50.75069" lon="2.99068">
        <ele>17</ele>
        <time>2018-01-08T12:12:32Z</time>
      </trkpt>
      <trkpt lat="50.7507" lon="2.9908">
        <ele>17</ele>
        <time>2018-01-08T12:13:32Z</time>
      </trkpt>
      <trkpt lat="50.7507" lon="2.99092">
        <ele>17</ele>
        <time>2018-01-08T12:14:32Z</time>
      </trkpt>
      <trkpt lat="50.7507" lon="2.99104">
        <ele>17</ele>
        <time>2018-01-08T12:15:32Z</time>
      </trkpt>
      <trkpt lat="50.75071" lon="2.99115">
        <ele>17</ele>
        <time>2018-01-08T12:16:32Z</time>
      </trkpt>
      <trkpt lat="50.75071" lon="2.99126">
        <ele>16</ele>
        <time>2018-01-08T12:17:32Z</time>
      </trkpt>
      <trkpt lat="50.75071" lon="2.99138">
        <ele>16</ele>
        <time>2018-01-08T12:18:32Z</time>
      </trkpt>
      <trkpt lat="50.75071" lon="2.9915">
        <ele>16</ele>
        <time>2018-01-08T12:19:32Z</time>
      </trkpt>
      <trkpt lat="50.75071" lon="2.99162">
        <ele>16</ele>
        <time>2018-01-08T12:20:32Z</time>
      </trkpt>
      <trkpt lat="50.7507" lon="2.99174">
        <ele>16</ele>
        <time>2018-01-08T12:21:32Z</time>
      </trkpt>
      <trkpt lat="50.7507" lon="2.99187">
        <ele>16</ele>
        <time>2018-01-08T12:22:32Z</time>
      </trkpt>
      <trkpt lat="50.7507" lon="2.992">
        <ele>16</ele>
        <time>2018-01-08T12:23:32Z</time>
      </trkpt>
      <trkpt lat="50.7507" lon="2.99213">
        <ele>16</ele>
        <time>2018-01-08T12:24:32Z</time>
      </trkpt>
      <trkpt lat="50.7507" lon="2.99226">
        <ele>16</ele>
        <time>2018-01-08T12:25:32Z</time>
      </trkpt>
      <trkpt lat="50.7507" lon="2.99241">
        <ele>16</ele>
        <time>2018-01-08T12:26:32Z</time>
      </trkpt>
      <trkpt lat="50.7507" lon="2.99255">
        <ele>16</ele>
        <time>2018-01-08T12:27:32Z</time>
      </trkpt>
      <trkpt lat="50.7507" lon="2.9927">
        <ele>16</ele>
        <time>2018-01-08T12:28:32Z</time>
      </trkpt>
      <trkpt lat="50.75071" lon="2.99284">
        <ele>16</ele>
        <time>2018-01-08T12:29:32Z</time>
      </trkpt>
      <trkpt lat="50.75071" lon="2.99299">
        <ele>16</ele>
        <time>2018-01-08T12:30:32Z</time>
      </trkpt>
      <trkpt lat="50.75071" lon="2.99313">
        <ele>16</ele>
        <time>2018-01-08T12:31:32Z</time>
      </trkpt>
      <trkpt lat="50.75072" lon="2.99327">
        <ele>16</ele>
        <time>2018-01-08T12:32:32Z</time>
      </trkpt>
      <trkpt lat="50.75072" lon="2.99342">
        <ele>16</ele>
        <time>2018-01-08T12:33:32Z</time>
      </trkpt>
      <trkpt lat="50.75072" lon="2.99356">
        <ele>16</ele>
        <time>2018-01-08T12:34:32Z</time>
      </trkpt>
      <trkpt lat="50.75073" lon="2.99369">
        <ele>16</ele>
        <time>2018-01-08T12:35:32Z</time>
      </trkpt>
      <trkpt lat="50.75074" lon="2.99383">
        <ele>16</ele>
        <time>2018-01-08T12:36:32Z</time>
      </trkpt>
      <trkpt lat="50.75074" lon="2.99397">
        <ele>16</ele>
        <time>2018-01-08T12:37:32Z</time>
      </trkpt>
      <trkpt lat="50.75074" lon="2.99411">
        <ele>16</ele>
        <time>2018-01-08T12:38:32Z</time>
      </trkpt>
      <trkpt lat="50.75075" lon="2.99424">
        <ele>16</ele>
        <time>2018-01-08T12:39:32Z</time>
      </trkpt>
      <trkpt lat="50.75075" lon="2.99438">
        <ele>17</ele>
        <time>2018-01-08T12:40:32Z</time>
      </trkpt>
      <trkpt lat="50.75076" lon="2.99451">
        <ele>17</ele>
        <time>2018-01-08T12:41:32Z</time>
      </trkpt>
      <trkpt lat="50.75076" lon="2.99465">
        <ele>17</ele>
        <time>2018-01-08T12:42:32Z</time>
      </trkpt>
      <trkpt lat="50.75076" lon="2.9948">
        <ele>17</ele>
        <time>2018-01-08T12:43:32Z</time>
      </trkpt>
      <trkpt lat="50.75077" lon="2.99494">
        <ele>17</ele>
        <time>2018-01-08T12:44:32Z</time>
      </trkpt>
      <trkpt lat="50.75077" lon="2.99507">
        <ele>17</ele>
        <time>2018-01-08T12:45:32Z</time>
      </trkpt>
      <trkpt lat="50.75078" lon="2.99519">
        <ele>17</ele>
        <time>2018-01-08T12:46:32Z</time>
      </trkpt>
      <trkpt lat="50.75078" lon="2.99532">
        <ele>17</ele>
        <time>2018-01-08T12:47:32Z</time>
      </trkpt>
      <trkpt lat="50.75078" lon="2.99545">
        <ele>17</ele>
        <time>2018-01-08T12:48:32Z</time>
      </trkpt>
      <trkpt lat="50.75079" lon="2.99558">
        <ele>17</ele>
        <time>2018-01-08T12:49:32Z</time>
      </trkpt>
      <trkpt lat="50.75079" lon="2.99571">
        <ele>17</ele>
        <time>2018-01-08T12:50:32Z</time>
      </trkpt>
      <trkpt lat="50.7508" lon="2.99585">
        <ele>17</ele>
        <time>2018-01-08T12:51:32Z</time>
      </trkpt>
      <trkpt lat="50.7508" lon="2.99598">
        <ele>17</ele>
        <time>2018-01-08T12:52:32Z</time>
      </trkpt>
      <trkpt lat="50.75081" lon="2.99611">
        <ele>17</ele>
        <time>2018-01-08T12:53:32Z</time>
      </trkpt>
      <trkpt lat="50.75082" lon="2.99624">
        <ele>17</ele>
        <time>2018-01-08T12:54:32Z</time>
      </trkpt>
      <trkpt lat="50.75083" lon="2.99637">
        <ele>16</ele>
        <time>2018-01-08T12:55:32Z</time>
      </trkpt>
      <trkpt lat="50.75084" lon="2.9965">
        <ele>16</ele>
        <time>2018-01-08T12:56:32Z</time>
      </trkpt>
      <trkpt lat="50.75085" lon="2.99663">
        <ele>16</ele>
        <time>2018-01-08T12:57:32Z</time>
      </trkpt>
      <trkpt lat="50.75086" lon="2.99675">
        <ele>16</ele>
        <time>2018-01-08T12:58:32Z</time>
      </trkpt>
      <trkpt lat="50.75087" lon="2.99684">
        <ele>16</ele>
        <time>2018-01-08T12:59:32Z</time>
      </trkpt>
      <trkpt lat="50.75087" lon="2.99687">
        <ele>16</ele>
        <time>2018-01-08T13:00:32Z</time>
      </trkpt>
      <trkpt lat="50.75088" lon="2.997">
        <ele>16</ele>
        <time>2018-01-08T13:01:32Z</time>
      </trkpt>
      <trkpt lat="50.75088" lon="2.99712">
        <ele>16</ele>
        <time>2018-01-08T13:02:32Z</time>
      </trkpt>
      <trkpt lat="50.75089" lon="2.99725">
        <ele>16</ele>
        <time>2018-01-08T13:03:32Z</time>
      </trkpt>
      <trkpt lat="50.75089" lon="2.99738">
        <ele>16</ele>
        <time>2018-01-08T13:04:32Z</time>
      </trkpt>
      <trkpt lat="50.7509" lon="2.99751">
        <ele>16</ele>
        <time>2018-01-08T13:05:32Z</time>
      </trkpt>
      <trkpt lat="50.7509" lon="2.99765">
        <ele>16</ele>
        <time>2018-01-08T13:06:32Z</time>
      </trkpt>
      <trkpt lat="50.7509" lon="2.99778">
        <ele>16</ele>
        <time>2018-01-08T13:07:32Z</time>
      </trkpt>
      <trkpt lat="50.75091" lon="2.99791">
        <ele>16</ele>
        <time>2018-01-08T13:08:32Z</time>
      </trkpt>
      <trkpt lat="50.75091" lon="2.99805">
        <ele>15</ele>
        <time>2018-01-08T13:09:32Z</time>
      </trkpt>
      <trkpt lat="50.75092" lon="2.99819">
        <ele>15</ele>
        <time>2018-01-08T13:10:32Z</time>
      </trkpt>
      <trkpt lat="50.75092" lon="2.99832">
        <ele>15</ele>
        <time>2018-01-08T13:11:32Z</time>
      </trkpt>
      <trkpt lat="50.75092" lon="2.99846">
        <ele>15</ele>
        <time>2018-01-08T13:12:32Z</time>
      </trkpt>
      <trkpt lat="50.75093" lon="2.9986">
        <ele>15</ele>
        <time>2018-01-08T13:13:32Z</time>
      </trkpt>
      <trkpt lat="50.75093" lon="2.99874">
        <ele>15</ele>
        <time>2018-01-08T13:14:32Z</time>
      </trkpt>
      <trkpt lat="50.75094" lon="2.99888">
        <ele>15</ele>
        <time>2018-01-08T13:15:32Z</time>
      </trkpt>
      <trkpt lat="50.75094" lon="2.99903">
        <ele>15</ele>
        <time>2018-01-08T13:16:32Z</time>
      </trkpt>
      <trkpt lat="50.75095" lon="2.99917">
        <ele>15</ele>
        <time>2018-01-08T13:17:32Z</time>
      </trkpt>
      <trkpt lat="50.75095" lon="2.99931">
        <ele>15</ele>
        <time>2018-01-08T13:18:32Z</time>
      </trkpt>
      <trkpt lat="50.75095" lon="2.99946">
        <ele>15</ele>
        <time>2018-01-08T13:19:32Z</time>
      </trkpt>
      <trkpt lat="50.75096" lon="2.9996">
        <ele>15</ele>
        <time>2018-01-08T13:20:32Z</time>
      </trkpt>
      <trkpt lat="50.75096" lon="2.99975">
        <ele>15</ele>
        <time>2018-01-08T13:21:32Z</time>
      </trkpt>
      <trkpt lat="50.75097" lon="2.99991">
        <ele>15</ele>
        <time>2018-01-08T13:22:32Z</time>
      </trkpt>
      <trkpt lat="50.75097" lon="3.00006">
        <ele>15</ele>
        <time>2018-01-08T13:23:32Z</time>
      </trkpt>
      <trkpt lat="50.75098" lon="3.00022">
        <ele>15</ele>
        <time>2018-01-08T13:24:32Z</time>
      </trkpt>
      <trkpt lat="50.75098" lon="3.00038">
        <ele>15</ele>
        <time>2018-01-08T13:25:32Z</time>
      </trkpt>
      <trkpt lat="50.75099" lon="3.00054">
        <ele>15</ele>
        <time>2018-01-08T13:26:32Z</time>
      </trkpt>
      <trkpt lat="50.75099" lon="3.0007">
        <ele>15</ele>
        <time>2018-01-08T13:27:32Z</time>
      </trkpt>
      <trkpt lat="50.751" lon="3.00086">
        <ele>15</ele>
        <time>2018-01-08T13:28:32Z</time>
      </trkpt>
      <trkpt lat="50.751" lon="3.00102">
        <ele>15</ele>
        <time>2018-01-08T13:29:32Z</time>
      </trkpt>
      <trkpt lat="50.751" lon="3.00118">
        <ele>15</ele>
        <time>2018-01-08T13:30:32Z</time>
      </trkpt>
      <trkpt lat="50.75101" lon="3.00135">
        <ele>15</ele>
        <time>2018-01-08T13:31:32Z</time>
      </trkpt>
      <trkpt lat="50.75101" lon="3.00151">
        <ele>15</ele>
        <time>2018-01-08T13:32:32Z</time>
      </trkpt>
      <trkpt lat="50.75102" lon="3.00167">
        <ele>15</ele>
        <time>2018-01-08T13:33:32Z</time>
      </trkpt>
      <trkpt lat="50.75102" lon="3.00183">
        <ele>15</ele>
        <time>2018-01-08T13:34:32Z</time>
      </trkpt>
      <trkpt lat="50.75103" lon="3.00199">
        <ele>15</ele>
        <time>2018-01-08T13:35:32Z</time>
      </trkpt>
      <trkpt lat="50.75103" lon="3.00213">
        <ele>15</ele>
        <time>2018-01-08T13:36:32Z</time>
      </trkpt>
      <trkpt lat="50.75104" lon="3.00227">
        <ele>16</ele>
        <time>2018-01-08T13:37:32Z</time>
      </trkpt>
      <trkpt lat="50.75104" lon="3.0024">
        <ele>16</ele>
        <time>2018-01-08T13:38:32Z</time>
      </trkpt>
      <trkpt lat="50.75104" lon="3.00252">
        <ele>16</ele>
        <time>2018-01-08T13:39:32Z</time>
      </trkpt>
      <trkpt lat="50.75105" lon="3.00264">
        <ele>16</ele>
        <time>2018-01-08T13:40:32Z</time>
      </trkpt>
      <trkpt lat="50.75105" lon="3.00275">
        <ele>16</ele>
        <time>2018-01-08T13:41:32Z</time>
      </trkpt>
      <trkpt lat="50.75105" lon="3.00285">
        <ele>16</ele>
        <time>2018-01-08T13:42:32Z</time>
      </trkpt>
      <trkpt lat="50.75106" lon="3.00295">
        <ele>16</ele>
        <time>2018-01-08T13:43:32Z</time>
      </trkpt>
      <trkpt lat="50.75106" lon="3.00304">
        <ele>16</ele>
        <time>2018-01-08T13:44:32Z</time>
      </trkpt>
      <trkpt lat="50.75106" lon="3.00312">
        <ele>16</ele>
        <time>2018-01-08T13:45:32Z</time>
      </trkpt>
      <trkpt lat="50.75106" lon="3.00317">
        <ele>17</ele>
        <time>2018-01-08T13:46:32Z</time>
      </trkpt>
      <trkpt lat="50.75107" lon="3.00339">
        <ele>17</ele>
        <time>2018-01-08T13:47:32Z</time>
      </trkpt>
      <trkpt lat="50.75106" lon="3.00318">
        <ele>17</ele>
        <time>2018-01-08T13:48:32Z</time>
      </trkpt>
      <trkpt lat="50.75107" lon="3.0034">
        <ele>17</ele>
        <time>2018-01-08T13:49:32Z</time>
      </trkpt>
      <trkpt lat="50.75107" lon="3.00342">
        <ele>17</ele>
        <time>2018-01-08T13:50:32Z</time>
      </trkpt>
      <trkpt lat="50.75107" lon="3.00346">
        <ele>17</ele>
        <time>2018-01-08T13:51:32Z</time>
      </trkpt>
      <trkpt lat="50.75107" lon="3.00352">
        <ele>17</ele>
        <time>2018-01-08T13:52:32Z</time>
      </trkpt>
      <trkpt lat="50.75107" lon="3.00358">
        <ele>17</ele>
        <time>2018-01-08T13:53:32Z</time>
      </trkpt>
      <trkpt lat="50.75108" lon="3.00366">
        <ele>17</ele>
        <time>2018-01-08T13:54:32Z</time>
      </trkpt>
      <trkpt lat="50.75108" lon="3.00367">
        <ele>17</ele>
        <time>2018-01-08T13:55:32Z</time>
      </trkpt>
      <trkpt lat="50.75108" lon="3.00373">
        <ele>17</ele>
        <time>2018-01-08T13:56:32Z</time>
      </trkpt>
      <trkpt lat="50.75108" lon="3.00378">
        <ele>17</ele>
        <time>2018-01-08T13:57:32Z</time>
      </trkpt>
      <trkpt lat="50.75108" lon="3.0038">
        <ele>17</ele>
        <time>2018-01-08T13:58:32Z</time>
      </trkpt>
      <trkpt lat="50.75108" lon="3.00387">
        <ele>17</ele>
        <time>2018-01-08T13:59:32Z</time>
      </trkpt>
      <trkpt lat="50.75108" lon="3.00394">
        <ele>17</ele>
        <time>2018-01-08T14:00:32Z</time>
      </trkpt>
      <trkpt lat="50.75109" lon="3.004">
        <ele>17</ele>
        <time>2018-01-08T14:01:32Z</time>
      </trkpt>
      <trkpt lat="50.75109" lon="3.00405">
        <ele>17</ele>
        <time>2018-01-08T14:02:32Z</time>
      </trkpt>
      <trkpt lat="50.75109" lon="3.00408">
        <ele>17</ele>
        <time>2018-01-08T14:03:32Z</time>
      </trkpt>
      <trkpt lat="50.75109" lon="3.00409">
        <ele>17</ele>
        <time>2018-01-08T14:04:32Z</time>
      </trkpt>
      <trkpt lat="50.75109" lon="3.0041">
        <ele>17</ele>
        <time>2018-01-08T14:05:32Z</time>
      </trkpt>
      <trkpt lat="50.75109" lon="3.00411">
        <ele>17</ele>
        <time>2018-01-08T14:06:32Z</time>
      </trkpt>
      <trkpt lat="50.75109" lon="3.00415">
        <ele>17</ele>
        <time>2018-01-08T14:07:32Z</time>
      </trkpt>
      <trkpt lat="50.75109" lon="3.0042">
        <ele>17</ele>
        <time>2018-01-08T14:08:32Z</time>
      </trkpt>
      <trkpt lat="50.75109" lon="3.00428">
        <ele>17</ele>
        <time>2018-01-08T14:09:32Z</time>
      </trkpt>
      <trkpt lat="50.7511" lon="3.00436">
        <ele>17</ele>
        <time>2018-01-08T14:10:32Z</time>
      </trkpt>
      <trkpt lat="50.7511" lon="3.00445">
        <ele>17</ele>
        <time>2018-01-08T14:11:32Z</time>
      </trkpt>
      <trkpt lat="50.7511" lon="3.00454">
        <ele>17</ele>
        <time>2018-01-08T14:12:32Z</time>
      </trkpt>
      <trkpt lat="50.7511" lon="3.00464">
        <ele>18</ele>
        <time>2018-01-08T14:13:32Z</time>
      </trkpt>
      <trkpt lat="50.75111" lon="3.00474">
        <ele>18</ele>
        <time>2018-01-08T14:14:32Z</time>
      </trkpt>
      <trkpt lat="50.75111" lon="3.00485">
        <ele>18</ele>
        <time>2018-01-08T14:15:32Z</time>
      </trkpt>
      <trkpt lat="50.75112" lon="3.00497">
        <ele>18</ele>
        <time>2018-01-08T14:16:32Z</time>
      </trkpt>
      <trkpt lat="50.75112" lon="3.00509">
        <ele>18</ele>
        <time>2018-01-08T14:17:32Z</time>
      </trkpt>
      <trkpt lat="50.75112" lon="3.00521">
        <ele>18</ele>
        <time>2018-01-08T14:18:32Z</time>
      </trkpt>
      <trkpt lat="50.75113" lon="3.00533">
        <ele>18</ele>
        <time>2018-01-08T14:19:32Z</time>
      </trkpt>
      <trkpt lat="50.75113" lon="3.00545">
        <ele>18</ele>
        <time>2018-01-08T14:20:32Z</time>
      </trkpt>
      <trkpt lat="50.75113" lon="3.00557">
        <ele>18</ele>
        <time>2018-01-08T14:21:32Z</time>
      </trkpt>
      <trkpt lat="50.75114" lon="3.00568">
        <ele>18</ele>
        <time>2018-01-08T14:22:32Z</time>
      </trkpt>
      <trkpt lat="50.75114" lon="3.00579">
        <ele>18</ele>
        <time>2018-01-08T14:23:32Z</time>
      </trkpt>
      <trkpt lat="50.75114" lon="3.0059">
        <ele>18</ele>
        <time>2018-01-08T14:24:32Z</time>
      </trkpt>
      <trkpt lat="50.75114" lon="3.006">
        <ele>18</ele>
        <time>2018-01-08T14:25:32Z</time>
      </trkpt>
      <trkpt lat="50.75115" lon="3.00611">
        <ele>18</ele>
        <time>2018-01-08T14:26:32Z</time>
      </trkpt>
      <trkpt lat="50.75115" lon="3.00621">
        <ele>18</ele>
        <time>2018-01-08T14:27:32Z</time>
      </trkpt>
      <trkpt lat="50.75115" lon="3.00631">
        <ele>18</ele>
        <time>2018-01-08T14:28:32Z</time>
      </trkpt>
      <trkpt lat="50.75115" lon="3.00635">
        <ele>18</ele>
        <time>2018-01-08T14:29:32Z</time>
      </trkpt>
      <trkpt lat="50.75115" lon="3.0064">
        <ele>18</ele>
        <time>2018-01-08T14:30:32Z</time>
      </trkpt>
      <trkpt lat="50.75115" lon="3.00643">
        <ele>18</ele>
        <time>2018-01-08T14:31:32Z</time>
      </trkpt>
      <trkpt lat="50.75115" lon="3.00646">
        <ele>18</ele>
        <time>2018-01-08T14:32:32Z</time>
      </trkpt>
      <trkpt lat="50.75115" lon="3.0065">
        <ele>18</ele>
        <time>2018-01-08T14:33:32Z</time>
      </trkpt>
      <trkpt lat="50.75115" lon="3.00659">
        <ele>18</ele>
        <time>2018-01-08T14:34:32Z</time>
      </trkpt>
      <trkpt lat="50.75114" lon="3.00667">
        <ele>18</ele>
        <time>2018-01-08T14:35:32Z</time>
      </trkpt>
      <trkpt lat="50.75114" lon="3.00675">
        <ele>18</ele>
        <time>2018-01-08T14:36:32Z</time>
      </trkpt>
      <trkpt lat="50.75113" lon="3.00683">
        <ele>18</ele>
        <time>2018-01-08T14:37:32Z</time>
      </trkpt>
      <trkpt lat="50.75113" lon="3.00687">
        <ele>18</ele>
        <time>2018-01-08T14:38:32Z</time>
      </trkpt>
      <trkpt lat="50.75113" lon="3.0069">
        <ele>18</ele>
        <time>2018-01-08T14:39:32Z</time>
      </trkpt>
      <trkpt lat="50.75111" lon="3.00695">
        <ele>18</ele>
        <time>2018-01-08T14:40:32Z</time>
      </trkpt>
      <trkpt lat="50.7511" lon="3.007">
        <ele>18</ele>
        <time>2018-01-08T14:41:32Z</time>
      </trkpt>
      <trkpt lat="50.75107" lon="3.00705">
        <ele>18</ele>
        <time>2018-01-08T14:42:32Z</time>
      </trkpt>
      <trkpt lat="50.75104" lon="3.00708">
        <ele>18</ele>
        <time>2018-01-08T14:43:32Z</time>
      </trkpt>
      <trkpt lat="50.75103" lon="3.00709">
        <ele>18</ele>
        <time>2018-01-08T14:44:32Z</time>
      </trkpt>
      <trkpt lat="50.75099" lon="3.00715">
        <ele>18</ele>
        <time>2018-01-08T14:45:32Z</time>
      </trkpt>
      <trkpt lat="50.75096" lon="3.00721">
        <ele>18</ele>
        <time>2018-01-08T14:46:32Z</time>
      </trkpt>
      <trkpt lat="50.75094" lon="3.00727">
        <ele>18</ele>
        <time>2018-01-08T14:47:32Z</time>
      </trkpt>
      <trkpt lat="50.75093" lon="3.00733">
        <ele>18</ele>
        <time>2018-01-08T14:48:32Z</time>
      </trkpt>
      <trkpt lat="50.75093" lon="3.00737">
        <ele>18</ele>
        <time>2018-01-08T14:49:32Z</time>
      </trkpt>
      <trkpt lat="50.75093" lon="3.00739">
        <ele>18</ele>
        <time>2018-01-08T14:50:32Z</time>
      </trkpt>
      <trkpt lat="50.75093" lon="3.00746">
        <ele>18</ele>
        <time>2018-01-08T14:51:32Z</time>
      </trkpt>
      <trkpt lat="50.75093" lon="3.00752">
        <ele>18</ele>
        <time>2018-01-08T14:52:32Z</time>
      </trkpt>
      <trkpt lat="50.75095" lon="3.00759">
        <ele>18</ele>
        <time>2018-01-08T14:53:32Z</time>
      </trkpt>
      <trkpt lat="50.75097" lon="3.00766">
        <ele>18</ele>
        <time>2018-01-08T14:54:32Z</time>
      </trkpt>
      <trkpt lat="50.751" lon="3.00772">
        <ele>18</ele>
        <time>2018-01-08T14:55:32Z</time>
      </trkpt>
      <trkpt lat="50.75104" lon="3.00777">
        <ele>18</ele>
        <time>2018-01-08T14:56:32Z</time>
      </trkpt>
      <trkpt lat="50.75108" lon="3.00781">
        <ele>18</ele>
        <time>2018-01-08T14:57:32Z</time>
      </trkpt>
      <trkpt lat="50.75112" lon="3.00783">
        <ele>18</ele>
        <time>2018-01-08T14:58:32Z</time>
      </trkpt>
      <trkpt lat="50.75114" lon="3.00786">
        <ele>18</ele>
        <time>2018-01-08T14:59:32Z</time>
      </trkpt>
      <trkpt lat="50.75117" lon="3.0079">
        <ele>18</ele>
        <time>2018-01-08T15:00:32Z</time>
      </trkpt>
      <trkpt lat="50.75119" lon="3.00797">
        <ele>18</ele>
        <time>2018-01-08T15:01:32Z</time>
      </trkpt>
      <trkpt lat="50.75121" lon="3.00804">
        <ele>18</ele>
        <time>2018-01-08T15:02:32Z</time>
      </trkpt>
      <trkpt lat="50.75123" lon="3.00813">
        <ele>18</ele>
        <time>2018-01-08T15:03:32Z</time>
      </trkpt>
      <trkpt lat="50.75125" lon="3.00821">
        <ele>18</ele>
        <time>2018-01-08T15:04:32Z</time>
      </trkpt>
      <trkpt lat="50.75126" lon="3.0083">
        <ele>18</ele>
        <time>2018-01-08T15:05:32Z</time>
      </trkpt>
      <trkpt lat="50.75128" lon="3.00838">
        <ele>18</ele>
        <time>2018-01-08T15:06:32Z</time>
      </trkpt>
      <trkpt lat="50.7513" lon="3.00848">
        <ele>18</ele>
        <time>2018-01-08T15:07:32Z</time>
      </trkpt>
      <trkpt lat="50.75131" lon="3.00858">
        <ele>18</ele>
        <time>2018-01-08T15:08:32Z</time>
      </trkpt>
      <trkpt lat="50.75132" lon="3.00863">
        <ele>18</ele>
        <time>2018-01-08T15:09:32Z</time>
      </trkpt>
      <trkpt lat="50.75132" lon="3.00869">
        <ele>18</ele>
        <time>2018-01-08T15:10:32Z</time>
      </trkpt>
      <trkpt lat="50.75134" lon="3.0088">
        <ele>18</ele>
        <time>2018-01-08T15:11:32Z</time>
      </trkpt>
      <trkpt lat="50.75135" lon="3.00892">
        <ele>18</ele>
        <time>2018-01-08T15:12:32Z</time>
      </trkpt>
      <trkpt lat="50.75136" lon="3.00904">
        <ele>17</ele>
        <time>2018-01-08T15:13:32Z</time>
      </trkpt>
      <trkpt lat="50.75138" lon="3.00915">
        <ele>17</ele>
        <time>2018-01-08T15:14:32Z</time>
      </trkpt>
      <trkpt lat="50.75139" lon="3.00927">
        <ele>17</ele>
        <time>2018-01-08T15:15:32Z</time>
      </trkpt>
      <trkpt lat="50.7514" lon="3.00939">
        <ele>17</ele>
        <time>2018-01-08T15:16:32Z</time>
      </trkpt>
      <trkpt lat="50.75142" lon="3.00951">
        <ele>17</ele>
        <time>2018-01-08T15:17:32Z</time>
      </trkpt>
      <trkpt lat="50.75143" lon="3.00963">
        <ele>17</ele>
        <time>2018-01-08T15:18:32Z</time>
      </trkpt>
      <trkpt lat="50.75144" lon="3.00976">
        <ele>17</ele>
        <time>2018-01-08T15:19:32Z</time>
      </trkpt>
      <trkpt lat="50.75146" lon="3.00988">
        <ele>16</ele>
        <time>2018-01-08T15:20:32Z</time>
      </trkpt>
      <trkpt lat="50.75147" lon="3.01001">
        <ele>16</ele>
        <time>2018-01-08T15:21:32Z</time>
      </trkpt>
      <trkpt lat="50.75148" lon="3.01013">
        <ele>16</ele>
        <time>2018-01-08T15:22:32Z</time>
      </trkpt>
      <trkpt lat="50.7515" lon="3.01026">
        <ele>16</ele>
        <time>2018-01-08T15:23:32Z</time>
      </trkpt>
      <trkpt lat="50.75152" lon="3.01038">
        <ele>17</ele>
        <time>2018-01-08T15:24:32Z</time>
      </trkpt>
      <trkpt lat="50.75153" lon="3.0105">
        <ele>17</ele>
        <time>2018-01-08T15:25:32Z</time>
      </trkpt>
      <trkpt lat="50.75155" lon="3.01063">
        <ele>17</ele>
        <time>2018-01-08T15:26:32Z</time>
      </trkpt>
      <trkpt lat="50.75157" lon="3.01075">
        <ele>17</ele>
        <time>2018-01-08T15:27:32Z</time>
      </trkpt>
      <trkpt lat="50.75159" lon="3.01087">
        <ele>17</ele>
        <time>2018-01-08T15:28:32Z</time>
      </trkpt>
      <trkpt lat="50.75161" lon="3.01099">
        <ele>17</ele>
        <time>2018-01-08T15:29:32Z</time>
      </trkpt>
      <trkpt lat="50.75163" lon="3.0111">
        <ele>17</ele>
        <time>2018-01-08T15:30:32Z</time>
      </trkpt>
      <trkpt lat="50.75165" lon="3.01122">
        <ele>17</ele>
        <time>2018-01-08T15:31:32Z</time>
      </trkpt>
      <trkpt lat="50.75167" lon="3.01133">
        <ele>18</ele>
        <time>2018-01-08T15:32:32Z</time>
      </trkpt>
      <trkpt lat="50.75168" lon="3.01143">
        <ele>18</ele>
        <time>2018-01-08T15:33:32Z</time>
      </trkpt>
      <trkpt lat="50.7517" lon="3.01153">
        <ele>18</ele>
        <time>2018-01-08T15:34:32Z</time>
      </trkpt>
      <trkpt lat="50.75172" lon="3.01163">
        <ele>18</ele>
        <time>2018-01-08T15:35:32Z</time>
      </trkpt>
      <trkpt lat="50.75174" lon="3.01173">
        <ele>18</ele>
        <time>2018-01-08T15:36:32Z</time>
      </trkpt>
      <trkpt lat="50.75176" lon="3.01182">
        <ele>18</ele>
        <time>2018-01-08T15:37:32Z</time>
      </trkpt>
      <trkpt lat="50.75177" lon="3.01186">
        <ele>18</ele>
        <time>2018-01-08T15:38:32Z</time>
      </trkpt>
      <trkpt lat="50.75178" lon="3.01191">
        <ele>18</ele>
        <time>2018-01-08T15:39:32Z</time>
      </trkpt>
      <trkpt lat="50.7518" lon="3.01201">
        <ele>18</ele>
        <time>2018-01-08T15:40:32Z</time>
      </trkpt>
      <trkpt lat="50.75182" lon="3.0121">
        <ele>18</ele>
        <time>2018-01-08T15:41:32Z</time>
      </trkpt>
      <trkpt lat="50.75183" lon="3.01219">
        <ele>18</ele>
        <time>2018-01-08T15:42:32Z</time>
      </trkpt>
      <trkpt lat="50.75185" lon="3.01229">
        <ele>18</ele>
        <time>2018-01-08T15:43:32Z</time>
      </trkpt>
      <trkpt lat="50.75187" lon="3.01239">
        <ele>18</ele>
        <time>2018-01-08T15:44:32Z</time>
      </trkpt>
      <trkpt lat="50.75189" lon="3.01249">
        <ele>18</ele>
        <time>2018-01-08T15:45:32Z</time>
      </trkpt>
      <trkpt lat="50.75191" lon="3.01259">
        <ele>18</ele>
        <time>2018-01-08T15:46:32Z</time>
      </trkpt>
      <trkpt lat="50.75193" lon="3.0127">
        <ele>18</ele>
        <time>2018-01-08T15:47:32Z</time>
      </trkpt>
      <trkpt lat="50.75195" lon="3.0128">
        <ele>18</ele>
        <time>2018-01-08T15:48:32Z</time>
      </trkpt>
      <trkpt lat="50.75198" lon="3.01291">
        <ele>18</ele>
        <time>2018-01-08T15:49:32Z</time>
      </trkpt>
      <trkpt lat="50.75201" lon="3.01302">
        <ele>18</ele>
        <time>2018-01-08T15:50:32Z</time>
      </trkpt>
      <trkpt lat="50.75203" lon="3.01312">
        <ele>18</ele>
        <time>2018-01-08T15:51:32Z</time>
      </trkpt>
      <trkpt lat="50.75205" lon="3.01323">
        <ele>18</ele>
        <time>2018-01-08T15:52:32Z</time>
      </trkpt>
      <trkpt lat="50.75207" lon="3.01333">
        <ele>18</ele>
        <time>2018-01-08T15:53:32Z</time>
      </trkpt>
      <trkpt lat="50.75209" lon="3.01343">
        <ele>18</ele>
        <time>2018-01-08T15:54:32Z</time>
      </trkpt>
      <trkpt lat="50.75211" lon="3.01354">
        <ele>18</ele>
        <time>2018-01-08T15:55:32Z</time>
      </trkpt>
      <trkpt lat="50.75212" lon="3.01359">
        <ele>18</ele>
        <time>2018-01-08T15:56:32Z</time>
      </trkpt>
      <trkpt lat="50.75214" lon="3.01365">
        <ele>18</ele>
        <time>2018-01-08T15:57:32Z</time>
      </trkpt>
      <trkpt lat="50.75217" lon="3.01377">
        <ele>18</ele>
        <time>2018-01-08T15:58:32Z</time>
      </trkpt>
      <trkpt lat="50.75219" lon="3.01387">
        <ele>18</ele>
        <time>2018-01-08T15:59:32Z</time>
      </trkpt>
      <trkpt lat="50.75221" lon="3.01398">
        <ele>18</ele>
        <time>2018-01-08T16:00:32Z</time>
      </trkpt>
      <trkpt lat="50.75222" lon="3.0141">
        <ele>18</ele>
        <time>2018-01-08T16:01:32Z</time>
      </trkpt>
      <trkpt lat="50.75224" lon="3.01423">
        <ele>18</ele>
        <time>2018-01-08T16:02:32Z</time>
      </trkpt>
      <trkpt lat="50.75226" lon="3.01443">
        <ele>18</ele>
        <time>2018-01-08T16:03:32Z</time>
      </trkpt>
      <trkpt lat="50.75228" lon="3.01481">
        <ele>17</ele>
        <time>2018-01-08T16:04:32Z</time>
      </trkpt>
      <trkpt lat="50.75229" lon="3.01537">
        <ele>17</ele>
        <time>2018-01-08T16:05:32Z</time>
      </trkpt>
      <trkpt lat="50.75229" lon="3.01557">
        <ele>17</ele>
        <time>2018-01-08T16:06:32Z</time>
      </trkpt>
      <trkpt lat="50.7523" lon="3.01592">
        <ele>18</ele>
        <time>2018-01-08T16:07:32Z</time>
      </trkpt>
      <trkpt lat="50.75232" lon="3.01643">
        <ele>18</ele>
        <time>2018-01-08T16:08:32Z</time>
      </trkpt>
      <trkpt lat="50.75233" lon="3.01672">
        <ele>18</ele>
        <time>2018-01-08T16:09:32Z</time>
      </trkpt>
      <trkpt lat="50.75236" lon="3.01714">
        <ele>17</ele>
        <time>2018-01-08T16:10:32Z</time>
      </trkpt>
      <trkpt lat="50.75237" lon="3.01723">
        <ele>17</ele>
        <time>2018-01-08T16:11:32Z</time>
      </trkpt>
      <trkpt lat="50.75238" lon="3.01729">
        <ele>17</ele>
        <time>2018-01-08T16:12:32Z</time>
      </trkpt>
      <trkpt lat="50.7524" lon="3.01736">
        <ele>17</ele>
        <time>2018-01-08T16:13:32Z</time>
      </trkpt>
      <trkpt lat="50.75241" lon="3.01745">
        <ele>17</ele>
        <time>2018-01-08T16:14:32Z</time>
      </trkpt>
      <trkpt lat="50.75242" lon="3.01753">
        <ele>17</ele>
        <time>2018-01-08T16:15:32Z</time>
      </trkpt>
      <trkpt lat="50.75244" lon="3.01762">
        <ele>17</ele>
        <time>2018-01-08T16:16:32Z</time>
      </trkpt>
      <trkpt lat="50.75245" lon="3.01771">
        <ele>17</ele>
        <time>2018-01-08T16:17:32Z</time>
      </trkpt>
      <trkpt lat="50.75247" lon="3.0178">
        <ele>17</ele>
        <time>2018-01-08T16:18:32Z</time>
      </trkpt>
      <trkpt lat="50.75249" lon="3.01788">
        <ele>17</ele>
        <time>2018-01-08T16:19:32Z</time>
      </trkpt>
      <trkpt lat="50.75252" lon="3.01797">
        <ele>18</ele>
        <time>2018-01-08T16:20:32Z</time>
      </trkpt>
      <trkpt lat="50.75254" lon="3.01806">
        <ele>18</ele>
        <time>2018-01-08T16:21:32Z</time>
      </trkpt>
      <trkpt lat="50.75256" lon="3.01815">
        <ele>18</ele>
        <time>2018-01-08T16:22:32Z</time>
      </trkpt>
      <trkpt lat="50.75259" lon="3.01824">
        <ele>18</ele>
        <time>2018-01-08T16:23:32Z</time>
      </trkpt>
      <trkpt lat="50.75262" lon="3.01833">
        <ele>18</ele>
        <time>2018-01-08T16:24:32Z</time>
      </trkpt>
      <trkpt lat="50.75265" lon="3.01842">
        <ele>18</ele>
        <time>2018-01-08T16:25:32Z</time>
      </trkpt>
      <trkpt lat="50.75269" lon="3.01856">
        <ele>18</ele>
        <time>2018-01-08T16:26:32Z</time>
      </trkpt>
      <trkpt lat="50.7527" lon="3.01859">
        <ele>18</ele>
        <time>2018-01-08T16:27:32Z</time>
      </trkpt>
      <trkpt lat="50.75273" lon="3.01868">
        <ele>18</ele>
        <time>2018-01-08T16:28:32Z</time>
      </trkpt>
      <trkpt lat="50.75276" lon="3.01878">
        <ele>18</ele>
        <time>2018-01-08T16:29:32Z</time>
      </trkpt>
      <trkpt lat="50.75279" lon="3.01887">
        <ele>18</ele>
        <time>2018-01-08T16:30:32Z</time>
      </trkpt>
      <trkpt lat="50.75283" lon="3.01897">
        <ele>18</ele>
        <time>2018-01-08T16:31:32Z</time>
      </trkpt>
      <trkpt lat="50.75286" lon="3.01906">
        <ele>18</ele>
        <time>2018-01-08T16:32:32Z</time>
      </trkpt>
      <trkpt lat="50.75289" lon="3.01916">
        <ele>18</ele>
        <time>2018-01-08T16:33:32Z</time>
      </trkpt>
      <trkpt lat="50.75293" lon="3.01925">
        <ele>17</ele>
        <time>2018-01-08T16:34:32Z</time>
      </trkpt>
      <trkpt lat="50.75296" lon="3.01934">
        <ele>17</ele>
        <time>2018-01-08T16:35:32Z</time>
      </trkpt>
      <trkpt lat="50.75299" lon="3.01943">
        <ele>17</ele>
        <time>2018-01-08T16:36:32Z</time>
      </trkpt>
      <trkpt lat="50.75302" lon="3.01952">
        <ele>17</ele>
        <time>2018-01-08T16:37:32Z</time>
      </trkpt>
      <trkpt lat="50.75306" lon="3.0196">
        <ele>17</ele>
        <time>2018-01-08T16:38:32Z</time>
      </trkpt>
      <trkpt lat="50.75309" lon="3.01969">
        <ele>17</ele>
        <time>2018-01-08T16:39:32Z</time>
      </trkpt>
      <trkpt lat="50.75313" lon="3.01978">
        <ele>17</ele>
        <time>2018-01-08T16:40:32Z</time>
      </trkpt>
      <trkpt lat="50.75316" lon="3.01987">
        <ele>17</ele>
        <time>2018-01-08T16:41:32Z</time>
      </trkpt>
      <trkpt lat="50.7532" lon="3.01996">
        <ele>17</ele>
        <time>2018-01-08T16:42:32Z</time>
      </trkpt>
      <trkpt lat="50.75323" lon="3.02005">
        <ele>17</ele>
        <time>2018-01-08T16:43:32Z</time>
      </trkpt>
      <trkpt lat="50.75323" lon="3.02006">
        <ele>17</ele>
        <time>2018-01-08T16:44:32Z</time>
      </trkpt>
      <trkpt lat="50.75327" lon="3.02016">
        <ele>17</ele>
        <time>2018-01-08T16:45:32Z</time>
      </trkpt>
      <trkpt lat="50.7533" lon="3.02027">
        <ele>17</ele>
        <time>2018-01-08T16:46:32Z</time>
      </trkpt>
      <trkpt lat="50.75334" lon="3.02037">
        <ele>17</ele>
        <time>2018-01-08T16:47:32Z</time>
      </trkpt>
      <trkpt lat="50.75338" lon="3.02047">
        <ele>16</ele>
        <time>2018-01-08T16:48:32Z</time>
      </trkpt>
      <trkpt lat="50.75341" lon="3.02058">
        <ele>16</ele>
        <time>2018-01-08T16:49:32Z</time>
      </trkpt>
      <trkpt lat="50.75345" lon="3.02069">
        <ele>16</ele>
        <time>2018-01-08T16:50:32Z</time>
      </trkpt>
      <trkpt lat="50.75348" lon="3.02079">
        <ele>16</ele>
        <time>2018-01-08T16:51:32Z</time>
      </trkpt>
      <trkpt lat="50.75352" lon="3.0209">
        <ele>16</ele>
        <time>2018-01-08T16:52:32Z</time>
      </trkpt>
      <trkpt lat="50.75355" lon="3.02101">
        <ele>16</ele>
        <time>2018-01-08T16:53:32Z</time>
      </trkpt>
      <trkpt lat="50.75359" lon="3.02112">
        <ele>15</ele>
        <time>2018-01-08T16:54:32Z</time>
      </trkpt>
      <trkpt lat="50.75363" lon="3.02122">
        <ele>15</ele>
        <time>2018-01-08T16:55:32Z</time>
      </trkpt>
      <trkpt lat="50.75366" lon="3.02133">
        <ele>15</ele>
        <time>2018-01-08T16:56:32Z</time>
      </trkpt>
      <trkpt lat="50.7537" lon="3.02144">
        <ele>15</ele>
        <time>2018-01-08T16:57:32Z</time>
      </trkpt>
      <trkpt lat="50.75374" lon="3.02155">
        <ele>15</ele>
        <time>2018-01-08T16:58:32Z</time>
      </trkpt>
      <trkpt lat="50.75377" lon="3.02166">
        <ele>15</ele>
        <time>2018-01-08T16:59:32Z</time>
      </trkpt>
      <trkpt lat="50.75381" lon="3.02177">
        <ele>15</ele>
        <time>2018-01-08T17:00:32Z</time>
      </trkpt>
      <trkpt lat="50.75385" lon="3.02188">
        <ele>15</ele>
        <time>2018-01-08T17:01:32Z</time>
      </trkpt>
      <trkpt lat="50.75388" lon="3.02199">
        <ele>15</ele>
        <time>2018-01-08T17:02:32Z</time>
      </trkpt>
      <trkpt lat="50.75392" lon="3.02211">
        <ele>15</ele>
        <time>2018-01-08T17:03:32Z</time>
      </trkpt>
      <trkpt lat="50.75396" lon="3.02222">
        <ele>15</ele>
        <time>2018-01-08T17:04:32Z</time>
      </trkpt>
      <trkpt lat="50.754" lon="3.02234">
        <ele>15</ele>
        <time>2018-01-08T17:05:32Z</time>
      </trkpt>
      <trkpt lat="50.75404" lon="3.02245">
        <ele>15</ele>
        <time>2018-01-08T17:06:32Z</time>
      </trkpt>
      <trkpt lat="50.75408" lon="3.02257">
        <ele>15</ele>
        <time>2018-01-08T17:07:32Z</time>
      </trkpt>
      <trkpt lat="50.75412" lon="3.02268">
        <ele>15</ele>
        <time>2018-01-08T17:08:32Z</time>
      </trkpt>
      <trkpt lat="50.75416" lon="3.0228">
        <ele>15</ele>
        <time>2018-01-08T17:09:32Z</time>
      </trkpt>
      <trkpt lat="50.7542" lon="3.02291">
        <ele>15</ele>
        <time>2018-01-08T17:10:32Z</time>
      </trkpt>
      <trkpt lat="50.75423" lon="3.02302">
        <ele>15</ele>
        <time>2018-01-08T17:11:32Z</time>
      </trkpt>
      <trkpt lat="50.75427" lon="3.02313">
        <ele>15</ele>
        <time>2018-01-08T17:12:32Z</time>
      </trkpt>
      <trkpt lat="50.75431" lon="3.02324">
        <ele>15</ele>
        <time>2018-01-08T17:13:32Z</time>
      </trkpt>
      <trkpt lat="50.75434" lon="3.02334">
        <ele>15</ele>
        <time>2018-01-08T17:14:32Z</time>
      </trkpt>
      <trkpt lat="50.75438" lon="3.02345">
        <ele>15</ele>
        <time>2018-01-08T17:15:32Z</time>
      </trkpt>
      <trkpt lat="50.75441" lon="3.02356">
        <ele>15</ele>
        <time>2018-01-08T17:16:32Z</time>
      </trkpt>
      <trkpt lat="50.75445" lon="3.02366">
        <ele>15</ele>
        <time>2018-01-08T17:17:32Z</time>
      </trkpt>
      <trkpt lat="50.75452" lon="3.02387">
        <ele>15</ele>
        <time>2018-01-08T17:18:32Z</time>
      </trkpt>
      <trkpt lat="50.75455" lon="3.02397">
        <ele>15</ele>
        <time>2018-01-08T17:19:32Z</time>
      </trkpt>
      <trkpt lat="50.75459" lon="3.02407">
        <ele>16</ele>
        <time>2018-01-08T17:20:32Z</time>
      </trkpt>
      <trkpt lat="50.75462" lon="3.02417">
        <ele>16</ele>
        <time>2018-01-08T17:21:32Z</time>
      </trkpt>
      <trkpt lat="50.75465" lon="3.02426">
        <ele>16</ele>
        <time>2018-01-08T17:22:32Z</time>
      </trkpt>
      <trkpt lat="50.75468" lon="3.02434">
        <ele>16</ele>
        <time>2018-01-08T17:23:32Z</time>
      </trkpt>
      <trkpt lat="50.7547" lon="3.02443">
        <ele>16</ele>
        <time>2018-01-08T17:24:32Z</time>
      </trkpt>
      <trkpt lat="50.75471" lon="3.02445">
        <ele>16</ele>
        <time>2018-01-08T17:25:32Z</time>
      </trkpt>
      <trkpt lat="50.75473" lon="3.02451">
        <ele>16</ele>
        <time>2018-01-08T17:26:32Z</time>
      </trkpt>
      <trkpt lat="50.75475" lon="3.02458">
        <ele>16</ele>
        <time>2018-01-08T17:27:32Z</time>
      </trkpt>
      <trkpt lat="50.75477" lon="3.02465">
        <ele>16</ele>
        <time>2018-01-08T17:28:32Z</time>
      </trkpt>
      <trkpt lat="50.75479" lon="3.02472">
        <ele>16</ele>
        <time>2018-01-08T17:29:32Z</time>
      </trkpt>
      <trkpt lat="50.7548" lon="3.02479">
        <ele>16</ele>
        <time>2018-01-08T17:30:32Z</time>
      </trkpt>
      <trkpt lat="50.75482" lon="3.02486">
        <ele>17</ele>
        <time>2018-01-08T17:31:32Z</time>
      </trkpt>
      <trkpt lat="50.75482" lon="3.02492">
        <ele>17</ele>
        <time>2018-01-08T17:32:32Z</time>
      </trkpt>
      <trkpt lat="50.75483" lon="3.02498">
        <ele>17</ele>
        <time>2018-01-08T17:33:32Z</time>
      </trkpt>
      <trkpt lat="50.75484" lon="3.02504">
        <ele>17</ele>
        <time>2018-01-08T17:34:32Z</time>
      </trkpt>
      <trkpt lat="50.75484" lon="3.0251">
        <ele>17</ele>
        <time>2018-01-08T17:35:32Z</time>
      </trkpt>
      <trkpt lat="50.75484" lon="3.02516">
        <ele>16</ele>
        <time>2018-01-08T17:36:32Z</time>
      </trkpt>
      <trkpt lat="50.75483" lon="3.02519">
        <ele>16</ele>
        <time>2018-01-08T17:37:32Z</time>
      </trkpt>
      <trkpt lat="50.75483" lon="3.02521">
        <ele>16</ele>
        <time>2018-01-08T17:38:32Z</time>
      </trkpt>
      <trkpt lat="50.75482" lon="3.02527">
        <ele>16</ele>
        <time>2018-01-08T17:39:32Z</time>
      </trkpt>
      <trkpt lat="50.75482" lon="3.02533">
        <ele>16</ele>
        <time>2018-01-08T17:40:32Z</time>
      </trkpt>
      <trkpt lat="50.75482" lon="3.02539">
        <ele>16</ele>
        <time>2018-01-08T17:41:32Z</time>
      </trkpt>
      <trkpt lat="50.75483" lon="3.02545">
        <ele>16</ele>
        <time>2018-01-08T17:42:32Z</time>
      </trkpt>
      <trkpt lat="50.75484" lon="3.02551">
        <ele>16</ele>
        <time>2018-01-08T17:43:32Z</time>
      </trkpt>
      <trkpt lat="50.75485" lon="3.02551">
        <ele>16</ele>
        <time>2018-01-08T17:44:32Z</time>
      </trkpt>
      <trkpt lat="50.75487" lon="3.02557">
        <ele>16</ele>
        <time>2018-01-08T17:45:32Z</time>
      </trkpt>
      <trkpt lat="50.75488" lon="3.0256">
        <ele>16</ele>
        <time>2018-01-08T17:46:32Z</time>
      </trkpt>
      <trkpt lat="50.75489" lon="3.02577">
        <ele>16</ele>
        <time>2018-01-08T17:47:32Z</time>
      </trkpt>
      <trkpt lat="50.75489" lon="3.02583">
        <ele>16</ele>
        <time>2018-01-08T17:48:32Z</time>
      </trkpt>
      <trkpt lat="50.75489" lon="3.02589">
        <ele>16</ele>
        <time>2018-01-08T17:49:32Z</time>
      </trkpt>
      <trkpt lat="50.75488" lon="3.02595">
        <ele>16</ele>
        <time>2018-01-08T17:50:32Z</time>
      </trkpt>
      <trkpt lat="50.75487" lon="3.02601">
        <ele>15</ele>
        <time>2018-01-08T17:51:32Z</time>
      </trkpt>
      <trkpt lat="50.75485" lon="3.02611">
        <ele>15</ele>
        <time>2018-01-08T17:52:32Z</time>
      </trkpt>
      <trkpt lat="50.75483" lon="3.0262">
        <ele>15</ele>
        <time>2018-01-08T17:53:32Z</time>
      </trkpt>
      <trkpt lat="50.7548" lon="3.0263">
        <ele>15</ele>
        <time>2018-01-08T17:54:32Z</time>
      </trkpt>
      <trkpt lat="50.75478" lon="3.02638">
        <ele>15</ele>
        <time>2018-01-08T17:55:32Z</time>
      </trkpt>
      <trkpt lat="50.75474" lon="3.02649">
        <ele>14</ele>
        <time>2018-01-08T17:56:32Z</time>
      </trkpt>
      <trkpt lat="50.75471" lon="3.02659">
        <ele>14</ele>
        <time>2018-01-08T17:57:32Z</time>
      </trkpt>
      <trkpt lat="50.75467" lon="3.0267">
        <ele>14</ele>
        <time>2018-01-08T17:58:32Z</time>
      </trkpt>
      <trkpt lat="50.75463" lon="3.02681">
        <ele>14</ele>
        <time>2018-01-08T17:59:32Z</time>
      </trkpt>
      <trkpt lat="50.75459" lon="3.02692">
        <ele>14</ele>
        <time>2018-01-08T18:00:32Z</time>
      </trkpt>
      <trkpt lat="50.75455" lon="3.02702">
        <ele>14</ele>
        <time>2018-01-08T18:01:32Z</time>
      </trkpt>
      <trkpt lat="50.75451" lon="3.02712">
        <ele>14</ele>
        <time>2018-01-08T18:02:32Z</time>
      </trkpt>
      <trkpt lat="50.75446" lon="3.02724">
        <ele>14</ele>
        <time>2018-01-08T18:03:32Z</time>
      </trkpt>
      <trkpt lat="50.75443" lon="3.02733">
        <ele>14</ele>
        <time>2018-01-08T18:04:32Z</time>
      </trkpt>
      <trkpt lat="50.75437" lon="3.02746">
        <ele>14</ele>
        <time>2018-01-08T18:05:32Z</time>
      </trkpt>
      <trkpt lat="50.75432" lon="3.02757">
        <ele>14</ele>
        <time>2018-01-08T18:06:32Z</time>
      </trkpt>
      <trkpt lat="50.75413" lon="3.02791">
        <ele>15</ele>
        <time>2018-01-08T18:07:32Z</time>
      </trkpt>
      <trkpt lat="50.75401" lon="3.02811">
        <ele>15</ele>
        <time>2018-01-08T18:08:32Z</time>
      </trkpt>
      <trkpt lat="50.7538" lon="3.02843">
        <ele>15</ele>
        <time>2018-01-08T18:09:32Z</time>
      </trkpt>
      <trkpt lat="50.75376" lon="3.02853">
        <ele>15</ele>
        <time>2018-01-08T18:10:32Z</time>
      </trkpt>
      <trkpt lat="50.75374" lon="3.02855">
        <ele>15</ele>
        <time>2018-01-08T18:11:32Z</time>
      </trkpt>
      <trkpt lat="50.75357" lon="3.02875">
        <ele>15</ele>
        <time>2018-01-08T18:12:32Z</time>
      </trkpt>
      <trkpt lat="50.75349" lon="3.02885">
        <ele>15</ele>
        <time>2018-01-08T18:13:32Z</time>
      </trkpt>
      <trkpt lat="50.7534" lon="3.02894">
        <ele>15</ele>
        <time>2018-01-08T18:14:32Z</time>
      </trkpt>
      <trkpt lat="50.75332" lon="3.02903">
        <ele>15</ele>
        <time>2018-01-08T18:15:32Z</time>
      </trkpt>
      <trkpt lat="50.75323" lon="3.02912">
        <ele>15</ele>
        <time>2018-01-08T18:16:32Z</time>
      </trkpt>
      <trkpt lat="50.75315" lon="3.0292">
        <ele>15</ele>
        <time>2018-01-08T18:17:32Z</time>
      </trkpt>
      <trkpt lat="50.75306" lon="3.02929">
        <ele>15</ele>
        <time>2018-01-08T18:18:32Z</time>
      </trkpt>
      <trkpt lat="50.75297" lon="3.02939">
        <ele>15</ele>
        <time>2018-01-08T18:19:32Z</time>
      </trkpt>
      <trkpt lat="50.75288" lon="3.02949">
        <ele>15</ele>
        <time>2018-01-08T18:20:32Z</time>
      </trkpt>
      <trkpt lat="50.75279" lon="3.02959">
        <ele>15</ele>
        <time>2018-01-08T18:21:32Z</time>
      </trkpt>
      <trkpt lat="50.7527" lon="3.02969">
        <ele>15</ele>
        <time>2018-01-08T18:22:32Z</time>
      </trkpt>
      <trkpt lat="50.75261" lon="3.02979">
        <ele>15</ele>
        <time>2018-01-08T18:23:32Z</time>
      </trkpt>
      <trkpt lat="50.75252" lon="3.0299">
        <ele>15</ele>
        <time>2018-01-08T18:24:32Z</time>
      </trkpt>
      <trkpt lat="50.75243" lon="3.03001">
        <ele>15</ele>
        <time>2018-01-08T18:25:32Z</time>
      </trkpt>
      <trkpt lat="50.75235" lon="3.03013">
        <ele>15</ele>
        <time>2018-01-08T18:26:32Z</time>
      </trkpt>
      <trkpt lat="50.75227" lon="3.03024">
        <ele>15</ele>
        <time>2018-01-08T18:27:32Z</time>
      </trkpt>
      <trkpt lat="50.75219" lon="3.03037">
        <ele>15</ele>
        <time>2018-01-08T18:28:32Z</time>
      </trkpt>
      <trkpt lat="50.75211" lon="3.03049">
        <ele>15</ele>
        <time>2018-01-08T18:29:32Z</time>
      </trkpt>
      <trkpt lat="50.75204" lon="3.03061">
        <ele>16</ele>
        <time>2018-01-08T18:30:32Z</time>
      </trkpt>
      <trkpt lat="50.75196" lon="3.03074">
        <ele>16</ele>
        <time>2018-01-08T18:31:32Z</time>
      </trkpt>
      <trkpt lat="50.75189" lon="3.03087">
        <ele>16</ele>
        <time>2018-01-08T18:32:32Z</time>
      </trkpt>
      <trkpt lat="50.75183" lon="3.031">
        <ele>16</ele>
        <time>2018-01-08T18:33:32Z</time>
      </trkpt>
      <trkpt lat="50.75176" lon="3.03114">
        <ele>16</ele>
        <time>2018-01-08T18:34:32Z</time>
      </trkpt>
      <trkpt lat="50.75169" lon="3.03128">
        <ele>15</ele>
        <time>2018-01-08T18:35:32Z</time>
      </trkpt>
      <trkpt lat="50.75163" lon="3.03141">
        <ele>15</ele>
        <time>2018-01-08T18:36:32Z</time>
      </trkpt>
      <trkpt lat="50.75157" lon="3.03156">
        <ele>15</ele>
        <time>2018-01-08T18:37:32Z</time>
      </trkpt>
      <trkpt lat="50.75151" lon="3.0317">
        <ele>15</ele>
        <time>2018-01-08T18:38:32Z</time>
      </trkpt>
      <trkpt lat="50.75146" lon="3.03184">
        <ele>16</ele>
        <time>2018-01-08T18:39:32Z</time>
      </trkpt>
      <trkpt lat="50.7514" lon="3.03199">
        <ele>16</ele>
        <time>2018-01-08T18:40:32Z</time>
      </trkpt>
      <trkpt lat="50.75135" lon="3.03215">
        <ele>16</ele>
        <time>2018-01-08T18:41:32Z</time>
      </trkpt>
      <trkpt lat="50.7513" lon="3.0323">
        <ele>16</ele>
        <time>2018-01-08T18:42:32Z</time>
      </trkpt>
      <trkpt lat="50.75126" lon="3.03246">
        <ele>16</ele>
        <time>2018-01-08T18:43:32Z</time>
      </trkpt>
      <trkpt lat="50.75121" lon="3.03262">
        <ele>17</ele>
        <time>2018-01-08T18:44:32Z</time>
      </trkpt>
      <trkpt lat="50.75117" lon="3.03278">
        <ele>17</ele>
        <time>2018-01-08T18:45:32Z</time>
      </trkpt>
      <trkpt lat="50.75113" lon="3.03295">
        <ele>17</ele>
        <time>2018-01-08T18:46:32Z</time>
      </trkpt>
      <trkpt lat="50.75109" lon="3.03311">
        <ele>17</ele>
        <time>2018-01-08T18:47:32Z</time>
      </trkpt>
      <trkpt lat="50.75106" lon="3.03328">
        <ele>17</ele>
        <time>2018-01-08T18:48:32Z</time>
      </trkpt>
      <trkpt lat="50.75103" lon="3.03344">
        <ele>17</ele>
        <time>2018-01-08T18:49:32Z</time>
      </trkpt>
      <trkpt lat="50.751" lon="3.03361">
        <ele>17</ele>
        <time>2018-01-08T18:50:32Z</time>
      </trkpt>
      <trkpt lat="50.75097" lon="3.03378">
        <ele>17</ele>
        <time>2018-01-08T18:51:32Z</time>
      </trkpt>
      <trkpt lat="50.75095" lon="3.03395">
        <ele>17</ele>
        <time>2018-01-08T18:52:32Z</time>
      </trkpt>
      <trkpt lat="50.75093" lon="3.03412">
        <ele>17</ele>
        <time>2018-01-08T18:53:32Z</time>
      </trkpt>
      <trkpt lat="50.75091" lon="3.03429">
        <ele>17</ele>
        <time>2018-01-08T18:54:32Z</time>
      </trkpt>
      <trkpt lat="50.75089" lon="3.03447">
        <ele>17</ele>
        <time>2018-01-08T18:55:32Z</time>
      </trkpt>
      <trkpt lat="50.75088" lon="3.03464">
        <ele>18</ele>
        <time>2018-01-08T18:56:32Z</time>
      </trkpt>
      <trkpt lat="50.75087" lon="3.03481">
        <ele>18</ele>
        <time>2018-01-08T18:57:32Z</time>
      </trkpt>
      <trkpt lat="50.75085" lon="3.03498">
        <ele>18</ele>
        <time>2018-01-08T18:58:32Z</time>
      </trkpt>
      <trkpt lat="50.75084" lon="3.03515">
        <ele>18</ele>
        <time>2018-01-08T18:59:32Z</time>
      </trkpt>
      <trkpt lat="50.75083" lon="3.03532">
        <ele>18</ele>
        <time>2018-01-08T19:00:32Z</time>
      </trkpt>
      <trkpt lat="50.75082" lon="3.03548">
        <ele>18</ele>
        <time>2018-01-08T19:01:32Z</time>
      </trkpt>
      <trkpt lat="50.75082" lon="3.03565">
        <ele>18</ele>
        <time>2018-01-08T19:02:32Z</time>
      </trkpt>
      <trkpt lat="50.75081" lon="3.03582">
        <ele>18</ele>
        <time>2018-01-08T19:03:32Z</time>
      </trkpt>
      <trkpt lat="50.7508" lon="3.03599">
        <ele>18</ele>
        <time>2018-01-08T19:04:32Z</time>
      </trkpt>
      <trkpt lat="50.75079" lon="3.03611">
        <ele>18</ele>
        <time>2018-01-08T19:05:32Z</time>
      </trkpt>
      <trkpt lat="50.75079" lon="3.03621">
        <ele>18</ele>
        <time>2018-01-08T19:06:32Z</time>
      </trkpt>
      <trkpt lat="50.75078" lon="3.03633">
        <ele>18</ele>
        <time>2018-01-08T19:07:32Z</time>
      </trkpt>
      <trkpt lat="50.75077" lon="3.03645">
        <ele>18</ele>
        <time>2018-01-08T19:08:32Z</time>
      </trkpt>
      <trkpt lat="50.75076" lon="3.03658">
        <ele>18</ele>
        <time>2018-01-08T19:09:32Z</time>
      </trkpt>
      <trkpt lat="50.75075" lon="3.03671">
        <ele>18</ele>
        <time>2018-01-08T19:10:32Z</time>
      </trkpt>
      <trkpt lat="50.75074" lon="3.03684">
        <ele>18</ele>
        <time>2018-01-08T19:11:32Z</time>
      </trkpt>
      <trkpt lat="50.75074" lon="3.03699">
        <ele>18</ele>
        <time>2018-01-08T19:12:32Z</time>
      </trkpt>
      <trkpt lat="50.75073" lon="3.03713">
        <ele>18</ele>
        <time>2018-01-08T19:13:32Z</time>
      </trkpt>
      <trkpt lat="50.75073" lon="3.03727">
        <ele>18</ele>
        <time>2018-01-08T19:14:32Z</time>
      </trkpt>
      <trkpt lat="50.75073" lon="3.03742">
        <ele>18</ele>
        <time>2018-01-08T19:15:32Z</time>
      </trkpt>
      <trkpt lat="50.75073" lon="3.03759">
        <ele>18</ele>
        <time>2018-01-08T19:16:32Z</time>
      </trkpt>
      <trkpt lat="50.75073" lon="3.03771">
        <ele>18</ele>
        <time>2018-01-08T19:17:32Z</time>
      </trkpt>
      <trkpt lat="50.75073" lon="3.03787">
        <ele>18</ele>
        <time>2018-01-08T19:18:32Z</time>
      </trkpt>
      <trkpt lat="50.75073" lon="3.03802">
        <ele>17</ele>
        <time>2018-01-08T19:19:32Z</time>
      </trkpt>
      <trkpt lat="50.75073" lon="3.03818">
        <ele>17</ele>
        <time>2018-01-08T19:20:32Z</time>
      </trkpt>
      <trkpt lat="50.75074" lon="3.03834">
        <ele>17</ele>
        <time>2018-01-08T19:21:32Z</time>
      </trkpt>
      <trkpt lat="50.75075" lon="3.03849">
        <ele>17</ele>
        <time>2018-01-08T19:22:32Z</time>
      </trkpt>
      <trkpt lat="50.75075" lon="3.03865">
        <ele>17</ele>
        <time>2018-01-08T19:23:32Z</time>
      </trkpt>
      <trkpt lat="50.75076" lon="3.03881">
        <ele>18</ele>
        <time>2018-01-08T19:24:32Z</time>
      </trkpt>
      <trkpt lat="50.75079" lon="3.03914">
        <ele>18</ele>
        <time>2018-01-08T19:25:32Z</time>
      </trkpt>
      <trkpt lat="50.75079" lon="3.03918">
        <ele>18</ele>
        <time>2018-01-08T19:26:32Z</time>
      </trkpt>
      <trkpt lat="50.7508" lon="3.03935">
        <ele>18</ele>
        <time>2018-01-08T19:27:32Z</time>
      </trkpt>
      <trkpt lat="50.7508" lon="3.03951">
        <ele>18</ele>
        <time>2018-01-08T19:28:32Z</time>
      </trkpt>
      <trkpt lat="50.75081" lon="3.03968">
        <ele>19</ele>
        <time>2018-01-08T19:29:32Z</time>
      </trkpt>
      <trkpt lat="50.75081" lon="3.03985">
        <ele>19</ele>
        <time>2018-01-08T19:30:32Z</time>
      </trkpt>
      <trkpt lat="50.75082" lon="3.04002">
        <ele>19</ele>
        <time>2018-01-08T19:31:32Z</time>
      </trkpt>
      <trkpt lat="50.75083" lon="3.0402">
        <ele>19</ele>
        <time>2018-01-08T19:32:32Z</time>
      </trkpt>
      <trkpt lat="50.75083" lon="3.04037">
        <ele>19</ele>
        <time>2018-01-08T19:33:32Z</time>
      </trkpt>
      <trkpt lat="50.75084" lon="3.04055">
        <ele>19</ele>
        <time>2018-01-08T19:34:32Z</time>
      </trkpt>
      <trkpt lat="50.75085" lon="3.04072">
        <ele>19</ele>
        <time>2018-01-08T19:35:32Z</time>
      </trkpt>
      <trkpt lat="50.75086" lon="3.0409">
        <ele>19</ele>
        <time>2018-01-08T19:36:32Z</time>
      </trkpt>
      <trkpt lat="50.75086" lon="3.04108">
        <ele>19</ele>
        <time>2018-01-08T19:37:32Z</time>
      </trkpt>
      <trkpt lat="50.75087" lon="3.04126">
        <ele>18</ele>
        <time>2018-01-08T19:38:32Z</time>
      </trkpt>
      <trkpt lat="50.75088" lon="3.04144">
        <ele>18</ele>
        <time>2018-01-08T19:39:32Z</time>
      </trkpt>
      <trkpt lat="50.7509" lon="3.04162">
        <ele>18</ele>
        <time>2018-01-08T19:40:32Z</time>
      </trkpt>
      <trkpt lat="50.75091" lon="3.0418">
        <ele>18</ele>
        <time>2018-01-08T19:41:32Z</time>
      </trkpt>
      <trkpt lat="50.75092" lon="3.04197">
        <ele>18</ele>
        <time>2018-01-08T19:42:32Z</time>
      </trkpt>
      <trkpt lat="50.75093" lon="3.04215">
        <ele>18</ele>
        <time>2018-01-08T19:43:32Z</time>
      </trkpt>
      <trkpt lat="50.75095" lon="3.04232">
        <ele>18</ele>
        <time>2018-01-08T19:44:32Z</time>
      </trkpt>
      <trkpt lat="50.75096" lon="3.0425">
        <ele>18</ele>
        <time>2018-01-08T19:45:32Z</time>
      </trkpt>
      <trkpt lat="50.75098" lon="3.04267">
        <ele>18</ele>
        <time>2018-01-08T19:46:32Z</time>
      </trkpt>
      <trkpt lat="50.75099" lon="3.04284">
        <ele>18</ele>
        <time>2018-01-08T19:47:32Z</time>
      </trkpt>
      <trkpt lat="50.75101" lon="3.04302">
        <ele>17</ele>
        <time>2018-01-08T19:48:32Z</time>
      </trkpt>
      <trkpt lat="50.75103" lon="3.04318">
        <ele>17</ele>
        <time>2018-01-08T19:49:32Z</time>
      </trkpt>
      <trkpt lat="50.75105" lon="3.04336">
        <ele>17</ele>
        <time>2018-01-08T19:50:32Z</time>
      </trkpt>
      <trkpt lat="50.75107" lon="3.04353">
        <ele>17</ele>
        <time>2018-01-08T19:51:32Z</time>
      </trkpt>
      <trkpt lat="50.75108" lon="3.0437">
        <ele>17</ele>
        <time>2018-01-08T19:52:32Z</time>
      </trkpt>
      <trkpt lat="50.75111" lon="3.04388">
        <ele>17</ele>
        <time>2018-01-08T19:53:32Z</time>
      </trkpt>
      <trkpt lat="50.75113" lon="3.04406">
        <ele>17</ele>
        <time>2018-01-08T19:54:32Z</time>
      </trkpt>
      <trkpt lat="50.75115" lon="3.04423">
        <ele>17</ele>
        <time>2018-01-08T19:55:32Z</time>
      </trkpt>
      <trkpt lat="50.75118" lon="3.04441">
        <ele>17</ele>
        <time>2018-01-08T19:56:32Z</time>
      </trkpt>
      <trkpt lat="50.7512" lon="3.04459">
        <ele>17</ele>
        <time>2018-01-08T19:57:32Z</time>
      </trkpt>
      <trkpt lat="50.75123" lon="3.04477">
        <ele>17</ele>
        <time>2018-01-08T19:58:32Z</time>
      </trkpt>
      <trkpt lat="50.75125" lon="3.04495">
        <ele>17</ele>
        <time>2018-01-08T19:59:32Z</time>
      </trkpt>
      <trkpt lat="50.75128" lon="3.04512">
        <ele>17</ele>
        <time>2018-01-08T20:00:32Z</time>
      </trkpt>
      <trkpt lat="50.75131" lon="3.0453">
        <ele>17</ele>
        <time>2018-01-08T20:01:32Z</time>
      </trkpt>
      <trkpt lat="50.75134" lon="3.04548">
        <ele>17</ele>
        <time>2018-01-08T20:02:32Z</time>
      </trkpt>
      <trkpt lat="50.75137" lon="3.04567">
        <ele>17</ele>
        <time>2018-01-08T20:03:32Z</time>
      </trkpt>
      <trkpt lat="50.7514" lon="3.04585">
        <ele>17</ele>
        <time>2018-01-08T20:04:32Z</time>
      </trkpt>
      <trkpt lat="50.75143" lon="3.04604">
        <ele>17</ele>
        <time>2018-01-08T20:05:32Z</time>
      </trkpt>
      <trkpt lat="50.75146" lon="3.04622">
        <ele>17</ele>
        <time>2018-01-08T20:06:32Z</time>
      </trkpt>
      <trkpt lat="50.75149" lon="3.0464">
        <ele>18</ele>
        <time>2018-01-08T20:07:32Z</time>
      </trkpt>
      <trkpt lat="50.75153" lon="3.04658">
        <ele>18</ele>
        <time>2018-01-08T20:08:32Z</time>
      </trkpt>
      <trkpt lat="50.75156" lon="3.04676">
        <ele>18</ele>
        <time>2018-01-08T20:09:32Z</time>
      </trkpt>
      <trkpt lat="50.7516" lon="3.04694">
        <ele>18</ele>
        <time>2018-01-08T20:10:32Z</time>
      </trkpt>
      <trkpt lat="50.75163" lon="3.04712">
        <ele>18</ele>
        <time>2018-01-08T20:11:32Z</time>
      </trkpt>
      <trkpt lat="50.75167" lon="3.0473">
        <ele>18</ele>
        <time>2018-01-08T20:12:32Z</time>
      </trkpt>
      <trkpt lat="50.75171" lon="3.04748">
        <ele>18</ele>
        <time>2018-01-08T20:13:32Z</time>
      </trkpt>
      <trkpt lat="50.75175" lon="3.04766">
        <ele>18</ele>
        <time>2018-01-08T20:14:32Z</time>
      </trkpt>
      <trkpt lat="50.75179" lon="3.04784">
        <ele>19</ele>
        <time>2018-01-08T20:15:32Z</time>
      </trkpt>
      <trkpt lat="50.75183" lon="3.04802">
        <ele>19</ele>
        <time>2018-01-08T20:16:32Z</time>
      </trkpt>
      <trkpt lat="50.75187" lon="3.0482">
        <ele>19</ele>
        <time>2018-01-08T20:17:32Z</time>
      </trkpt>
      <trkpt lat="50.75191" lon="3.04838">
        <ele>20</ele>
        <time>2018-01-08T20:18:32Z</time>
      </trkpt>
      <trkpt lat="50.75195" lon="3.04855">
        <ele>20</ele>
        <time>2018-01-08T20:19:32Z</time>
      </trkpt>
      <trkpt lat="50.75199" lon="3.04873">
        <ele>20</ele>
        <time>2018-01-08T20:20:32Z</time>
      </trkpt>
      <trkpt lat="50.75204" lon="3.0489">
        <ele>20</ele>
        <time>2018-01-08T20:21:32Z</time>
      </trkpt>
      <trkpt lat="50.75208" lon="3.04908">
        <ele>20</ele>
        <time>2018-01-08T20:22:32Z</time>
      </trkpt>
      <trkpt lat="50.75212" lon="3.04925">
        <ele>20</ele>
        <time>2018-01-08T20:23:32Z</time>
      </trkpt>
      <trkpt lat="50.75217" lon="3.04942">
        <ele>21</ele>
        <time>2018-01-08T20:24:32Z</time>
      </trkpt>
      <trkpt lat="50.75222" lon="3.0496">
        <ele>21</ele>
        <time>2018-01-08T20:25:32Z</time>
      </trkpt>
      <trkpt lat="50.75226" lon="3.04978">
        <ele>21</ele>
        <time>2018-01-08T20:26:32Z</time>
      </trkpt>
      <trkpt lat="50.75231" lon="3.04995">
        <ele>21</ele>
        <time>2018-01-08T20:27:32Z</time>
      </trkpt>
      <trkpt lat="50.75232" lon="3.04998">
        <ele>22</ele>
        <time>2018-01-08T20:28:32Z</time>
      </trkpt>
      <trkpt lat="50.75248" lon="3.05058">
        <ele>22</ele>
        <time>2018-01-08T20:29:32Z</time>
      </trkpt>
      <trkpt lat="50.75252" lon="3.05073">
        <ele>22</ele>
        <time>2018-01-08T20:30:32Z</time>
      </trkpt>
      <trkpt lat="50.75262" lon="3.05109">
        <ele>23</ele>
        <time>2018-01-08T20:31:32Z</time>
      </trkpt>
      <trkpt lat="50.75275" lon="3.05158">
        <ele>23</ele>
        <time>2018-01-08T20:32:32Z</time>
      </trkpt>
      <trkpt lat="50.75279" lon="3.05175">
        <ele>23</ele>
        <time>2018-01-08T20:33:32Z</time>
      </trkpt>
      <trkpt lat="50.7528" lon="3.05179">
        <ele>23</ele>
        <time>2018-01-08T20:34:32Z</time>
      </trkpt>
      <trkpt lat="50.75281" lon="3.05186">
        <ele>23</ele>
        <time>2018-01-08T20:35:32Z</time>
      </trkpt>
      <trkpt lat="50.75281" lon="3.05194">
        <ele>23</ele>
        <time>2018-01-08T20:36:32Z</time>
      </trkpt>
      <trkpt lat="50.75282" lon="3.05201">
        <ele>23</ele>
        <time>2018-01-08T20:37:32Z</time>
      </trkpt>
      <trkpt lat="50.75283" lon="3.05206">
        <ele>23</ele>
        <time>2018-01-08T20:38:32Z</time>
      </trkpt>
      <trkpt lat="50.75283" lon="3.05211">
        <ele>23</ele>
        <time>2018-01-08T20:39:32Z</time>
      </trkpt>
      <trkpt lat="50.75284" lon="3.05216">
        <ele>23</ele>
        <time>2018-01-08T20:40:32Z</time>
      </trkpt>
      <trkpt lat="50.75284" lon="3.0522">
        <ele>23</ele>
        <time>2018-01-08T20:41:32Z</time>
      </trkpt>
      <trkpt lat="50.75283" lon="3.05238">
        <ele>23</ele>
        <time>2018-01-08T20:42:32Z</time>
      </trkpt>
      <trkpt lat="50.75283" lon="3.05238">
        <ele>23</ele>
        <time>2018-01-08T20:43:32Z</time>
      </trkpt>
      <trkpt lat="50.75281" lon="3.05242">
        <ele>23</ele>
        <time>2018-01-08T20:44:32Z</time>
      </trkpt>
      <trkpt lat="50.75279" lon="3.05248">
        <ele>23</ele>
        <time>2018-01-08T20:45:32Z</time>
      </trkpt>
      <trkpt lat="50.75278" lon="3.05253">
        <ele>23</ele>
        <time>2018-01-08T20:46:32Z</time>
      </trkpt>
      <trkpt lat="50.75278" lon="3.05254">
        <ele>23</ele>
        <time>2018-01-08T20:47:32Z</time>
      </trkpt>
      <trkpt lat="50.75278" lon="3.05259">
        <ele>23</ele>
        <time>2018-01-08T20:48:32Z</time>
      </trkpt>
      <trkpt lat="50.75277" lon="3.05263">
        <ele>23</ele>
        <time>2018-01-08T20:49:32Z</time>
      </trkpt>
      <trkpt lat="50.75275" lon="3.05269">
        <ele>23</ele>
        <time>2018-01-08T20:50:32Z</time>
      </trkpt>
      <trkpt lat="50.75272" lon="3.05275">
        <ele>23</ele>
        <time>2018-01-08T20:51:32Z</time>
      </trkpt>
      <trkpt lat="50.75269" lon="3.05282">
        <ele>23</ele>
        <time>2018-01-08T20:52:32Z</time>
      </trkpt>
      <trkpt lat="50.75265" lon="3.05287">
        <ele>23</ele>
        <time>2018-01-08T20:53:32Z</time>
      </trkpt>
      <trkpt lat="50.75261" lon="3.05293">
        <ele>23</ele>
        <time>2018-01-08T20:54:32Z</time>
      </trkpt>
      <trkpt lat="50.75256" lon="3.05298">
        <ele>23</ele>
        <time>2018-01-08T20:55:32Z</time>
      </trkpt>
      <trkpt lat="50.75253" lon="3.05304">
        <ele>23</ele>
        <time>2018-01-08T20:56:32Z</time>
      </trkpt>
      <trkpt lat="50.75247" lon="3.05311">
        <ele>23</ele>
        <time>2018-01-08T20:57:32Z</time>
      </trkpt>
      <trkpt lat="50.75238" lon="3.05318">
        <ele>23</ele>
        <time>2018-01-08T20:58:32Z</time>
      </trkpt>
      <trkpt lat="50.75231" lon="3.05322">
        <ele>23</ele>
        <time>2018-01-08T20:59:32Z</time>
      </trkpt>
      <trkpt lat="50.75216" lon="3.05335">
        <ele>23</ele>
        <time>2018-01-08T21:00:32Z</time>
      </trkpt>
      <trkpt lat="50.75209" lon="3.0534">
        <ele>22</ele>
        <time>2018-01-08T21:01:32Z</time>
      </trkpt>
      <trkpt lat="50.75204" lon="3.05344">
        <ele>22</ele>
        <time>2018-01-08T21:02:32Z</time>
      </trkpt>
      <trkpt lat="50.75196" lon="3.05353">
        <ele>22</ele>
        <time>2018-01-08T21:03:32Z</time>
      </trkpt>
      <trkpt lat="50.75192" lon="3.05356">
        <ele>22</ele>
        <time>2018-01-08T21:04:32Z</time>
      </trkpt>
      <trkpt lat="50.75182" lon="3.05367">
        <ele>22</ele>
        <time>2018-01-08T21:05:32Z</time>
      </trkpt>
      <trkpt lat="50.75175" lon="3.05374">
        <ele>22</ele>
        <time>2018-01-08T21:06:32Z</time>
      </trkpt>
      <trkpt lat="50.75159" lon="3.05394">
        <ele>21</ele>
        <time>2018-01-08T21:07:32Z</time>
      </trkpt>
      <trkpt lat="50.7515" lon="3.05407">
        <ele>21</ele>
        <time>2018-01-08T21:08:32Z</time>
      </trkpt>
      <trkpt lat="50.75148" lon="3.05409">
        <ele>21</ele>
        <time>2018-01-08T21:09:32Z</time>
      </trkpt>
      <trkpt lat="50.75143" lon="3.05417">
        <ele>21</ele>
        <time>2018-01-08T21:10:32Z</time>
      </trkpt>
      <trkpt lat="50.75132" lon="3.05432">
        <ele>21</ele>
        <time>2018-01-08T21:11:32Z</time>
      </trkpt>
      <trkpt lat="50.75125" lon="3.05445">
        <ele>21</ele>
        <time>2018-01-08T21:12:32Z</time>
      </trkpt>
      <trkpt lat="50.75112" lon="3.05466">
        <ele>20</ele>
        <time>2018-01-08T21:13:32Z</time>
      </trkpt>
      <trkpt lat="50.75093" lon="3.05496">
        <ele>20</ele>
        <time>2018-01-08T21:14:32Z</time>
      </trkpt>
      <trkpt lat="50.75083" lon="3.0551">
        <ele>20</ele>
        <time>2018-01-08T21:15:32Z</time>
      </trkpt>
      <trkpt lat="50.75077" lon="3.05518">
        <ele>20</ele>
        <time>2018-01-08T21:16:32Z</time>
      </trkpt>
      <trkpt lat="50.7507" lon="3.05527">
        <ele>21</ele>
        <time>2018-01-08T21:17:32Z</time>
      </trkpt>
      <trkpt lat="50.75062" lon="3.05537">
        <ele>21</ele>
        <time>2018-01-08T21:18:32Z</time>
      </trkpt>
      <trkpt lat="50.75057" lon="3.05542">
        <ele>21</ele>
        <time>2018-01-08T21:19:32Z</time>
      </trkpt>
      <trkpt lat="50.75052" lon="3.05548">
        <ele>22</ele>
        <time>2018-01-08T21:20:32Z</time>
      </trkpt>
      <trkpt lat="50.75038" lon="3.05562">
        <ele>22</ele>
        <time>2018-01-08T21:21:32Z</time>
      </trkpt>
      <trkpt lat="50.75034" lon="3.05566">
        <ele>23</ele>
        <time>2018-01-08T21:22:32Z</time>
      </trkpt>
      <trkpt lat="50.75028" lon="3.05572">
        <ele>23</ele>
        <time>2018-01-08T21:23:32Z</time>
      </trkpt>
      <trkpt lat="50.75024" lon="3.05575">
        <ele>23</ele>
        <time>2018-01-08T21:24:32Z</time>
      </trkpt>
      <trkpt lat="50.75015" lon="3.05582">
        <ele>23</ele>
        <time>2018-01-08T21:25:32Z</time>
      </trkpt>
      <trkpt lat="50.75003" lon="3.05591">
        <ele>24</ele>
        <time>2018-01-08T21:26:32Z</time>
      </trkpt>
      <trkpt lat="50.74981" lon="3.05607">
        <ele>24</ele>
        <time>2018-01-08T21:27:32Z</time>
      </trkpt>
      <trkpt lat="50.7496" lon="3.05619">
        <ele>24</ele>
        <time>2018-01-08T21:28:32Z</time>
      </trkpt>
      <trkpt lat="50.74945" lon="3.05628">
        <ele>24</ele>
        <time>2018-01-08T21:29:32Z</time>
      </trkpt>
      <trkpt lat="50.74931" lon="3.05637">
        <ele>24</ele>
        <time>2018-01-08T21:30:32Z</time>
      </trkpt>
      <trkpt lat="50.74919" lon="3.05644">
        <ele>24</ele>
        <time>2018-01-08T21:31:32Z</time>
      </trkpt>
      <trkpt lat="50.74904" lon="3.05652">
        <ele>24</ele>
        <time>2018-01-08T21:32:32Z</time>
      </trkpt>
      <trkpt lat="50.74872" lon="3.05668">
        <ele>23</ele>
        <time>2018-01-08T21:33:32Z</time>
      </trkpt>
      <trkpt lat="50.74856" lon="3.05677">
        <ele>23</ele>
        <time>2018-01-08T21:34:32Z</time>
      </trkpt>
      <trkpt lat="50.74848" lon="3.05681">
        <ele>23</ele>
        <time>2018-01-08T21:35:32Z</time>
      </trkpt>
      <trkpt lat="50.74843" lon="3.05684">
        <ele>23</ele>
        <time>2018-01-08T21:36:32Z</time>
      </trkpt>
      <trkpt lat="50.74839" lon="3.05687">
        <ele>23</ele>
        <time>2018-01-08T21:37:32Z</time>
      </trkpt>
      <trkpt lat="50.74829" lon="3.05694">
        <ele>23</ele>
        <time>2018-01-08T21:38:32Z</time>
      </trkpt>
      <trkpt lat="50.74817" lon="3.05702">
        <ele>23</ele>
        <time>2018-01-08T21:39:32Z</time>
      </trkpt>
      <trkpt lat="50.74808" lon="3.05709">
        <ele>23</ele>
        <time>2018-01-08T21:40:32Z</time>
      </trkpt>
      <trkpt lat="50.74797" lon="3.05717">
        <ele>23</ele>
        <time>2018-01-08T21:41:32Z</time>
      </trkpt>
      <trkpt lat="50.74783" lon="3.05727">
        <ele>22</ele>
        <time>2018-01-08T21:42:32Z</time>
      </trkpt>
      <trkpt lat="50.74757" lon="3.05751">
        <ele>22</ele>
        <time>2018-01-08T21:43:32Z</time>
      </trkpt>
      <trkpt lat="50.74733" lon="3.05775">
        <ele>22</ele>
        <time>2018-01-08T21:44:32Z</time>
      </trkpt>
      <trkpt lat="50.74722" lon="3.05786">
        <ele>22</ele>
        <time>2018-01-08T21:45:32Z</time>
      </trkpt>
      <trkpt lat="50.74696" lon="3.05814">
        <ele>23</ele>
        <time>2018-01-08T21:46:32Z</time>
      </trkpt>
      <trkpt lat="50.74679" lon="3.05833">
        <ele>23</ele>
        <time>2018-01-08T21:47:32Z</time>
      </trkpt>
      <trkpt lat="50.74666" lon="3.05848">
        <ele>23</ele>
        <time>2018-01-08T21:48:32Z</time>
      </trkpt>
      <trkpt lat="50.74643" lon="3.05887">
        <ele>22</ele>
        <time>2018-01-08T21:49:32Z</time>
      </trkpt>
      <trkpt lat="50.74634" lon="3.05897">
        <ele>22</ele>
        <time>2018-01-08T21:50:32Z</time>
      </trkpt>
      <trkpt lat="50.74631" lon="3.05901">
        <ele>22</ele>
        <time>2018-01-08T21:51:32Z</time>
      </trkpt>
      <trkpt lat="50.74624" lon="3.05908">
        <ele>22</ele>
        <time>2018-01-08T21:52:32Z</time>
      </trkpt>
      <trkpt lat="50.74613" lon="3.05918">
        <ele>22</ele>
        <time>2018-01-08T21:53:32Z</time>
      </trkpt>
      <trkpt lat="50.74602" lon="3.05928">
        <ele>22</ele>
        <time>2018-01-08T21:54:32Z</time>
      </trkpt>
      <trkpt lat="50.7459" lon="3.05937">
        <ele>21</ele>
        <time>2018-01-08T21:55:32Z</time>
      </trkpt>
      <trkpt lat="50.74563" lon="3.05957">
        <ele>21</ele>
        <time>2018-01-08T21:56:32Z</time>
      </trkpt>
      <trkpt lat="50.74548" lon="3.05969">
        <ele>21</ele>
        <time>2018-01-08T21:57:32Z</time>
      </trkpt>
      <trkpt lat="50.74527" lon="3.05986">
        <ele>22</ele>
        <time>2018-01-08T21:58:32Z</time>
      </trkpt>
      <trkpt lat="50.745" lon="3.06006">
        <ele>22</ele>
        <time>2018-01-08T21:59:32Z</time>
      </trkpt>
      <trkpt lat="50.74494" lon="3.06011">
        <ele>22</ele>
        <time>2018-01-08T22:00:32Z</time>
      </trkpt>
      <trkpt lat="50.74474" lon="3.06026">
        <ele>22</ele>
        <time>2018-01-08T22:01:32Z</time>
      </trkpt>
      <trkpt lat="50.74466" lon="3.06033">
        <ele>22</ele>
        <time>2018-01-08T22:02:32Z</time>
      </trkpt>
      <trkpt lat="50.74461" lon="3.06037">
        <ele>22</ele>
        <time>2018-01-08T22:03:32Z</time>
      </trkpt>
      <trkpt lat="50.74453" lon="3.06042">
        <ele>22</ele>
        <time>2018-01-08T22:04:32Z</time>
      </trkpt>
      <trkpt lat="50.74447" lon="3.06046">
        <ele>22</ele>
        <time>2018-01-08T22:05:32Z</time>
      </trkpt>
      <trkpt lat="50.74424" lon="3.06061">
        <ele>22</ele>
        <time>2018-01-08T22:06:32Z</time>
      </trkpt>
      <trkpt lat="50.74421" lon="3.06064">
        <ele>22</ele>
        <time>2018-01-08T22:07:32Z</time>
      </trkpt>
      <trkpt lat="50.74396" lon="3.06079">
        <ele>22</ele>
        <time>2018-01-08T22:08:32Z</time>
      </trkpt>
      <trkpt lat="50.74381" lon="3.06089">
        <ele>23</ele>
        <time>2018-01-08T22:09:32Z</time>
      </trkpt>
      <trkpt lat="50.74363" lon="3.06101">
        <ele>23</ele>
        <time>2018-01-08T22:10:32Z</time>
      </trkpt>
      <trkpt lat="50.74337" lon="3.06115">
        <ele>24</ele>
        <time>2018-01-08T22:11:32Z</time>
      </trkpt>
      <trkpt lat="50.74326" lon="3.06121">
        <ele>24</ele>
        <time>2018-01-08T22:12:32Z</time>
      </trkpt>
      <trkpt lat="50.7432" lon="3.06123">
        <ele>23</ele>
        <time>2018-01-08T22:13:32Z</time>
      </trkpt>
      <trkpt lat="50.74313" lon="3.06126">
        <ele>23</ele>
        <time>2018-01-08T22:14:32Z</time>
      </trkpt>
      <trkpt lat="50.74304" lon="3.06129">
        <ele>23</ele>
        <time>2018-01-08T22:15:32Z</time>
      </trkpt>
      <trkpt lat="50.74294" lon="3.06132">
        <ele>22</ele>
        <time>2018-01-08T22:16:32Z</time>
      </trkpt>
      <trkpt lat="50.74287" lon="3.06135">
        <ele>22</ele>
        <time>2018-01-08T22:17:32Z</time>
      </trkpt>
      <trkpt lat="50.74283" lon="3.06137">
        <ele>22</ele>
        <time>2018-01-08T22:18:32Z</time>
      </trkpt>
      <trkpt lat="50.74279" lon="3.0614">
        <ele>22</ele>
        <time>2018-01-08T22:19:32Z</time>
      </trkpt>
      <trkpt lat="50.74277" lon="3.06142">
        <ele>22</ele>
        <time>2018-01-08T22:20:32Z</time>
      </trkpt>
      <trkpt lat="50.74275" lon="3.06144">
        <ele>22</ele>
        <time>2018-01-08T22:21:32Z</time>
      </trkpt>
      <trkpt lat="50.74271" lon="3.0615">
        <ele>22</ele>
        <time>2018-01-08T22:22:32Z</time>
      </trkpt>
      <trkpt lat="50.74269" lon="3.06154">
        <ele>22</ele>
        <time>2018-01-08T22:23:32Z</time>
      </trkpt>
      <trkpt lat="50.74266" lon="3.06165">
        <ele>22</ele>
        <time>2018-01-08T22:24:32Z</time>
      </trkpt>
      <trkpt lat="50.74265" lon="3.06171">
        <ele>22</ele>
        <time>2018-01-08T22:25:32Z</time>
      </trkpt>
      <trkpt lat="50.74264" lon="3.06178">
        <ele>22</ele>
        <time>2018-01-08T22:26:32Z</time>
      </trkpt>
      <trkpt lat="50.74263" lon="3.06185">
        <ele>22</ele>
        <time>2018-01-08T22:27:32Z</time>
      </trkpt>
      <trkpt lat="50.74262" lon="3.06197">
        <ele>21</ele>
        <time>2018-01-08T22:28:32Z</time>
      </trkpt>
      <trkpt lat="50.74261" lon="3.06217">
        <ele>21</ele>
        <time>2018-01-08T22:29:32Z</time>
      </trkpt>
      <trkpt lat="50.7426" lon="3.06234">
        <ele>21</ele>
        <time>2018-01-08T22:30:32Z</time>
      </trkpt>
      <trkpt lat="50.74256" lon="3.06286">
        <ele>21</ele>
        <time>2018-01-08T22:31:32Z</time>
      </trkpt>
      <trkpt lat="50.74253" lon="3.06335">
        <ele>21</ele>
        <time>2018-01-08T22:32:32Z</time>
      </trkpt>
      <trkpt lat="50.74252" lon="3.0634">
        <ele>21</ele>
        <time>2018-01-08T22:33:32Z</time>
      </trkpt>
      <trkpt lat="50.74251" lon="3.06381">
        <ele>21</ele>
        <time>2018-01-08T22:34:32Z</time>
      </trkpt>
      <trkpt lat="50.7425" lon="3.06416">
        <ele>21</ele>
        <time>2018-01-08T22:35:32Z</time>
      </trkpt>
      <trkpt lat="50.74249" lon="3.06429">
        <ele>21</ele>
        <time>2018-01-08T22:36:32Z</time>
      </trkpt>
      <trkpt lat="50.74248" lon="3.06441">
        <ele>21</ele>
        <time>2018-01-08T22:37:32Z</time>
      </trkpt>
      <trkpt lat="50.74247" lon="3.06454">
        <ele>21</ele>
        <time>2018-01-08T22:38:32Z</time>
      </trkpt>
      <trkpt lat="50.74246" lon="3.06459">
        <ele>21</ele>
        <time>2018-01-08T22:39:32Z</time>
      </trkpt>
      <trkpt lat="50.74243" lon="3.06477">
        <ele>21</ele>
        <time>2018-01-08T22:40:32Z</time>
      </trkpt>
      <trkpt lat="50.74241" lon="3.06483">
        <ele>21</ele>
        <time>2018-01-08T22:41:32Z</time>
      </trkpt>
      <trkpt lat="50.74236" lon="3.065">
        <ele>21</ele>
        <time>2018-01-08T22:42:32Z</time>
      </trkpt>
      <trkpt lat="50.74228" lon="3.06519">
        <ele>21</ele>
        <time>2018-01-08T22:43:32Z</time>
      </trkpt>
      <trkpt lat="50.74217" lon="3.06539">
        <ele>21</ele>
        <time>2018-01-08T22:44:32Z</time>
      </trkpt>
      <trkpt lat="50.74213" lon="3.06546">
        <ele>21</ele>
        <time>2018-01-08T22:45:32Z</time>
      </trkpt>
      <trkpt lat="50.74203" lon="3.06564">
        <ele>22</ele>
        <time>2018-01-08T22:46:32Z</time>
      </trkpt>
      <trkpt lat="50.74187" lon="3.06592">
        <ele>22</ele>
        <time>2018-01-08T22:47:32Z</time>
      </trkpt>
      <trkpt lat="50.74172" lon="3.06621">
        <ele>22</ele>
        <time>2018-01-08T22:48:32Z</time>
      </trkpt>
      <trkpt lat="50.74137" lon="3.06698">
        <ele>24</ele>
        <time>2018-01-08T22:49:32Z</time>
      </trkpt>
      <trkpt lat="50.74127" lon="3.06718">
        <ele>24</ele>
        <time>2018-01-08T22:50:32Z</time>
      </trkpt>
      <trkpt lat="50.74108" lon="3.06757">
        <ele>24</ele>
        <time>2018-01-08T22:51:32Z</time>
      </trkpt>
      <trkpt lat="50.74093" lon="3.0679">
        <ele>24</ele>
        <time>2018-01-08T22:52:32Z</time>
      </trkpt>
      <trkpt lat="50.74086" lon="3.06807">
        <ele>24</ele>
        <time>2018-01-08T22:53:32Z</time>
      </trkpt>
      <trkpt lat="50.74081" lon="3.06821">
        <ele>24</ele>
        <time>2018-01-08T22:54:32Z</time>
      </trkpt>
      <trkpt lat="50.74076" lon="3.06836">
        <ele>24</ele>
        <time>2018-01-08T22:55:32Z</time>
      </trkpt>
      <trkpt lat="50.74073" lon="3.06853">
        <ele>24</ele>
        <time>2018-01-08T22:56:32Z</time>
      </trkpt>
      <trkpt lat="50.74071" lon="3.06876">
        <ele>24</ele>
        <time>2018-01-08T22:57:32Z</time>
      </trkpt>
      <trkpt lat="50.74069" lon="3.069">
        <ele>24</ele>
        <time>2018-01-08T22:58:32Z</time>
      </trkpt>
      <trkpt lat="50.74067" lon="3.06917">
        <ele>24</ele>
        <time>2018-01-08T22:59:32Z</time>
      </trkpt>
      <trkpt lat="50.74064" lon="3.0693">
        <ele>24</ele>
        <time>2018-01-08T23:00:32Z</time>
      </trkpt>
      <trkpt lat="50.74063" lon="3.06935">
        <ele>24</ele>
        <time>2018-01-08T23:01:32Z</time>
      </trkpt>
      <trkpt lat="50.74058" lon="3.06953">
        <ele>24</ele>
        <time>2018-01-08T23:02:32Z</time>
      </trkpt>
      <trkpt lat="50.74044" lon="3.0699">
        <ele>24</ele>
        <time>2018-01-08T23:03:32Z</time>
      </trkpt>
      <trkpt lat="50.74033" lon="3.07019">
        <ele>25</ele>
        <time>2018-01-08T23:04:32Z</time>
      </trkpt>
      <trkpt lat="50.74023" lon="3.07041">
        <ele>25</ele>
        <time>2018-01-08T23:05:32Z</time>
      </trkpt>
      <trkpt lat="50.74013" lon="3.0706">
        <ele>26</ele>
        <time>2018-01-08T23:06:32Z</time>
      </trkpt>
      <trkpt lat="50.74009" lon="3.07067">
        <ele>26</ele>
        <time>2018-01-08T23:07:32Z</time>
      </trkpt>
      <trkpt lat="50.73997" lon="3.07085">
        <ele>26</ele>
        <time>2018-01-08T23:08:32Z</time>
      </trkpt>
      <trkpt lat="50.73976" lon="3.07114">
        <ele>27</ele>
        <time>2018-01-08T23:09:32Z</time>
      </trkpt>
      <trkpt lat="50.73962" lon="3.07133">
        <ele>27</ele>
        <time>2018-01-08T23:10:32Z</time>
      </trkpt>
      <trkpt lat="50.7396" lon="3.07136">
        <ele>27</ele>
        <time>2018-01-08T23:11:32Z</time>
      </trkpt>
      <trkpt lat="50.73955" lon="3.07143">
        <ele>28</ele>
        <time>2018-01-08T23:12:32Z</time>
      </trkpt>
      <trkpt lat="50.73944" lon="3.07156">
        <ele>28</ele>
        <time>2018-01-08T23:13:32Z</time>
      </trkpt>
      <trkpt lat="50.73933" lon="3.07166">
        <ele>28</ele>
        <time>2018-01-08T23:14:32Z</time>
      </trkpt>
      <trkpt lat="50.73921" lon="3.07175">
        <ele>28</ele>
        <time>2018-01-08T23:15:32Z</time>
      </trkpt>
      <trkpt lat="50.73911" lon="3.07179">
        <ele>28</ele>
        <time>2018-01-08T23:16:32Z</time>
      </trkpt>
      <trkpt lat="50.739" lon="3.07182">
        <ele>28</ele>
        <time>2018-01-08T23:17:32Z</time>
      </trkpt>
      <trkpt lat="50.73883" lon="3.07185">
        <ele>29</ele>
        <time>2018-01-08T23:18:32Z</time>
      </trkpt>
      <trkpt lat="50.73876" lon="3.07184">
        <ele>29</ele>
        <time>2018-01-08T23:19:32Z</time>
      </trkpt>
      <trkpt lat="50.73873" lon="3.07185">
        <ele>29</ele>
        <time>2018-01-08T23:20:32Z</time>
      </trkpt>
      <trkpt lat="50.7387" lon="3.07185">
        <ele>29</ele>
        <time>2018-01-08T23:21:32Z</time>
      </trkpt>
      <trkpt lat="50.7387" lon="3.07185">
        <ele>29</ele>
        <time>2018-01-08T23:22:32Z</time>
      </trkpt>
      <trkpt lat="50.73856" lon="3.07184">
        <ele>29</ele>
        <time>2018-01-08T23:23:32Z</time>
      </trkpt>
      <trkpt lat="50.73853" lon="3.07184">
        <ele>29</ele>
        <time>2018-01-08T23:24:32Z</time>
      </trkpt>
      <trkpt lat="50.73824" lon="3.0718">
        <ele>30</ele>
        <time>2018-01-08T23:25:32Z</time>
      </trkpt>
      <trkpt lat="50.73821" lon="3.0718">
        <ele>30</ele>
        <time>2018-01-08T23:26:32Z</time>
      </trkpt>
      <trkpt lat="50.7382" lon="3.07179">
        <ele>30</ele>
        <time>2018-01-08T23:27:32Z</time>
      </trkpt>
      <trkpt lat="50.73819" lon="3.07178">
        <ele>30</ele>
        <time>2018-01-08T23:28:32Z</time>
      </trkpt>
      <trkpt lat="50.73818" lon="3.07178">
        <ele>30</ele>
        <time>2018-01-08T23:29:32Z</time>
      </trkpt>
      <trkpt lat="50.73816" lon="3.07177">
        <ele>30</ele>
        <time>2018-01-08T23:30:32Z</time>
      </trkpt>
      <trkpt lat="50.73812" lon="3.07176">
        <ele>30</ele>
        <time>2018-01-08T23:31:32Z</time>
      </trkpt>
      <trkpt lat="50.73809" lon="3.07176">
        <ele>30</ele>
        <time>2018-01-08T23:32:32Z</time>
      </trkpt>
      <trkpt lat="50.73806" lon="3.07176">
        <ele>30</ele>
        <time>2018-01-08T23:33:32Z</time>
      </trkpt>
      <trkpt lat="50.73803" lon="3.07176">
        <ele>30</ele>
        <time>2018-01-08T23:34:32Z</time>
      </trkpt>
      <trkpt lat="50.73798" lon="3.07178">
        <ele>31</ele>
        <time>2018-01-08T23:35:32Z</time>
      </trkpt>
      <trkpt lat="50.73794" lon="3.0718">
        <ele>31</ele>
        <time>2018-01-08T23:36:32Z</time>
      </trkpt>
      <trkpt lat="50.7379" lon="3.0718">
        <ele>31</ele>
        <time>2018-01-08T23:37:32Z</time>
      </trkpt>
      <trkpt lat="50.73785" lon="3.07179">
        <ele>31</ele>
        <time>2018-01-08T23:38:32Z</time>
      </trkpt>
      <trkpt lat="50.73782" lon="3.07178">
        <ele>31</ele>
        <time>2018-01-08T23:39:32Z</time>
      </trkpt>
      <trkpt lat="50.73782" lon="3.07178">
        <ele>31</ele>
        <time>2018-01-08T23:40:32Z</time>
      </trkpt>
      <trkpt lat="50.73779" lon="3.07177">
        <ele>31</ele>
        <time>2018-01-08T23:41:32Z</time>
      </trkpt>
      <trkpt lat="50.73777" lon="3.07177">
        <ele>31</ele>
        <time>2018-01-08T23:42:32Z</time>
      </trkpt>
      <trkpt lat="50.73776" lon="3.07178">
        <ele>31</ele>
        <time>2018-01-08T23:43:32Z</time>
      </trkpt>
      <trkpt lat="50.73773" lon="3.0718">
        <ele>31</ele>
        <time>2018-01-08T23:44:32Z</time>
      </trkpt>
      <trkpt lat="50.7377" lon="3.07183">
        <ele>32</ele>
        <time>2018-01-08T23:45:32Z</time>
      </trkpt>
      <trkpt lat="50.73769" lon="3.07187">
        <ele>32</ele>
        <time>2018-01-08T23:46:32Z</time>
      </trkpt>
      <trkpt lat="50.73768" lon="3.07192">
        <ele>32</ele>
        <time>2018-01-08T23:47:32Z</time>
      </trkpt>
      <trkpt lat="50.73768" lon="3.07197">
        <ele>32</ele>
        <time>2018-01-08T23:48:32Z</time>
      </trkpt>
      <trkpt lat="50.73769" lon="3.07202">
        <ele>32</ele>
        <time>2018-01-08T23:49:32Z</time>
      </trkpt>
      <trkpt lat="50.7377" lon="3.07203">
        <ele>32</ele>
        <time>2018-01-08T23:50:32Z</time>
      </trkpt>
      <trkpt lat="50.73771" lon="3.07207">
        <ele>32</ele>
        <time>2018-01-08T23:51:32Z</time>
      </trkpt>
      <trkpt lat="50.73775" lon="3.07216">
        <ele>32</ele>
        <time>2018-01-08T23:52:32Z</time>
      </trkpt>
      <trkpt lat="50.73778" lon="3.07222">
        <ele>32</ele>
        <time>2018-01-08T23:53:32Z</time>
      </trkpt>
      <trkpt lat="50.73781" lon="3.07233">
        <ele>32</ele>
        <time>2018-01-08T23:54:32Z</time>
      </trkpt>
      <trkpt lat="50.73783" lon="3.07239">
        <ele>33</ele>
        <time>2018-01-08T23:55:32Z</time>
      </trkpt>
      <trkpt lat="50.73786" lon="3.07249">
        <ele>33</ele>
        <time>2018-01-08T23:56:32Z</time>
      </trkpt>
      <trkpt lat="50.73788" lon="3.07252">
        <ele>33</ele>
        <time>2018-01-08T23:57:32Z</time>
      </trkpt>
      <trkpt lat="50.73789" lon="3.07254">
        <ele>33</ele>
        <time>2018-01-08T23:58:32Z</time>
      </trkpt>
      <trkpt lat="50.7379" lon="3.07255">
        <ele>33</ele>
        <time>2018-01-08T23:59:32Z</time>
      </trkpt>
      <trkpt lat="50.73792" lon="3.07259">
        <ele>33</ele>
        <time>2018-01-09T00:00:32Z</time>
      </trkpt>
      <trkpt lat="50.73799" lon="3.07274">
        <ele>33</ele>
        <time>2018-01-09T00:01:32Z</time>
      </trkpt>
      <trkpt lat="50.73805" lon="3.0729">
        <ele>33</ele>
        <time>2018-01-09T00:02:32Z</time>
      </trkpt>
      <trkpt lat="50.73806" lon="3.07296">
        <ele>33</ele>
        <time>2018-01-09T00:03:32Z</time>
      </trkpt>
      <trkpt lat="50.73808" lon="3.07308">
        <ele>34</ele>
        <time>2018-01-09T00:04:32Z</time>
      </trkpt>
      <trkpt lat="50.73812" lon="3.07333">
        <ele>34</ele>
        <time>2018-01-09T00:05:32Z</time>
      </trkpt>
      <trkpt lat="50.73814" lon="3.07355">
        <ele>34</ele>
        <time>2018-01-09T00:06:32Z</time>
      </trkpt>
      <trkpt lat="50.73815" lon="3.07382">
        <ele>34</ele>
        <time>2018-01-09T00:07:32Z</time>
      </trkpt>
      <trkpt lat="50.73815" lon="3.07387">
        <ele>34</ele>
        <time>2018-01-09T00:08:32Z</time>
      </trkpt>
      <trkpt lat="50.73815" lon="3.07421">
        <ele>35</ele>
        <time>2018-01-09T00:09:32Z</time>
      </trkpt>
      <trkpt lat="50.73815" lon="3.07438">
        <ele>35</ele>
        <time>2018-01-09T00:10:32Z</time>
      </trkpt>
      <trkpt lat="50.73815" lon="3.07458">
        <ele>36</ele>
        <time>2018-01-09T00:11:32Z</time>
      </trkpt>
      <trkpt lat="50.73817" lon="3.07479">
        <ele>36</ele>
        <time>2018-01-09T00:12:32Z</time>
      </trkpt>
      <trkpt lat="50.73821" lon="3.07497">
        <ele>36</ele>
        <time>2018-01-09T00:13:32Z</time>
      </trkpt>
      <trkpt lat="50.73831" lon="3.07533">
        <ele>37</ele>
        <time>2018-01-09T00:14:32Z</time>
      </trkpt>
      <trkpt lat="50.73832" lon="3.07538">
        <ele>37</ele>
        <time>2018-01-09T00:15:32Z</time>
      </trkpt>
      <trkpt lat="50.73837" lon="3.07566">
        <ele>37</ele>
        <time>2018-01-09T00:16:32Z</time>
      </trkpt>
      <trkpt lat="50.7384" lon="3.07593">
        <ele>38</ele>
        <time>2018-01-09T00:17:32Z</time>
      </trkpt>
      <trkpt lat="50.73843" lon="3.07651">
        <ele>39</ele>
        <time>2018-01-09T00:18:32Z</time>
      </trkpt>
      <trkpt lat="50.73842" lon="3.07658">
        <ele>39</ele>
        <time>2018-01-09T00:19:32Z</time>
      </trkpt>
      <trkpt lat="50.73842" lon="3.07668">
        <ele>40</ele>
        <time>2018-01-09T00:20:32Z</time>
      </trkpt>
      <trkpt lat="50.73837" lon="3.0768">
        <ele>41</ele>
        <time>2018-01-09T00:21:32Z</time>
      </trkpt>
      <trkpt lat="50.73832" lon="3.0769">
        <ele>41</ele>
        <time>2018-01-09T00:22:32Z</time>
      </trkpt>
      <trkpt lat="50.7382" lon="3.07701">
        <ele>42</ele>
        <time>2018-01-09T00:23:32Z</time>
      </trkpt>
      <trkpt lat="50.73809" lon="3.07715">
        <ele>43</ele>
        <time>2018-01-09T00:24:32Z</time>
      </trkpt>
      <trkpt lat="50.73801" lon="3.07723">
        <ele>44</ele>
        <time>2018-01-09T00:25:32Z</time>
      </trkpt>
      <trkpt lat="50.73795" lon="3.07736">
        <ele>44</ele>
        <time>2018-01-09T00:26:32Z</time>
      </trkpt>
      <trkpt lat="50.73789" lon="3.07753">
        <ele>45</ele>
        <time>2018-01-09T00:27:32Z</time>
      </trkpt>
      <trkpt lat="50.73788" lon="3.07755">
        <ele>45</ele>
        <time>2018-01-09T00:28:32Z</time>
      </trkpt>
      <trkpt lat="50.73781" lon="3.07783">
        <ele>47</ele>
        <time>2018-01-09T00:29:32Z</time>
      </trkpt>
      <trkpt lat="50.73776" lon="3.07803">
        <ele>48</ele>
        <time>2018-01-09T00:30:32Z</time>
      </trkpt>
      <trkpt lat="50.73772" lon="3.07817">
        <ele>49</ele>
        <time>2018-01-09T00:31:32Z</time>
      </trkpt>
      <trkpt lat="50.73769" lon="3.07828">
        <ele>50</ele>
        <time>2018-01-09T00:32:32Z</time>
      </trkpt>
      <trkpt lat="50.73763" lon="3.07844">
        <ele>50</ele>
        <time>2018-01-09T00:33:32Z</time>
      </trkpt>
      <trkpt lat="50.73763" lon="3.07844">
        <ele>50</ele>
        <time>2018-01-09T00:34:32Z</time>
      </trkpt>
      <trkpt lat="50.7379" lon="3.07891">
        <ele>50</ele>
        <time>2018-01-09T00:35:32Z</time>
      </trkpt>
      <trkpt lat="50.73797" lon="3.07904">
        <ele>49</ele>
        <time>2018-01-09T00:36:32Z</time>
      </trkpt>
      <trkpt lat="50.73806" lon="3.0792">
        <ele>49</ele>
        <time>2018-01-09T00:37:32Z</time>
      </trkpt>
      <trkpt lat="50.73811" lon="3.07928">
        <ele>49</ele>
        <time>2018-01-09T00:38:32Z</time>
      </trkpt>
      <trkpt lat="50.73826" lon="3.07955">
        <ele>50</ele>
        <time>2018-01-09T00:39:32Z</time>
      </trkpt>
      <trkpt lat="50.73846" lon="3.08002">
        <ele>50</ele>
        <time>2018-01-09T00:40:32Z</time>
      </trkpt>
      <trkpt lat="50.73846" lon="3.08002">
        <ele>50</ele>
        <time>2018-01-09T00:41:32Z</time>
      </trkpt>
      <trkpt lat="50.73842" lon="3.08013">
        <ele>49</ele>
        <time>2018-01-09T00:42:32Z</time>
      </trkpt>
      <trkpt lat="50.73839" lon="3.08028">
        <ele>49</ele>
        <time>2018-01-09T00:43:32Z</time>
      </trkpt>
      <trkpt lat="50.73838" lon="3.08047">
        <ele>49</ele>
        <time>2018-01-09T00:44:32Z</time>
      </trkpt>
      <trkpt lat="50.73839" lon="3.08064">
        <ele>48</ele>
        <time>2018-01-09T00:45:32Z</time>
      </trkpt>
      <trkpt lat="50.73839" lon="3.08064">
        <ele>48</ele>
        <time>2018-01-09T00:46:32Z</time>
      </trkpt>
      <trkpt lat="50.73838" lon="3.08064">
        <ele>48</ele>
        <time>2018-01-09T00:47:32Z</time>
      </trkpt>
      <trkpt lat="50.73838" lon="3.08065">
        <ele>48</ele>
        <time>2018-01-09T00:48:32Z</time>
      </trkpt>
      <trkpt lat="50.73837" lon="3.08065">
        <ele>48</ele>
        <time>2018-01-09T00:49:32Z</time>
      </trkpt>
      <trkpt lat="50.73837" lon="3.08066">
        <ele>48</ele>
        <time>2018-01-09T00:50:32Z</time>
      </trkpt>
      <trkpt lat="50.73836" lon="3.08066">
        <ele>48</ele>
        <time>2018-01-09T00:51:32Z</time>
      </trkpt>
      <trkpt lat="50.73836" lon="3.08067">
        <ele>48</ele>
        <time>2018-01-09T00:52:32Z</time>
      </trkpt>
      <trkpt lat="50.73835" lon="3.08067">
        <ele>48</ele>
        <time>2018-01-09T00:53:32Z</time>
      </trkpt>
      <trkpt lat="50.73835" lon="3.08068">
        <ele>48</ele>
        <time>2018-01-09T00:54:32Z</time>
      </trkpt>
      <trkpt lat="50.73835" lon="3.08069">
        <ele>48</ele>
        <time>2018-01-09T00:55:32Z</time>
      </trkpt>
      <trkpt lat="50.73834" lon="3.08069">
        <ele>48</ele>
        <time>2018-01-09T00:56:32Z</time>
      </trkpt>
      <trkpt lat="50.73834" lon="3.0807">
        <ele>48</ele>
        <time>2018-01-09T00:57:32Z</time>
      </trkpt>
      <trkpt lat="50.73834" lon="3.08071">
        <ele>48</ele>
        <time>2018-01-09T00:58:32Z</time>
      </trkpt>
      <trkpt lat="50.73833" lon="3.08072">
        <ele>48</ele>
        <time>2018-01-09T00:59:32Z</time>
      </trkpt>
      <trkpt lat="50.73833" lon="3.08073">
        <ele>48</ele>
        <time>2018-01-09T01:00:32Z</time>
      </trkpt>
      <trkpt lat="50.73833" lon="3.08074">
        <ele>48</ele>
        <time>2018-01-09T01:01:32Z</time>
      </trkpt>
      <trkpt lat="50.73833" lon="3.08075">
        <ele>48</ele>
        <time>2018-01-09T01:02:32Z</time>
      </trkpt>
      <trkpt lat="50.73833" lon="3.08076">
        <ele>48</ele>
        <time>2018-01-09T01:03:32Z</time>
      </trkpt>
      <trkpt lat="50.73833" lon="3.08077">
        <ele>48</ele>
        <time>2018-01-09T01:04:32Z</time>
      </trkpt>
      <trkpt lat="50.73833" lon="3.08078">
        <ele>48</ele>
        <time>2018-01-09T01:05:32Z</time>
      </trkpt>
      <trkpt lat="50.73833" lon="3.08079">
        <ele>48</ele>
        <time>2018-01-09T01:06:32Z</time>
      </trkpt>
      <trkpt lat="50.73833" lon="3.0808">
        <ele>48</ele>
        <time>2018-01-09T01:07:32Z</time>
      </trkpt>
      <trkpt lat="50.73833" lon="3.08081">
        <ele>48</ele>
        <time>2018-01-09T01:08:32Z</time>
      </trkpt>
      <trkpt lat="50.73833" lon="3.08082">
        <ele>48</ele>
        <time>2018-01-09T01:09:32Z</time>
      </trkpt>
      <trkpt lat="50.73833" lon="3.08083">
        <ele>48</ele>
        <time>2018-01-09T01:10:32Z</time>
      </trkpt>
      <trkpt lat="50.73833" lon="3.08084">
        <ele>48</ele>
        <time>2018-01-09T01:11:32Z</time>
      </trkpt>
      <trkpt lat="50.73834" lon="3.08085">
        <ele>48</ele>
        <time>2018-01-09T01:12:32Z</time>
      </trkpt>
      <trkpt lat="50.73834" lon="3.08086">
        <ele>48</ele>
        <time>2018-01-09T01:13:32Z</time>
      </trkpt>
      <trkpt lat="50.73834" lon="3.08087">
        <ele>48</ele>
        <time>2018-01-09T01:14:32Z</time>
      </trkpt>
      <trkpt lat="50.73835" lon="3.08088">
        <ele>48</ele>
        <time>2018-01-09T01:15:32Z</time>
      </trkpt>
      <trkpt lat="50.73818" lon="3.08112">
        <ele>47</ele>
        <time>2018-01-09T01:16:32Z</time>
      </trkpt>
      <trkpt lat="50.73807" lon="3.08129">
        <ele>47</ele>
        <time>2018-01-09T01:17:32Z</time>
      </trkpt>
      <trkpt lat="50.73793" lon="3.08147">
        <ele>46</ele>
        <time>2018-01-09T01:18:32Z</time>
      </trkpt>
      <trkpt lat="50.73788" lon="3.08154">
        <ele>46</ele>
        <time>2018-01-09T01:19:32Z</time>
      </trkpt>
      <trkpt lat="50.73784" lon="3.08159">
        <ele>46</ele>
        <time>2018-01-09T01:20:32Z</time>
      </trkpt>
      <trkpt lat="50.73765" lon="3.08186">
        <ele>46</ele>
        <time>2018-01-09T01:21:32Z</time>
      </trkpt>
      <trkpt lat="50.73751" lon="3.08207">
        <ele>45</ele>
        <time>2018-01-09T01:22:32Z</time>
      </trkpt>
      <trkpt lat="50.73748" lon="3.08211">
        <ele>45</ele>
        <time>2018-01-09T01:23:32Z</time>
      </trkpt>
      <trkpt lat="50.73703" lon="3.08274">
        <ele>42</ele>
        <time>2018-01-09T01:24:32Z</time>
      </trkpt>
      <trkpt lat="50.73698" lon="3.08281">
        <ele>42</ele>
        <time>2018-01-09T01:25:32Z</time>
      </trkpt>
      <trkpt lat="50.73651" lon="3.08349">
        <ele>40</ele>
        <time>2018-01-09T01:26:32Z</time>
      </trkpt>
      <trkpt lat="50.73615" lon="3.08399">
        <ele>39</ele>
        <time>2018-01-09T01:27:32Z</time>
      </trkpt>
      <trkpt lat="50.73593" lon="3.08427">
        <ele>38</ele>
        <time>2018-01-09T01:28:32Z</time>
      </trkpt>
      <trkpt lat="50.73581" lon="3.08444">
        <ele>38</ele>
        <time>2018-01-09T01:29:32Z</time>
      </trkpt>
      <trkpt lat="50.73573" lon="3.08455">
        <ele>38</ele>
        <time>2018-01-09T01:30:32Z</time>
      </trkpt>
      <trkpt lat="50.73536" lon="3.08508">
        <ele>37</ele>
        <time>2018-01-09T01:31:32Z</time>
      </trkpt>
      <trkpt lat="50.73527" lon="3.0852">
        <ele>37</ele>
        <time>2018-01-09T01:32:32Z</time>
      </trkpt>
      <trkpt lat="50.73514" lon="3.08539">
        <ele>37</ele>
        <time>2018-01-09T01:33:32Z</time>
      </trkpt>
      <trkpt lat="50.73479" lon="3.08594">
        <ele>37</ele>
        <time>2018-01-09T01:34:32Z</time>
      </trkpt>
      <trkpt lat="50.73475" lon="3.08599">
        <ele>37</ele>
        <time>2018-01-09T01:35:32Z</time>
      </trkpt>
      <trkpt lat="50.73444" lon="3.08645">
        <ele>38</ele>
        <time>2018-01-09T01:36:32Z</time>
      </trkpt>
      <trkpt lat="50.73431" lon="3.08664">
        <ele>39</ele>
        <time>2018-01-09T01:37:32Z</time>
      </trkpt>
      <trkpt lat="50.73412" lon="3.08693">
        <ele>39</ele>
        <time>2018-01-09T01:38:32Z</time>
      </trkpt>
      <trkpt lat="50.73382" lon="3.08736">
        <ele>39</ele>
        <time>2018-01-09T01:39:32Z</time>
      </trkpt>
      <trkpt lat="50.73379" lon="3.08739">
        <ele>39</ele>
        <time>2018-01-09T01:40:32Z</time>
      </trkpt>
      <trkpt lat="50.73376" lon="3.08742">
        <ele>39</ele>
        <time>2018-01-09T01:41:32Z</time>
      </trkpt>
      <trkpt lat="50.73374" lon="3.08746">
        <ele>39</ele>
        <time>2018-01-09T01:42:32Z</time>
      </trkpt>
      <trkpt lat="50.73372" lon="3.08751">
        <ele>39</ele>
        <time>2018-01-09T01:43:32Z</time>
      </trkpt>
      <trkpt lat="50.7337" lon="3.08757">
        <ele>39</ele>
        <time>2018-01-09T01:44:32Z</time>
      </trkpt>
      <trkpt lat="50.73368" lon="3.08765">
        <ele>39</ele>
        <time>2018-01-09T01:45:32Z</time>
      </trkpt>
      <trkpt lat="50.73367" lon="3.08772">
        <ele>39</ele>
        <time>2018-01-09T01:46:32Z</time>
      </trkpt>
      <trkpt lat="50.73367" lon="3.08779">
        <ele>40</ele>
        <time>2018-01-09T01:47:32Z</time>
      </trkpt>
      <trkpt lat="50.73367" lon="3.08784">
        <ele>40</ele>
        <time>2018-01-09T01:48:32Z</time>
      </trkpt>
      <trkpt lat="50.73367" lon="3.08784">
        <ele>40</ele>
        <time>2018-01-09T01:49:32Z</time>
      </trkpt>
      <trkpt lat="50.73336" lon="3.08802">
        <ele>40</ele>
        <time>2018-01-09T01:50:32Z</time>
      </trkpt>
      <trkpt lat="50.73331" lon="3.08807">
        <ele>40</ele>
        <time>2018-01-09T01:51:32Z</time>
      </trkpt>
      <trkpt lat="50.73323" lon="3.08814">
        <ele>40</ele>
        <time>2018-01-09T01:52:32Z</time>
      </trkpt>
      <trkpt lat="50.73312" lon="3.08828">
        <ele>40</ele>
        <time>2018-01-09T01:53:32Z</time>
      </trkpt>
      <trkpt lat="50.73292" lon="3.08856">
        <ele>40</ele>
        <time>2018-01-09T01:54:32Z</time>
      </trkpt>
      <trkpt lat="50.73234" lon="3.08946">
        <ele>40</ele>
        <time>2018-01-09T01:55:32Z</time>
      </trkpt>
      <trkpt lat="50.73229" lon="3.08954">
        <ele>41</ele>
        <time>2018-01-09T01:56:32Z</time>
      </trkpt>
      <trkpt lat="50.73226" lon="3.0896">
        <ele>41</ele>
        <time>2018-01-09T01:57:32Z</time>
      </trkpt>
      <trkpt lat="50.7321" lon="3.08985">
        <ele>41</ele>
        <time>2018-01-09T01:58:32Z</time>
      </trkpt>
      <trkpt lat="50.73206" lon="3.08992">
        <ele>41</ele>
        <time>2018-01-09T01:59:32Z</time>
      </trkpt>
      <trkpt lat="50.73204" lon="3.08997">
        <ele>41</ele>
        <time>2018-01-09T02:00:32Z</time>
      </trkpt>
      <trkpt lat="50.73203" lon="3.09">
        <ele>41</ele>
        <time>2018-01-09T02:01:32Z</time>
      </trkpt>
      <trkpt lat="50.73202" lon="3.09002">
        <ele>41</ele>
        <time>2018-01-09T02:02:32Z</time>
      </trkpt>
      <trkpt lat="50.732" lon="3.09005">
        <ele>41</ele>
        <time>2018-01-09T02:03:32Z</time>
      </trkpt>
      <trkpt lat="50.7318" lon="3.09033">
        <ele>41</ele>
        <time>2018-01-09T02:04:32Z</time>
      </trkpt>
      <trkpt lat="50.73161" lon="3.09059">
        <ele>41</ele>
        <time>2018-01-09T02:05:32Z</time>
      </trkpt>
      <trkpt lat="50.73148" lon="3.09077">
        <ele>40</ele>
        <time>2018-01-09T02:06:32Z</time>
      </trkpt>
      <trkpt lat="50.7314" lon="3.09088">
        <ele>40</ele>
        <time>2018-01-09T02:07:32Z</time>
      </trkpt>
      <trkpt lat="50.73124" lon="3.09109">
        <ele>39</ele>
        <time>2018-01-09T02:08:32Z</time>
      </trkpt>
      <trkpt lat="50.73094" lon="3.09149">
        <ele>38</ele>
        <time>2018-01-09T02:09:32Z</time>
      </trkpt>
      <trkpt lat="50.73086" lon="3.0916">
        <ele>38</ele>
        <time>2018-01-09T02:10:32Z</time>
      </trkpt>
      <trkpt lat="50.73079" lon="3.09169">
        <ele>38</ele>
        <time>2018-01-09T02:11:32Z</time>
      </trkpt>
      <trkpt lat="50.73059" lon="3.09194">
        <ele>37</ele>
        <time>2018-01-09T02:12:32Z</time>
      </trkpt>
      <trkpt lat="50.73053" lon="3.09201">
        <ele>37</ele>
        <time>2018-01-09T02:13:32Z</time>
      </trkpt>
      <trkpt lat="50.73038" lon="3.09221">
        <ele>36</ele>
        <time>2018-01-09T02:14:32Z</time>
      </trkpt>
      <trkpt lat="50.73016" lon="3.09251">
        <ele>35</ele>
        <time>2018-01-09T02:15:32Z</time>
      </trkpt>
      <trkpt lat="50.73011" lon="3.0925">
        <ele>35</ele>
        <time>2018-01-09T02:16:32Z</time>
      </trkpt>
      <trkpt lat="50.72996" lon="3.0927">
        <ele>35</ele>
        <time>2018-01-09T02:17:32Z</time>
      </trkpt>
      <trkpt lat="50.72989" lon="3.09279">
        <ele>35</ele>
        <time>2018-01-09T02:18:32Z</time>
      </trkpt>
      <trkpt lat="50.72982" lon="3.09288">
        <ele>35</ele>
        <time>2018-01-09T02:19:32Z</time>
      </trkpt>
      <trkpt lat="50.72972" lon="3.093">
        <ele>35</ele>
        <time>2018-01-09T02:20:32Z</time>
      </trkpt>
      <trkpt lat="50.72972" lon="3.09309">
        <ele>35</ele>
        <time>2018-01-09T02:21:32Z</time>
      </trkpt>
      <trkpt lat="50.72971" lon="3.09311">
        <ele>35</ele>
        <time>2018-01-09T02:22:32Z</time>
      </trkpt>
      <trkpt lat="50.7296" lon="3.09325">
        <ele>35</ele>
        <time>2018-01-09T02:23:32Z</time>
      </trkpt>
      <trkpt lat="50.72928" lon="3.09367">
        <ele>35</ele>
        <time>2018-01-09T02:24:32Z</time>
      </trkpt>
      <trkpt lat="50.72908" lon="3.09397">
        <ele>36</ele>
        <time>2018-01-09T02:25:32Z</time>
      </trkpt>
      <trkpt lat="50.72906" lon="3.09402">
        <ele>36</ele>
        <time>2018-01-09T02:26:32Z</time>
      </trkpt>
      <trkpt lat="50.72898" lon="3.09414">
        <ele>36</ele>
        <time>2018-01-09T02:27:32Z</time>
      </trkpt>
      <trkpt lat="50.72891" lon="3.09427">
        <ele>36</ele>
        <time>2018-01-09T02:28:32Z</time>
      </trkpt>
      <trkpt lat="50.72881" lon="3.09447">
        <ele>36</ele>
        <time>2018-01-09T02:29:32Z</time>
      </trkpt>
      <trkpt lat="50.72879" lon="3.09453">
        <ele>36</ele>
        <time>2018-01-09T02:30:32Z</time>
      </trkpt>
      <trkpt lat="50.72866" lon="3.09481">
        <ele>36</ele>
        <time>2018-01-09T02:31:32Z</time>
      </trkpt>
      <trkpt lat="50.7285" lon="3.0952">
        <ele>36</ele>
        <time>2018-01-09T02:32:32Z</time>
      </trkpt>
      <trkpt lat="50.72832" lon="3.09565">
        <ele>36</ele>
        <time>2018-01-09T02:33:32Z</time>
      </trkpt>
      <trkpt lat="50.72817" lon="3.09604">
        <ele>36</ele>
        <time>2018-01-09T02:34:32Z</time>
      </trkpt>
      <trkpt lat="50.72806" lon="3.09631">
        <ele>36</ele>
        <time>2018-01-09T02:35:32Z</time>
      </trkpt>
      <trkpt lat="50.72795" lon="3.09658">
        <ele>36</ele>
        <time>2018-01-09T02:36:32Z</time>
      </trkpt>
      <trkpt lat="50.72783" lon="3.09684">
        <ele>35</ele>
        <time>2018-01-09T02:37:32Z</time>
      </trkpt>
      <trkpt lat="50.7277" lon="3.09707">
        <ele>35</ele>
        <time>2018-01-09T02:38:32Z</time>
      </trkpt>
      <trkpt lat="50.7276" lon="3.09724">
        <ele>35</ele>
        <time>2018-01-09T02:39:32Z</time>
      </trkpt>
      <trkpt lat="50.72754" lon="3.09735">
        <ele>35</ele>
        <time>2018-01-09T02:40:32Z</time>
      </trkpt>
      <trkpt lat="50.72747" lon="3.09745">
        <ele>35</ele>
        <time>2018-01-09T02:41:32Z</time>
      </trkpt>
      <trkpt lat="50.7274" lon="3.09755">
        <ele>35</ele>
        <time>2018-01-09T02:42:32Z</time>
      </trkpt>
      <trkpt lat="50.72726" lon="3.09775">
        <ele>35</ele>
        <time>2018-01-09T02:43:32Z</time>
      </trkpt>
      <trkpt lat="50.72702" lon="3.09806">
        <ele>36</ele>
        <time>2018-01-09T02:44:32Z</time>
      </trkpt>
      <trkpt lat="50.72681" lon="3.09833">
        <ele>36</ele>
        <time>2018-01-09T02:45:32Z</time>
      </trkpt>
      <trkpt lat="50.72663" lon="3.09855">
        <ele>36</ele>
        <time>2018-01-09T02:46:32Z</time>
      </trkpt>
      <trkpt lat="50.72643" lon="3.09877">
        <ele>36</ele>
        <time>2018-01-09T02:47:32Z</time>
      </trkpt>
      <trkpt lat="50.72637" lon="3.09884">
        <ele>36</ele>
        <time>2018-01-09T02:48:32Z</time>
      </trkpt>
      <trkpt lat="50.72624" lon="3.09896">
        <ele>36</ele>
        <time>2018-01-09T02:49:32Z</time>
      </trkpt>
      <trkpt lat="50.72599" lon="3.09922">
        <ele>36</ele>
        <time>2018-01-09T02:50:32Z</time>
      </trkpt>
      <trkpt lat="50.72567" lon="3.09952">
        <ele>35</ele>
        <time>2018-01-09T02:51:32Z</time>
      </trkpt>
      <trkpt lat="50.72561" lon="3.09958">
        <ele>35</ele>
        <time>2018-01-09T02:52:32Z</time>
      </trkpt>
      <trkpt lat="50.72541" lon="3.09975">
        <ele>35</ele>
        <time>2018-01-09T02:53:32Z</time>
      </trkpt>
      <trkpt lat="50.72496" lon="3.10014">
        <ele>34</ele>
        <time>2018-01-09T02:54:32Z</time>
      </trkpt>
      <trkpt lat="50.72478" lon="3.10031">
        <ele>34</ele>
        <time>2018-01-09T02:55:32Z</time>
      </trkpt>
      <trkpt lat="50.72461" lon="3.10047">
        <ele>34</ele>
        <time>2018-01-09T02:56:32Z</time>
      </trkpt>
      <trkpt lat="50.72458" lon="3.10049">
        <ele>34</ele>
        <time>2018-01-09T02:57:32Z</time>
      </trkpt>
      <trkpt lat="50.72436" lon="3.1007">
        <ele>33</ele>
        <time>2018-01-09T02:58:32Z</time>
      </trkpt>
      <trkpt lat="50.72428" lon="3.10077">
        <ele>33</ele>
        <time>2018-01-09T02:59:32Z</time>
      </trkpt>
      <trkpt lat="50.72421" lon="3.10082">
        <ele>33</ele>
        <time>2018-01-09T03:00:32Z</time>
      </trkpt>
      <trkpt lat="50.72416" lon="3.10088">
        <ele>33</ele>
        <time>2018-01-09T03:01:32Z</time>
      </trkpt>
      <trkpt lat="50.72394" lon="3.1011">
        <ele>34</ele>
        <time>2018-01-09T03:02:32Z</time>
      </trkpt>
      <trkpt lat="50.72388" lon="3.10116">
        <ele>34</ele>
        <time>2018-01-09T03:03:32Z</time>
      </trkpt>
      <trkpt lat="50.72374" lon="3.10134">
        <ele>35</ele>
        <time>2018-01-09T03:04:32Z</time>
      </trkpt>
      <trkpt lat="50.7236" lon="3.10152">
        <ele>35</ele>
        <time>2018-01-09T03:05:32Z</time>
      </trkpt>
      <trkpt lat="50.72357" lon="3.10157">
        <ele>35</ele>
        <time>2018-01-09T03:06:32Z</time>
      </trkpt>
      <trkpt lat="50.7235" lon="3.10168">
        <ele>36</ele>
        <time>2018-01-09T03:07:32Z</time>
      </trkpt>
      <trkpt lat="50.72337" lon="3.1019">
        <ele>36</ele>
        <time>2018-01-09T03:08:32Z</time>
      </trkpt>
      <trkpt lat="50.72329" lon="3.10205">
        <ele>36</ele>
        <time>2018-01-09T03:09:32Z</time>
      </trkpt>
      <trkpt lat="50.72321" lon="3.10221">
        <ele>37</ele>
        <time>2018-01-09T03:10:32Z</time>
      </trkpt>
      <trkpt lat="50.72304" lon="3.10256">
        <ele>37</ele>
        <time>2018-01-09T03:11:32Z</time>
      </trkpt>
      <trkpt lat="50.72298" lon="3.10267">
        <ele>37</ele>
        <time>2018-01-09T03:12:32Z</time>
      </trkpt>
      <trkpt lat="50.72268" lon="3.10327">
        <ele>38</ele>
        <time>2018-01-09T03:13:32Z</time>
      </trkpt>
      <trkpt lat="50.72263" lon="3.10336">
        <ele>38</ele>
        <time>2018-01-09T03:14:32Z</time>
      </trkpt>
      <trkpt lat="50.72239" lon="3.10386">
        <ele>40</ele>
        <time>2018-01-09T03:15:32Z</time>
      </trkpt>
      <trkpt lat="50.72227" lon="3.10411">
        <ele>40</ele>
        <time>2018-01-09T03:16:32Z</time>
      </trkpt>
      <trkpt lat="50.7222" lon="3.10427">
        <ele>41</ele>
        <time>2018-01-09T03:17:32Z</time>
      </trkpt>
      <trkpt lat="50.72206" lon="3.10454">
        <ele>41</ele>
        <time>2018-01-09T03:18:32Z</time>
      </trkpt>
      <trkpt lat="50.72199" lon="3.10467">
        <ele>42</ele>
        <time>2018-01-09T03:19:32Z</time>
      </trkpt>
      <trkpt lat="50.72174" lon="3.1052">
        <ele>42</ele>
        <time>2018-01-09T03:20:32Z</time>
      </trkpt>
      <trkpt lat="50.72171" lon="3.10525">
        <ele>42</ele>
        <time>2018-01-09T03:21:32Z</time>
      </trkpt>
      <trkpt lat="50.72159" lon="3.10548">
        <ele>43</ele>
        <time>2018-01-09T03:22:32Z</time>
      </trkpt>
      <trkpt lat="50.72155" lon="3.10559">
        <ele>43</ele>
        <time>2018-01-09T03:23:32Z</time>
      </trkpt>
      <trkpt lat="50.72152" lon="3.10566">
        <ele>43</ele>
        <time>2018-01-09T03:24:32Z</time>
      </trkpt>
      <trkpt lat="50.7214" lon="3.10588">
        <ele>43</ele>
        <time>2018-01-09T03:25:32Z</time>
      </trkpt>
      <trkpt lat="50.72137" lon="3.10595">
        <ele>43</ele>
        <time>2018-01-09T03:26:32Z</time>
      </trkpt>
      <trkpt lat="50.72114" lon="3.10639">
        <ele>44</ele>
        <time>2018-01-09T03:27:32Z</time>
      </trkpt>
      <trkpt lat="50.72112" lon="3.10644">
        <ele>44</ele>
        <time>2018-01-09T03:28:32Z</time>
      </trkpt>
      <trkpt lat="50.72091" lon="3.10686">
        <ele>46</ele>
        <time>2018-01-09T03:29:32Z</time>
      </trkpt>
      <trkpt lat="50.72064" lon="3.1074">
        <ele>48</ele>
        <time>2018-01-09T03:30:32Z</time>
      </trkpt>
      <trkpt lat="50.72052" lon="3.10766">
        <ele>49</ele>
        <time>2018-01-09T03:31:32Z</time>
      </trkpt>
      <trkpt lat="50.7204" lon="3.10789">
        <ele>49</ele>
        <time>2018-01-09T03:32:32Z</time>
      </trkpt>
      <trkpt lat="50.72024" lon="3.10822">
        <ele>51</ele>
        <time>2018-01-09T03:33:32Z</time>
      </trkpt>
      <trkpt lat="50.72019" lon="3.10833">
        <ele>51</ele>
        <time>2018-01-09T03:34:32Z</time>
      </trkpt>
      <trkpt lat="50.72012" lon="3.10846">
        <ele>51</ele>
        <time>2018-01-09T03:35:32Z</time>
      </trkpt>
      <trkpt lat="50.72007" lon="3.10855">
        <ele>51</ele>
        <time>2018-01-09T03:36:32Z</time>
      </trkpt>
      <trkpt lat="50.72003" lon="3.10861">
        <ele>51</ele>
        <time>2018-01-09T03:37:32Z</time>
      </trkpt>
      <trkpt lat="50.72" lon="3.10864">
        <ele>51</ele>
        <time>2018-01-09T03:38:32Z</time>
      </trkpt>
      <trkpt lat="50.71988" lon="3.10886">
        <ele>51</ele>
        <time>2018-01-09T03:39:32Z</time>
      </trkpt>
      <trkpt lat="50.71973" lon="3.10917">
        <ele>51</ele>
        <time>2018-01-09T03:40:32Z</time>
      </trkpt>
      <trkpt lat="50.71963" lon="3.10937">
        <ele>51</ele>
        <time>2018-01-09T03:41:32Z</time>
      </trkpt>
      <trkpt lat="50.71962" lon="3.10937">
        <ele>51</ele>
        <time>2018-01-09T03:42:32Z</time>
      </trkpt>
      <trkpt lat="50.71961" lon="3.10937">
        <ele>51</ele>
        <time>2018-01-09T03:43:32Z</time>
      </trkpt>
      <trkpt lat="50.71961" lon="3.10938">
        <ele>51</ele>
        <time>2018-01-09T03:44:32Z</time>
      </trkpt>
      <trkpt lat="50.7196" lon="3.10938">
        <ele>51</ele>
        <time>2018-01-09T03:45:32Z</time>
      </trkpt>
      <trkpt lat="50.71959" lon="3.10938">
        <ele>51</ele>
        <time>2018-01-09T03:46:32Z</time>
      </trkpt>
      <trkpt lat="50.71958" lon="3.10939">
        <ele>51</ele>
        <time>2018-01-09T03:47:32Z</time>
      </trkpt>
      <trkpt lat="50.71957" lon="3.10939">
        <ele>51</ele>
        <time>2018-01-09T03:48:32Z</time>
      </trkpt>
      <trkpt lat="50.71957" lon="3.1094">
        <ele>51</ele>
        <time>2018-01-09T03:49:32Z</time>
      </trkpt>
      <trkpt lat="50.71956" lon="3.1094">
        <ele>51</ele>
        <time>2018-01-09T03:50:32Z</time>
      </trkpt>
      <trkpt lat="50.71956" lon="3.10941">
        <ele>51</ele>
        <time>2018-01-09T03:51:32Z</time>
      </trkpt>
      <trkpt lat="50.71955" lon="3.10942">
        <ele>51</ele>
        <time>2018-01-09T03:52:32Z</time>
      </trkpt>
      <trkpt lat="50.71954" lon="3.10943">
        <ele>51</ele>
        <time>2018-01-09T03:53:32Z</time>
      </trkpt>
      <trkpt lat="50.71954" lon="3.10944">
        <ele>51</ele>
        <time>2018-01-09T03:54:32Z</time>
      </trkpt>
      <trkpt lat="50.71954" lon="3.10945">
        <ele>51</ele>
        <time>2018-01-09T03:55:32Z</time>
      </trkpt>
      <trkpt lat="50.71953" lon="3.10946">
        <ele>51</ele>
        <time>2018-01-09T03:56:32Z</time>
      </trkpt>
      <trkpt lat="50.71953" lon="3.10947">
        <ele>51</ele>
        <time>2018-01-09T03:57:32Z</time>
      </trkpt>
      <trkpt lat="50.71953" lon="3.10949">
        <ele>51</ele>
        <time>2018-01-09T03:58:32Z</time>
      </trkpt>
      <trkpt lat="50.71953" lon="3.1095">
        <ele>51</ele>
        <time>2018-01-09T03:59:32Z</time>
      </trkpt>
      <trkpt lat="50.71953" lon="3.10951">
        <ele>51</ele>
        <time>2018-01-09T04:00:32Z</time>
      </trkpt>
      <trkpt lat="50.71953" lon="3.10952">
        <ele>51</ele>
        <time>2018-01-09T04:01:32Z</time>
      </trkpt>
      <trkpt lat="50.71953" lon="3.10953">
        <ele>51</ele>
        <time>2018-01-09T04:02:32Z</time>
      </trkpt>
      <trkpt lat="50.71953" lon="3.10954">
        <ele>51</ele>
        <time>2018-01-09T04:03:32Z</time>
      </trkpt>
      <trkpt lat="50.71953" lon="3.10955">
        <ele>51</ele>
        <time>2018-01-09T04:04:32Z</time>
      </trkpt>
      <trkpt lat="50.71953" lon="3.10956">
        <ele>51</ele>
        <time>2018-01-09T04:05:32Z</time>
      </trkpt>
      <trkpt lat="50.71953" lon="3.10957">
        <ele>51</ele>
        <time>2018-01-09T04:06:32Z</time>
      </trkpt>
      <trkpt lat="50.71953" lon="3.10958">
        <ele>51</ele>
        <time>2018-01-09T04:07:32Z</time>
      </trkpt>
      <trkpt lat="50.71953" lon="3.10959">
        <ele>52</ele>
        <time>2018-01-09T04:08:32Z</time>
      </trkpt>
      <trkpt lat="50.71953" lon="3.1096">
        <ele>52</ele>
        <time>2018-01-09T04:09:32Z</time>
      </trkpt>
      <trkpt lat="50.71954" lon="3.10962">
        <ele>52</ele>
        <time>2018-01-09T04:10:32Z</time>
      </trkpt>
      <trkpt lat="50.71954" lon="3.10964">
        <ele>52</ele>
        <time>2018-01-09T04:11:32Z</time>
      </trkpt>
      <trkpt lat="50.71941" lon="3.10984">
        <ele>52</ele>
        <time>2018-01-09T04:12:32Z</time>
      </trkpt>
      <trkpt lat="50.71937" lon="3.10992">
        <ele>52</ele>
        <time>2018-01-09T04:13:32Z</time>
      </trkpt>
      <trkpt lat="50.71932" lon="3.11">
        <ele>52</ele>
        <time>2018-01-09T04:14:32Z</time>
      </trkpt>
      <trkpt lat="50.71927" lon="3.11008">
        <ele>52</ele>
        <time>2018-01-09T04:15:32Z</time>
      </trkpt>
      <trkpt lat="50.7192" lon="3.11018">
        <ele>52</ele>
        <time>2018-01-09T04:16:32Z</time>
      </trkpt>
      <trkpt lat="50.71915" lon="3.11026">
        <ele>52</ele>
        <time>2018-01-09T04:17:32Z</time>
      </trkpt>
      <trkpt lat="50.71911" lon="3.11036">
        <ele>52</ele>
        <time>2018-01-09T04:18:32Z</time>
      </trkpt>
      <trkpt lat="50.71901" lon="3.11044">
        <ele>52</ele>
        <time>2018-01-09T04:19:32Z</time>
      </trkpt>
      <trkpt lat="50.71893" lon="3.11051">
        <ele>52</ele>
        <time>2018-01-09T04:20:32Z</time>
      </trkpt>
      <trkpt lat="50.71878" lon="3.11067">
        <ele>52</ele>
        <time>2018-01-09T04:21:32Z</time>
      </trkpt>
      <trkpt lat="50.71869" lon="3.11078">
        <ele>53</ele>
        <time>2018-01-09T04:22:32Z</time>
      </trkpt>
      <trkpt lat="50.71859" lon="3.11089">
        <ele>53</ele>
        <time>2018-01-09T04:23:32Z</time>
      </trkpt>
      <trkpt lat="50.71846" lon="3.11107">
        <ele>53</ele>
        <time>2018-01-09T04:24:32Z</time>
      </trkpt>
      <trkpt lat="50.71832" lon="3.11127">
        <ele>53</ele>
        <time>2018-01-09T04:25:32Z</time>
      </trkpt>
      <trkpt lat="50.71818" lon="3.11146">
        <ele>53</ele>
        <time>2018-01-09T04:26:32Z</time>
      </trkpt>
      <trkpt lat="50.71805" lon="3.11162">
        <ele>53</ele>
        <time>2018-01-09T04:27:32Z</time>
      </trkpt>
      <trkpt lat="50.71791" lon="3.11178">
        <ele>53</ele>
        <time>2018-01-09T04:28:32Z</time>
      </trkpt>
      <trkpt lat="50.71776" lon="3.11194">
        <ele>53</ele>
        <time>2018-01-09T04:29:32Z</time>
      </trkpt>
      <trkpt lat="50.71759" lon="3.11216">
        <ele>53</ele>
        <time>2018-01-09T04:30:32Z</time>
      </trkpt>
      <trkpt lat="50.71753" lon="3.11223">
        <ele>53</ele>
        <time>2018-01-09T04:31:32Z</time>
      </trkpt>
      <trkpt lat="50.71743" lon="3.11239">
        <ele>53</ele>
        <time>2018-01-09T04:32:32Z</time>
      </trkpt>
      <trkpt lat="50.71731" lon="3.11257">
        <ele>53</ele>
        <time>2018-01-09T04:33:32Z</time>
      </trkpt>
      <trkpt lat="50.71727" lon="3.11264">
        <ele>53</ele>
        <time>2018-01-09T04:34:32Z</time>
      </trkpt>
      <trkpt lat="50.71701" lon="3.11304">
        <ele>52</ele>
        <time>2018-01-09T04:35:32Z</time>
      </trkpt>
      <trkpt lat="50.71676" lon="3.11345">
        <ele>52</ele>
        <time>2018-01-09T04:36:32Z</time>
      </trkpt>
      <trkpt lat="50.7167" lon="3.11355">
        <ele>52</ele>
        <time>2018-01-09T04:37:32Z</time>
      </trkpt>
      <trkpt lat="50.71644" lon="3.11393">
        <ele>51</ele>
        <time>2018-01-09T04:38:32Z</time>
      </trkpt>
      <trkpt lat="50.71628" lon="3.11417">
        <ele>51</ele>
        <time>2018-01-09T04:39:32Z</time>
      </trkpt>
      <trkpt lat="50.7161" lon="3.11441">
        <ele>50</ele>
        <time>2018-01-09T04:40:32Z</time>
      </trkpt>
      <trkpt lat="50.71608" lon="3.11444">
        <ele>50</ele>
        <time>2018-01-09T04:41:32Z</time>
      </trkpt>
      <trkpt lat="50.71586" lon="3.11474">
        <ele>49</ele>
        <time>2018-01-09T04:42:32Z</time>
      </trkpt>
      <trkpt lat="50.71572" lon="3.11493">
        <ele>48</ele>
        <time>2018-01-09T04:43:32Z</time>
      </trkpt>
      <trkpt lat="50.71562" lon="3.11508">
        <ele>48</ele>
        <time>2018-01-09T04:44:32Z</time>
      </trkpt>
      <trkpt lat="50.71554" lon="3.11521">
        <ele>47</ele>
        <time>2018-01-09T04:45:32Z</time>
      </trkpt>
      <trkpt lat="50.71551" lon="3.11526">
        <ele>47</ele>
        <time>2018-01-09T04:46:32Z</time>
      </trkpt>
      <trkpt lat="50.71547" lon="3.11535">
        <ele>47</ele>
        <time>2018-01-09T04:47:32Z</time>
      </trkpt>
      <trkpt lat="50.71541" lon="3.11548">
        <ele>46</ele>
        <time>2018-01-09T04:48:32Z</time>
      </trkpt>
      <trkpt lat="50.71534" lon="3.11565">
        <ele>46</ele>
        <time>2018-01-09T04:49:32Z</time>
      </trkpt>
      <trkpt lat="50.7153" lon="3.11576">
        <ele>46</ele>
        <time>2018-01-09T04:50:32Z</time>
      </trkpt>
      <trkpt lat="50.71521" lon="3.11607">
        <ele>45</ele>
        <time>2018-01-09T04:51:32Z</time>
      </trkpt>
      <trkpt lat="50.71508" lon="3.11663">
        <ele>44</ele>
        <time>2018-01-09T04:52:32Z</time>
      </trkpt>
      <trkpt lat="50.71494" lon="3.11727">
        <ele>44</ele>
        <time>2018-01-09T04:53:32Z</time>
      </trkpt>
      <trkpt lat="50.7149" lon="3.11734">
        <ele>44</ele>
        <time>2018-01-09T04:54:32Z</time>
      </trkpt>
      <trkpt lat="50.71483" lon="3.11758">
        <ele>44</ele>
        <time>2018-01-09T04:55:32Z</time>
      </trkpt>
      <trkpt lat="50.71477" lon="3.11779">
        <ele>45</ele>
        <time>2018-01-09T04:56:32Z</time>
      </trkpt>
      <trkpt lat="50.71474" lon="3.11787">
        <ele>45</ele>
        <time>2018-01-09T04:57:32Z</time>
      </trkpt>
      <trkpt lat="50.71474" lon="3.11787">
        <ele>45</ele>
        <time>2018-01-09T04:58:32Z</time>
      </trkpt>
      <trkpt lat="50.71471" lon="3.11786">
        <ele>45</ele>
        <time>2018-01-09T04:59:32Z</time>
      </trkpt>
      <trkpt lat="50.71469" lon="3.11785">
        <ele>45</ele>
        <time>2018-01-09T05:00:32Z</time>
      </trkpt>
      <trkpt lat="50.71467" lon="3.11786">
        <ele>45</ele>
        <time>2018-01-09T05:01:32Z</time>
      </trkpt>
      <trkpt lat="50.71465" lon="3.11788">
        <ele>46</ele>
        <time>2018-01-09T05:02:32Z</time>
      </trkpt>
      <trkpt lat="50.71464" lon="3.11791">
        <ele>46</ele>
        <time>2018-01-09T05:03:32Z</time>
      </trkpt>
      <trkpt lat="50.71455" lon="3.1178">
        <ele>45</ele>
        <time>2018-01-09T05:04:32Z</time>
      </trkpt>
      <trkpt lat="50.71443" lon="3.11766">
        <ele>45</ele>
        <time>2018-01-09T05:05:32Z</time>
      </trkpt>
      <trkpt lat="50.71438" lon="3.11764">
        <ele>45</ele>
        <time>2018-01-09T05:06:32Z</time>
      </trkpt>
      <trkpt lat="50.71438" lon="3.11764">
        <ele>45</ele>
        <time>2018-01-09T05:07:32Z</time>
      </trkpt>
      <trkpt lat="50.71441" lon="3.11771">
        <ele>45</ele>
        <time>2018-01-09T05:08:32Z</time>
      </trkpt>
      <trkpt lat="50.71453" lon="3.11786">
        <ele>46</ele>
        <time>2018-01-09T05:09:32Z</time>
      </trkpt>
      <trkpt lat="50.71462" lon="3.11796">
        <ele>46</ele>
        <time>2018-01-09T05:10:32Z</time>
      </trkpt>
      <trkpt lat="50.71462" lon="3.11796">
        <ele>46</ele>
        <time>2018-01-09T05:11:32Z</time>
      </trkpt>
      <trkpt lat="50.71461" lon="3.11801">
        <ele>46</ele>
        <time>2018-01-09T05:12:32Z</time>
      </trkpt>
      <trkpt lat="50.71461" lon="3.11805">
        <ele>46</ele>
        <time>2018-01-09T05:13:32Z</time>
      </trkpt>
      <trkpt lat="50.71462" lon="3.11807">
        <ele>46</ele>
        <time>2018-01-09T05:14:32Z</time>
      </trkpt>
      <trkpt lat="50.71463" lon="3.11809">
        <ele>46</ele>
        <time>2018-01-09T05:15:32Z</time>
      </trkpt>
      <trkpt lat="50.71464" lon="3.11811">
        <ele>46</ele>
        <time>2018-01-09T05:16:32Z</time>
      </trkpt>
      <trkpt lat="50.71466" lon="3.11813">
        <ele>46</ele>
        <time>2018-01-09T05:17:32Z</time>
      </trkpt>
      <trkpt lat="50.71468" lon="3.11815">
        <ele>46</ele>
        <time>2018-01-09T05:18:32Z</time>
      </trkpt>
      <trkpt lat="50.71468" lon="3.11819">
        <ele>46</ele>
        <time>2018-01-09T05:19:32Z</time>
      </trkpt>
      <trkpt lat="50.71468" lon="3.11824">
        <ele>47</ele>
        <time>2018-01-09T05:20:32Z</time>
      </trkpt>
      <trkpt lat="50.71463" lon="3.11849">
        <ele>47</ele>
        <time>2018-01-09T05:21:32Z</time>
      </trkpt>
      <trkpt lat="50.71457" lon="3.11878">
        <ele>47</ele>
        <time>2018-01-09T05:22:32Z</time>
      </trkpt>
      <trkpt lat="50.7145" lon="3.11903">
        <ele>47</ele>
        <time>2018-01-09T05:23:32Z</time>
      </trkpt>
      <trkpt lat="50.71449" lon="3.11908">
        <ele>47</ele>
        <time>2018-01-09T05:24:32Z</time>
      </trkpt>
      <trkpt lat="50.71446" lon="3.11917">
        <ele>47</ele>
        <time>2018-01-09T05:25:32Z</time>
      </trkpt>
      <trkpt lat="50.71445" lon="3.11928">
        <ele>47</ele>
        <time>2018-01-09T05:26:32Z</time>
      </trkpt>
      <trkpt lat="50.71437" lon="3.11948">
        <ele>47</ele>
        <time>2018-01-09T05:27:32Z</time>
      </trkpt>
      <trkpt lat="50.71435" lon="3.11953">
        <ele>47</ele>
        <time>2018-01-09T05:28:32Z</time>
      </trkpt>
      <trkpt lat="50.71432" lon="3.11961">
        <ele>46</ele>
        <time>2018-01-09T05:29:32Z</time>
      </trkpt>
      <trkpt lat="50.71426" lon="3.11978">
        <ele>46</ele>
        <time>2018-01-09T05:30:32Z</time>
      </trkpt>
      <trkpt lat="50.71415" lon="3.12005">
        <ele>46</ele>
        <time>2018-01-09T05:31:32Z</time>
      </trkpt>
      <trkpt lat="50.71405" lon="3.12026">
        <ele>46</ele>
        <time>2018-01-09T05:32:32Z</time>
      </trkpt>
      <trkpt lat="50.714" lon="3.12039">
        <ele>47</ele>
        <time>2018-01-09T05:33:32Z</time>
      </trkpt>
      <trkpt lat="50.7137" lon="3.12102">
        <ele>49</ele>
        <time>2018-01-09T05:34:32Z</time>
      </trkpt>
      <trkpt lat="50.71355" lon="3.12133">
        <ele>50</ele>
        <time>2018-01-09T05:35:32Z</time>
      </trkpt>
      <trkpt lat="50.7134" lon="3.12166">
        <ele>51</ele>
        <time>2018-01-09T05:36:32Z</time>
      </trkpt>
      <trkpt lat="50.7133" lon="3.12186">
        <ele>51</ele>
        <time>2018-01-09T05:37:32Z</time>
      </trkpt>
      <trkpt lat="50.71307" lon="3.12236">
        <ele>51</ele>
        <time>2018-01-09T05:38:32Z</time>
      </trkpt>
      <trkpt lat="50.71305" lon="3.1224">
        <ele>51</ele>
        <time>2018-01-09T05:39:32Z</time>
      </trkpt>
      <trkpt lat="50.71301" lon="3.12249">
        <ele>51</ele>
        <time>2018-01-09T05:40:32Z</time>
      </trkpt>
      <trkpt lat="50.71294" lon="3.12262">
        <ele>51</ele>
        <time>2018-01-09T05:41:32Z</time>
      </trkpt>
      <trkpt lat="50.71279" lon="3.12287">
        <ele>51</ele>
        <time>2018-01-09T05:42:32Z</time>
      </trkpt>
      <trkpt lat="50.71273" lon="3.12297">
        <ele>51</ele>
        <time>2018-01-09T05:43:32Z</time>
      </trkpt>
      <trkpt lat="50.7127" lon="3.12301">
        <ele>51</ele>
        <time>2018-01-09T05:44:32Z</time>
      </trkpt>
      <trkpt lat="50.71263" lon="3.12311">
        <ele>51</ele>
        <time>2018-01-09T05:45:32Z</time>
      </trkpt>
      <trkpt lat="50.71256" lon="3.12322">
        <ele>51</ele>
        <time>2018-01-09T05:46:32Z</time>
      </trkpt>
      <trkpt lat="50.71253" lon="3.12328">
        <ele>51</ele>
        <time>2018-01-09T05:47:32Z</time>
      </trkpt>
      <trkpt lat="50.71244" lon="3.12343">
        <ele>51</ele>
        <time>2018-01-09T05:48:32Z</time>
      </trkpt>
      <trkpt lat="50.71242" lon="3.12346">
        <ele>51</ele>
        <time>2018-01-09T05:49:32Z</time>
      </trkpt>
      <trkpt lat="50.7124" lon="3.12349">
        <ele>51</ele>
        <time>2018-01-09T05:50:32Z</time>
      </trkpt>
      <trkpt lat="50.71239" lon="3.12351">
        <ele>51</ele>
        <time>2018-01-09T05:51:32Z</time>
      </trkpt>
      <trkpt lat="50.71236" lon="3.12356">
        <ele>51</ele>
        <time>2018-01-09T05:52:32Z</time>
      </trkpt>
      <trkpt lat="50.71232" lon="3.12362">
        <ele>51</ele>
        <time>2018-01-09T05:53:32Z</time>
      </trkpt>
      <trkpt lat="50.71227" lon="3.12372">
        <ele>50</ele>
        <time>2018-01-09T05:54:32Z</time>
      </trkpt>
      <trkpt lat="50.71225" lon="3.12374">
        <ele>50</ele>
        <time>2018-01-09T05:55:32Z</time>
      </trkpt>
      <trkpt lat="50.71218" lon="3.12386">
        <ele>50</ele>
        <time>2018-01-09T05:56:32Z</time>
      </trkpt>
      <trkpt lat="50.71216" lon="3.12389">
        <ele>50</ele>
        <time>2018-01-09T05:57:32Z</time>
      </trkpt>
      <trkpt lat="50.71209" lon="3.124">
        <ele>50</ele>
        <time>2018-01-09T05:58:32Z</time>
      </trkpt>
      <trkpt lat="50.71203" lon="3.12409">
        <ele>50</ele>
        <time>2018-01-09T05:59:32Z</time>
      </trkpt>
      <trkpt lat="50.7119" lon="3.12425">
        <ele>50</ele>
        <time>2018-01-09T06:00:32Z</time>
      </trkpt>
      <trkpt lat="50.71189" lon="3.12427">
        <ele>50</ele>
        <time>2018-01-09T06:01:32Z</time>
      </trkpt>
      <trkpt lat="50.71168" lon="3.12449">
        <ele>49</ele>
        <time>2018-01-09T06:02:32Z</time>
      </trkpt>
      <trkpt lat="50.71149" lon="3.12466">
        <ele>50</ele>
        <time>2018-01-09T06:03:32Z</time>
      </trkpt>
      <trkpt lat="50.71139" lon="3.12476">
        <ele>50</ele>
        <time>2018-01-09T06:04:32Z</time>
      </trkpt>
      <trkpt lat="50.71117" lon="3.12499">
        <ele>49</ele>
        <time>2018-01-09T06:05:32Z</time>
      </trkpt>
      <trkpt lat="50.71111" lon="3.12504">
        <ele>49</ele>
        <time>2018-01-09T06:06:32Z</time>
      </trkpt>
      <trkpt lat="50.71108" lon="3.12507">
        <ele>49</ele>
        <time>2018-01-09T06:07:32Z</time>
      </trkpt>
      <trkpt lat="50.71105" lon="3.12511">
        <ele>49</ele>
        <time>2018-01-09T06:08:32Z</time>
      </trkpt>
      <trkpt lat="50.71102" lon="3.12515">
        <ele>49</ele>
        <time>2018-01-09T06:09:32Z</time>
      </trkpt>
      <trkpt lat="50.71099" lon="3.12519">
        <ele>49</ele>
        <time>2018-01-09T06:10:32Z</time>
      </trkpt>
      <trkpt lat="50.71097" lon="3.12521">
        <ele>49</ele>
        <time>2018-01-09T06:11:32Z</time>
      </trkpt>
      <trkpt lat="50.71096" lon="3.12525">
        <ele>49</ele>
        <time>2018-01-09T06:12:32Z</time>
      </trkpt>
      <trkpt lat="50.71094" lon="3.12529">
        <ele>49</ele>
        <time>2018-01-09T06:13:32Z</time>
      </trkpt>
      <trkpt lat="50.71092" lon="3.12534">
        <ele>49</ele>
        <time>2018-01-09T06:14:32Z</time>
      </trkpt>
      <trkpt lat="50.71089" lon="3.12538">
        <ele>49</ele>
        <time>2018-01-09T06:15:32Z</time>
      </trkpt>
      <trkpt lat="50.71087" lon="3.12542">
        <ele>49</ele>
        <time>2018-01-09T06:16:32Z</time>
      </trkpt>
      <trkpt lat="50.71082" lon="3.1255">
        <ele>49</ele>
        <time>2018-01-09T06:17:32Z</time>
      </trkpt>
      <trkpt lat="50.71082" lon="3.1255">
        <ele>49</ele>
        <time>2018-01-09T06:18:32Z</time>
      </trkpt>
      <trkpt lat="50.71081" lon="3.1255">
        <ele>49</ele>
        <time>2018-01-09T06:19:32Z</time>
      </trkpt>
      <trkpt lat="50.71078" lon="3.1255">
        <ele>49</ele>
        <time>2018-01-09T06:20:32Z</time>
      </trkpt>
      <trkpt lat="50.71076" lon="3.12551">
        <ele>49</ele>
        <time>2018-01-09T06:21:32Z</time>
      </trkpt>
      <trkpt lat="50.71073" lon="3.12554">
        <ele>49</ele>
        <time>2018-01-09T06:22:32Z</time>
      </trkpt>
      <trkpt lat="50.71071" lon="3.12556">
        <ele>49</ele>
        <time>2018-01-09T06:23:32Z</time>
      </trkpt>
      <trkpt lat="50.7107" lon="3.12558">
        <ele>49</ele>
        <time>2018-01-09T06:24:32Z</time>
      </trkpt>
      <trkpt lat="50.71068" lon="3.12561">
        <ele>49</ele>
        <time>2018-01-09T06:25:32Z</time>
      </trkpt>
      <trkpt lat="50.71068" lon="3.12565">
        <ele>49</ele>
        <time>2018-01-09T06:26:32Z</time>
      </trkpt>
      <trkpt lat="50.71063" lon="3.1257">
        <ele>49</ele>
        <time>2018-01-09T06:27:32Z</time>
      </trkpt>
      <trkpt lat="50.71061" lon="3.12574">
        <ele>49</ele>
        <time>2018-01-09T06:28:32Z</time>
      </trkpt>
      <trkpt lat="50.71057" lon="3.12579">
        <ele>49</ele>
        <time>2018-01-09T06:29:32Z</time>
      </trkpt>
      <trkpt lat="50.71054" lon="3.12583">
        <ele>49</ele>
        <time>2018-01-09T06:30:32Z</time>
      </trkpt>
      <trkpt lat="50.7105" lon="3.12587">
        <ele>49</ele>
        <time>2018-01-09T06:31:32Z</time>
      </trkpt>
      <trkpt lat="50.71046" lon="3.12591">
        <ele>49</ele>
        <time>2018-01-09T06:32:32Z</time>
      </trkpt>
      <trkpt lat="50.71036" lon="3.12596">
        <ele>48</ele>
        <time>2018-01-09T06:33:32Z</time>
      </trkpt>
      <trkpt lat="50.71032" lon="3.12602">
        <ele>48</ele>
        <time>2018-01-09T06:34:32Z</time>
      </trkpt>
      <trkpt lat="50.71028" lon="3.12605">
        <ele>48</ele>
        <time>2018-01-09T06:35:32Z</time>
      </trkpt>
      <trkpt lat="50.71024" lon="3.12609">
        <ele>48</ele>
        <time>2018-01-09T06:36:32Z</time>
      </trkpt>
      <trkpt lat="50.7102" lon="3.12613">
        <ele>48</ele>
        <time>2018-01-09T06:37:32Z</time>
      </trkpt>
      <trkpt lat="50.71016" lon="3.12617">
        <ele>48</ele>
        <time>2018-01-09T06:38:32Z</time>
      </trkpt>
      <trkpt lat="50.71012" lon="3.12622">
        <ele>48</ele>
        <time>2018-01-09T06:39:32Z</time>
      </trkpt>
      <trkpt lat="50.70978" lon="3.12654">
        <ele>48</ele>
        <time>2018-01-09T06:40:32Z</time>
      </trkpt>
      <trkpt lat="50.70977" lon="3.12654">
        <ele>48</ele>
        <time>2018-01-09T06:41:32Z</time>
      </trkpt>
      <trkpt lat="50.70941" lon="3.12675">
        <ele>49</ele>
        <time>2018-01-09T06:42:32Z</time>
      </trkpt>
      <trkpt lat="50.70925" lon="3.12688">
        <ele>49</ele>
        <time>2018-01-09T06:43:32Z</time>
      </trkpt>
      <trkpt lat="50.70889" lon="3.12718">
        <ele>49</ele>
        <time>2018-01-09T06:44:32Z</time>
      </trkpt>
      <trkpt lat="50.70873" lon="3.1273">
        <ele>50</ele>
        <time>2018-01-09T06:45:32Z</time>
      </trkpt>
      <trkpt lat="50.70871" lon="3.12731">
        <ele>50</ele>
        <time>2018-01-09T06:46:32Z</time>
      </trkpt>
      <trkpt lat="50.7087" lon="3.12733">
        <ele>50</ele>
        <time>2018-01-09T06:47:32Z</time>
      </trkpt>
      <trkpt lat="50.70869" lon="3.12733">
        <ele>50</ele>
        <time>2018-01-09T06:48:32Z</time>
      </trkpt>
      <trkpt lat="50.70855" lon="3.12746">
        <ele>50</ele>
        <time>2018-01-09T06:49:32Z</time>
      </trkpt>
      <trkpt lat="50.70853" lon="3.12748">
        <ele>50</ele>
        <time>2018-01-09T06:50:32Z</time>
      </trkpt>
      <trkpt lat="50.70842" lon="3.12758">
        <ele>50</ele>
        <time>2018-01-09T06:51:32Z</time>
      </trkpt>
      <trkpt lat="50.70842" lon="3.12759">
        <ele>50</ele>
        <time>2018-01-09T06:52:32Z</time>
      </trkpt>
      <trkpt lat="50.70837" lon="3.12768">
        <ele>50</ele>
        <time>2018-01-09T06:53:32Z</time>
      </trkpt>
      <trkpt lat="50.70828" lon="3.12776">
        <ele>50</ele>
        <time>2018-01-09T06:54:32Z</time>
      </trkpt>
      <trkpt lat="50.70803" lon="3.128">
        <ele>50</ele>
        <time>2018-01-09T06:55:32Z</time>
      </trkpt>
      <trkpt lat="50.70772" lon="3.12829">
        <ele>51</ele>
        <time>2018-01-09T06:56:32Z</time>
      </trkpt>
      <trkpt lat="50.7075" lon="3.1285">
        <ele>52</ele>
        <time>2018-01-09T06:57:32Z</time>
      </trkpt>
      <trkpt lat="50.70748" lon="3.12853">
        <ele>52</ele>
        <time>2018-01-09T06:58:32Z</time>
      </trkpt>
      <trkpt lat="50.70742" lon="3.12859">
        <ele>52</ele>
        <time>2018-01-09T06:59:32Z</time>
      </trkpt>
      <trkpt lat="50.70738" lon="3.1286">
        <ele>52</ele>
        <time>2018-01-09T07:00:32Z</time>
      </trkpt>
      <trkpt lat="50.70703" lon="3.12894">
        <ele>52</ele>
        <time>2018-01-09T07:01:32Z</time>
      </trkpt>
      <trkpt lat="50.70699" lon="3.12898">
        <ele>52</ele>
        <time>2018-01-09T07:02:32Z</time>
      </trkpt>
      <trkpt lat="50.70696" lon="3.12902">
        <ele>52</ele>
        <time>2018-01-09T07:03:32Z</time>
      </trkpt>
      <trkpt lat="50.70685" lon="3.12914">
        <ele>52</ele>
        <time>2018-01-09T07:04:32Z</time>
      </trkpt>
      <trkpt lat="50.70681" lon="3.12918">
        <ele>52</ele>
        <time>2018-01-09T07:05:32Z</time>
      </trkpt>
      <trkpt lat="50.70662" lon="3.12935">
        <ele>52</ele>
        <time>2018-01-09T07:06:32Z</time>
      </trkpt>
      <trkpt lat="50.70648" lon="3.12949">
        <ele>52</ele>
        <time>2018-01-09T07:07:32Z</time>
      </trkpt>
      <trkpt lat="50.70644" lon="3.12953">
        <ele>52</ele>
        <time>2018-01-09T07:08:32Z</time>
      </trkpt>
      <trkpt lat="50.70637" lon="3.12961">
        <ele>52</ele>
        <time>2018-01-09T07:09:32Z</time>
      </trkpt>
      <trkpt lat="50.70633" lon="3.1297">
        <ele>52</ele>
        <time>2018-01-09T07:10:32Z</time>
      </trkpt>
      <trkpt lat="50.70612" lon="3.12989">
        <ele>53</ele>
        <time>2018-01-09T07:11:32Z</time>
      </trkpt>
      <trkpt lat="50.70605" lon="3.12996">
        <ele>53</ele>
        <time>2018-01-09T07:12:32Z</time>
      </trkpt>
      <trkpt lat="50.70583" lon="3.13017">
        <ele>53</ele>
        <time>2018-01-09T07:13:32Z</time>
      </trkpt>
      <trkpt lat="50.70569" lon="3.1303">
        <ele>53</ele>
        <time>2018-01-09T07:14:32Z</time>
      </trkpt>
      <trkpt lat="50.70535" lon="3.13066">
        <ele>53</ele>
        <time>2018-01-09T07:15:32Z</time>
      </trkpt>
      <trkpt lat="50.70492" lon="3.1311">
        <ele>53</ele>
        <time>2018-01-09T07:16:32Z</time>
      </trkpt>
      <trkpt lat="50.70489" lon="3.13114">
        <ele>53</ele>
        <time>2018-01-09T07:17:32Z</time>
      </trkpt>
      <trkpt lat="50.70446" lon="3.13157">
        <ele>51</ele>
        <time>2018-01-09T07:18:32Z</time>
      </trkpt>
      <trkpt lat="50.70421" lon="3.13184">
        <ele>51</ele>
        <time>2018-01-09T07:19:32Z</time>
      </trkpt>
      <trkpt lat="50.70395" lon="3.1321">
        <ele>52</ele>
        <time>2018-01-09T07:20:32Z</time>
      </trkpt>
      <trkpt lat="50.70375" lon="3.13229">
        <ele>52</ele>
        <time>2018-01-09T07:21:32Z</time>
      </trkpt>
      <trkpt lat="50.70368" lon="3.13238">
        <ele>52</ele>
        <time>2018-01-09T07:22:32Z</time>
      </trkpt>
      <trkpt lat="50.70362" lon="3.13244">
        <ele>52</ele>
        <time>2018-01-09T07:23:32Z</time>
      </trkpt>
      <trkpt lat="50.70342" lon="3.13265">
        <ele>53</ele>
        <time>2018-01-09T07:24:32Z</time>
      </trkpt>
      <trkpt lat="50.70333" lon="3.13275">
        <ele>53</ele>
        <time>2018-01-09T07:25:32Z</time>
      </trkpt>
      <trkpt lat="50.70314" lon="3.13295">
        <ele>54</ele>
        <time>2018-01-09T07:26:32Z</time>
      </trkpt>
      <trkpt lat="50.70305" lon="3.13306">
        <ele>54</ele>
        <time>2018-01-09T07:27:32Z</time>
      </trkpt>
      <trkpt lat="50.70298" lon="3.13314">
        <ele>54</ele>
        <time>2018-01-09T07:28:32Z</time>
      </trkpt>
      <trkpt lat="50.70295" lon="3.13317">
        <ele>55</ele>
        <time>2018-01-09T07:29:32Z</time>
      </trkpt>
      <trkpt lat="50.7029" lon="3.13324">
        <ele>55</ele>
        <time>2018-01-09T07:30:32Z</time>
      </trkpt>
      <trkpt lat="50.70281" lon="3.13337">
        <ele>55</ele>
        <time>2018-01-09T07:31:32Z</time>
      </trkpt>
      <trkpt lat="50.70278" lon="3.13342">
        <ele>55</ele>
        <time>2018-01-09T07:32:32Z</time>
      </trkpt>
      <trkpt lat="50.70273" lon="3.13352">
        <ele>55</ele>
        <time>2018-01-09T07:33:32Z</time>
      </trkpt>
      <trkpt lat="50.70266" lon="3.13365">
        <ele>55</ele>
        <time>2018-01-09T07:34:32Z</time>
      </trkpt>
      <trkpt lat="50.7026" lon="3.13374">
        <ele>55</ele>
        <time>2018-01-09T07:35:32Z</time>
      </trkpt>
      <trkpt lat="50.70249" lon="3.13389">
        <ele>55</ele>
        <time>2018-01-09T07:36:32Z</time>
      </trkpt>
      <trkpt lat="50.70237" lon="3.13403">
        <ele>55</ele>
        <time>2018-01-09T07:37:32Z</time>
      </trkpt>
      <trkpt lat="50.70224" lon="3.13417">
        <ele>54</ele>
        <time>2018-01-09T07:38:32Z</time>
      </trkpt>
      <trkpt lat="50.70214" lon="3.13428">
        <ele>54</ele>
        <time>2018-01-09T07:39:32Z</time>
      </trkpt>
      <trkpt lat="50.70208" lon="3.13434">
        <ele>54</ele>
        <time>2018-01-09T07:40:32Z</time>
      </trkpt>
      <trkpt lat="50.70202" lon="3.13442">
        <ele>54</ele>
        <time>2018-01-09T07:41:32Z</time>
      </trkpt>
      <trkpt lat="50.70197" lon="3.13451">
        <ele>53</ele>
        <time>2018-01-09T07:42:32Z</time>
      </trkpt>
      <trkpt lat="50.70197" lon="3.13451">
        <ele>53</ele>
        <time>2018-01-09T07:43:32Z</time>
      </trkpt>
      <trkpt lat="50.70188" lon="3.13448">
        <ele>53</ele>
        <time>2018-01-09T07:44:32Z</time>
      </trkpt>
      <trkpt lat="50.70173" lon="3.13444">
        <ele>53</ele>
        <time>2018-01-09T07:45:32Z</time>
      </trkpt>
      <trkpt lat="50.70143" lon="3.13436">
        <ele>52</ele>
        <time>2018-01-09T07:46:32Z</time>
      </trkpt>
      <trkpt lat="50.70143" lon="3.13436">
        <ele>52</ele>
        <time>2018-01-09T07:47:32Z</time>
      </trkpt>
      <trkpt lat="50.7014" lon="3.13454">
        <ele>52</ele>
        <time>2018-01-09T07:48:32Z</time>
      </trkpt>
      <trkpt lat="50.70135" lon="3.13477">
        <ele>52</ele>
        <time>2018-01-09T07:49:32Z</time>
      </trkpt>
      <trkpt lat="50.70125" lon="3.13508">
        <ele>52</ele>
        <time>2018-01-09T07:50:32Z</time>
      </trkpt>
      <trkpt lat="50.70119" lon="3.13525">
        <ele>52</ele>
        <time>2018-01-09T07:51:32Z</time>
      </trkpt>
      <trkpt lat="50.70112" lon="3.13538">
        <ele>52</ele>
        <time>2018-01-09T07:52:32Z</time>
      </trkpt>
      <trkpt lat="50.70104" lon="3.13554">
        <ele>52</ele>
        <time>2018-01-09T07:53:32Z</time>
      </trkpt>
      <trkpt lat="50.70084" lon="3.13587">
        <ele>52</ele>
        <time>2018-01-09T07:54:32Z</time>
      </trkpt>
      <trkpt lat="50.70068" lon="3.13615">
        <ele>52</ele>
        <time>2018-01-09T07:55:32Z</time>
      </trkpt>
      <trkpt lat="50.70038" lon="3.13666">
        <ele>52</ele>
        <time>2018-01-09T07:56:32Z</time>
      </trkpt>
      <trkpt lat="50.70033" lon="3.13677">
        <ele>52</ele>
        <time>2018-01-09T07:57:32Z</time>
      </trkpt>
      <trkpt lat="50.70012" lon="3.13714">
        <ele>51</ele>
        <time>2018-01-09T07:58:32Z</time>
      </trkpt>
      <trkpt lat="50.70006" lon="3.13727">
        <ele>51</ele>
        <time>2018-01-09T07:59:32Z</time>
      </trkpt>
      <trkpt lat="50.69982" lon="3.13781">
        <ele>50</ele>
        <time>2018-01-09T08:00:32Z</time>
      </trkpt>
      <trkpt lat="50.69974" lon="3.13799">
        <ele>50</ele>
        <time>2018-01-09T08:01:32Z</time>
      </trkpt>
      <trkpt lat="50.69968" lon="3.13811">
        <ele>50</ele>
        <time>2018-01-09T08:02:32Z</time>
      </trkpt>
      <trkpt lat="50.69963" lon="3.1382">
        <ele>49</ele>
        <time>2018-01-09T08:03:32Z</time>
      </trkpt>
      <trkpt lat="50.69957" lon="3.13826">
        <ele>49</ele>
        <time>2018-01-09T08:04:32Z</time>
      </trkpt>
      <trkpt lat="50.69954" lon="3.13829">
        <ele>49</ele>
        <time>2018-01-09T08:05:32Z</time>
      </trkpt>
      <trkpt lat="50.69942" lon="3.1384">
        <ele>49</ele>
        <time>2018-01-09T08:06:32Z</time>
      </trkpt>
      <trkpt lat="50.6993" lon="3.13851">
        <ele>48</ele>
        <time>2018-01-09T08:07:32Z</time>
      </trkpt>
      <trkpt lat="50.69922" lon="3.13853">
        <ele>48</ele>
        <time>2018-01-09T08:08:32Z</time>
      </trkpt>
      <trkpt lat="50.6992" lon="3.13853">
        <ele>48</ele>
        <time>2018-01-09T08:09:32Z</time>
      </trkpt>
      <trkpt lat="50.69912" lon="3.13863">
        <ele>48</ele>
        <time>2018-01-09T08:10:32Z</time>
      </trkpt>
      <trkpt lat="50.69903" lon="3.13871">
        <ele>48</ele>
        <time>2018-01-09T08:11:32Z</time>
      </trkpt>
      <trkpt lat="50.69901" lon="3.13875">
        <ele>48</ele>
        <time>2018-01-09T08:12:32Z</time>
      </trkpt>
      <trkpt lat="50.69893" lon="3.13881">
        <ele>48</ele>
        <time>2018-01-09T08:13:32Z</time>
      </trkpt>
      <trkpt lat="50.69887" lon="3.13889">
        <ele>47</ele>
        <time>2018-01-09T08:14:32Z</time>
      </trkpt>
      <trkpt lat="50.6985" lon="3.1393">
        <ele>46</ele>
        <time>2018-01-09T08:15:32Z</time>
      </trkpt>
      <trkpt lat="50.69847" lon="3.13933">
        <ele>46</ele>
        <time>2018-01-09T08:16:32Z</time>
      </trkpt>
      <trkpt lat="50.69837" lon="3.13945">
        <ele>45</ele>
        <time>2018-01-09T08:17:32Z</time>
      </trkpt>
      <trkpt lat="50.69794" lon="3.13996">
        <ele>44</ele>
        <time>2018-01-09T08:18:32Z</time>
      </trkpt>
      <trkpt lat="50.69775" lon="3.1402">
        <ele>44</ele>
        <time>2018-01-09T08:19:32Z</time>
      </trkpt>
      <trkpt lat="50.69769" lon="3.14028">
        <ele>44</ele>
        <time>2018-01-09T08:20:32Z</time>
      </trkpt>
      <trkpt lat="50.69755" lon="3.14046">
        <ele>44</ele>
        <time>2018-01-09T08:21:32Z</time>
      </trkpt>
      <trkpt lat="50.69733" lon="3.14075">
        <ele>43</ele>
        <time>2018-01-09T08:22:32Z</time>
      </trkpt>
      <trkpt lat="50.69724" lon="3.14088">
        <ele>43</ele>
        <time>2018-01-09T08:23:32Z</time>
      </trkpt>
      <trkpt lat="50.69723" lon="3.14092">
        <ele>43</ele>
        <time>2018-01-09T08:24:32Z</time>
      </trkpt>
      <trkpt lat="50.6972" lon="3.14101">
        <ele>43</ele>
        <time>2018-01-09T08:25:32Z</time>
      </trkpt>
      <trkpt lat="50.69711" lon="3.14133">
        <ele>42</ele>
        <time>2018-01-09T08:26:32Z</time>
      </trkpt>
      <trkpt lat="50.69702" lon="3.14163">
        <ele>41</ele>
        <time>2018-01-09T08:27:32Z</time>
      </trkpt>
      <trkpt lat="50.69697" lon="3.14177">
        <ele>41</ele>
        <time>2018-01-09T08:28:32Z</time>
      </trkpt>
      <trkpt lat="50.69688" lon="3.14193">
        <ele>41</ele>
        <time>2018-01-09T08:29:32Z</time>
      </trkpt>
      <trkpt lat="50.69675" lon="3.14217">
        <ele>40</ele>
        <time>2018-01-09T08:30:32Z</time>
      </trkpt>
      <trkpt lat="50.69655" lon="3.14256">
        <ele>39</ele>
        <time>2018-01-09T08:31:32Z</time>
      </trkpt>
      <trkpt lat="50.69642" lon="3.1428">
        <ele>38</ele>
        <time>2018-01-09T08:32:32Z</time>
      </trkpt>
      <trkpt lat="50.6964" lon="3.14283">
        <ele>38</ele>
        <time>2018-01-09T08:33:32Z</time>
      </trkpt>
      <trkpt lat="50.6963" lon="3.14304">
        <ele>38</ele>
        <time>2018-01-09T08:34:32Z</time>
      </trkpt>
      <trkpt lat="50.69614" lon="3.14331">
        <ele>38</ele>
        <time>2018-01-09T08:35:32Z</time>
      </trkpt>
      <trkpt lat="50.69609" lon="3.14344">
        <ele>38</ele>
        <time>2018-01-09T08:36:32Z</time>
      </trkpt>
      <trkpt lat="50.69604" lon="3.14355">
        <ele>38</ele>
        <time>2018-01-09T08:37:32Z</time>
      </trkpt>
      <trkpt lat="50.69598" lon="3.14373">
        <ele>38</ele>
        <time>2018-01-09T08:38:32Z</time>
      </trkpt>
      <trkpt lat="50.69591" lon="3.14396">
        <ele>38</ele>
        <time>2018-01-09T08:39:32Z</time>
      </trkpt>
      <trkpt lat="50.69587" lon="3.14409">
        <ele>38</ele>
        <time>2018-01-09T08:40:32Z</time>
      </trkpt>
      <trkpt lat="50.69581" lon="3.1443">
        <ele>38</ele>
        <time>2018-01-09T08:41:32Z</time>
      </trkpt>
      <trkpt lat="50.69574" lon="3.14446">
        <ele>38</ele>
        <time>2018-01-09T08:42:32Z</time>
      </trkpt>
      <trkpt lat="50.69567" lon="3.14458">
        <ele>38</ele>
        <time>2018-01-09T08:43:32Z</time>
      </trkpt>
      <trkpt lat="50.6956" lon="3.1447">
        <ele>38</ele>
        <time>2018-01-09T08:44:32Z</time>
      </trkpt>
      <trkpt lat="50.69552" lon="3.14482">
        <ele>38</ele>
        <time>2018-01-09T08:45:32Z</time>
      </trkpt>
      <trkpt lat="50.69547" lon="3.14495">
        <ele>38</ele>
        <time>2018-01-09T08:46:32Z</time>
      </trkpt>
      <trkpt lat="50.69542" lon="3.1451">
        <ele>38</ele>
        <time>2018-01-09T08:47:32Z</time>
      </trkpt>
      <trkpt lat="50.6954" lon="3.14515">
        <ele>38</ele>
        <time>2018-01-09T08:48:32Z</time>
      </trkpt>
      <trkpt lat="50.69539" lon="3.14521">
        <ele>38</ele>
        <time>2018-01-09T08:49:32Z</time>
      </trkpt>
      <trkpt lat="50.69537" lon="3.1453">
        <ele>38</ele>
        <time>2018-01-09T08:50:32Z</time>
      </trkpt>
      <trkpt lat="50.69535" lon="3.14541">
        <ele>38</ele>
        <time>2018-01-09T08:51:32Z</time>
      </trkpt>
      <trkpt lat="50.69533" lon="3.1455">
        <ele>38</ele>
        <time>2018-01-09T08:52:32Z</time>
      </trkpt>
      <trkpt lat="50.6953" lon="3.14567">
        <ele>37</ele>
        <time>2018-01-09T08:53:32Z</time>
      </trkpt>
      <trkpt lat="50.69528" lon="3.14576">
        <ele>37</ele>
        <time>2018-01-09T08:54:32Z</time>
      </trkpt>
      <trkpt lat="50.69526" lon="3.14586">
        <ele>37</ele>
        <time>2018-01-09T08:55:32Z</time>
      </trkpt>
      <trkpt lat="50.69522" lon="3.14605">
        <ele>37</ele>
        <time>2018-01-09T08:56:32Z</time>
      </trkpt>
      <trkpt lat="50.69516" lon="3.14646">
        <ele>37</ele>
        <time>2018-01-09T08:57:32Z</time>
      </trkpt>
      <trkpt lat="50.69514" lon="3.14656">
        <ele>36</ele>
        <time>2018-01-09T08:58:32Z</time>
      </trkpt>
      <trkpt lat="50.69511" lon="3.14668">
        <ele>36</ele>
        <time>2018-01-09T08:59:32Z</time>
      </trkpt>
      <trkpt lat="50.69507" lon="3.14709">
        <ele>36</ele>
        <time>2018-01-09T09:00:32Z</time>
      </trkpt>
      <trkpt lat="50.69506" lon="3.14727">
        <ele>35</ele>
        <time>2018-01-09T09:01:32Z</time>
      </trkpt>
      <trkpt lat="50.69504" lon="3.14742">
        <ele>35</ele>
        <time>2018-01-09T09:02:32Z</time>
      </trkpt>
      <trkpt lat="50.69504" lon="3.14744">
        <ele>35</ele>
        <time>2018-01-09T09:03:32Z</time>
      </trkpt>
      <trkpt lat="50.69503" lon="3.14755">
        <ele>35</ele>
        <time>2018-01-09T09:04:32Z</time>
      </trkpt>
      <trkpt lat="50.69503" lon="3.14763">
        <ele>35</ele>
        <time>2018-01-09T09:05:32Z</time>
      </trkpt>
      <trkpt lat="50.69501" lon="3.14798">
        <ele>34</ele>
        <time>2018-01-09T09:06:32Z</time>
      </trkpt>
      <trkpt lat="50.69498" lon="3.1483">
        <ele>34</ele>
        <time>2018-01-09T09:07:32Z</time>
      </trkpt>
      <trkpt lat="50.69497" lon="3.14852">
        <ele>34</ele>
        <time>2018-01-09T09:08:32Z</time>
      </trkpt>
      <trkpt lat="50.69493" lon="3.14914">
        <ele>34</ele>
        <time>2018-01-09T09:09:32Z</time>
      </trkpt>
      <trkpt lat="50.69492" lon="3.14925">
        <ele>34</ele>
        <time>2018-01-09T09:10:32Z</time>
      </trkpt>
      <trkpt lat="50.69492" lon="3.14927">
        <ele>34</ele>
        <time>2018-01-09T09:11:32Z</time>
      </trkpt>
      <trkpt lat="50.69488" lon="3.15038">
        <ele>34</ele>
        <time>2018-01-09T09:12:32Z</time>
      </trkpt>
      <trkpt lat="50.69486" lon="3.15068">
        <ele>34</ele>
        <time>2018-01-09T09:13:32Z</time>
      </trkpt>
      <trkpt lat="50.69484" lon="3.1511">
        <ele>34</ele>
        <time>2018-01-09T09:14:32Z</time>
      </trkpt>
      <trkpt lat="50.69483" lon="3.15128">
        <ele>34</ele>
        <time>2018-01-09T09:15:32Z</time>
      </trkpt>
      <trkpt lat="50.69483" lon="3.15142">
        <ele>34</ele>
        <time>2018-01-09T09:16:32Z</time>
      </trkpt>
      <trkpt lat="50.6948" lon="3.152">
        <ele>33</ele>
        <time>2018-01-09T09:17:32Z</time>
      </trkpt>
      <trkpt lat="50.69477" lon="3.15247">
        <ele>32</ele>
        <time>2018-01-09T09:18:32Z</time>
      </trkpt>
      <trkpt lat="50.69474" lon="3.15315">
        <ele>32</ele>
        <time>2018-01-09T09:19:32Z</time>
      </trkpt>
      <trkpt lat="50.69469" lon="3.15388">
        <ele>32</ele>
        <time>2018-01-09T09:20:32Z</time>
      </trkpt>
      <trkpt lat="50.69465" lon="3.15486">
        <ele>34</ele>
        <time>2018-01-09T09:21:32Z</time>
      </trkpt>
      <trkpt lat="50.69463" lon="3.15534">
        <ele>34</ele>
        <time>2018-01-09T09:22:32Z</time>
      </trkpt>
      <trkpt lat="50.69463" lon="3.15534">
        <ele>34</ele>
        <time>2018-01-09T09:23:32Z</time>
      </trkpt>
      <trkpt lat="50.69461" lon="3.15586">
        <ele>35</ele>
        <time>2018-01-09T09:24:32Z</time>
      </trkpt>
      <trkpt lat="50.6946" lon="3.15623">
        <ele>35</ele>
        <time>2018-01-09T09:25:32Z</time>
      </trkpt>
      <trkpt lat="50.6946" lon="3.1563">
        <ele>35</ele>
        <time>2018-01-09T09:26:32Z</time>
      </trkpt>
      <trkpt lat="50.69459" lon="3.15643">
        <ele>35</ele>
        <time>2018-01-09T09:27:32Z</time>
      </trkpt>
      <trkpt lat="50.69458" lon="3.15658">
        <ele>35</ele>
        <time>2018-01-09T09:28:32Z</time>
      </trkpt>
      <trkpt lat="50.69457" lon="3.15669">
        <ele>35</ele>
        <time>2018-01-09T09:29:32Z</time>
      </trkpt>
      <trkpt lat="50.69456" lon="3.15675">
        <ele>35</ele>
        <time>2018-01-09T09:30:32Z</time>
      </trkpt>
      <trkpt lat="50.69455" lon="3.15678">
        <ele>35</ele>
        <time>2018-01-09T09:31:32Z</time>
      </trkpt>
      <trkpt lat="50.69453" lon="3.15687">
        <ele>35</ele>
        <time>2018-01-09T09:32:32Z</time>
      </trkpt>
      <trkpt lat="50.69451" lon="3.15693">
        <ele>35</ele>
        <time>2018-01-09T09:33:32Z</time>
      </trkpt>
      <trkpt lat="50.69447" lon="3.15702">
        <ele>35</ele>
        <time>2018-01-09T09:34:32Z</time>
      </trkpt>
      <trkpt lat="50.69445" lon="3.15709">
        <ele>35</ele>
        <time>2018-01-09T09:35:32Z</time>
      </trkpt>
      <trkpt lat="50.69442" lon="3.15717">
        <ele>35</ele>
        <time>2018-01-09T09:36:32Z</time>
      </trkpt>
      <trkpt lat="50.69439" lon="3.15723">
        <ele>35</ele>
        <time>2018-01-09T09:37:32Z</time>
      </trkpt>
      <trkpt lat="50.69437" lon="3.15727">
        <ele>35</ele>
        <time>2018-01-09T09:38:32Z</time>
      </trkpt>
      <trkpt lat="50.69432" lon="3.15736">
        <ele>35</ele>
        <time>2018-01-09T09:39:32Z</time>
      </trkpt>
      <trkpt lat="50.69424" lon="3.15748">
        <ele>35</ele>
        <time>2018-01-09T09:40:32Z</time>
      </trkpt>
      <trkpt lat="50.69412" lon="3.1577">
        <ele>35</ele>
        <time>2018-01-09T09:41:32Z</time>
      </trkpt>
      <trkpt lat="50.6941" lon="3.15774">
        <ele>35</ele>
        <time>2018-01-09T09:42:32Z</time>
      </trkpt>
      <trkpt lat="50.6941" lon="3.15774">
        <ele>35</ele>
        <time>2018-01-09T09:43:32Z</time>
      </trkpt>
      <trkpt lat="50.69421" lon="3.15788">
        <ele>35</ele>
        <time>2018-01-09T09:44:32Z</time>
      </trkpt>
      <trkpt lat="50.69453" lon="3.15831">
        <ele>35</ele>
        <time>2018-01-09T09:45:32Z</time>
      </trkpt>
      <trkpt lat="50.69457" lon="3.15837">
        <ele>36</ele>
        <time>2018-01-09T09:46:32Z</time>
      </trkpt>
      <trkpt lat="50.69476" lon="3.15863">
        <ele>36</ele>
        <time>2018-01-09T09:47:32Z</time>
      </trkpt>
      <trkpt lat="50.69504" lon="3.15902">
        <ele>36</ele>
        <time>2018-01-09T09:48:32Z</time>
      </trkpt>
      <trkpt lat="50.69564" lon="3.15983">
        <ele>38</ele>
        <time>2018-01-09T09:49:32Z</time>
      </trkpt>
      <trkpt lat="50.69608" lon="3.16041">
        <ele>39</ele>
        <time>2018-01-09T09:50:32Z</time>
      </trkpt>
      <trkpt lat="50.69625" lon="3.16065">
        <ele>39</ele>
        <time>2018-01-09T09:51:32Z</time>
      </trkpt>
      <trkpt lat="50.69632" lon="3.16074">
        <ele>39</ele>
        <time>2018-01-09T09:52:32Z</time>
      </trkpt>
      <trkpt lat="50.69632" lon="3.16074">
        <ele>39</ele>
        <time>2018-01-09T09:53:32Z</time>
      </trkpt>
      <trkpt lat="50.69621" lon="3.16097">
        <ele>40</ele>
        <time>2018-01-09T09:54:32Z</time>
      </trkpt>
      <trkpt lat="50.69605" lon="3.16129">
        <ele>40</ele>
        <time>2018-01-09T09:55:32Z</time>
      </trkpt>
      <trkpt lat="50.69576" lon="3.16187">
        <ele>40</ele>
        <time>2018-01-09T09:56:32Z</time>
      </trkpt>
      <trkpt lat="50.69576" lon="3.16187">
        <ele>40</ele>
        <time>2018-01-09T09:57:32Z</time>
      </trkpt>
      <trkpt lat="50.69584" lon="3.16193">
        <ele>40</ele>
        <time>2018-01-09T09:58:32Z</time>
      </trkpt>
      <trkpt lat="50.69596" lon="3.162">
        <ele>40</ele>
        <time>2018-01-09T09:59:32Z</time>
      </trkpt>
      <trkpt lat="50.69663" lon="3.1624">
        <ele>41</ele>
        <time>2018-01-09T10:00:32Z</time>
      </trkpt>
      <trkpt lat="50.69668" lon="3.16244">
        <ele>41</ele>
        <time>2018-01-09T10:01:32Z</time>
      </trkpt>
      <trkpt lat="50.69711" lon="3.1627">
        <ele>42</ele>
        <time>2018-01-09T10:02:32Z</time>
      </trkpt>
      <trkpt lat="50.69716" lon="3.16274">
        <ele>43</ele>
        <time>2018-01-09T10:03:32Z</time>
      </trkpt>
      <trkpt lat="50.69755" lon="3.16298">
        <ele>44</ele>
        <time>2018-01-09T10:04:32Z</time>
      </trkpt>
      <trkpt lat="50.6979" lon="3.1632">
        <ele>46</ele>
        <time>2018-01-09T10:05:32Z</time>
      </trkpt>
      <trkpt lat="50.69795" lon="3.16322">
        <ele>47</ele>
        <time>2018-01-09T10:06:32Z</time>
      </trkpt>
      <trkpt lat="50.69798" lon="3.16323">
        <ele>47</ele>
        <time>2018-01-09T10:07:32Z</time>
      </trkpt>
      <trkpt lat="50.698" lon="3.16325">
        <ele>47</ele>
        <time>2018-01-09T10:08:32Z</time>
      </trkpt>
      <trkpt lat="50.69802" lon="3.16326">
        <ele>47</ele>
        <time>2018-01-09T10:09:32Z</time>
      </trkpt>
      <trkpt lat="50.69808" lon="3.1633">
        <ele>47</ele>
        <time>2018-01-09T10:10:32Z</time>
      </trkpt>
      <trkpt lat="50.69813" lon="3.16334">
        <ele>48</ele>
        <time>2018-01-09T10:11:32Z</time>
      </trkpt>
      <trkpt lat="50.6982" lon="3.16345">
        <ele>48</ele>
        <time>2018-01-09T10:12:32Z</time>
      </trkpt>
      <trkpt lat="50.69824" lon="3.16355">
        <ele>48</ele>
        <time>2018-01-09T10:13:32Z</time>
      </trkpt>
      <trkpt lat="50.69824" lon="3.16355">
        <ele>48</ele>
        <time>2018-01-09T10:14:32Z</time>
      </trkpt>
      <trkpt lat="50.69819" lon="3.16363">
        <ele>48</ele>
        <time>2018-01-09T10:15:32Z</time>
      </trkpt>
      <trkpt lat="50.69815" lon="3.16369">
        <ele>48</ele>
        <time>2018-01-09T10:16:32Z</time>
      </trkpt>
      <trkpt lat="50.69813" lon="3.16375">
        <ele>48</ele>
        <time>2018-01-09T10:17:32Z</time>
      </trkpt>
      <trkpt lat="50.6981" lon="3.16381">
        <ele>48</ele>
        <time>2018-01-09T10:18:32Z</time>
      </trkpt>
      <trkpt lat="50.69797" lon="3.16417">
        <ele>47</ele>
        <time>2018-01-09T10:19:32Z</time>
      </trkpt>
      <trkpt lat="50.69792" lon="3.16433">
        <ele>47</ele>
        <time>2018-01-09T10:20:32Z</time>
      </trkpt>
      <trkpt lat="50.69782" lon="3.16463">
        <ele>46</ele>
        <time>2018-01-09T10:21:32Z</time>
      </trkpt>
      <trkpt lat="50.6978" lon="3.16467">
        <ele>46</ele>
        <time>2018-01-09T10:22:32Z</time>
      </trkpt>
      <trkpt lat="50.69776" lon="3.16479">
        <ele>46</ele>
        <time>2018-01-09T10:23:32Z</time>
      </trkpt>
      <trkpt lat="50.69769" lon="3.16494">
        <ele>46</ele>
        <time>2018-01-09T10:24:32Z</time>
      </trkpt>
      <trkpt lat="50.69766" lon="3.16501">
        <ele>46</ele>
        <time>2018-01-09T10:25:32Z</time>
      </trkpt>
      <trkpt lat="50.69716" lon="3.16588">
        <ele>45</ele>
        <time>2018-01-09T10:26:32Z</time>
      </trkpt>
      <trkpt lat="50.69704" lon="3.16611">
        <ele>45</ele>
        <time>2018-01-09T10:27:32Z</time>
      </trkpt>
      <trkpt lat="50.69685" lon="3.16644">
        <ele>45</ele>
        <time>2018-01-09T10:28:32Z</time>
      </trkpt>
      <trkpt lat="50.69658" lon="3.16694">
        <ele>45</ele>
        <time>2018-01-09T10:29:32Z</time>
      </trkpt>
      <trkpt lat="50.69636" lon="3.16733">
        <ele>44</ele>
        <time>2018-01-09T10:30:32Z</time>
      </trkpt>
      <trkpt lat="50.6963" lon="3.16743">
        <ele>44</ele>
        <time>2018-01-09T10:31:32Z</time>
      </trkpt>
      <trkpt lat="50.69626" lon="3.16753">
        <ele>44</ele>
        <time>2018-01-09T10:32:32Z</time>
      </trkpt>
      <trkpt lat="50.69624" lon="3.16759">
        <ele>44</ele>
        <time>2018-01-09T10:33:32Z</time>
      </trkpt>
      <trkpt lat="50.69588" lon="3.16853">
        <ele>43</ele>
        <time>2018-01-09T10:34:32Z</time>
      </trkpt>
      <trkpt lat="50.6957" lon="3.169">
        <ele>42</ele>
        <time>2018-01-09T10:35:32Z</time>
      </trkpt>
      <trkpt lat="50.6955" lon="3.16951">
        <ele>43</ele>
        <time>2018-01-09T10:36:32Z</time>
      </trkpt>
      <trkpt lat="50.69535" lon="3.16989">
        <ele>43</ele>
        <time>2018-01-09T10:37:32Z</time>
      </trkpt>
      <trkpt lat="50.69509" lon="3.17055">
        <ele>43</ele>
        <time>2018-01-09T10:38:32Z</time>
      </trkpt>
      <trkpt lat="50.69485" lon="3.17117">
        <ele>42</ele>
        <time>2018-01-09T10:39:32Z</time>
      </trkpt>
      <trkpt lat="50.69467" lon="3.17164">
        <ele>40</ele>
        <time>2018-01-09T10:40:32Z</time>
      </trkpt>
      <trkpt lat="50.69449" lon="3.1721">
        <ele>39</ele>
        <time>2018-01-09T10:41:32Z</time>
      </trkpt>
      <trkpt lat="50.69432" lon="3.17247">
        <ele>37</ele>
        <time>2018-01-09T10:42:32Z</time>
      </trkpt>
      <trkpt lat="50.69422" lon="3.17272">
        <ele>37</ele>
        <time>2018-01-09T10:43:32Z</time>
      </trkpt>
      <trkpt lat="50.69419" lon="3.17279">
        <ele>36</ele>
        <time>2018-01-09T10:44:32Z</time>
      </trkpt>
      <trkpt lat="50.694" lon="3.17323">
        <ele>35</ele>
        <time>2018-01-09T10:45:32Z</time>
      </trkpt>
      <trkpt lat="50.69381" lon="3.17367">
        <ele>35</ele>
        <time>2018-01-09T10:46:32Z</time>
      </trkpt>
      <trkpt lat="50.69375" lon="3.17383">
        <ele>34</ele>
        <time>2018-01-09T10:47:32Z</time>
      </trkpt>
      <trkpt lat="50.6937" lon="3.174">
        <ele>34</ele>
        <time>2018-01-09T10:48:32Z</time>
      </trkpt>
      <trkpt lat="50.69366" lon="3.17415">
        <ele>34</ele>
        <time>2018-01-09T10:49:32Z</time>
      </trkpt>
      <trkpt lat="50.69363" lon="3.17434">
        <ele>33</ele>
        <time>2018-01-09T10:50:32Z</time>
      </trkpt>
      <trkpt lat="50.69362" lon="3.17455">
        <ele>32</ele>
        <time>2018-01-09T10:51:32Z</time>
      </trkpt>
      <trkpt lat="50.69362" lon="3.17471">
        <ele>32</ele>
        <time>2018-01-09T10:52:32Z</time>
      </trkpt>
      <trkpt lat="50.69364" lon="3.17492">
        <ele>31</ele>
        <time>2018-01-09T10:53:32Z</time>
      </trkpt>
      <trkpt lat="50.69366" lon="3.17507">
        <ele>31</ele>
        <time>2018-01-09T10:54:32Z</time>
      </trkpt>
      <trkpt lat="50.69369" lon="3.1752">
        <ele>31</ele>
        <time>2018-01-09T10:55:32Z</time>
      </trkpt>
      <trkpt lat="50.69376" lon="3.1754">
        <ele>31</ele>
        <time>2018-01-09T10:56:32Z</time>
      </trkpt>
      <trkpt lat="50.69403" lon="3.17625">
        <ele>32</ele>
        <time>2018-01-09T10:57:32Z</time>
      </trkpt>
      <trkpt lat="50.69409" lon="3.17645">
        <ele>33</ele>
        <time>2018-01-09T10:58:32Z</time>
      </trkpt>
      <trkpt lat="50.69412" lon="3.17659">
        <ele>33</ele>
        <time>2018-01-09T10:59:32Z</time>
      </trkpt>
      <trkpt lat="50.69414" lon="3.1767">
        <ele>33</ele>
        <time>2018-01-09T11:00:32Z</time>
      </trkpt>
      <trkpt lat="50.69415" lon="3.17679">
        <ele>33</ele>
        <time>2018-01-09T11:01:32Z</time>
      </trkpt>
      <trkpt lat="50.69417" lon="3.17689">
        <ele>33</ele>
        <time>2018-01-09T11:02:32Z</time>
      </trkpt>
      <trkpt lat="50.69421" lon="3.17716">
        <ele>32</ele>
        <time>2018-01-09T11:03:32Z</time>
      </trkpt>
      <trkpt lat="50.69422" lon="3.17722">
        <ele>32</ele>
        <time>2018-01-09T11:04:32Z</time>
      </trkpt>
      <trkpt lat="50.69429" lon="3.17769">
        <ele>32</ele>
        <time>2018-01-09T11:05:32Z</time>
      </trkpt>
      <trkpt lat="50.69436" lon="3.17791">
        <ele>31</ele>
        <time>2018-01-09T11:06:32Z</time>
      </trkpt>
      <trkpt lat="50.69456" lon="3.17852">
        <ele>31</ele>
        <time>2018-01-09T11:07:32Z</time>
      </trkpt>
      <trkpt lat="50.69479" lon="3.17924">
        <ele>30</ele>
        <time>2018-01-09T11:08:32Z</time>
      </trkpt>
      <trkpt lat="50.69492" lon="3.17964">
        <ele>30</ele>
        <time>2018-01-09T11:09:32Z</time>
      </trkpt>
      <trkpt lat="50.695" lon="3.17995">
        <ele>30</ele>
        <time>2018-01-09T11:10:32Z</time>
      </trkpt>
      <trkpt lat="50.69507" lon="3.1803">
        <ele>30</ele>
        <time>2018-01-09T11:11:32Z</time>
      </trkpt>
      <trkpt lat="50.69509" lon="3.18049">
        <ele>30</ele>
        <time>2018-01-09T11:12:32Z</time>
      </trkpt>
      <trkpt lat="50.69511" lon="3.18077">
        <ele>29</ele>
        <time>2018-01-09T11:13:32Z</time>
      </trkpt>
      <trkpt lat="50.69514" lon="3.18152">
        <ele>29</ele>
        <time>2018-01-09T11:14:32Z</time>
      </trkpt>
      <trkpt lat="50.69514" lon="3.18172">
        <ele>28</ele>
        <time>2018-01-09T11:15:32Z</time>
      </trkpt>
      <trkpt lat="50.69514" lon="3.18183">
        <ele>28</ele>
        <time>2018-01-09T11:16:32Z</time>
      </trkpt>
      <trkpt lat="50.69512" lon="3.18204">
        <ele>28</ele>
        <time>2018-01-09T11:17:32Z</time>
      </trkpt>
      <trkpt lat="50.69509" lon="3.18221">
        <ele>28</ele>
        <time>2018-01-09T11:18:32Z</time>
      </trkpt>
      <trkpt lat="50.695" lon="3.18243">
        <ele>28</ele>
        <time>2018-01-09T11:19:32Z</time>
      </trkpt>
      <trkpt lat="50.69494" lon="3.18254">
        <ele>28</ele>
        <time>2018-01-09T11:20:32Z</time>
      </trkpt>
      <trkpt lat="50.69487" lon="3.18265">
        <ele>28</ele>
        <time>2018-01-09T11:21:32Z</time>
      </trkpt>
      <trkpt lat="50.69483" lon="3.1827">
        <ele>28</ele>
        <time>2018-01-09T11:22:32Z</time>
      </trkpt>
      <trkpt lat="50.69478" lon="3.18276">
        <ele>28</ele>
        <time>2018-01-09T11:23:32Z</time>
      </trkpt>
      <trkpt lat="50.69472" lon="3.18281">
        <ele>28</ele>
        <time>2018-01-09T11:24:32Z</time>
      </trkpt>
      <trkpt lat="50.69463" lon="3.18287">
        <ele>28</ele>
        <time>2018-01-09T11:25:32Z</time>
      </trkpt>
      <trkpt lat="50.69435" lon="3.18304">
        <ele>27</ele>
        <time>2018-01-09T11:26:32Z</time>
      </trkpt>
      <trkpt lat="50.69402" lon="3.18327">
        <ele>27</ele>
        <time>2018-01-09T11:27:32Z</time>
      </trkpt>
      <trkpt lat="50.69381" lon="3.18343">
        <ele>26</ele>
        <time>2018-01-09T11:28:32Z</time>
      </trkpt>
      <trkpt lat="50.69361" lon="3.1836">
        <ele>26</ele>
        <time>2018-01-09T11:29:32Z</time>
      </trkpt>
      <trkpt lat="50.69333" lon="3.18385">
        <ele>25</ele>
        <time>2018-01-09T11:30:32Z</time>
      </trkpt>
      <trkpt lat="50.69299" lon="3.18415">
        <ele>26</ele>
        <time>2018-01-09T11:31:32Z</time>
      </trkpt>
      <trkpt lat="50.6929" lon="3.18422">
        <ele>26</ele>
        <time>2018-01-09T11:32:32Z</time>
      </trkpt>
      <trkpt lat="50.69274" lon="3.18434">
        <ele>26</ele>
        <time>2018-01-09T11:33:32Z</time>
      </trkpt>
      <trkpt lat="50.69255" lon="3.18446">
        <ele>27</ele>
        <time>2018-01-09T11:34:32Z</time>
      </trkpt>
      <trkpt lat="50.69245" lon="3.18451">
        <ele>27</ele>
        <time>2018-01-09T11:35:32Z</time>
      </trkpt>
      <trkpt lat="50.69239" lon="3.18455">
        <ele>27</ele>
        <time>2018-01-09T11:36:32Z</time>
      </trkpt>
      <trkpt lat="50.69229" lon="3.18461">
        <ele>27</ele>
        <time>2018-01-09T11:37:32Z</time>
      </trkpt>
      <trkpt lat="50.69229" lon="3.18461">
        <ele>27</ele>
        <time>2018-01-09T11:38:32Z</time>
      </trkpt>
      <trkpt lat="50.69181" lon="3.18505">
        <ele>28</ele>
        <time>2018-01-09T11:39:32Z</time>
      </trkpt>
      <trkpt lat="50.69039" lon="3.18651">
        <ele>28</ele>
        <time>2018-01-09T11:40:32Z</time>
      </trkpt>
      <trkpt lat="50.69033" lon="3.18658">
        <ele>29</ele>
        <time>2018-01-09T11:41:32Z</time>
      </trkpt>
      <trkpt lat="50.69028" lon="3.18668">
        <ele>29</ele>
        <time>2018-01-09T11:42:32Z</time>
      </trkpt>
      <trkpt lat="50.69014" lon="3.18688">
        <ele>29</ele>
        <time>2018-01-09T11:43:32Z</time>
      </trkpt>
      <trkpt lat="50.69011" lon="3.18697">
        <ele>29</ele>
        <time>2018-01-09T11:44:32Z</time>
      </trkpt>
      <trkpt lat="50.69006" lon="3.18702">
        <ele>29</ele>
        <time>2018-01-09T11:45:32Z</time>
      </trkpt>
      <trkpt lat="50.68981" lon="3.18729">
        <ele>29</ele>
        <time>2018-01-09T11:46:32Z</time>
      </trkpt>
      <trkpt lat="50.68925" lon="3.18785">
        <ele>29</ele>
        <time>2018-01-09T11:47:32Z</time>
      </trkpt>
      <trkpt lat="50.68869" lon="3.18844">
        <ele>30</ele>
        <time>2018-01-09T11:48:32Z</time>
      </trkpt>
      <trkpt lat="50.68825" lon="3.18888">
        <ele>30</ele>
        <time>2018-01-09T11:49:32Z</time>
      </trkpt>
      <trkpt lat="50.68782" lon="3.18933">
        <ele>29</ele>
        <time>2018-01-09T11:50:32Z</time>
      </trkpt>
      <trkpt lat="50.68684" lon="3.19035">
        <ele>27</ele>
        <time>2018-01-09T11:51:32Z</time>
      </trkpt>
      <trkpt lat="50.68676" lon="3.19043">
        <ele>27</ele>
        <time>2018-01-09T11:52:32Z</time>
      </trkpt>
      <trkpt lat="50.68651" lon="3.19069">
        <ele>27</ele>
        <time>2018-01-09T11:53:32Z</time>
      </trkpt>
      <trkpt lat="50.68642" lon="3.19079">
        <ele>27</ele>
        <time>2018-01-09T11:54:32Z</time>
      </trkpt>
      <trkpt lat="50.68605" lon="3.19116">
        <ele>28</ele>
        <time>2018-01-09T11:55:32Z</time>
      </trkpt>
      <trkpt lat="50.68594" lon="3.19128">
        <ele>28</ele>
        <time>2018-01-09T11:56:32Z</time>
      </trkpt>
      <trkpt lat="50.68573" lon="3.1915">
        <ele>29</ele>
        <time>2018-01-09T11:57:32Z</time>
      </trkpt>
      <trkpt lat="50.68521" lon="3.19203">
        <ele>30</ele>
        <time>2018-01-09T11:58:32Z</time>
      </trkpt>
      <trkpt lat="50.68463" lon="3.19262">
        <ele>29</ele>
        <time>2018-01-09T11:59:32Z</time>
      </trkpt>
      <trkpt lat="50.68429" lon="3.19296">
        <ele>28</ele>
        <time>2018-01-09T12:00:32Z</time>
      </trkpt>
      <trkpt lat="50.68409" lon="3.19318">
        <ele>27</ele>
        <time>2018-01-09T12:01:32Z</time>
      </trkpt>
      <trkpt lat="50.68382" lon="3.19346">
        <ele>27</ele>
        <time>2018-01-09T12:02:32Z</time>
      </trkpt>
      <trkpt lat="50.68358" lon="3.1937">
        <ele>28</ele>
        <time>2018-01-09T12:03:32Z</time>
      </trkpt>
      <trkpt lat="50.68342" lon="3.1939">
        <ele>28</ele>
        <time>2018-01-09T12:04:32Z</time>
      </trkpt>
      <trkpt lat="50.68326" lon="3.1941">
        <ele>28</ele>
        <time>2018-01-09T12:05:32Z</time>
      </trkpt>
      <trkpt lat="50.68293" lon="3.19444">
        <ele>30</ele>
        <time>2018-01-09T12:06:32Z</time>
      </trkpt>
      <trkpt lat="50.68284" lon="3.19452">
        <ele>31</ele>
        <time>2018-01-09T12:07:32Z</time>
      </trkpt>
      <trkpt lat="50.68253" lon="3.19485">
        <ele>33</ele>
        <time>2018-01-09T12:08:32Z</time>
      </trkpt>
      <trkpt lat="50.68244" lon="3.19493">
        <ele>33</ele>
        <time>2018-01-09T12:09:32Z</time>
      </trkpt>
      <trkpt lat="50.68232" lon="3.19502">
        <ele>33</ele>
        <time>2018-01-09T12:10:32Z</time>
      </trkpt>
      <trkpt lat="50.68232" lon="3.19502">
        <ele>33</ele>
        <time>2018-01-09T12:11:32Z</time>
      </trkpt>
      <trkpt lat="50.68226" lon="3.19507">
        <ele>33</ele>
        <time>2018-01-09T12:12:32Z</time>
      </trkpt>
      <trkpt lat="50.68204" lon="3.1953">
        <ele>33</ele>
        <time>2018-01-09T12:13:32Z</time>
      </trkpt>
      <trkpt lat="50.68196" lon="3.19541">
        <ele>33</ele>
        <time>2018-01-09T12:14:32Z</time>
      </trkpt>
      <trkpt lat="50.6819" lon="3.19551">
        <ele>33</ele>
        <time>2018-01-09T12:15:32Z</time>
      </trkpt>
      <trkpt lat="50.68185" lon="3.19566">
        <ele>33</ele>
        <time>2018-01-09T12:16:32Z</time>
      </trkpt>
      <trkpt lat="50.68179" lon="3.19582">
        <ele>33</ele>
        <time>2018-01-09T12:17:32Z</time>
      </trkpt>
      <trkpt lat="50.68171" lon="3.19613">
        <ele>33</ele>
        <time>2018-01-09T12:18:32Z</time>
      </trkpt>
      <trkpt lat="50.68152" lon="3.19675">
        <ele>33</ele>
        <time>2018-01-09T12:19:32Z</time>
      </trkpt>
      <trkpt lat="50.68147" lon="3.19689">
        <ele>32</ele>
        <time>2018-01-09T12:20:32Z</time>
      </trkpt>
      <trkpt lat="50.68142" lon="3.197">
        <ele>32</ele>
        <time>2018-01-09T12:21:32Z</time>
      </trkpt>
      <trkpt lat="50.68109" lon="3.19753">
        <ele>31</ele>
        <time>2018-01-09T12:22:32Z</time>
      </trkpt>
      <trkpt lat="50.68074" lon="3.19808">
        <ele>31</ele>
        <time>2018-01-09T12:23:32Z</time>
      </trkpt>
      <trkpt lat="50.6801" lon="3.19907">
        <ele>33</ele>
        <time>2018-01-09T12:24:32Z</time>
      </trkpt>
      <trkpt lat="50.67954" lon="3.19995">
        <ele>33</ele>
        <time>2018-01-09T12:25:32Z</time>
      </trkpt>
      <trkpt lat="50.67887" lon="3.20105">
        <ele>33</ele>
        <time>2018-01-09T12:26:32Z</time>
      </trkpt>
      <trkpt lat="50.67887" lon="3.20105">
        <ele>33</ele>
        <time>2018-01-09T12:27:32Z</time>
      </trkpt>
      <trkpt lat="50.67877" lon="3.20088">
        <ele>33</ele>
        <time>2018-01-09T12:28:32Z</time>
      </trkpt>
      <trkpt lat="50.67877" lon="3.20088">
        <ele>33</ele>
        <time>2018-01-09T12:29:32Z</time>
      </trkpt>
      <trkpt lat="50.67872" lon="3.20097">
        <ele>33</ele>
        <time>2018-01-09T12:30:32Z</time>
      </trkpt>
      <trkpt lat="50.67872" lon="3.20097">
        <ele>33</ele>
        <time>2018-01-09T12:31:32Z</time>
      </trkpt>
      <trkpt lat="50.67882" lon="3.20113">
        <ele>33</ele>
        <time>2018-01-09T12:32:32Z</time>
      </trkpt>
      <trkpt lat="50.67901" lon="3.20144">
        <ele>33</ele>
        <time>2018-01-09T12:33:32Z</time>
      </trkpt>
      <trkpt lat="50.67932" lon="3.20196">
        <ele>32</ele>
        <time>2018-01-09T12:34:32Z</time>
      </trkpt>
      <trkpt lat="50.67932" lon="3.20196">
        <ele>32</ele>
        <time>2018-01-09T12:35:32Z</time>
      </trkpt>
      <trkpt lat="50.67927" lon="3.20204">
        <ele>32</ele>
        <time>2018-01-09T12:36:32Z</time>
      </trkpt>
      <trkpt lat="50.67927" lon="3.20204">
        <ele>32</ele>
        <time>2018-01-09T12:37:32Z</time>
      </trkpt>
      <trkpt lat="50.67934" lon="3.20218">
        <ele>32</ele>
        <time>2018-01-09T12:38:32Z</time>
      </trkpt>
      <trkpt lat="50.67934" lon="3.20218">
        <ele>32</ele>
        <time>2018-01-09T12:39:32Z</time>
      </trkpt>
      <trkpt lat="50.67925" lon="3.20226">
        <ele>32</ele>
        <time>2018-01-09T12:40:32Z</time>
      </trkpt>
      <trkpt lat="50.67915" lon="3.20234">
        <ele>32</ele>
        <time>2018-01-09T12:41:32Z</time>
      </trkpt>
      <trkpt lat="50.67899" lon="3.20244">
        <ele>32</ele>
        <time>2018-01-09T12:42:32Z</time>
      </trkpt>
      <trkpt lat="50.67879" lon="3.20257">
        <ele>32</ele>
        <time>2018-01-09T12:43:32Z</time>
      </trkpt>
      <trkpt lat="50.67864" lon="3.20267">
        <ele>32</ele>
        <time>2018-01-09T12:44:32Z</time>
      </trkpt>
      <trkpt lat="50.6785" lon="3.20277">
        <ele>32</ele>
        <time>2018-01-09T12:45:32Z</time>
      </trkpt>
      <trkpt lat="50.67843" lon="3.20283">
        <ele>32</ele>
        <time>2018-01-09T12:46:32Z</time>
      </trkpt>
      <trkpt lat="50.67837" lon="3.20293">
        <ele>32</ele>
        <time>2018-01-09T12:47:32Z</time>
      </trkpt>
      <trkpt lat="50.67828" lon="3.20309">
        <ele>32</ele>
        <time>2018-01-09T12:48:32Z</time>
      </trkpt>
      <trkpt lat="50.67824" lon="3.2032">
        <ele>31</ele>
        <time>2018-01-09T12:49:32Z</time>
      </trkpt>
    </trkseg>
  </trk>
</gpx>